<?xml version="1.0" encoding="UTF-8" standalone="no" ?>
<gpx xmlns="http://www.topografix.com/GPX/1/1" xmlns:xsi="http://www.w3.org/2001/XMLSchema-instance" xsi:schemaLocation="http://www.topografix.com/GPX/1/1 http://www.topografix.com/GPX/1/1/gpx.xsd" version="1.1" creator="VisuGPX - https://www.visugpx.com">
  <metadata>
    <name>Glaris-Engelberg</name>
  </metadata>
  <trk>
    <name><![CDATA[Glaris-Engelberg_8]]></name>
    <extensions>
      <line xmlns="http://www.topografix.com/GPX/gpx_style/0/2">
        <color>008800</color>
        <width>4</width>
      </line>
    </extensions>
    <trkseg>
      <trkpt lat="46.96679" lon="8.58465">
        <ele>849</ele>
        <time>2021-08-10T09:24:31.736Z</time>
      </trkpt>
      <trkpt lat="46.96679" lon="8.58465">
        <ele>849</ele>
        <time>2021-08-10T09:24:31.736Z</time>
      </trkpt>
      <trkpt lat="46.96679" lon="8.58465">
        <ele>849</ele>
        <time>2021-08-10T09:24:32.736Z</time>
      </trkpt>
      <trkpt lat="46.96679" lon="8.58465">
        <ele>848</ele>
        <time>2021-08-10T09:24:33.735Z</time>
      </trkpt>
      <trkpt lat="46.96679" lon="8.58465">
        <ele>848</ele>
        <time>2021-08-10T09:24:34.736Z</time>
      </trkpt>
      <trkpt lat="46.96679" lon="8.58465">
        <ele>847</ele>
        <time>2021-08-10T09:24:35.735Z</time>
      </trkpt>
      <trkpt lat="46.96679" lon="8.58465">
        <ele>847</ele>
        <time>2021-08-10T09:24:36.735Z</time>
      </trkpt>
      <trkpt lat="46.96678" lon="8.58466">
        <ele>846</ele>
        <time>2021-08-10T09:24:37.735Z</time>
      </trkpt>
      <trkpt lat="46.96677" lon="8.58466">
        <ele>846</ele>
        <time>2021-08-10T09:24:38.736Z</time>
      </trkpt>
      <trkpt lat="46.96677" lon="8.58466">
        <ele>845</ele>
        <time>2021-08-10T09:24:39.735Z</time>
      </trkpt>
      <trkpt lat="46.96676" lon="8.58467">
        <ele>845</ele>
        <time>2021-08-10T09:24:40.736Z</time>
      </trkpt>
      <trkpt lat="46.96674" lon="8.58468">
        <ele>844</ele>
        <time>2021-08-10T09:24:41.735Z</time>
      </trkpt>
      <trkpt lat="46.96673" lon="8.58468">
        <ele>844</ele>
        <time>2021-08-10T09:24:42.735Z</time>
      </trkpt>
      <trkpt lat="46.96672" lon="8.58468">
        <ele>844</ele>
        <time>2021-08-10T09:24:43.736Z</time>
      </trkpt>
      <trkpt lat="46.96671" lon="8.58468">
        <ele>844</ele>
        <time>2021-08-10T09:24:44.735Z</time>
      </trkpt>
      <trkpt lat="46.96669" lon="8.58467">
        <ele>844</ele>
        <time>2021-08-10T09:24:45.735Z</time>
      </trkpt>
      <trkpt lat="46.96668" lon="8.58467">
        <ele>844</ele>
        <time>2021-08-10T09:24:46.735Z</time>
      </trkpt>
      <trkpt lat="46.96666" lon="8.58467">
        <ele>844</ele>
        <time>2021-08-10T09:24:47.735Z</time>
      </trkpt>
      <trkpt lat="46.96665" lon="8.58468">
        <ele>844</ele>
        <time>2021-08-10T09:24:48.736Z</time>
      </trkpt>
      <trkpt lat="46.96663" lon="8.58468">
        <ele>844</ele>
        <time>2021-08-10T09:24:49.735Z</time>
      </trkpt>
      <trkpt lat="46.96662" lon="8.58468">
        <ele>845</ele>
        <time>2021-08-10T09:24:50.735Z</time>
      </trkpt>
      <trkpt lat="46.96661" lon="8.58469">
        <ele>845</ele>
        <time>2021-08-10T09:24:51.735Z</time>
      </trkpt>
      <trkpt lat="46.9666" lon="8.5847">
        <ele>845</ele>
        <time>2021-08-10T09:24:52.735Z</time>
      </trkpt>
      <trkpt lat="46.96659" lon="8.58472">
        <ele>845</ele>
        <time>2021-08-10T09:24:53.735Z</time>
      </trkpt>
      <trkpt lat="46.96658" lon="8.58475">
        <ele>845</ele>
        <time>2021-08-10T09:24:54.735Z</time>
      </trkpt>
      <trkpt lat="46.96657" lon="8.58477">
        <ele>845</ele>
        <time>2021-08-10T09:24:55.736Z</time>
      </trkpt>
      <trkpt lat="46.96657" lon="8.58479">
        <ele>845</ele>
        <time>2021-08-10T09:24:56.735Z</time>
      </trkpt>
      <trkpt lat="46.96656" lon="8.58481">
        <ele>845</ele>
        <time>2021-08-10T09:24:57.735Z</time>
      </trkpt>
      <trkpt lat="46.96656" lon="8.58483">
        <ele>845</ele>
        <time>2021-08-10T09:24:58.735Z</time>
      </trkpt>
      <trkpt lat="46.96655" lon="8.58485">
        <ele>845</ele>
        <time>2021-08-10T09:24:59.735Z</time>
      </trkpt>
      <trkpt lat="46.96654" lon="8.58487">
        <ele>845</ele>
        <time>2021-08-10T09:25:00.735Z</time>
      </trkpt>
      <trkpt lat="46.96654" lon="8.58488">
        <ele>845</ele>
        <time>2021-08-10T09:25:01.735Z</time>
      </trkpt>
      <trkpt lat="46.96653" lon="8.5849">
        <ele>845</ele>
        <time>2021-08-10T09:25:02.736Z</time>
      </trkpt>
      <trkpt lat="46.96652" lon="8.58491">
        <ele>845</ele>
        <time>2021-08-10T09:25:03.735Z</time>
      </trkpt>
      <trkpt lat="46.96652" lon="8.58493">
        <ele>845</ele>
        <time>2021-08-10T09:25:04.735Z</time>
      </trkpt>
      <trkpt lat="46.96651" lon="8.58494">
        <ele>844</ele>
        <time>2021-08-10T09:25:05.735Z</time>
      </trkpt>
      <trkpt lat="46.96651" lon="8.58495">
        <ele>844</ele>
        <time>2021-08-10T09:25:06.735Z</time>
      </trkpt>
      <trkpt lat="46.96651" lon="8.58496">
        <ele>844</ele>
        <time>2021-08-10T09:25:07.735Z</time>
      </trkpt>
      <trkpt lat="46.96651" lon="8.58496">
        <ele>844</ele>
        <time>2021-08-10T09:25:08.735Z</time>
      </trkpt>
      <trkpt lat="46.9665" lon="8.58497">
        <ele>844</ele>
        <time>2021-08-10T09:25:09.735Z</time>
      </trkpt>
      <trkpt lat="46.9665" lon="8.58498">
        <ele>844</ele>
        <time>2021-08-10T09:25:10.735Z</time>
      </trkpt>
      <trkpt lat="46.96649" lon="8.58499">
        <ele>845</ele>
        <time>2021-08-10T09:25:11.735Z</time>
      </trkpt>
      <trkpt lat="46.96649" lon="8.58501">
        <ele>845</ele>
        <time>2021-08-10T09:25:12.735Z</time>
      </trkpt>
      <trkpt lat="46.96649" lon="8.58501">
        <ele>845</ele>
        <time>2021-08-10T09:25:13.735Z</time>
      </trkpt>
      <trkpt lat="46.96649" lon="8.58502">
        <ele>845</ele>
        <time>2021-08-10T09:25:14.736Z</time>
      </trkpt>
      <trkpt lat="46.96648" lon="8.58502">
        <ele>846</ele>
        <time>2021-08-10T09:25:15.735Z</time>
      </trkpt>
      <trkpt lat="46.96648" lon="8.58503">
        <ele>846</ele>
        <time>2021-08-10T09:25:16.735Z</time>
      </trkpt>
      <trkpt lat="46.96647" lon="8.58504">
        <ele>847</ele>
        <time>2021-08-10T09:25:17.735Z</time>
      </trkpt>
      <trkpt lat="46.96647" lon="8.58505">
        <ele>847</ele>
        <time>2021-08-10T09:25:18.735Z</time>
      </trkpt>
      <trkpt lat="46.96646" lon="8.58506">
        <ele>847</ele>
        <time>2021-08-10T09:25:19.736Z</time>
      </trkpt>
      <trkpt lat="46.96646" lon="8.58508">
        <ele>848</ele>
        <time>2021-08-10T09:25:20.736Z</time>
      </trkpt>
      <trkpt lat="46.96645" lon="8.58509">
        <ele>848</ele>
        <time>2021-08-10T09:25:21.735Z</time>
      </trkpt>
      <trkpt lat="46.96645" lon="8.58511">
        <ele>848</ele>
        <time>2021-08-10T09:25:22.735Z</time>
      </trkpt>
      <trkpt lat="46.96645" lon="8.58512">
        <ele>848</ele>
        <time>2021-08-10T09:25:23.735Z</time>
      </trkpt>
      <trkpt lat="46.96644" lon="8.58513">
        <ele>848</ele>
        <time>2021-08-10T09:25:24.735Z</time>
      </trkpt>
      <trkpt lat="46.96643" lon="8.58515">
        <ele>848</ele>
        <time>2021-08-10T09:25:25.735Z</time>
      </trkpt>
      <trkpt lat="46.96643" lon="8.58516">
        <ele>848</ele>
        <time>2021-08-10T09:25:26.735Z</time>
      </trkpt>
      <trkpt lat="46.96642" lon="8.58518">
        <ele>848</ele>
        <time>2021-08-10T09:25:27.736Z</time>
      </trkpt>
      <trkpt lat="46.96641" lon="8.5852">
        <ele>848</ele>
        <time>2021-08-10T09:25:28.735Z</time>
      </trkpt>
      <trkpt lat="46.96641" lon="8.58522">
        <ele>847</ele>
        <time>2021-08-10T09:25:29.735Z</time>
      </trkpt>
      <trkpt lat="46.96639" lon="8.58524">
        <ele>847</ele>
        <time>2021-08-10T09:25:30.735Z</time>
      </trkpt>
      <trkpt lat="46.96639" lon="8.58525">
        <ele>847</ele>
        <time>2021-08-10T09:25:31.736Z</time>
      </trkpt>
      <trkpt lat="46.96638" lon="8.58527">
        <ele>847</ele>
        <time>2021-08-10T09:25:32.735Z</time>
      </trkpt>
      <trkpt lat="46.96638" lon="8.58527">
        <ele>846</ele>
        <time>2021-08-10T09:25:33.735Z</time>
      </trkpt>
      <trkpt lat="46.96638" lon="8.58528">
        <ele>846</ele>
        <time>2021-08-10T09:25:34.735Z</time>
      </trkpt>
      <trkpt lat="46.96637" lon="8.58529">
        <ele>846</ele>
        <time>2021-08-10T09:25:35.735Z</time>
      </trkpt>
      <trkpt lat="46.96636" lon="8.5853">
        <ele>845</ele>
        <time>2021-08-10T09:25:36.735Z</time>
      </trkpt>
      <trkpt lat="46.96635" lon="8.58531">
        <ele>845</ele>
        <time>2021-08-10T09:25:37.736Z</time>
      </trkpt>
      <trkpt lat="46.96634" lon="8.58532">
        <ele>845</ele>
        <time>2021-08-10T09:25:38.735Z</time>
      </trkpt>
      <trkpt lat="46.96633" lon="8.58533">
        <ele>844</ele>
        <time>2021-08-10T09:25:39.735Z</time>
      </trkpt>
      <trkpt lat="46.96632" lon="8.58535">
        <ele>844</ele>
        <time>2021-08-10T09:25:40.735Z</time>
      </trkpt>
      <trkpt lat="46.96631" lon="8.58537">
        <ele>844</ele>
        <time>2021-08-10T09:25:41.735Z</time>
      </trkpt>
      <trkpt lat="46.9663" lon="8.58539">
        <ele>844</ele>
        <time>2021-08-10T09:25:42.735Z</time>
      </trkpt>
      <trkpt lat="46.96628" lon="8.58541">
        <ele>844</ele>
        <time>2021-08-10T09:25:43.735Z</time>
      </trkpt>
      <trkpt lat="46.96627" lon="8.58543">
        <ele>844</ele>
        <time>2021-08-10T09:25:44.735Z</time>
      </trkpt>
      <trkpt lat="46.96626" lon="8.58545">
        <ele>844</ele>
        <time>2021-08-10T09:25:45.735Z</time>
      </trkpt>
      <trkpt lat="46.96625" lon="8.58545">
        <ele>844</ele>
        <time>2021-08-10T09:25:46.735Z</time>
      </trkpt>
      <trkpt lat="46.96624" lon="8.58546">
        <ele>844</ele>
        <time>2021-08-10T09:25:47.735Z</time>
      </trkpt>
      <trkpt lat="46.96624" lon="8.58546">
        <ele>844</ele>
        <time>2021-08-10T09:25:48.736Z</time>
      </trkpt>
      <trkpt lat="46.96623" lon="8.58548">
        <ele>844</ele>
        <time>2021-08-10T09:25:49.735Z</time>
      </trkpt>
      <trkpt lat="46.96623" lon="8.58547">
        <ele>844</ele>
        <time>2021-08-10T09:25:50.736Z</time>
      </trkpt>
      <trkpt lat="46.96622" lon="8.58548">
        <ele>844</ele>
        <time>2021-08-10T09:25:51.735Z</time>
      </trkpt>
      <trkpt lat="46.96622" lon="8.58549">
        <ele>844</ele>
        <time>2021-08-10T09:25:52.736Z</time>
      </trkpt>
      <trkpt lat="46.96622" lon="8.58549">
        <ele>845</ele>
        <time>2021-08-10T09:25:53.735Z</time>
      </trkpt>
      <trkpt lat="46.96621" lon="8.5855">
        <ele>845</ele>
        <time>2021-08-10T09:25:54.735Z</time>
      </trkpt>
      <trkpt lat="46.96621" lon="8.5855">
        <ele>845</ele>
        <time>2021-08-10T09:25:55.735Z</time>
      </trkpt>
      <trkpt lat="46.9662" lon="8.58551">
        <ele>845</ele>
        <time>2021-08-10T09:25:56.736Z</time>
      </trkpt>
      <trkpt lat="46.96619" lon="8.58552">
        <ele>846</ele>
        <time>2021-08-10T09:25:57.735Z</time>
      </trkpt>
      <trkpt lat="46.96619" lon="8.58553">
        <ele>846</ele>
        <time>2021-08-10T09:25:58.735Z</time>
      </trkpt>
      <trkpt lat="46.96618" lon="8.58555">
        <ele>846</ele>
        <time>2021-08-10T09:25:59.735Z</time>
      </trkpt>
      <trkpt lat="46.96617" lon="8.58556">
        <ele>846</ele>
        <time>2021-08-10T09:26:00.735Z</time>
      </trkpt>
      <trkpt lat="46.96616" lon="8.58557">
        <ele>847</ele>
        <time>2021-08-10T09:26:01.735Z</time>
      </trkpt>
      <trkpt lat="46.96614" lon="8.58557">
        <ele>847</ele>
        <time>2021-08-10T09:26:02.735Z</time>
      </trkpt>
      <trkpt lat="46.96613" lon="8.58557">
        <ele>847</ele>
        <time>2021-08-10T09:26:03.735Z</time>
      </trkpt>
      <trkpt lat="46.96612" lon="8.58557">
        <ele>847</ele>
        <time>2021-08-10T09:26:04.736Z</time>
      </trkpt>
      <trkpt lat="46.96611" lon="8.58557">
        <ele>847</ele>
        <time>2021-08-10T09:26:05.735Z</time>
      </trkpt>
      <trkpt lat="46.96611" lon="8.58558">
        <ele>847</ele>
        <time>2021-08-10T09:26:06.735Z</time>
      </trkpt>
      <trkpt lat="46.9661" lon="8.58558">
        <ele>847</ele>
        <time>2021-08-10T09:26:07.736Z</time>
      </trkpt>
      <trkpt lat="46.9661" lon="8.58559">
        <ele>847</ele>
        <time>2021-08-10T09:26:08.735Z</time>
      </trkpt>
      <trkpt lat="46.96609" lon="8.58559">
        <ele>847</ele>
        <time>2021-08-10T09:26:09.735Z</time>
      </trkpt>
      <trkpt lat="46.96609" lon="8.5856">
        <ele>847</ele>
        <time>2021-08-10T09:26:10.735Z</time>
      </trkpt>
      <trkpt lat="46.96609" lon="8.5856">
        <ele>847</ele>
        <time>2021-08-10T09:26:11.735Z</time>
      </trkpt>
      <trkpt lat="46.9661" lon="8.5856">
        <ele>847</ele>
        <time>2021-08-10T09:26:12.735Z</time>
      </trkpt>
      <trkpt lat="46.96611" lon="8.5856">
        <ele>848</ele>
        <time>2021-08-10T09:26:13.735Z</time>
      </trkpt>
      <trkpt lat="46.96611" lon="8.5856">
        <ele>848</ele>
        <time>2021-08-10T09:26:14.735Z</time>
      </trkpt>
      <trkpt lat="46.96611" lon="8.5856">
        <ele>848</ele>
        <time>2021-08-10T09:26:15.735Z</time>
      </trkpt>
      <trkpt lat="46.96611" lon="8.5856">
        <ele>849</ele>
        <time>2021-08-10T09:26:16.735Z</time>
      </trkpt>
      <trkpt lat="46.9661" lon="8.58561">
        <ele>849</ele>
        <time>2021-08-10T09:26:17.735Z</time>
      </trkpt>
      <trkpt lat="46.96608" lon="8.58562">
        <ele>849</ele>
        <time>2021-08-10T09:26:18.735Z</time>
      </trkpt>
      <trkpt lat="46.96608" lon="8.58563">
        <ele>849</ele>
        <time>2021-08-10T09:26:19.735Z</time>
      </trkpt>
      <trkpt lat="46.96607" lon="8.58564">
        <ele>849</ele>
        <time>2021-08-10T09:26:20.735Z</time>
      </trkpt>
      <trkpt lat="46.96606" lon="8.58565">
        <ele>849</ele>
        <time>2021-08-10T09:26:21.735Z</time>
      </trkpt>
      <trkpt lat="46.96606" lon="8.58566">
        <ele>849</ele>
        <time>2021-08-10T09:26:22.735Z</time>
      </trkpt>
      <trkpt lat="46.96605" lon="8.58567">
        <ele>849</ele>
        <time>2021-08-10T09:26:23.735Z</time>
      </trkpt>
      <trkpt lat="46.96604" lon="8.58567">
        <ele>849</ele>
        <time>2021-08-10T09:26:24.735Z</time>
      </trkpt>
      <trkpt lat="46.96603" lon="8.58569">
        <ele>849</ele>
        <time>2021-08-10T09:26:25.735Z</time>
      </trkpt>
      <trkpt lat="46.96602" lon="8.5857">
        <ele>849</ele>
        <time>2021-08-10T09:26:26.735Z</time>
      </trkpt>
      <trkpt lat="46.96602" lon="8.58571">
        <ele>849</ele>
        <time>2021-08-10T09:26:27.735Z</time>
      </trkpt>
      <trkpt lat="46.96601" lon="8.58572">
        <ele>849</ele>
        <time>2021-08-10T09:26:28.735Z</time>
      </trkpt>
      <trkpt lat="46.966" lon="8.58573">
        <ele>849</ele>
        <time>2021-08-10T09:26:29.736Z</time>
      </trkpt>
      <trkpt lat="46.96599" lon="8.58574">
        <ele>850</ele>
        <time>2021-08-10T09:26:30.735Z</time>
      </trkpt>
      <trkpt lat="46.96597" lon="8.58576">
        <ele>850</ele>
        <time>2021-08-10T09:26:31.735Z</time>
      </trkpt>
      <trkpt lat="46.96596" lon="8.58578">
        <ele>850</ele>
        <time>2021-08-10T09:26:32.736Z</time>
      </trkpt>
      <trkpt lat="46.96595" lon="8.5858">
        <ele>850</ele>
        <time>2021-08-10T09:26:33.735Z</time>
      </trkpt>
      <trkpt lat="46.96594" lon="8.58581">
        <ele>850</ele>
        <time>2021-08-10T09:26:34.735Z</time>
      </trkpt>
      <trkpt lat="46.96593" lon="8.58582">
        <ele>850</ele>
        <time>2021-08-10T09:26:35.735Z</time>
      </trkpt>
      <trkpt lat="46.96591" lon="8.58583">
        <ele>850</ele>
        <time>2021-08-10T09:26:36.735Z</time>
      </trkpt>
      <trkpt lat="46.9659" lon="8.58583">
        <ele>851</ele>
        <time>2021-08-10T09:26:37.736Z</time>
      </trkpt>
      <trkpt lat="46.96589" lon="8.58584">
        <ele>851</ele>
        <time>2021-08-10T09:26:38.735Z</time>
      </trkpt>
      <trkpt lat="46.96587" lon="8.58584">
        <ele>851</ele>
        <time>2021-08-10T09:26:39.736Z</time>
      </trkpt>
      <trkpt lat="46.96585" lon="8.58584">
        <ele>851</ele>
        <time>2021-08-10T09:26:40.735Z</time>
      </trkpt>
      <trkpt lat="46.96584" lon="8.58584">
        <ele>851</ele>
        <time>2021-08-10T09:26:41.735Z</time>
      </trkpt>
      <trkpt lat="46.96582" lon="8.58585">
        <ele>851</ele>
        <time>2021-08-10T09:26:42.735Z</time>
      </trkpt>
      <trkpt lat="46.96579" lon="8.58586">
        <ele>851</ele>
        <time>2021-08-10T09:26:43.735Z</time>
      </trkpt>
      <trkpt lat="46.96577" lon="8.58587">
        <ele>851</ele>
        <time>2021-08-10T09:26:44.735Z</time>
      </trkpt>
      <trkpt lat="46.96576" lon="8.58587">
        <ele>851</ele>
        <time>2021-08-10T09:26:45.735Z</time>
      </trkpt>
      <trkpt lat="46.96575" lon="8.58587">
        <ele>851</ele>
        <time>2021-08-10T09:26:46.735Z</time>
      </trkpt>
      <trkpt lat="46.96575" lon="8.58587">
        <ele>851</ele>
        <time>2021-08-10T09:26:47.735Z</time>
      </trkpt>
      <trkpt lat="46.96574" lon="8.58588">
        <ele>851</ele>
        <time>2021-08-10T09:26:48.735Z</time>
      </trkpt>
      <trkpt lat="46.96573" lon="8.58589">
        <ele>852</ele>
        <time>2021-08-10T09:26:49.735Z</time>
      </trkpt>
      <trkpt lat="46.96572" lon="8.5859">
        <ele>852</ele>
        <time>2021-08-10T09:26:50.736Z</time>
      </trkpt>
      <trkpt lat="46.96571" lon="8.58591">
        <ele>852</ele>
        <time>2021-08-10T09:26:51.735Z</time>
      </trkpt>
      <trkpt lat="46.9657" lon="8.58592">
        <ele>852</ele>
        <time>2021-08-10T09:26:52.735Z</time>
      </trkpt>
      <trkpt lat="46.9657" lon="8.58592">
        <ele>852</ele>
        <time>2021-08-10T09:26:53.735Z</time>
      </trkpt>
      <trkpt lat="46.96569" lon="8.58594">
        <ele>852</ele>
        <time>2021-08-10T09:26:54.735Z</time>
      </trkpt>
      <trkpt lat="46.96567" lon="8.58595">
        <ele>852</ele>
        <time>2021-08-10T09:26:55.735Z</time>
      </trkpt>
      <trkpt lat="46.96566" lon="8.58597">
        <ele>853</ele>
        <time>2021-08-10T09:26:56.736Z</time>
      </trkpt>
      <trkpt lat="46.96564" lon="8.58597">
        <ele>853</ele>
        <time>2021-08-10T09:26:57.735Z</time>
      </trkpt>
      <trkpt lat="46.96563" lon="8.58598">
        <ele>854</ele>
        <time>2021-08-10T09:26:58.735Z</time>
      </trkpt>
      <trkpt lat="46.96561" lon="8.58599">
        <ele>854</ele>
        <time>2021-08-10T09:26:59.735Z</time>
      </trkpt>
      <trkpt lat="46.96561" lon="8.586">
        <ele>855</ele>
        <time>2021-08-10T09:27:00.735Z</time>
      </trkpt>
      <trkpt lat="46.96561" lon="8.586">
        <ele>855</ele>
        <time>2021-08-10T09:27:01.736Z</time>
      </trkpt>
      <trkpt lat="46.9656" lon="8.586">
        <ele>856</ele>
        <time>2021-08-10T09:27:02.735Z</time>
      </trkpt>
      <trkpt lat="46.96558" lon="8.58601">
        <ele>856</ele>
        <time>2021-08-10T09:27:03.735Z</time>
      </trkpt>
      <trkpt lat="46.96557" lon="8.58601">
        <ele>857</ele>
        <time>2021-08-10T09:27:04.735Z</time>
      </trkpt>
      <trkpt lat="46.96557" lon="8.58602">
        <ele>857</ele>
        <time>2021-08-10T09:27:05.735Z</time>
      </trkpt>
      <trkpt lat="46.96556" lon="8.58602">
        <ele>858</ele>
        <time>2021-08-10T09:27:06.735Z</time>
      </trkpt>
      <trkpt lat="46.96555" lon="8.58603">
        <ele>858</ele>
        <time>2021-08-10T09:27:07.735Z</time>
      </trkpt>
      <trkpt lat="46.96554" lon="8.58603">
        <ele>858</ele>
        <time>2021-08-10T09:27:08.735Z</time>
      </trkpt>
      <trkpt lat="46.96553" lon="8.58604">
        <ele>859</ele>
        <time>2021-08-10T09:27:09.735Z</time>
      </trkpt>
      <trkpt lat="46.96551" lon="8.58604">
        <ele>859</ele>
        <time>2021-08-10T09:27:10.736Z</time>
      </trkpt>
      <trkpt lat="46.96549" lon="8.58605">
        <ele>859</ele>
        <time>2021-08-10T09:27:11.736Z</time>
      </trkpt>
      <trkpt lat="46.96548" lon="8.58606">
        <ele>860</ele>
        <time>2021-08-10T09:27:12.735Z</time>
      </trkpt>
      <trkpt lat="46.96547" lon="8.58607">
        <ele>860</ele>
        <time>2021-08-10T09:27:13.735Z</time>
      </trkpt>
      <trkpt lat="46.96546" lon="8.58609">
        <ele>860</ele>
        <time>2021-08-10T09:27:14.735Z</time>
      </trkpt>
      <trkpt lat="46.96545" lon="8.58609">
        <ele>860</ele>
        <time>2021-08-10T09:27:15.735Z</time>
      </trkpt>
      <trkpt lat="46.96545" lon="8.5861">
        <ele>861</ele>
        <time>2021-08-10T09:27:16.736Z</time>
      </trkpt>
      <trkpt lat="46.96545" lon="8.58611">
        <ele>861</ele>
        <time>2021-08-10T09:27:17.735Z</time>
      </trkpt>
      <trkpt lat="46.96545" lon="8.58612">
        <ele>860</ele>
        <time>2021-08-10T09:27:18.736Z</time>
      </trkpt>
      <trkpt lat="46.96546" lon="8.58613">
        <ele>860</ele>
        <time>2021-08-10T09:27:19.735Z</time>
      </trkpt>
      <trkpt lat="46.96545" lon="8.58614">
        <ele>860</ele>
        <time>2021-08-10T09:27:20.736Z</time>
      </trkpt>
      <trkpt lat="46.96545" lon="8.58614">
        <ele>860</ele>
        <time>2021-08-10T09:27:21.736Z</time>
      </trkpt>
      <trkpt lat="46.96544" lon="8.58615">
        <ele>859</ele>
        <time>2021-08-10T09:27:22.735Z</time>
      </trkpt>
      <trkpt lat="46.96542" lon="8.58616">
        <ele>859</ele>
        <time>2021-08-10T09:27:23.735Z</time>
      </trkpt>
      <trkpt lat="46.96541" lon="8.58617">
        <ele>859</ele>
        <time>2021-08-10T09:27:24.735Z</time>
      </trkpt>
      <trkpt lat="46.96541" lon="8.58618">
        <ele>858</ele>
        <time>2021-08-10T09:27:25.735Z</time>
      </trkpt>
      <trkpt lat="46.9654" lon="8.58618">
        <ele>858</ele>
        <time>2021-08-10T09:27:26.736Z</time>
      </trkpt>
      <trkpt lat="46.96539" lon="8.58619">
        <ele>858</ele>
        <time>2021-08-10T09:27:27.735Z</time>
      </trkpt>
      <trkpt lat="46.96538" lon="8.58619">
        <ele>858</ele>
        <time>2021-08-10T09:27:28.735Z</time>
      </trkpt>
      <trkpt lat="46.96537" lon="8.5862">
        <ele>859</ele>
        <time>2021-08-10T09:27:29.735Z</time>
      </trkpt>
      <trkpt lat="46.96536" lon="8.5862">
        <ele>859</ele>
        <time>2021-08-10T09:27:30.735Z</time>
      </trkpt>
      <trkpt lat="46.96535" lon="8.58621">
        <ele>860</ele>
        <time>2021-08-10T09:27:31.736Z</time>
      </trkpt>
      <trkpt lat="46.96534" lon="8.58621">
        <ele>860</ele>
        <time>2021-08-10T09:27:32.736Z</time>
      </trkpt>
      <trkpt lat="46.96534" lon="8.58622">
        <ele>860</ele>
        <time>2021-08-10T09:27:33.735Z</time>
      </trkpt>
      <trkpt lat="46.96533" lon="8.58623">
        <ele>861</ele>
        <time>2021-08-10T09:27:34.735Z</time>
      </trkpt>
      <trkpt lat="46.96532" lon="8.58624">
        <ele>861</ele>
        <time>2021-08-10T09:27:35.735Z</time>
      </trkpt>
      <trkpt lat="46.96531" lon="8.58625">
        <ele>861</ele>
        <time>2021-08-10T09:27:36.736Z</time>
      </trkpt>
      <trkpt lat="46.9653" lon="8.58625">
        <ele>861</ele>
        <time>2021-08-10T09:27:37.736Z</time>
      </trkpt>
      <trkpt lat="46.96529" lon="8.58625">
        <ele>860</ele>
        <time>2021-08-10T09:27:38.735Z</time>
      </trkpt>
      <trkpt lat="46.96528" lon="8.58626">
        <ele>861</ele>
        <time>2021-08-10T09:27:39.735Z</time>
      </trkpt>
      <trkpt lat="46.96528" lon="8.58627">
        <ele>861</ele>
        <time>2021-08-10T09:27:40.736Z</time>
      </trkpt>
      <trkpt lat="46.96527" lon="8.58627">
        <ele>861</ele>
        <time>2021-08-10T09:27:41.736Z</time>
      </trkpt>
      <trkpt lat="46.96526" lon="8.58628">
        <ele>861</ele>
        <time>2021-08-10T09:27:42.735Z</time>
      </trkpt>
      <trkpt lat="46.96525" lon="8.58629">
        <ele>861</ele>
        <time>2021-08-10T09:27:43.735Z</time>
      </trkpt>
      <trkpt lat="46.96524" lon="8.5863">
        <ele>861</ele>
        <time>2021-08-10T09:27:44.735Z</time>
      </trkpt>
      <trkpt lat="46.96522" lon="8.58631">
        <ele>860</ele>
        <time>2021-08-10T09:27:45.735Z</time>
      </trkpt>
      <trkpt lat="46.96521" lon="8.58633">
        <ele>860</ele>
        <time>2021-08-10T09:27:46.735Z</time>
      </trkpt>
      <trkpt lat="46.9652" lon="8.58634">
        <ele>860</ele>
        <time>2021-08-10T09:27:47.736Z</time>
      </trkpt>
      <trkpt lat="46.96519" lon="8.58635">
        <ele>860</ele>
        <time>2021-08-10T09:27:48.735Z</time>
      </trkpt>
      <trkpt lat="46.96518" lon="8.58636">
        <ele>860</ele>
        <time>2021-08-10T09:27:49.735Z</time>
      </trkpt>
      <trkpt lat="46.96517" lon="8.58636">
        <ele>860</ele>
        <time>2021-08-10T09:27:50.735Z</time>
      </trkpt>
      <trkpt lat="46.96516" lon="8.58636">
        <ele>860</ele>
        <time>2021-08-10T09:27:51.736Z</time>
      </trkpt>
      <trkpt lat="46.96515" lon="8.58636">
        <ele>860</ele>
        <time>2021-08-10T09:27:52.736Z</time>
      </trkpt>
      <trkpt lat="46.96514" lon="8.58637">
        <ele>860</ele>
        <time>2021-08-10T09:27:53.735Z</time>
      </trkpt>
      <trkpt lat="46.96513" lon="8.58637">
        <ele>860</ele>
        <time>2021-08-10T09:27:54.735Z</time>
      </trkpt>
      <trkpt lat="46.96512" lon="8.58637">
        <ele>860</ele>
        <time>2021-08-10T09:27:55.735Z</time>
      </trkpt>
      <trkpt lat="46.96511" lon="8.58637">
        <ele>860</ele>
        <time>2021-08-10T09:27:56.735Z</time>
      </trkpt>
      <trkpt lat="46.9651" lon="8.58637">
        <ele>860</ele>
        <time>2021-08-10T09:27:57.736Z</time>
      </trkpt>
      <trkpt lat="46.96509" lon="8.58637">
        <ele>860</ele>
        <time>2021-08-10T09:27:58.735Z</time>
      </trkpt>
      <trkpt lat="46.96508" lon="8.58637">
        <ele>860</ele>
        <time>2021-08-10T09:27:59.736Z</time>
      </trkpt>
      <trkpt lat="46.96507" lon="8.58636">
        <ele>860</ele>
        <time>2021-08-10T09:28:00.735Z</time>
      </trkpt>
      <trkpt lat="46.96506" lon="8.58635">
        <ele>860</ele>
        <time>2021-08-10T09:28:01.736Z</time>
      </trkpt>
      <trkpt lat="46.96505" lon="8.58635">
        <ele>860</ele>
        <time>2021-08-10T09:28:02.735Z</time>
      </trkpt>
      <trkpt lat="46.96504" lon="8.58635">
        <ele>860</ele>
        <time>2021-08-10T09:28:03.735Z</time>
      </trkpt>
      <trkpt lat="46.96503" lon="8.58634">
        <ele>859</ele>
        <time>2021-08-10T09:28:04.736Z</time>
      </trkpt>
      <trkpt lat="46.96502" lon="8.58633">
        <ele>859</ele>
        <time>2021-08-10T09:28:05.736Z</time>
      </trkpt>
      <trkpt lat="46.96499" lon="8.58632">
        <ele>859</ele>
        <time>2021-08-10T09:28:06.735Z</time>
      </trkpt>
      <trkpt lat="46.96497" lon="8.58631">
        <ele>858</ele>
        <time>2021-08-10T09:28:07.735Z</time>
      </trkpt>
      <trkpt lat="46.96496" lon="8.5863">
        <ele>858</ele>
        <time>2021-08-10T09:28:08.736Z</time>
      </trkpt>
      <trkpt lat="46.96495" lon="8.58629">
        <ele>858</ele>
        <time>2021-08-10T09:28:09.735Z</time>
      </trkpt>
      <trkpt lat="46.96494" lon="8.58629">
        <ele>858</ele>
        <time>2021-08-10T09:28:10.736Z</time>
      </trkpt>
      <trkpt lat="46.96492" lon="8.58627">
        <ele>858</ele>
        <time>2021-08-10T09:28:11.735Z</time>
      </trkpt>
      <trkpt lat="46.96491" lon="8.58627">
        <ele>858</ele>
        <time>2021-08-10T09:28:12.735Z</time>
      </trkpt>
      <trkpt lat="46.9649" lon="8.58627">
        <ele>858</ele>
        <time>2021-08-10T09:28:13.736Z</time>
      </trkpt>
      <trkpt lat="46.9649" lon="8.58627">
        <ele>858</ele>
        <time>2021-08-10T09:28:14.736Z</time>
      </trkpt>
      <trkpt lat="46.96489" lon="8.58627">
        <ele>858</ele>
        <time>2021-08-10T09:28:15.735Z</time>
      </trkpt>
      <trkpt lat="46.96488" lon="8.58628">
        <ele>858</ele>
        <time>2021-08-10T09:28:16.735Z</time>
      </trkpt>
      <trkpt lat="46.96488" lon="8.58628">
        <ele>858</ele>
        <time>2021-08-10T09:28:17.736Z</time>
      </trkpt>
      <trkpt lat="46.96487" lon="8.58627">
        <ele>858</ele>
        <time>2021-08-10T09:28:18.735Z</time>
      </trkpt>
      <trkpt lat="46.96487" lon="8.58627">
        <ele>858</ele>
        <time>2021-08-10T09:28:19.735Z</time>
      </trkpt>
      <trkpt lat="46.96487" lon="8.58626">
        <ele>858</ele>
        <time>2021-08-10T09:28:20.735Z</time>
      </trkpt>
      <trkpt lat="46.96483" lon="8.58622">
        <ele>858</ele>
        <time>2021-08-10T09:28:21.738Z</time>
      </trkpt>
      <trkpt lat="46.9648" lon="8.58621">
        <ele>858</ele>
        <time>2021-08-10T09:28:22.738Z</time>
      </trkpt>
      <trkpt lat="46.96478" lon="8.5862">
        <ele>858</ele>
        <time>2021-08-10T09:28:23.738Z</time>
      </trkpt>
      <trkpt lat="46.96476" lon="8.5862">
        <ele>858</ele>
        <time>2021-08-10T09:28:24.738Z</time>
      </trkpt>
      <trkpt lat="46.96475" lon="8.58619">
        <ele>858</ele>
        <time>2021-08-10T09:28:25.738Z</time>
      </trkpt>
      <trkpt lat="46.96474" lon="8.58619">
        <ele>858</ele>
        <time>2021-08-10T09:28:26.738Z</time>
      </trkpt>
      <trkpt lat="46.96472" lon="8.58618">
        <ele>858</ele>
        <time>2021-08-10T09:28:27.738Z</time>
      </trkpt>
      <trkpt lat="46.96471" lon="8.58618">
        <ele>858</ele>
        <time>2021-08-10T09:28:28.738Z</time>
      </trkpt>
      <trkpt lat="46.96469" lon="8.58617">
        <ele>858</ele>
        <time>2021-08-10T09:28:29.738Z</time>
      </trkpt>
      <trkpt lat="46.96467" lon="8.58617">
        <ele>857</ele>
        <time>2021-08-10T09:28:30.738Z</time>
      </trkpt>
      <trkpt lat="46.96465" lon="8.58616">
        <ele>857</ele>
        <time>2021-08-10T09:28:31.737Z</time>
      </trkpt>
      <trkpt lat="46.96465" lon="8.58616">
        <ele>857</ele>
        <time>2021-08-10T09:28:32.738Z</time>
      </trkpt>
      <trkpt lat="46.96464" lon="8.58616">
        <ele>856</ele>
        <time>2021-08-10T09:28:33.737Z</time>
      </trkpt>
      <trkpt lat="46.96464" lon="8.58616">
        <ele>856</ele>
        <time>2021-08-10T09:28:34.738Z</time>
      </trkpt>
      <trkpt lat="46.96463" lon="8.58617">
        <ele>856</ele>
        <time>2021-08-10T09:28:35.737Z</time>
      </trkpt>
      <trkpt lat="46.96462" lon="8.58617">
        <ele>856</ele>
        <time>2021-08-10T09:28:36.737Z</time>
      </trkpt>
      <trkpt lat="46.96461" lon="8.58618">
        <ele>856</ele>
        <time>2021-08-10T09:28:37.737Z</time>
      </trkpt>
      <trkpt lat="46.96461" lon="8.58619">
        <ele>856</ele>
        <time>2021-08-10T09:28:38.737Z</time>
      </trkpt>
      <trkpt lat="46.96461" lon="8.58621">
        <ele>855</ele>
        <time>2021-08-10T09:28:39.738Z</time>
      </trkpt>
      <trkpt lat="46.96461" lon="8.58621">
        <ele>855</ele>
        <time>2021-08-10T09:28:40.738Z</time>
      </trkpt>
      <trkpt lat="46.96459" lon="8.58622">
        <ele>855</ele>
        <time>2021-08-10T09:28:41.738Z</time>
      </trkpt>
      <trkpt lat="46.96458" lon="8.58622">
        <ele>855</ele>
        <time>2021-08-10T09:28:42.738Z</time>
      </trkpt>
      <trkpt lat="46.96458" lon="8.58623">
        <ele>855</ele>
        <time>2021-08-10T09:28:43.737Z</time>
      </trkpt>
      <trkpt lat="46.96458" lon="8.58624">
        <ele>855</ele>
        <time>2021-08-10T09:28:44.738Z</time>
      </trkpt>
      <trkpt lat="46.96457" lon="8.58626">
        <ele>855</ele>
        <time>2021-08-10T09:28:45.738Z</time>
      </trkpt>
      <trkpt lat="46.96457" lon="8.58627">
        <ele>855</ele>
        <time>2021-08-10T09:28:46.737Z</time>
      </trkpt>
      <trkpt lat="46.96456" lon="8.58628">
        <ele>855</ele>
        <time>2021-08-10T09:28:47.738Z</time>
      </trkpt>
      <trkpt lat="46.96455" lon="8.58629">
        <ele>855</ele>
        <time>2021-08-10T09:28:48.738Z</time>
      </trkpt>
      <trkpt lat="46.96455" lon="8.5863">
        <ele>855</ele>
        <time>2021-08-10T09:28:49.738Z</time>
      </trkpt>
      <trkpt lat="46.96454" lon="8.58631">
        <ele>855</ele>
        <time>2021-08-10T09:28:50.737Z</time>
      </trkpt>
      <trkpt lat="46.96452" lon="8.58631">
        <ele>855</ele>
        <time>2021-08-10T09:28:51.737Z</time>
      </trkpt>
      <trkpt lat="46.9645" lon="8.58632">
        <ele>855</ele>
        <time>2021-08-10T09:28:52.738Z</time>
      </trkpt>
      <trkpt lat="46.96449" lon="8.58632">
        <ele>855</ele>
        <time>2021-08-10T09:28:53.737Z</time>
      </trkpt>
      <trkpt lat="46.96448" lon="8.58633">
        <ele>855</ele>
        <time>2021-08-10T09:28:54.738Z</time>
      </trkpt>
      <trkpt lat="46.96447" lon="8.58634">
        <ele>855</ele>
        <time>2021-08-10T09:28:55.737Z</time>
      </trkpt>
      <trkpt lat="46.96446" lon="8.58635">
        <ele>855</ele>
        <time>2021-08-10T09:28:56.738Z</time>
      </trkpt>
      <trkpt lat="46.96445" lon="8.58636">
        <ele>855</ele>
        <time>2021-08-10T09:28:57.737Z</time>
      </trkpt>
      <trkpt lat="46.96445" lon="8.58636">
        <ele>856</ele>
        <time>2021-08-10T09:28:58.738Z</time>
      </trkpt>
      <trkpt lat="46.96444" lon="8.58636">
        <ele>856</ele>
        <time>2021-08-10T09:28:59.738Z</time>
      </trkpt>
      <trkpt lat="46.96443" lon="8.58637">
        <ele>856</ele>
        <time>2021-08-10T09:29:00.738Z</time>
      </trkpt>
      <trkpt lat="46.96442" lon="8.58637">
        <ele>857</ele>
        <time>2021-08-10T09:29:01.738Z</time>
      </trkpt>
      <trkpt lat="46.9644" lon="8.58638">
        <ele>857</ele>
        <time>2021-08-10T09:29:02.738Z</time>
      </trkpt>
      <trkpt lat="46.96439" lon="8.5864">
        <ele>857</ele>
        <time>2021-08-10T09:29:03.737Z</time>
      </trkpt>
      <trkpt lat="46.96438" lon="8.5864">
        <ele>858</ele>
        <time>2021-08-10T09:29:04.738Z</time>
      </trkpt>
      <trkpt lat="46.96436" lon="8.58641">
        <ele>858</ele>
        <time>2021-08-10T09:29:05.737Z</time>
      </trkpt>
      <trkpt lat="46.96435" lon="8.58642">
        <ele>858</ele>
        <time>2021-08-10T09:29:06.738Z</time>
      </trkpt>
      <trkpt lat="46.96433" lon="8.58644">
        <ele>859</ele>
        <time>2021-08-10T09:29:07.737Z</time>
      </trkpt>
      <trkpt lat="46.96432" lon="8.58645">
        <ele>859</ele>
        <time>2021-08-10T09:29:08.738Z</time>
      </trkpt>
      <trkpt lat="46.96431" lon="8.58645">
        <ele>860</ele>
        <time>2021-08-10T09:29:09.737Z</time>
      </trkpt>
      <trkpt lat="46.96431" lon="8.58645">
        <ele>860</ele>
        <time>2021-08-10T09:29:10.738Z</time>
      </trkpt>
      <trkpt lat="46.9643" lon="8.58645">
        <ele>861</ele>
        <time>2021-08-10T09:29:11.737Z</time>
      </trkpt>
      <trkpt lat="46.9643" lon="8.58645">
        <ele>861</ele>
        <time>2021-08-10T09:29:12.737Z</time>
      </trkpt>
      <trkpt lat="46.96429" lon="8.58647">
        <ele>862</ele>
        <time>2021-08-10T09:29:13.737Z</time>
      </trkpt>
      <trkpt lat="46.96428" lon="8.58647">
        <ele>862</ele>
        <time>2021-08-10T09:29:14.737Z</time>
      </trkpt>
      <trkpt lat="46.96428" lon="8.58648">
        <ele>863</ele>
        <time>2021-08-10T09:29:15.738Z</time>
      </trkpt>
      <trkpt lat="46.96427" lon="8.58649">
        <ele>863</ele>
        <time>2021-08-10T09:29:16.738Z</time>
      </trkpt>
      <trkpt lat="46.96424" lon="8.58651">
        <ele>864</ele>
        <time>2021-08-10T09:29:17.738Z</time>
      </trkpt>
      <trkpt lat="46.96423" lon="8.58652">
        <ele>864</ele>
        <time>2021-08-10T09:29:18.737Z</time>
      </trkpt>
      <trkpt lat="46.96421" lon="8.58653">
        <ele>864</ele>
        <time>2021-08-10T09:29:19.738Z</time>
      </trkpt>
      <trkpt lat="46.9642" lon="8.58654">
        <ele>865</ele>
        <time>2021-08-10T09:29:20.737Z</time>
      </trkpt>
      <trkpt lat="46.96419" lon="8.58654">
        <ele>865</ele>
        <time>2021-08-10T09:29:21.737Z</time>
      </trkpt>
      <trkpt lat="46.96418" lon="8.58654">
        <ele>865</ele>
        <time>2021-08-10T09:29:22.738Z</time>
      </trkpt>
      <trkpt lat="46.96418" lon="8.58654">
        <ele>865</ele>
        <time>2021-08-10T09:29:23.737Z</time>
      </trkpt>
      <trkpt lat="46.96417" lon="8.58654">
        <ele>865</ele>
        <time>2021-08-10T09:29:24.737Z</time>
      </trkpt>
      <trkpt lat="46.96413" lon="8.58658">
        <ele>865</ele>
        <time>2021-08-10T09:29:25.738Z</time>
      </trkpt>
      <trkpt lat="46.96412" lon="8.58659">
        <ele>864</ele>
        <time>2021-08-10T09:29:26.737Z</time>
      </trkpt>
      <trkpt lat="46.96411" lon="8.5866">
        <ele>864</ele>
        <time>2021-08-10T09:29:27.737Z</time>
      </trkpt>
      <trkpt lat="46.9641" lon="8.5866">
        <ele>864</ele>
        <time>2021-08-10T09:29:28.738Z</time>
      </trkpt>
      <trkpt lat="46.96409" lon="8.58661">
        <ele>864</ele>
        <time>2021-08-10T09:29:29.737Z</time>
      </trkpt>
      <trkpt lat="46.96409" lon="8.58662">
        <ele>864</ele>
        <time>2021-08-10T09:29:30.737Z</time>
      </trkpt>
      <trkpt lat="46.96407" lon="8.58664">
        <ele>863</ele>
        <time>2021-08-10T09:29:31.738Z</time>
      </trkpt>
      <trkpt lat="46.96407" lon="8.58665">
        <ele>863</ele>
        <time>2021-08-10T09:29:32.737Z</time>
      </trkpt>
      <trkpt lat="46.96406" lon="8.58666">
        <ele>863</ele>
        <time>2021-08-10T09:29:33.738Z</time>
      </trkpt>
      <trkpt lat="46.96405" lon="8.58666">
        <ele>863</ele>
        <time>2021-08-10T09:29:34.737Z</time>
      </trkpt>
      <trkpt lat="46.96404" lon="8.58667">
        <ele>863</ele>
        <time>2021-08-10T09:29:35.737Z</time>
      </trkpt>
      <trkpt lat="46.96403" lon="8.58668">
        <ele>862</ele>
        <time>2021-08-10T09:29:36.737Z</time>
      </trkpt>
      <trkpt lat="46.96402" lon="8.58669">
        <ele>862</ele>
        <time>2021-08-10T09:29:37.737Z</time>
      </trkpt>
      <trkpt lat="46.96401" lon="8.58669">
        <ele>861</ele>
        <time>2021-08-10T09:29:38.737Z</time>
      </trkpt>
      <trkpt lat="46.964" lon="8.58669">
        <ele>861</ele>
        <time>2021-08-10T09:29:39.737Z</time>
      </trkpt>
      <trkpt lat="46.96399" lon="8.5867">
        <ele>861</ele>
        <time>2021-08-10T09:29:40.737Z</time>
      </trkpt>
      <trkpt lat="46.96397" lon="8.58672">
        <ele>860</ele>
        <time>2021-08-10T09:29:41.737Z</time>
      </trkpt>
      <trkpt lat="46.96396" lon="8.58673">
        <ele>860</ele>
        <time>2021-08-10T09:29:42.738Z</time>
      </trkpt>
      <trkpt lat="46.96395" lon="8.58674">
        <ele>860</ele>
        <time>2021-08-10T09:29:43.737Z</time>
      </trkpt>
      <trkpt lat="46.96394" lon="8.58675">
        <ele>860</ele>
        <time>2021-08-10T09:29:44.737Z</time>
      </trkpt>
      <trkpt lat="46.96393" lon="8.58676">
        <ele>859</ele>
        <time>2021-08-10T09:29:45.738Z</time>
      </trkpt>
      <trkpt lat="46.96393" lon="8.58678">
        <ele>859</ele>
        <time>2021-08-10T09:29:46.738Z</time>
      </trkpt>
      <trkpt lat="46.96392" lon="8.5868">
        <ele>859</ele>
        <time>2021-08-10T09:29:47.738Z</time>
      </trkpt>
      <trkpt lat="46.96391" lon="8.58682">
        <ele>858</ele>
        <time>2021-08-10T09:29:48.738Z</time>
      </trkpt>
      <trkpt lat="46.96391" lon="8.58684">
        <ele>858</ele>
        <time>2021-08-10T09:29:49.738Z</time>
      </trkpt>
      <trkpt lat="46.9639" lon="8.58686">
        <ele>858</ele>
        <time>2021-08-10T09:29:50.738Z</time>
      </trkpt>
      <trkpt lat="46.9639" lon="8.58686">
        <ele>858</ele>
        <time>2021-08-10T09:29:51.738Z</time>
      </trkpt>
      <trkpt lat="46.96387" lon="8.58689">
        <ele>858</ele>
        <time>2021-08-10T09:29:52.738Z</time>
      </trkpt>
      <trkpt lat="46.9638" lon="8.58691">
        <ele>859</ele>
        <time>2021-08-10T09:29:53.738Z</time>
      </trkpt>
      <trkpt lat="46.96379" lon="8.58691">
        <ele>859</ele>
        <time>2021-08-10T09:29:54.737Z</time>
      </trkpt>
      <trkpt lat="46.96378" lon="8.58691">
        <ele>860</ele>
        <time>2021-08-10T09:29:55.737Z</time>
      </trkpt>
      <trkpt lat="46.96377" lon="8.58692">
        <ele>860</ele>
        <time>2021-08-10T09:29:56.737Z</time>
      </trkpt>
      <trkpt lat="46.96375" lon="8.58693">
        <ele>860</ele>
        <time>2021-08-10T09:29:57.737Z</time>
      </trkpt>
      <trkpt lat="46.96374" lon="8.58695">
        <ele>861</ele>
        <time>2021-08-10T09:29:58.737Z</time>
      </trkpt>
      <trkpt lat="46.96373" lon="8.58695">
        <ele>861</ele>
        <time>2021-08-10T09:29:59.738Z</time>
      </trkpt>
      <trkpt lat="46.96369" lon="8.58696">
        <ele>863</ele>
        <time>2021-08-10T09:30:01.737Z</time>
      </trkpt>
      <trkpt lat="46.96368" lon="8.58697">
        <ele>864</ele>
        <time>2021-08-10T09:30:02.737Z</time>
      </trkpt>
      <trkpt lat="46.96367" lon="8.58698">
        <ele>864</ele>
        <time>2021-08-10T09:30:03.737Z</time>
      </trkpt>
      <trkpt lat="46.96365" lon="8.58698">
        <ele>865</ele>
        <time>2021-08-10T09:30:04.738Z</time>
      </trkpt>
      <trkpt lat="46.96364" lon="8.58699">
        <ele>865</ele>
        <time>2021-08-10T09:30:05.737Z</time>
      </trkpt>
      <trkpt lat="46.96363" lon="8.58699">
        <ele>866</ele>
        <time>2021-08-10T09:30:06.738Z</time>
      </trkpt>
      <trkpt lat="46.96362" lon="8.587">
        <ele>866</ele>
        <time>2021-08-10T09:30:07.738Z</time>
      </trkpt>
      <trkpt lat="46.9636" lon="8.587">
        <ele>866</ele>
        <time>2021-08-10T09:30:08.737Z</time>
      </trkpt>
      <trkpt lat="46.96358" lon="8.58701">
        <ele>866</ele>
        <time>2021-08-10T09:30:09.737Z</time>
      </trkpt>
      <trkpt lat="46.96357" lon="8.58701">
        <ele>866</ele>
        <time>2021-08-10T09:30:10.737Z</time>
      </trkpt>
      <trkpt lat="46.96357" lon="8.58702">
        <ele>866</ele>
        <time>2021-08-10T09:30:11.737Z</time>
      </trkpt>
      <trkpt lat="46.96356" lon="8.58702">
        <ele>866</ele>
        <time>2021-08-10T09:30:12.737Z</time>
      </trkpt>
      <trkpt lat="46.96356" lon="8.58703">
        <ele>866</ele>
        <time>2021-08-10T09:30:13.737Z</time>
      </trkpt>
      <trkpt lat="46.96355" lon="8.58704">
        <ele>865</ele>
        <time>2021-08-10T09:30:14.737Z</time>
      </trkpt>
      <trkpt lat="46.96354" lon="8.58705">
        <ele>865</ele>
        <time>2021-08-10T09:30:15.737Z</time>
      </trkpt>
      <trkpt lat="46.96354" lon="8.58706">
        <ele>864</ele>
        <time>2021-08-10T09:30:16.737Z</time>
      </trkpt>
      <trkpt lat="46.96353" lon="8.58707">
        <ele>864</ele>
        <time>2021-08-10T09:30:17.737Z</time>
      </trkpt>
      <trkpt lat="46.96352" lon="8.58707">
        <ele>864</ele>
        <time>2021-08-10T09:30:18.737Z</time>
      </trkpt>
      <trkpt lat="46.96352" lon="8.58707">
        <ele>864</ele>
        <time>2021-08-10T09:30:19.737Z</time>
      </trkpt>
      <trkpt lat="46.96351" lon="8.58707">
        <ele>864</ele>
        <time>2021-08-10T09:30:20.738Z</time>
      </trkpt>
      <trkpt lat="46.9635" lon="8.58707">
        <ele>863</ele>
        <time>2021-08-10T09:30:21.737Z</time>
      </trkpt>
      <trkpt lat="46.9635" lon="8.58708">
        <ele>864</ele>
        <time>2021-08-10T09:30:22.737Z</time>
      </trkpt>
      <trkpt lat="46.96349" lon="8.58709">
        <ele>864</ele>
        <time>2021-08-10T09:30:23.738Z</time>
      </trkpt>
      <trkpt lat="46.96348" lon="8.5871">
        <ele>864</ele>
        <time>2021-08-10T09:30:24.738Z</time>
      </trkpt>
      <trkpt lat="46.96347" lon="8.58711">
        <ele>864</ele>
        <time>2021-08-10T09:30:25.738Z</time>
      </trkpt>
      <trkpt lat="46.96347" lon="8.58712">
        <ele>864</ele>
        <time>2021-08-10T09:30:26.738Z</time>
      </trkpt>
      <trkpt lat="46.96347" lon="8.58713">
        <ele>864</ele>
        <time>2021-08-10T09:30:27.738Z</time>
      </trkpt>
      <trkpt lat="46.96347" lon="8.58714">
        <ele>864</ele>
        <time>2021-08-10T09:30:28.737Z</time>
      </trkpt>
      <trkpt lat="46.96346" lon="8.58722">
        <ele>862</ele>
        <time>2021-08-10T09:30:29.738Z</time>
      </trkpt>
      <trkpt lat="46.96346" lon="8.58723">
        <ele>862</ele>
        <time>2021-08-10T09:30:30.737Z</time>
      </trkpt>
      <trkpt lat="46.96345" lon="8.58723">
        <ele>862</ele>
        <time>2021-08-10T09:30:31.737Z</time>
      </trkpt>
      <trkpt lat="46.96345" lon="8.58723">
        <ele>862</ele>
        <time>2021-08-10T09:30:32.737Z</time>
      </trkpt>
      <trkpt lat="46.96344" lon="8.58723">
        <ele>862</ele>
        <time>2021-08-10T09:30:33.737Z</time>
      </trkpt>
      <trkpt lat="46.96344" lon="8.58724">
        <ele>862</ele>
        <time>2021-08-10T09:30:34.738Z</time>
      </trkpt>
      <trkpt lat="46.96343" lon="8.58725">
        <ele>862</ele>
        <time>2021-08-10T09:30:35.737Z</time>
      </trkpt>
      <trkpt lat="46.96343" lon="8.58725">
        <ele>862</ele>
        <time>2021-08-10T09:30:36.738Z</time>
      </trkpt>
      <trkpt lat="46.96343" lon="8.58725">
        <ele>862</ele>
        <time>2021-08-10T09:30:37.738Z</time>
      </trkpt>
      <trkpt lat="46.96342" lon="8.58726">
        <ele>862</ele>
        <time>2021-08-10T09:30:38.737Z</time>
      </trkpt>
      <trkpt lat="46.96341" lon="8.58726">
        <ele>862</ele>
        <time>2021-08-10T09:30:39.738Z</time>
      </trkpt>
      <trkpt lat="46.96341" lon="8.58726">
        <ele>862</ele>
        <time>2021-08-10T09:30:40.738Z</time>
      </trkpt>
      <trkpt lat="46.9634" lon="8.58727">
        <ele>862</ele>
        <time>2021-08-10T09:30:41.738Z</time>
      </trkpt>
      <trkpt lat="46.9634" lon="8.58727">
        <ele>862</ele>
        <time>2021-08-10T09:30:42.738Z</time>
      </trkpt>
      <trkpt lat="46.96339" lon="8.58727">
        <ele>862</ele>
        <time>2021-08-10T09:30:43.737Z</time>
      </trkpt>
      <trkpt lat="46.96338" lon="8.58727">
        <ele>862</ele>
        <time>2021-08-10T09:30:44.737Z</time>
      </trkpt>
      <trkpt lat="46.96336" lon="8.58728">
        <ele>862</ele>
        <time>2021-08-10T09:30:45.738Z</time>
      </trkpt>
      <trkpt lat="46.96335" lon="8.58728">
        <ele>862</ele>
        <time>2021-08-10T09:30:46.737Z</time>
      </trkpt>
      <trkpt lat="46.96333" lon="8.58728">
        <ele>862</ele>
        <time>2021-08-10T09:30:47.737Z</time>
      </trkpt>
      <trkpt lat="46.96332" lon="8.58728">
        <ele>862</ele>
        <time>2021-08-10T09:30:48.737Z</time>
      </trkpt>
      <trkpt lat="46.96331" lon="8.58729">
        <ele>862</ele>
        <time>2021-08-10T09:30:49.737Z</time>
      </trkpt>
      <trkpt lat="46.9633" lon="8.58729">
        <ele>862</ele>
        <time>2021-08-10T09:30:50.738Z</time>
      </trkpt>
      <trkpt lat="46.96329" lon="8.58729">
        <ele>863</ele>
        <time>2021-08-10T09:30:51.738Z</time>
      </trkpt>
      <trkpt lat="46.96328" lon="8.5873">
        <ele>863</ele>
        <time>2021-08-10T09:30:52.737Z</time>
      </trkpt>
      <trkpt lat="46.96327" lon="8.58731">
        <ele>863</ele>
        <time>2021-08-10T09:30:53.738Z</time>
      </trkpt>
      <trkpt lat="46.96325" lon="8.58731">
        <ele>863</ele>
        <time>2021-08-10T09:30:54.738Z</time>
      </trkpt>
      <trkpt lat="46.96325" lon="8.58731">
        <ele>864</ele>
        <time>2021-08-10T09:30:55.737Z</time>
      </trkpt>
      <trkpt lat="46.96324" lon="8.58732">
        <ele>864</ele>
        <time>2021-08-10T09:30:56.737Z</time>
      </trkpt>
      <trkpt lat="46.96322" lon="8.58734">
        <ele>864</ele>
        <time>2021-08-10T09:30:57.738Z</time>
      </trkpt>
      <trkpt lat="46.96321" lon="8.58735">
        <ele>864</ele>
        <time>2021-08-10T09:30:58.738Z</time>
      </trkpt>
      <trkpt lat="46.9632" lon="8.58735">
        <ele>865</ele>
        <time>2021-08-10T09:30:59.738Z</time>
      </trkpt>
      <trkpt lat="46.96319" lon="8.58735">
        <ele>865</ele>
        <time>2021-08-10T09:31:00.738Z</time>
      </trkpt>
      <trkpt lat="46.96318" lon="8.58736">
        <ele>865</ele>
        <time>2021-08-10T09:31:01.738Z</time>
      </trkpt>
      <trkpt lat="46.96318" lon="8.58736">
        <ele>866</ele>
        <time>2021-08-10T09:31:02.738Z</time>
      </trkpt>
      <trkpt lat="46.96317" lon="8.58736">
        <ele>866</ele>
        <time>2021-08-10T09:31:03.738Z</time>
      </trkpt>
      <trkpt lat="46.96316" lon="8.58737">
        <ele>866</ele>
        <time>2021-08-10T09:31:04.737Z</time>
      </trkpt>
      <trkpt lat="46.96316" lon="8.58737">
        <ele>867</ele>
        <time>2021-08-10T09:31:05.738Z</time>
      </trkpt>
      <trkpt lat="46.96315" lon="8.58737">
        <ele>867</ele>
        <time>2021-08-10T09:31:06.738Z</time>
      </trkpt>
      <trkpt lat="46.96314" lon="8.58738">
        <ele>867</ele>
        <time>2021-08-10T09:31:07.738Z</time>
      </trkpt>
      <trkpt lat="46.96314" lon="8.58739">
        <ele>867</ele>
        <time>2021-08-10T09:31:08.738Z</time>
      </trkpt>
      <trkpt lat="46.96314" lon="8.5874">
        <ele>867</ele>
        <time>2021-08-10T09:31:09.738Z</time>
      </trkpt>
      <trkpt lat="46.96314" lon="8.58741">
        <ele>867</ele>
        <time>2021-08-10T09:31:10.737Z</time>
      </trkpt>
      <trkpt lat="46.96315" lon="8.58744">
        <ele>867</ele>
        <time>2021-08-10T09:31:11.738Z</time>
      </trkpt>
      <trkpt lat="46.96315" lon="8.58746">
        <ele>867</ele>
        <time>2021-08-10T09:31:12.738Z</time>
      </trkpt>
      <trkpt lat="46.96315" lon="8.58748">
        <ele>867</ele>
        <time>2021-08-10T09:31:13.738Z</time>
      </trkpt>
      <trkpt lat="46.96315" lon="8.58748">
        <ele>867</ele>
        <time>2021-08-10T09:31:14.738Z</time>
      </trkpt>
      <trkpt lat="46.96315" lon="8.58749">
        <ele>867</ele>
        <time>2021-08-10T09:31:15.738Z</time>
      </trkpt>
      <trkpt lat="46.96316" lon="8.5875">
        <ele>867</ele>
        <time>2021-08-10T09:31:16.737Z</time>
      </trkpt>
      <trkpt lat="46.96316" lon="8.58751">
        <ele>867</ele>
        <time>2021-08-10T09:31:17.738Z</time>
      </trkpt>
      <trkpt lat="46.96317" lon="8.58753">
        <ele>867</ele>
        <time>2021-08-10T09:31:18.738Z</time>
      </trkpt>
      <trkpt lat="46.96317" lon="8.58754">
        <ele>866</ele>
        <time>2021-08-10T09:31:19.738Z</time>
      </trkpt>
      <trkpt lat="46.96317" lon="8.58755">
        <ele>866</ele>
        <time>2021-08-10T09:31:20.738Z</time>
      </trkpt>
      <trkpt lat="46.96317" lon="8.58756">
        <ele>865</ele>
        <time>2021-08-10T09:31:21.737Z</time>
      </trkpt>
      <trkpt lat="46.96317" lon="8.58757">
        <ele>865</ele>
        <time>2021-08-10T09:31:22.738Z</time>
      </trkpt>
      <trkpt lat="46.96317" lon="8.58758">
        <ele>865</ele>
        <time>2021-08-10T09:31:23.738Z</time>
      </trkpt>
      <trkpt lat="46.96318" lon="8.58759">
        <ele>864</ele>
        <time>2021-08-10T09:31:24.738Z</time>
      </trkpt>
      <trkpt lat="46.96318" lon="8.58761">
        <ele>864</ele>
        <time>2021-08-10T09:31:25.738Z</time>
      </trkpt>
      <trkpt lat="46.96318" lon="8.58762">
        <ele>864</ele>
        <time>2021-08-10T09:31:26.738Z</time>
      </trkpt>
      <trkpt lat="46.96319" lon="8.58764">
        <ele>863</ele>
        <time>2021-08-10T09:31:27.738Z</time>
      </trkpt>
      <trkpt lat="46.9632" lon="8.58764">
        <ele>863</ele>
        <time>2021-08-10T09:31:28.738Z</time>
      </trkpt>
      <trkpt lat="46.96321" lon="8.58764">
        <ele>862</ele>
        <time>2021-08-10T09:31:29.737Z</time>
      </trkpt>
      <trkpt lat="46.96321" lon="8.58763">
        <ele>862</ele>
        <time>2021-08-10T09:31:30.738Z</time>
      </trkpt>
      <trkpt lat="46.96322" lon="8.58763">
        <ele>862</ele>
        <time>2021-08-10T09:31:31.738Z</time>
      </trkpt>
      <trkpt lat="46.96323" lon="8.58762">
        <ele>861</ele>
        <time>2021-08-10T09:31:32.738Z</time>
      </trkpt>
      <trkpt lat="46.96323" lon="8.58762">
        <ele>861</ele>
        <time>2021-08-10T09:31:33.738Z</time>
      </trkpt>
      <trkpt lat="46.96323" lon="8.58763">
        <ele>860</ele>
        <time>2021-08-10T09:31:34.738Z</time>
      </trkpt>
      <trkpt lat="46.96323" lon="8.58764">
        <ele>861</ele>
        <time>2021-08-10T09:31:35.737Z</time>
      </trkpt>
      <trkpt lat="46.96323" lon="8.58764">
        <ele>861</ele>
        <time>2021-08-10T09:31:36.737Z</time>
      </trkpt>
      <trkpt lat="46.96324" lon="8.58763">
        <ele>861</ele>
        <time>2021-08-10T09:31:37.738Z</time>
      </trkpt>
      <trkpt lat="46.96331" lon="8.58763">
        <ele>859</ele>
        <time>2021-08-10T09:31:38.738Z</time>
      </trkpt>
      <trkpt lat="46.96332" lon="8.58762">
        <ele>859</ele>
        <time>2021-08-10T09:31:39.739Z</time>
      </trkpt>
      <trkpt lat="46.96332" lon="8.58761">
        <ele>859</ele>
        <time>2021-08-10T09:31:40.738Z</time>
      </trkpt>
      <trkpt lat="46.96332" lon="8.58761">
        <ele>859</ele>
        <time>2021-08-10T09:31:41.738Z</time>
      </trkpt>
      <trkpt lat="46.96332" lon="8.58762">
        <ele>859</ele>
        <time>2021-08-10T09:31:42.739Z</time>
      </trkpt>
      <trkpt lat="46.96332" lon="8.58762">
        <ele>858</ele>
        <time>2021-08-10T09:31:43.739Z</time>
      </trkpt>
      <trkpt lat="46.96332" lon="8.58763">
        <ele>858</ele>
        <time>2021-08-10T09:31:44.739Z</time>
      </trkpt>
      <trkpt lat="46.96333" lon="8.58763">
        <ele>858</ele>
        <time>2021-08-10T09:31:45.738Z</time>
      </trkpt>
      <trkpt lat="46.96333" lon="8.58764">
        <ele>858</ele>
        <time>2021-08-10T09:31:46.739Z</time>
      </trkpt>
      <trkpt lat="46.96333" lon="8.58764">
        <ele>858</ele>
        <time>2021-08-10T09:31:47.739Z</time>
      </trkpt>
      <trkpt lat="46.96324" lon="8.5876">
        <ele>860</ele>
        <time>2021-08-10T09:31:48.739Z</time>
      </trkpt>
      <trkpt lat="46.96321" lon="8.58759">
        <ele>860</ele>
        <time>2021-08-10T09:31:49.739Z</time>
      </trkpt>
      <trkpt lat="46.96324" lon="8.58755">
        <ele>837</ele>
        <time>2021-08-10T09:31:50.739Z</time>
      </trkpt>
      <trkpt lat="46.96324" lon="8.58756">
        <ele>837</ele>
        <time>2021-08-10T09:31:51.738Z</time>
      </trkpt>
      <trkpt lat="46.96324" lon="8.58757">
        <ele>836</ele>
        <time>2021-08-10T09:31:52.739Z</time>
      </trkpt>
      <trkpt lat="46.96323" lon="8.58758">
        <ele>836</ele>
        <time>2021-08-10T09:31:53.739Z</time>
      </trkpt>
      <trkpt lat="46.96321" lon="8.58761">
        <ele>836</ele>
        <time>2021-08-10T09:31:54.739Z</time>
      </trkpt>
      <trkpt lat="46.9632" lon="8.58762">
        <ele>836</ele>
        <time>2021-08-10T09:31:55.739Z</time>
      </trkpt>
      <trkpt lat="46.96319" lon="8.58762">
        <ele>837</ele>
        <time>2021-08-10T09:31:56.738Z</time>
      </trkpt>
      <trkpt lat="46.96317" lon="8.58764">
        <ele>837</ele>
        <time>2021-08-10T09:31:57.739Z</time>
      </trkpt>
      <trkpt lat="46.96317" lon="8.58764">
        <ele>838</ele>
        <time>2021-08-10T09:31:58.739Z</time>
      </trkpt>
      <trkpt lat="46.96316" lon="8.58765">
        <ele>839</ele>
        <time>2021-08-10T09:31:59.740Z</time>
      </trkpt>
      <trkpt lat="46.96316" lon="8.58765">
        <ele>839</ele>
        <time>2021-08-10T09:32:00.740Z</time>
      </trkpt>
      <trkpt lat="46.96315" lon="8.58766">
        <ele>840</ele>
        <time>2021-08-10T09:32:01.740Z</time>
      </trkpt>
      <trkpt lat="46.96314" lon="8.58767">
        <ele>840</ele>
        <time>2021-08-10T09:32:02.740Z</time>
      </trkpt>
      <trkpt lat="46.96309" lon="8.58767">
        <ele>842</ele>
        <time>2021-08-10T09:32:03.740Z</time>
      </trkpt>
      <trkpt lat="46.96308" lon="8.58767">
        <ele>843</ele>
        <time>2021-08-10T09:32:04.741Z</time>
      </trkpt>
      <trkpt lat="46.96307" lon="8.58767">
        <ele>843</ele>
        <time>2021-08-10T09:32:05.740Z</time>
      </trkpt>
      <trkpt lat="46.96307" lon="8.58767">
        <ele>845</ele>
        <time>2021-08-10T09:32:06.741Z</time>
      </trkpt>
      <trkpt lat="46.96306" lon="8.58767">
        <ele>845</ele>
        <time>2021-08-10T09:32:07.742Z</time>
      </trkpt>
      <trkpt lat="46.96305" lon="8.58767">
        <ele>846</ele>
        <time>2021-08-10T09:32:08.741Z</time>
      </trkpt>
      <trkpt lat="46.96305" lon="8.58768">
        <ele>846</ele>
        <time>2021-08-10T09:32:09.741Z</time>
      </trkpt>
      <trkpt lat="46.96305" lon="8.58768">
        <ele>847</ele>
        <time>2021-08-10T09:32:10.741Z</time>
      </trkpt>
      <trkpt lat="46.96304" lon="8.58769">
        <ele>847</ele>
        <time>2021-08-10T09:32:11.742Z</time>
      </trkpt>
      <trkpt lat="46.96303" lon="8.58771">
        <ele>848</ele>
        <time>2021-08-10T09:32:12.741Z</time>
      </trkpt>
      <trkpt lat="46.96302" lon="8.58772">
        <ele>848</ele>
        <time>2021-08-10T09:32:13.741Z</time>
      </trkpt>
      <trkpt lat="46.96302" lon="8.58773">
        <ele>848</ele>
        <time>2021-08-10T09:32:14.742Z</time>
      </trkpt>
      <trkpt lat="46.96301" lon="8.58774">
        <ele>849</ele>
        <time>2021-08-10T09:32:15.741Z</time>
      </trkpt>
      <trkpt lat="46.96301" lon="8.58775">
        <ele>849</ele>
        <time>2021-08-10T09:32:16.742Z</time>
      </trkpt>
      <trkpt lat="46.963" lon="8.58775">
        <ele>850</ele>
        <time>2021-08-10T09:32:17.742Z</time>
      </trkpt>
      <trkpt lat="46.963" lon="8.58775">
        <ele>850</ele>
        <time>2021-08-10T09:32:18.742Z</time>
      </trkpt>
      <trkpt lat="46.96299" lon="8.58775">
        <ele>850</ele>
        <time>2021-08-10T09:32:19.742Z</time>
      </trkpt>
      <trkpt lat="46.96298" lon="8.58776">
        <ele>850</ele>
        <time>2021-08-10T09:32:20.742Z</time>
      </trkpt>
      <trkpt lat="46.96298" lon="8.58777">
        <ele>850</ele>
        <time>2021-08-10T09:32:21.742Z</time>
      </trkpt>
      <trkpt lat="46.96297" lon="8.58778">
        <ele>851</ele>
        <time>2021-08-10T09:32:22.741Z</time>
      </trkpt>
      <trkpt lat="46.96296" lon="8.58779">
        <ele>851</ele>
        <time>2021-08-10T09:32:23.741Z</time>
      </trkpt>
      <trkpt lat="46.96295" lon="8.5878">
        <ele>851</ele>
        <time>2021-08-10T09:32:24.741Z</time>
      </trkpt>
      <trkpt lat="46.96295" lon="8.58781">
        <ele>852</ele>
        <time>2021-08-10T09:32:25.742Z</time>
      </trkpt>
      <trkpt lat="46.96294" lon="8.58783">
        <ele>852</ele>
        <time>2021-08-10T09:32:26.742Z</time>
      </trkpt>
      <trkpt lat="46.96293" lon="8.58784">
        <ele>852</ele>
        <time>2021-08-10T09:32:27.741Z</time>
      </trkpt>
      <trkpt lat="46.96291" lon="8.58786">
        <ele>852</ele>
        <time>2021-08-10T09:32:28.742Z</time>
      </trkpt>
      <trkpt lat="46.9629" lon="8.58786">
        <ele>852</ele>
        <time>2021-08-10T09:32:29.742Z</time>
      </trkpt>
      <trkpt lat="46.96289" lon="8.58787">
        <ele>852</ele>
        <time>2021-08-10T09:32:30.742Z</time>
      </trkpt>
      <trkpt lat="46.96288" lon="8.58787">
        <ele>853</ele>
        <time>2021-08-10T09:32:31.742Z</time>
      </trkpt>
      <trkpt lat="46.96287" lon="8.58788">
        <ele>853</ele>
        <time>2021-08-10T09:32:32.742Z</time>
      </trkpt>
      <trkpt lat="46.96285" lon="8.58789">
        <ele>852</ele>
        <time>2021-08-10T09:32:33.742Z</time>
      </trkpt>
      <trkpt lat="46.96284" lon="8.5879">
        <ele>852</ele>
        <time>2021-08-10T09:32:34.742Z</time>
      </trkpt>
      <trkpt lat="46.96283" lon="8.58791">
        <ele>852</ele>
        <time>2021-08-10T09:32:35.742Z</time>
      </trkpt>
      <trkpt lat="46.96281" lon="8.58793">
        <ele>852</ele>
        <time>2021-08-10T09:32:36.741Z</time>
      </trkpt>
      <trkpt lat="46.96279" lon="8.58797">
        <ele>852</ele>
        <time>2021-08-10T09:32:37.742Z</time>
      </trkpt>
      <trkpt lat="46.96277" lon="8.58798">
        <ele>851</ele>
        <time>2021-08-10T09:32:38.742Z</time>
      </trkpt>
      <trkpt lat="46.96276" lon="8.588">
        <ele>851</ele>
        <time>2021-08-10T09:32:39.742Z</time>
      </trkpt>
      <trkpt lat="46.96275" lon="8.58801">
        <ele>851</ele>
        <time>2021-08-10T09:32:40.742Z</time>
      </trkpt>
      <trkpt lat="46.96275" lon="8.58804">
        <ele>851</ele>
        <time>2021-08-10T09:32:41.741Z</time>
      </trkpt>
      <trkpt lat="46.96274" lon="8.58806">
        <ele>852</ele>
        <time>2021-08-10T09:32:42.742Z</time>
      </trkpt>
      <trkpt lat="46.96274" lon="8.58808">
        <ele>852</ele>
        <time>2021-08-10T09:32:43.742Z</time>
      </trkpt>
      <trkpt lat="46.96274" lon="8.5881">
        <ele>852</ele>
        <time>2021-08-10T09:32:44.741Z</time>
      </trkpt>
      <trkpt lat="46.96274" lon="8.58812">
        <ele>851</ele>
        <time>2021-08-10T09:32:45.742Z</time>
      </trkpt>
      <trkpt lat="46.96274" lon="8.58814">
        <ele>851</ele>
        <time>2021-08-10T09:32:46.742Z</time>
      </trkpt>
      <trkpt lat="46.96275" lon="8.58817">
        <ele>851</ele>
        <time>2021-08-10T09:32:47.742Z</time>
      </trkpt>
      <trkpt lat="46.96275" lon="8.58819">
        <ele>851</ele>
        <time>2021-08-10T09:32:48.742Z</time>
      </trkpt>
      <trkpt lat="46.96275" lon="8.58821">
        <ele>851</ele>
        <time>2021-08-10T09:32:49.741Z</time>
      </trkpt>
      <trkpt lat="46.96274" lon="8.58821">
        <ele>851</ele>
        <time>2021-08-10T09:32:50.742Z</time>
      </trkpt>
      <trkpt lat="46.96274" lon="8.58822">
        <ele>851</ele>
        <time>2021-08-10T09:32:51.741Z</time>
      </trkpt>
      <trkpt lat="46.96274" lon="8.58824">
        <ele>851</ele>
        <time>2021-08-10T09:32:52.742Z</time>
      </trkpt>
      <trkpt lat="46.96274" lon="8.58825">
        <ele>851</ele>
        <time>2021-08-10T09:32:53.741Z</time>
      </trkpt>
      <trkpt lat="46.96274" lon="8.58827">
        <ele>851</ele>
        <time>2021-08-10T09:32:54.741Z</time>
      </trkpt>
      <trkpt lat="46.96274" lon="8.58829">
        <ele>851</ele>
        <time>2021-08-10T09:32:55.741Z</time>
      </trkpt>
      <trkpt lat="46.96273" lon="8.5883">
        <ele>851</ele>
        <time>2021-08-10T09:32:56.741Z</time>
      </trkpt>
      <trkpt lat="46.96273" lon="8.58832">
        <ele>850</ele>
        <time>2021-08-10T09:32:57.741Z</time>
      </trkpt>
      <trkpt lat="46.96274" lon="8.58833">
        <ele>850</ele>
        <time>2021-08-10T09:32:58.741Z</time>
      </trkpt>
      <trkpt lat="46.96274" lon="8.58834">
        <ele>850</ele>
        <time>2021-08-10T09:32:59.742Z</time>
      </trkpt>
      <trkpt lat="46.96275" lon="8.58836">
        <ele>850</ele>
        <time>2021-08-10T09:33:00.742Z</time>
      </trkpt>
      <trkpt lat="46.96274" lon="8.58837">
        <ele>850</ele>
        <time>2021-08-10T09:33:01.742Z</time>
      </trkpt>
      <trkpt lat="46.96274" lon="8.58838">
        <ele>851</ele>
        <time>2021-08-10T09:33:02.742Z</time>
      </trkpt>
      <trkpt lat="46.96274" lon="8.5884">
        <ele>851</ele>
        <time>2021-08-10T09:33:03.742Z</time>
      </trkpt>
      <trkpt lat="46.96275" lon="8.58841">
        <ele>851</ele>
        <time>2021-08-10T09:33:04.742Z</time>
      </trkpt>
      <trkpt lat="46.96275" lon="8.58843">
        <ele>851</ele>
        <time>2021-08-10T09:33:05.742Z</time>
      </trkpt>
      <trkpt lat="46.96274" lon="8.58845">
        <ele>851</ele>
        <time>2021-08-10T09:33:06.742Z</time>
      </trkpt>
      <trkpt lat="46.96273" lon="8.58848">
        <ele>851</ele>
        <time>2021-08-10T09:33:07.741Z</time>
      </trkpt>
      <trkpt lat="46.96273" lon="8.5885">
        <ele>850</ele>
        <time>2021-08-10T09:33:08.742Z</time>
      </trkpt>
      <trkpt lat="46.96273" lon="8.58851">
        <ele>850</ele>
        <time>2021-08-10T09:33:09.742Z</time>
      </trkpt>
      <trkpt lat="46.96273" lon="8.58854">
        <ele>850</ele>
        <time>2021-08-10T09:33:10.741Z</time>
      </trkpt>
      <trkpt lat="46.96273" lon="8.58855">
        <ele>850</ele>
        <time>2021-08-10T09:33:11.742Z</time>
      </trkpt>
      <trkpt lat="46.96272" lon="8.58856">
        <ele>850</ele>
        <time>2021-08-10T09:33:12.741Z</time>
      </trkpt>
      <trkpt lat="46.96272" lon="8.58857">
        <ele>850</ele>
        <time>2021-08-10T09:33:13.742Z</time>
      </trkpt>
      <trkpt lat="46.96271" lon="8.58858">
        <ele>849</ele>
        <time>2021-08-10T09:33:14.741Z</time>
      </trkpt>
      <trkpt lat="46.9627" lon="8.5886">
        <ele>849</ele>
        <time>2021-08-10T09:33:15.742Z</time>
      </trkpt>
      <trkpt lat="46.9627" lon="8.58861">
        <ele>849</ele>
        <time>2021-08-10T09:33:16.742Z</time>
      </trkpt>
      <trkpt lat="46.96269" lon="8.58862">
        <ele>849</ele>
        <time>2021-08-10T09:33:17.742Z</time>
      </trkpt>
      <trkpt lat="46.96269" lon="8.58863">
        <ele>849</ele>
        <time>2021-08-10T09:33:18.742Z</time>
      </trkpt>
      <trkpt lat="46.96268" lon="8.58864">
        <ele>849</ele>
        <time>2021-08-10T09:33:19.741Z</time>
      </trkpt>
      <trkpt lat="46.96267" lon="8.58865">
        <ele>849</ele>
        <time>2021-08-10T09:33:20.742Z</time>
      </trkpt>
      <trkpt lat="46.96266" lon="8.58866">
        <ele>849</ele>
        <time>2021-08-10T09:33:21.742Z</time>
      </trkpt>
      <trkpt lat="46.96266" lon="8.58867">
        <ele>849</ele>
        <time>2021-08-10T09:33:22.741Z</time>
      </trkpt>
      <trkpt lat="46.96265" lon="8.58868">
        <ele>849</ele>
        <time>2021-08-10T09:33:23.742Z</time>
      </trkpt>
      <trkpt lat="46.96265" lon="8.58869">
        <ele>849</ele>
        <time>2021-08-10T09:33:24.742Z</time>
      </trkpt>
      <trkpt lat="46.96265" lon="8.5887">
        <ele>849</ele>
        <time>2021-08-10T09:33:25.741Z</time>
      </trkpt>
      <trkpt lat="46.96264" lon="8.58876">
        <ele>848</ele>
        <time>2021-08-10T09:33:26.742Z</time>
      </trkpt>
      <trkpt lat="46.96265" lon="8.58877">
        <ele>848</ele>
        <time>2021-08-10T09:33:27.742Z</time>
      </trkpt>
      <trkpt lat="46.96267" lon="8.58878">
        <ele>848</ele>
        <time>2021-08-10T09:33:28.742Z</time>
      </trkpt>
      <trkpt lat="46.96268" lon="8.58878">
        <ele>848</ele>
        <time>2021-08-10T09:33:29.741Z</time>
      </trkpt>
      <trkpt lat="46.96269" lon="8.58878">
        <ele>848</ele>
        <time>2021-08-10T09:33:30.741Z</time>
      </trkpt>
      <trkpt lat="46.9627" lon="8.58878">
        <ele>848</ele>
        <time>2021-08-10T09:33:31.742Z</time>
      </trkpt>
      <trkpt lat="46.9627" lon="8.58879">
        <ele>848</ele>
        <time>2021-08-10T09:33:32.741Z</time>
      </trkpt>
      <trkpt lat="46.9627" lon="8.58879">
        <ele>848</ele>
        <time>2021-08-10T09:33:33.742Z</time>
      </trkpt>
      <trkpt lat="46.96271" lon="8.5888">
        <ele>848</ele>
        <time>2021-08-10T09:33:34.741Z</time>
      </trkpt>
      <trkpt lat="46.96271" lon="8.5888">
        <ele>847</ele>
        <time>2021-08-10T09:33:35.742Z</time>
      </trkpt>
      <trkpt lat="46.96272" lon="8.58881">
        <ele>847</ele>
        <time>2021-08-10T09:33:36.742Z</time>
      </trkpt>
      <trkpt lat="46.96272" lon="8.58882">
        <ele>847</ele>
        <time>2021-08-10T09:33:37.742Z</time>
      </trkpt>
      <trkpt lat="46.96272" lon="8.58884">
        <ele>847</ele>
        <time>2021-08-10T09:33:38.741Z</time>
      </trkpt>
      <trkpt lat="46.96272" lon="8.58885">
        <ele>847</ele>
        <time>2021-08-10T09:33:39.741Z</time>
      </trkpt>
      <trkpt lat="46.96272" lon="8.58886">
        <ele>847</ele>
        <time>2021-08-10T09:33:40.742Z</time>
      </trkpt>
      <trkpt lat="46.96272" lon="8.58888">
        <ele>847</ele>
        <time>2021-08-10T09:33:41.742Z</time>
      </trkpt>
      <trkpt lat="46.96272" lon="8.58889">
        <ele>847</ele>
        <time>2021-08-10T09:33:42.741Z</time>
      </trkpt>
      <trkpt lat="46.96272" lon="8.58891">
        <ele>847</ele>
        <time>2021-08-10T09:33:43.741Z</time>
      </trkpt>
      <trkpt lat="46.96272" lon="8.58892">
        <ele>847</ele>
        <time>2021-08-10T09:33:44.741Z</time>
      </trkpt>
      <trkpt lat="46.96272" lon="8.58892">
        <ele>847</ele>
        <time>2021-08-10T09:33:45.741Z</time>
      </trkpt>
      <trkpt lat="46.96272" lon="8.58892">
        <ele>847</ele>
        <time>2021-08-10T09:33:46.741Z</time>
      </trkpt>
      <trkpt lat="46.96273" lon="8.5889">
        <ele>847</ele>
        <time>2021-08-10T09:33:47.741Z</time>
      </trkpt>
      <trkpt lat="46.96273" lon="8.5889">
        <ele>847</ele>
        <time>2021-08-10T09:33:48.741Z</time>
      </trkpt>
      <trkpt lat="46.96273" lon="8.5889">
        <ele>847</ele>
        <time>2021-08-10T09:33:49.741Z</time>
      </trkpt>
      <trkpt lat="46.96273" lon="8.58891">
        <ele>848</ele>
        <time>2021-08-10T09:33:50.741Z</time>
      </trkpt>
      <trkpt lat="46.96273" lon="8.58892">
        <ele>848</ele>
        <time>2021-08-10T09:33:51.741Z</time>
      </trkpt>
      <trkpt lat="46.96274" lon="8.58892">
        <ele>848</ele>
        <time>2021-08-10T09:33:52.741Z</time>
      </trkpt>
      <trkpt lat="46.96274" lon="8.58892">
        <ele>848</ele>
        <time>2021-08-10T09:33:53.741Z</time>
      </trkpt>
      <trkpt lat="46.96274" lon="8.58892">
        <ele>848</ele>
        <time>2021-08-10T09:33:54.741Z</time>
      </trkpt>
      <trkpt lat="46.96274" lon="8.58893">
        <ele>848</ele>
        <time>2021-08-10T09:33:55.741Z</time>
      </trkpt>
      <trkpt lat="46.96274" lon="8.58892">
        <ele>848</ele>
        <time>2021-08-10T09:33:56.741Z</time>
      </trkpt>
      <trkpt lat="46.96274" lon="8.58891">
        <ele>848</ele>
        <time>2021-08-10T09:33:57.741Z</time>
      </trkpt>
      <trkpt lat="46.96275" lon="8.5889">
        <ele>848</ele>
        <time>2021-08-10T09:33:58.742Z</time>
      </trkpt>
      <trkpt lat="46.96275" lon="8.5889">
        <ele>848</ele>
        <time>2021-08-10T09:33:59.741Z</time>
      </trkpt>
      <trkpt lat="46.96275" lon="8.5889">
        <ele>848</ele>
        <time>2021-08-10T09:34:00.741Z</time>
      </trkpt>
      <trkpt lat="46.96276" lon="8.5889">
        <ele>847</ele>
        <time>2021-08-10T09:34:01.741Z</time>
      </trkpt>
      <trkpt lat="46.96276" lon="8.5889">
        <ele>847</ele>
        <time>2021-08-10T09:34:02.742Z</time>
      </trkpt>
      <trkpt lat="46.96276" lon="8.5889">
        <ele>847</ele>
        <time>2021-08-10T09:34:03.741Z</time>
      </trkpt>
      <trkpt lat="46.96276" lon="8.5889">
        <ele>847</ele>
        <time>2021-08-10T09:34:04.742Z</time>
      </trkpt>
      <trkpt lat="46.96275" lon="8.58891">
        <ele>847</ele>
        <time>2021-08-10T09:34:05.742Z</time>
      </trkpt>
      <trkpt lat="46.96274" lon="8.58894">
        <ele>847</ele>
        <time>2021-08-10T09:34:06.742Z</time>
      </trkpt>
      <trkpt lat="46.96274" lon="8.58895">
        <ele>847</ele>
        <time>2021-08-10T09:34:07.741Z</time>
      </trkpt>
      <trkpt lat="46.96274" lon="8.58895">
        <ele>846</ele>
        <time>2021-08-10T09:34:08.742Z</time>
      </trkpt>
      <trkpt lat="46.96274" lon="8.58896">
        <ele>846</ele>
        <time>2021-08-10T09:34:09.742Z</time>
      </trkpt>
      <trkpt lat="46.96273" lon="8.58901">
        <ele>846</ele>
        <time>2021-08-10T09:34:10.742Z</time>
      </trkpt>
      <trkpt lat="46.96273" lon="8.58902">
        <ele>846</ele>
        <time>2021-08-10T09:34:11.742Z</time>
      </trkpt>
      <trkpt lat="46.96273" lon="8.58904">
        <ele>846</ele>
        <time>2021-08-10T09:34:12.743Z</time>
      </trkpt>
      <trkpt lat="46.96273" lon="8.58905">
        <ele>845</ele>
        <time>2021-08-10T09:34:13.742Z</time>
      </trkpt>
      <trkpt lat="46.96272" lon="8.58907">
        <ele>845</ele>
        <time>2021-08-10T09:34:14.742Z</time>
      </trkpt>
      <trkpt lat="46.96272" lon="8.58907">
        <ele>845</ele>
        <time>2021-08-10T09:34:15.742Z</time>
      </trkpt>
      <trkpt lat="46.96273" lon="8.58905">
        <ele>842</ele>
        <time>2021-08-10T09:34:16.743Z</time>
      </trkpt>
      <trkpt lat="46.96273" lon="8.58904">
        <ele>842</ele>
        <time>2021-08-10T09:34:17.743Z</time>
      </trkpt>
      <trkpt lat="46.96273" lon="8.58903">
        <ele>842</ele>
        <time>2021-08-10T09:34:18.742Z</time>
      </trkpt>
      <trkpt lat="46.96273" lon="8.58903">
        <ele>842</ele>
        <time>2021-08-10T09:34:19.743Z</time>
      </trkpt>
      <trkpt lat="46.96272" lon="8.58903">
        <ele>842</ele>
        <time>2021-08-10T09:34:20.742Z</time>
      </trkpt>
      <trkpt lat="46.96272" lon="8.58902">
        <ele>843</ele>
        <time>2021-08-10T09:34:21.743Z</time>
      </trkpt>
      <trkpt lat="46.9627" lon="8.58903">
        <ele>845</ele>
        <time>2021-08-10T09:34:22.743Z</time>
      </trkpt>
      <trkpt lat="46.9627" lon="8.58903">
        <ele>845</ele>
        <time>2021-08-10T09:34:23.743Z</time>
      </trkpt>
      <trkpt lat="46.9627" lon="8.58903">
        <ele>846</ele>
        <time>2021-08-10T09:34:24.742Z</time>
      </trkpt>
      <trkpt lat="46.9627" lon="8.58904">
        <ele>847</ele>
        <time>2021-08-10T09:34:25.743Z</time>
      </trkpt>
      <trkpt lat="46.96269" lon="8.58904">
        <ele>866</ele>
        <time>2021-08-10T09:34:26.742Z</time>
      </trkpt>
      <trkpt lat="46.96269" lon="8.58903">
        <ele>867</ele>
        <time>2021-08-10T09:34:27.742Z</time>
      </trkpt>
      <trkpt lat="46.96269" lon="8.58904">
        <ele>868</ele>
        <time>2021-08-10T09:34:28.743Z</time>
      </trkpt>
      <trkpt lat="46.96268" lon="8.58905">
        <ele>868</ele>
        <time>2021-08-10T09:34:29.743Z</time>
      </trkpt>
      <trkpt lat="46.96268" lon="8.58905">
        <ele>868</ele>
        <time>2021-08-10T09:34:30.742Z</time>
      </trkpt>
      <trkpt lat="46.96272" lon="8.58901">
        <ele>850</ele>
        <time>2021-08-10T09:34:31.744Z</time>
      </trkpt>
      <trkpt lat="46.96272" lon="8.58902">
        <ele>849</ele>
        <time>2021-08-10T09:34:32.744Z</time>
      </trkpt>
      <trkpt lat="46.96272" lon="8.58902">
        <ele>848</ele>
        <time>2021-08-10T09:34:33.744Z</time>
      </trkpt>
      <trkpt lat="46.96272" lon="8.58901">
        <ele>847</ele>
        <time>2021-08-10T09:34:34.743Z</time>
      </trkpt>
      <trkpt lat="46.96273" lon="8.58901">
        <ele>846</ele>
        <time>2021-08-10T09:34:35.743Z</time>
      </trkpt>
      <trkpt lat="46.96273" lon="8.58902">
        <ele>844</ele>
        <time>2021-08-10T09:34:36.744Z</time>
      </trkpt>
      <trkpt lat="46.96273" lon="8.58902">
        <ele>843</ele>
        <time>2021-08-10T09:34:37.743Z</time>
      </trkpt>
      <trkpt lat="46.96272" lon="8.58907">
        <ele>842</ele>
        <time>2021-08-10T09:34:38.744Z</time>
      </trkpt>
      <trkpt lat="46.96272" lon="8.58907">
        <ele>843</ele>
        <time>2021-08-10T09:34:39.745Z</time>
      </trkpt>
      <trkpt lat="46.96273" lon="8.58907">
        <ele>844</ele>
        <time>2021-08-10T09:34:40.744Z</time>
      </trkpt>
      <trkpt lat="46.96273" lon="8.58907">
        <ele>848</ele>
        <time>2021-08-10T09:34:41.745Z</time>
      </trkpt>
      <trkpt lat="46.96272" lon="8.58912">
        <ele>853</ele>
        <time>2021-08-10T09:34:42.745Z</time>
      </trkpt>
      <trkpt lat="46.9627" lon="8.5891">
        <ele>853</ele>
        <time>2021-08-10T09:34:43.744Z</time>
      </trkpt>
      <trkpt lat="46.96269" lon="8.58909">
        <ele>853</ele>
        <time>2021-08-10T09:34:44.745Z</time>
      </trkpt>
      <trkpt lat="46.96268" lon="8.5891">
        <ele>852</ele>
        <time>2021-08-10T09:34:45.744Z</time>
      </trkpt>
      <trkpt lat="46.96268" lon="8.58911">
        <ele>851</ele>
        <time>2021-08-10T09:34:46.745Z</time>
      </trkpt>
      <trkpt lat="46.96271" lon="8.58909">
        <ele>850</ele>
        <time>2021-08-10T09:34:47.745Z</time>
      </trkpt>
      <trkpt lat="46.96271" lon="8.58908">
        <ele>850</ele>
        <time>2021-08-10T09:34:48.745Z</time>
      </trkpt>
      <trkpt lat="46.96276" lon="8.58902">
        <ele>851</ele>
        <time>2021-08-10T09:34:49.746Z</time>
      </trkpt>
      <trkpt lat="46.96276" lon="8.58902">
        <ele>850</ele>
        <time>2021-08-10T09:34:50.746Z</time>
      </trkpt>
      <trkpt lat="46.96276" lon="8.58901">
        <ele>850</ele>
        <time>2021-08-10T09:34:51.745Z</time>
      </trkpt>
      <trkpt lat="46.96276" lon="8.58902">
        <ele>849</ele>
        <time>2021-08-10T09:34:52.746Z</time>
      </trkpt>
      <trkpt lat="46.96277" lon="8.58903">
        <ele>849</ele>
        <time>2021-08-10T09:34:53.746Z</time>
      </trkpt>
      <trkpt lat="46.96277" lon="8.58903">
        <ele>848</ele>
        <time>2021-08-10T09:34:54.745Z</time>
      </trkpt>
      <trkpt lat="46.96276" lon="8.58903">
        <ele>847</ele>
        <time>2021-08-10T09:34:55.745Z</time>
      </trkpt>
      <trkpt lat="46.96274" lon="8.58905">
        <ele>847</ele>
        <time>2021-08-10T09:34:56.745Z</time>
      </trkpt>
      <trkpt lat="46.96275" lon="8.58905">
        <ele>846</ele>
        <time>2021-08-10T09:34:57.746Z</time>
      </trkpt>
      <trkpt lat="46.96276" lon="8.58905">
        <ele>845</ele>
        <time>2021-08-10T09:34:58.746Z</time>
      </trkpt>
      <trkpt lat="46.96276" lon="8.58905">
        <ele>845</ele>
        <time>2021-08-10T09:34:59.745Z</time>
      </trkpt>
      <trkpt lat="46.96276" lon="8.58904">
        <ele>844</ele>
        <time>2021-08-10T09:35:00.746Z</time>
      </trkpt>
      <trkpt lat="46.96276" lon="8.58904">
        <ele>843</ele>
        <time>2021-08-10T09:35:01.746Z</time>
      </trkpt>
      <trkpt lat="46.96276" lon="8.58904">
        <ele>843</ele>
        <time>2021-08-10T09:35:02.746Z</time>
      </trkpt>
      <trkpt lat="46.96276" lon="8.58905">
        <ele>842</ele>
        <time>2021-08-10T09:35:03.746Z</time>
      </trkpt>
      <trkpt lat="46.96275" lon="8.58906">
        <ele>841</ele>
        <time>2021-08-10T09:35:04.745Z</time>
      </trkpt>
      <trkpt lat="46.96274" lon="8.58906">
        <ele>841</ele>
        <time>2021-08-10T09:35:05.746Z</time>
      </trkpt>
      <trkpt lat="46.96274" lon="8.58911">
        <ele>842</ele>
        <time>2021-08-10T09:35:06.746Z</time>
      </trkpt>
      <trkpt lat="46.96274" lon="8.58911">
        <ele>843</ele>
        <time>2021-08-10T09:35:07.747Z</time>
      </trkpt>
      <trkpt lat="46.96274" lon="8.58911">
        <ele>843</ele>
        <time>2021-08-10T09:35:08.747Z</time>
      </trkpt>
      <trkpt lat="46.96273" lon="8.58911">
        <ele>843</ele>
        <time>2021-08-10T09:35:09.746Z</time>
      </trkpt>
      <trkpt lat="46.96275" lon="8.5891">
        <ele>843</ele>
        <time>2021-08-10T09:35:10.748Z</time>
      </trkpt>
      <trkpt lat="46.96275" lon="8.5891">
        <ele>843</ele>
        <time>2021-08-10T09:35:11.747Z</time>
      </trkpt>
      <trkpt lat="46.96275" lon="8.5891">
        <ele>843</ele>
        <time>2021-08-10T09:35:12.747Z</time>
      </trkpt>
      <trkpt lat="46.96275" lon="8.5891">
        <ele>843</ele>
        <time>2021-08-10T09:35:13.747Z</time>
      </trkpt>
      <trkpt lat="46.96275" lon="8.5891">
        <ele>843</ele>
        <time>2021-08-10T09:35:14.748Z</time>
      </trkpt>
      <trkpt lat="46.96275" lon="8.58909">
        <ele>843</ele>
        <time>2021-08-10T09:35:15.747Z</time>
      </trkpt>
      <trkpt lat="46.96275" lon="8.58909">
        <ele>843</ele>
        <time>2021-08-10T09:35:16.748Z</time>
      </trkpt>
      <trkpt lat="46.96275" lon="8.58909">
        <ele>843</ele>
        <time>2021-08-10T09:35:17.747Z</time>
      </trkpt>
      <trkpt lat="46.96275" lon="8.58909">
        <ele>843</ele>
        <time>2021-08-10T09:35:18.747Z</time>
      </trkpt>
      <trkpt lat="46.96275" lon="8.58908">
        <ele>843</ele>
        <time>2021-08-10T09:35:19.747Z</time>
      </trkpt>
      <trkpt lat="46.96275" lon="8.58907">
        <ele>843</ele>
        <time>2021-08-10T09:35:20.747Z</time>
      </trkpt>
      <trkpt lat="46.96273" lon="8.58907">
        <ele>845</ele>
        <time>2021-08-10T09:35:21.748Z</time>
      </trkpt>
      <trkpt lat="46.96272" lon="8.58906">
        <ele>846</ele>
        <time>2021-08-10T09:35:22.748Z</time>
      </trkpt>
      <trkpt lat="46.96272" lon="8.58906">
        <ele>846</ele>
        <time>2021-08-10T09:35:23.748Z</time>
      </trkpt>
      <trkpt lat="46.96269" lon="8.58908">
        <ele>850</ele>
        <time>2021-08-10T09:35:24.748Z</time>
      </trkpt>
      <trkpt lat="46.96268" lon="8.58909">
        <ele>851</ele>
        <time>2021-08-10T09:35:25.747Z</time>
      </trkpt>
      <trkpt lat="46.96268" lon="8.58909">
        <ele>853</ele>
        <time>2021-08-10T09:35:26.747Z</time>
      </trkpt>
      <trkpt lat="46.96267" lon="8.58908">
        <ele>854</ele>
        <time>2021-08-10T09:35:27.747Z</time>
      </trkpt>
      <trkpt lat="46.96267" lon="8.58908">
        <ele>855</ele>
        <time>2021-08-10T09:35:28.747Z</time>
      </trkpt>
      <trkpt lat="46.96265" lon="8.58904">
        <ele>860</ele>
        <time>2021-08-10T09:35:29.747Z</time>
      </trkpt>
      <trkpt lat="46.96264" lon="8.58903">
        <ele>861</ele>
        <time>2021-08-10T09:35:30.747Z</time>
      </trkpt>
      <trkpt lat="46.96263" lon="8.58902">
        <ele>861</ele>
        <time>2021-08-10T09:35:31.748Z</time>
      </trkpt>
      <trkpt lat="46.96262" lon="8.58901">
        <ele>861</ele>
        <time>2021-08-10T09:35:32.748Z</time>
      </trkpt>
      <trkpt lat="46.96261" lon="8.58901">
        <ele>861</ele>
        <time>2021-08-10T09:35:33.748Z</time>
      </trkpt>
      <trkpt lat="46.96261" lon="8.589">
        <ele>861</ele>
        <time>2021-08-10T09:35:34.748Z</time>
      </trkpt>
      <trkpt lat="46.96261" lon="8.58898">
        <ele>861</ele>
        <time>2021-08-10T09:35:35.747Z</time>
      </trkpt>
      <trkpt lat="46.96262" lon="8.58896">
        <ele>860</ele>
        <time>2021-08-10T09:35:36.747Z</time>
      </trkpt>
      <trkpt lat="46.96262" lon="8.58894">
        <ele>860</ele>
        <time>2021-08-10T09:35:37.748Z</time>
      </trkpt>
      <trkpt lat="46.96262" lon="8.58893">
        <ele>860</ele>
        <time>2021-08-10T09:35:38.748Z</time>
      </trkpt>
      <trkpt lat="46.96261" lon="8.58893">
        <ele>859</ele>
        <time>2021-08-10T09:35:39.748Z</time>
      </trkpt>
      <trkpt lat="46.96261" lon="8.58893">
        <ele>859</ele>
        <time>2021-08-10T09:35:40.747Z</time>
      </trkpt>
      <trkpt lat="46.9626" lon="8.58893">
        <ele>858</ele>
        <time>2021-08-10T09:35:41.748Z</time>
      </trkpt>
      <trkpt lat="46.9626" lon="8.58893">
        <ele>858</ele>
        <time>2021-08-10T09:35:42.748Z</time>
      </trkpt>
      <trkpt lat="46.96259" lon="8.58893">
        <ele>858</ele>
        <time>2021-08-10T09:35:43.747Z</time>
      </trkpt>
      <trkpt lat="46.96258" lon="8.58893">
        <ele>857</ele>
        <time>2021-08-10T09:35:44.747Z</time>
      </trkpt>
      <trkpt lat="46.96258" lon="8.58893">
        <ele>857</ele>
        <time>2021-08-10T09:35:45.748Z</time>
      </trkpt>
      <trkpt lat="46.96257" lon="8.58893">
        <ele>857</ele>
        <time>2021-08-10T09:35:46.748Z</time>
      </trkpt>
      <trkpt lat="46.96256" lon="8.58893">
        <ele>856</ele>
        <time>2021-08-10T09:35:47.748Z</time>
      </trkpt>
      <trkpt lat="46.96255" lon="8.58893">
        <ele>856</ele>
        <time>2021-08-10T09:35:48.748Z</time>
      </trkpt>
      <trkpt lat="46.96254" lon="8.58892">
        <ele>856</ele>
        <time>2021-08-10T09:35:49.747Z</time>
      </trkpt>
      <trkpt lat="46.96253" lon="8.58892">
        <ele>856</ele>
        <time>2021-08-10T09:35:50.748Z</time>
      </trkpt>
      <trkpt lat="46.96252" lon="8.58891">
        <ele>856</ele>
        <time>2021-08-10T09:35:51.747Z</time>
      </trkpt>
      <trkpt lat="46.96251" lon="8.5889">
        <ele>856</ele>
        <time>2021-08-10T09:35:52.748Z</time>
      </trkpt>
      <trkpt lat="46.96249" lon="8.58889">
        <ele>857</ele>
        <time>2021-08-10T09:35:53.748Z</time>
      </trkpt>
      <trkpt lat="46.96248" lon="8.58889">
        <ele>857</ele>
        <time>2021-08-10T09:35:54.747Z</time>
      </trkpt>
      <trkpt lat="46.96247" lon="8.58889">
        <ele>857</ele>
        <time>2021-08-10T09:35:55.748Z</time>
      </trkpt>
      <trkpt lat="46.96246" lon="8.58888">
        <ele>857</ele>
        <time>2021-08-10T09:35:56.747Z</time>
      </trkpt>
      <trkpt lat="46.96245" lon="8.58886">
        <ele>857</ele>
        <time>2021-08-10T09:35:57.747Z</time>
      </trkpt>
      <trkpt lat="46.96244" lon="8.58881">
        <ele>859</ele>
        <time>2021-08-10T09:35:58.747Z</time>
      </trkpt>
      <trkpt lat="46.96245" lon="8.58883">
        <ele>859</ele>
        <time>2021-08-10T09:35:59.747Z</time>
      </trkpt>
      <trkpt lat="46.96246" lon="8.58884">
        <ele>859</ele>
        <time>2021-08-10T09:36:00.748Z</time>
      </trkpt>
      <trkpt lat="46.96246" lon="8.58884">
        <ele>857</ele>
        <time>2021-08-10T09:36:01.748Z</time>
      </trkpt>
      <trkpt lat="46.96245" lon="8.58884">
        <ele>857</ele>
        <time>2021-08-10T09:36:02.748Z</time>
      </trkpt>
      <trkpt lat="46.96245" lon="8.58884">
        <ele>856</ele>
        <time>2021-08-10T09:36:03.747Z</time>
      </trkpt>
      <trkpt lat="46.96245" lon="8.58884">
        <ele>856</ele>
        <time>2021-08-10T09:36:04.748Z</time>
      </trkpt>
      <trkpt lat="46.96246" lon="8.58884">
        <ele>856</ele>
        <time>2021-08-10T09:36:05.748Z</time>
      </trkpt>
      <trkpt lat="46.96247" lon="8.58883">
        <ele>853</ele>
        <time>2021-08-10T09:36:06.749Z</time>
      </trkpt>
      <trkpt lat="46.96246" lon="8.58883">
        <ele>853</ele>
        <time>2021-08-10T09:36:07.750Z</time>
      </trkpt>
      <trkpt lat="46.96245" lon="8.58883">
        <ele>853</ele>
        <time>2021-08-10T09:36:08.749Z</time>
      </trkpt>
      <trkpt lat="46.96244" lon="8.58882">
        <ele>853</ele>
        <time>2021-08-10T09:36:09.749Z</time>
      </trkpt>
      <trkpt lat="46.96242" lon="8.58882">
        <ele>854</ele>
        <time>2021-08-10T09:36:10.750Z</time>
      </trkpt>
      <trkpt lat="46.96241" lon="8.58882">
        <ele>854</ele>
        <time>2021-08-10T09:36:11.749Z</time>
      </trkpt>
      <trkpt lat="46.9624" lon="8.58882">
        <ele>855</ele>
        <time>2021-08-10T09:36:12.750Z</time>
      </trkpt>
      <trkpt lat="46.96239" lon="8.58881">
        <ele>855</ele>
        <time>2021-08-10T09:36:13.750Z</time>
      </trkpt>
      <trkpt lat="46.96238" lon="8.5888">
        <ele>856</ele>
        <time>2021-08-10T09:36:14.750Z</time>
      </trkpt>
      <trkpt lat="46.96236" lon="8.58879">
        <ele>857</ele>
        <time>2021-08-10T09:36:15.749Z</time>
      </trkpt>
      <trkpt lat="46.96235" lon="8.58879">
        <ele>858</ele>
        <time>2021-08-10T09:36:16.750Z</time>
      </trkpt>
      <trkpt lat="46.96234" lon="8.58878">
        <ele>859</ele>
        <time>2021-08-10T09:36:17.749Z</time>
      </trkpt>
      <trkpt lat="46.96233" lon="8.58878">
        <ele>859</ele>
        <time>2021-08-10T09:36:18.750Z</time>
      </trkpt>
      <trkpt lat="46.96232" lon="8.58877">
        <ele>860</ele>
        <time>2021-08-10T09:36:19.750Z</time>
      </trkpt>
      <trkpt lat="46.9623" lon="8.58876">
        <ele>861</ele>
        <time>2021-08-10T09:36:20.749Z</time>
      </trkpt>
      <trkpt lat="46.96229" lon="8.58876">
        <ele>862</ele>
        <time>2021-08-10T09:36:21.749Z</time>
      </trkpt>
      <trkpt lat="46.96226" lon="8.58875">
        <ele>862</ele>
        <time>2021-08-10T09:36:22.750Z</time>
      </trkpt>
      <trkpt lat="46.96224" lon="8.58874">
        <ele>863</ele>
        <time>2021-08-10T09:36:23.750Z</time>
      </trkpt>
      <trkpt lat="46.96223" lon="8.58874">
        <ele>864</ele>
        <time>2021-08-10T09:36:24.750Z</time>
      </trkpt>
      <trkpt lat="46.96222" lon="8.58874">
        <ele>865</ele>
        <time>2021-08-10T09:36:25.750Z</time>
      </trkpt>
      <trkpt lat="46.96222" lon="8.58874">
        <ele>865</ele>
        <time>2021-08-10T09:36:26.750Z</time>
      </trkpt>
      <trkpt lat="46.96221" lon="8.58874">
        <ele>865</ele>
        <time>2021-08-10T09:36:27.750Z</time>
      </trkpt>
      <trkpt lat="46.9622" lon="8.58874">
        <ele>865</ele>
        <time>2021-08-10T09:36:28.749Z</time>
      </trkpt>
      <trkpt lat="46.96219" lon="8.58874">
        <ele>864</ele>
        <time>2021-08-10T09:36:29.749Z</time>
      </trkpt>
      <trkpt lat="46.96219" lon="8.58873">
        <ele>864</ele>
        <time>2021-08-10T09:36:30.750Z</time>
      </trkpt>
      <trkpt lat="46.96218" lon="8.58872">
        <ele>863</ele>
        <time>2021-08-10T09:36:31.750Z</time>
      </trkpt>
      <trkpt lat="46.96217" lon="8.58871">
        <ele>862</ele>
        <time>2021-08-10T09:36:32.749Z</time>
      </trkpt>
      <trkpt lat="46.96216" lon="8.58871">
        <ele>862</ele>
        <time>2021-08-10T09:36:33.750Z</time>
      </trkpt>
      <trkpt lat="46.96215" lon="8.58871">
        <ele>861</ele>
        <time>2021-08-10T09:36:34.750Z</time>
      </trkpt>
      <trkpt lat="46.96215" lon="8.58871">
        <ele>860</ele>
        <time>2021-08-10T09:36:35.750Z</time>
      </trkpt>
      <trkpt lat="46.96215" lon="8.58871">
        <ele>860</ele>
        <time>2021-08-10T09:36:36.750Z</time>
      </trkpt>
      <trkpt lat="46.96213" lon="8.58872">
        <ele>849</ele>
        <time>2021-08-10T09:36:37.750Z</time>
      </trkpt>
      <trkpt lat="46.96213" lon="8.58871">
        <ele>848</ele>
        <time>2021-08-10T09:36:38.750Z</time>
      </trkpt>
      <trkpt lat="46.96212" lon="8.58871">
        <ele>848</ele>
        <time>2021-08-10T09:36:39.749Z</time>
      </trkpt>
      <trkpt lat="46.96212" lon="8.58871">
        <ele>848</ele>
        <time>2021-08-10T09:36:40.750Z</time>
      </trkpt>
      <trkpt lat="46.96212" lon="8.58871">
        <ele>848</ele>
        <time>2021-08-10T09:36:41.750Z</time>
      </trkpt>
      <trkpt lat="46.96211" lon="8.58872">
        <ele>848</ele>
        <time>2021-08-10T09:36:42.750Z</time>
      </trkpt>
      <trkpt lat="46.9621" lon="8.58871">
        <ele>848</ele>
        <time>2021-08-10T09:36:43.749Z</time>
      </trkpt>
      <trkpt lat="46.9621" lon="8.58871">
        <ele>848</ele>
        <time>2021-08-10T09:36:44.750Z</time>
      </trkpt>
      <trkpt lat="46.96209" lon="8.58871">
        <ele>847</ele>
        <time>2021-08-10T09:36:45.750Z</time>
      </trkpt>
      <trkpt lat="46.96209" lon="8.58871">
        <ele>847</ele>
        <time>2021-08-10T09:36:46.750Z</time>
      </trkpt>
      <trkpt lat="46.96208" lon="8.58871">
        <ele>847</ele>
        <time>2021-08-10T09:36:47.749Z</time>
      </trkpt>
      <trkpt lat="46.96207" lon="8.58871">
        <ele>846</ele>
        <time>2021-08-10T09:36:48.750Z</time>
      </trkpt>
      <trkpt lat="46.96206" lon="8.58871">
        <ele>846</ele>
        <time>2021-08-10T09:36:49.750Z</time>
      </trkpt>
      <trkpt lat="46.96205" lon="8.5887">
        <ele>845</ele>
        <time>2021-08-10T09:36:50.750Z</time>
      </trkpt>
      <trkpt lat="46.96204" lon="8.58868">
        <ele>845</ele>
        <time>2021-08-10T09:36:51.750Z</time>
      </trkpt>
      <trkpt lat="46.96203" lon="8.58866">
        <ele>845</ele>
        <time>2021-08-10T09:36:52.750Z</time>
      </trkpt>
      <trkpt lat="46.96202" lon="8.58865">
        <ele>845</ele>
        <time>2021-08-10T09:36:53.749Z</time>
      </trkpt>
      <trkpt lat="46.96201" lon="8.58863">
        <ele>845</ele>
        <time>2021-08-10T09:36:54.750Z</time>
      </trkpt>
      <trkpt lat="46.962" lon="8.58863">
        <ele>846</ele>
        <time>2021-08-10T09:36:55.749Z</time>
      </trkpt>
      <trkpt lat="46.96199" lon="8.58861">
        <ele>846</ele>
        <time>2021-08-10T09:36:56.749Z</time>
      </trkpt>
      <trkpt lat="46.96198" lon="8.5886">
        <ele>847</ele>
        <time>2021-08-10T09:36:57.750Z</time>
      </trkpt>
      <trkpt lat="46.96197" lon="8.58859">
        <ele>847</ele>
        <time>2021-08-10T09:36:58.750Z</time>
      </trkpt>
      <trkpt lat="46.96196" lon="8.58858">
        <ele>848</ele>
        <time>2021-08-10T09:36:59.750Z</time>
      </trkpt>
      <trkpt lat="46.96195" lon="8.58855">
        <ele>848</ele>
        <time>2021-08-10T09:37:00.749Z</time>
      </trkpt>
      <trkpt lat="46.96194" lon="8.58854">
        <ele>849</ele>
        <time>2021-08-10T09:37:01.749Z</time>
      </trkpt>
      <trkpt lat="46.96193" lon="8.58853">
        <ele>849</ele>
        <time>2021-08-10T09:37:02.750Z</time>
      </trkpt>
      <trkpt lat="46.96193" lon="8.58852">
        <ele>850</ele>
        <time>2021-08-10T09:37:03.750Z</time>
      </trkpt>
      <trkpt lat="46.96192" lon="8.58851">
        <ele>850</ele>
        <time>2021-08-10T09:37:04.750Z</time>
      </trkpt>
      <trkpt lat="46.96191" lon="8.58851">
        <ele>850</ele>
        <time>2021-08-10T09:37:05.750Z</time>
      </trkpt>
      <trkpt lat="46.9619" lon="8.58851">
        <ele>850</ele>
        <time>2021-08-10T09:37:06.750Z</time>
      </trkpt>
      <trkpt lat="46.9619" lon="8.5885">
        <ele>850</ele>
        <time>2021-08-10T09:37:07.750Z</time>
      </trkpt>
      <trkpt lat="46.96189" lon="8.5885">
        <ele>850</ele>
        <time>2021-08-10T09:37:08.749Z</time>
      </trkpt>
      <trkpt lat="46.96189" lon="8.58849">
        <ele>850</ele>
        <time>2021-08-10T09:37:09.750Z</time>
      </trkpt>
      <trkpt lat="46.96188" lon="8.58849">
        <ele>850</ele>
        <time>2021-08-10T09:37:10.750Z</time>
      </trkpt>
      <trkpt lat="46.96188" lon="8.58849">
        <ele>850</ele>
        <time>2021-08-10T09:37:11.749Z</time>
      </trkpt>
      <trkpt lat="46.96188" lon="8.58849">
        <ele>850</ele>
        <time>2021-08-10T09:37:12.750Z</time>
      </trkpt>
      <trkpt lat="46.96187" lon="8.58848">
        <ele>850</ele>
        <time>2021-08-10T09:37:13.750Z</time>
      </trkpt>
      <trkpt lat="46.96186" lon="8.58848">
        <ele>850</ele>
        <time>2021-08-10T09:37:14.750Z</time>
      </trkpt>
      <trkpt lat="46.96186" lon="8.58847">
        <ele>850</ele>
        <time>2021-08-10T09:37:15.750Z</time>
      </trkpt>
      <trkpt lat="46.96185" lon="8.58846">
        <ele>850</ele>
        <time>2021-08-10T09:37:16.750Z</time>
      </trkpt>
      <trkpt lat="46.96184" lon="8.58846">
        <ele>850</ele>
        <time>2021-08-10T09:37:17.750Z</time>
      </trkpt>
      <trkpt lat="46.96183" lon="8.58843">
        <ele>850</ele>
        <time>2021-08-10T09:37:18.750Z</time>
      </trkpt>
      <trkpt lat="46.96183" lon="8.58841">
        <ele>850</ele>
        <time>2021-08-10T09:37:19.750Z</time>
      </trkpt>
      <trkpt lat="46.96182" lon="8.58839">
        <ele>850</ele>
        <time>2021-08-10T09:37:20.750Z</time>
      </trkpt>
      <trkpt lat="46.96181" lon="8.58837">
        <ele>849</ele>
        <time>2021-08-10T09:37:21.750Z</time>
      </trkpt>
      <trkpt lat="46.96181" lon="8.58837">
        <ele>849</ele>
        <time>2021-08-10T09:37:22.750Z</time>
      </trkpt>
      <trkpt lat="46.9618" lon="8.58836">
        <ele>849</ele>
        <time>2021-08-10T09:37:23.750Z</time>
      </trkpt>
      <trkpt lat="46.9618" lon="8.58836">
        <ele>849</ele>
        <time>2021-08-10T09:37:24.750Z</time>
      </trkpt>
      <trkpt lat="46.96179" lon="8.58835">
        <ele>848</ele>
        <time>2021-08-10T09:37:25.750Z</time>
      </trkpt>
      <trkpt lat="46.96178" lon="8.58835">
        <ele>848</ele>
        <time>2021-08-10T09:37:26.749Z</time>
      </trkpt>
      <trkpt lat="46.96177" lon="8.58834">
        <ele>847</ele>
        <time>2021-08-10T09:37:27.750Z</time>
      </trkpt>
      <trkpt lat="46.96176" lon="8.58833">
        <ele>847</ele>
        <time>2021-08-10T09:37:28.750Z</time>
      </trkpt>
      <trkpt lat="46.96175" lon="8.58832">
        <ele>847</ele>
        <time>2021-08-10T09:37:29.749Z</time>
      </trkpt>
      <trkpt lat="46.96173" lon="8.5883">
        <ele>846</ele>
        <time>2021-08-10T09:37:30.750Z</time>
      </trkpt>
      <trkpt lat="46.96172" lon="8.58829">
        <ele>846</ele>
        <time>2021-08-10T09:37:31.750Z</time>
      </trkpt>
      <trkpt lat="46.9617" lon="8.58828">
        <ele>845</ele>
        <time>2021-08-10T09:37:32.750Z</time>
      </trkpt>
      <trkpt lat="46.96169" lon="8.58827">
        <ele>844</ele>
        <time>2021-08-10T09:37:33.749Z</time>
      </trkpt>
      <trkpt lat="46.96168" lon="8.58826">
        <ele>844</ele>
        <time>2021-08-10T09:37:34.749Z</time>
      </trkpt>
      <trkpt lat="46.96167" lon="8.58825">
        <ele>844</ele>
        <time>2021-08-10T09:37:35.750Z</time>
      </trkpt>
      <trkpt lat="46.96167" lon="8.58824">
        <ele>843</ele>
        <time>2021-08-10T09:37:36.750Z</time>
      </trkpt>
      <trkpt lat="46.96168" lon="8.58825">
        <ele>843</ele>
        <time>2021-08-10T09:37:37.750Z</time>
      </trkpt>
      <trkpt lat="46.96169" lon="8.58825">
        <ele>843</ele>
        <time>2021-08-10T09:37:38.750Z</time>
      </trkpt>
      <trkpt lat="46.96169" lon="8.58825">
        <ele>842</ele>
        <time>2021-08-10T09:37:39.750Z</time>
      </trkpt>
      <trkpt lat="46.96169" lon="8.58825">
        <ele>842</ele>
        <time>2021-08-10T09:37:40.750Z</time>
      </trkpt>
      <trkpt lat="46.9617" lon="8.58825">
        <ele>846</ele>
        <time>2021-08-10T09:37:41.750Z</time>
      </trkpt>
      <trkpt lat="46.9617" lon="8.58825">
        <ele>847</ele>
        <time>2021-08-10T09:37:42.749Z</time>
      </trkpt>
      <trkpt lat="46.96168" lon="8.58823">
        <ele>847</ele>
        <time>2021-08-10T09:37:43.750Z</time>
      </trkpt>
      <trkpt lat="46.96167" lon="8.58823">
        <ele>848</ele>
        <time>2021-08-10T09:37:44.749Z</time>
      </trkpt>
      <trkpt lat="46.96167" lon="8.58824">
        <ele>848</ele>
        <time>2021-08-10T09:37:45.749Z</time>
      </trkpt>
      <trkpt lat="46.96165" lon="8.58822">
        <ele>845</ele>
        <time>2021-08-10T09:37:46.750Z</time>
      </trkpt>
      <trkpt lat="46.96165" lon="8.58821">
        <ele>845</ele>
        <time>2021-08-10T09:37:47.749Z</time>
      </trkpt>
      <trkpt lat="46.96165" lon="8.58819">
        <ele>844</ele>
        <time>2021-08-10T09:37:48.749Z</time>
      </trkpt>
      <trkpt lat="46.96165" lon="8.58818">
        <ele>844</ele>
        <time>2021-08-10T09:37:49.749Z</time>
      </trkpt>
      <trkpt lat="46.96165" lon="8.58816">
        <ele>843</ele>
        <time>2021-08-10T09:37:50.749Z</time>
      </trkpt>
      <trkpt lat="46.96165" lon="8.58815">
        <ele>843</ele>
        <time>2021-08-10T09:37:51.749Z</time>
      </trkpt>
      <trkpt lat="46.96165" lon="8.58814">
        <ele>843</ele>
        <time>2021-08-10T09:37:52.749Z</time>
      </trkpt>
      <trkpt lat="46.96164" lon="8.58812">
        <ele>843</ele>
        <time>2021-08-10T09:37:53.750Z</time>
      </trkpt>
      <trkpt lat="46.96163" lon="8.58811">
        <ele>842</ele>
        <time>2021-08-10T09:37:54.750Z</time>
      </trkpt>
      <trkpt lat="46.96163" lon="8.5881">
        <ele>843</ele>
        <time>2021-08-10T09:37:55.749Z</time>
      </trkpt>
      <trkpt lat="46.96163" lon="8.5881">
        <ele>843</ele>
        <time>2021-08-10T09:37:56.749Z</time>
      </trkpt>
      <trkpt lat="46.96164" lon="8.5881">
        <ele>845</ele>
        <time>2021-08-10T09:37:57.750Z</time>
      </trkpt>
      <trkpt lat="46.96164" lon="8.58811">
        <ele>845</ele>
        <time>2021-08-10T09:37:58.750Z</time>
      </trkpt>
      <trkpt lat="46.96164" lon="8.5881">
        <ele>845</ele>
        <time>2021-08-10T09:37:59.749Z</time>
      </trkpt>
      <trkpt lat="46.96164" lon="8.5881">
        <ele>845</ele>
        <time>2021-08-10T09:38:00.749Z</time>
      </trkpt>
      <trkpt lat="46.96165" lon="8.58809">
        <ele>845</ele>
        <time>2021-08-10T09:38:01.749Z</time>
      </trkpt>
      <trkpt lat="46.96166" lon="8.58809">
        <ele>845</ele>
        <time>2021-08-10T09:38:02.749Z</time>
      </trkpt>
      <trkpt lat="46.96166" lon="8.58809">
        <ele>844</ele>
        <time>2021-08-10T09:38:03.750Z</time>
      </trkpt>
      <trkpt lat="46.96167" lon="8.58808">
        <ele>844</ele>
        <time>2021-08-10T09:38:04.750Z</time>
      </trkpt>
      <trkpt lat="46.96167" lon="8.58807">
        <ele>843</ele>
        <time>2021-08-10T09:38:05.750Z</time>
      </trkpt>
      <trkpt lat="46.96168" lon="8.58806">
        <ele>843</ele>
        <time>2021-08-10T09:38:06.749Z</time>
      </trkpt>
      <trkpt lat="46.96168" lon="8.58805">
        <ele>842</ele>
        <time>2021-08-10T09:38:07.750Z</time>
      </trkpt>
      <trkpt lat="46.96168" lon="8.58803">
        <ele>842</ele>
        <time>2021-08-10T09:38:08.749Z</time>
      </trkpt>
      <trkpt lat="46.96169" lon="8.58802">
        <ele>841</ele>
        <time>2021-08-10T09:38:09.750Z</time>
      </trkpt>
      <trkpt lat="46.96169" lon="8.58801">
        <ele>840</ele>
        <time>2021-08-10T09:38:10.750Z</time>
      </trkpt>
      <trkpt lat="46.9617" lon="8.58799">
        <ele>840</ele>
        <time>2021-08-10T09:38:11.750Z</time>
      </trkpt>
      <trkpt lat="46.9617" lon="8.58798">
        <ele>839</ele>
        <time>2021-08-10T09:38:12.750Z</time>
      </trkpt>
      <trkpt lat="46.9617" lon="8.58796">
        <ele>838</ele>
        <time>2021-08-10T09:38:13.750Z</time>
      </trkpt>
      <trkpt lat="46.9617" lon="8.58795">
        <ele>838</ele>
        <time>2021-08-10T09:38:14.750Z</time>
      </trkpt>
      <trkpt lat="46.9617" lon="8.58793">
        <ele>837</ele>
        <time>2021-08-10T09:38:15.750Z</time>
      </trkpt>
      <trkpt lat="46.9617" lon="8.58792">
        <ele>836</ele>
        <time>2021-08-10T09:38:16.749Z</time>
      </trkpt>
      <trkpt lat="46.96171" lon="8.58791">
        <ele>835</ele>
        <time>2021-08-10T09:38:17.749Z</time>
      </trkpt>
      <trkpt lat="46.96171" lon="8.5879">
        <ele>835</ele>
        <time>2021-08-10T09:38:18.749Z</time>
      </trkpt>
      <trkpt lat="46.96172" lon="8.58788">
        <ele>834</ele>
        <time>2021-08-10T09:38:19.750Z</time>
      </trkpt>
      <trkpt lat="46.96173" lon="8.58787">
        <ele>834</ele>
        <time>2021-08-10T09:38:20.750Z</time>
      </trkpt>
      <trkpt lat="46.96174" lon="8.58785">
        <ele>833</ele>
        <time>2021-08-10T09:38:21.750Z</time>
      </trkpt>
      <trkpt lat="46.96175" lon="8.58784">
        <ele>833</ele>
        <time>2021-08-10T09:38:22.750Z</time>
      </trkpt>
      <trkpt lat="46.96175" lon="8.58782">
        <ele>833</ele>
        <time>2021-08-10T09:38:23.750Z</time>
      </trkpt>
      <trkpt lat="46.96176" lon="8.58781">
        <ele>832</ele>
        <time>2021-08-10T09:38:24.750Z</time>
      </trkpt>
      <trkpt lat="46.96176" lon="8.5878">
        <ele>832</ele>
        <time>2021-08-10T09:38:25.749Z</time>
      </trkpt>
      <trkpt lat="46.96176" lon="8.58779">
        <ele>832</ele>
        <time>2021-08-10T09:38:26.749Z</time>
      </trkpt>
      <trkpt lat="46.96177" lon="8.58778">
        <ele>831</ele>
        <time>2021-08-10T09:38:27.749Z</time>
      </trkpt>
      <trkpt lat="46.96178" lon="8.58776">
        <ele>831</ele>
        <time>2021-08-10T09:38:28.750Z</time>
      </trkpt>
      <trkpt lat="46.96178" lon="8.58774">
        <ele>831</ele>
        <time>2021-08-10T09:38:29.749Z</time>
      </trkpt>
      <trkpt lat="46.96179" lon="8.58772">
        <ele>831</ele>
        <time>2021-08-10T09:38:30.750Z</time>
      </trkpt>
      <trkpt lat="46.9618" lon="8.5877">
        <ele>831</ele>
        <time>2021-08-10T09:38:31.750Z</time>
      </trkpt>
      <trkpt lat="46.9618" lon="8.58768">
        <ele>831</ele>
        <time>2021-08-10T09:38:32.749Z</time>
      </trkpt>
      <trkpt lat="46.9618" lon="8.58767">
        <ele>831</ele>
        <time>2021-08-10T09:38:33.750Z</time>
      </trkpt>
      <trkpt lat="46.9618" lon="8.58765">
        <ele>831</ele>
        <time>2021-08-10T09:38:34.749Z</time>
      </trkpt>
      <trkpt lat="46.9618" lon="8.58764">
        <ele>831</ele>
        <time>2021-08-10T09:38:35.749Z</time>
      </trkpt>
      <trkpt lat="46.9618" lon="8.58762">
        <ele>830</ele>
        <time>2021-08-10T09:38:36.749Z</time>
      </trkpt>
      <trkpt lat="46.96181" lon="8.5876">
        <ele>830</ele>
        <time>2021-08-10T09:38:37.749Z</time>
      </trkpt>
      <trkpt lat="46.9618" lon="8.58758">
        <ele>830</ele>
        <time>2021-08-10T09:38:38.750Z</time>
      </trkpt>
      <trkpt lat="46.96181" lon="8.58756">
        <ele>831</ele>
        <time>2021-08-10T09:38:39.749Z</time>
      </trkpt>
      <trkpt lat="46.9618" lon="8.58754">
        <ele>831</ele>
        <time>2021-08-10T09:38:40.750Z</time>
      </trkpt>
      <trkpt lat="46.9618" lon="8.58752">
        <ele>832</ele>
        <time>2021-08-10T09:38:41.750Z</time>
      </trkpt>
      <trkpt lat="46.9618" lon="8.5875">
        <ele>832</ele>
        <time>2021-08-10T09:38:42.750Z</time>
      </trkpt>
      <trkpt lat="46.96179" lon="8.58749">
        <ele>833</ele>
        <time>2021-08-10T09:38:43.750Z</time>
      </trkpt>
      <trkpt lat="46.96179" lon="8.58746">
        <ele>833</ele>
        <time>2021-08-10T09:38:44.750Z</time>
      </trkpt>
      <trkpt lat="46.96178" lon="8.58743">
        <ele>834</ele>
        <time>2021-08-10T09:38:45.750Z</time>
      </trkpt>
      <trkpt lat="46.96177" lon="8.58741">
        <ele>835</ele>
        <time>2021-08-10T09:38:46.750Z</time>
      </trkpt>
      <trkpt lat="46.96176" lon="8.58739">
        <ele>836</ele>
        <time>2021-08-10T09:38:47.750Z</time>
      </trkpt>
      <trkpt lat="46.96175" lon="8.58735">
        <ele>837</ele>
        <time>2021-08-10T09:38:48.749Z</time>
      </trkpt>
      <trkpt lat="46.96173" lon="8.58733">
        <ele>838</ele>
        <time>2021-08-10T09:38:49.750Z</time>
      </trkpt>
      <trkpt lat="46.96171" lon="8.58731">
        <ele>838</ele>
        <time>2021-08-10T09:38:50.750Z</time>
      </trkpt>
      <trkpt lat="46.96171" lon="8.58729">
        <ele>839</ele>
        <time>2021-08-10T09:38:51.749Z</time>
      </trkpt>
      <trkpt lat="46.9617" lon="8.58727">
        <ele>840</ele>
        <time>2021-08-10T09:38:52.749Z</time>
      </trkpt>
      <trkpt lat="46.96169" lon="8.58725">
        <ele>841</ele>
        <time>2021-08-10T09:38:53.749Z</time>
      </trkpt>
      <trkpt lat="46.96169" lon="8.58725">
        <ele>841</ele>
        <time>2021-08-10T09:38:54.750Z</time>
      </trkpt>
      <trkpt lat="46.96169" lon="8.58725">
        <ele>840</ele>
        <time>2021-08-10T09:38:55.750Z</time>
      </trkpt>
      <trkpt lat="46.96168" lon="8.58724">
        <ele>840</ele>
        <time>2021-08-10T09:38:56.750Z</time>
      </trkpt>
      <trkpt lat="46.96167" lon="8.58723">
        <ele>839</ele>
        <time>2021-08-10T09:38:57.749Z</time>
      </trkpt>
      <trkpt lat="46.96167" lon="8.58721">
        <ele>838</ele>
        <time>2021-08-10T09:38:58.749Z</time>
      </trkpt>
      <trkpt lat="46.96166" lon="8.58719">
        <ele>837</ele>
        <time>2021-08-10T09:38:59.750Z</time>
      </trkpt>
      <trkpt lat="46.96166" lon="8.58718">
        <ele>836</ele>
        <time>2021-08-10T09:39:00.750Z</time>
      </trkpt>
      <trkpt lat="46.96165" lon="8.58717">
        <ele>836</ele>
        <time>2021-08-10T09:39:01.750Z</time>
      </trkpt>
      <trkpt lat="46.96164" lon="8.58715">
        <ele>835</ele>
        <time>2021-08-10T09:39:02.749Z</time>
      </trkpt>
      <trkpt lat="46.96164" lon="8.58714">
        <ele>835</ele>
        <time>2021-08-10T09:39:03.750Z</time>
      </trkpt>
      <trkpt lat="46.96163" lon="8.58713">
        <ele>835</ele>
        <time>2021-08-10T09:39:04.749Z</time>
      </trkpt>
      <trkpt lat="46.96162" lon="8.58712">
        <ele>835</ele>
        <time>2021-08-10T09:39:05.750Z</time>
      </trkpt>
      <trkpt lat="46.96162" lon="8.58712">
        <ele>835</ele>
        <time>2021-08-10T09:39:06.750Z</time>
      </trkpt>
      <trkpt lat="46.96162" lon="8.58711">
        <ele>835</ele>
        <time>2021-08-10T09:39:07.750Z</time>
      </trkpt>
      <trkpt lat="46.96162" lon="8.58709">
        <ele>835</ele>
        <time>2021-08-10T09:39:08.749Z</time>
      </trkpt>
      <trkpt lat="46.96162" lon="8.58708">
        <ele>834</ele>
        <time>2021-08-10T09:39:09.749Z</time>
      </trkpt>
      <trkpt lat="46.96162" lon="8.58706">
        <ele>834</ele>
        <time>2021-08-10T09:39:10.750Z</time>
      </trkpt>
      <trkpt lat="46.96162" lon="8.58704">
        <ele>834</ele>
        <time>2021-08-10T09:39:11.749Z</time>
      </trkpt>
      <trkpt lat="46.96162" lon="8.58703">
        <ele>834</ele>
        <time>2021-08-10T09:39:12.749Z</time>
      </trkpt>
      <trkpt lat="46.96163" lon="8.58702">
        <ele>833</ele>
        <time>2021-08-10T09:39:13.750Z</time>
      </trkpt>
      <trkpt lat="46.96164" lon="8.58701">
        <ele>833</ele>
        <time>2021-08-10T09:39:14.749Z</time>
      </trkpt>
      <trkpt lat="46.96164" lon="8.587">
        <ele>833</ele>
        <time>2021-08-10T09:39:15.749Z</time>
      </trkpt>
      <trkpt lat="46.96165" lon="8.58698">
        <ele>834</ele>
        <time>2021-08-10T09:39:16.749Z</time>
      </trkpt>
      <trkpt lat="46.96166" lon="8.58697">
        <ele>834</ele>
        <time>2021-08-10T09:39:17.749Z</time>
      </trkpt>
      <trkpt lat="46.96166" lon="8.58695">
        <ele>834</ele>
        <time>2021-08-10T09:39:18.750Z</time>
      </trkpt>
      <trkpt lat="46.96167" lon="8.58693">
        <ele>834</ele>
        <time>2021-08-10T09:39:19.749Z</time>
      </trkpt>
      <trkpt lat="46.96167" lon="8.58692">
        <ele>834</ele>
        <time>2021-08-10T09:39:20.749Z</time>
      </trkpt>
      <trkpt lat="46.96168" lon="8.5869">
        <ele>834</ele>
        <time>2021-08-10T09:39:21.750Z</time>
      </trkpt>
      <trkpt lat="46.96168" lon="8.58688">
        <ele>833</ele>
        <time>2021-08-10T09:39:22.749Z</time>
      </trkpt>
      <trkpt lat="46.96169" lon="8.58687">
        <ele>833</ele>
        <time>2021-08-10T09:39:23.749Z</time>
      </trkpt>
      <trkpt lat="46.9617" lon="8.58685">
        <ele>833</ele>
        <time>2021-08-10T09:39:24.749Z</time>
      </trkpt>
      <trkpt lat="46.9617" lon="8.58684">
        <ele>833</ele>
        <time>2021-08-10T09:39:25.750Z</time>
      </trkpt>
      <trkpt lat="46.9617" lon="8.58683">
        <ele>833</ele>
        <time>2021-08-10T09:39:26.749Z</time>
      </trkpt>
      <trkpt lat="46.9617" lon="8.58681">
        <ele>833</ele>
        <time>2021-08-10T09:39:27.750Z</time>
      </trkpt>
      <trkpt lat="46.96171" lon="8.5868">
        <ele>833</ele>
        <time>2021-08-10T09:39:28.750Z</time>
      </trkpt>
      <trkpt lat="46.9617" lon="8.58679">
        <ele>833</ele>
        <time>2021-08-10T09:39:29.749Z</time>
      </trkpt>
      <trkpt lat="46.96171" lon="8.58678">
        <ele>834</ele>
        <time>2021-08-10T09:39:30.750Z</time>
      </trkpt>
      <trkpt lat="46.96171" lon="8.58677">
        <ele>834</ele>
        <time>2021-08-10T09:39:31.749Z</time>
      </trkpt>
      <trkpt lat="46.96171" lon="8.58676">
        <ele>834</ele>
        <time>2021-08-10T09:39:32.749Z</time>
      </trkpt>
      <trkpt lat="46.96172" lon="8.58675">
        <ele>834</ele>
        <time>2021-08-10T09:39:33.749Z</time>
      </trkpt>
      <trkpt lat="46.96173" lon="8.58673">
        <ele>834</ele>
        <time>2021-08-10T09:39:34.749Z</time>
      </trkpt>
      <trkpt lat="46.96174" lon="8.58671">
        <ele>834</ele>
        <time>2021-08-10T09:39:35.749Z</time>
      </trkpt>
      <trkpt lat="46.96174" lon="8.5867">
        <ele>834</ele>
        <time>2021-08-10T09:39:36.749Z</time>
      </trkpt>
      <trkpt lat="46.96175" lon="8.5867">
        <ele>834</ele>
        <time>2021-08-10T09:39:37.749Z</time>
      </trkpt>
      <trkpt lat="46.96175" lon="8.58668">
        <ele>834</ele>
        <time>2021-08-10T09:39:38.749Z</time>
      </trkpt>
      <trkpt lat="46.96175" lon="8.58667">
        <ele>834</ele>
        <time>2021-08-10T09:39:39.749Z</time>
      </trkpt>
      <trkpt lat="46.96176" lon="8.58666">
        <ele>834</ele>
        <time>2021-08-10T09:39:40.750Z</time>
      </trkpt>
      <trkpt lat="46.96176" lon="8.58665">
        <ele>834</ele>
        <time>2021-08-10T09:39:41.750Z</time>
      </trkpt>
      <trkpt lat="46.96177" lon="8.58664">
        <ele>834</ele>
        <time>2021-08-10T09:39:42.750Z</time>
      </trkpt>
      <trkpt lat="46.96177" lon="8.58663">
        <ele>834</ele>
        <time>2021-08-10T09:39:43.750Z</time>
      </trkpt>
      <trkpt lat="46.96178" lon="8.58662">
        <ele>834</ele>
        <time>2021-08-10T09:39:44.750Z</time>
      </trkpt>
      <trkpt lat="46.96178" lon="8.5866">
        <ele>834</ele>
        <time>2021-08-10T09:39:45.749Z</time>
      </trkpt>
      <trkpt lat="46.96178" lon="8.58659">
        <ele>835</ele>
        <time>2021-08-10T09:39:46.750Z</time>
      </trkpt>
      <trkpt lat="46.96178" lon="8.58658">
        <ele>835</ele>
        <time>2021-08-10T09:39:47.749Z</time>
      </trkpt>
      <trkpt lat="46.96178" lon="8.58658">
        <ele>835</ele>
        <time>2021-08-10T09:39:48.750Z</time>
      </trkpt>
      <trkpt lat="46.96178" lon="8.58658">
        <ele>834</ele>
        <time>2021-08-10T09:39:49.750Z</time>
      </trkpt>
      <trkpt lat="46.96179" lon="8.58657">
        <ele>834</ele>
        <time>2021-08-10T09:39:50.749Z</time>
      </trkpt>
      <trkpt lat="46.9618" lon="8.58656">
        <ele>834</ele>
        <time>2021-08-10T09:39:51.750Z</time>
      </trkpt>
      <trkpt lat="46.96181" lon="8.58654">
        <ele>834</ele>
        <time>2021-08-10T09:39:52.750Z</time>
      </trkpt>
      <trkpt lat="46.96182" lon="8.58654">
        <ele>834</ele>
        <time>2021-08-10T09:39:53.750Z</time>
      </trkpt>
      <trkpt lat="46.96183" lon="8.58653">
        <ele>833</ele>
        <time>2021-08-10T09:39:54.749Z</time>
      </trkpt>
      <trkpt lat="46.96184" lon="8.58652">
        <ele>833</ele>
        <time>2021-08-10T09:39:55.749Z</time>
      </trkpt>
      <trkpt lat="46.96185" lon="8.58651">
        <ele>834</ele>
        <time>2021-08-10T09:39:56.750Z</time>
      </trkpt>
      <trkpt lat="46.96186" lon="8.5865">
        <ele>834</ele>
        <time>2021-08-10T09:39:57.750Z</time>
      </trkpt>
      <trkpt lat="46.96188" lon="8.58649">
        <ele>835</ele>
        <time>2021-08-10T09:39:58.750Z</time>
      </trkpt>
      <trkpt lat="46.96189" lon="8.58648">
        <ele>835</ele>
        <time>2021-08-10T09:39:59.750Z</time>
      </trkpt>
      <trkpt lat="46.96191" lon="8.58647">
        <ele>836</ele>
        <time>2021-08-10T09:40:00.750Z</time>
      </trkpt>
      <trkpt lat="46.96192" lon="8.58646">
        <ele>836</ele>
        <time>2021-08-10T09:40:01.749Z</time>
      </trkpt>
      <trkpt lat="46.96193" lon="8.58645">
        <ele>837</ele>
        <time>2021-08-10T09:40:02.749Z</time>
      </trkpt>
      <trkpt lat="46.96195" lon="8.58643">
        <ele>838</ele>
        <time>2021-08-10T09:40:03.750Z</time>
      </trkpt>
      <trkpt lat="46.96196" lon="8.58642">
        <ele>839</ele>
        <time>2021-08-10T09:40:04.749Z</time>
      </trkpt>
      <trkpt lat="46.96197" lon="8.58641">
        <ele>840</ele>
        <time>2021-08-10T09:40:05.749Z</time>
      </trkpt>
      <trkpt lat="46.96199" lon="8.5864">
        <ele>841</ele>
        <time>2021-08-10T09:40:06.749Z</time>
      </trkpt>
      <trkpt lat="46.96199" lon="8.58638">
        <ele>842</ele>
        <time>2021-08-10T09:40:07.750Z</time>
      </trkpt>
      <trkpt lat="46.96199" lon="8.58636">
        <ele>843</ele>
        <time>2021-08-10T09:40:08.749Z</time>
      </trkpt>
      <trkpt lat="46.96199" lon="8.58634">
        <ele>844</ele>
        <time>2021-08-10T09:40:09.749Z</time>
      </trkpt>
      <trkpt lat="46.96198" lon="8.58631">
        <ele>844</ele>
        <time>2021-08-10T09:40:10.749Z</time>
      </trkpt>
      <trkpt lat="46.96198" lon="8.58629">
        <ele>845</ele>
        <time>2021-08-10T09:40:11.749Z</time>
      </trkpt>
      <trkpt lat="46.96197" lon="8.58627">
        <ele>845</ele>
        <time>2021-08-10T09:40:12.749Z</time>
      </trkpt>
      <trkpt lat="46.96197" lon="8.58625">
        <ele>846</ele>
        <time>2021-08-10T09:40:13.750Z</time>
      </trkpt>
      <trkpt lat="46.96197" lon="8.58624">
        <ele>846</ele>
        <time>2021-08-10T09:40:14.750Z</time>
      </trkpt>
      <trkpt lat="46.96197" lon="8.58622">
        <ele>846</ele>
        <time>2021-08-10T09:40:15.749Z</time>
      </trkpt>
      <trkpt lat="46.96198" lon="8.58621">
        <ele>847</ele>
        <time>2021-08-10T09:40:16.749Z</time>
      </trkpt>
      <trkpt lat="46.96198" lon="8.58619">
        <ele>847</ele>
        <time>2021-08-10T09:40:17.749Z</time>
      </trkpt>
      <trkpt lat="46.96198" lon="8.58617">
        <ele>847</ele>
        <time>2021-08-10T09:40:18.749Z</time>
      </trkpt>
      <trkpt lat="46.96198" lon="8.58616">
        <ele>847</ele>
        <time>2021-08-10T09:40:19.749Z</time>
      </trkpt>
      <trkpt lat="46.96198" lon="8.58614">
        <ele>847</ele>
        <time>2021-08-10T09:40:20.749Z</time>
      </trkpt>
      <trkpt lat="46.96198" lon="8.58612">
        <ele>848</ele>
        <time>2021-08-10T09:40:21.749Z</time>
      </trkpt>
      <trkpt lat="46.96198" lon="8.58611">
        <ele>848</ele>
        <time>2021-08-10T09:40:22.749Z</time>
      </trkpt>
      <trkpt lat="46.96198" lon="8.5861">
        <ele>848</ele>
        <time>2021-08-10T09:40:23.749Z</time>
      </trkpt>
      <trkpt lat="46.96198" lon="8.58609">
        <ele>848</ele>
        <time>2021-08-10T09:40:24.750Z</time>
      </trkpt>
      <trkpt lat="46.96199" lon="8.58608">
        <ele>848</ele>
        <time>2021-08-10T09:40:25.749Z</time>
      </trkpt>
      <trkpt lat="46.96199" lon="8.58607">
        <ele>848</ele>
        <time>2021-08-10T09:40:26.749Z</time>
      </trkpt>
      <trkpt lat="46.96199" lon="8.58606">
        <ele>848</ele>
        <time>2021-08-10T09:40:27.749Z</time>
      </trkpt>
      <trkpt lat="46.96199" lon="8.58605">
        <ele>849</ele>
        <time>2021-08-10T09:40:28.749Z</time>
      </trkpt>
      <trkpt lat="46.962" lon="8.58603">
        <ele>850</ele>
        <time>2021-08-10T09:40:29.750Z</time>
      </trkpt>
      <trkpt lat="46.962" lon="8.58602">
        <ele>850</ele>
        <time>2021-08-10T09:40:30.749Z</time>
      </trkpt>
      <trkpt lat="46.96201" lon="8.58601">
        <ele>851</ele>
        <time>2021-08-10T09:40:31.749Z</time>
      </trkpt>
      <trkpt lat="46.96202" lon="8.58601">
        <ele>851</ele>
        <time>2021-08-10T09:40:32.749Z</time>
      </trkpt>
      <trkpt lat="46.96203" lon="8.586">
        <ele>852</ele>
        <time>2021-08-10T09:40:33.750Z</time>
      </trkpt>
      <trkpt lat="46.96204" lon="8.58599">
        <ele>852</ele>
        <time>2021-08-10T09:40:34.750Z</time>
      </trkpt>
      <trkpt lat="46.96206" lon="8.58599">
        <ele>853</ele>
        <time>2021-08-10T09:40:35.750Z</time>
      </trkpt>
      <trkpt lat="46.96207" lon="8.58598">
        <ele>853</ele>
        <time>2021-08-10T09:40:36.749Z</time>
      </trkpt>
      <trkpt lat="46.96209" lon="8.58598">
        <ele>854</ele>
        <time>2021-08-10T09:40:37.749Z</time>
      </trkpt>
      <trkpt lat="46.96211" lon="8.58597">
        <ele>855</ele>
        <time>2021-08-10T09:40:38.750Z</time>
      </trkpt>
      <trkpt lat="46.96212" lon="8.58597">
        <ele>855</ele>
        <time>2021-08-10T09:40:39.750Z</time>
      </trkpt>
      <trkpt lat="46.96214" lon="8.58596">
        <ele>856</ele>
        <time>2021-08-10T09:40:40.749Z</time>
      </trkpt>
      <trkpt lat="46.96214" lon="8.58595">
        <ele>857</ele>
        <time>2021-08-10T09:40:41.749Z</time>
      </trkpt>
      <trkpt lat="46.96214" lon="8.58594">
        <ele>857</ele>
        <time>2021-08-10T09:40:42.749Z</time>
      </trkpt>
      <trkpt lat="46.96214" lon="8.58593">
        <ele>858</ele>
        <time>2021-08-10T09:40:43.750Z</time>
      </trkpt>
      <trkpt lat="46.96216" lon="8.58592">
        <ele>858</ele>
        <time>2021-08-10T09:40:44.750Z</time>
      </trkpt>
      <trkpt lat="46.96216" lon="8.5859">
        <ele>858</ele>
        <time>2021-08-10T09:40:45.749Z</time>
      </trkpt>
      <trkpt lat="46.96217" lon="8.58588">
        <ele>859</ele>
        <time>2021-08-10T09:40:46.749Z</time>
      </trkpt>
      <trkpt lat="46.96217" lon="8.58587">
        <ele>859</ele>
        <time>2021-08-10T09:40:47.749Z</time>
      </trkpt>
      <trkpt lat="46.96217" lon="8.58585">
        <ele>860</ele>
        <time>2021-08-10T09:40:48.750Z</time>
      </trkpt>
      <trkpt lat="46.96217" lon="8.58583">
        <ele>860</ele>
        <time>2021-08-10T09:40:49.749Z</time>
      </trkpt>
      <trkpt lat="46.96217" lon="8.58581">
        <ele>860</ele>
        <time>2021-08-10T09:40:50.749Z</time>
      </trkpt>
      <trkpt lat="46.96217" lon="8.5858">
        <ele>861</ele>
        <time>2021-08-10T09:40:51.749Z</time>
      </trkpt>
      <trkpt lat="46.96217" lon="8.58579">
        <ele>861</ele>
        <time>2021-08-10T09:40:52.750Z</time>
      </trkpt>
      <trkpt lat="46.96217" lon="8.58577">
        <ele>861</ele>
        <time>2021-08-10T09:40:53.749Z</time>
      </trkpt>
      <trkpt lat="46.96217" lon="8.58575">
        <ele>861</ele>
        <time>2021-08-10T09:40:54.750Z</time>
      </trkpt>
      <trkpt lat="46.96217" lon="8.58574">
        <ele>861</ele>
        <time>2021-08-10T09:40:55.750Z</time>
      </trkpt>
      <trkpt lat="46.96217" lon="8.58571">
        <ele>861</ele>
        <time>2021-08-10T09:40:56.750Z</time>
      </trkpt>
      <trkpt lat="46.96217" lon="8.58569">
        <ele>860</ele>
        <time>2021-08-10T09:40:57.749Z</time>
      </trkpt>
      <trkpt lat="46.96217" lon="8.58567">
        <ele>860</ele>
        <time>2021-08-10T09:40:58.750Z</time>
      </trkpt>
      <trkpt lat="46.96216" lon="8.58566">
        <ele>860</ele>
        <time>2021-08-10T09:40:59.750Z</time>
      </trkpt>
      <trkpt lat="46.96215" lon="8.58565">
        <ele>860</ele>
        <time>2021-08-10T09:41:00.750Z</time>
      </trkpt>
      <trkpt lat="46.96213" lon="8.58564">
        <ele>860</ele>
        <time>2021-08-10T09:41:01.749Z</time>
      </trkpt>
      <trkpt lat="46.96213" lon="8.58563">
        <ele>859</ele>
        <time>2021-08-10T09:41:02.750Z</time>
      </trkpt>
      <trkpt lat="46.96212" lon="8.58562">
        <ele>859</ele>
        <time>2021-08-10T09:41:03.750Z</time>
      </trkpt>
      <trkpt lat="46.96212" lon="8.58561">
        <ele>858</ele>
        <time>2021-08-10T09:41:04.750Z</time>
      </trkpt>
      <trkpt lat="46.96212" lon="8.58559">
        <ele>858</ele>
        <time>2021-08-10T09:41:05.749Z</time>
      </trkpt>
      <trkpt lat="46.96213" lon="8.58558">
        <ele>858</ele>
        <time>2021-08-10T09:41:06.750Z</time>
      </trkpt>
      <trkpt lat="46.96213" lon="8.58556">
        <ele>857</ele>
        <time>2021-08-10T09:41:07.750Z</time>
      </trkpt>
      <trkpt lat="46.96213" lon="8.58554">
        <ele>857</ele>
        <time>2021-08-10T09:41:08.750Z</time>
      </trkpt>
      <trkpt lat="46.96213" lon="8.58553">
        <ele>856</ele>
        <time>2021-08-10T09:41:09.750Z</time>
      </trkpt>
      <trkpt lat="46.96213" lon="8.58552">
        <ele>856</ele>
        <time>2021-08-10T09:41:10.750Z</time>
      </trkpt>
      <trkpt lat="46.96213" lon="8.58551">
        <ele>855</ele>
        <time>2021-08-10T09:41:11.749Z</time>
      </trkpt>
      <trkpt lat="46.96213" lon="8.58549">
        <ele>855</ele>
        <time>2021-08-10T09:41:12.750Z</time>
      </trkpt>
      <trkpt lat="46.96213" lon="8.58548">
        <ele>856</ele>
        <time>2021-08-10T09:41:13.750Z</time>
      </trkpt>
      <trkpt lat="46.96212" lon="8.58546">
        <ele>856</ele>
        <time>2021-08-10T09:41:14.750Z</time>
      </trkpt>
      <trkpt lat="46.96212" lon="8.58544">
        <ele>856</ele>
        <time>2021-08-10T09:41:15.750Z</time>
      </trkpt>
      <trkpt lat="46.96211" lon="8.58541">
        <ele>856</ele>
        <time>2021-08-10T09:41:16.750Z</time>
      </trkpt>
      <trkpt lat="46.96209" lon="8.58538">
        <ele>856</ele>
        <time>2021-08-10T09:41:17.750Z</time>
      </trkpt>
      <trkpt lat="46.96206" lon="8.58537">
        <ele>856</ele>
        <time>2021-08-10T09:41:18.750Z</time>
      </trkpt>
      <trkpt lat="46.96203" lon="8.58533">
        <ele>857</ele>
        <time>2021-08-10T09:41:19.750Z</time>
      </trkpt>
      <trkpt lat="46.96201" lon="8.5853">
        <ele>857</ele>
        <time>2021-08-10T09:41:20.750Z</time>
      </trkpt>
      <trkpt lat="46.96198" lon="8.58528">
        <ele>857</ele>
        <time>2021-08-10T09:41:21.750Z</time>
      </trkpt>
      <trkpt lat="46.96196" lon="8.58528">
        <ele>857</ele>
        <time>2021-08-10T09:41:22.749Z</time>
      </trkpt>
      <trkpt lat="46.96195" lon="8.58527">
        <ele>857</ele>
        <time>2021-08-10T09:41:23.749Z</time>
      </trkpt>
      <trkpt lat="46.96194" lon="8.58526">
        <ele>857</ele>
        <time>2021-08-10T09:41:24.750Z</time>
      </trkpt>
      <trkpt lat="46.96193" lon="8.58525">
        <ele>858</ele>
        <time>2021-08-10T09:41:25.750Z</time>
      </trkpt>
      <trkpt lat="46.96193" lon="8.58525">
        <ele>858</ele>
        <time>2021-08-10T09:41:26.750Z</time>
      </trkpt>
      <trkpt lat="46.96192" lon="8.58524">
        <ele>859</ele>
        <time>2021-08-10T09:41:27.750Z</time>
      </trkpt>
      <trkpt lat="46.9619" lon="8.58524">
        <ele>859</ele>
        <time>2021-08-10T09:41:28.750Z</time>
      </trkpt>
      <trkpt lat="46.96189" lon="8.58524">
        <ele>859</ele>
        <time>2021-08-10T09:41:29.750Z</time>
      </trkpt>
      <trkpt lat="46.96188" lon="8.58524">
        <ele>860</ele>
        <time>2021-08-10T09:41:30.750Z</time>
      </trkpt>
      <trkpt lat="46.96187" lon="8.58524">
        <ele>860</ele>
        <time>2021-08-10T09:41:31.750Z</time>
      </trkpt>
      <trkpt lat="46.96186" lon="8.58524">
        <ele>860</ele>
        <time>2021-08-10T09:41:32.750Z</time>
      </trkpt>
      <trkpt lat="46.96185" lon="8.58524">
        <ele>861</ele>
        <time>2021-08-10T09:41:33.749Z</time>
      </trkpt>
      <trkpt lat="46.96184" lon="8.58525">
        <ele>861</ele>
        <time>2021-08-10T09:41:34.750Z</time>
      </trkpt>
      <trkpt lat="46.96184" lon="8.58525">
        <ele>861</ele>
        <time>2021-08-10T09:41:35.749Z</time>
      </trkpt>
      <trkpt lat="46.96183" lon="8.58525">
        <ele>861</ele>
        <time>2021-08-10T09:41:36.749Z</time>
      </trkpt>
      <trkpt lat="46.96182" lon="8.58524">
        <ele>861</ele>
        <time>2021-08-10T09:41:37.750Z</time>
      </trkpt>
      <trkpt lat="46.96181" lon="8.58524">
        <ele>861</ele>
        <time>2021-08-10T09:41:38.750Z</time>
      </trkpt>
      <trkpt lat="46.9618" lon="8.58524">
        <ele>861</ele>
        <time>2021-08-10T09:41:39.749Z</time>
      </trkpt>
      <trkpt lat="46.96179" lon="8.58524">
        <ele>861</ele>
        <time>2021-08-10T09:41:40.750Z</time>
      </trkpt>
      <trkpt lat="46.96179" lon="8.58524">
        <ele>860</ele>
        <time>2021-08-10T09:41:41.749Z</time>
      </trkpt>
      <trkpt lat="46.96178" lon="8.58525">
        <ele>860</ele>
        <time>2021-08-10T09:41:42.750Z</time>
      </trkpt>
      <trkpt lat="46.96177" lon="8.58526">
        <ele>860</ele>
        <time>2021-08-10T09:41:43.749Z</time>
      </trkpt>
      <trkpt lat="46.96176" lon="8.58525">
        <ele>860</ele>
        <time>2021-08-10T09:41:44.749Z</time>
      </trkpt>
      <trkpt lat="46.96174" lon="8.58524">
        <ele>860</ele>
        <time>2021-08-10T09:41:45.749Z</time>
      </trkpt>
      <trkpt lat="46.96172" lon="8.58523">
        <ele>860</ele>
        <time>2021-08-10T09:41:46.750Z</time>
      </trkpt>
      <trkpt lat="46.96172" lon="8.58521">
        <ele>860</ele>
        <time>2021-08-10T09:41:47.750Z</time>
      </trkpt>
      <trkpt lat="46.96171" lon="8.5852">
        <ele>860</ele>
        <time>2021-08-10T09:41:48.750Z</time>
      </trkpt>
      <trkpt lat="46.96171" lon="8.58519">
        <ele>860</ele>
        <time>2021-08-10T09:41:49.750Z</time>
      </trkpt>
      <trkpt lat="46.9617" lon="8.58518">
        <ele>860</ele>
        <time>2021-08-10T09:41:50.750Z</time>
      </trkpt>
      <trkpt lat="46.96169" lon="8.58518">
        <ele>860</ele>
        <time>2021-08-10T09:41:51.750Z</time>
      </trkpt>
      <trkpt lat="46.96169" lon="8.58518">
        <ele>860</ele>
        <time>2021-08-10T09:41:52.750Z</time>
      </trkpt>
      <trkpt lat="46.96168" lon="8.58518">
        <ele>860</ele>
        <time>2021-08-10T09:41:53.750Z</time>
      </trkpt>
      <trkpt lat="46.96167" lon="8.58517">
        <ele>860</ele>
        <time>2021-08-10T09:41:54.749Z</time>
      </trkpt>
      <trkpt lat="46.96165" lon="8.58517">
        <ele>859</ele>
        <time>2021-08-10T09:41:55.749Z</time>
      </trkpt>
      <trkpt lat="46.96165" lon="8.58518">
        <ele>860</ele>
        <time>2021-08-10T09:41:56.749Z</time>
      </trkpt>
      <trkpt lat="46.96164" lon="8.58518">
        <ele>860</ele>
        <time>2021-08-10T09:41:57.749Z</time>
      </trkpt>
      <trkpt lat="46.96163" lon="8.58519">
        <ele>860</ele>
        <time>2021-08-10T09:41:58.752Z</time>
      </trkpt>
      <trkpt lat="46.96163" lon="8.58518">
        <ele>859</ele>
        <time>2021-08-10T09:41:59.752Z</time>
      </trkpt>
      <trkpt lat="46.96162" lon="8.58516">
        <ele>859</ele>
        <time>2021-08-10T09:42:00.752Z</time>
      </trkpt>
      <trkpt lat="46.96162" lon="8.58514">
        <ele>858</ele>
        <time>2021-08-10T09:42:01.752Z</time>
      </trkpt>
      <trkpt lat="46.9616" lon="8.58513">
        <ele>858</ele>
        <time>2021-08-10T09:42:02.752Z</time>
      </trkpt>
      <trkpt lat="46.96159" lon="8.58512">
        <ele>857</ele>
        <time>2021-08-10T09:42:03.752Z</time>
      </trkpt>
      <trkpt lat="46.96159" lon="8.58511">
        <ele>857</ele>
        <time>2021-08-10T09:42:04.751Z</time>
      </trkpt>
      <trkpt lat="46.96158" lon="8.5851">
        <ele>856</ele>
        <time>2021-08-10T09:42:05.751Z</time>
      </trkpt>
      <trkpt lat="46.96158" lon="8.58509">
        <ele>856</ele>
        <time>2021-08-10T09:42:06.751Z</time>
      </trkpt>
      <trkpt lat="46.96157" lon="8.58508">
        <ele>856</ele>
        <time>2021-08-10T09:42:07.752Z</time>
      </trkpt>
      <trkpt lat="46.96156" lon="8.58507">
        <ele>856</ele>
        <time>2021-08-10T09:42:08.751Z</time>
      </trkpt>
      <trkpt lat="46.96156" lon="8.58506">
        <ele>856</ele>
        <time>2021-08-10T09:42:09.752Z</time>
      </trkpt>
      <trkpt lat="46.96155" lon="8.58505">
        <ele>856</ele>
        <time>2021-08-10T09:42:10.752Z</time>
      </trkpt>
      <trkpt lat="46.96153" lon="8.58505">
        <ele>857</ele>
        <time>2021-08-10T09:42:11.752Z</time>
      </trkpt>
      <trkpt lat="46.96152" lon="8.58504">
        <ele>857</ele>
        <time>2021-08-10T09:42:12.752Z</time>
      </trkpt>
      <trkpt lat="46.96151" lon="8.58503">
        <ele>858</ele>
        <time>2021-08-10T09:42:13.752Z</time>
      </trkpt>
      <trkpt lat="46.9615" lon="8.58502">
        <ele>858</ele>
        <time>2021-08-10T09:42:14.751Z</time>
      </trkpt>
      <trkpt lat="46.96149" lon="8.585">
        <ele>858</ele>
        <time>2021-08-10T09:42:15.752Z</time>
      </trkpt>
      <trkpt lat="46.96148" lon="8.58499">
        <ele>858</ele>
        <time>2021-08-10T09:42:16.752Z</time>
      </trkpt>
      <trkpt lat="46.96147" lon="8.58498">
        <ele>859</ele>
        <time>2021-08-10T09:42:17.752Z</time>
      </trkpt>
      <trkpt lat="46.96146" lon="8.58497">
        <ele>859</ele>
        <time>2021-08-10T09:42:18.752Z</time>
      </trkpt>
      <trkpt lat="46.96145" lon="8.58496">
        <ele>859</ele>
        <time>2021-08-10T09:42:19.752Z</time>
      </trkpt>
      <trkpt lat="46.96143" lon="8.58496">
        <ele>860</ele>
        <time>2021-08-10T09:42:20.752Z</time>
      </trkpt>
      <trkpt lat="46.96142" lon="8.58496">
        <ele>860</ele>
        <time>2021-08-10T09:42:21.751Z</time>
      </trkpt>
      <trkpt lat="46.96141" lon="8.58496">
        <ele>861</ele>
        <time>2021-08-10T09:42:22.752Z</time>
      </trkpt>
      <trkpt lat="46.9614" lon="8.58496">
        <ele>861</ele>
        <time>2021-08-10T09:42:23.752Z</time>
      </trkpt>
      <trkpt lat="46.9614" lon="8.58495">
        <ele>861</ele>
        <time>2021-08-10T09:42:24.752Z</time>
      </trkpt>
      <trkpt lat="46.96138" lon="8.58493">
        <ele>861</ele>
        <time>2021-08-10T09:42:25.752Z</time>
      </trkpt>
      <trkpt lat="46.96136" lon="8.58493">
        <ele>861</ele>
        <time>2021-08-10T09:42:26.752Z</time>
      </trkpt>
      <trkpt lat="46.96135" lon="8.58491">
        <ele>861</ele>
        <time>2021-08-10T09:42:27.752Z</time>
      </trkpt>
      <trkpt lat="46.96134" lon="8.58492">
        <ele>860</ele>
        <time>2021-08-10T09:42:28.751Z</time>
      </trkpt>
      <trkpt lat="46.96132" lon="8.58492">
        <ele>861</ele>
        <time>2021-08-10T09:42:29.752Z</time>
      </trkpt>
      <trkpt lat="46.96132" lon="8.58494">
        <ele>860</ele>
        <time>2021-08-10T09:42:30.751Z</time>
      </trkpt>
      <trkpt lat="46.96131" lon="8.58496">
        <ele>860</ele>
        <time>2021-08-10T09:42:31.752Z</time>
      </trkpt>
      <trkpt lat="46.9613" lon="8.58496">
        <ele>860</ele>
        <time>2021-08-10T09:42:32.751Z</time>
      </trkpt>
      <trkpt lat="46.9613" lon="8.58496">
        <ele>859</ele>
        <time>2021-08-10T09:42:33.752Z</time>
      </trkpt>
      <trkpt lat="46.96129" lon="8.58496">
        <ele>859</ele>
        <time>2021-08-10T09:42:34.752Z</time>
      </trkpt>
      <trkpt lat="46.96128" lon="8.58497">
        <ele>859</ele>
        <time>2021-08-10T09:42:35.751Z</time>
      </trkpt>
      <trkpt lat="46.96126" lon="8.58497">
        <ele>858</ele>
        <time>2021-08-10T09:42:36.752Z</time>
      </trkpt>
      <trkpt lat="46.96124" lon="8.58497">
        <ele>858</ele>
        <time>2021-08-10T09:42:37.752Z</time>
      </trkpt>
      <trkpt lat="46.96122" lon="8.58497">
        <ele>857</ele>
        <time>2021-08-10T09:42:38.751Z</time>
      </trkpt>
      <trkpt lat="46.96121" lon="8.58497">
        <ele>857</ele>
        <time>2021-08-10T09:42:39.751Z</time>
      </trkpt>
      <trkpt lat="46.9612" lon="8.58497">
        <ele>856</ele>
        <time>2021-08-10T09:42:40.751Z</time>
      </trkpt>
      <trkpt lat="46.96119" lon="8.58497">
        <ele>855</ele>
        <time>2021-08-10T09:42:41.752Z</time>
      </trkpt>
      <trkpt lat="46.96118" lon="8.58497">
        <ele>855</ele>
        <time>2021-08-10T09:42:42.751Z</time>
      </trkpt>
      <trkpt lat="46.96118" lon="8.58497">
        <ele>854</ele>
        <time>2021-08-10T09:42:43.751Z</time>
      </trkpt>
      <trkpt lat="46.96117" lon="8.58497">
        <ele>854</ele>
        <time>2021-08-10T09:42:44.751Z</time>
      </trkpt>
      <trkpt lat="46.96117" lon="8.58497">
        <ele>853</ele>
        <time>2021-08-10T09:42:45.751Z</time>
      </trkpt>
      <trkpt lat="46.96116" lon="8.58496">
        <ele>853</ele>
        <time>2021-08-10T09:42:46.751Z</time>
      </trkpt>
      <trkpt lat="46.96116" lon="8.58496">
        <ele>853</ele>
        <time>2021-08-10T09:42:47.752Z</time>
      </trkpt>
      <trkpt lat="46.96115" lon="8.58496">
        <ele>853</ele>
        <time>2021-08-10T09:42:48.751Z</time>
      </trkpt>
      <trkpt lat="46.96115" lon="8.58496">
        <ele>853</ele>
        <time>2021-08-10T09:42:49.752Z</time>
      </trkpt>
      <trkpt lat="46.96112" lon="8.58495">
        <ele>853</ele>
        <time>2021-08-10T09:42:50.752Z</time>
      </trkpt>
      <trkpt lat="46.96112" lon="8.58494">
        <ele>852</ele>
        <time>2021-08-10T09:42:51.752Z</time>
      </trkpt>
      <trkpt lat="46.96111" lon="8.58494">
        <ele>852</ele>
        <time>2021-08-10T09:42:52.752Z</time>
      </trkpt>
      <trkpt lat="46.96111" lon="8.58493">
        <ele>852</ele>
        <time>2021-08-10T09:42:53.752Z</time>
      </trkpt>
      <trkpt lat="46.9611" lon="8.58493">
        <ele>851</ele>
        <time>2021-08-10T09:42:54.753Z</time>
      </trkpt>
      <trkpt lat="46.96109" lon="8.58493">
        <ele>850</ele>
        <time>2021-08-10T09:42:55.753Z</time>
      </trkpt>
      <trkpt lat="46.96108" lon="8.58493">
        <ele>850</ele>
        <time>2021-08-10T09:42:56.752Z</time>
      </trkpt>
      <trkpt lat="46.96107" lon="8.58493">
        <ele>849</ele>
        <time>2021-08-10T09:42:57.753Z</time>
      </trkpt>
      <trkpt lat="46.96106" lon="8.58493">
        <ele>849</ele>
        <time>2021-08-10T09:42:58.752Z</time>
      </trkpt>
      <trkpt lat="46.96105" lon="8.58492">
        <ele>849</ele>
        <time>2021-08-10T09:42:59.753Z</time>
      </trkpt>
      <trkpt lat="46.96105" lon="8.5849">
        <ele>849</ele>
        <time>2021-08-10T09:43:00.753Z</time>
      </trkpt>
      <trkpt lat="46.96105" lon="8.58489">
        <ele>849</ele>
        <time>2021-08-10T09:43:01.752Z</time>
      </trkpt>
      <trkpt lat="46.96105" lon="8.58488">
        <ele>849</ele>
        <time>2021-08-10T09:43:02.753Z</time>
      </trkpt>
      <trkpt lat="46.96105" lon="8.58486">
        <ele>849</ele>
        <time>2021-08-10T09:43:03.752Z</time>
      </trkpt>
      <trkpt lat="46.96106" lon="8.58485">
        <ele>849</ele>
        <time>2021-08-10T09:43:04.753Z</time>
      </trkpt>
      <trkpt lat="46.96104" lon="8.58484">
        <ele>849</ele>
        <time>2021-08-10T09:43:05.753Z</time>
      </trkpt>
      <trkpt lat="46.96104" lon="8.58483">
        <ele>849</ele>
        <time>2021-08-10T09:43:06.753Z</time>
      </trkpt>
      <trkpt lat="46.96103" lon="8.58482">
        <ele>849</ele>
        <time>2021-08-10T09:43:07.752Z</time>
      </trkpt>
      <trkpt lat="46.96103" lon="8.5848">
        <ele>850</ele>
        <time>2021-08-10T09:43:08.752Z</time>
      </trkpt>
      <trkpt lat="46.96102" lon="8.58478">
        <ele>850</ele>
        <time>2021-08-10T09:43:09.752Z</time>
      </trkpt>
      <trkpt lat="46.96101" lon="8.58477">
        <ele>850</ele>
        <time>2021-08-10T09:43:10.752Z</time>
      </trkpt>
      <trkpt lat="46.961" lon="8.58476">
        <ele>850</ele>
        <time>2021-08-10T09:43:11.753Z</time>
      </trkpt>
      <trkpt lat="46.961" lon="8.58476">
        <ele>850</ele>
        <time>2021-08-10T09:43:12.753Z</time>
      </trkpt>
      <trkpt lat="46.96099" lon="8.58474">
        <ele>850</ele>
        <time>2021-08-10T09:43:13.752Z</time>
      </trkpt>
      <trkpt lat="46.96098" lon="8.58473">
        <ele>850</ele>
        <time>2021-08-10T09:43:14.753Z</time>
      </trkpt>
      <trkpt lat="46.96098" lon="8.58471">
        <ele>850</ele>
        <time>2021-08-10T09:43:15.753Z</time>
      </trkpt>
      <trkpt lat="46.96098" lon="8.58469">
        <ele>850</ele>
        <time>2021-08-10T09:43:16.753Z</time>
      </trkpt>
      <trkpt lat="46.96098" lon="8.58467">
        <ele>849</ele>
        <time>2021-08-10T09:43:17.753Z</time>
      </trkpt>
      <trkpt lat="46.96098" lon="8.58465">
        <ele>849</ele>
        <time>2021-08-10T09:43:18.753Z</time>
      </trkpt>
      <trkpt lat="46.96098" lon="8.58463">
        <ele>849</ele>
        <time>2021-08-10T09:43:19.753Z</time>
      </trkpt>
      <trkpt lat="46.96098" lon="8.58462">
        <ele>849</ele>
        <time>2021-08-10T09:43:20.752Z</time>
      </trkpt>
      <trkpt lat="46.96097" lon="8.58461">
        <ele>849</ele>
        <time>2021-08-10T09:43:21.752Z</time>
      </trkpt>
      <trkpt lat="46.96096" lon="8.5846">
        <ele>849</ele>
        <time>2021-08-10T09:43:22.753Z</time>
      </trkpt>
      <trkpt lat="46.96095" lon="8.58459">
        <ele>849</ele>
        <time>2021-08-10T09:43:23.752Z</time>
      </trkpt>
      <trkpt lat="46.96095" lon="8.58457">
        <ele>849</ele>
        <time>2021-08-10T09:43:24.753Z</time>
      </trkpt>
      <trkpt lat="46.96094" lon="8.58456">
        <ele>849</ele>
        <time>2021-08-10T09:43:25.752Z</time>
      </trkpt>
      <trkpt lat="46.96094" lon="8.58455">
        <ele>849</ele>
        <time>2021-08-10T09:43:26.752Z</time>
      </trkpt>
      <trkpt lat="46.96093" lon="8.58454">
        <ele>849</ele>
        <time>2021-08-10T09:43:27.752Z</time>
      </trkpt>
      <trkpt lat="46.96092" lon="8.58453">
        <ele>849</ele>
        <time>2021-08-10T09:43:28.753Z</time>
      </trkpt>
      <trkpt lat="46.96091" lon="8.58452">
        <ele>849</ele>
        <time>2021-08-10T09:43:29.753Z</time>
      </trkpt>
      <trkpt lat="46.9609" lon="8.58451">
        <ele>848</ele>
        <time>2021-08-10T09:43:30.752Z</time>
      </trkpt>
      <trkpt lat="46.96089" lon="8.58451">
        <ele>847</ele>
        <time>2021-08-10T09:43:31.752Z</time>
      </trkpt>
      <trkpt lat="46.96088" lon="8.5845">
        <ele>846</ele>
        <time>2021-08-10T09:43:32.753Z</time>
      </trkpt>
      <trkpt lat="46.96087" lon="8.58449">
        <ele>846</ele>
        <time>2021-08-10T09:43:33.753Z</time>
      </trkpt>
      <trkpt lat="46.96087" lon="8.58448">
        <ele>846</ele>
        <time>2021-08-10T09:43:34.752Z</time>
      </trkpt>
      <trkpt lat="46.96087" lon="8.58446">
        <ele>846</ele>
        <time>2021-08-10T09:43:35.753Z</time>
      </trkpt>
      <trkpt lat="46.96086" lon="8.58444">
        <ele>846</ele>
        <time>2021-08-10T09:43:36.752Z</time>
      </trkpt>
      <trkpt lat="46.96086" lon="8.58441">
        <ele>845</ele>
        <time>2021-08-10T09:43:37.752Z</time>
      </trkpt>
      <trkpt lat="46.96086" lon="8.58438">
        <ele>845</ele>
        <time>2021-08-10T09:43:38.753Z</time>
      </trkpt>
      <trkpt lat="46.96086" lon="8.58437">
        <ele>845</ele>
        <time>2021-08-10T09:43:39.753Z</time>
      </trkpt>
      <trkpt lat="46.96086" lon="8.58435">
        <ele>845</ele>
        <time>2021-08-10T09:43:40.753Z</time>
      </trkpt>
      <trkpt lat="46.96085" lon="8.58434">
        <ele>845</ele>
        <time>2021-08-10T09:43:41.752Z</time>
      </trkpt>
      <trkpt lat="46.96085" lon="8.58433">
        <ele>845</ele>
        <time>2021-08-10T09:43:42.752Z</time>
      </trkpt>
      <trkpt lat="46.96084" lon="8.58433">
        <ele>845</ele>
        <time>2021-08-10T09:43:43.753Z</time>
      </trkpt>
      <trkpt lat="46.96085" lon="8.58432">
        <ele>846</ele>
        <time>2021-08-10T09:43:44.753Z</time>
      </trkpt>
      <trkpt lat="46.96085" lon="8.58431">
        <ele>846</ele>
        <time>2021-08-10T09:43:45.752Z</time>
      </trkpt>
      <trkpt lat="46.96084" lon="8.5843">
        <ele>846</ele>
        <time>2021-08-10T09:43:46.752Z</time>
      </trkpt>
      <trkpt lat="46.96083" lon="8.58429">
        <ele>846</ele>
        <time>2021-08-10T09:43:47.753Z</time>
      </trkpt>
      <trkpt lat="46.96083" lon="8.58427">
        <ele>846</ele>
        <time>2021-08-10T09:43:48.753Z</time>
      </trkpt>
      <trkpt lat="46.96082" lon="8.58426">
        <ele>846</ele>
        <time>2021-08-10T09:43:49.752Z</time>
      </trkpt>
      <trkpt lat="46.96082" lon="8.58424">
        <ele>846</ele>
        <time>2021-08-10T09:43:50.753Z</time>
      </trkpt>
      <trkpt lat="46.96081" lon="8.58423">
        <ele>846</ele>
        <time>2021-08-10T09:43:51.752Z</time>
      </trkpt>
      <trkpt lat="46.96081" lon="8.58422">
        <ele>846</ele>
        <time>2021-08-10T09:43:52.753Z</time>
      </trkpt>
      <trkpt lat="46.96081" lon="8.5842">
        <ele>846</ele>
        <time>2021-08-10T09:43:53.752Z</time>
      </trkpt>
      <trkpt lat="46.9608" lon="8.58418">
        <ele>847</ele>
        <time>2021-08-10T09:43:54.753Z</time>
      </trkpt>
      <trkpt lat="46.96079" lon="8.58417">
        <ele>847</ele>
        <time>2021-08-10T09:43:55.752Z</time>
      </trkpt>
      <trkpt lat="46.96079" lon="8.58415">
        <ele>848</ele>
        <time>2021-08-10T09:43:56.753Z</time>
      </trkpt>
      <trkpt lat="46.96079" lon="8.58414">
        <ele>848</ele>
        <time>2021-08-10T09:43:57.752Z</time>
      </trkpt>
      <trkpt lat="46.96078" lon="8.58412">
        <ele>849</ele>
        <time>2021-08-10T09:43:58.753Z</time>
      </trkpt>
      <trkpt lat="46.96078" lon="8.58411">
        <ele>849</ele>
        <time>2021-08-10T09:43:59.752Z</time>
      </trkpt>
      <trkpt lat="46.96078" lon="8.58409">
        <ele>849</ele>
        <time>2021-08-10T09:44:00.753Z</time>
      </trkpt>
      <trkpt lat="46.96077" lon="8.58407">
        <ele>850</ele>
        <time>2021-08-10T09:44:01.752Z</time>
      </trkpt>
      <trkpt lat="46.96077" lon="8.58406">
        <ele>850</ele>
        <time>2021-08-10T09:44:02.753Z</time>
      </trkpt>
      <trkpt lat="46.96076" lon="8.58403">
        <ele>850</ele>
        <time>2021-08-10T09:44:03.753Z</time>
      </trkpt>
      <trkpt lat="46.96076" lon="8.58401">
        <ele>850</ele>
        <time>2021-08-10T09:44:04.753Z</time>
      </trkpt>
      <trkpt lat="46.96075" lon="8.58399">
        <ele>850</ele>
        <time>2021-08-10T09:44:05.752Z</time>
      </trkpt>
      <trkpt lat="46.96075" lon="8.58396">
        <ele>850</ele>
        <time>2021-08-10T09:44:06.753Z</time>
      </trkpt>
      <trkpt lat="46.96074" lon="8.58394">
        <ele>849</ele>
        <time>2021-08-10T09:44:07.752Z</time>
      </trkpt>
      <trkpt lat="46.96073" lon="8.58392">
        <ele>849</ele>
        <time>2021-08-10T09:44:08.753Z</time>
      </trkpt>
      <trkpt lat="46.96072" lon="8.5839">
        <ele>849</ele>
        <time>2021-08-10T09:44:09.753Z</time>
      </trkpt>
      <trkpt lat="46.9607" lon="8.58388">
        <ele>850</ele>
        <time>2021-08-10T09:44:10.753Z</time>
      </trkpt>
      <trkpt lat="46.96069" lon="8.58387">
        <ele>850</ele>
        <time>2021-08-10T09:44:11.752Z</time>
      </trkpt>
      <trkpt lat="46.96068" lon="8.58385">
        <ele>850</ele>
        <time>2021-08-10T09:44:12.752Z</time>
      </trkpt>
      <trkpt lat="46.96067" lon="8.58384">
        <ele>850</ele>
        <time>2021-08-10T09:44:13.752Z</time>
      </trkpt>
      <trkpt lat="46.96065" lon="8.58383">
        <ele>850</ele>
        <time>2021-08-10T09:44:14.753Z</time>
      </trkpt>
      <trkpt lat="46.96064" lon="8.58381">
        <ele>849</ele>
        <time>2021-08-10T09:44:15.753Z</time>
      </trkpt>
      <trkpt lat="46.96062" lon="8.5838">
        <ele>849</ele>
        <time>2021-08-10T09:44:16.752Z</time>
      </trkpt>
      <trkpt lat="46.9606" lon="8.5838">
        <ele>848</ele>
        <time>2021-08-10T09:44:17.753Z</time>
      </trkpt>
      <trkpt lat="46.96058" lon="8.5838">
        <ele>848</ele>
        <time>2021-08-10T09:44:18.753Z</time>
      </trkpt>
      <trkpt lat="46.96057" lon="8.58379">
        <ele>848</ele>
        <time>2021-08-10T09:44:19.753Z</time>
      </trkpt>
      <trkpt lat="46.96057" lon="8.58378">
        <ele>848</ele>
        <time>2021-08-10T09:44:20.752Z</time>
      </trkpt>
      <trkpt lat="46.96056" lon="8.58377">
        <ele>848</ele>
        <time>2021-08-10T09:44:21.753Z</time>
      </trkpt>
      <trkpt lat="46.96055" lon="8.58375">
        <ele>847</ele>
        <time>2021-08-10T09:44:22.752Z</time>
      </trkpt>
      <trkpt lat="46.96054" lon="8.58374">
        <ele>847</ele>
        <time>2021-08-10T09:44:23.752Z</time>
      </trkpt>
      <trkpt lat="46.96053" lon="8.58373">
        <ele>847</ele>
        <time>2021-08-10T09:44:24.752Z</time>
      </trkpt>
      <trkpt lat="46.96053" lon="8.58372">
        <ele>847</ele>
        <time>2021-08-10T09:44:25.752Z</time>
      </trkpt>
      <trkpt lat="46.96052" lon="8.58371">
        <ele>847</ele>
        <time>2021-08-10T09:44:26.752Z</time>
      </trkpt>
      <trkpt lat="46.96051" lon="8.5837">
        <ele>847</ele>
        <time>2021-08-10T09:44:27.752Z</time>
      </trkpt>
      <trkpt lat="46.9605" lon="8.58369">
        <ele>847</ele>
        <time>2021-08-10T09:44:28.752Z</time>
      </trkpt>
      <trkpt lat="46.96049" lon="8.58368">
        <ele>847</ele>
        <time>2021-08-10T09:44:29.752Z</time>
      </trkpt>
      <trkpt lat="46.96049" lon="8.58367">
        <ele>847</ele>
        <time>2021-08-10T09:44:30.752Z</time>
      </trkpt>
      <trkpt lat="46.96048" lon="8.58365">
        <ele>847</ele>
        <time>2021-08-10T09:44:31.752Z</time>
      </trkpt>
      <trkpt lat="46.96048" lon="8.58364">
        <ele>847</ele>
        <time>2021-08-10T09:44:32.752Z</time>
      </trkpt>
      <trkpt lat="46.96047" lon="8.58363">
        <ele>847</ele>
        <time>2021-08-10T09:44:33.752Z</time>
      </trkpt>
      <trkpt lat="46.96044" lon="8.58358">
        <ele>846</ele>
        <time>2021-08-10T09:44:34.753Z</time>
      </trkpt>
      <trkpt lat="46.96043" lon="8.58357">
        <ele>846</ele>
        <time>2021-08-10T09:44:35.752Z</time>
      </trkpt>
      <trkpt lat="46.96042" lon="8.58356">
        <ele>845</ele>
        <time>2021-08-10T09:44:36.753Z</time>
      </trkpt>
      <trkpt lat="46.96041" lon="8.58355">
        <ele>845</ele>
        <time>2021-08-10T09:44:37.752Z</time>
      </trkpt>
      <trkpt lat="46.9604" lon="8.58354">
        <ele>845</ele>
        <time>2021-08-10T09:44:38.753Z</time>
      </trkpt>
      <trkpt lat="46.96039" lon="8.58352">
        <ele>845</ele>
        <time>2021-08-10T09:44:39.753Z</time>
      </trkpt>
      <trkpt lat="46.96039" lon="8.58349">
        <ele>845</ele>
        <time>2021-08-10T09:44:40.753Z</time>
      </trkpt>
      <trkpt lat="46.96038" lon="8.58348">
        <ele>845</ele>
        <time>2021-08-10T09:44:41.752Z</time>
      </trkpt>
      <trkpt lat="46.96037" lon="8.58347">
        <ele>844</ele>
        <time>2021-08-10T09:44:42.753Z</time>
      </trkpt>
      <trkpt lat="46.96037" lon="8.58346">
        <ele>844</ele>
        <time>2021-08-10T09:44:43.752Z</time>
      </trkpt>
      <trkpt lat="46.96036" lon="8.58344">
        <ele>844</ele>
        <time>2021-08-10T09:44:44.753Z</time>
      </trkpt>
      <trkpt lat="46.96035" lon="8.58343">
        <ele>844</ele>
        <time>2021-08-10T09:44:45.752Z</time>
      </trkpt>
      <trkpt lat="46.96034" lon="8.58341">
        <ele>844</ele>
        <time>2021-08-10T09:44:46.753Z</time>
      </trkpt>
      <trkpt lat="46.96033" lon="8.5834">
        <ele>844</ele>
        <time>2021-08-10T09:44:47.752Z</time>
      </trkpt>
      <trkpt lat="46.96031" lon="8.58339">
        <ele>844</ele>
        <time>2021-08-10T09:44:48.752Z</time>
      </trkpt>
      <trkpt lat="46.96028" lon="8.58337">
        <ele>843</ele>
        <time>2021-08-10T09:44:49.753Z</time>
      </trkpt>
      <trkpt lat="46.96026" lon="8.58335">
        <ele>843</ele>
        <time>2021-08-10T09:44:50.752Z</time>
      </trkpt>
      <trkpt lat="46.96024" lon="8.58334">
        <ele>843</ele>
        <time>2021-08-10T09:44:51.752Z</time>
      </trkpt>
      <trkpt lat="46.96023" lon="8.58333">
        <ele>842</ele>
        <time>2021-08-10T09:44:52.752Z</time>
      </trkpt>
      <trkpt lat="46.96022" lon="8.58332">
        <ele>842</ele>
        <time>2021-08-10T09:44:53.753Z</time>
      </trkpt>
      <trkpt lat="46.96021" lon="8.58332">
        <ele>841</ele>
        <time>2021-08-10T09:44:54.753Z</time>
      </trkpt>
      <trkpt lat="46.9602" lon="8.58332">
        <ele>840</ele>
        <time>2021-08-10T09:44:55.752Z</time>
      </trkpt>
      <trkpt lat="46.96019" lon="8.58332">
        <ele>840</ele>
        <time>2021-08-10T09:44:56.752Z</time>
      </trkpt>
      <trkpt lat="46.96017" lon="8.58332">
        <ele>840</ele>
        <time>2021-08-10T09:44:57.753Z</time>
      </trkpt>
      <trkpt lat="46.96016" lon="8.58331">
        <ele>840</ele>
        <time>2021-08-10T09:44:58.752Z</time>
      </trkpt>
      <trkpt lat="46.96014" lon="8.5833">
        <ele>840</ele>
        <time>2021-08-10T09:44:59.752Z</time>
      </trkpt>
      <trkpt lat="46.96013" lon="8.5833">
        <ele>840</ele>
        <time>2021-08-10T09:45:00.753Z</time>
      </trkpt>
      <trkpt lat="46.96011" lon="8.58329">
        <ele>840</ele>
        <time>2021-08-10T09:45:01.752Z</time>
      </trkpt>
      <trkpt lat="46.9601" lon="8.58328">
        <ele>840</ele>
        <time>2021-08-10T09:45:02.752Z</time>
      </trkpt>
      <trkpt lat="46.96008" lon="8.58328">
        <ele>840</ele>
        <time>2021-08-10T09:45:03.753Z</time>
      </trkpt>
      <trkpt lat="46.96007" lon="8.58327">
        <ele>840</ele>
        <time>2021-08-10T09:45:04.752Z</time>
      </trkpt>
      <trkpt lat="46.96006" lon="8.58327">
        <ele>840</ele>
        <time>2021-08-10T09:45:05.753Z</time>
      </trkpt>
      <trkpt lat="46.96005" lon="8.58326">
        <ele>840</ele>
        <time>2021-08-10T09:45:06.753Z</time>
      </trkpt>
      <trkpt lat="46.96003" lon="8.58325">
        <ele>839</ele>
        <time>2021-08-10T09:45:07.753Z</time>
      </trkpt>
      <trkpt lat="46.96002" lon="8.58324">
        <ele>838</ele>
        <time>2021-08-10T09:45:08.752Z</time>
      </trkpt>
      <trkpt lat="46.96001" lon="8.58324">
        <ele>837</ele>
        <time>2021-08-10T09:45:09.752Z</time>
      </trkpt>
      <trkpt lat="46.96001" lon="8.58324">
        <ele>837</ele>
        <time>2021-08-10T09:45:10.752Z</time>
      </trkpt>
      <trkpt lat="46.96" lon="8.58323">
        <ele>836</ele>
        <time>2021-08-10T09:45:11.753Z</time>
      </trkpt>
      <trkpt lat="46.95999" lon="8.58323">
        <ele>836</ele>
        <time>2021-08-10T09:45:12.753Z</time>
      </trkpt>
      <trkpt lat="46.95998" lon="8.58322">
        <ele>835</ele>
        <time>2021-08-10T09:45:13.753Z</time>
      </trkpt>
      <trkpt lat="46.95997" lon="8.58322">
        <ele>835</ele>
        <time>2021-08-10T09:45:14.752Z</time>
      </trkpt>
      <trkpt lat="46.95996" lon="8.58321">
        <ele>835</ele>
        <time>2021-08-10T09:45:15.752Z</time>
      </trkpt>
      <trkpt lat="46.95995" lon="8.58321">
        <ele>834</ele>
        <time>2021-08-10T09:45:16.753Z</time>
      </trkpt>
      <trkpt lat="46.95994" lon="8.5832">
        <ele>834</ele>
        <time>2021-08-10T09:45:17.752Z</time>
      </trkpt>
      <trkpt lat="46.95994" lon="8.58319">
        <ele>833</ele>
        <time>2021-08-10T09:45:18.752Z</time>
      </trkpt>
      <trkpt lat="46.95993" lon="8.58318">
        <ele>832</ele>
        <time>2021-08-10T09:45:19.752Z</time>
      </trkpt>
      <trkpt lat="46.95992" lon="8.58317">
        <ele>831</ele>
        <time>2021-08-10T09:45:20.752Z</time>
      </trkpt>
      <trkpt lat="46.95991" lon="8.58316">
        <ele>831</ele>
        <time>2021-08-10T09:45:21.752Z</time>
      </trkpt>
      <trkpt lat="46.95991" lon="8.58316">
        <ele>830</ele>
        <time>2021-08-10T09:45:22.752Z</time>
      </trkpt>
      <trkpt lat="46.9599" lon="8.58315">
        <ele>830</ele>
        <time>2021-08-10T09:45:23.752Z</time>
      </trkpt>
      <trkpt lat="46.95989" lon="8.58314">
        <ele>830</ele>
        <time>2021-08-10T09:45:24.752Z</time>
      </trkpt>
      <trkpt lat="46.95988" lon="8.58314">
        <ele>830</ele>
        <time>2021-08-10T09:45:25.752Z</time>
      </trkpt>
      <trkpt lat="46.95987" lon="8.58313">
        <ele>830</ele>
        <time>2021-08-10T09:45:26.752Z</time>
      </trkpt>
      <trkpt lat="46.95986" lon="8.58313">
        <ele>830</ele>
        <time>2021-08-10T09:45:27.752Z</time>
      </trkpt>
      <trkpt lat="46.95985" lon="8.58312">
        <ele>830</ele>
        <time>2021-08-10T09:45:28.752Z</time>
      </trkpt>
      <trkpt lat="46.95985" lon="8.58311">
        <ele>829</ele>
        <time>2021-08-10T09:45:29.752Z</time>
      </trkpt>
      <trkpt lat="46.95984" lon="8.58311">
        <ele>829</ele>
        <time>2021-08-10T09:45:30.753Z</time>
      </trkpt>
      <trkpt lat="46.95984" lon="8.58311">
        <ele>830</ele>
        <time>2021-08-10T09:45:31.753Z</time>
      </trkpt>
      <trkpt lat="46.95983" lon="8.58313">
        <ele>830</ele>
        <time>2021-08-10T09:45:32.752Z</time>
      </trkpt>
      <trkpt lat="46.95983" lon="8.58314">
        <ele>831</ele>
        <time>2021-08-10T09:45:33.753Z</time>
      </trkpt>
      <trkpt lat="46.95983" lon="8.58312">
        <ele>831</ele>
        <time>2021-08-10T09:45:34.753Z</time>
      </trkpt>
      <trkpt lat="46.95982" lon="8.58311">
        <ele>832</ele>
        <time>2021-08-10T09:45:35.753Z</time>
      </trkpt>
      <trkpt lat="46.95982" lon="8.58311">
        <ele>832</ele>
        <time>2021-08-10T09:45:36.753Z</time>
      </trkpt>
      <trkpt lat="46.95981" lon="8.5831">
        <ele>832</ele>
        <time>2021-08-10T09:45:37.752Z</time>
      </trkpt>
      <trkpt lat="46.95981" lon="8.58309">
        <ele>832</ele>
        <time>2021-08-10T09:45:38.753Z</time>
      </trkpt>
      <trkpt lat="46.9598" lon="8.58308">
        <ele>832</ele>
        <time>2021-08-10T09:45:39.753Z</time>
      </trkpt>
      <trkpt lat="46.9598" lon="8.58307">
        <ele>832</ele>
        <time>2021-08-10T09:45:40.753Z</time>
      </trkpt>
      <trkpt lat="46.95979" lon="8.58306">
        <ele>832</ele>
        <time>2021-08-10T09:45:41.753Z</time>
      </trkpt>
      <trkpt lat="46.95979" lon="8.58305">
        <ele>833</ele>
        <time>2021-08-10T09:45:42.752Z</time>
      </trkpt>
      <trkpt lat="46.95978" lon="8.58304">
        <ele>833</ele>
        <time>2021-08-10T09:45:43.753Z</time>
      </trkpt>
      <trkpt lat="46.95977" lon="8.58303">
        <ele>833</ele>
        <time>2021-08-10T09:45:44.752Z</time>
      </trkpt>
      <trkpt lat="46.95976" lon="8.58303">
        <ele>833</ele>
        <time>2021-08-10T09:45:45.752Z</time>
      </trkpt>
      <trkpt lat="46.95975" lon="8.58302">
        <ele>833</ele>
        <time>2021-08-10T09:45:46.752Z</time>
      </trkpt>
      <trkpt lat="46.95974" lon="8.58302">
        <ele>833</ele>
        <time>2021-08-10T09:45:47.753Z</time>
      </trkpt>
      <trkpt lat="46.95973" lon="8.58301">
        <ele>833</ele>
        <time>2021-08-10T09:45:48.753Z</time>
      </trkpt>
      <trkpt lat="46.95973" lon="8.583">
        <ele>833</ele>
        <time>2021-08-10T09:45:49.752Z</time>
      </trkpt>
      <trkpt lat="46.95972" lon="8.58299">
        <ele>833</ele>
        <time>2021-08-10T09:45:50.753Z</time>
      </trkpt>
      <trkpt lat="46.95971" lon="8.58298">
        <ele>833</ele>
        <time>2021-08-10T09:45:51.753Z</time>
      </trkpt>
      <trkpt lat="46.9597" lon="8.58296">
        <ele>832</ele>
        <time>2021-08-10T09:45:52.753Z</time>
      </trkpt>
      <trkpt lat="46.95969" lon="8.58295">
        <ele>832</ele>
        <time>2021-08-10T09:45:53.753Z</time>
      </trkpt>
      <trkpt lat="46.95968" lon="8.58295">
        <ele>831</ele>
        <time>2021-08-10T09:45:54.752Z</time>
      </trkpt>
      <trkpt lat="46.95968" lon="8.58294">
        <ele>831</ele>
        <time>2021-08-10T09:45:55.752Z</time>
      </trkpt>
      <trkpt lat="46.95967" lon="8.58292">
        <ele>831</ele>
        <time>2021-08-10T09:45:56.752Z</time>
      </trkpt>
      <trkpt lat="46.95967" lon="8.58291">
        <ele>831</ele>
        <time>2021-08-10T09:45:57.753Z</time>
      </trkpt>
      <trkpt lat="46.95966" lon="8.5829">
        <ele>832</ele>
        <time>2021-08-10T09:45:58.752Z</time>
      </trkpt>
      <trkpt lat="46.95965" lon="8.58288">
        <ele>831</ele>
        <time>2021-08-10T09:45:59.752Z</time>
      </trkpt>
      <trkpt lat="46.95964" lon="8.58287">
        <ele>831</ele>
        <time>2021-08-10T09:46:00.753Z</time>
      </trkpt>
      <trkpt lat="46.95964" lon="8.58286">
        <ele>831</ele>
        <time>2021-08-10T09:46:01.752Z</time>
      </trkpt>
      <trkpt lat="46.95963" lon="8.58284">
        <ele>831</ele>
        <time>2021-08-10T09:46:02.752Z</time>
      </trkpt>
      <trkpt lat="46.95962" lon="8.58283">
        <ele>831</ele>
        <time>2021-08-10T09:46:03.752Z</time>
      </trkpt>
      <trkpt lat="46.95961" lon="8.58282">
        <ele>831</ele>
        <time>2021-08-10T09:46:04.752Z</time>
      </trkpt>
      <trkpt lat="46.95961" lon="8.58281">
        <ele>831</ele>
        <time>2021-08-10T09:46:05.752Z</time>
      </trkpt>
      <trkpt lat="46.9596" lon="8.5828">
        <ele>831</ele>
        <time>2021-08-10T09:46:06.752Z</time>
      </trkpt>
      <trkpt lat="46.95959" lon="8.58279">
        <ele>831</ele>
        <time>2021-08-10T09:46:07.752Z</time>
      </trkpt>
      <trkpt lat="46.95959" lon="8.58277">
        <ele>831</ele>
        <time>2021-08-10T09:46:08.752Z</time>
      </trkpt>
      <trkpt lat="46.95958" lon="8.58276">
        <ele>831</ele>
        <time>2021-08-10T09:46:09.752Z</time>
      </trkpt>
      <trkpt lat="46.95957" lon="8.58275">
        <ele>831</ele>
        <time>2021-08-10T09:46:10.752Z</time>
      </trkpt>
      <trkpt lat="46.95956" lon="8.58274">
        <ele>831</ele>
        <time>2021-08-10T09:46:11.753Z</time>
      </trkpt>
      <trkpt lat="46.95955" lon="8.58273">
        <ele>831</ele>
        <time>2021-08-10T09:46:12.752Z</time>
      </trkpt>
      <trkpt lat="46.95955" lon="8.58272">
        <ele>831</ele>
        <time>2021-08-10T09:46:13.753Z</time>
      </trkpt>
      <trkpt lat="46.95954" lon="8.58271">
        <ele>831</ele>
        <time>2021-08-10T09:46:14.752Z</time>
      </trkpt>
      <trkpt lat="46.95953" lon="8.5827">
        <ele>831</ele>
        <time>2021-08-10T09:46:15.753Z</time>
      </trkpt>
      <trkpt lat="46.95952" lon="8.58268">
        <ele>831</ele>
        <time>2021-08-10T09:46:16.752Z</time>
      </trkpt>
      <trkpt lat="46.95952" lon="8.58267">
        <ele>831</ele>
        <time>2021-08-10T09:46:17.752Z</time>
      </trkpt>
      <trkpt lat="46.95951" lon="8.58266">
        <ele>832</ele>
        <time>2021-08-10T09:46:18.752Z</time>
      </trkpt>
      <trkpt lat="46.9595" lon="8.58264">
        <ele>832</ele>
        <time>2021-08-10T09:46:19.753Z</time>
      </trkpt>
      <trkpt lat="46.95949" lon="8.58263">
        <ele>832</ele>
        <time>2021-08-10T09:46:20.753Z</time>
      </trkpt>
      <trkpt lat="46.95948" lon="8.58261">
        <ele>832</ele>
        <time>2021-08-10T09:46:21.752Z</time>
      </trkpt>
      <trkpt lat="46.95947" lon="8.5826">
        <ele>832</ele>
        <time>2021-08-10T09:46:22.753Z</time>
      </trkpt>
      <trkpt lat="46.95946" lon="8.58259">
        <ele>832</ele>
        <time>2021-08-10T09:46:23.753Z</time>
      </trkpt>
      <trkpt lat="46.95945" lon="8.58258">
        <ele>832</ele>
        <time>2021-08-10T09:46:24.753Z</time>
      </trkpt>
      <trkpt lat="46.95944" lon="8.58257">
        <ele>832</ele>
        <time>2021-08-10T09:46:25.752Z</time>
      </trkpt>
      <trkpt lat="46.95943" lon="8.58257">
        <ele>832</ele>
        <time>2021-08-10T09:46:26.753Z</time>
      </trkpt>
      <trkpt lat="46.95942" lon="8.58256">
        <ele>832</ele>
        <time>2021-08-10T09:46:27.753Z</time>
      </trkpt>
      <trkpt lat="46.95941" lon="8.58255">
        <ele>832</ele>
        <time>2021-08-10T09:46:28.752Z</time>
      </trkpt>
      <trkpt lat="46.9594" lon="8.58254">
        <ele>832</ele>
        <time>2021-08-10T09:46:29.752Z</time>
      </trkpt>
      <trkpt lat="46.95939" lon="8.58253">
        <ele>833</ele>
        <time>2021-08-10T09:46:30.753Z</time>
      </trkpt>
      <trkpt lat="46.95938" lon="8.58252">
        <ele>833</ele>
        <time>2021-08-10T09:46:31.752Z</time>
      </trkpt>
      <trkpt lat="46.95937" lon="8.58251">
        <ele>833</ele>
        <time>2021-08-10T09:46:32.753Z</time>
      </trkpt>
      <trkpt lat="46.95936" lon="8.5825">
        <ele>833</ele>
        <time>2021-08-10T09:46:33.752Z</time>
      </trkpt>
      <trkpt lat="46.95935" lon="8.58249">
        <ele>832</ele>
        <time>2021-08-10T09:46:34.752Z</time>
      </trkpt>
      <trkpt lat="46.95934" lon="8.58249">
        <ele>832</ele>
        <time>2021-08-10T09:46:35.753Z</time>
      </trkpt>
      <trkpt lat="46.95933" lon="8.58248">
        <ele>832</ele>
        <time>2021-08-10T09:46:36.752Z</time>
      </trkpt>
      <trkpt lat="46.95932" lon="8.58248">
        <ele>832</ele>
        <time>2021-08-10T09:46:37.752Z</time>
      </trkpt>
      <trkpt lat="46.95931" lon="8.58247">
        <ele>833</ele>
        <time>2021-08-10T09:46:38.752Z</time>
      </trkpt>
      <trkpt lat="46.9593" lon="8.58247">
        <ele>833</ele>
        <time>2021-08-10T09:46:39.752Z</time>
      </trkpt>
      <trkpt lat="46.95929" lon="8.58246">
        <ele>833</ele>
        <time>2021-08-10T09:46:40.753Z</time>
      </trkpt>
      <trkpt lat="46.95928" lon="8.58245">
        <ele>834</ele>
        <time>2021-08-10T09:46:41.752Z</time>
      </trkpt>
      <trkpt lat="46.95927" lon="8.58244">
        <ele>834</ele>
        <time>2021-08-10T09:46:42.753Z</time>
      </trkpt>
      <trkpt lat="46.95926" lon="8.58243">
        <ele>834</ele>
        <time>2021-08-10T09:46:43.753Z</time>
      </trkpt>
      <trkpt lat="46.95925" lon="8.58243">
        <ele>834</ele>
        <time>2021-08-10T09:46:44.753Z</time>
      </trkpt>
      <trkpt lat="46.95924" lon="8.58242">
        <ele>834</ele>
        <time>2021-08-10T09:46:45.752Z</time>
      </trkpt>
      <trkpt lat="46.95923" lon="8.58241">
        <ele>834</ele>
        <time>2021-08-10T09:46:46.752Z</time>
      </trkpt>
      <trkpt lat="46.95922" lon="8.5824">
        <ele>833</ele>
        <time>2021-08-10T09:46:47.752Z</time>
      </trkpt>
      <trkpt lat="46.95922" lon="8.58239">
        <ele>833</ele>
        <time>2021-08-10T09:46:48.753Z</time>
      </trkpt>
      <trkpt lat="46.95921" lon="8.58238">
        <ele>833</ele>
        <time>2021-08-10T09:46:49.752Z</time>
      </trkpt>
      <trkpt lat="46.95919" lon="8.58237">
        <ele>833</ele>
        <time>2021-08-10T09:46:50.753Z</time>
      </trkpt>
      <trkpt lat="46.95919" lon="8.58236">
        <ele>834</ele>
        <time>2021-08-10T09:46:51.753Z</time>
      </trkpt>
      <trkpt lat="46.95918" lon="8.58235">
        <ele>834</ele>
        <time>2021-08-10T09:46:52.752Z</time>
      </trkpt>
      <trkpt lat="46.95916" lon="8.58234">
        <ele>834</ele>
        <time>2021-08-10T09:46:53.753Z</time>
      </trkpt>
      <trkpt lat="46.95915" lon="8.58233">
        <ele>835</ele>
        <time>2021-08-10T09:46:54.752Z</time>
      </trkpt>
      <trkpt lat="46.95914" lon="8.58232">
        <ele>835</ele>
        <time>2021-08-10T09:46:55.753Z</time>
      </trkpt>
      <trkpt lat="46.95913" lon="8.58232">
        <ele>836</ele>
        <time>2021-08-10T09:46:56.752Z</time>
      </trkpt>
      <trkpt lat="46.95912" lon="8.58231">
        <ele>836</ele>
        <time>2021-08-10T09:46:57.752Z</time>
      </trkpt>
      <trkpt lat="46.9591" lon="8.58231">
        <ele>836</ele>
        <time>2021-08-10T09:46:58.753Z</time>
      </trkpt>
      <trkpt lat="46.95909" lon="8.58231">
        <ele>835</ele>
        <time>2021-08-10T09:46:59.752Z</time>
      </trkpt>
      <trkpt lat="46.95908" lon="8.5823">
        <ele>835</ele>
        <time>2021-08-10T09:47:00.752Z</time>
      </trkpt>
      <trkpt lat="46.95907" lon="8.5823">
        <ele>835</ele>
        <time>2021-08-10T09:47:01.752Z</time>
      </trkpt>
      <trkpt lat="46.95906" lon="8.58229">
        <ele>835</ele>
        <time>2021-08-10T09:47:02.752Z</time>
      </trkpt>
      <trkpt lat="46.95905" lon="8.58229">
        <ele>835</ele>
        <time>2021-08-10T09:47:03.753Z</time>
      </trkpt>
      <trkpt lat="46.95903" lon="8.58228">
        <ele>835</ele>
        <time>2021-08-10T09:47:04.753Z</time>
      </trkpt>
      <trkpt lat="46.95902" lon="8.58228">
        <ele>834</ele>
        <time>2021-08-10T09:47:05.752Z</time>
      </trkpt>
      <trkpt lat="46.95901" lon="8.58227">
        <ele>834</ele>
        <time>2021-08-10T09:47:06.753Z</time>
      </trkpt>
      <trkpt lat="46.959" lon="8.58226">
        <ele>834</ele>
        <time>2021-08-10T09:47:07.752Z</time>
      </trkpt>
      <trkpt lat="46.95898" lon="8.58226">
        <ele>834</ele>
        <time>2021-08-10T09:47:08.752Z</time>
      </trkpt>
      <trkpt lat="46.95897" lon="8.58225">
        <ele>835</ele>
        <time>2021-08-10T09:47:09.753Z</time>
      </trkpt>
      <trkpt lat="46.95896" lon="8.58224">
        <ele>835</ele>
        <time>2021-08-10T09:47:10.752Z</time>
      </trkpt>
      <trkpt lat="46.95895" lon="8.58223">
        <ele>835</ele>
        <time>2021-08-10T09:47:11.752Z</time>
      </trkpt>
      <trkpt lat="46.95894" lon="8.58223">
        <ele>835</ele>
        <time>2021-08-10T09:47:12.752Z</time>
      </trkpt>
      <trkpt lat="46.95893" lon="8.58223">
        <ele>836</ele>
        <time>2021-08-10T09:47:13.753Z</time>
      </trkpt>
      <trkpt lat="46.95892" lon="8.58223">
        <ele>835</ele>
        <time>2021-08-10T09:47:14.753Z</time>
      </trkpt>
      <trkpt lat="46.95892" lon="8.58223">
        <ele>835</ele>
        <time>2021-08-10T09:47:15.752Z</time>
      </trkpt>
      <trkpt lat="46.9589" lon="8.58223">
        <ele>835</ele>
        <time>2021-08-10T09:47:16.752Z</time>
      </trkpt>
      <trkpt lat="46.95889" lon="8.58223">
        <ele>835</ele>
        <time>2021-08-10T09:47:17.753Z</time>
      </trkpt>
      <trkpt lat="46.95888" lon="8.58223">
        <ele>835</ele>
        <time>2021-08-10T09:47:18.753Z</time>
      </trkpt>
      <trkpt lat="46.95887" lon="8.58223">
        <ele>834</ele>
        <time>2021-08-10T09:47:19.753Z</time>
      </trkpt>
      <trkpt lat="46.95886" lon="8.58223">
        <ele>834</ele>
        <time>2021-08-10T09:47:20.752Z</time>
      </trkpt>
      <trkpt lat="46.95885" lon="8.58223">
        <ele>834</ele>
        <time>2021-08-10T09:47:21.753Z</time>
      </trkpt>
      <trkpt lat="46.95884" lon="8.58223">
        <ele>833</ele>
        <time>2021-08-10T09:47:22.753Z</time>
      </trkpt>
      <trkpt lat="46.95882" lon="8.58222">
        <ele>833</ele>
        <time>2021-08-10T09:47:23.753Z</time>
      </trkpt>
      <trkpt lat="46.95881" lon="8.58222">
        <ele>832</ele>
        <time>2021-08-10T09:47:24.753Z</time>
      </trkpt>
      <trkpt lat="46.9588" lon="8.58222">
        <ele>832</ele>
        <time>2021-08-10T09:47:25.752Z</time>
      </trkpt>
      <trkpt lat="46.95879" lon="8.58221">
        <ele>832</ele>
        <time>2021-08-10T09:47:26.752Z</time>
      </trkpt>
      <trkpt lat="46.95878" lon="8.58221">
        <ele>832</ele>
        <time>2021-08-10T09:47:27.752Z</time>
      </trkpt>
      <trkpt lat="46.95877" lon="8.5822">
        <ele>832</ele>
        <time>2021-08-10T09:47:28.752Z</time>
      </trkpt>
      <trkpt lat="46.95876" lon="8.5822">
        <ele>832</ele>
        <time>2021-08-10T09:47:29.752Z</time>
      </trkpt>
      <trkpt lat="46.95874" lon="8.5822">
        <ele>832</ele>
        <time>2021-08-10T09:47:30.752Z</time>
      </trkpt>
      <trkpt lat="46.95873" lon="8.5822">
        <ele>832</ele>
        <time>2021-08-10T09:47:31.752Z</time>
      </trkpt>
      <trkpt lat="46.95872" lon="8.5822">
        <ele>832</ele>
        <time>2021-08-10T09:47:32.752Z</time>
      </trkpt>
      <trkpt lat="46.95871" lon="8.5822">
        <ele>831</ele>
        <time>2021-08-10T09:47:33.753Z</time>
      </trkpt>
      <trkpt lat="46.9587" lon="8.58219">
        <ele>831</ele>
        <time>2021-08-10T09:47:34.753Z</time>
      </trkpt>
      <trkpt lat="46.95869" lon="8.58219">
        <ele>831</ele>
        <time>2021-08-10T09:47:35.753Z</time>
      </trkpt>
      <trkpt lat="46.95868" lon="8.5822">
        <ele>831</ele>
        <time>2021-08-10T09:47:36.752Z</time>
      </trkpt>
      <trkpt lat="46.95867" lon="8.58219">
        <ele>831</ele>
        <time>2021-08-10T09:47:37.752Z</time>
      </trkpt>
      <trkpt lat="46.95865" lon="8.58219">
        <ele>831</ele>
        <time>2021-08-10T09:47:38.753Z</time>
      </trkpt>
      <trkpt lat="46.95865" lon="8.58219">
        <ele>831</ele>
        <time>2021-08-10T09:47:39.753Z</time>
      </trkpt>
      <trkpt lat="46.95863" lon="8.58218">
        <ele>831</ele>
        <time>2021-08-10T09:47:40.752Z</time>
      </trkpt>
      <trkpt lat="46.95862" lon="8.58217">
        <ele>831</ele>
        <time>2021-08-10T09:47:41.753Z</time>
      </trkpt>
      <trkpt lat="46.9586" lon="8.58217">
        <ele>831</ele>
        <time>2021-08-10T09:47:42.753Z</time>
      </trkpt>
      <trkpt lat="46.95859" lon="8.58216">
        <ele>831</ele>
        <time>2021-08-10T09:47:43.752Z</time>
      </trkpt>
      <trkpt lat="46.95858" lon="8.58216">
        <ele>831</ele>
        <time>2021-08-10T09:47:44.753Z</time>
      </trkpt>
      <trkpt lat="46.95857" lon="8.58216">
        <ele>831</ele>
        <time>2021-08-10T09:47:45.753Z</time>
      </trkpt>
      <trkpt lat="46.95856" lon="8.58216">
        <ele>831</ele>
        <time>2021-08-10T09:47:46.753Z</time>
      </trkpt>
      <trkpt lat="46.95855" lon="8.58216">
        <ele>831</ele>
        <time>2021-08-10T09:47:47.752Z</time>
      </trkpt>
      <trkpt lat="46.95853" lon="8.58216">
        <ele>831</ele>
        <time>2021-08-10T09:47:48.752Z</time>
      </trkpt>
      <trkpt lat="46.95852" lon="8.58215">
        <ele>832</ele>
        <time>2021-08-10T09:47:49.753Z</time>
      </trkpt>
      <trkpt lat="46.95851" lon="8.58215">
        <ele>832</ele>
        <time>2021-08-10T09:47:50.753Z</time>
      </trkpt>
      <trkpt lat="46.9585" lon="8.58215">
        <ele>832</ele>
        <time>2021-08-10T09:47:51.753Z</time>
      </trkpt>
      <trkpt lat="46.95848" lon="8.58215">
        <ele>832</ele>
        <time>2021-08-10T09:47:52.753Z</time>
      </trkpt>
      <trkpt lat="46.95847" lon="8.58214">
        <ele>832</ele>
        <time>2021-08-10T09:47:53.752Z</time>
      </trkpt>
      <trkpt lat="46.95846" lon="8.58214">
        <ele>833</ele>
        <time>2021-08-10T09:47:54.753Z</time>
      </trkpt>
      <trkpt lat="46.95844" lon="8.58214">
        <ele>833</ele>
        <time>2021-08-10T09:47:55.752Z</time>
      </trkpt>
      <trkpt lat="46.95843" lon="8.58213">
        <ele>833</ele>
        <time>2021-08-10T09:47:56.753Z</time>
      </trkpt>
      <trkpt lat="46.95842" lon="8.58213">
        <ele>833</ele>
        <time>2021-08-10T09:47:57.753Z</time>
      </trkpt>
      <trkpt lat="46.95841" lon="8.58213">
        <ele>833</ele>
        <time>2021-08-10T09:47:58.752Z</time>
      </trkpt>
      <trkpt lat="46.9584" lon="8.58212">
        <ele>833</ele>
        <time>2021-08-10T09:47:59.753Z</time>
      </trkpt>
      <trkpt lat="46.95839" lon="8.58212">
        <ele>834</ele>
        <time>2021-08-10T09:48:00.752Z</time>
      </trkpt>
      <trkpt lat="46.95837" lon="8.58212">
        <ele>834</ele>
        <time>2021-08-10T09:48:01.753Z</time>
      </trkpt>
      <trkpt lat="46.95836" lon="8.58212">
        <ele>834</ele>
        <time>2021-08-10T09:48:02.753Z</time>
      </trkpt>
      <trkpt lat="46.95835" lon="8.58213">
        <ele>834</ele>
        <time>2021-08-10T09:48:03.753Z</time>
      </trkpt>
      <trkpt lat="46.95833" lon="8.58213">
        <ele>834</ele>
        <time>2021-08-10T09:48:04.753Z</time>
      </trkpt>
      <trkpt lat="46.95832" lon="8.58213">
        <ele>834</ele>
        <time>2021-08-10T09:48:05.752Z</time>
      </trkpt>
      <trkpt lat="46.95831" lon="8.58213">
        <ele>835</ele>
        <time>2021-08-10T09:48:06.753Z</time>
      </trkpt>
      <trkpt lat="46.9583" lon="8.58213">
        <ele>835</ele>
        <time>2021-08-10T09:48:07.753Z</time>
      </trkpt>
      <trkpt lat="46.95829" lon="8.58212">
        <ele>835</ele>
        <time>2021-08-10T09:48:08.752Z</time>
      </trkpt>
      <trkpt lat="46.95828" lon="8.58211">
        <ele>835</ele>
        <time>2021-08-10T09:48:09.752Z</time>
      </trkpt>
      <trkpt lat="46.95826" lon="8.58211">
        <ele>834</ele>
        <time>2021-08-10T09:48:10.752Z</time>
      </trkpt>
      <trkpt lat="46.95825" lon="8.5821">
        <ele>834</ele>
        <time>2021-08-10T09:48:11.752Z</time>
      </trkpt>
      <trkpt lat="46.95824" lon="8.5821">
        <ele>834</ele>
        <time>2021-08-10T09:48:12.753Z</time>
      </trkpt>
      <trkpt lat="46.95823" lon="8.5821">
        <ele>835</ele>
        <time>2021-08-10T09:48:13.752Z</time>
      </trkpt>
      <trkpt lat="46.95822" lon="8.5821">
        <ele>835</ele>
        <time>2021-08-10T09:48:14.753Z</time>
      </trkpt>
      <trkpt lat="46.9582" lon="8.5821">
        <ele>835</ele>
        <time>2021-08-10T09:48:15.753Z</time>
      </trkpt>
      <trkpt lat="46.95819" lon="8.5821">
        <ele>835</ele>
        <time>2021-08-10T09:48:16.753Z</time>
      </trkpt>
      <trkpt lat="46.95818" lon="8.5821">
        <ele>835</ele>
        <time>2021-08-10T09:48:17.752Z</time>
      </trkpt>
      <trkpt lat="46.95817" lon="8.58209">
        <ele>835</ele>
        <time>2021-08-10T09:48:18.753Z</time>
      </trkpt>
      <trkpt lat="46.95816" lon="8.58208">
        <ele>834</ele>
        <time>2021-08-10T09:48:19.752Z</time>
      </trkpt>
      <trkpt lat="46.95815" lon="8.58207">
        <ele>834</ele>
        <time>2021-08-10T09:48:20.753Z</time>
      </trkpt>
      <trkpt lat="46.95815" lon="8.58207">
        <ele>834</ele>
        <time>2021-08-10T09:48:21.753Z</time>
      </trkpt>
      <trkpt lat="46.95814" lon="8.58206">
        <ele>834</ele>
        <time>2021-08-10T09:48:22.753Z</time>
      </trkpt>
      <trkpt lat="46.95814" lon="8.58206">
        <ele>834</ele>
        <time>2021-08-10T09:48:23.752Z</time>
      </trkpt>
      <trkpt lat="46.95814" lon="8.58207">
        <ele>834</ele>
        <time>2021-08-10T09:48:24.753Z</time>
      </trkpt>
      <trkpt lat="46.95814" lon="8.58206">
        <ele>834</ele>
        <time>2021-08-10T09:48:25.753Z</time>
      </trkpt>
      <trkpt lat="46.95815" lon="8.58206">
        <ele>833</ele>
        <time>2021-08-10T09:48:26.752Z</time>
      </trkpt>
      <trkpt lat="46.95815" lon="8.58208">
        <ele>833</ele>
        <time>2021-08-10T09:48:27.754Z</time>
      </trkpt>
      <trkpt lat="46.95815" lon="8.58208">
        <ele>833</ele>
        <time>2021-08-10T09:48:28.754Z</time>
      </trkpt>
      <trkpt lat="46.95815" lon="8.58209">
        <ele>833</ele>
        <time>2021-08-10T09:48:29.753Z</time>
      </trkpt>
      <trkpt lat="46.95815" lon="8.58209">
        <ele>833</ele>
        <time>2021-08-10T09:48:30.753Z</time>
      </trkpt>
      <trkpt lat="46.95816" lon="8.58208">
        <ele>833</ele>
        <time>2021-08-10T09:48:31.754Z</time>
      </trkpt>
      <trkpt lat="46.95817" lon="8.58207">
        <ele>836</ele>
        <time>2021-08-10T09:48:32.754Z</time>
      </trkpt>
      <trkpt lat="46.95818" lon="8.58207">
        <ele>836</ele>
        <time>2021-08-10T09:48:33.754Z</time>
      </trkpt>
      <trkpt lat="46.95818" lon="8.58207">
        <ele>836</ele>
        <time>2021-08-10T09:48:34.753Z</time>
      </trkpt>
      <trkpt lat="46.95818" lon="8.58207">
        <ele>836</ele>
        <time>2021-08-10T09:48:35.754Z</time>
      </trkpt>
      <trkpt lat="46.95818" lon="8.58207">
        <ele>836</ele>
        <time>2021-08-10T09:48:36.753Z</time>
      </trkpt>
      <trkpt lat="46.95818" lon="8.5821">
        <ele>837</ele>
        <time>2021-08-10T09:48:37.756Z</time>
      </trkpt>
      <trkpt lat="46.95818" lon="8.5821">
        <ele>838</ele>
        <time>2021-08-10T09:48:38.755Z</time>
      </trkpt>
      <trkpt lat="46.95818" lon="8.58208">
        <ele>839</ele>
        <time>2021-08-10T09:48:39.755Z</time>
      </trkpt>
      <trkpt lat="46.95816" lon="8.5821">
        <ele>834</ele>
        <time>2021-08-10T09:48:40.757Z</time>
      </trkpt>
      <trkpt lat="46.95815" lon="8.5821">
        <ele>833</ele>
        <time>2021-08-10T09:48:41.756Z</time>
      </trkpt>
      <trkpt lat="46.95814" lon="8.5821">
        <ele>833</ele>
        <time>2021-08-10T09:48:42.757Z</time>
      </trkpt>
      <trkpt lat="46.95813" lon="8.5821">
        <ele>834</ele>
        <time>2021-08-10T09:48:43.756Z</time>
      </trkpt>
      <trkpt lat="46.95812" lon="8.58211">
        <ele>834</ele>
        <time>2021-08-10T09:48:44.757Z</time>
      </trkpt>
      <trkpt lat="46.95811" lon="8.58212">
        <ele>834</ele>
        <time>2021-08-10T09:48:45.757Z</time>
      </trkpt>
      <trkpt lat="46.9581" lon="8.58213">
        <ele>834</ele>
        <time>2021-08-10T09:48:46.757Z</time>
      </trkpt>
      <trkpt lat="46.95809" lon="8.58213">
        <ele>834</ele>
        <time>2021-08-10T09:48:47.756Z</time>
      </trkpt>
      <trkpt lat="46.95808" lon="8.58214">
        <ele>834</ele>
        <time>2021-08-10T09:48:48.757Z</time>
      </trkpt>
      <trkpt lat="46.95807" lon="8.58214">
        <ele>834</ele>
        <time>2021-08-10T09:48:49.756Z</time>
      </trkpt>
      <trkpt lat="46.95806" lon="8.58215">
        <ele>834</ele>
        <time>2021-08-10T09:48:50.756Z</time>
      </trkpt>
      <trkpt lat="46.95804" lon="8.58215">
        <ele>834</ele>
        <time>2021-08-10T09:48:51.757Z</time>
      </trkpt>
      <trkpt lat="46.95803" lon="8.58215">
        <ele>834</ele>
        <time>2021-08-10T09:48:52.756Z</time>
      </trkpt>
      <trkpt lat="46.95802" lon="8.58215">
        <ele>835</ele>
        <time>2021-08-10T09:48:53.757Z</time>
      </trkpt>
      <trkpt lat="46.95801" lon="8.58215">
        <ele>835</ele>
        <time>2021-08-10T09:48:54.757Z</time>
      </trkpt>
      <trkpt lat="46.958" lon="8.58216">
        <ele>835</ele>
        <time>2021-08-10T09:48:55.757Z</time>
      </trkpt>
      <trkpt lat="46.95799" lon="8.58216">
        <ele>835</ele>
        <time>2021-08-10T09:48:56.757Z</time>
      </trkpt>
      <trkpt lat="46.95798" lon="8.58216">
        <ele>835</ele>
        <time>2021-08-10T09:48:57.757Z</time>
      </trkpt>
      <trkpt lat="46.95796" lon="8.58216">
        <ele>834</ele>
        <time>2021-08-10T09:48:58.756Z</time>
      </trkpt>
      <trkpt lat="46.95795" lon="8.58216">
        <ele>834</ele>
        <time>2021-08-10T09:48:59.756Z</time>
      </trkpt>
      <trkpt lat="46.95794" lon="8.58217">
        <ele>834</ele>
        <time>2021-08-10T09:49:00.756Z</time>
      </trkpt>
      <trkpt lat="46.95792" lon="8.58217">
        <ele>833</ele>
        <time>2021-08-10T09:49:01.757Z</time>
      </trkpt>
      <trkpt lat="46.95791" lon="8.58218">
        <ele>833</ele>
        <time>2021-08-10T09:49:02.757Z</time>
      </trkpt>
      <trkpt lat="46.9579" lon="8.58219">
        <ele>833</ele>
        <time>2021-08-10T09:49:03.757Z</time>
      </trkpt>
      <trkpt lat="46.95789" lon="8.5822">
        <ele>833</ele>
        <time>2021-08-10T09:49:04.757Z</time>
      </trkpt>
      <trkpt lat="46.95788" lon="8.58221">
        <ele>833</ele>
        <time>2021-08-10T09:49:05.757Z</time>
      </trkpt>
      <trkpt lat="46.95787" lon="8.58221">
        <ele>833</ele>
        <time>2021-08-10T09:49:06.756Z</time>
      </trkpt>
      <trkpt lat="46.95785" lon="8.58222">
        <ele>833</ele>
        <time>2021-08-10T09:49:07.757Z</time>
      </trkpt>
      <trkpt lat="46.95784" lon="8.58223">
        <ele>833</ele>
        <time>2021-08-10T09:49:08.757Z</time>
      </trkpt>
      <trkpt lat="46.95783" lon="8.58224">
        <ele>833</ele>
        <time>2021-08-10T09:49:09.757Z</time>
      </trkpt>
      <trkpt lat="46.95782" lon="8.58225">
        <ele>833</ele>
        <time>2021-08-10T09:49:10.756Z</time>
      </trkpt>
      <trkpt lat="46.95781" lon="8.58226">
        <ele>833</ele>
        <time>2021-08-10T09:49:11.757Z</time>
      </trkpt>
      <trkpt lat="46.9578" lon="8.58227">
        <ele>832</ele>
        <time>2021-08-10T09:49:12.757Z</time>
      </trkpt>
      <trkpt lat="46.95779" lon="8.58228">
        <ele>832</ele>
        <time>2021-08-10T09:49:13.756Z</time>
      </trkpt>
      <trkpt lat="46.95778" lon="8.58229">
        <ele>832</ele>
        <time>2021-08-10T09:49:14.757Z</time>
      </trkpt>
      <trkpt lat="46.95777" lon="8.5823">
        <ele>832</ele>
        <time>2021-08-10T09:49:15.757Z</time>
      </trkpt>
      <trkpt lat="46.95775" lon="8.5823">
        <ele>831</ele>
        <time>2021-08-10T09:49:16.756Z</time>
      </trkpt>
      <trkpt lat="46.95774" lon="8.58231">
        <ele>831</ele>
        <time>2021-08-10T09:49:17.757Z</time>
      </trkpt>
      <trkpt lat="46.95773" lon="8.58232">
        <ele>831</ele>
        <time>2021-08-10T09:49:18.757Z</time>
      </trkpt>
      <trkpt lat="46.95772" lon="8.58231">
        <ele>830</ele>
        <time>2021-08-10T09:49:19.756Z</time>
      </trkpt>
      <trkpt lat="46.95771" lon="8.58232">
        <ele>830</ele>
        <time>2021-08-10T09:49:20.756Z</time>
      </trkpt>
      <trkpt lat="46.95769" lon="8.58234">
        <ele>830</ele>
        <time>2021-08-10T09:49:21.757Z</time>
      </trkpt>
      <trkpt lat="46.95768" lon="8.58234">
        <ele>830</ele>
        <time>2021-08-10T09:49:22.757Z</time>
      </trkpt>
      <trkpt lat="46.95767" lon="8.58236">
        <ele>830</ele>
        <time>2021-08-10T09:49:23.757Z</time>
      </trkpt>
      <trkpt lat="46.95766" lon="8.58237">
        <ele>830</ele>
        <time>2021-08-10T09:49:24.756Z</time>
      </trkpt>
      <trkpt lat="46.95765" lon="8.58238">
        <ele>830</ele>
        <time>2021-08-10T09:49:25.757Z</time>
      </trkpt>
      <trkpt lat="46.95764" lon="8.58239">
        <ele>830</ele>
        <time>2021-08-10T09:49:26.756Z</time>
      </trkpt>
      <trkpt lat="46.95763" lon="8.5824">
        <ele>830</ele>
        <time>2021-08-10T09:49:27.757Z</time>
      </trkpt>
      <trkpt lat="46.95762" lon="8.58242">
        <ele>831</ele>
        <time>2021-08-10T09:49:28.757Z</time>
      </trkpt>
      <trkpt lat="46.9576" lon="8.58243">
        <ele>831</ele>
        <time>2021-08-10T09:49:29.756Z</time>
      </trkpt>
      <trkpt lat="46.95759" lon="8.58244">
        <ele>832</ele>
        <time>2021-08-10T09:49:30.757Z</time>
      </trkpt>
      <trkpt lat="46.95759" lon="8.58246">
        <ele>832</ele>
        <time>2021-08-10T09:49:31.757Z</time>
      </trkpt>
      <trkpt lat="46.95758" lon="8.58248">
        <ele>832</ele>
        <time>2021-08-10T09:49:32.756Z</time>
      </trkpt>
      <trkpt lat="46.95757" lon="8.5825">
        <ele>832</ele>
        <time>2021-08-10T09:49:33.757Z</time>
      </trkpt>
      <trkpt lat="46.95756" lon="8.58251">
        <ele>832</ele>
        <time>2021-08-10T09:49:34.756Z</time>
      </trkpt>
      <trkpt lat="46.95755" lon="8.58252">
        <ele>831</ele>
        <time>2021-08-10T09:49:35.757Z</time>
      </trkpt>
      <trkpt lat="46.95754" lon="8.58253">
        <ele>831</ele>
        <time>2021-08-10T09:49:36.757Z</time>
      </trkpt>
      <trkpt lat="46.95753" lon="8.58256">
        <ele>831</ele>
        <time>2021-08-10T09:49:37.757Z</time>
      </trkpt>
      <trkpt lat="46.95752" lon="8.58257">
        <ele>830</ele>
        <time>2021-08-10T09:49:38.757Z</time>
      </trkpt>
      <trkpt lat="46.95751" lon="8.58259">
        <ele>829</ele>
        <time>2021-08-10T09:49:39.756Z</time>
      </trkpt>
      <trkpt lat="46.9575" lon="8.5826">
        <ele>829</ele>
        <time>2021-08-10T09:49:40.756Z</time>
      </trkpt>
      <trkpt lat="46.95749" lon="8.58262">
        <ele>829</ele>
        <time>2021-08-10T09:49:41.757Z</time>
      </trkpt>
      <trkpt lat="46.95748" lon="8.58263">
        <ele>828</ele>
        <time>2021-08-10T09:49:42.756Z</time>
      </trkpt>
      <trkpt lat="46.95747" lon="8.58264">
        <ele>828</ele>
        <time>2021-08-10T09:49:43.756Z</time>
      </trkpt>
      <trkpt lat="46.95746" lon="8.58265">
        <ele>827</ele>
        <time>2021-08-10T09:49:44.756Z</time>
      </trkpt>
      <trkpt lat="46.95745" lon="8.58266">
        <ele>827</ele>
        <time>2021-08-10T09:49:45.756Z</time>
      </trkpt>
      <trkpt lat="46.95744" lon="8.58268">
        <ele>826</ele>
        <time>2021-08-10T09:49:46.757Z</time>
      </trkpt>
      <trkpt lat="46.95743" lon="8.58268">
        <ele>826</ele>
        <time>2021-08-10T09:49:47.756Z</time>
      </trkpt>
      <trkpt lat="46.95742" lon="8.5827">
        <ele>826</ele>
        <time>2021-08-10T09:49:48.756Z</time>
      </trkpt>
      <trkpt lat="46.95742" lon="8.58271">
        <ele>825</ele>
        <time>2021-08-10T09:49:49.756Z</time>
      </trkpt>
      <trkpt lat="46.95741" lon="8.58272">
        <ele>825</ele>
        <time>2021-08-10T09:49:50.756Z</time>
      </trkpt>
      <trkpt lat="46.9574" lon="8.58273">
        <ele>825</ele>
        <time>2021-08-10T09:49:51.756Z</time>
      </trkpt>
      <trkpt lat="46.95739" lon="8.58274">
        <ele>825</ele>
        <time>2021-08-10T09:49:52.756Z</time>
      </trkpt>
      <trkpt lat="46.95738" lon="8.58276">
        <ele>825</ele>
        <time>2021-08-10T09:49:53.756Z</time>
      </trkpt>
      <trkpt lat="46.95737" lon="8.58277">
        <ele>825</ele>
        <time>2021-08-10T09:49:54.756Z</time>
      </trkpt>
      <trkpt lat="46.95736" lon="8.58277">
        <ele>825</ele>
        <time>2021-08-10T09:49:55.756Z</time>
      </trkpt>
      <trkpt lat="46.95734" lon="8.58277">
        <ele>826</ele>
        <time>2021-08-10T09:49:56.756Z</time>
      </trkpt>
      <trkpt lat="46.95732" lon="8.58278">
        <ele>826</ele>
        <time>2021-08-10T09:49:57.756Z</time>
      </trkpt>
      <trkpt lat="46.95731" lon="8.58279">
        <ele>826</ele>
        <time>2021-08-10T09:49:58.757Z</time>
      </trkpt>
      <trkpt lat="46.9573" lon="8.5828">
        <ele>826</ele>
        <time>2021-08-10T09:49:59.756Z</time>
      </trkpt>
      <trkpt lat="46.9573" lon="8.58282">
        <ele>825</ele>
        <time>2021-08-10T09:50:00.756Z</time>
      </trkpt>
      <trkpt lat="46.95729" lon="8.58283">
        <ele>824</ele>
        <time>2021-08-10T09:50:01.756Z</time>
      </trkpt>
      <trkpt lat="46.95729" lon="8.58284">
        <ele>823</ele>
        <time>2021-08-10T09:50:02.757Z</time>
      </trkpt>
      <trkpt lat="46.95727" lon="8.58285">
        <ele>822</ele>
        <time>2021-08-10T09:50:03.756Z</time>
      </trkpt>
      <trkpt lat="46.95726" lon="8.58286">
        <ele>821</ele>
        <time>2021-08-10T09:50:04.757Z</time>
      </trkpt>
      <trkpt lat="46.95726" lon="8.58288">
        <ele>820</ele>
        <time>2021-08-10T09:50:05.756Z</time>
      </trkpt>
      <trkpt lat="46.95725" lon="8.58289">
        <ele>819</ele>
        <time>2021-08-10T09:50:06.757Z</time>
      </trkpt>
      <trkpt lat="46.95724" lon="8.5829">
        <ele>818</ele>
        <time>2021-08-10T09:50:07.757Z</time>
      </trkpt>
      <trkpt lat="46.95723" lon="8.58291">
        <ele>818</ele>
        <time>2021-08-10T09:50:08.756Z</time>
      </trkpt>
      <trkpt lat="46.95722" lon="8.58293">
        <ele>818</ele>
        <time>2021-08-10T09:50:09.756Z</time>
      </trkpt>
      <trkpt lat="46.95722" lon="8.58294">
        <ele>818</ele>
        <time>2021-08-10T09:50:10.756Z</time>
      </trkpt>
      <trkpt lat="46.95721" lon="8.58294">
        <ele>818</ele>
        <time>2021-08-10T09:50:11.756Z</time>
      </trkpt>
      <trkpt lat="46.95721" lon="8.58295">
        <ele>818</ele>
        <time>2021-08-10T09:50:12.756Z</time>
      </trkpt>
      <trkpt lat="46.9572" lon="8.58296">
        <ele>819</ele>
        <time>2021-08-10T09:50:13.756Z</time>
      </trkpt>
      <trkpt lat="46.9572" lon="8.58296">
        <ele>819</ele>
        <time>2021-08-10T09:50:14.756Z</time>
      </trkpt>
      <trkpt lat="46.95719" lon="8.58296">
        <ele>819</ele>
        <time>2021-08-10T09:50:15.757Z</time>
      </trkpt>
      <trkpt lat="46.95718" lon="8.58296">
        <ele>819</ele>
        <time>2021-08-10T09:50:16.756Z</time>
      </trkpt>
      <trkpt lat="46.95716" lon="8.58296">
        <ele>819</ele>
        <time>2021-08-10T09:50:17.756Z</time>
      </trkpt>
      <trkpt lat="46.95716" lon="8.58296">
        <ele>819</ele>
        <time>2021-08-10T09:50:18.757Z</time>
      </trkpt>
      <trkpt lat="46.95715" lon="8.58294">
        <ele>819</ele>
        <time>2021-08-10T09:50:19.756Z</time>
      </trkpt>
      <trkpt lat="46.95714" lon="8.58293">
        <ele>819</ele>
        <time>2021-08-10T09:50:20.756Z</time>
      </trkpt>
      <trkpt lat="46.95712" lon="8.58292">
        <ele>819</ele>
        <time>2021-08-10T09:50:21.756Z</time>
      </trkpt>
      <trkpt lat="46.95711" lon="8.58291">
        <ele>818</ele>
        <time>2021-08-10T09:50:22.756Z</time>
      </trkpt>
      <trkpt lat="46.9571" lon="8.58291">
        <ele>818</ele>
        <time>2021-08-10T09:50:23.757Z</time>
      </trkpt>
      <trkpt lat="46.95709" lon="8.58291">
        <ele>818</ele>
        <time>2021-08-10T09:50:24.757Z</time>
      </trkpt>
      <trkpt lat="46.95708" lon="8.58292">
        <ele>819</ele>
        <time>2021-08-10T09:50:25.756Z</time>
      </trkpt>
      <trkpt lat="46.95706" lon="8.58292">
        <ele>819</ele>
        <time>2021-08-10T09:50:26.757Z</time>
      </trkpt>
      <trkpt lat="46.95704" lon="8.58292">
        <ele>820</ele>
        <time>2021-08-10T09:50:27.756Z</time>
      </trkpt>
      <trkpt lat="46.95703" lon="8.58292">
        <ele>821</ele>
        <time>2021-08-10T09:50:28.756Z</time>
      </trkpt>
      <trkpt lat="46.95702" lon="8.58292">
        <ele>822</ele>
        <time>2021-08-10T09:50:29.757Z</time>
      </trkpt>
      <trkpt lat="46.95701" lon="8.58293">
        <ele>822</ele>
        <time>2021-08-10T09:50:30.757Z</time>
      </trkpt>
      <trkpt lat="46.95699" lon="8.58293">
        <ele>823</ele>
        <time>2021-08-10T09:50:31.756Z</time>
      </trkpt>
      <trkpt lat="46.95698" lon="8.58292">
        <ele>823</ele>
        <time>2021-08-10T09:50:32.756Z</time>
      </trkpt>
      <trkpt lat="46.95697" lon="8.58293">
        <ele>824</ele>
        <time>2021-08-10T09:50:33.756Z</time>
      </trkpt>
      <trkpt lat="46.95696" lon="8.58294">
        <ele>824</ele>
        <time>2021-08-10T09:50:34.756Z</time>
      </trkpt>
      <trkpt lat="46.95696" lon="8.58296">
        <ele>824</ele>
        <time>2021-08-10T09:50:35.757Z</time>
      </trkpt>
      <trkpt lat="46.95695" lon="8.58297">
        <ele>825</ele>
        <time>2021-08-10T09:50:36.757Z</time>
      </trkpt>
      <trkpt lat="46.95694" lon="8.58296">
        <ele>825</ele>
        <time>2021-08-10T09:50:37.756Z</time>
      </trkpt>
      <trkpt lat="46.95694" lon="8.58297">
        <ele>826</ele>
        <time>2021-08-10T09:50:38.756Z</time>
      </trkpt>
      <trkpt lat="46.95693" lon="8.58297">
        <ele>826</ele>
        <time>2021-08-10T09:50:39.757Z</time>
      </trkpt>
      <trkpt lat="46.95693" lon="8.58298">
        <ele>827</ele>
        <time>2021-08-10T09:50:40.756Z</time>
      </trkpt>
      <trkpt lat="46.95694" lon="8.58297">
        <ele>827</ele>
        <time>2021-08-10T09:50:41.757Z</time>
      </trkpt>
      <trkpt lat="46.95694" lon="8.58297">
        <ele>828</ele>
        <time>2021-08-10T09:50:42.757Z</time>
      </trkpt>
      <trkpt lat="46.95694" lon="8.58297">
        <ele>828</ele>
        <time>2021-08-10T09:50:43.756Z</time>
      </trkpt>
      <trkpt lat="46.95694" lon="8.58297">
        <ele>829</ele>
        <time>2021-08-10T09:50:44.757Z</time>
      </trkpt>
      <trkpt lat="46.95693" lon="8.58297">
        <ele>829</ele>
        <time>2021-08-10T09:50:45.756Z</time>
      </trkpt>
      <trkpt lat="46.95692" lon="8.58298">
        <ele>830</ele>
        <time>2021-08-10T09:50:46.757Z</time>
      </trkpt>
      <trkpt lat="46.95691" lon="8.58298">
        <ele>830</ele>
        <time>2021-08-10T09:50:47.757Z</time>
      </trkpt>
      <trkpt lat="46.9569" lon="8.58298">
        <ele>830</ele>
        <time>2021-08-10T09:50:48.756Z</time>
      </trkpt>
      <trkpt lat="46.95689" lon="8.58298">
        <ele>830</ele>
        <time>2021-08-10T09:50:49.757Z</time>
      </trkpt>
      <trkpt lat="46.95688" lon="8.58298">
        <ele>831</ele>
        <time>2021-08-10T09:50:50.756Z</time>
      </trkpt>
      <trkpt lat="46.95687" lon="8.58298">
        <ele>831</ele>
        <time>2021-08-10T09:50:51.756Z</time>
      </trkpt>
      <trkpt lat="46.95687" lon="8.58298">
        <ele>831</ele>
        <time>2021-08-10T09:50:52.757Z</time>
      </trkpt>
      <trkpt lat="46.95686" lon="8.58297">
        <ele>831</ele>
        <time>2021-08-10T09:50:53.757Z</time>
      </trkpt>
      <trkpt lat="46.95685" lon="8.58297">
        <ele>831</ele>
        <time>2021-08-10T09:50:54.756Z</time>
      </trkpt>
      <trkpt lat="46.95684" lon="8.58296">
        <ele>831</ele>
        <time>2021-08-10T09:50:55.756Z</time>
      </trkpt>
      <trkpt lat="46.95683" lon="8.58296">
        <ele>831</ele>
        <time>2021-08-10T09:50:56.756Z</time>
      </trkpt>
      <trkpt lat="46.95683" lon="8.58296">
        <ele>832</ele>
        <time>2021-08-10T09:50:57.757Z</time>
      </trkpt>
      <trkpt lat="46.95682" lon="8.58295">
        <ele>832</ele>
        <time>2021-08-10T09:50:58.757Z</time>
      </trkpt>
      <trkpt lat="46.95682" lon="8.58296">
        <ele>832</ele>
        <time>2021-08-10T09:50:59.757Z</time>
      </trkpt>
      <trkpt lat="46.95682" lon="8.58298">
        <ele>833</ele>
        <time>2021-08-10T09:51:00.756Z</time>
      </trkpt>
      <trkpt lat="46.95681" lon="8.58301">
        <ele>833</ele>
        <time>2021-08-10T09:51:01.757Z</time>
      </trkpt>
      <trkpt lat="46.9568" lon="8.583">
        <ele>832</ele>
        <time>2021-08-10T09:51:02.756Z</time>
      </trkpt>
      <trkpt lat="46.9568" lon="8.583">
        <ele>833</ele>
        <time>2021-08-10T09:51:03.757Z</time>
      </trkpt>
      <trkpt lat="46.95679" lon="8.58299">
        <ele>834</ele>
        <time>2021-08-10T09:51:04.756Z</time>
      </trkpt>
      <trkpt lat="46.95679" lon="8.58298">
        <ele>834</ele>
        <time>2021-08-10T09:51:05.757Z</time>
      </trkpt>
      <trkpt lat="46.95678" lon="8.58298">
        <ele>835</ele>
        <time>2021-08-10T09:51:06.756Z</time>
      </trkpt>
      <trkpt lat="46.95677" lon="8.58297">
        <ele>836</ele>
        <time>2021-08-10T09:51:07.757Z</time>
      </trkpt>
      <trkpt lat="46.95677" lon="8.58297">
        <ele>837</ele>
        <time>2021-08-10T09:51:08.756Z</time>
      </trkpt>
      <trkpt lat="46.95676" lon="8.58296">
        <ele>837</ele>
        <time>2021-08-10T09:51:09.757Z</time>
      </trkpt>
      <trkpt lat="46.95676" lon="8.58296">
        <ele>838</ele>
        <time>2021-08-10T09:51:10.756Z</time>
      </trkpt>
      <trkpt lat="46.95675" lon="8.58296">
        <ele>838</ele>
        <time>2021-08-10T09:51:11.757Z</time>
      </trkpt>
      <trkpt lat="46.95674" lon="8.58295">
        <ele>839</ele>
        <time>2021-08-10T09:51:12.757Z</time>
      </trkpt>
      <trkpt lat="46.95673" lon="8.58295">
        <ele>839</ele>
        <time>2021-08-10T09:51:13.757Z</time>
      </trkpt>
      <trkpt lat="46.95673" lon="8.58295">
        <ele>839</ele>
        <time>2021-08-10T09:51:14.756Z</time>
      </trkpt>
      <trkpt lat="46.95672" lon="8.58295">
        <ele>839</ele>
        <time>2021-08-10T09:51:15.756Z</time>
      </trkpt>
      <trkpt lat="46.95672" lon="8.58294">
        <ele>839</ele>
        <time>2021-08-10T09:51:16.756Z</time>
      </trkpt>
      <trkpt lat="46.95672" lon="8.58295">
        <ele>839</ele>
        <time>2021-08-10T09:51:17.756Z</time>
      </trkpt>
      <trkpt lat="46.95672" lon="8.58296">
        <ele>839</ele>
        <time>2021-08-10T09:51:18.756Z</time>
      </trkpt>
      <trkpt lat="46.95672" lon="8.58295">
        <ele>838</ele>
        <time>2021-08-10T09:51:19.757Z</time>
      </trkpt>
      <trkpt lat="46.95672" lon="8.58294">
        <ele>839</ele>
        <time>2021-08-10T09:51:20.756Z</time>
      </trkpt>
      <trkpt lat="46.95672" lon="8.58293">
        <ele>839</ele>
        <time>2021-08-10T09:51:21.757Z</time>
      </trkpt>
      <trkpt lat="46.95671" lon="8.58292">
        <ele>839</ele>
        <time>2021-08-10T09:51:22.757Z</time>
      </trkpt>
      <trkpt lat="46.9567" lon="8.58293">
        <ele>840</ele>
        <time>2021-08-10T09:51:23.757Z</time>
      </trkpt>
      <trkpt lat="46.9567" lon="8.58292">
        <ele>840</ele>
        <time>2021-08-10T09:51:24.757Z</time>
      </trkpt>
      <trkpt lat="46.95669" lon="8.58292">
        <ele>840</ele>
        <time>2021-08-10T09:51:25.756Z</time>
      </trkpt>
      <trkpt lat="46.95669" lon="8.58292">
        <ele>840</ele>
        <time>2021-08-10T09:51:26.756Z</time>
      </trkpt>
      <trkpt lat="46.95668" lon="8.58293">
        <ele>840</ele>
        <time>2021-08-10T09:51:27.756Z</time>
      </trkpt>
      <trkpt lat="46.95667" lon="8.58293">
        <ele>840</ele>
        <time>2021-08-10T09:51:28.757Z</time>
      </trkpt>
      <trkpt lat="46.95666" lon="8.58294">
        <ele>840</ele>
        <time>2021-08-10T09:51:29.757Z</time>
      </trkpt>
      <trkpt lat="46.95666" lon="8.58295">
        <ele>841</ele>
        <time>2021-08-10T09:51:30.756Z</time>
      </trkpt>
      <trkpt lat="46.95666" lon="8.58295">
        <ele>841</ele>
        <time>2021-08-10T09:51:31.757Z</time>
      </trkpt>
      <trkpt lat="46.95667" lon="8.58295">
        <ele>841</ele>
        <time>2021-08-10T09:51:32.757Z</time>
      </trkpt>
      <trkpt lat="46.95667" lon="8.58296">
        <ele>841</ele>
        <time>2021-08-10T09:51:33.757Z</time>
      </trkpt>
      <trkpt lat="46.95667" lon="8.58297">
        <ele>841</ele>
        <time>2021-08-10T09:51:34.757Z</time>
      </trkpt>
      <trkpt lat="46.95667" lon="8.58298">
        <ele>841</ele>
        <time>2021-08-10T09:51:35.757Z</time>
      </trkpt>
      <trkpt lat="46.95667" lon="8.58299">
        <ele>840</ele>
        <time>2021-08-10T09:51:36.757Z</time>
      </trkpt>
      <trkpt lat="46.95667" lon="8.58299">
        <ele>840</ele>
        <time>2021-08-10T09:51:37.756Z</time>
      </trkpt>
      <trkpt lat="46.95667" lon="8.583">
        <ele>839</ele>
        <time>2021-08-10T09:51:38.757Z</time>
      </trkpt>
      <trkpt lat="46.95667" lon="8.58301">
        <ele>839</ele>
        <time>2021-08-10T09:51:39.756Z</time>
      </trkpt>
      <trkpt lat="46.95667" lon="8.58302">
        <ele>839</ele>
        <time>2021-08-10T09:51:40.756Z</time>
      </trkpt>
      <trkpt lat="46.95667" lon="8.58302">
        <ele>839</ele>
        <time>2021-08-10T09:51:41.757Z</time>
      </trkpt>
      <trkpt lat="46.95667" lon="8.58303">
        <ele>839</ele>
        <time>2021-08-10T09:51:42.757Z</time>
      </trkpt>
      <trkpt lat="46.95667" lon="8.58304">
        <ele>839</ele>
        <time>2021-08-10T09:51:43.757Z</time>
      </trkpt>
      <trkpt lat="46.95667" lon="8.58304">
        <ele>839</ele>
        <time>2021-08-10T09:51:44.757Z</time>
      </trkpt>
      <trkpt lat="46.95668" lon="8.58304">
        <ele>838</ele>
        <time>2021-08-10T09:51:45.756Z</time>
      </trkpt>
      <trkpt lat="46.95668" lon="8.58305">
        <ele>838</ele>
        <time>2021-08-10T09:51:46.757Z</time>
      </trkpt>
      <trkpt lat="46.95669" lon="8.58305">
        <ele>837</ele>
        <time>2021-08-10T09:51:47.757Z</time>
      </trkpt>
      <trkpt lat="46.95668" lon="8.58306">
        <ele>838</ele>
        <time>2021-08-10T09:51:48.758Z</time>
      </trkpt>
      <trkpt lat="46.95667" lon="8.58307">
        <ele>842</ele>
        <time>2021-08-10T09:51:49.759Z</time>
      </trkpt>
      <trkpt lat="46.95667" lon="8.58307">
        <ele>842</ele>
        <time>2021-08-10T09:51:50.759Z</time>
      </trkpt>
      <trkpt lat="46.95667" lon="8.58308">
        <ele>842</ele>
        <time>2021-08-10T09:51:51.759Z</time>
      </trkpt>
      <trkpt lat="46.95667" lon="8.58308">
        <ele>842</ele>
        <time>2021-08-10T09:51:52.759Z</time>
      </trkpt>
      <trkpt lat="46.95668" lon="8.58308">
        <ele>843</ele>
        <time>2021-08-10T09:51:53.759Z</time>
      </trkpt>
      <trkpt lat="46.95668" lon="8.58309">
        <ele>843</ele>
        <time>2021-08-10T09:51:54.760Z</time>
      </trkpt>
      <trkpt lat="46.95668" lon="8.58311">
        <ele>843</ele>
        <time>2021-08-10T09:51:55.760Z</time>
      </trkpt>
      <trkpt lat="46.95668" lon="8.58312">
        <ele>843</ele>
        <time>2021-08-10T09:51:56.760Z</time>
      </trkpt>
      <trkpt lat="46.95668" lon="8.58313">
        <ele>843</ele>
        <time>2021-08-10T09:51:57.760Z</time>
      </trkpt>
      <trkpt lat="46.95669" lon="8.58314">
        <ele>842</ele>
        <time>2021-08-10T09:51:58.760Z</time>
      </trkpt>
      <trkpt lat="46.95669" lon="8.58314">
        <ele>843</ele>
        <time>2021-08-10T09:51:59.760Z</time>
      </trkpt>
      <trkpt lat="46.9567" lon="8.58315">
        <ele>843</ele>
        <time>2021-08-10T09:52:00.760Z</time>
      </trkpt>
      <trkpt lat="46.9567" lon="8.58316">
        <ele>842</ele>
        <time>2021-08-10T09:52:01.759Z</time>
      </trkpt>
      <trkpt lat="46.9567" lon="8.58317">
        <ele>842</ele>
        <time>2021-08-10T09:52:02.759Z</time>
      </trkpt>
      <trkpt lat="46.9567" lon="8.58318">
        <ele>842</ele>
        <time>2021-08-10T09:52:03.760Z</time>
      </trkpt>
      <trkpt lat="46.95671" lon="8.58319">
        <ele>842</ele>
        <time>2021-08-10T09:52:04.760Z</time>
      </trkpt>
      <trkpt lat="46.95671" lon="8.5832">
        <ele>842</ele>
        <time>2021-08-10T09:52:05.759Z</time>
      </trkpt>
      <trkpt lat="46.95671" lon="8.58321">
        <ele>842</ele>
        <time>2021-08-10T09:52:06.759Z</time>
      </trkpt>
      <trkpt lat="46.95671" lon="8.58322">
        <ele>842</ele>
        <time>2021-08-10T09:52:07.760Z</time>
      </trkpt>
      <trkpt lat="46.95671" lon="8.58323">
        <ele>842</ele>
        <time>2021-08-10T09:52:08.760Z</time>
      </trkpt>
      <trkpt lat="46.95671" lon="8.58323">
        <ele>842</ele>
        <time>2021-08-10T09:52:09.759Z</time>
      </trkpt>
      <trkpt lat="46.95672" lon="8.58324">
        <ele>842</ele>
        <time>2021-08-10T09:52:10.760Z</time>
      </trkpt>
      <trkpt lat="46.95672" lon="8.58324">
        <ele>842</ele>
        <time>2021-08-10T09:52:11.760Z</time>
      </trkpt>
      <trkpt lat="46.95672" lon="8.58325">
        <ele>842</ele>
        <time>2021-08-10T09:52:12.759Z</time>
      </trkpt>
      <trkpt lat="46.95673" lon="8.58327">
        <ele>842</ele>
        <time>2021-08-10T09:52:13.760Z</time>
      </trkpt>
      <trkpt lat="46.95672" lon="8.58329">
        <ele>842</ele>
        <time>2021-08-10T09:52:14.760Z</time>
      </trkpt>
      <trkpt lat="46.95672" lon="8.58329">
        <ele>842</ele>
        <time>2021-08-10T09:52:15.760Z</time>
      </trkpt>
      <trkpt lat="46.95673" lon="8.58332">
        <ele>842</ele>
        <time>2021-08-10T09:52:16.761Z</time>
      </trkpt>
      <trkpt lat="46.95673" lon="8.58332">
        <ele>842</ele>
        <time>2021-08-10T09:52:17.760Z</time>
      </trkpt>
      <trkpt lat="46.95673" lon="8.58333">
        <ele>842</ele>
        <time>2021-08-10T09:52:18.761Z</time>
      </trkpt>
      <trkpt lat="46.95673" lon="8.58334">
        <ele>842</ele>
        <time>2021-08-10T09:52:19.760Z</time>
      </trkpt>
      <trkpt lat="46.95673" lon="8.58335">
        <ele>842</ele>
        <time>2021-08-10T09:52:20.760Z</time>
      </trkpt>
      <trkpt lat="46.95673" lon="8.58336">
        <ele>842</ele>
        <time>2021-08-10T09:52:21.761Z</time>
      </trkpt>
      <trkpt lat="46.95673" lon="8.58338">
        <ele>842</ele>
        <time>2021-08-10T09:52:22.760Z</time>
      </trkpt>
      <trkpt lat="46.95672" lon="8.5834">
        <ele>842</ele>
        <time>2021-08-10T09:52:23.760Z</time>
      </trkpt>
      <trkpt lat="46.9567" lon="8.58341">
        <ele>842</ele>
        <time>2021-08-10T09:52:24.760Z</time>
      </trkpt>
      <trkpt lat="46.95669" lon="8.58343">
        <ele>842</ele>
        <time>2021-08-10T09:52:25.761Z</time>
      </trkpt>
      <trkpt lat="46.95669" lon="8.58343">
        <ele>842</ele>
        <time>2021-08-10T09:52:26.761Z</time>
      </trkpt>
      <trkpt lat="46.95669" lon="8.58344">
        <ele>841</ele>
        <time>2021-08-10T09:52:27.761Z</time>
      </trkpt>
      <trkpt lat="46.95669" lon="8.58345">
        <ele>841</ele>
        <time>2021-08-10T09:52:28.761Z</time>
      </trkpt>
      <trkpt lat="46.95669" lon="8.58347">
        <ele>841</ele>
        <time>2021-08-10T09:52:29.761Z</time>
      </trkpt>
      <trkpt lat="46.9567" lon="8.58348">
        <ele>840</ele>
        <time>2021-08-10T09:52:30.761Z</time>
      </trkpt>
      <trkpt lat="46.9567" lon="8.5835">
        <ele>840</ele>
        <time>2021-08-10T09:52:31.761Z</time>
      </trkpt>
      <trkpt lat="46.95669" lon="8.58351">
        <ele>840</ele>
        <time>2021-08-10T09:52:32.761Z</time>
      </trkpt>
      <trkpt lat="46.95669" lon="8.58351">
        <ele>840</ele>
        <time>2021-08-10T09:52:33.761Z</time>
      </trkpt>
      <trkpt lat="46.95668" lon="8.58352">
        <ele>839</ele>
        <time>2021-08-10T09:52:34.761Z</time>
      </trkpt>
      <trkpt lat="46.95668" lon="8.58353">
        <ele>839</ele>
        <time>2021-08-10T09:52:35.761Z</time>
      </trkpt>
      <trkpt lat="46.95669" lon="8.58353">
        <ele>838</ele>
        <time>2021-08-10T09:52:36.761Z</time>
      </trkpt>
      <trkpt lat="46.9567" lon="8.58353">
        <ele>838</ele>
        <time>2021-08-10T09:52:37.761Z</time>
      </trkpt>
      <trkpt lat="46.9567" lon="8.58351">
        <ele>838</ele>
        <time>2021-08-10T09:52:38.761Z</time>
      </trkpt>
      <trkpt lat="46.9567" lon="8.5835">
        <ele>838</ele>
        <time>2021-08-10T09:52:39.760Z</time>
      </trkpt>
      <trkpt lat="46.9567" lon="8.58349">
        <ele>838</ele>
        <time>2021-08-10T09:52:40.760Z</time>
      </trkpt>
      <trkpt lat="46.9567" lon="8.58348">
        <ele>839</ele>
        <time>2021-08-10T09:52:41.761Z</time>
      </trkpt>
      <trkpt lat="46.9567" lon="8.58348">
        <ele>839</ele>
        <time>2021-08-10T09:52:42.761Z</time>
      </trkpt>
      <trkpt lat="46.95669" lon="8.58346">
        <ele>839</ele>
        <time>2021-08-10T09:52:43.761Z</time>
      </trkpt>
      <trkpt lat="46.95669" lon="8.58345">
        <ele>839</ele>
        <time>2021-08-10T09:52:44.761Z</time>
      </trkpt>
      <trkpt lat="46.95669" lon="8.58345">
        <ele>839</ele>
        <time>2021-08-10T09:52:45.761Z</time>
      </trkpt>
      <trkpt lat="46.95669" lon="8.58344">
        <ele>839</ele>
        <time>2021-08-10T09:52:46.760Z</time>
      </trkpt>
      <trkpt lat="46.95668" lon="8.58344">
        <ele>839</ele>
        <time>2021-08-10T09:52:47.760Z</time>
      </trkpt>
      <trkpt lat="46.95667" lon="8.58343">
        <ele>839</ele>
        <time>2021-08-10T09:52:48.761Z</time>
      </trkpt>
      <trkpt lat="46.95666" lon="8.58343">
        <ele>839</ele>
        <time>2021-08-10T09:52:49.760Z</time>
      </trkpt>
      <trkpt lat="46.95666" lon="8.58342">
        <ele>839</ele>
        <time>2021-08-10T09:52:50.760Z</time>
      </trkpt>
      <trkpt lat="46.95665" lon="8.58341">
        <ele>839</ele>
        <time>2021-08-10T09:52:51.760Z</time>
      </trkpt>
      <trkpt lat="46.95665" lon="8.58341">
        <ele>839</ele>
        <time>2021-08-10T09:52:52.760Z</time>
      </trkpt>
      <trkpt lat="46.95665" lon="8.5834">
        <ele>839</ele>
        <time>2021-08-10T09:52:53.760Z</time>
      </trkpt>
      <trkpt lat="46.95665" lon="8.58339">
        <ele>840</ele>
        <time>2021-08-10T09:52:54.761Z</time>
      </trkpt>
      <trkpt lat="46.95664" lon="8.58338">
        <ele>840</ele>
        <time>2021-08-10T09:52:55.760Z</time>
      </trkpt>
      <trkpt lat="46.95664" lon="8.58338">
        <ele>840</ele>
        <time>2021-08-10T09:52:56.760Z</time>
      </trkpt>
      <trkpt lat="46.95663" lon="8.58338">
        <ele>841</ele>
        <time>2021-08-10T09:52:57.761Z</time>
      </trkpt>
      <trkpt lat="46.95663" lon="8.58337">
        <ele>841</ele>
        <time>2021-08-10T09:52:58.761Z</time>
      </trkpt>
      <trkpt lat="46.95663" lon="8.58337">
        <ele>841</ele>
        <time>2021-08-10T09:52:59.760Z</time>
      </trkpt>
      <trkpt lat="46.95663" lon="8.58336">
        <ele>841</ele>
        <time>2021-08-10T09:53:00.760Z</time>
      </trkpt>
      <trkpt lat="46.95663" lon="8.58335">
        <ele>841</ele>
        <time>2021-08-10T09:53:01.760Z</time>
      </trkpt>
      <trkpt lat="46.95662" lon="8.58334">
        <ele>841</ele>
        <time>2021-08-10T09:53:02.760Z</time>
      </trkpt>
      <trkpt lat="46.95661" lon="8.58334">
        <ele>841</ele>
        <time>2021-08-10T09:53:03.761Z</time>
      </trkpt>
      <trkpt lat="46.95661" lon="8.58333">
        <ele>841</ele>
        <time>2021-08-10T09:53:04.760Z</time>
      </trkpt>
      <trkpt lat="46.9566" lon="8.58333">
        <ele>841</ele>
        <time>2021-08-10T09:53:05.761Z</time>
      </trkpt>
      <trkpt lat="46.9566" lon="8.58332">
        <ele>841</ele>
        <time>2021-08-10T09:53:06.760Z</time>
      </trkpt>
      <trkpt lat="46.95659" lon="8.58331">
        <ele>841</ele>
        <time>2021-08-10T09:53:07.760Z</time>
      </trkpt>
      <trkpt lat="46.95659" lon="8.5833">
        <ele>841</ele>
        <time>2021-08-10T09:53:08.760Z</time>
      </trkpt>
      <trkpt lat="46.95658" lon="8.58329">
        <ele>841</ele>
        <time>2021-08-10T09:53:09.760Z</time>
      </trkpt>
      <trkpt lat="46.95658" lon="8.58328">
        <ele>842</ele>
        <time>2021-08-10T09:53:10.760Z</time>
      </trkpt>
      <trkpt lat="46.95658" lon="8.58327">
        <ele>842</ele>
        <time>2021-08-10T09:53:11.760Z</time>
      </trkpt>
      <trkpt lat="46.95657" lon="8.58326">
        <ele>843</ele>
        <time>2021-08-10T09:53:12.761Z</time>
      </trkpt>
      <trkpt lat="46.95657" lon="8.58326">
        <ele>844</ele>
        <time>2021-08-10T09:53:13.760Z</time>
      </trkpt>
      <trkpt lat="46.95658" lon="8.58325">
        <ele>844</ele>
        <time>2021-08-10T09:53:14.761Z</time>
      </trkpt>
      <trkpt lat="46.95657" lon="8.58324">
        <ele>845</ele>
        <time>2021-08-10T09:53:15.761Z</time>
      </trkpt>
      <trkpt lat="46.95657" lon="8.58323">
        <ele>846</ele>
        <time>2021-08-10T09:53:16.761Z</time>
      </trkpt>
      <trkpt lat="46.95657" lon="8.58322">
        <ele>847</ele>
        <time>2021-08-10T09:53:17.761Z</time>
      </trkpt>
      <trkpt lat="46.95657" lon="8.58321">
        <ele>848</ele>
        <time>2021-08-10T09:53:18.760Z</time>
      </trkpt>
      <trkpt lat="46.95656" lon="8.58319">
        <ele>848</ele>
        <time>2021-08-10T09:53:19.761Z</time>
      </trkpt>
      <trkpt lat="46.95656" lon="8.58318">
        <ele>849</ele>
        <time>2021-08-10T09:53:20.761Z</time>
      </trkpt>
      <trkpt lat="46.95656" lon="8.58317">
        <ele>850</ele>
        <time>2021-08-10T09:53:21.761Z</time>
      </trkpt>
      <trkpt lat="46.95655" lon="8.58316">
        <ele>851</ele>
        <time>2021-08-10T09:53:22.760Z</time>
      </trkpt>
      <trkpt lat="46.95656" lon="8.58315">
        <ele>851</ele>
        <time>2021-08-10T09:53:23.761Z</time>
      </trkpt>
      <trkpt lat="46.95656" lon="8.58314">
        <ele>851</ele>
        <time>2021-08-10T09:53:24.761Z</time>
      </trkpt>
      <trkpt lat="46.95655" lon="8.58313">
        <ele>851</ele>
        <time>2021-08-10T09:53:25.761Z</time>
      </trkpt>
      <trkpt lat="46.95655" lon="8.58311">
        <ele>851</ele>
        <time>2021-08-10T09:53:26.761Z</time>
      </trkpt>
      <trkpt lat="46.95655" lon="8.5831">
        <ele>851</ele>
        <time>2021-08-10T09:53:27.761Z</time>
      </trkpt>
      <trkpt lat="46.95656" lon="8.58308">
        <ele>851</ele>
        <time>2021-08-10T09:53:28.761Z</time>
      </trkpt>
      <trkpt lat="46.95656" lon="8.58307">
        <ele>852</ele>
        <time>2021-08-10T09:53:29.761Z</time>
      </trkpt>
      <trkpt lat="46.95656" lon="8.58306">
        <ele>852</ele>
        <time>2021-08-10T09:53:30.761Z</time>
      </trkpt>
      <trkpt lat="46.95655" lon="8.58306">
        <ele>852</ele>
        <time>2021-08-10T09:53:31.761Z</time>
      </trkpt>
      <trkpt lat="46.95654" lon="8.58306">
        <ele>852</ele>
        <time>2021-08-10T09:53:32.760Z</time>
      </trkpt>
      <trkpt lat="46.95653" lon="8.58306">
        <ele>852</ele>
        <time>2021-08-10T09:53:33.761Z</time>
      </trkpt>
      <trkpt lat="46.95652" lon="8.58305">
        <ele>852</ele>
        <time>2021-08-10T09:53:34.760Z</time>
      </trkpt>
      <trkpt lat="46.95651" lon="8.58305">
        <ele>852</ele>
        <time>2021-08-10T09:53:35.760Z</time>
      </trkpt>
      <trkpt lat="46.9565" lon="8.58304">
        <ele>851</ele>
        <time>2021-08-10T09:53:36.760Z</time>
      </trkpt>
      <trkpt lat="46.9565" lon="8.58304">
        <ele>851</ele>
        <time>2021-08-10T09:53:37.761Z</time>
      </trkpt>
      <trkpt lat="46.95649" lon="8.58304">
        <ele>851</ele>
        <time>2021-08-10T09:53:38.761Z</time>
      </trkpt>
      <trkpt lat="46.95649" lon="8.58304">
        <ele>851</ele>
        <time>2021-08-10T09:53:39.761Z</time>
      </trkpt>
      <trkpt lat="46.95648" lon="8.58303">
        <ele>851</ele>
        <time>2021-08-10T09:53:40.761Z</time>
      </trkpt>
      <trkpt lat="46.95648" lon="8.58304">
        <ele>851</ele>
        <time>2021-08-10T09:53:41.761Z</time>
      </trkpt>
      <trkpt lat="46.95648" lon="8.58304">
        <ele>851</ele>
        <time>2021-08-10T09:53:42.760Z</time>
      </trkpt>
      <trkpt lat="46.95648" lon="8.58303">
        <ele>851</ele>
        <time>2021-08-10T09:53:43.760Z</time>
      </trkpt>
      <trkpt lat="46.95648" lon="8.58303">
        <ele>852</ele>
        <time>2021-08-10T09:53:44.761Z</time>
      </trkpt>
      <trkpt lat="46.95648" lon="8.58301">
        <ele>852</ele>
        <time>2021-08-10T09:53:45.761Z</time>
      </trkpt>
      <trkpt lat="46.95647" lon="8.58301">
        <ele>852</ele>
        <time>2021-08-10T09:53:46.761Z</time>
      </trkpt>
      <trkpt lat="46.95647" lon="8.583">
        <ele>852</ele>
        <time>2021-08-10T09:53:47.761Z</time>
      </trkpt>
      <trkpt lat="46.95646" lon="8.58298">
        <ele>853</ele>
        <time>2021-08-10T09:53:48.761Z</time>
      </trkpt>
      <trkpt lat="46.95645" lon="8.58297">
        <ele>853</ele>
        <time>2021-08-10T09:53:49.761Z</time>
      </trkpt>
      <trkpt lat="46.95644" lon="8.58297">
        <ele>853</ele>
        <time>2021-08-10T09:53:50.762Z</time>
      </trkpt>
      <trkpt lat="46.95643" lon="8.58296">
        <ele>853</ele>
        <time>2021-08-10T09:53:51.762Z</time>
      </trkpt>
      <trkpt lat="46.95642" lon="8.58296">
        <ele>854</ele>
        <time>2021-08-10T09:53:52.761Z</time>
      </trkpt>
      <trkpt lat="46.95642" lon="8.58295">
        <ele>854</ele>
        <time>2021-08-10T09:53:53.762Z</time>
      </trkpt>
      <trkpt lat="46.95641" lon="8.58294">
        <ele>855</ele>
        <time>2021-08-10T09:53:54.761Z</time>
      </trkpt>
      <trkpt lat="46.9564" lon="8.58293">
        <ele>855</ele>
        <time>2021-08-10T09:53:55.762Z</time>
      </trkpt>
      <trkpt lat="46.95639" lon="8.58293">
        <ele>855</ele>
        <time>2021-08-10T09:53:56.761Z</time>
      </trkpt>
      <trkpt lat="46.95638" lon="8.58292">
        <ele>855</ele>
        <time>2021-08-10T09:53:57.761Z</time>
      </trkpt>
      <trkpt lat="46.95637" lon="8.58292">
        <ele>856</ele>
        <time>2021-08-10T09:53:58.762Z</time>
      </trkpt>
      <trkpt lat="46.95634" lon="8.58291">
        <ele>856</ele>
        <time>2021-08-10T09:53:59.762Z</time>
      </trkpt>
      <trkpt lat="46.95633" lon="8.58292">
        <ele>856</ele>
        <time>2021-08-10T09:54:00.761Z</time>
      </trkpt>
      <trkpt lat="46.95631" lon="8.58291">
        <ele>856</ele>
        <time>2021-08-10T09:54:01.762Z</time>
      </trkpt>
      <trkpt lat="46.95629" lon="8.5829">
        <ele>856</ele>
        <time>2021-08-10T09:54:02.761Z</time>
      </trkpt>
      <trkpt lat="46.95628" lon="8.5829">
        <ele>857</ele>
        <time>2021-08-10T09:54:03.761Z</time>
      </trkpt>
      <trkpt lat="46.95627" lon="8.58289">
        <ele>857</ele>
        <time>2021-08-10T09:54:04.761Z</time>
      </trkpt>
      <trkpt lat="46.95626" lon="8.58288">
        <ele>857</ele>
        <time>2021-08-10T09:54:05.762Z</time>
      </trkpt>
      <trkpt lat="46.95625" lon="8.58288">
        <ele>858</ele>
        <time>2021-08-10T09:54:06.762Z</time>
      </trkpt>
      <trkpt lat="46.95624" lon="8.58287">
        <ele>858</ele>
        <time>2021-08-10T09:54:07.761Z</time>
      </trkpt>
      <trkpt lat="46.95624" lon="8.58286">
        <ele>858</ele>
        <time>2021-08-10T09:54:08.761Z</time>
      </trkpt>
      <trkpt lat="46.95623" lon="8.58286">
        <ele>859</ele>
        <time>2021-08-10T09:54:09.762Z</time>
      </trkpt>
      <trkpt lat="46.95623" lon="8.58285">
        <ele>859</ele>
        <time>2021-08-10T09:54:10.761Z</time>
      </trkpt>
      <trkpt lat="46.95623" lon="8.58284">
        <ele>859</ele>
        <time>2021-08-10T09:54:11.762Z</time>
      </trkpt>
      <trkpt lat="46.95622" lon="8.58284">
        <ele>859</ele>
        <time>2021-08-10T09:54:12.762Z</time>
      </trkpt>
      <trkpt lat="46.95621" lon="8.58284">
        <ele>859</ele>
        <time>2021-08-10T09:54:13.762Z</time>
      </trkpt>
      <trkpt lat="46.95618" lon="8.58285">
        <ele>860</ele>
        <time>2021-08-10T09:54:14.762Z</time>
      </trkpt>
      <trkpt lat="46.95616" lon="8.58285">
        <ele>860</ele>
        <time>2021-08-10T09:54:15.762Z</time>
      </trkpt>
      <trkpt lat="46.95614" lon="8.58285">
        <ele>860</ele>
        <time>2021-08-10T09:54:16.762Z</time>
      </trkpt>
      <trkpt lat="46.95613" lon="8.58285">
        <ele>861</ele>
        <time>2021-08-10T09:54:17.762Z</time>
      </trkpt>
      <trkpt lat="46.95613" lon="8.58286">
        <ele>861</ele>
        <time>2021-08-10T09:54:18.762Z</time>
      </trkpt>
      <trkpt lat="46.95612" lon="8.58287">
        <ele>861</ele>
        <time>2021-08-10T09:54:19.762Z</time>
      </trkpt>
      <trkpt lat="46.95611" lon="8.58287">
        <ele>861</ele>
        <time>2021-08-10T09:54:20.762Z</time>
      </trkpt>
      <trkpt lat="46.95611" lon="8.58287">
        <ele>862</ele>
        <time>2021-08-10T09:54:21.761Z</time>
      </trkpt>
      <trkpt lat="46.9561" lon="8.58287">
        <ele>862</ele>
        <time>2021-08-10T09:54:22.762Z</time>
      </trkpt>
      <trkpt lat="46.95609" lon="8.58288">
        <ele>862</ele>
        <time>2021-08-10T09:54:23.761Z</time>
      </trkpt>
      <trkpt lat="46.95609" lon="8.58289">
        <ele>863</ele>
        <time>2021-08-10T09:54:24.762Z</time>
      </trkpt>
      <trkpt lat="46.95609" lon="8.58289">
        <ele>863</ele>
        <time>2021-08-10T09:54:25.762Z</time>
      </trkpt>
      <trkpt lat="46.95609" lon="8.58288">
        <ele>863</ele>
        <time>2021-08-10T09:54:26.762Z</time>
      </trkpt>
      <trkpt lat="46.9561" lon="8.58287">
        <ele>864</ele>
        <time>2021-08-10T09:54:27.762Z</time>
      </trkpt>
      <trkpt lat="46.95611" lon="8.58286">
        <ele>864</ele>
        <time>2021-08-10T09:54:28.762Z</time>
      </trkpt>
      <trkpt lat="46.95611" lon="8.58285">
        <ele>864</ele>
        <time>2021-08-10T09:54:29.761Z</time>
      </trkpt>
      <trkpt lat="46.95611" lon="8.58285">
        <ele>864</ele>
        <time>2021-08-10T09:54:30.762Z</time>
      </trkpt>
      <trkpt lat="46.95611" lon="8.58285">
        <ele>864</ele>
        <time>2021-08-10T09:54:31.761Z</time>
      </trkpt>
      <trkpt lat="46.9561" lon="8.58284">
        <ele>864</ele>
        <time>2021-08-10T09:54:32.761Z</time>
      </trkpt>
      <trkpt lat="46.95609" lon="8.58284">
        <ele>865</ele>
        <time>2021-08-10T09:54:33.762Z</time>
      </trkpt>
      <trkpt lat="46.95608" lon="8.58284">
        <ele>865</ele>
        <time>2021-08-10T09:54:34.762Z</time>
      </trkpt>
      <trkpt lat="46.95609" lon="8.58281">
        <ele>865</ele>
        <time>2021-08-10T09:54:35.762Z</time>
      </trkpt>
      <trkpt lat="46.9561" lon="8.5828">
        <ele>865</ele>
        <time>2021-08-10T09:54:36.761Z</time>
      </trkpt>
      <trkpt lat="46.95609" lon="8.5828">
        <ele>865</ele>
        <time>2021-08-10T09:54:37.762Z</time>
      </trkpt>
      <trkpt lat="46.95608" lon="8.58281">
        <ele>866</ele>
        <time>2021-08-10T09:54:38.761Z</time>
      </trkpt>
      <trkpt lat="46.95608" lon="8.58283">
        <ele>866</ele>
        <time>2021-08-10T09:54:39.762Z</time>
      </trkpt>
      <trkpt lat="46.95608" lon="8.58285">
        <ele>866</ele>
        <time>2021-08-10T09:54:40.761Z</time>
      </trkpt>
      <trkpt lat="46.95608" lon="8.58285">
        <ele>866</ele>
        <time>2021-08-10T09:54:41.762Z</time>
      </trkpt>
      <trkpt lat="46.95608" lon="8.58285">
        <ele>867</ele>
        <time>2021-08-10T09:54:42.761Z</time>
      </trkpt>
      <trkpt lat="46.95607" lon="8.58286">
        <ele>867</ele>
        <time>2021-08-10T09:54:43.762Z</time>
      </trkpt>
      <trkpt lat="46.95606" lon="8.58287">
        <ele>867</ele>
        <time>2021-08-10T09:54:44.761Z</time>
      </trkpt>
      <trkpt lat="46.95604" lon="8.5829">
        <ele>867</ele>
        <time>2021-08-10T09:54:45.762Z</time>
      </trkpt>
      <trkpt lat="46.95604" lon="8.58288">
        <ele>867</ele>
        <time>2021-08-10T09:54:46.762Z</time>
      </trkpt>
      <trkpt lat="46.95604" lon="8.58285">
        <ele>867</ele>
        <time>2021-08-10T09:54:47.761Z</time>
      </trkpt>
      <trkpt lat="46.95604" lon="8.58282">
        <ele>867</ele>
        <time>2021-08-10T09:54:48.762Z</time>
      </trkpt>
      <trkpt lat="46.95603" lon="8.58279">
        <ele>867</ele>
        <time>2021-08-10T09:54:49.762Z</time>
      </trkpt>
      <trkpt lat="46.95603" lon="8.58276">
        <ele>868</ele>
        <time>2021-08-10T09:54:50.761Z</time>
      </trkpt>
      <trkpt lat="46.95603" lon="8.58274">
        <ele>868</ele>
        <time>2021-08-10T09:54:51.762Z</time>
      </trkpt>
      <trkpt lat="46.95603" lon="8.58272">
        <ele>868</ele>
        <time>2021-08-10T09:54:52.762Z</time>
      </trkpt>
      <trkpt lat="46.95601" lon="8.58272">
        <ele>868</ele>
        <time>2021-08-10T09:54:53.761Z</time>
      </trkpt>
      <trkpt lat="46.956" lon="8.58272">
        <ele>868</ele>
        <time>2021-08-10T09:54:54.761Z</time>
      </trkpt>
      <trkpt lat="46.95598" lon="8.58273">
        <ele>868</ele>
        <time>2021-08-10T09:54:55.761Z</time>
      </trkpt>
      <trkpt lat="46.95595" lon="8.58275">
        <ele>868</ele>
        <time>2021-08-10T09:54:56.761Z</time>
      </trkpt>
      <trkpt lat="46.95594" lon="8.58276">
        <ele>867</ele>
        <time>2021-08-10T09:54:57.762Z</time>
      </trkpt>
      <trkpt lat="46.95593" lon="8.58278">
        <ele>867</ele>
        <time>2021-08-10T09:54:58.761Z</time>
      </trkpt>
      <trkpt lat="46.95593" lon="8.58279">
        <ele>867</ele>
        <time>2021-08-10T09:54:59.762Z</time>
      </trkpt>
      <trkpt lat="46.95593" lon="8.58281">
        <ele>867</ele>
        <time>2021-08-10T09:55:00.762Z</time>
      </trkpt>
      <trkpt lat="46.95592" lon="8.58283">
        <ele>867</ele>
        <time>2021-08-10T09:55:01.762Z</time>
      </trkpt>
      <trkpt lat="46.95592" lon="8.58284">
        <ele>867</ele>
        <time>2021-08-10T09:55:02.762Z</time>
      </trkpt>
      <trkpt lat="46.95593" lon="8.58286">
        <ele>867</ele>
        <time>2021-08-10T09:55:03.761Z</time>
      </trkpt>
      <trkpt lat="46.95594" lon="8.58286">
        <ele>867</ele>
        <time>2021-08-10T09:55:04.762Z</time>
      </trkpt>
      <trkpt lat="46.95595" lon="8.58286">
        <ele>867</ele>
        <time>2021-08-10T09:55:05.762Z</time>
      </trkpt>
      <trkpt lat="46.95595" lon="8.58286">
        <ele>867</ele>
        <time>2021-08-10T09:55:06.761Z</time>
      </trkpt>
      <trkpt lat="46.95594" lon="8.58287">
        <ele>867</ele>
        <time>2021-08-10T09:55:07.762Z</time>
      </trkpt>
      <trkpt lat="46.95594" lon="8.58288">
        <ele>867</ele>
        <time>2021-08-10T09:55:08.762Z</time>
      </trkpt>
      <trkpt lat="46.95594" lon="8.58289">
        <ele>867</ele>
        <time>2021-08-10T09:55:09.762Z</time>
      </trkpt>
      <trkpt lat="46.95593" lon="8.5829">
        <ele>867</ele>
        <time>2021-08-10T09:55:10.762Z</time>
      </trkpt>
      <trkpt lat="46.95593" lon="8.58292">
        <ele>867</ele>
        <time>2021-08-10T09:55:11.762Z</time>
      </trkpt>
      <trkpt lat="46.95591" lon="8.58294">
        <ele>867</ele>
        <time>2021-08-10T09:55:12.762Z</time>
      </trkpt>
      <trkpt lat="46.95587" lon="8.58296">
        <ele>867</ele>
        <time>2021-08-10T09:55:13.762Z</time>
      </trkpt>
      <trkpt lat="46.95584" lon="8.58298">
        <ele>867</ele>
        <time>2021-08-10T09:55:14.762Z</time>
      </trkpt>
      <trkpt lat="46.95581" lon="8.583">
        <ele>867</ele>
        <time>2021-08-10T09:55:15.762Z</time>
      </trkpt>
      <trkpt lat="46.95579" lon="8.58303">
        <ele>867</ele>
        <time>2021-08-10T09:55:16.762Z</time>
      </trkpt>
      <trkpt lat="46.95576" lon="8.58306">
        <ele>867</ele>
        <time>2021-08-10T09:55:17.761Z</time>
      </trkpt>
      <trkpt lat="46.95575" lon="8.58309">
        <ele>867</ele>
        <time>2021-08-10T09:55:18.762Z</time>
      </trkpt>
      <trkpt lat="46.95576" lon="8.58311">
        <ele>867</ele>
        <time>2021-08-10T09:55:19.762Z</time>
      </trkpt>
      <trkpt lat="46.95575" lon="8.58313">
        <ele>867</ele>
        <time>2021-08-10T09:55:20.762Z</time>
      </trkpt>
      <trkpt lat="46.95574" lon="8.58315">
        <ele>867</ele>
        <time>2021-08-10T09:55:21.762Z</time>
      </trkpt>
      <trkpt lat="46.95573" lon="8.58316">
        <ele>867</ele>
        <time>2021-08-10T09:55:22.762Z</time>
      </trkpt>
      <trkpt lat="46.95572" lon="8.58318">
        <ele>867</ele>
        <time>2021-08-10T09:55:23.761Z</time>
      </trkpt>
      <trkpt lat="46.95571" lon="8.5832">
        <ele>868</ele>
        <time>2021-08-10T09:55:24.761Z</time>
      </trkpt>
      <trkpt lat="46.9557" lon="8.58321">
        <ele>868</ele>
        <time>2021-08-10T09:55:25.761Z</time>
      </trkpt>
      <trkpt lat="46.9557" lon="8.58321">
        <ele>868</ele>
        <time>2021-08-10T09:55:26.761Z</time>
      </trkpt>
      <trkpt lat="46.95569" lon="8.58322">
        <ele>868</ele>
        <time>2021-08-10T09:55:27.761Z</time>
      </trkpt>
      <trkpt lat="46.95569" lon="8.58322">
        <ele>869</ele>
        <time>2021-08-10T09:55:28.762Z</time>
      </trkpt>
      <trkpt lat="46.95568" lon="8.58322">
        <ele>869</ele>
        <time>2021-08-10T09:55:29.762Z</time>
      </trkpt>
      <trkpt lat="46.95567" lon="8.58322">
        <ele>869</ele>
        <time>2021-08-10T09:55:30.761Z</time>
      </trkpt>
      <trkpt lat="46.95566" lon="8.58321">
        <ele>869</ele>
        <time>2021-08-10T09:55:31.762Z</time>
      </trkpt>
      <trkpt lat="46.95564" lon="8.58321">
        <ele>870</ele>
        <time>2021-08-10T09:55:32.762Z</time>
      </trkpt>
      <trkpt lat="46.95563" lon="8.58321">
        <ele>870</ele>
        <time>2021-08-10T09:55:33.761Z</time>
      </trkpt>
      <trkpt lat="46.95562" lon="8.58321">
        <ele>870</ele>
        <time>2021-08-10T09:55:34.761Z</time>
      </trkpt>
      <trkpt lat="46.95562" lon="8.58321">
        <ele>870</ele>
        <time>2021-08-10T09:55:35.761Z</time>
      </trkpt>
      <trkpt lat="46.95561" lon="8.58323">
        <ele>870</ele>
        <time>2021-08-10T09:55:36.761Z</time>
      </trkpt>
      <trkpt lat="46.9556" lon="8.58324">
        <ele>869</ele>
        <time>2021-08-10T09:55:37.762Z</time>
      </trkpt>
      <trkpt lat="46.9556" lon="8.58325">
        <ele>869</ele>
        <time>2021-08-10T09:55:38.761Z</time>
      </trkpt>
      <trkpt lat="46.9556" lon="8.58326">
        <ele>869</ele>
        <time>2021-08-10T09:55:39.762Z</time>
      </trkpt>
      <trkpt lat="46.95559" lon="8.58327">
        <ele>869</ele>
        <time>2021-08-10T09:55:40.761Z</time>
      </trkpt>
      <trkpt lat="46.95558" lon="8.58327">
        <ele>869</ele>
        <time>2021-08-10T09:55:41.761Z</time>
      </trkpt>
      <trkpt lat="46.95557" lon="8.58326">
        <ele>868</ele>
        <time>2021-08-10T09:55:42.761Z</time>
      </trkpt>
      <trkpt lat="46.95555" lon="8.58325">
        <ele>868</ele>
        <time>2021-08-10T09:55:43.762Z</time>
      </trkpt>
      <trkpt lat="46.95555" lon="8.58325">
        <ele>868</ele>
        <time>2021-08-10T09:55:44.761Z</time>
      </trkpt>
      <trkpt lat="46.95553" lon="8.58324">
        <ele>867</ele>
        <time>2021-08-10T09:55:45.761Z</time>
      </trkpt>
      <trkpt lat="46.95552" lon="8.58324">
        <ele>868</ele>
        <time>2021-08-10T09:55:46.761Z</time>
      </trkpt>
      <trkpt lat="46.95551" lon="8.58323">
        <ele>868</ele>
        <time>2021-08-10T09:55:47.762Z</time>
      </trkpt>
      <trkpt lat="46.9555" lon="8.58323">
        <ele>868</ele>
        <time>2021-08-10T09:55:48.761Z</time>
      </trkpt>
      <trkpt lat="46.95549" lon="8.58323">
        <ele>869</ele>
        <time>2021-08-10T09:55:49.762Z</time>
      </trkpt>
      <trkpt lat="46.95546" lon="8.58322">
        <ele>869</ele>
        <time>2021-08-10T09:55:50.761Z</time>
      </trkpt>
      <trkpt lat="46.95544" lon="8.58322">
        <ele>869</ele>
        <time>2021-08-10T09:55:51.761Z</time>
      </trkpt>
      <trkpt lat="46.95543" lon="8.58322">
        <ele>870</ele>
        <time>2021-08-10T09:55:52.761Z</time>
      </trkpt>
      <trkpt lat="46.95541" lon="8.58321">
        <ele>871</ele>
        <time>2021-08-10T09:55:53.761Z</time>
      </trkpt>
      <trkpt lat="46.9554" lon="8.58321">
        <ele>872</ele>
        <time>2021-08-10T09:55:54.761Z</time>
      </trkpt>
      <trkpt lat="46.95538" lon="8.58322">
        <ele>873</ele>
        <time>2021-08-10T09:55:55.761Z</time>
      </trkpt>
      <trkpt lat="46.95538" lon="8.58322">
        <ele>873</ele>
        <time>2021-08-10T09:55:56.761Z</time>
      </trkpt>
      <trkpt lat="46.95537" lon="8.58323">
        <ele>874</ele>
        <time>2021-08-10T09:55:57.761Z</time>
      </trkpt>
      <trkpt lat="46.95536" lon="8.58324">
        <ele>875</ele>
        <time>2021-08-10T09:55:58.761Z</time>
      </trkpt>
      <trkpt lat="46.95536" lon="8.58324">
        <ele>876</ele>
        <time>2021-08-10T09:55:59.761Z</time>
      </trkpt>
      <trkpt lat="46.95535" lon="8.58325">
        <ele>876</ele>
        <time>2021-08-10T09:56:00.761Z</time>
      </trkpt>
      <trkpt lat="46.95534" lon="8.58326">
        <ele>877</ele>
        <time>2021-08-10T09:56:01.761Z</time>
      </trkpt>
      <trkpt lat="46.95534" lon="8.58327">
        <ele>877</ele>
        <time>2021-08-10T09:56:02.761Z</time>
      </trkpt>
      <trkpt lat="46.95532" lon="8.58328">
        <ele>877</ele>
        <time>2021-08-10T09:56:03.762Z</time>
      </trkpt>
      <trkpt lat="46.95531" lon="8.58329">
        <ele>877</ele>
        <time>2021-08-10T09:56:04.762Z</time>
      </trkpt>
      <trkpt lat="46.9553" lon="8.58329">
        <ele>877</ele>
        <time>2021-08-10T09:56:05.762Z</time>
      </trkpt>
      <trkpt lat="46.95529" lon="8.58329">
        <ele>877</ele>
        <time>2021-08-10T09:56:06.762Z</time>
      </trkpt>
      <trkpt lat="46.95528" lon="8.58328">
        <ele>877</ele>
        <time>2021-08-10T09:56:07.762Z</time>
      </trkpt>
      <trkpt lat="46.95527" lon="8.58328">
        <ele>876</ele>
        <time>2021-08-10T09:56:08.761Z</time>
      </trkpt>
      <trkpt lat="46.95525" lon="8.58327">
        <ele>876</ele>
        <time>2021-08-10T09:56:09.761Z</time>
      </trkpt>
      <trkpt lat="46.95524" lon="8.58327">
        <ele>876</ele>
        <time>2021-08-10T09:56:10.761Z</time>
      </trkpt>
      <trkpt lat="46.95523" lon="8.58327">
        <ele>875</ele>
        <time>2021-08-10T09:56:11.762Z</time>
      </trkpt>
      <trkpt lat="46.95523" lon="8.58327">
        <ele>875</ele>
        <time>2021-08-10T09:56:12.762Z</time>
      </trkpt>
      <trkpt lat="46.95522" lon="8.58328">
        <ele>875</ele>
        <time>2021-08-10T09:56:13.762Z</time>
      </trkpt>
      <trkpt lat="46.95521" lon="8.58328">
        <ele>875</ele>
        <time>2021-08-10T09:56:14.762Z</time>
      </trkpt>
      <trkpt lat="46.95521" lon="8.58329">
        <ele>875</ele>
        <time>2021-08-10T09:56:15.761Z</time>
      </trkpt>
      <trkpt lat="46.9552" lon="8.58329">
        <ele>874</ele>
        <time>2021-08-10T09:56:16.762Z</time>
      </trkpt>
      <trkpt lat="46.9552" lon="8.5833">
        <ele>874</ele>
        <time>2021-08-10T09:56:17.762Z</time>
      </trkpt>
      <trkpt lat="46.95519" lon="8.5833">
        <ele>874</ele>
        <time>2021-08-10T09:56:18.762Z</time>
      </trkpt>
      <trkpt lat="46.95518" lon="8.5833">
        <ele>874</ele>
        <time>2021-08-10T09:56:19.761Z</time>
      </trkpt>
      <trkpt lat="46.95518" lon="8.5833">
        <ele>874</ele>
        <time>2021-08-10T09:56:20.762Z</time>
      </trkpt>
      <trkpt lat="46.95517" lon="8.5833">
        <ele>873</ele>
        <time>2021-08-10T09:56:21.762Z</time>
      </trkpt>
      <trkpt lat="46.95516" lon="8.5833">
        <ele>873</ele>
        <time>2021-08-10T09:56:22.762Z</time>
      </trkpt>
      <trkpt lat="46.95515" lon="8.5833">
        <ele>872</ele>
        <time>2021-08-10T09:56:23.762Z</time>
      </trkpt>
      <trkpt lat="46.95514" lon="8.5833">
        <ele>872</ele>
        <time>2021-08-10T09:56:24.761Z</time>
      </trkpt>
      <trkpt lat="46.95512" lon="8.58329">
        <ele>871</ele>
        <time>2021-08-10T09:56:25.761Z</time>
      </trkpt>
      <trkpt lat="46.95511" lon="8.58329">
        <ele>870</ele>
        <time>2021-08-10T09:56:26.762Z</time>
      </trkpt>
      <trkpt lat="46.9551" lon="8.58329">
        <ele>870</ele>
        <time>2021-08-10T09:56:27.761Z</time>
      </trkpt>
      <trkpt lat="46.95509" lon="8.58328">
        <ele>869</ele>
        <time>2021-08-10T09:56:28.762Z</time>
      </trkpt>
      <trkpt lat="46.95508" lon="8.58329">
        <ele>869</ele>
        <time>2021-08-10T09:56:29.761Z</time>
      </trkpt>
      <trkpt lat="46.95506" lon="8.58329">
        <ele>869</ele>
        <time>2021-08-10T09:56:30.761Z</time>
      </trkpt>
      <trkpt lat="46.95506" lon="8.58329">
        <ele>869</ele>
        <time>2021-08-10T09:56:31.761Z</time>
      </trkpt>
      <trkpt lat="46.95505" lon="8.5833">
        <ele>869</ele>
        <time>2021-08-10T09:56:32.761Z</time>
      </trkpt>
      <trkpt lat="46.95504" lon="8.5833">
        <ele>869</ele>
        <time>2021-08-10T09:56:33.761Z</time>
      </trkpt>
      <trkpt lat="46.95503" lon="8.58331">
        <ele>868</ele>
        <time>2021-08-10T09:56:34.761Z</time>
      </trkpt>
      <trkpt lat="46.95502" lon="8.58331">
        <ele>868</ele>
        <time>2021-08-10T09:56:35.761Z</time>
      </trkpt>
      <trkpt lat="46.95502" lon="8.58332">
        <ele>868</ele>
        <time>2021-08-10T09:56:36.762Z</time>
      </trkpt>
      <trkpt lat="46.95502" lon="8.58331">
        <ele>868</ele>
        <time>2021-08-10T09:56:37.762Z</time>
      </trkpt>
      <trkpt lat="46.95502" lon="8.58331">
        <ele>867</ele>
        <time>2021-08-10T09:56:38.762Z</time>
      </trkpt>
      <trkpt lat="46.95502" lon="8.58331">
        <ele>867</ele>
        <time>2021-08-10T09:56:39.762Z</time>
      </trkpt>
      <trkpt lat="46.95502" lon="8.58331">
        <ele>867</ele>
        <time>2021-08-10T09:56:40.762Z</time>
      </trkpt>
      <trkpt lat="46.95501" lon="8.58332">
        <ele>866</ele>
        <time>2021-08-10T09:56:41.762Z</time>
      </trkpt>
      <trkpt lat="46.95501" lon="8.58332">
        <ele>866</ele>
        <time>2021-08-10T09:56:42.762Z</time>
      </trkpt>
      <trkpt lat="46.955" lon="8.58332">
        <ele>866</ele>
        <time>2021-08-10T09:56:43.761Z</time>
      </trkpt>
      <trkpt lat="46.95499" lon="8.58333">
        <ele>866</ele>
        <time>2021-08-10T09:56:44.762Z</time>
      </trkpt>
      <trkpt lat="46.95499" lon="8.58333">
        <ele>866</ele>
        <time>2021-08-10T09:56:45.762Z</time>
      </trkpt>
      <trkpt lat="46.95498" lon="8.58333">
        <ele>866</ele>
        <time>2021-08-10T09:56:46.762Z</time>
      </trkpt>
      <trkpt lat="46.95497" lon="8.58334">
        <ele>866</ele>
        <time>2021-08-10T09:56:47.762Z</time>
      </trkpt>
      <trkpt lat="46.95496" lon="8.58334">
        <ele>866</ele>
        <time>2021-08-10T09:56:48.762Z</time>
      </trkpt>
      <trkpt lat="46.95495" lon="8.58334">
        <ele>866</ele>
        <time>2021-08-10T09:56:49.762Z</time>
      </trkpt>
      <trkpt lat="46.95495" lon="8.58334">
        <ele>866</ele>
        <time>2021-08-10T09:56:50.762Z</time>
      </trkpt>
      <trkpt lat="46.95494" lon="8.58335">
        <ele>866</ele>
        <time>2021-08-10T09:56:51.761Z</time>
      </trkpt>
      <trkpt lat="46.95492" lon="8.58335">
        <ele>867</ele>
        <time>2021-08-10T09:56:52.763Z</time>
      </trkpt>
      <trkpt lat="46.95491" lon="8.58335">
        <ele>867</ele>
        <time>2021-08-10T09:56:53.763Z</time>
      </trkpt>
      <trkpt lat="46.95491" lon="8.58335">
        <ele>867</ele>
        <time>2021-08-10T09:56:54.763Z</time>
      </trkpt>
      <trkpt lat="46.9549" lon="8.58334">
        <ele>867</ele>
        <time>2021-08-10T09:56:55.762Z</time>
      </trkpt>
      <trkpt lat="46.95488" lon="8.58333">
        <ele>868</ele>
        <time>2021-08-10T09:56:56.762Z</time>
      </trkpt>
      <trkpt lat="46.95487" lon="8.58333">
        <ele>868</ele>
        <time>2021-08-10T09:56:57.762Z</time>
      </trkpt>
      <trkpt lat="46.95486" lon="8.58332">
        <ele>868</ele>
        <time>2021-08-10T09:56:58.763Z</time>
      </trkpt>
      <trkpt lat="46.95486" lon="8.58331">
        <ele>868</ele>
        <time>2021-08-10T09:56:59.763Z</time>
      </trkpt>
      <trkpt lat="46.95482" lon="8.58332">
        <ele>870</ele>
        <time>2021-08-10T09:57:00.763Z</time>
      </trkpt>
      <trkpt lat="46.95483" lon="8.58331">
        <ele>868</ele>
        <time>2021-08-10T09:57:01.763Z</time>
      </trkpt>
      <trkpt lat="46.95483" lon="8.58331">
        <ele>867</ele>
        <time>2021-08-10T09:57:02.763Z</time>
      </trkpt>
      <trkpt lat="46.95483" lon="8.58332">
        <ele>863</ele>
        <time>2021-08-10T09:57:03.765Z</time>
      </trkpt>
      <trkpt lat="46.95484" lon="8.58332">
        <ele>863</ele>
        <time>2021-08-10T09:57:04.765Z</time>
      </trkpt>
      <trkpt lat="46.95484" lon="8.58332">
        <ele>863</ele>
        <time>2021-08-10T09:57:05.765Z</time>
      </trkpt>
      <trkpt lat="46.95484" lon="8.58332">
        <ele>863</ele>
        <time>2021-08-10T09:57:06.764Z</time>
      </trkpt>
      <trkpt lat="46.95485" lon="8.58333">
        <ele>864</ele>
        <time>2021-08-10T09:57:07.764Z</time>
      </trkpt>
      <trkpt lat="46.95485" lon="8.58333">
        <ele>864</ele>
        <time>2021-08-10T09:57:08.765Z</time>
      </trkpt>
      <trkpt lat="46.95486" lon="8.58334">
        <ele>864</ele>
        <time>2021-08-10T09:57:09.765Z</time>
      </trkpt>
      <trkpt lat="46.95486" lon="8.58335">
        <ele>870</ele>
        <time>2021-08-10T09:57:10.765Z</time>
      </trkpt>
      <trkpt lat="46.95486" lon="8.58335">
        <ele>871</ele>
        <time>2021-08-10T09:57:11.764Z</time>
      </trkpt>
      <trkpt lat="46.95482" lon="8.58342">
        <ele>873</ele>
        <time>2021-08-10T09:57:12.766Z</time>
      </trkpt>
      <trkpt lat="46.95482" lon="8.58343">
        <ele>873</ele>
        <time>2021-08-10T09:57:13.766Z</time>
      </trkpt>
      <trkpt lat="46.95482" lon="8.58343">
        <ele>874</ele>
        <time>2021-08-10T09:57:14.766Z</time>
      </trkpt>
      <trkpt lat="46.95483" lon="8.58342">
        <ele>874</ele>
        <time>2021-08-10T09:57:15.765Z</time>
      </trkpt>
      <trkpt lat="46.95482" lon="8.58341">
        <ele>874</ele>
        <time>2021-08-10T09:57:16.766Z</time>
      </trkpt>
      <trkpt lat="46.95483" lon="8.58342">
        <ele>874</ele>
        <time>2021-08-10T09:57:17.765Z</time>
      </trkpt>
      <trkpt lat="46.95483" lon="8.58341">
        <ele>874</ele>
        <time>2021-08-10T09:57:18.766Z</time>
      </trkpt>
      <trkpt lat="46.95484" lon="8.58341">
        <ele>874</ele>
        <time>2021-08-10T09:57:19.766Z</time>
      </trkpt>
      <trkpt lat="46.95484" lon="8.58341">
        <ele>873</ele>
        <time>2021-08-10T09:57:20.766Z</time>
      </trkpt>
      <trkpt lat="46.95482" lon="8.58341">
        <ele>871</ele>
        <time>2021-08-10T09:57:21.767Z</time>
      </trkpt>
      <trkpt lat="46.95481" lon="8.58341">
        <ele>871</ele>
        <time>2021-08-10T09:57:22.766Z</time>
      </trkpt>
      <trkpt lat="46.9548" lon="8.5834">
        <ele>871</ele>
        <time>2021-08-10T09:57:23.766Z</time>
      </trkpt>
      <trkpt lat="46.95479" lon="8.5834">
        <ele>871</ele>
        <time>2021-08-10T09:57:24.767Z</time>
      </trkpt>
      <trkpt lat="46.95478" lon="8.5834">
        <ele>871</ele>
        <time>2021-08-10T09:57:25.766Z</time>
      </trkpt>
      <trkpt lat="46.95477" lon="8.58341">
        <ele>870</ele>
        <time>2021-08-10T09:57:26.767Z</time>
      </trkpt>
      <trkpt lat="46.95477" lon="8.58341">
        <ele>869</ele>
        <time>2021-08-10T09:57:27.766Z</time>
      </trkpt>
      <trkpt lat="46.95476" lon="8.58342">
        <ele>869</ele>
        <time>2021-08-10T09:57:28.767Z</time>
      </trkpt>
      <trkpt lat="46.95475" lon="8.58342">
        <ele>868</ele>
        <time>2021-08-10T09:57:29.767Z</time>
      </trkpt>
      <trkpt lat="46.95475" lon="8.58343">
        <ele>868</ele>
        <time>2021-08-10T09:57:30.767Z</time>
      </trkpt>
      <trkpt lat="46.95474" lon="8.58342">
        <ele>868</ele>
        <time>2021-08-10T09:57:31.767Z</time>
      </trkpt>
      <trkpt lat="46.95473" lon="8.58342">
        <ele>868</ele>
        <time>2021-08-10T09:57:32.767Z</time>
      </trkpt>
      <trkpt lat="46.95472" lon="8.58342">
        <ele>868</ele>
        <time>2021-08-10T09:57:33.767Z</time>
      </trkpt>
      <trkpt lat="46.95471" lon="8.58342">
        <ele>868</ele>
        <time>2021-08-10T09:57:34.766Z</time>
      </trkpt>
      <trkpt lat="46.9547" lon="8.58342">
        <ele>867</ele>
        <time>2021-08-10T09:57:35.767Z</time>
      </trkpt>
      <trkpt lat="46.95469" lon="8.58342">
        <ele>867</ele>
        <time>2021-08-10T09:57:36.767Z</time>
      </trkpt>
      <trkpt lat="46.95469" lon="8.58342">
        <ele>866</ele>
        <time>2021-08-10T09:57:37.766Z</time>
      </trkpt>
      <trkpt lat="46.95468" lon="8.58342">
        <ele>866</ele>
        <time>2021-08-10T09:57:38.766Z</time>
      </trkpt>
      <trkpt lat="46.95468" lon="8.58341">
        <ele>866</ele>
        <time>2021-08-10T09:57:39.767Z</time>
      </trkpt>
      <trkpt lat="46.95467" lon="8.5834">
        <ele>866</ele>
        <time>2021-08-10T09:57:40.767Z</time>
      </trkpt>
      <trkpt lat="46.95466" lon="8.58338">
        <ele>866</ele>
        <time>2021-08-10T09:57:41.767Z</time>
      </trkpt>
      <trkpt lat="46.95466" lon="8.58336">
        <ele>866</ele>
        <time>2021-08-10T09:57:42.767Z</time>
      </trkpt>
      <trkpt lat="46.95465" lon="8.58335">
        <ele>866</ele>
        <time>2021-08-10T09:57:43.766Z</time>
      </trkpt>
      <trkpt lat="46.95464" lon="8.58334">
        <ele>866</ele>
        <time>2021-08-10T09:57:44.767Z</time>
      </trkpt>
      <trkpt lat="46.95463" lon="8.58334">
        <ele>867</ele>
        <time>2021-08-10T09:57:45.767Z</time>
      </trkpt>
      <trkpt lat="46.95463" lon="8.58334">
        <ele>867</ele>
        <time>2021-08-10T09:57:46.767Z</time>
      </trkpt>
      <trkpt lat="46.95462" lon="8.58334">
        <ele>867</ele>
        <time>2021-08-10T09:57:47.767Z</time>
      </trkpt>
      <trkpt lat="46.95462" lon="8.58334">
        <ele>867</ele>
        <time>2021-08-10T09:57:48.767Z</time>
      </trkpt>
      <trkpt lat="46.95461" lon="8.58334">
        <ele>868</ele>
        <time>2021-08-10T09:57:49.767Z</time>
      </trkpt>
      <trkpt lat="46.95461" lon="8.58334">
        <ele>868</ele>
        <time>2021-08-10T09:57:50.766Z</time>
      </trkpt>
      <trkpt lat="46.95461" lon="8.58334">
        <ele>868</ele>
        <time>2021-08-10T09:57:51.766Z</time>
      </trkpt>
      <trkpt lat="46.95459" lon="8.58333">
        <ele>867</ele>
        <time>2021-08-10T09:57:52.767Z</time>
      </trkpt>
      <trkpt lat="46.95458" lon="8.58333">
        <ele>867</ele>
        <time>2021-08-10T09:57:53.767Z</time>
      </trkpt>
      <trkpt lat="46.95457" lon="8.58333">
        <ele>867</ele>
        <time>2021-08-10T09:57:54.767Z</time>
      </trkpt>
      <trkpt lat="46.95456" lon="8.58334">
        <ele>867</ele>
        <time>2021-08-10T09:57:55.766Z</time>
      </trkpt>
      <trkpt lat="46.95456" lon="8.58334">
        <ele>866</ele>
        <time>2021-08-10T09:57:56.767Z</time>
      </trkpt>
      <trkpt lat="46.95455" lon="8.58335">
        <ele>866</ele>
        <time>2021-08-10T09:57:57.767Z</time>
      </trkpt>
      <trkpt lat="46.95455" lon="8.58335">
        <ele>866</ele>
        <time>2021-08-10T09:57:58.766Z</time>
      </trkpt>
      <trkpt lat="46.95455" lon="8.58335">
        <ele>866</ele>
        <time>2021-08-10T09:57:59.767Z</time>
      </trkpt>
      <trkpt lat="46.95454" lon="8.58336">
        <ele>865</ele>
        <time>2021-08-10T09:58:00.766Z</time>
      </trkpt>
      <trkpt lat="46.95454" lon="8.58336">
        <ele>865</ele>
        <time>2021-08-10T09:58:01.766Z</time>
      </trkpt>
      <trkpt lat="46.95453" lon="8.58336">
        <ele>865</ele>
        <time>2021-08-10T09:58:02.766Z</time>
      </trkpt>
      <trkpt lat="46.95452" lon="8.58336">
        <ele>864</ele>
        <time>2021-08-10T09:58:03.766Z</time>
      </trkpt>
      <trkpt lat="46.95452" lon="8.58337">
        <ele>864</ele>
        <time>2021-08-10T09:58:04.767Z</time>
      </trkpt>
      <trkpt lat="46.9545" lon="8.58336">
        <ele>864</ele>
        <time>2021-08-10T09:58:05.767Z</time>
      </trkpt>
      <trkpt lat="46.95449" lon="8.58336">
        <ele>863</ele>
        <time>2021-08-10T09:58:06.767Z</time>
      </trkpt>
      <trkpt lat="46.95447" lon="8.58336">
        <ele>863</ele>
        <time>2021-08-10T09:58:07.767Z</time>
      </trkpt>
      <trkpt lat="46.95445" lon="8.58336">
        <ele>863</ele>
        <time>2021-08-10T09:58:08.766Z</time>
      </trkpt>
      <trkpt lat="46.95443" lon="8.58335">
        <ele>863</ele>
        <time>2021-08-10T09:58:09.767Z</time>
      </trkpt>
      <trkpt lat="46.95441" lon="8.58334">
        <ele>863</ele>
        <time>2021-08-10T09:58:10.767Z</time>
      </trkpt>
      <trkpt lat="46.9544" lon="8.58334">
        <ele>863</ele>
        <time>2021-08-10T09:58:11.766Z</time>
      </trkpt>
      <trkpt lat="46.95439" lon="8.58334">
        <ele>863</ele>
        <time>2021-08-10T09:58:12.767Z</time>
      </trkpt>
      <trkpt lat="46.95438" lon="8.58334">
        <ele>863</ele>
        <time>2021-08-10T09:58:13.767Z</time>
      </trkpt>
      <trkpt lat="46.95438" lon="8.58334">
        <ele>862</ele>
        <time>2021-08-10T09:58:14.767Z</time>
      </trkpt>
      <trkpt lat="46.95438" lon="8.58334">
        <ele>862</ele>
        <time>2021-08-10T09:58:15.767Z</time>
      </trkpt>
      <trkpt lat="46.95437" lon="8.58333">
        <ele>862</ele>
        <time>2021-08-10T09:58:16.767Z</time>
      </trkpt>
      <trkpt lat="46.95437" lon="8.58333">
        <ele>861</ele>
        <time>2021-08-10T09:58:17.767Z</time>
      </trkpt>
      <trkpt lat="46.95436" lon="8.58333">
        <ele>861</ele>
        <time>2021-08-10T09:58:18.767Z</time>
      </trkpt>
      <trkpt lat="46.95435" lon="8.58332">
        <ele>861</ele>
        <time>2021-08-10T09:58:19.767Z</time>
      </trkpt>
      <trkpt lat="46.95434" lon="8.58332">
        <ele>860</ele>
        <time>2021-08-10T09:58:20.767Z</time>
      </trkpt>
      <trkpt lat="46.95434" lon="8.58331">
        <ele>860</ele>
        <time>2021-08-10T09:58:21.767Z</time>
      </trkpt>
      <trkpt lat="46.95433" lon="8.58331">
        <ele>860</ele>
        <time>2021-08-10T09:58:22.767Z</time>
      </trkpt>
      <trkpt lat="46.95432" lon="8.5833">
        <ele>860</ele>
        <time>2021-08-10T09:58:23.766Z</time>
      </trkpt>
      <trkpt lat="46.95431" lon="8.58329">
        <ele>860</ele>
        <time>2021-08-10T09:58:24.766Z</time>
      </trkpt>
      <trkpt lat="46.95431" lon="8.58329">
        <ele>860</ele>
        <time>2021-08-10T09:58:25.767Z</time>
      </trkpt>
      <trkpt lat="46.95431" lon="8.58329">
        <ele>860</ele>
        <time>2021-08-10T09:58:26.767Z</time>
      </trkpt>
      <trkpt lat="46.95431" lon="8.58329">
        <ele>860</ele>
        <time>2021-08-10T09:58:27.767Z</time>
      </trkpt>
      <trkpt lat="46.9543" lon="8.58327">
        <ele>859</ele>
        <time>2021-08-10T09:58:28.769Z</time>
      </trkpt>
      <trkpt lat="46.9543" lon="8.58326">
        <ele>859</ele>
        <time>2021-08-10T09:58:29.768Z</time>
      </trkpt>
      <trkpt lat="46.9543" lon="8.58325">
        <ele>858</ele>
        <time>2021-08-10T09:58:30.769Z</time>
      </trkpt>
      <trkpt lat="46.9543" lon="8.58324">
        <ele>858</ele>
        <time>2021-08-10T09:58:31.769Z</time>
      </trkpt>
      <trkpt lat="46.95429" lon="8.58323">
        <ele>858</ele>
        <time>2021-08-10T09:58:32.768Z</time>
      </trkpt>
      <trkpt lat="46.95428" lon="8.58322">
        <ele>858</ele>
        <time>2021-08-10T09:58:33.768Z</time>
      </trkpt>
      <trkpt lat="46.95428" lon="8.58321">
        <ele>858</ele>
        <time>2021-08-10T09:58:34.768Z</time>
      </trkpt>
      <trkpt lat="46.95427" lon="8.5832">
        <ele>858</ele>
        <time>2021-08-10T09:58:35.768Z</time>
      </trkpt>
      <trkpt lat="46.95427" lon="8.58319">
        <ele>858</ele>
        <time>2021-08-10T09:58:36.769Z</time>
      </trkpt>
      <trkpt lat="46.95427" lon="8.58318">
        <ele>858</ele>
        <time>2021-08-10T09:58:37.769Z</time>
      </trkpt>
      <trkpt lat="46.95427" lon="8.58317">
        <ele>858</ele>
        <time>2021-08-10T09:58:38.768Z</time>
      </trkpt>
      <trkpt lat="46.95426" lon="8.58315">
        <ele>858</ele>
        <time>2021-08-10T09:58:39.769Z</time>
      </trkpt>
      <trkpt lat="46.95425" lon="8.58314">
        <ele>859</ele>
        <time>2021-08-10T09:58:40.769Z</time>
      </trkpt>
      <trkpt lat="46.95424" lon="8.58313">
        <ele>859</ele>
        <time>2021-08-10T09:58:41.769Z</time>
      </trkpt>
      <trkpt lat="46.95423" lon="8.58311">
        <ele>860</ele>
        <time>2021-08-10T09:58:42.769Z</time>
      </trkpt>
      <trkpt lat="46.95423" lon="8.5831">
        <ele>860</ele>
        <time>2021-08-10T09:58:43.768Z</time>
      </trkpt>
      <trkpt lat="46.95423" lon="8.58308">
        <ele>861</ele>
        <time>2021-08-10T09:58:44.768Z</time>
      </trkpt>
      <trkpt lat="46.95424" lon="8.58308">
        <ele>861</ele>
        <time>2021-08-10T09:58:45.768Z</time>
      </trkpt>
      <trkpt lat="46.95424" lon="8.58307">
        <ele>861</ele>
        <time>2021-08-10T09:58:46.769Z</time>
      </trkpt>
      <trkpt lat="46.95424" lon="8.58303">
        <ele>855</ele>
        <time>2021-08-10T09:58:47.769Z</time>
      </trkpt>
      <trkpt lat="46.95424" lon="8.58303">
        <ele>855</ele>
        <time>2021-08-10T09:58:48.770Z</time>
      </trkpt>
      <trkpt lat="46.95423" lon="8.58302">
        <ele>855</ele>
        <time>2021-08-10T09:58:49.769Z</time>
      </trkpt>
      <trkpt lat="46.95423" lon="8.58301">
        <ele>855</ele>
        <time>2021-08-10T09:58:50.770Z</time>
      </trkpt>
      <trkpt lat="46.95423" lon="8.58301">
        <ele>855</ele>
        <time>2021-08-10T09:58:51.769Z</time>
      </trkpt>
      <trkpt lat="46.95423" lon="8.58301">
        <ele>855</ele>
        <time>2021-08-10T09:58:52.770Z</time>
      </trkpt>
      <trkpt lat="46.95423" lon="8.583">
        <ele>855</ele>
        <time>2021-08-10T09:58:53.770Z</time>
      </trkpt>
      <trkpt lat="46.95423" lon="8.58299">
        <ele>854</ele>
        <time>2021-08-10T09:58:54.769Z</time>
      </trkpt>
      <trkpt lat="46.95423" lon="8.58298">
        <ele>854</ele>
        <time>2021-08-10T09:58:55.770Z</time>
      </trkpt>
      <trkpt lat="46.95422" lon="8.58298">
        <ele>854</ele>
        <time>2021-08-10T09:58:56.770Z</time>
      </trkpt>
      <trkpt lat="46.95422" lon="8.58297">
        <ele>854</ele>
        <time>2021-08-10T09:58:57.770Z</time>
      </trkpt>
      <trkpt lat="46.95421" lon="8.58296">
        <ele>853</ele>
        <time>2021-08-10T09:58:58.770Z</time>
      </trkpt>
      <trkpt lat="46.95421" lon="8.58295">
        <ele>853</ele>
        <time>2021-08-10T09:58:59.769Z</time>
      </trkpt>
      <trkpt lat="46.95421" lon="8.58294">
        <ele>853</ele>
        <time>2021-08-10T09:59:00.770Z</time>
      </trkpt>
      <trkpt lat="46.95421" lon="8.58293">
        <ele>853</ele>
        <time>2021-08-10T09:59:01.770Z</time>
      </trkpt>
      <trkpt lat="46.9542" lon="8.58292">
        <ele>854</ele>
        <time>2021-08-10T09:59:02.770Z</time>
      </trkpt>
      <trkpt lat="46.9542" lon="8.58291">
        <ele>854</ele>
        <time>2021-08-10T09:59:03.770Z</time>
      </trkpt>
      <trkpt lat="46.9542" lon="8.58291">
        <ele>854</ele>
        <time>2021-08-10T09:59:04.770Z</time>
      </trkpt>
      <trkpt lat="46.9542" lon="8.5829">
        <ele>853</ele>
        <time>2021-08-10T09:59:05.769Z</time>
      </trkpt>
      <trkpt lat="46.9542" lon="8.58289">
        <ele>853</ele>
        <time>2021-08-10T09:59:06.770Z</time>
      </trkpt>
      <trkpt lat="46.9542" lon="8.58287">
        <ele>853</ele>
        <time>2021-08-10T09:59:07.770Z</time>
      </trkpt>
      <trkpt lat="46.9542" lon="8.58286">
        <ele>853</ele>
        <time>2021-08-10T09:59:08.770Z</time>
      </trkpt>
      <trkpt lat="46.95419" lon="8.58284">
        <ele>853</ele>
        <time>2021-08-10T09:59:09.769Z</time>
      </trkpt>
      <trkpt lat="46.95419" lon="8.58283">
        <ele>853</ele>
        <time>2021-08-10T09:59:10.770Z</time>
      </trkpt>
      <trkpt lat="46.9542" lon="8.58283">
        <ele>853</ele>
        <time>2021-08-10T09:59:11.770Z</time>
      </trkpt>
      <trkpt lat="46.95419" lon="8.58282">
        <ele>853</ele>
        <time>2021-08-10T09:59:12.770Z</time>
      </trkpt>
      <trkpt lat="46.95419" lon="8.58281">
        <ele>853</ele>
        <time>2021-08-10T09:59:13.770Z</time>
      </trkpt>
      <trkpt lat="46.95418" lon="8.58281">
        <ele>853</ele>
        <time>2021-08-10T09:59:14.769Z</time>
      </trkpt>
      <trkpt lat="46.95418" lon="8.5828">
        <ele>853</ele>
        <time>2021-08-10T09:59:15.770Z</time>
      </trkpt>
      <trkpt lat="46.95418" lon="8.5828">
        <ele>852</ele>
        <time>2021-08-10T09:59:16.770Z</time>
      </trkpt>
      <trkpt lat="46.95417" lon="8.58279">
        <ele>852</ele>
        <time>2021-08-10T09:59:17.770Z</time>
      </trkpt>
      <trkpt lat="46.95416" lon="8.58278">
        <ele>851</ele>
        <time>2021-08-10T09:59:18.770Z</time>
      </trkpt>
      <trkpt lat="46.95415" lon="8.58278">
        <ele>851</ele>
        <time>2021-08-10T09:59:19.770Z</time>
      </trkpt>
      <trkpt lat="46.95414" lon="8.58277">
        <ele>850</ele>
        <time>2021-08-10T09:59:20.770Z</time>
      </trkpt>
      <trkpt lat="46.95414" lon="8.58277">
        <ele>850</ele>
        <time>2021-08-10T09:59:21.770Z</time>
      </trkpt>
      <trkpt lat="46.95413" lon="8.58277">
        <ele>850</ele>
        <time>2021-08-10T09:59:22.770Z</time>
      </trkpt>
      <trkpt lat="46.95413" lon="8.58277">
        <ele>850</ele>
        <time>2021-08-10T09:59:23.769Z</time>
      </trkpt>
      <trkpt lat="46.95412" lon="8.58276">
        <ele>849</ele>
        <time>2021-08-10T09:59:24.770Z</time>
      </trkpt>
      <trkpt lat="46.9541" lon="8.58274">
        <ele>849</ele>
        <time>2021-08-10T09:59:25.770Z</time>
      </trkpt>
      <trkpt lat="46.95409" lon="8.58273">
        <ele>848</ele>
        <time>2021-08-10T09:59:26.770Z</time>
      </trkpt>
      <trkpt lat="46.95409" lon="8.58271">
        <ele>848</ele>
        <time>2021-08-10T09:59:27.770Z</time>
      </trkpt>
      <trkpt lat="46.95408" lon="8.58269">
        <ele>847</ele>
        <time>2021-08-10T09:59:28.770Z</time>
      </trkpt>
      <trkpt lat="46.95408" lon="8.58268">
        <ele>847</ele>
        <time>2021-08-10T09:59:29.769Z</time>
      </trkpt>
      <trkpt lat="46.95408" lon="8.58267">
        <ele>846</ele>
        <time>2021-08-10T09:59:30.770Z</time>
      </trkpt>
      <trkpt lat="46.95408" lon="8.58267">
        <ele>846</ele>
        <time>2021-08-10T09:59:31.770Z</time>
      </trkpt>
      <trkpt lat="46.95408" lon="8.58266">
        <ele>846</ele>
        <time>2021-08-10T09:59:32.770Z</time>
      </trkpt>
      <trkpt lat="46.95408" lon="8.58264">
        <ele>846</ele>
        <time>2021-08-10T09:59:33.769Z</time>
      </trkpt>
      <trkpt lat="46.95407" lon="8.58263">
        <ele>845</ele>
        <time>2021-08-10T09:59:34.769Z</time>
      </trkpt>
      <trkpt lat="46.95407" lon="8.58262">
        <ele>845</ele>
        <time>2021-08-10T09:59:35.769Z</time>
      </trkpt>
      <trkpt lat="46.95407" lon="8.5826">
        <ele>844</ele>
        <time>2021-08-10T09:59:36.769Z</time>
      </trkpt>
      <trkpt lat="46.95407" lon="8.58259">
        <ele>844</ele>
        <time>2021-08-10T09:59:37.769Z</time>
      </trkpt>
      <trkpt lat="46.95407" lon="8.58258">
        <ele>843</ele>
        <time>2021-08-10T09:59:38.770Z</time>
      </trkpt>
      <trkpt lat="46.95407" lon="8.58256">
        <ele>843</ele>
        <time>2021-08-10T09:59:39.770Z</time>
      </trkpt>
      <trkpt lat="46.95406" lon="8.58255">
        <ele>843</ele>
        <time>2021-08-10T09:59:40.769Z</time>
      </trkpt>
      <trkpt lat="46.95406" lon="8.58254">
        <ele>843</ele>
        <time>2021-08-10T09:59:41.770Z</time>
      </trkpt>
      <trkpt lat="46.95405" lon="8.58253">
        <ele>843</ele>
        <time>2021-08-10T09:59:42.770Z</time>
      </trkpt>
      <trkpt lat="46.95404" lon="8.58251">
        <ele>843</ele>
        <time>2021-08-10T09:59:43.770Z</time>
      </trkpt>
      <trkpt lat="46.95403" lon="8.5825">
        <ele>844</ele>
        <time>2021-08-10T09:59:44.770Z</time>
      </trkpt>
      <trkpt lat="46.95403" lon="8.58249">
        <ele>844</ele>
        <time>2021-08-10T09:59:45.769Z</time>
      </trkpt>
      <trkpt lat="46.95402" lon="8.58248">
        <ele>844</ele>
        <time>2021-08-10T09:59:46.769Z</time>
      </trkpt>
      <trkpt lat="46.95402" lon="8.58246">
        <ele>844</ele>
        <time>2021-08-10T09:59:47.770Z</time>
      </trkpt>
      <trkpt lat="46.95402" lon="8.58245">
        <ele>844</ele>
        <time>2021-08-10T09:59:48.769Z</time>
      </trkpt>
      <trkpt lat="46.95402" lon="8.58244">
        <ele>845</ele>
        <time>2021-08-10T09:59:49.770Z</time>
      </trkpt>
      <trkpt lat="46.95401" lon="8.58243">
        <ele>845</ele>
        <time>2021-08-10T09:59:50.770Z</time>
      </trkpt>
      <trkpt lat="46.95401" lon="8.58241">
        <ele>845</ele>
        <time>2021-08-10T09:59:51.770Z</time>
      </trkpt>
      <trkpt lat="46.95401" lon="8.5824">
        <ele>846</ele>
        <time>2021-08-10T09:59:52.770Z</time>
      </trkpt>
      <trkpt lat="46.954" lon="8.58238">
        <ele>846</ele>
        <time>2021-08-10T09:59:53.769Z</time>
      </trkpt>
      <trkpt lat="46.95399" lon="8.58237">
        <ele>846</ele>
        <time>2021-08-10T09:59:54.770Z</time>
      </trkpt>
      <trkpt lat="46.95398" lon="8.58235">
        <ele>847</ele>
        <time>2021-08-10T09:59:55.770Z</time>
      </trkpt>
      <trkpt lat="46.95397" lon="8.58234">
        <ele>847</ele>
        <time>2021-08-10T09:59:56.769Z</time>
      </trkpt>
      <trkpt lat="46.95396" lon="8.58232">
        <ele>847</ele>
        <time>2021-08-10T09:59:57.770Z</time>
      </trkpt>
      <trkpt lat="46.95395" lon="8.58231">
        <ele>847</ele>
        <time>2021-08-10T09:59:58.770Z</time>
      </trkpt>
      <trkpt lat="46.95394" lon="8.5823">
        <ele>847</ele>
        <time>2021-08-10T09:59:59.770Z</time>
      </trkpt>
      <trkpt lat="46.95394" lon="8.58229">
        <ele>847</ele>
        <time>2021-08-10T10:00:00.770Z</time>
      </trkpt>
      <trkpt lat="46.95393" lon="8.58229">
        <ele>848</ele>
        <time>2021-08-10T10:00:01.769Z</time>
      </trkpt>
      <trkpt lat="46.95392" lon="8.58228">
        <ele>848</ele>
        <time>2021-08-10T10:00:02.769Z</time>
      </trkpt>
      <trkpt lat="46.95392" lon="8.58227">
        <ele>848</ele>
        <time>2021-08-10T10:00:03.769Z</time>
      </trkpt>
      <trkpt lat="46.95391" lon="8.58226">
        <ele>848</ele>
        <time>2021-08-10T10:00:04.769Z</time>
      </trkpt>
      <trkpt lat="46.9539" lon="8.58225">
        <ele>848</ele>
        <time>2021-08-10T10:00:05.770Z</time>
      </trkpt>
      <trkpt lat="46.95389" lon="8.58223">
        <ele>848</ele>
        <time>2021-08-10T10:00:06.770Z</time>
      </trkpt>
      <trkpt lat="46.95388" lon="8.58221">
        <ele>847</ele>
        <time>2021-08-10T10:00:07.769Z</time>
      </trkpt>
      <trkpt lat="46.95387" lon="8.58219">
        <ele>847</ele>
        <time>2021-08-10T10:00:08.770Z</time>
      </trkpt>
      <trkpt lat="46.95386" lon="8.58219">
        <ele>847</ele>
        <time>2021-08-10T10:00:09.769Z</time>
      </trkpt>
      <trkpt lat="46.95386" lon="8.58218">
        <ele>847</ele>
        <time>2021-08-10T10:00:10.770Z</time>
      </trkpt>
      <trkpt lat="46.95385" lon="8.58217">
        <ele>847</ele>
        <time>2021-08-10T10:00:11.770Z</time>
      </trkpt>
      <trkpt lat="46.95384" lon="8.58215">
        <ele>847</ele>
        <time>2021-08-10T10:00:12.770Z</time>
      </trkpt>
      <trkpt lat="46.95382" lon="8.58214">
        <ele>847</ele>
        <time>2021-08-10T10:00:13.770Z</time>
      </trkpt>
      <trkpt lat="46.9538" lon="8.58214">
        <ele>847</ele>
        <time>2021-08-10T10:00:14.769Z</time>
      </trkpt>
      <trkpt lat="46.9538" lon="8.58213">
        <ele>847</ele>
        <time>2021-08-10T10:00:15.770Z</time>
      </trkpt>
      <trkpt lat="46.9538" lon="8.58212">
        <ele>847</ele>
        <time>2021-08-10T10:00:16.770Z</time>
      </trkpt>
      <trkpt lat="46.9538" lon="8.58212">
        <ele>847</ele>
        <time>2021-08-10T10:00:17.770Z</time>
      </trkpt>
      <trkpt lat="46.95379" lon="8.58212">
        <ele>847</ele>
        <time>2021-08-10T10:00:18.770Z</time>
      </trkpt>
      <trkpt lat="46.95379" lon="8.58211">
        <ele>847</ele>
        <time>2021-08-10T10:00:19.770Z</time>
      </trkpt>
      <trkpt lat="46.95378" lon="8.58211">
        <ele>847</ele>
        <time>2021-08-10T10:00:20.769Z</time>
      </trkpt>
      <trkpt lat="46.95378" lon="8.58211">
        <ele>848</ele>
        <time>2021-08-10T10:00:21.770Z</time>
      </trkpt>
      <trkpt lat="46.95378" lon="8.58211">
        <ele>848</ele>
        <time>2021-08-10T10:00:22.769Z</time>
      </trkpt>
      <trkpt lat="46.95377" lon="8.58207">
        <ele>845</ele>
        <time>2021-08-10T10:00:23.772Z</time>
      </trkpt>
      <trkpt lat="46.95375" lon="8.58206">
        <ele>844</ele>
        <time>2021-08-10T10:00:24.772Z</time>
      </trkpt>
      <trkpt lat="46.95374" lon="8.58205">
        <ele>844</ele>
        <time>2021-08-10T10:00:25.771Z</time>
      </trkpt>
      <trkpt lat="46.95373" lon="8.58205">
        <ele>844</ele>
        <time>2021-08-10T10:00:26.772Z</time>
      </trkpt>
      <trkpt lat="46.95372" lon="8.58204">
        <ele>844</ele>
        <time>2021-08-10T10:00:27.771Z</time>
      </trkpt>
      <trkpt lat="46.95371" lon="8.58204">
        <ele>843</ele>
        <time>2021-08-10T10:00:28.772Z</time>
      </trkpt>
      <trkpt lat="46.95371" lon="8.58204">
        <ele>843</ele>
        <time>2021-08-10T10:00:29.771Z</time>
      </trkpt>
      <trkpt lat="46.9537" lon="8.58203">
        <ele>843</ele>
        <time>2021-08-10T10:00:30.772Z</time>
      </trkpt>
      <trkpt lat="46.95369" lon="8.58203">
        <ele>843</ele>
        <time>2021-08-10T10:00:31.772Z</time>
      </trkpt>
      <trkpt lat="46.95367" lon="8.58202">
        <ele>842</ele>
        <time>2021-08-10T10:00:32.771Z</time>
      </trkpt>
      <trkpt lat="46.95367" lon="8.58202">
        <ele>842</ele>
        <time>2021-08-10T10:00:33.772Z</time>
      </trkpt>
      <trkpt lat="46.95366" lon="8.58202">
        <ele>842</ele>
        <time>2021-08-10T10:00:34.772Z</time>
      </trkpt>
      <trkpt lat="46.95365" lon="8.58202">
        <ele>843</ele>
        <time>2021-08-10T10:00:35.772Z</time>
      </trkpt>
      <trkpt lat="46.95363" lon="8.58201">
        <ele>843</ele>
        <time>2021-08-10T10:00:36.772Z</time>
      </trkpt>
      <trkpt lat="46.95362" lon="8.58201">
        <ele>843</ele>
        <time>2021-08-10T10:00:37.771Z</time>
      </trkpt>
      <trkpt lat="46.95361" lon="8.58201">
        <ele>843</ele>
        <time>2021-08-10T10:00:38.771Z</time>
      </trkpt>
      <trkpt lat="46.9536" lon="8.58201">
        <ele>842</ele>
        <time>2021-08-10T10:00:39.772Z</time>
      </trkpt>
      <trkpt lat="46.95359" lon="8.58201">
        <ele>842</ele>
        <time>2021-08-10T10:00:40.772Z</time>
      </trkpt>
      <trkpt lat="46.95357" lon="8.582">
        <ele>841</ele>
        <time>2021-08-10T10:00:41.772Z</time>
      </trkpt>
      <trkpt lat="46.95357" lon="8.58199">
        <ele>841</ele>
        <time>2021-08-10T10:00:42.772Z</time>
      </trkpt>
      <trkpt lat="46.95356" lon="8.58198">
        <ele>840</ele>
        <time>2021-08-10T10:00:43.772Z</time>
      </trkpt>
      <trkpt lat="46.95356" lon="8.58197">
        <ele>840</ele>
        <time>2021-08-10T10:00:44.772Z</time>
      </trkpt>
      <trkpt lat="46.95357" lon="8.582">
        <ele>836</ele>
        <time>2021-08-10T10:00:45.773Z</time>
      </trkpt>
      <trkpt lat="46.95356" lon="8.582">
        <ele>836</ele>
        <time>2021-08-10T10:00:46.773Z</time>
      </trkpt>
      <trkpt lat="46.95356" lon="8.582">
        <ele>835</ele>
        <time>2021-08-10T10:00:47.772Z</time>
      </trkpt>
      <trkpt lat="46.95355" lon="8.582">
        <ele>835</ele>
        <time>2021-08-10T10:00:48.773Z</time>
      </trkpt>
      <trkpt lat="46.95355" lon="8.582">
        <ele>835</ele>
        <time>2021-08-10T10:00:49.773Z</time>
      </trkpt>
      <trkpt lat="46.95354" lon="8.58201">
        <ele>835</ele>
        <time>2021-08-10T10:00:50.773Z</time>
      </trkpt>
      <trkpt lat="46.95353" lon="8.58201">
        <ele>835</ele>
        <time>2021-08-10T10:00:51.773Z</time>
      </trkpt>
      <trkpt lat="46.95352" lon="8.58202">
        <ele>835</ele>
        <time>2021-08-10T10:00:52.773Z</time>
      </trkpt>
      <trkpt lat="46.95351" lon="8.58203">
        <ele>835</ele>
        <time>2021-08-10T10:00:53.773Z</time>
      </trkpt>
      <trkpt lat="46.95351" lon="8.58203">
        <ele>835</ele>
        <time>2021-08-10T10:00:54.773Z</time>
      </trkpt>
      <trkpt lat="46.9535" lon="8.58204">
        <ele>835</ele>
        <time>2021-08-10T10:00:55.772Z</time>
      </trkpt>
      <trkpt lat="46.9535" lon="8.58204">
        <ele>835</ele>
        <time>2021-08-10T10:00:56.773Z</time>
      </trkpt>
      <trkpt lat="46.9535" lon="8.58205">
        <ele>836</ele>
        <time>2021-08-10T10:00:57.773Z</time>
      </trkpt>
      <trkpt lat="46.9535" lon="8.58205">
        <ele>836</ele>
        <time>2021-08-10T10:00:58.772Z</time>
      </trkpt>
      <trkpt lat="46.95349" lon="8.58206">
        <ele>836</ele>
        <time>2021-08-10T10:00:59.773Z</time>
      </trkpt>
      <trkpt lat="46.95349" lon="8.58206">
        <ele>836</ele>
        <time>2021-08-10T10:01:00.773Z</time>
      </trkpt>
      <trkpt lat="46.95348" lon="8.58206">
        <ele>836</ele>
        <time>2021-08-10T10:01:01.772Z</time>
      </trkpt>
      <trkpt lat="46.95348" lon="8.58206">
        <ele>836</ele>
        <time>2021-08-10T10:01:02.773Z</time>
      </trkpt>
      <trkpt lat="46.95344" lon="8.58208">
        <ele>835</ele>
        <time>2021-08-10T10:01:03.773Z</time>
      </trkpt>
      <trkpt lat="46.95343" lon="8.58209">
        <ele>834</ele>
        <time>2021-08-10T10:01:04.772Z</time>
      </trkpt>
      <trkpt lat="46.95342" lon="8.58209">
        <ele>834</ele>
        <time>2021-08-10T10:01:05.772Z</time>
      </trkpt>
      <trkpt lat="46.9534" lon="8.58209">
        <ele>834</ele>
        <time>2021-08-10T10:01:06.772Z</time>
      </trkpt>
      <trkpt lat="46.95339" lon="8.58209">
        <ele>833</ele>
        <time>2021-08-10T10:01:07.773Z</time>
      </trkpt>
      <trkpt lat="46.95338" lon="8.5821">
        <ele>833</ele>
        <time>2021-08-10T10:01:08.772Z</time>
      </trkpt>
      <trkpt lat="46.95337" lon="8.5821">
        <ele>833</ele>
        <time>2021-08-10T10:01:09.772Z</time>
      </trkpt>
      <trkpt lat="46.95336" lon="8.58211">
        <ele>832</ele>
        <time>2021-08-10T10:01:10.773Z</time>
      </trkpt>
      <trkpt lat="46.95336" lon="8.58211">
        <ele>832</ele>
        <time>2021-08-10T10:01:11.772Z</time>
      </trkpt>
      <trkpt lat="46.95336" lon="8.5821">
        <ele>832</ele>
        <time>2021-08-10T10:01:12.772Z</time>
      </trkpt>
      <trkpt lat="46.95335" lon="8.5821">
        <ele>831</ele>
        <time>2021-08-10T10:01:13.772Z</time>
      </trkpt>
      <trkpt lat="46.95334" lon="8.5821">
        <ele>831</ele>
        <time>2021-08-10T10:01:14.773Z</time>
      </trkpt>
      <trkpt lat="46.95333" lon="8.5821">
        <ele>831</ele>
        <time>2021-08-10T10:01:15.773Z</time>
      </trkpt>
      <trkpt lat="46.95331" lon="8.5821">
        <ele>831</ele>
        <time>2021-08-10T10:01:16.772Z</time>
      </trkpt>
      <trkpt lat="46.95329" lon="8.58209">
        <ele>830</ele>
        <time>2021-08-10T10:01:17.772Z</time>
      </trkpt>
      <trkpt lat="46.95327" lon="8.58209">
        <ele>830</ele>
        <time>2021-08-10T10:01:18.773Z</time>
      </trkpt>
      <trkpt lat="46.95326" lon="8.58209">
        <ele>830</ele>
        <time>2021-08-10T10:01:19.773Z</time>
      </trkpt>
      <trkpt lat="46.95325" lon="8.58209">
        <ele>830</ele>
        <time>2021-08-10T10:01:20.773Z</time>
      </trkpt>
      <trkpt lat="46.95323" lon="8.58209">
        <ele>829</ele>
        <time>2021-08-10T10:01:21.772Z</time>
      </trkpt>
      <trkpt lat="46.95321" lon="8.58209">
        <ele>829</ele>
        <time>2021-08-10T10:01:22.773Z</time>
      </trkpt>
      <trkpt lat="46.9532" lon="8.5821">
        <ele>828</ele>
        <time>2021-08-10T10:01:23.773Z</time>
      </trkpt>
      <trkpt lat="46.95319" lon="8.5821">
        <ele>828</ele>
        <time>2021-08-10T10:01:24.773Z</time>
      </trkpt>
      <trkpt lat="46.95318" lon="8.5821">
        <ele>828</ele>
        <time>2021-08-10T10:01:25.772Z</time>
      </trkpt>
      <trkpt lat="46.95317" lon="8.58211">
        <ele>827</ele>
        <time>2021-08-10T10:01:26.773Z</time>
      </trkpt>
      <trkpt lat="46.95317" lon="8.58211">
        <ele>827</ele>
        <time>2021-08-10T10:01:27.773Z</time>
      </trkpt>
      <trkpt lat="46.95316" lon="8.58212">
        <ele>827</ele>
        <time>2021-08-10T10:01:28.772Z</time>
      </trkpt>
      <trkpt lat="46.95316" lon="8.58212">
        <ele>827</ele>
        <time>2021-08-10T10:01:29.772Z</time>
      </trkpt>
      <trkpt lat="46.95315" lon="8.58213">
        <ele>827</ele>
        <time>2021-08-10T10:01:30.772Z</time>
      </trkpt>
      <trkpt lat="46.95315" lon="8.58213">
        <ele>827</ele>
        <time>2021-08-10T10:01:31.772Z</time>
      </trkpt>
      <trkpt lat="46.95314" lon="8.58213">
        <ele>827</ele>
        <time>2021-08-10T10:01:32.772Z</time>
      </trkpt>
      <trkpt lat="46.95313" lon="8.58213">
        <ele>827</ele>
        <time>2021-08-10T10:01:33.772Z</time>
      </trkpt>
      <trkpt lat="46.95312" lon="8.58212">
        <ele>827</ele>
        <time>2021-08-10T10:01:34.772Z</time>
      </trkpt>
      <trkpt lat="46.95311" lon="8.58212">
        <ele>827</ele>
        <time>2021-08-10T10:01:35.773Z</time>
      </trkpt>
      <trkpt lat="46.9531" lon="8.58212">
        <ele>827</ele>
        <time>2021-08-10T10:01:36.772Z</time>
      </trkpt>
      <trkpt lat="46.9531" lon="8.58212">
        <ele>827</ele>
        <time>2021-08-10T10:01:37.772Z</time>
      </trkpt>
      <trkpt lat="46.95309" lon="8.58213">
        <ele>827</ele>
        <time>2021-08-10T10:01:38.773Z</time>
      </trkpt>
      <trkpt lat="46.95309" lon="8.58214">
        <ele>827</ele>
        <time>2021-08-10T10:01:39.773Z</time>
      </trkpt>
      <trkpt lat="46.95308" lon="8.58215">
        <ele>827</ele>
        <time>2021-08-10T10:01:40.772Z</time>
      </trkpt>
      <trkpt lat="46.95308" lon="8.58217">
        <ele>827</ele>
        <time>2021-08-10T10:01:41.772Z</time>
      </trkpt>
      <trkpt lat="46.95307" lon="8.58218">
        <ele>828</ele>
        <time>2021-08-10T10:01:42.773Z</time>
      </trkpt>
      <trkpt lat="46.95306" lon="8.58219">
        <ele>828</ele>
        <time>2021-08-10T10:01:43.773Z</time>
      </trkpt>
      <trkpt lat="46.95305" lon="8.5822">
        <ele>828</ele>
        <time>2021-08-10T10:01:44.773Z</time>
      </trkpt>
      <trkpt lat="46.95304" lon="8.58221">
        <ele>829</ele>
        <time>2021-08-10T10:01:45.773Z</time>
      </trkpt>
      <trkpt lat="46.95303" lon="8.58221">
        <ele>829</ele>
        <time>2021-08-10T10:01:46.772Z</time>
      </trkpt>
      <trkpt lat="46.95302" lon="8.58222">
        <ele>829</ele>
        <time>2021-08-10T10:01:47.773Z</time>
      </trkpt>
      <trkpt lat="46.953" lon="8.58223">
        <ele>828</ele>
        <time>2021-08-10T10:01:48.773Z</time>
      </trkpt>
      <trkpt lat="46.95299" lon="8.58224">
        <ele>828</ele>
        <time>2021-08-10T10:01:49.773Z</time>
      </trkpt>
      <trkpt lat="46.95299" lon="8.58226">
        <ele>828</ele>
        <time>2021-08-10T10:01:50.772Z</time>
      </trkpt>
      <trkpt lat="46.95298" lon="8.58227">
        <ele>828</ele>
        <time>2021-08-10T10:01:51.773Z</time>
      </trkpt>
      <trkpt lat="46.95297" lon="8.58228">
        <ele>827</ele>
        <time>2021-08-10T10:01:52.773Z</time>
      </trkpt>
      <trkpt lat="46.95295" lon="8.58229">
        <ele>827</ele>
        <time>2021-08-10T10:01:53.773Z</time>
      </trkpt>
      <trkpt lat="46.95293" lon="8.58229">
        <ele>827</ele>
        <time>2021-08-10T10:01:54.773Z</time>
      </trkpt>
      <trkpt lat="46.95292" lon="8.5823">
        <ele>827</ele>
        <time>2021-08-10T10:01:55.773Z</time>
      </trkpt>
      <trkpt lat="46.9529" lon="8.5823">
        <ele>827</ele>
        <time>2021-08-10T10:01:56.772Z</time>
      </trkpt>
      <trkpt lat="46.95288" lon="8.58232">
        <ele>827</ele>
        <time>2021-08-10T10:01:57.772Z</time>
      </trkpt>
      <trkpt lat="46.95287" lon="8.58233">
        <ele>827</ele>
        <time>2021-08-10T10:01:58.773Z</time>
      </trkpt>
      <trkpt lat="46.95287" lon="8.58234">
        <ele>827</ele>
        <time>2021-08-10T10:01:59.773Z</time>
      </trkpt>
      <trkpt lat="46.95286" lon="8.58235">
        <ele>827</ele>
        <time>2021-08-10T10:02:00.773Z</time>
      </trkpt>
      <trkpt lat="46.95286" lon="8.58236">
        <ele>826</ele>
        <time>2021-08-10T10:02:01.772Z</time>
      </trkpt>
      <trkpt lat="46.95285" lon="8.58237">
        <ele>826</ele>
        <time>2021-08-10T10:02:02.773Z</time>
      </trkpt>
      <trkpt lat="46.95284" lon="8.58239">
        <ele>826</ele>
        <time>2021-08-10T10:02:03.772Z</time>
      </trkpt>
      <trkpt lat="46.95284" lon="8.5824">
        <ele>826</ele>
        <time>2021-08-10T10:02:04.772Z</time>
      </trkpt>
      <trkpt lat="46.95283" lon="8.58242">
        <ele>826</ele>
        <time>2021-08-10T10:02:05.772Z</time>
      </trkpt>
      <trkpt lat="46.95282" lon="8.58243">
        <ele>825</ele>
        <time>2021-08-10T10:02:06.773Z</time>
      </trkpt>
      <trkpt lat="46.95281" lon="8.58244">
        <ele>825</ele>
        <time>2021-08-10T10:02:07.772Z</time>
      </trkpt>
      <trkpt lat="46.9528" lon="8.58245">
        <ele>825</ele>
        <time>2021-08-10T10:02:08.772Z</time>
      </trkpt>
      <trkpt lat="46.95279" lon="8.58245">
        <ele>824</ele>
        <time>2021-08-10T10:02:09.773Z</time>
      </trkpt>
      <trkpt lat="46.95277" lon="8.58246">
        <ele>824</ele>
        <time>2021-08-10T10:02:10.773Z</time>
      </trkpt>
      <trkpt lat="46.95275" lon="8.58246">
        <ele>824</ele>
        <time>2021-08-10T10:02:11.772Z</time>
      </trkpt>
      <trkpt lat="46.95273" lon="8.58247">
        <ele>824</ele>
        <time>2021-08-10T10:02:12.773Z</time>
      </trkpt>
      <trkpt lat="46.95272" lon="8.58248">
        <ele>823</ele>
        <time>2021-08-10T10:02:13.773Z</time>
      </trkpt>
      <trkpt lat="46.9527" lon="8.5825">
        <ele>823</ele>
        <time>2021-08-10T10:02:14.773Z</time>
      </trkpt>
      <trkpt lat="46.95268" lon="8.58251">
        <ele>822</ele>
        <time>2021-08-10T10:02:15.772Z</time>
      </trkpt>
      <trkpt lat="46.95267" lon="8.58252">
        <ele>822</ele>
        <time>2021-08-10T10:02:16.773Z</time>
      </trkpt>
      <trkpt lat="46.95266" lon="8.58253">
        <ele>821</ele>
        <time>2021-08-10T10:02:17.772Z</time>
      </trkpt>
      <trkpt lat="46.95265" lon="8.58256">
        <ele>821</ele>
        <time>2021-08-10T10:02:18.772Z</time>
      </trkpt>
      <trkpt lat="46.95265" lon="8.58259">
        <ele>821</ele>
        <time>2021-08-10T10:02:19.773Z</time>
      </trkpt>
      <trkpt lat="46.95266" lon="8.58261">
        <ele>821</ele>
        <time>2021-08-10T10:02:20.773Z</time>
      </trkpt>
      <trkpt lat="46.95267" lon="8.58263">
        <ele>821</ele>
        <time>2021-08-10T10:02:21.772Z</time>
      </trkpt>
      <trkpt lat="46.95267" lon="8.58265">
        <ele>821</ele>
        <time>2021-08-10T10:02:22.773Z</time>
      </trkpt>
      <trkpt lat="46.95267" lon="8.58267">
        <ele>822</ele>
        <time>2021-08-10T10:02:23.773Z</time>
      </trkpt>
      <trkpt lat="46.95267" lon="8.58269">
        <ele>822</ele>
        <time>2021-08-10T10:02:24.772Z</time>
      </trkpt>
      <trkpt lat="46.95266" lon="8.58271">
        <ele>822</ele>
        <time>2021-08-10T10:02:25.773Z</time>
      </trkpt>
      <trkpt lat="46.95266" lon="8.58273">
        <ele>822</ele>
        <time>2021-08-10T10:02:26.773Z</time>
      </trkpt>
      <trkpt lat="46.95266" lon="8.58274">
        <ele>822</ele>
        <time>2021-08-10T10:02:27.773Z</time>
      </trkpt>
      <trkpt lat="46.95266" lon="8.58276">
        <ele>821</ele>
        <time>2021-08-10T10:02:28.773Z</time>
      </trkpt>
      <trkpt lat="46.95266" lon="8.58278">
        <ele>821</ele>
        <time>2021-08-10T10:02:29.773Z</time>
      </trkpt>
      <trkpt lat="46.95265" lon="8.58279">
        <ele>821</ele>
        <time>2021-08-10T10:02:30.773Z</time>
      </trkpt>
      <trkpt lat="46.95265" lon="8.58281">
        <ele>821</ele>
        <time>2021-08-10T10:02:31.772Z</time>
      </trkpt>
      <trkpt lat="46.95264" lon="8.58283">
        <ele>820</ele>
        <time>2021-08-10T10:02:32.773Z</time>
      </trkpt>
      <trkpt lat="46.95264" lon="8.58284">
        <ele>820</ele>
        <time>2021-08-10T10:02:33.773Z</time>
      </trkpt>
      <trkpt lat="46.95263" lon="8.58285">
        <ele>821</ele>
        <time>2021-08-10T10:02:34.773Z</time>
      </trkpt>
      <trkpt lat="46.95261" lon="8.58286">
        <ele>820</ele>
        <time>2021-08-10T10:02:35.772Z</time>
      </trkpt>
      <trkpt lat="46.95261" lon="8.58288">
        <ele>820</ele>
        <time>2021-08-10T10:02:36.773Z</time>
      </trkpt>
      <trkpt lat="46.9526" lon="8.58289">
        <ele>820</ele>
        <time>2021-08-10T10:02:37.773Z</time>
      </trkpt>
      <trkpt lat="46.95259" lon="8.5829">
        <ele>820</ele>
        <time>2021-08-10T10:02:38.773Z</time>
      </trkpt>
      <trkpt lat="46.95259" lon="8.58292">
        <ele>820</ele>
        <time>2021-08-10T10:02:39.773Z</time>
      </trkpt>
      <trkpt lat="46.95258" lon="8.58293">
        <ele>820</ele>
        <time>2021-08-10T10:02:40.773Z</time>
      </trkpt>
      <trkpt lat="46.95257" lon="8.58295">
        <ele>819</ele>
        <time>2021-08-10T10:02:41.773Z</time>
      </trkpt>
      <trkpt lat="46.95257" lon="8.58296">
        <ele>819</ele>
        <time>2021-08-10T10:02:42.772Z</time>
      </trkpt>
      <trkpt lat="46.95257" lon="8.58298">
        <ele>818</ele>
        <time>2021-08-10T10:02:43.773Z</time>
      </trkpt>
      <trkpt lat="46.95257" lon="8.583">
        <ele>818</ele>
        <time>2021-08-10T10:02:44.773Z</time>
      </trkpt>
      <trkpt lat="46.95257" lon="8.58302">
        <ele>818</ele>
        <time>2021-08-10T10:02:45.773Z</time>
      </trkpt>
      <trkpt lat="46.95257" lon="8.58304">
        <ele>818</ele>
        <time>2021-08-10T10:02:46.773Z</time>
      </trkpt>
      <trkpt lat="46.95257" lon="8.58306">
        <ele>819</ele>
        <time>2021-08-10T10:02:47.773Z</time>
      </trkpt>
      <trkpt lat="46.95256" lon="8.58307">
        <ele>819</ele>
        <time>2021-08-10T10:02:48.773Z</time>
      </trkpt>
      <trkpt lat="46.95256" lon="8.58308">
        <ele>819</ele>
        <time>2021-08-10T10:02:49.772Z</time>
      </trkpt>
      <trkpt lat="46.95255" lon="8.58309">
        <ele>819</ele>
        <time>2021-08-10T10:02:50.773Z</time>
      </trkpt>
      <trkpt lat="46.95255" lon="8.58311">
        <ele>819</ele>
        <time>2021-08-10T10:02:51.773Z</time>
      </trkpt>
      <trkpt lat="46.95254" lon="8.58312">
        <ele>819</ele>
        <time>2021-08-10T10:02:52.773Z</time>
      </trkpt>
      <trkpt lat="46.95254" lon="8.58312">
        <ele>819</ele>
        <time>2021-08-10T10:02:53.772Z</time>
      </trkpt>
      <trkpt lat="46.95253" lon="8.58314">
        <ele>819</ele>
        <time>2021-08-10T10:02:54.773Z</time>
      </trkpt>
      <trkpt lat="46.95253" lon="8.58315">
        <ele>818</ele>
        <time>2021-08-10T10:02:55.772Z</time>
      </trkpt>
      <trkpt lat="46.95252" lon="8.58315">
        <ele>818</ele>
        <time>2021-08-10T10:02:56.773Z</time>
      </trkpt>
      <trkpt lat="46.95252" lon="8.58316">
        <ele>818</ele>
        <time>2021-08-10T10:02:57.773Z</time>
      </trkpt>
      <trkpt lat="46.95251" lon="8.58316">
        <ele>818</ele>
        <time>2021-08-10T10:02:58.773Z</time>
      </trkpt>
      <trkpt lat="46.9525" lon="8.58317">
        <ele>818</ele>
        <time>2021-08-10T10:02:59.773Z</time>
      </trkpt>
      <trkpt lat="46.9525" lon="8.58317">
        <ele>818</ele>
        <time>2021-08-10T10:03:00.772Z</time>
      </trkpt>
      <trkpt lat="46.9525" lon="8.58317">
        <ele>817</ele>
        <time>2021-08-10T10:03:01.773Z</time>
      </trkpt>
      <trkpt lat="46.9525" lon="8.58317">
        <ele>817</ele>
        <time>2021-08-10T10:03:02.773Z</time>
      </trkpt>
      <trkpt lat="46.9525" lon="8.58317">
        <ele>817</ele>
        <time>2021-08-10T10:03:03.773Z</time>
      </trkpt>
      <trkpt lat="46.9525" lon="8.58317">
        <ele>817</ele>
        <time>2021-08-10T10:03:04.772Z</time>
      </trkpt>
      <trkpt lat="46.9525" lon="8.58317">
        <ele>817</ele>
        <time>2021-08-10T10:03:05.772Z</time>
      </trkpt>
      <trkpt lat="46.95251" lon="8.58317">
        <ele>817</ele>
        <time>2021-08-10T10:03:06.772Z</time>
      </trkpt>
      <trkpt lat="46.95251" lon="8.58316">
        <ele>817</ele>
        <time>2021-08-10T10:03:07.773Z</time>
      </trkpt>
      <trkpt lat="46.9525" lon="8.58315">
        <ele>818</ele>
        <time>2021-08-10T10:03:08.772Z</time>
      </trkpt>
      <trkpt lat="46.9525" lon="8.58314">
        <ele>818</ele>
        <time>2021-08-10T10:03:09.772Z</time>
      </trkpt>
      <trkpt lat="46.9525" lon="8.58312">
        <ele>819</ele>
        <time>2021-08-10T10:03:10.772Z</time>
      </trkpt>
      <trkpt lat="46.95249" lon="8.58311">
        <ele>819</ele>
        <time>2021-08-10T10:03:11.773Z</time>
      </trkpt>
      <trkpt lat="46.95249" lon="8.5831">
        <ele>820</ele>
        <time>2021-08-10T10:03:12.773Z</time>
      </trkpt>
      <trkpt lat="46.95248" lon="8.58309">
        <ele>820</ele>
        <time>2021-08-10T10:03:13.772Z</time>
      </trkpt>
      <trkpt lat="46.95247" lon="8.58307">
        <ele>820</ele>
        <time>2021-08-10T10:03:14.773Z</time>
      </trkpt>
      <trkpt lat="46.95247" lon="8.58306">
        <ele>820</ele>
        <time>2021-08-10T10:03:15.773Z</time>
      </trkpt>
      <trkpt lat="46.95246" lon="8.58305">
        <ele>820</ele>
        <time>2021-08-10T10:03:16.773Z</time>
      </trkpt>
      <trkpt lat="46.95247" lon="8.58305">
        <ele>821</ele>
        <time>2021-08-10T10:03:17.773Z</time>
      </trkpt>
      <trkpt lat="46.95247" lon="8.58304">
        <ele>821</ele>
        <time>2021-08-10T10:03:18.772Z</time>
      </trkpt>
      <trkpt lat="46.95247" lon="8.58303">
        <ele>821</ele>
        <time>2021-08-10T10:03:19.773Z</time>
      </trkpt>
      <trkpt lat="46.95246" lon="8.58302">
        <ele>821</ele>
        <time>2021-08-10T10:03:20.773Z</time>
      </trkpt>
      <trkpt lat="46.95245" lon="8.58301">
        <ele>821</ele>
        <time>2021-08-10T10:03:21.773Z</time>
      </trkpt>
      <trkpt lat="46.95245" lon="8.58299">
        <ele>821</ele>
        <time>2021-08-10T10:03:22.772Z</time>
      </trkpt>
      <trkpt lat="46.95244" lon="8.58298">
        <ele>820</ele>
        <time>2021-08-10T10:03:23.772Z</time>
      </trkpt>
      <trkpt lat="46.95243" lon="8.58297">
        <ele>820</ele>
        <time>2021-08-10T10:03:24.772Z</time>
      </trkpt>
      <trkpt lat="46.95241" lon="8.58296">
        <ele>820</ele>
        <time>2021-08-10T10:03:25.773Z</time>
      </trkpt>
      <trkpt lat="46.95239" lon="8.58295">
        <ele>820</ele>
        <time>2021-08-10T10:03:26.773Z</time>
      </trkpt>
      <trkpt lat="46.95238" lon="8.58294">
        <ele>820</ele>
        <time>2021-08-10T10:03:27.773Z</time>
      </trkpt>
      <trkpt lat="46.95237" lon="8.58293">
        <ele>820</ele>
        <time>2021-08-10T10:03:28.773Z</time>
      </trkpt>
      <trkpt lat="46.95236" lon="8.58292">
        <ele>820</ele>
        <time>2021-08-10T10:03:29.772Z</time>
      </trkpt>
      <trkpt lat="46.95235" lon="8.58291">
        <ele>819</ele>
        <time>2021-08-10T10:03:30.773Z</time>
      </trkpt>
      <trkpt lat="46.95235" lon="8.5829">
        <ele>819</ele>
        <time>2021-08-10T10:03:31.773Z</time>
      </trkpt>
      <trkpt lat="46.95234" lon="8.58289">
        <ele>818</ele>
        <time>2021-08-10T10:03:32.773Z</time>
      </trkpt>
      <trkpt lat="46.95233" lon="8.58289">
        <ele>818</ele>
        <time>2021-08-10T10:03:33.772Z</time>
      </trkpt>
      <trkpt lat="46.95232" lon="8.58288">
        <ele>818</ele>
        <time>2021-08-10T10:03:34.772Z</time>
      </trkpt>
      <trkpt lat="46.95231" lon="8.58287">
        <ele>817</ele>
        <time>2021-08-10T10:03:35.772Z</time>
      </trkpt>
      <trkpt lat="46.9523" lon="8.58287">
        <ele>817</ele>
        <time>2021-08-10T10:03:36.773Z</time>
      </trkpt>
      <trkpt lat="46.95229" lon="8.58286">
        <ele>817</ele>
        <time>2021-08-10T10:03:37.772Z</time>
      </trkpt>
      <trkpt lat="46.95228" lon="8.58285">
        <ele>817</ele>
        <time>2021-08-10T10:03:38.773Z</time>
      </trkpt>
      <trkpt lat="46.95226" lon="8.58285">
        <ele>817</ele>
        <time>2021-08-10T10:03:39.773Z</time>
      </trkpt>
      <trkpt lat="46.95225" lon="8.58285">
        <ele>817</ele>
        <time>2021-08-10T10:03:40.772Z</time>
      </trkpt>
      <trkpt lat="46.95223" lon="8.58284">
        <ele>817</ele>
        <time>2021-08-10T10:03:41.773Z</time>
      </trkpt>
      <trkpt lat="46.95222" lon="8.58284">
        <ele>817</ele>
        <time>2021-08-10T10:03:42.772Z</time>
      </trkpt>
      <trkpt lat="46.95221" lon="8.58283">
        <ele>817</ele>
        <time>2021-08-10T10:03:43.772Z</time>
      </trkpt>
      <trkpt lat="46.9522" lon="8.58283">
        <ele>816</ele>
        <time>2021-08-10T10:03:44.772Z</time>
      </trkpt>
      <trkpt lat="46.9522" lon="8.58283">
        <ele>816</ele>
        <time>2021-08-10T10:03:45.772Z</time>
      </trkpt>
      <trkpt lat="46.95219" lon="8.58282">
        <ele>817</ele>
        <time>2021-08-10T10:03:46.772Z</time>
      </trkpt>
      <trkpt lat="46.95218" lon="8.58282">
        <ele>817</ele>
        <time>2021-08-10T10:03:47.773Z</time>
      </trkpt>
      <trkpt lat="46.95217" lon="8.58281">
        <ele>817</ele>
        <time>2021-08-10T10:03:48.773Z</time>
      </trkpt>
      <trkpt lat="46.95216" lon="8.5828">
        <ele>818</ele>
        <time>2021-08-10T10:03:49.773Z</time>
      </trkpt>
      <trkpt lat="46.95214" lon="8.58279">
        <ele>818</ele>
        <time>2021-08-10T10:03:50.773Z</time>
      </trkpt>
      <trkpt lat="46.95213" lon="8.58278">
        <ele>818</ele>
        <time>2021-08-10T10:03:51.772Z</time>
      </trkpt>
      <trkpt lat="46.95212" lon="8.58278">
        <ele>818</ele>
        <time>2021-08-10T10:03:52.772Z</time>
      </trkpt>
      <trkpt lat="46.95211" lon="8.58277">
        <ele>818</ele>
        <time>2021-08-10T10:03:53.772Z</time>
      </trkpt>
      <trkpt lat="46.95211" lon="8.58276">
        <ele>818</ele>
        <time>2021-08-10T10:03:54.773Z</time>
      </trkpt>
      <trkpt lat="46.9521" lon="8.58276">
        <ele>818</ele>
        <time>2021-08-10T10:03:55.773Z</time>
      </trkpt>
      <trkpt lat="46.95209" lon="8.58275">
        <ele>817</ele>
        <time>2021-08-10T10:03:56.773Z</time>
      </trkpt>
      <trkpt lat="46.95208" lon="8.58275">
        <ele>817</ele>
        <time>2021-08-10T10:03:57.773Z</time>
      </trkpt>
      <trkpt lat="46.95207" lon="8.58274">
        <ele>817</ele>
        <time>2021-08-10T10:03:58.772Z</time>
      </trkpt>
      <trkpt lat="46.95206" lon="8.58273">
        <ele>817</ele>
        <time>2021-08-10T10:03:59.773Z</time>
      </trkpt>
      <trkpt lat="46.95205" lon="8.58272">
        <ele>817</ele>
        <time>2021-08-10T10:04:00.772Z</time>
      </trkpt>
      <trkpt lat="46.95204" lon="8.58272">
        <ele>818</ele>
        <time>2021-08-10T10:04:01.773Z</time>
      </trkpt>
      <trkpt lat="46.95203" lon="8.58271">
        <ele>818</ele>
        <time>2021-08-10T10:04:02.772Z</time>
      </trkpt>
      <trkpt lat="46.95201" lon="8.58269">
        <ele>818</ele>
        <time>2021-08-10T10:04:03.772Z</time>
      </trkpt>
      <trkpt lat="46.95199" lon="8.58269">
        <ele>818</ele>
        <time>2021-08-10T10:04:04.773Z</time>
      </trkpt>
      <trkpt lat="46.95199" lon="8.58269">
        <ele>818</ele>
        <time>2021-08-10T10:04:05.773Z</time>
      </trkpt>
      <trkpt lat="46.95197" lon="8.5827">
        <ele>817</ele>
        <time>2021-08-10T10:04:06.773Z</time>
      </trkpt>
      <trkpt lat="46.95196" lon="8.58269">
        <ele>817</ele>
        <time>2021-08-10T10:04:07.772Z</time>
      </trkpt>
      <trkpt lat="46.95195" lon="8.58269">
        <ele>816</ele>
        <time>2021-08-10T10:04:08.773Z</time>
      </trkpt>
      <trkpt lat="46.95195" lon="8.58268">
        <ele>816</ele>
        <time>2021-08-10T10:04:09.772Z</time>
      </trkpt>
      <trkpt lat="46.95194" lon="8.58267">
        <ele>815</ele>
        <time>2021-08-10T10:04:10.772Z</time>
      </trkpt>
      <trkpt lat="46.95193" lon="8.58267">
        <ele>815</ele>
        <time>2021-08-10T10:04:11.772Z</time>
      </trkpt>
      <trkpt lat="46.95192" lon="8.58266">
        <ele>815</ele>
        <time>2021-08-10T10:04:12.772Z</time>
      </trkpt>
      <trkpt lat="46.9519" lon="8.58265">
        <ele>815</ele>
        <time>2021-08-10T10:04:13.773Z</time>
      </trkpt>
      <trkpt lat="46.95189" lon="8.58265">
        <ele>815</ele>
        <time>2021-08-10T10:04:14.772Z</time>
      </trkpt>
      <trkpt lat="46.95187" lon="8.58264">
        <ele>814</ele>
        <time>2021-08-10T10:04:15.772Z</time>
      </trkpt>
      <trkpt lat="46.95186" lon="8.58264">
        <ele>814</ele>
        <time>2021-08-10T10:04:16.773Z</time>
      </trkpt>
      <trkpt lat="46.95185" lon="8.58264">
        <ele>814</ele>
        <time>2021-08-10T10:04:17.773Z</time>
      </trkpt>
      <trkpt lat="46.95184" lon="8.58264">
        <ele>814</ele>
        <time>2021-08-10T10:04:18.773Z</time>
      </trkpt>
      <trkpt lat="46.95183" lon="8.58263">
        <ele>814</ele>
        <time>2021-08-10T10:04:19.772Z</time>
      </trkpt>
      <trkpt lat="46.95182" lon="8.58263">
        <ele>813</ele>
        <time>2021-08-10T10:04:20.772Z</time>
      </trkpt>
      <trkpt lat="46.95181" lon="8.58263">
        <ele>814</ele>
        <time>2021-08-10T10:04:21.772Z</time>
      </trkpt>
      <trkpt lat="46.9518" lon="8.58262">
        <ele>814</ele>
        <time>2021-08-10T10:04:22.773Z</time>
      </trkpt>
      <trkpt lat="46.95179" lon="8.58262">
        <ele>814</ele>
        <time>2021-08-10T10:04:23.773Z</time>
      </trkpt>
      <trkpt lat="46.95179" lon="8.58261">
        <ele>814</ele>
        <time>2021-08-10T10:04:24.773Z</time>
      </trkpt>
      <trkpt lat="46.95178" lon="8.58261">
        <ele>813</ele>
        <time>2021-08-10T10:04:25.773Z</time>
      </trkpt>
      <trkpt lat="46.95177" lon="8.58261">
        <ele>813</ele>
        <time>2021-08-10T10:04:26.772Z</time>
      </trkpt>
      <trkpt lat="46.95176" lon="8.58261">
        <ele>813</ele>
        <time>2021-08-10T10:04:27.772Z</time>
      </trkpt>
      <trkpt lat="46.95176" lon="8.58261">
        <ele>813</ele>
        <time>2021-08-10T10:04:28.773Z</time>
      </trkpt>
      <trkpt lat="46.95174" lon="8.58261">
        <ele>812</ele>
        <time>2021-08-10T10:04:29.773Z</time>
      </trkpt>
      <trkpt lat="46.95173" lon="8.58261">
        <ele>812</ele>
        <time>2021-08-10T10:04:30.772Z</time>
      </trkpt>
      <trkpt lat="46.95172" lon="8.5826">
        <ele>812</ele>
        <time>2021-08-10T10:04:31.772Z</time>
      </trkpt>
      <trkpt lat="46.95172" lon="8.58259">
        <ele>813</ele>
        <time>2021-08-10T10:04:32.773Z</time>
      </trkpt>
      <trkpt lat="46.95171" lon="8.58259">
        <ele>813</ele>
        <time>2021-08-10T10:04:33.773Z</time>
      </trkpt>
      <trkpt lat="46.9517" lon="8.58258">
        <ele>813</ele>
        <time>2021-08-10T10:04:34.773Z</time>
      </trkpt>
      <trkpt lat="46.95169" lon="8.58257">
        <ele>812</ele>
        <time>2021-08-10T10:04:35.772Z</time>
      </trkpt>
      <trkpt lat="46.95169" lon="8.58256">
        <ele>812</ele>
        <time>2021-08-10T10:04:36.772Z</time>
      </trkpt>
      <trkpt lat="46.95168" lon="8.58255">
        <ele>811</ele>
        <time>2021-08-10T10:04:37.772Z</time>
      </trkpt>
      <trkpt lat="46.95168" lon="8.58253">
        <ele>811</ele>
        <time>2021-08-10T10:04:38.773Z</time>
      </trkpt>
      <trkpt lat="46.95167" lon="8.58252">
        <ele>810</ele>
        <time>2021-08-10T10:04:39.772Z</time>
      </trkpt>
      <trkpt lat="46.95166" lon="8.58251">
        <ele>810</ele>
        <time>2021-08-10T10:04:40.772Z</time>
      </trkpt>
      <trkpt lat="46.95164" lon="8.5825">
        <ele>809</ele>
        <time>2021-08-10T10:04:41.772Z</time>
      </trkpt>
      <trkpt lat="46.95164" lon="8.58249">
        <ele>809</ele>
        <time>2021-08-10T10:04:42.773Z</time>
      </trkpt>
      <trkpt lat="46.95163" lon="8.58248">
        <ele>808</ele>
        <time>2021-08-10T10:04:43.773Z</time>
      </trkpt>
      <trkpt lat="46.95162" lon="8.58247">
        <ele>808</ele>
        <time>2021-08-10T10:04:44.772Z</time>
      </trkpt>
      <trkpt lat="46.95161" lon="8.58246">
        <ele>807</ele>
        <time>2021-08-10T10:04:45.772Z</time>
      </trkpt>
      <trkpt lat="46.95159" lon="8.58245">
        <ele>807</ele>
        <time>2021-08-10T10:04:46.773Z</time>
      </trkpt>
      <trkpt lat="46.95158" lon="8.58244">
        <ele>807</ele>
        <time>2021-08-10T10:04:47.773Z</time>
      </trkpt>
      <trkpt lat="46.95156" lon="8.58244">
        <ele>806</ele>
        <time>2021-08-10T10:04:48.772Z</time>
      </trkpt>
      <trkpt lat="46.95155" lon="8.58242">
        <ele>806</ele>
        <time>2021-08-10T10:04:49.772Z</time>
      </trkpt>
      <trkpt lat="46.95154" lon="8.58241">
        <ele>806</ele>
        <time>2021-08-10T10:04:50.772Z</time>
      </trkpt>
      <trkpt lat="46.95153" lon="8.5824">
        <ele>805</ele>
        <time>2021-08-10T10:04:51.773Z</time>
      </trkpt>
      <trkpt lat="46.95153" lon="8.58239">
        <ele>805</ele>
        <time>2021-08-10T10:04:52.772Z</time>
      </trkpt>
      <trkpt lat="46.95152" lon="8.58238">
        <ele>805</ele>
        <time>2021-08-10T10:04:53.773Z</time>
      </trkpt>
      <trkpt lat="46.95151" lon="8.58238">
        <ele>804</ele>
        <time>2021-08-10T10:04:54.773Z</time>
      </trkpt>
      <trkpt lat="46.95149" lon="8.58238">
        <ele>804</ele>
        <time>2021-08-10T10:04:55.773Z</time>
      </trkpt>
      <trkpt lat="46.95147" lon="8.58237">
        <ele>803</ele>
        <time>2021-08-10T10:04:56.772Z</time>
      </trkpt>
      <trkpt lat="46.95145" lon="8.58238">
        <ele>802</ele>
        <time>2021-08-10T10:04:57.773Z</time>
      </trkpt>
      <trkpt lat="46.95144" lon="8.58238">
        <ele>802</ele>
        <time>2021-08-10T10:04:58.773Z</time>
      </trkpt>
      <trkpt lat="46.95143" lon="8.58238">
        <ele>801</ele>
        <time>2021-08-10T10:04:59.772Z</time>
      </trkpt>
      <trkpt lat="46.95143" lon="8.58238">
        <ele>801</ele>
        <time>2021-08-10T10:05:00.772Z</time>
      </trkpt>
      <trkpt lat="46.95142" lon="8.58236">
        <ele>801</ele>
        <time>2021-08-10T10:05:01.772Z</time>
      </trkpt>
      <trkpt lat="46.95142" lon="8.58235">
        <ele>801</ele>
        <time>2021-08-10T10:05:02.773Z</time>
      </trkpt>
      <trkpt lat="46.95141" lon="8.58235">
        <ele>802</ele>
        <time>2021-08-10T10:05:03.772Z</time>
      </trkpt>
      <trkpt lat="46.9514" lon="8.58234">
        <ele>802</ele>
        <time>2021-08-10T10:05:04.773Z</time>
      </trkpt>
      <trkpt lat="46.9514" lon="8.58234">
        <ele>803</ele>
        <time>2021-08-10T10:05:05.772Z</time>
      </trkpt>
      <trkpt lat="46.95138" lon="8.58233">
        <ele>803</ele>
        <time>2021-08-10T10:05:06.772Z</time>
      </trkpt>
      <trkpt lat="46.95137" lon="8.58233">
        <ele>803</ele>
        <time>2021-08-10T10:05:07.773Z</time>
      </trkpt>
      <trkpt lat="46.95136" lon="8.58232">
        <ele>804</ele>
        <time>2021-08-10T10:05:08.773Z</time>
      </trkpt>
      <trkpt lat="46.95135" lon="8.58232">
        <ele>804</ele>
        <time>2021-08-10T10:05:09.772Z</time>
      </trkpt>
      <trkpt lat="46.95134" lon="8.58231">
        <ele>804</ele>
        <time>2021-08-10T10:05:10.772Z</time>
      </trkpt>
      <trkpt lat="46.95133" lon="8.5823">
        <ele>804</ele>
        <time>2021-08-10T10:05:11.772Z</time>
      </trkpt>
      <trkpt lat="46.95133" lon="8.58229">
        <ele>805</ele>
        <time>2021-08-10T10:05:12.772Z</time>
      </trkpt>
      <trkpt lat="46.95132" lon="8.58228">
        <ele>805</ele>
        <time>2021-08-10T10:05:13.773Z</time>
      </trkpt>
      <trkpt lat="46.95131" lon="8.58228">
        <ele>805</ele>
        <time>2021-08-10T10:05:14.772Z</time>
      </trkpt>
      <trkpt lat="46.9513" lon="8.58227">
        <ele>805</ele>
        <time>2021-08-10T10:05:15.772Z</time>
      </trkpt>
      <trkpt lat="46.95128" lon="8.58227">
        <ele>805</ele>
        <time>2021-08-10T10:05:16.772Z</time>
      </trkpt>
      <trkpt lat="46.95128" lon="8.58226">
        <ele>806</ele>
        <time>2021-08-10T10:05:17.773Z</time>
      </trkpt>
      <trkpt lat="46.95126" lon="8.58227">
        <ele>807</ele>
        <time>2021-08-10T10:05:18.773Z</time>
      </trkpt>
      <trkpt lat="46.95125" lon="8.58227">
        <ele>807</ele>
        <time>2021-08-10T10:05:19.772Z</time>
      </trkpt>
      <trkpt lat="46.95123" lon="8.58226">
        <ele>807</ele>
        <time>2021-08-10T10:05:20.772Z</time>
      </trkpt>
      <trkpt lat="46.95122" lon="8.58226">
        <ele>807</ele>
        <time>2021-08-10T10:05:21.772Z</time>
      </trkpt>
      <trkpt lat="46.95121" lon="8.58226">
        <ele>807</ele>
        <time>2021-08-10T10:05:22.773Z</time>
      </trkpt>
      <trkpt lat="46.9512" lon="8.58226">
        <ele>807</ele>
        <time>2021-08-10T10:05:23.773Z</time>
      </trkpt>
      <trkpt lat="46.95119" lon="8.58226">
        <ele>807</ele>
        <time>2021-08-10T10:05:24.772Z</time>
      </trkpt>
      <trkpt lat="46.95117" lon="8.58225">
        <ele>807</ele>
        <time>2021-08-10T10:05:25.772Z</time>
      </trkpt>
      <trkpt lat="46.95116" lon="8.58224">
        <ele>807</ele>
        <time>2021-08-10T10:05:26.772Z</time>
      </trkpt>
      <trkpt lat="46.95115" lon="8.58224">
        <ele>807</ele>
        <time>2021-08-10T10:05:27.772Z</time>
      </trkpt>
      <trkpt lat="46.95113" lon="8.58223">
        <ele>807</ele>
        <time>2021-08-10T10:05:28.773Z</time>
      </trkpt>
      <trkpt lat="46.95112" lon="8.58222">
        <ele>807</ele>
        <time>2021-08-10T10:05:29.772Z</time>
      </trkpt>
      <trkpt lat="46.9511" lon="8.58222">
        <ele>807</ele>
        <time>2021-08-10T10:05:30.772Z</time>
      </trkpt>
      <trkpt lat="46.95109" lon="8.58221">
        <ele>807</ele>
        <time>2021-08-10T10:05:31.772Z</time>
      </trkpt>
      <trkpt lat="46.95108" lon="8.5822">
        <ele>807</ele>
        <time>2021-08-10T10:05:32.773Z</time>
      </trkpt>
      <trkpt lat="46.95107" lon="8.5822">
        <ele>807</ele>
        <time>2021-08-10T10:05:33.773Z</time>
      </trkpt>
      <trkpt lat="46.95106" lon="8.58219">
        <ele>807</ele>
        <time>2021-08-10T10:05:34.772Z</time>
      </trkpt>
      <trkpt lat="46.95105" lon="8.58219">
        <ele>807</ele>
        <time>2021-08-10T10:05:35.772Z</time>
      </trkpt>
      <trkpt lat="46.95104" lon="8.58219">
        <ele>807</ele>
        <time>2021-08-10T10:05:36.772Z</time>
      </trkpt>
      <trkpt lat="46.95103" lon="8.58219">
        <ele>807</ele>
        <time>2021-08-10T10:05:37.773Z</time>
      </trkpt>
      <trkpt lat="46.95102" lon="8.58219">
        <ele>807</ele>
        <time>2021-08-10T10:05:38.772Z</time>
      </trkpt>
      <trkpt lat="46.95101" lon="8.58218">
        <ele>807</ele>
        <time>2021-08-10T10:05:39.772Z</time>
      </trkpt>
      <trkpt lat="46.95101" lon="8.58218">
        <ele>807</ele>
        <time>2021-08-10T10:05:40.772Z</time>
      </trkpt>
      <trkpt lat="46.951" lon="8.58218">
        <ele>807</ele>
        <time>2021-08-10T10:05:41.772Z</time>
      </trkpt>
      <trkpt lat="46.95098" lon="8.58217">
        <ele>807</ele>
        <time>2021-08-10T10:05:42.772Z</time>
      </trkpt>
      <trkpt lat="46.95098" lon="8.58217">
        <ele>807</ele>
        <time>2021-08-10T10:05:43.772Z</time>
      </trkpt>
      <trkpt lat="46.95097" lon="8.58217">
        <ele>806</ele>
        <time>2021-08-10T10:05:44.772Z</time>
      </trkpt>
      <trkpt lat="46.95096" lon="8.58215">
        <ele>806</ele>
        <time>2021-08-10T10:05:45.772Z</time>
      </trkpt>
      <trkpt lat="46.95094" lon="8.58214">
        <ele>806</ele>
        <time>2021-08-10T10:05:46.772Z</time>
      </trkpt>
      <trkpt lat="46.95093" lon="8.58213">
        <ele>806</ele>
        <time>2021-08-10T10:05:47.772Z</time>
      </trkpt>
      <trkpt lat="46.95092" lon="8.58211">
        <ele>805</ele>
        <time>2021-08-10T10:05:48.772Z</time>
      </trkpt>
      <trkpt lat="46.95091" lon="8.58211">
        <ele>805</ele>
        <time>2021-08-10T10:05:49.772Z</time>
      </trkpt>
      <trkpt lat="46.95091" lon="8.58211">
        <ele>805</ele>
        <time>2021-08-10T10:05:50.772Z</time>
      </trkpt>
      <trkpt lat="46.9509" lon="8.58211">
        <ele>805</ele>
        <time>2021-08-10T10:05:51.772Z</time>
      </trkpt>
      <trkpt lat="46.95089" lon="8.58211">
        <ele>805</ele>
        <time>2021-08-10T10:05:52.772Z</time>
      </trkpt>
      <trkpt lat="46.95088" lon="8.58211">
        <ele>805</ele>
        <time>2021-08-10T10:05:53.773Z</time>
      </trkpt>
      <trkpt lat="46.95087" lon="8.5821">
        <ele>805</ele>
        <time>2021-08-10T10:05:54.773Z</time>
      </trkpt>
      <trkpt lat="46.95086" lon="8.58209">
        <ele>805</ele>
        <time>2021-08-10T10:05:55.772Z</time>
      </trkpt>
      <trkpt lat="46.95084" lon="8.58209">
        <ele>804</ele>
        <time>2021-08-10T10:05:56.773Z</time>
      </trkpt>
      <trkpt lat="46.95083" lon="8.58208">
        <ele>804</ele>
        <time>2021-08-10T10:05:57.772Z</time>
      </trkpt>
      <trkpt lat="46.95082" lon="8.58207">
        <ele>804</ele>
        <time>2021-08-10T10:05:58.772Z</time>
      </trkpt>
      <trkpt lat="46.95081" lon="8.58206">
        <ele>804</ele>
        <time>2021-08-10T10:05:59.772Z</time>
      </trkpt>
      <trkpt lat="46.9508" lon="8.58205">
        <ele>804</ele>
        <time>2021-08-10T10:06:00.773Z</time>
      </trkpt>
      <trkpt lat="46.95078" lon="8.58205">
        <ele>803</ele>
        <time>2021-08-10T10:06:01.773Z</time>
      </trkpt>
      <trkpt lat="46.95077" lon="8.58204">
        <ele>803</ele>
        <time>2021-08-10T10:06:02.773Z</time>
      </trkpt>
      <trkpt lat="46.95076" lon="8.58204">
        <ele>803</ele>
        <time>2021-08-10T10:06:03.772Z</time>
      </trkpt>
      <trkpt lat="46.95075" lon="8.58203">
        <ele>803</ele>
        <time>2021-08-10T10:06:04.773Z</time>
      </trkpt>
      <trkpt lat="46.95073" lon="8.58202">
        <ele>803</ele>
        <time>2021-08-10T10:06:05.773Z</time>
      </trkpt>
      <trkpt lat="46.95072" lon="8.58202">
        <ele>803</ele>
        <time>2021-08-10T10:06:06.773Z</time>
      </trkpt>
      <trkpt lat="46.95071" lon="8.58201">
        <ele>802</ele>
        <time>2021-08-10T10:06:07.773Z</time>
      </trkpt>
      <trkpt lat="46.9507" lon="8.582">
        <ele>802</ele>
        <time>2021-08-10T10:06:08.773Z</time>
      </trkpt>
      <trkpt lat="46.95069" lon="8.582">
        <ele>802</ele>
        <time>2021-08-10T10:06:09.773Z</time>
      </trkpt>
      <trkpt lat="46.95068" lon="8.58199">
        <ele>803</ele>
        <time>2021-08-10T10:06:10.773Z</time>
      </trkpt>
      <trkpt lat="46.95067" lon="8.58198">
        <ele>803</ele>
        <time>2021-08-10T10:06:11.773Z</time>
      </trkpt>
      <trkpt lat="46.95066" lon="8.58198">
        <ele>803</ele>
        <time>2021-08-10T10:06:12.773Z</time>
      </trkpt>
      <trkpt lat="46.95064" lon="8.58197">
        <ele>804</ele>
        <time>2021-08-10T10:06:13.773Z</time>
      </trkpt>
      <trkpt lat="46.95063" lon="8.58196">
        <ele>804</ele>
        <time>2021-08-10T10:06:14.772Z</time>
      </trkpt>
      <trkpt lat="46.95062" lon="8.58195">
        <ele>804</ele>
        <time>2021-08-10T10:06:15.773Z</time>
      </trkpt>
      <trkpt lat="46.95061" lon="8.58195">
        <ele>804</ele>
        <time>2021-08-10T10:06:16.773Z</time>
      </trkpt>
      <trkpt lat="46.9506" lon="8.58194">
        <ele>805</ele>
        <time>2021-08-10T10:06:17.773Z</time>
      </trkpt>
      <trkpt lat="46.95059" lon="8.58193">
        <ele>805</ele>
        <time>2021-08-10T10:06:18.773Z</time>
      </trkpt>
      <trkpt lat="46.95057" lon="8.58192">
        <ele>805</ele>
        <time>2021-08-10T10:06:19.773Z</time>
      </trkpt>
      <trkpt lat="46.95056" lon="8.58192">
        <ele>805</ele>
        <time>2021-08-10T10:06:20.773Z</time>
      </trkpt>
      <trkpt lat="46.95054" lon="8.58191">
        <ele>806</ele>
        <time>2021-08-10T10:06:21.773Z</time>
      </trkpt>
      <trkpt lat="46.95053" lon="8.58192">
        <ele>806</ele>
        <time>2021-08-10T10:06:22.773Z</time>
      </trkpt>
      <trkpt lat="46.95052" lon="8.58193">
        <ele>807</ele>
        <time>2021-08-10T10:06:23.773Z</time>
      </trkpt>
      <trkpt lat="46.9505" lon="8.58193">
        <ele>807</ele>
        <time>2021-08-10T10:06:24.773Z</time>
      </trkpt>
      <trkpt lat="46.95049" lon="8.58192">
        <ele>808</ele>
        <time>2021-08-10T10:06:25.773Z</time>
      </trkpt>
      <trkpt lat="46.95048" lon="8.58192">
        <ele>808</ele>
        <time>2021-08-10T10:06:26.772Z</time>
      </trkpt>
      <trkpt lat="46.95047" lon="8.58192">
        <ele>809</ele>
        <time>2021-08-10T10:06:27.773Z</time>
      </trkpt>
      <trkpt lat="46.95046" lon="8.58191">
        <ele>810</ele>
        <time>2021-08-10T10:06:28.772Z</time>
      </trkpt>
      <trkpt lat="46.95045" lon="8.58191">
        <ele>811</ele>
        <time>2021-08-10T10:06:29.773Z</time>
      </trkpt>
      <trkpt lat="46.95044" lon="8.58191">
        <ele>811</ele>
        <time>2021-08-10T10:06:30.772Z</time>
      </trkpt>
      <trkpt lat="46.95043" lon="8.5819">
        <ele>812</ele>
        <time>2021-08-10T10:06:31.773Z</time>
      </trkpt>
      <trkpt lat="46.95043" lon="8.58189">
        <ele>812</ele>
        <time>2021-08-10T10:06:32.772Z</time>
      </trkpt>
      <trkpt lat="46.95042" lon="8.58187">
        <ele>812</ele>
        <time>2021-08-10T10:06:33.773Z</time>
      </trkpt>
      <trkpt lat="46.95042" lon="8.58186">
        <ele>812</ele>
        <time>2021-08-10T10:06:34.773Z</time>
      </trkpt>
      <trkpt lat="46.9504" lon="8.58186">
        <ele>812</ele>
        <time>2021-08-10T10:06:35.773Z</time>
      </trkpt>
      <trkpt lat="46.95039" lon="8.58186">
        <ele>812</ele>
        <time>2021-08-10T10:06:36.773Z</time>
      </trkpt>
      <trkpt lat="46.95038" lon="8.58186">
        <ele>812</ele>
        <time>2021-08-10T10:06:37.772Z</time>
      </trkpt>
      <trkpt lat="46.95037" lon="8.58185">
        <ele>811</ele>
        <time>2021-08-10T10:06:38.772Z</time>
      </trkpt>
      <trkpt lat="46.95036" lon="8.58185">
        <ele>811</ele>
        <time>2021-08-10T10:06:39.773Z</time>
      </trkpt>
      <trkpt lat="46.95035" lon="8.58184">
        <ele>810</ele>
        <time>2021-08-10T10:06:40.772Z</time>
      </trkpt>
      <trkpt lat="46.95034" lon="8.58183">
        <ele>810</ele>
        <time>2021-08-10T10:06:41.772Z</time>
      </trkpt>
      <trkpt lat="46.95034" lon="8.58182">
        <ele>809</ele>
        <time>2021-08-10T10:06:42.773Z</time>
      </trkpt>
      <trkpt lat="46.95033" lon="8.58181">
        <ele>809</ele>
        <time>2021-08-10T10:06:43.773Z</time>
      </trkpt>
      <trkpt lat="46.95032" lon="8.5818">
        <ele>808</ele>
        <time>2021-08-10T10:06:44.773Z</time>
      </trkpt>
      <trkpt lat="46.95031" lon="8.5818">
        <ele>808</ele>
        <time>2021-08-10T10:06:45.773Z</time>
      </trkpt>
      <trkpt lat="46.9503" lon="8.58179">
        <ele>807</ele>
        <time>2021-08-10T10:06:46.772Z</time>
      </trkpt>
      <trkpt lat="46.95029" lon="8.58179">
        <ele>807</ele>
        <time>2021-08-10T10:06:47.773Z</time>
      </trkpt>
      <trkpt lat="46.95029" lon="8.58177">
        <ele>806</ele>
        <time>2021-08-10T10:06:48.773Z</time>
      </trkpt>
      <trkpt lat="46.95028" lon="8.58176">
        <ele>806</ele>
        <time>2021-08-10T10:06:49.772Z</time>
      </trkpt>
      <trkpt lat="46.95027" lon="8.58175">
        <ele>805</ele>
        <time>2021-08-10T10:06:50.772Z</time>
      </trkpt>
      <trkpt lat="46.95027" lon="8.58174">
        <ele>805</ele>
        <time>2021-08-10T10:06:51.773Z</time>
      </trkpt>
      <trkpt lat="46.95026" lon="8.58174">
        <ele>805</ele>
        <time>2021-08-10T10:06:52.773Z</time>
      </trkpt>
      <trkpt lat="46.95024" lon="8.58174">
        <ele>804</ele>
        <time>2021-08-10T10:06:53.772Z</time>
      </trkpt>
      <trkpt lat="46.95024" lon="8.58174">
        <ele>804</ele>
        <time>2021-08-10T10:06:54.772Z</time>
      </trkpt>
      <trkpt lat="46.95023" lon="8.58174">
        <ele>804</ele>
        <time>2021-08-10T10:06:55.773Z</time>
      </trkpt>
      <trkpt lat="46.95023" lon="8.58173">
        <ele>804</ele>
        <time>2021-08-10T10:06:56.773Z</time>
      </trkpt>
      <trkpt lat="46.95022" lon="8.58173">
        <ele>804</ele>
        <time>2021-08-10T10:06:57.773Z</time>
      </trkpt>
      <trkpt lat="46.95021" lon="8.58172">
        <ele>805</ele>
        <time>2021-08-10T10:06:58.773Z</time>
      </trkpt>
      <trkpt lat="46.9502" lon="8.58171">
        <ele>805</ele>
        <time>2021-08-10T10:06:59.773Z</time>
      </trkpt>
      <trkpt lat="46.95019" lon="8.5817">
        <ele>805</ele>
        <time>2021-08-10T10:07:00.773Z</time>
      </trkpt>
      <trkpt lat="46.95018" lon="8.5817">
        <ele>805</ele>
        <time>2021-08-10T10:07:01.773Z</time>
      </trkpt>
      <trkpt lat="46.95016" lon="8.58169">
        <ele>805</ele>
        <time>2021-08-10T10:07:02.773Z</time>
      </trkpt>
      <trkpt lat="46.95015" lon="8.58169">
        <ele>805</ele>
        <time>2021-08-10T10:07:03.772Z</time>
      </trkpt>
      <trkpt lat="46.95014" lon="8.58168">
        <ele>806</ele>
        <time>2021-08-10T10:07:04.772Z</time>
      </trkpt>
      <trkpt lat="46.95013" lon="8.58168">
        <ele>806</ele>
        <time>2021-08-10T10:07:05.772Z</time>
      </trkpt>
      <trkpt lat="46.95012" lon="8.58167">
        <ele>806</ele>
        <time>2021-08-10T10:07:06.773Z</time>
      </trkpt>
      <trkpt lat="46.95011" lon="8.58167">
        <ele>806</ele>
        <time>2021-08-10T10:07:07.773Z</time>
      </trkpt>
      <trkpt lat="46.9501" lon="8.58166">
        <ele>806</ele>
        <time>2021-08-10T10:07:08.773Z</time>
      </trkpt>
      <trkpt lat="46.9501" lon="8.58165">
        <ele>807</ele>
        <time>2021-08-10T10:07:09.772Z</time>
      </trkpt>
      <trkpt lat="46.95009" lon="8.58164">
        <ele>807</ele>
        <time>2021-08-10T10:07:10.773Z</time>
      </trkpt>
      <trkpt lat="46.95009" lon="8.58161">
        <ele>807</ele>
        <time>2021-08-10T10:07:11.773Z</time>
      </trkpt>
      <trkpt lat="46.95008" lon="8.5816">
        <ele>807</ele>
        <time>2021-08-10T10:07:12.772Z</time>
      </trkpt>
      <trkpt lat="46.95008" lon="8.58159">
        <ele>807</ele>
        <time>2021-08-10T10:07:13.773Z</time>
      </trkpt>
      <trkpt lat="46.95008" lon="8.58158">
        <ele>807</ele>
        <time>2021-08-10T10:07:14.773Z</time>
      </trkpt>
      <trkpt lat="46.95008" lon="8.58157">
        <ele>807</ele>
        <time>2021-08-10T10:07:15.773Z</time>
      </trkpt>
      <trkpt lat="46.95007" lon="8.58156">
        <ele>807</ele>
        <time>2021-08-10T10:07:16.773Z</time>
      </trkpt>
      <trkpt lat="46.95006" lon="8.58156">
        <ele>807</ele>
        <time>2021-08-10T10:07:17.773Z</time>
      </trkpt>
      <trkpt lat="46.95004" lon="8.58154">
        <ele>807</ele>
        <time>2021-08-10T10:07:18.773Z</time>
      </trkpt>
      <trkpt lat="46.95003" lon="8.58153">
        <ele>807</ele>
        <time>2021-08-10T10:07:19.773Z</time>
      </trkpt>
      <trkpt lat="46.95002" lon="8.58152">
        <ele>807</ele>
        <time>2021-08-10T10:07:20.773Z</time>
      </trkpt>
      <trkpt lat="46.95002" lon="8.58151">
        <ele>807</ele>
        <time>2021-08-10T10:07:21.773Z</time>
      </trkpt>
      <trkpt lat="46.95001" lon="8.5815">
        <ele>806</ele>
        <time>2021-08-10T10:07:22.772Z</time>
      </trkpt>
      <trkpt lat="46.95" lon="8.5815">
        <ele>806</ele>
        <time>2021-08-10T10:07:23.773Z</time>
      </trkpt>
      <trkpt lat="46.94999" lon="8.58149">
        <ele>806</ele>
        <time>2021-08-10T10:07:24.773Z</time>
      </trkpt>
      <trkpt lat="46.94998" lon="8.58148">
        <ele>806</ele>
        <time>2021-08-10T10:07:25.773Z</time>
      </trkpt>
      <trkpt lat="46.94996" lon="8.58148">
        <ele>806</ele>
        <time>2021-08-10T10:07:26.773Z</time>
      </trkpt>
      <trkpt lat="46.94995" lon="8.58147">
        <ele>806</ele>
        <time>2021-08-10T10:07:27.773Z</time>
      </trkpt>
      <trkpt lat="46.94993" lon="8.58146">
        <ele>806</ele>
        <time>2021-08-10T10:07:28.772Z</time>
      </trkpt>
      <trkpt lat="46.94993" lon="8.58144">
        <ele>806</ele>
        <time>2021-08-10T10:07:29.772Z</time>
      </trkpt>
      <trkpt lat="46.94992" lon="8.58142">
        <ele>806</ele>
        <time>2021-08-10T10:07:30.773Z</time>
      </trkpt>
      <trkpt lat="46.9499" lon="8.58141">
        <ele>806</ele>
        <time>2021-08-10T10:07:31.773Z</time>
      </trkpt>
      <trkpt lat="46.94988" lon="8.5814">
        <ele>806</ele>
        <time>2021-08-10T10:07:32.772Z</time>
      </trkpt>
      <trkpt lat="46.94987" lon="8.5814">
        <ele>806</ele>
        <time>2021-08-10T10:07:33.773Z</time>
      </trkpt>
      <trkpt lat="46.94986" lon="8.58139">
        <ele>806</ele>
        <time>2021-08-10T10:07:34.773Z</time>
      </trkpt>
      <trkpt lat="46.94985" lon="8.58138">
        <ele>805</ele>
        <time>2021-08-10T10:07:35.773Z</time>
      </trkpt>
      <trkpt lat="46.94984" lon="8.58137">
        <ele>805</ele>
        <time>2021-08-10T10:07:36.773Z</time>
      </trkpt>
      <trkpt lat="46.94983" lon="8.58136">
        <ele>805</ele>
        <time>2021-08-10T10:07:37.772Z</time>
      </trkpt>
      <trkpt lat="46.94983" lon="8.58136">
        <ele>805</ele>
        <time>2021-08-10T10:07:38.773Z</time>
      </trkpt>
      <trkpt lat="46.94982" lon="8.58135">
        <ele>805</ele>
        <time>2021-08-10T10:07:39.772Z</time>
      </trkpt>
      <trkpt lat="46.94981" lon="8.58134">
        <ele>805</ele>
        <time>2021-08-10T10:07:40.773Z</time>
      </trkpt>
      <trkpt lat="46.9498" lon="8.58134">
        <ele>805</ele>
        <time>2021-08-10T10:07:41.773Z</time>
      </trkpt>
      <trkpt lat="46.94979" lon="8.58134">
        <ele>805</ele>
        <time>2021-08-10T10:07:42.772Z</time>
      </trkpt>
      <trkpt lat="46.94977" lon="8.58133">
        <ele>805</ele>
        <time>2021-08-10T10:07:43.772Z</time>
      </trkpt>
      <trkpt lat="46.94976" lon="8.58131">
        <ele>805</ele>
        <time>2021-08-10T10:07:44.772Z</time>
      </trkpt>
      <trkpt lat="46.94976" lon="8.5813">
        <ele>804</ele>
        <time>2021-08-10T10:07:45.772Z</time>
      </trkpt>
      <trkpt lat="46.94975" lon="8.58129">
        <ele>804</ele>
        <time>2021-08-10T10:07:46.773Z</time>
      </trkpt>
      <trkpt lat="46.94973" lon="8.58128">
        <ele>804</ele>
        <time>2021-08-10T10:07:47.773Z</time>
      </trkpt>
      <trkpt lat="46.94972" lon="8.58127">
        <ele>804</ele>
        <time>2021-08-10T10:07:48.773Z</time>
      </trkpt>
      <trkpt lat="46.94971" lon="8.58126">
        <ele>804</ele>
        <time>2021-08-10T10:07:49.773Z</time>
      </trkpt>
      <trkpt lat="46.9497" lon="8.58126">
        <ele>804</ele>
        <time>2021-08-10T10:07:50.773Z</time>
      </trkpt>
      <trkpt lat="46.94968" lon="8.58123">
        <ele>804</ele>
        <time>2021-08-10T10:07:51.772Z</time>
      </trkpt>
      <trkpt lat="46.94967" lon="8.58123">
        <ele>804</ele>
        <time>2021-08-10T10:07:52.773Z</time>
      </trkpt>
      <trkpt lat="46.94966" lon="8.58122">
        <ele>804</ele>
        <time>2021-08-10T10:07:53.772Z</time>
      </trkpt>
      <trkpt lat="46.94964" lon="8.58121">
        <ele>804</ele>
        <time>2021-08-10T10:07:54.772Z</time>
      </trkpt>
      <trkpt lat="46.94963" lon="8.58121">
        <ele>804</ele>
        <time>2021-08-10T10:07:55.773Z</time>
      </trkpt>
      <trkpt lat="46.94962" lon="8.58121">
        <ele>804</ele>
        <time>2021-08-10T10:07:56.772Z</time>
      </trkpt>
      <trkpt lat="46.94961" lon="8.58121">
        <ele>804</ele>
        <time>2021-08-10T10:07:57.773Z</time>
      </trkpt>
      <trkpt lat="46.9496" lon="8.5812">
        <ele>805</ele>
        <time>2021-08-10T10:07:58.773Z</time>
      </trkpt>
      <trkpt lat="46.94959" lon="8.5812">
        <ele>805</ele>
        <time>2021-08-10T10:07:59.772Z</time>
      </trkpt>
      <trkpt lat="46.94957" lon="8.58119">
        <ele>805</ele>
        <time>2021-08-10T10:08:00.773Z</time>
      </trkpt>
      <trkpt lat="46.94956" lon="8.58118">
        <ele>806</ele>
        <time>2021-08-10T10:08:01.772Z</time>
      </trkpt>
      <trkpt lat="46.94954" lon="8.58118">
        <ele>806</ele>
        <time>2021-08-10T10:08:02.773Z</time>
      </trkpt>
      <trkpt lat="46.94953" lon="8.58117">
        <ele>806</ele>
        <time>2021-08-10T10:08:03.773Z</time>
      </trkpt>
      <trkpt lat="46.94952" lon="8.58117">
        <ele>806</ele>
        <time>2021-08-10T10:08:04.773Z</time>
      </trkpt>
      <trkpt lat="46.94951" lon="8.58117">
        <ele>805</ele>
        <time>2021-08-10T10:08:05.773Z</time>
      </trkpt>
      <trkpt lat="46.9495" lon="8.58117">
        <ele>805</ele>
        <time>2021-08-10T10:08:06.772Z</time>
      </trkpt>
      <trkpt lat="46.94948" lon="8.58117">
        <ele>804</ele>
        <time>2021-08-10T10:08:07.772Z</time>
      </trkpt>
      <trkpt lat="46.94947" lon="8.58118">
        <ele>804</ele>
        <time>2021-08-10T10:08:08.773Z</time>
      </trkpt>
      <trkpt lat="46.94946" lon="8.58118">
        <ele>804</ele>
        <time>2021-08-10T10:08:09.773Z</time>
      </trkpt>
      <trkpt lat="46.94945" lon="8.58118">
        <ele>804</ele>
        <time>2021-08-10T10:08:10.773Z</time>
      </trkpt>
      <trkpt lat="46.94944" lon="8.58118">
        <ele>804</ele>
        <time>2021-08-10T10:08:11.772Z</time>
      </trkpt>
      <trkpt lat="46.94943" lon="8.58117">
        <ele>803</ele>
        <time>2021-08-10T10:08:12.772Z</time>
      </trkpt>
      <trkpt lat="46.94942" lon="8.58116">
        <ele>803</ele>
        <time>2021-08-10T10:08:13.773Z</time>
      </trkpt>
      <trkpt lat="46.94941" lon="8.58116">
        <ele>803</ele>
        <time>2021-08-10T10:08:14.772Z</time>
      </trkpt>
      <trkpt lat="46.94939" lon="8.58117">
        <ele>802</ele>
        <time>2021-08-10T10:08:15.772Z</time>
      </trkpt>
      <trkpt lat="46.94938" lon="8.58117">
        <ele>802</ele>
        <time>2021-08-10T10:08:16.772Z</time>
      </trkpt>
      <trkpt lat="46.94936" lon="8.58119">
        <ele>802</ele>
        <time>2021-08-10T10:08:17.772Z</time>
      </trkpt>
      <trkpt lat="46.94933" lon="8.58121">
        <ele>802</ele>
        <time>2021-08-10T10:08:18.772Z</time>
      </trkpt>
      <trkpt lat="46.94932" lon="8.58121">
        <ele>802</ele>
        <time>2021-08-10T10:08:19.772Z</time>
      </trkpt>
      <trkpt lat="46.94931" lon="8.58121">
        <ele>802</ele>
        <time>2021-08-10T10:08:20.773Z</time>
      </trkpt>
      <trkpt lat="46.94929" lon="8.58121">
        <ele>802</ele>
        <time>2021-08-10T10:08:21.773Z</time>
      </trkpt>
      <trkpt lat="46.94927" lon="8.58122">
        <ele>802</ele>
        <time>2021-08-10T10:08:22.772Z</time>
      </trkpt>
      <trkpt lat="46.94925" lon="8.58123">
        <ele>802</ele>
        <time>2021-08-10T10:08:23.772Z</time>
      </trkpt>
      <trkpt lat="46.94924" lon="8.58124">
        <ele>802</ele>
        <time>2021-08-10T10:08:24.772Z</time>
      </trkpt>
      <trkpt lat="46.94923" lon="8.58125">
        <ele>802</ele>
        <time>2021-08-10T10:08:25.772Z</time>
      </trkpt>
      <trkpt lat="46.94921" lon="8.58126">
        <ele>802</ele>
        <time>2021-08-10T10:08:26.772Z</time>
      </trkpt>
      <trkpt lat="46.9492" lon="8.58126">
        <ele>802</ele>
        <time>2021-08-10T10:08:27.772Z</time>
      </trkpt>
      <trkpt lat="46.94919" lon="8.58125">
        <ele>802</ele>
        <time>2021-08-10T10:08:28.772Z</time>
      </trkpt>
      <trkpt lat="46.94919" lon="8.58124">
        <ele>802</ele>
        <time>2021-08-10T10:08:29.772Z</time>
      </trkpt>
      <trkpt lat="46.94918" lon="8.58123">
        <ele>802</ele>
        <time>2021-08-10T10:08:30.772Z</time>
      </trkpt>
      <trkpt lat="46.94917" lon="8.58122">
        <ele>802</ele>
        <time>2021-08-10T10:08:31.772Z</time>
      </trkpt>
      <trkpt lat="46.94916" lon="8.58122">
        <ele>802</ele>
        <time>2021-08-10T10:08:32.772Z</time>
      </trkpt>
      <trkpt lat="46.94916" lon="8.58122">
        <ele>802</ele>
        <time>2021-08-10T10:08:33.772Z</time>
      </trkpt>
      <trkpt lat="46.94915" lon="8.58122">
        <ele>802</ele>
        <time>2021-08-10T10:08:34.772Z</time>
      </trkpt>
      <trkpt lat="46.94914" lon="8.58122">
        <ele>802</ele>
        <time>2021-08-10T10:08:35.772Z</time>
      </trkpt>
      <trkpt lat="46.94913" lon="8.58123">
        <ele>802</ele>
        <time>2021-08-10T10:08:36.772Z</time>
      </trkpt>
      <trkpt lat="46.94912" lon="8.58123">
        <ele>801</ele>
        <time>2021-08-10T10:08:37.773Z</time>
      </trkpt>
      <trkpt lat="46.94911" lon="8.58123">
        <ele>800</ele>
        <time>2021-08-10T10:08:38.772Z</time>
      </trkpt>
      <trkpt lat="46.9491" lon="8.58124">
        <ele>800</ele>
        <time>2021-08-10T10:08:39.772Z</time>
      </trkpt>
      <trkpt lat="46.94909" lon="8.58124">
        <ele>799</ele>
        <time>2021-08-10T10:08:40.773Z</time>
      </trkpt>
      <trkpt lat="46.94907" lon="8.58124">
        <ele>799</ele>
        <time>2021-08-10T10:08:41.772Z</time>
      </trkpt>
      <trkpt lat="46.94906" lon="8.58124">
        <ele>798</ele>
        <time>2021-08-10T10:08:42.773Z</time>
      </trkpt>
      <trkpt lat="46.94904" lon="8.58125">
        <ele>798</ele>
        <time>2021-08-10T10:08:43.772Z</time>
      </trkpt>
      <trkpt lat="46.94902" lon="8.58124">
        <ele>798</ele>
        <time>2021-08-10T10:08:44.772Z</time>
      </trkpt>
      <trkpt lat="46.949" lon="8.58124">
        <ele>798</ele>
        <time>2021-08-10T10:08:45.772Z</time>
      </trkpt>
      <trkpt lat="46.94898" lon="8.58124">
        <ele>797</ele>
        <time>2021-08-10T10:08:46.772Z</time>
      </trkpt>
      <trkpt lat="46.94897" lon="8.58124">
        <ele>797</ele>
        <time>2021-08-10T10:08:47.772Z</time>
      </trkpt>
      <trkpt lat="46.94896" lon="8.58124">
        <ele>797</ele>
        <time>2021-08-10T10:08:48.772Z</time>
      </trkpt>
      <trkpt lat="46.94894" lon="8.58124">
        <ele>797</ele>
        <time>2021-08-10T10:08:49.773Z</time>
      </trkpt>
      <trkpt lat="46.94893" lon="8.58124">
        <ele>796</ele>
        <time>2021-08-10T10:08:50.773Z</time>
      </trkpt>
      <trkpt lat="46.94893" lon="8.58124">
        <ele>796</ele>
        <time>2021-08-10T10:08:51.773Z</time>
      </trkpt>
      <trkpt lat="46.94891" lon="8.58125">
        <ele>796</ele>
        <time>2021-08-10T10:08:52.772Z</time>
      </trkpt>
      <trkpt lat="46.9489" lon="8.58125">
        <ele>795</ele>
        <time>2021-08-10T10:08:53.772Z</time>
      </trkpt>
      <trkpt lat="46.94888" lon="8.58125">
        <ele>795</ele>
        <time>2021-08-10T10:08:54.772Z</time>
      </trkpt>
      <trkpt lat="46.94887" lon="8.58124">
        <ele>794</ele>
        <time>2021-08-10T10:08:55.772Z</time>
      </trkpt>
      <trkpt lat="46.94885" lon="8.58123">
        <ele>794</ele>
        <time>2021-08-10T10:08:56.772Z</time>
      </trkpt>
      <trkpt lat="46.94884" lon="8.58123">
        <ele>794</ele>
        <time>2021-08-10T10:08:57.772Z</time>
      </trkpt>
      <trkpt lat="46.94883" lon="8.58123">
        <ele>793</ele>
        <time>2021-08-10T10:08:58.772Z</time>
      </trkpt>
      <trkpt lat="46.94881" lon="8.58123">
        <ele>793</ele>
        <time>2021-08-10T10:08:59.772Z</time>
      </trkpt>
      <trkpt lat="46.9488" lon="8.58123">
        <ele>793</ele>
        <time>2021-08-10T10:09:00.773Z</time>
      </trkpt>
      <trkpt lat="46.94879" lon="8.58122">
        <ele>793</ele>
        <time>2021-08-10T10:09:01.772Z</time>
      </trkpt>
      <trkpt lat="46.94879" lon="8.58121">
        <ele>793</ele>
        <time>2021-08-10T10:09:02.772Z</time>
      </trkpt>
      <trkpt lat="46.94878" lon="8.5812">
        <ele>793</ele>
        <time>2021-08-10T10:09:03.772Z</time>
      </trkpt>
      <trkpt lat="46.94877" lon="8.58119">
        <ele>792</ele>
        <time>2021-08-10T10:09:04.772Z</time>
      </trkpt>
      <trkpt lat="46.94877" lon="8.58117">
        <ele>792</ele>
        <time>2021-08-10T10:09:05.772Z</time>
      </trkpt>
      <trkpt lat="46.94876" lon="8.58115">
        <ele>791</ele>
        <time>2021-08-10T10:09:06.773Z</time>
      </trkpt>
      <trkpt lat="46.94875" lon="8.58114">
        <ele>791</ele>
        <time>2021-08-10T10:09:07.772Z</time>
      </trkpt>
      <trkpt lat="46.94875" lon="8.58113">
        <ele>791</ele>
        <time>2021-08-10T10:09:08.772Z</time>
      </trkpt>
      <trkpt lat="46.94874" lon="8.58113">
        <ele>790</ele>
        <time>2021-08-10T10:09:09.772Z</time>
      </trkpt>
      <trkpt lat="46.94873" lon="8.58112">
        <ele>790</ele>
        <time>2021-08-10T10:09:10.773Z</time>
      </trkpt>
      <trkpt lat="46.94872" lon="8.58111">
        <ele>790</ele>
        <time>2021-08-10T10:09:11.772Z</time>
      </trkpt>
      <trkpt lat="46.94871" lon="8.58108">
        <ele>790</ele>
        <time>2021-08-10T10:09:12.772Z</time>
      </trkpt>
      <trkpt lat="46.9487" lon="8.58106">
        <ele>790</ele>
        <time>2021-08-10T10:09:13.772Z</time>
      </trkpt>
      <trkpt lat="46.94869" lon="8.58106">
        <ele>789</ele>
        <time>2021-08-10T10:09:14.772Z</time>
      </trkpt>
      <trkpt lat="46.94868" lon="8.58106">
        <ele>789</ele>
        <time>2021-08-10T10:09:15.772Z</time>
      </trkpt>
      <trkpt lat="46.94867" lon="8.58106">
        <ele>789</ele>
        <time>2021-08-10T10:09:16.773Z</time>
      </trkpt>
      <trkpt lat="46.94867" lon="8.58106">
        <ele>789</ele>
        <time>2021-08-10T10:09:17.772Z</time>
      </trkpt>
      <trkpt lat="46.94866" lon="8.58106">
        <ele>789</ele>
        <time>2021-08-10T10:09:18.772Z</time>
      </trkpt>
      <trkpt lat="46.94865" lon="8.58107">
        <ele>789</ele>
        <time>2021-08-10T10:09:19.773Z</time>
      </trkpt>
      <trkpt lat="46.94864" lon="8.58107">
        <ele>789</ele>
        <time>2021-08-10T10:09:20.772Z</time>
      </trkpt>
      <trkpt lat="46.94863" lon="8.58107">
        <ele>789</ele>
        <time>2021-08-10T10:09:21.772Z</time>
      </trkpt>
      <trkpt lat="46.94861" lon="8.58107">
        <ele>789</ele>
        <time>2021-08-10T10:09:22.772Z</time>
      </trkpt>
      <trkpt lat="46.9486" lon="8.58107">
        <ele>789</ele>
        <time>2021-08-10T10:09:23.772Z</time>
      </trkpt>
      <trkpt lat="46.94859" lon="8.58107">
        <ele>789</ele>
        <time>2021-08-10T10:09:24.773Z</time>
      </trkpt>
      <trkpt lat="46.94857" lon="8.58106">
        <ele>789</ele>
        <time>2021-08-10T10:09:25.772Z</time>
      </trkpt>
      <trkpt lat="46.94856" lon="8.58105">
        <ele>789</ele>
        <time>2021-08-10T10:09:26.772Z</time>
      </trkpt>
      <trkpt lat="46.94855" lon="8.58104">
        <ele>789</ele>
        <time>2021-08-10T10:09:27.772Z</time>
      </trkpt>
      <trkpt lat="46.94854" lon="8.58102">
        <ele>789</ele>
        <time>2021-08-10T10:09:28.772Z</time>
      </trkpt>
      <trkpt lat="46.94854" lon="8.58101">
        <ele>789</ele>
        <time>2021-08-10T10:09:29.773Z</time>
      </trkpt>
      <trkpt lat="46.94853" lon="8.581">
        <ele>789</ele>
        <time>2021-08-10T10:09:30.773Z</time>
      </trkpt>
      <trkpt lat="46.94852" lon="8.58099">
        <ele>788</ele>
        <time>2021-08-10T10:09:31.772Z</time>
      </trkpt>
      <trkpt lat="46.9485" lon="8.58098">
        <ele>788</ele>
        <time>2021-08-10T10:09:32.773Z</time>
      </trkpt>
      <trkpt lat="46.94849" lon="8.58097">
        <ele>788</ele>
        <time>2021-08-10T10:09:33.773Z</time>
      </trkpt>
      <trkpt lat="46.94848" lon="8.58096">
        <ele>787</ele>
        <time>2021-08-10T10:09:34.773Z</time>
      </trkpt>
      <trkpt lat="46.94846" lon="8.58095">
        <ele>787</ele>
        <time>2021-08-10T10:09:35.773Z</time>
      </trkpt>
      <trkpt lat="46.94845" lon="8.58094">
        <ele>787</ele>
        <time>2021-08-10T10:09:36.773Z</time>
      </trkpt>
      <trkpt lat="46.94844" lon="8.58093">
        <ele>786</ele>
        <time>2021-08-10T10:09:37.773Z</time>
      </trkpt>
      <trkpt lat="46.94842" lon="8.58093">
        <ele>786</ele>
        <time>2021-08-10T10:09:38.772Z</time>
      </trkpt>
      <trkpt lat="46.9484" lon="8.58092">
        <ele>786</ele>
        <time>2021-08-10T10:09:39.773Z</time>
      </trkpt>
      <trkpt lat="46.94839" lon="8.58091">
        <ele>786</ele>
        <time>2021-08-10T10:09:40.773Z</time>
      </trkpt>
      <trkpt lat="46.94838" lon="8.58091">
        <ele>786</ele>
        <time>2021-08-10T10:09:41.773Z</time>
      </trkpt>
      <trkpt lat="46.94837" lon="8.58091">
        <ele>785</ele>
        <time>2021-08-10T10:09:42.773Z</time>
      </trkpt>
      <trkpt lat="46.94835" lon="8.5809">
        <ele>784</ele>
        <time>2021-08-10T10:09:43.773Z</time>
      </trkpt>
      <trkpt lat="46.94834" lon="8.58088">
        <ele>784</ele>
        <time>2021-08-10T10:09:44.772Z</time>
      </trkpt>
      <trkpt lat="46.94832" lon="8.58086">
        <ele>783</ele>
        <time>2021-08-10T10:09:45.773Z</time>
      </trkpt>
      <trkpt lat="46.9483" lon="8.58084">
        <ele>783</ele>
        <time>2021-08-10T10:09:46.773Z</time>
      </trkpt>
      <trkpt lat="46.94828" lon="8.58082">
        <ele>783</ele>
        <time>2021-08-10T10:09:47.772Z</time>
      </trkpt>
      <trkpt lat="46.94827" lon="8.58081">
        <ele>782</ele>
        <time>2021-08-10T10:09:48.772Z</time>
      </trkpt>
      <trkpt lat="46.94826" lon="8.58081">
        <ele>782</ele>
        <time>2021-08-10T10:09:49.772Z</time>
      </trkpt>
      <trkpt lat="46.94825" lon="8.5808">
        <ele>782</ele>
        <time>2021-08-10T10:09:50.773Z</time>
      </trkpt>
      <trkpt lat="46.94824" lon="8.58079">
        <ele>781</ele>
        <time>2021-08-10T10:09:51.773Z</time>
      </trkpt>
      <trkpt lat="46.94823" lon="8.58078">
        <ele>781</ele>
        <time>2021-08-10T10:09:52.773Z</time>
      </trkpt>
      <trkpt lat="46.94822" lon="8.58077">
        <ele>780</ele>
        <time>2021-08-10T10:09:53.773Z</time>
      </trkpt>
      <trkpt lat="46.94821" lon="8.58077">
        <ele>780</ele>
        <time>2021-08-10T10:09:54.772Z</time>
      </trkpt>
      <trkpt lat="46.94819" lon="8.58076">
        <ele>779</ele>
        <time>2021-08-10T10:09:55.773Z</time>
      </trkpt>
      <trkpt lat="46.94818" lon="8.58076">
        <ele>779</ele>
        <time>2021-08-10T10:09:56.773Z</time>
      </trkpt>
      <trkpt lat="46.94817" lon="8.58075">
        <ele>779</ele>
        <time>2021-08-10T10:09:57.772Z</time>
      </trkpt>
      <trkpt lat="46.94816" lon="8.58074">
        <ele>779</ele>
        <time>2021-08-10T10:09:58.773Z</time>
      </trkpt>
      <trkpt lat="46.94814" lon="8.58073">
        <ele>778</ele>
        <time>2021-08-10T10:09:59.773Z</time>
      </trkpt>
      <trkpt lat="46.94813" lon="8.58072">
        <ele>778</ele>
        <time>2021-08-10T10:10:00.773Z</time>
      </trkpt>
      <trkpt lat="46.94812" lon="8.58072">
        <ele>779</ele>
        <time>2021-08-10T10:10:01.773Z</time>
      </trkpt>
      <trkpt lat="46.9481" lon="8.58072">
        <ele>779</ele>
        <time>2021-08-10T10:10:02.773Z</time>
      </trkpt>
      <trkpt lat="46.94808" lon="8.58072">
        <ele>779</ele>
        <time>2021-08-10T10:10:03.773Z</time>
      </trkpt>
      <trkpt lat="46.94807" lon="8.58071">
        <ele>779</ele>
        <time>2021-08-10T10:10:04.773Z</time>
      </trkpt>
      <trkpt lat="46.94806" lon="8.58071">
        <ele>780</ele>
        <time>2021-08-10T10:10:05.772Z</time>
      </trkpt>
      <trkpt lat="46.94805" lon="8.5807">
        <ele>780</ele>
        <time>2021-08-10T10:10:06.773Z</time>
      </trkpt>
      <trkpt lat="46.94804" lon="8.5807">
        <ele>780</ele>
        <time>2021-08-10T10:10:07.773Z</time>
      </trkpt>
      <trkpt lat="46.94803" lon="8.5807">
        <ele>780</ele>
        <time>2021-08-10T10:10:08.772Z</time>
      </trkpt>
      <trkpt lat="46.94802" lon="8.58069">
        <ele>780</ele>
        <time>2021-08-10T10:10:09.773Z</time>
      </trkpt>
      <trkpt lat="46.94801" lon="8.58068">
        <ele>780</ele>
        <time>2021-08-10T10:10:10.773Z</time>
      </trkpt>
      <trkpt lat="46.948" lon="8.58067">
        <ele>780</ele>
        <time>2021-08-10T10:10:11.773Z</time>
      </trkpt>
      <trkpt lat="46.94799" lon="8.58067">
        <ele>780</ele>
        <time>2021-08-10T10:10:12.772Z</time>
      </trkpt>
      <trkpt lat="46.94798" lon="8.58066">
        <ele>779</ele>
        <time>2021-08-10T10:10:13.773Z</time>
      </trkpt>
      <trkpt lat="46.94797" lon="8.58066">
        <ele>779</ele>
        <time>2021-08-10T10:10:14.772Z</time>
      </trkpt>
      <trkpt lat="46.94795" lon="8.58065">
        <ele>779</ele>
        <time>2021-08-10T10:10:15.772Z</time>
      </trkpt>
      <trkpt lat="46.94794" lon="8.58065">
        <ele>778</ele>
        <time>2021-08-10T10:10:16.773Z</time>
      </trkpt>
      <trkpt lat="46.94793" lon="8.58064">
        <ele>778</ele>
        <time>2021-08-10T10:10:17.773Z</time>
      </trkpt>
      <trkpt lat="46.94791" lon="8.58064">
        <ele>777</ele>
        <time>2021-08-10T10:10:18.772Z</time>
      </trkpt>
      <trkpt lat="46.9479" lon="8.58063">
        <ele>777</ele>
        <time>2021-08-10T10:10:19.772Z</time>
      </trkpt>
      <trkpt lat="46.94789" lon="8.58063">
        <ele>776</ele>
        <time>2021-08-10T10:10:20.773Z</time>
      </trkpt>
      <trkpt lat="46.94788" lon="8.58063">
        <ele>776</ele>
        <time>2021-08-10T10:10:21.773Z</time>
      </trkpt>
      <trkpt lat="46.94787" lon="8.58063">
        <ele>775</ele>
        <time>2021-08-10T10:10:22.772Z</time>
      </trkpt>
      <trkpt lat="46.94786" lon="8.58062">
        <ele>775</ele>
        <time>2021-08-10T10:10:23.773Z</time>
      </trkpt>
      <trkpt lat="46.94784" lon="8.58062">
        <ele>775</ele>
        <time>2021-08-10T10:10:24.773Z</time>
      </trkpt>
      <trkpt lat="46.94783" lon="8.58061">
        <ele>775</ele>
        <time>2021-08-10T10:10:25.773Z</time>
      </trkpt>
      <trkpt lat="46.94783" lon="8.58061">
        <ele>774</ele>
        <time>2021-08-10T10:10:26.772Z</time>
      </trkpt>
      <trkpt lat="46.94782" lon="8.58061">
        <ele>774</ele>
        <time>2021-08-10T10:10:27.773Z</time>
      </trkpt>
      <trkpt lat="46.94781" lon="8.5806">
        <ele>773</ele>
        <time>2021-08-10T10:10:28.773Z</time>
      </trkpt>
      <trkpt lat="46.9478" lon="8.5806">
        <ele>773</ele>
        <time>2021-08-10T10:10:29.773Z</time>
      </trkpt>
      <trkpt lat="46.94779" lon="8.58059">
        <ele>772</ele>
        <time>2021-08-10T10:10:30.773Z</time>
      </trkpt>
      <trkpt lat="46.94778" lon="8.58059">
        <ele>772</ele>
        <time>2021-08-10T10:10:31.772Z</time>
      </trkpt>
      <trkpt lat="46.94777" lon="8.58059">
        <ele>772</ele>
        <time>2021-08-10T10:10:32.773Z</time>
      </trkpt>
      <trkpt lat="46.94776" lon="8.58059">
        <ele>772</ele>
        <time>2021-08-10T10:10:33.773Z</time>
      </trkpt>
      <trkpt lat="46.94774" lon="8.58059">
        <ele>772</ele>
        <time>2021-08-10T10:10:34.772Z</time>
      </trkpt>
      <trkpt lat="46.94773" lon="8.58058">
        <ele>772</ele>
        <time>2021-08-10T10:10:35.773Z</time>
      </trkpt>
      <trkpt lat="46.94773" lon="8.58058">
        <ele>772</ele>
        <time>2021-08-10T10:10:36.772Z</time>
      </trkpt>
      <trkpt lat="46.94772" lon="8.58058">
        <ele>772</ele>
        <time>2021-08-10T10:10:37.773Z</time>
      </trkpt>
      <trkpt lat="46.9477" lon="8.58057">
        <ele>772</ele>
        <time>2021-08-10T10:10:38.773Z</time>
      </trkpt>
      <trkpt lat="46.94769" lon="8.58056">
        <ele>772</ele>
        <time>2021-08-10T10:10:39.772Z</time>
      </trkpt>
      <trkpt lat="46.94767" lon="8.58055">
        <ele>772</ele>
        <time>2021-08-10T10:10:40.773Z</time>
      </trkpt>
      <trkpt lat="46.94766" lon="8.58056">
        <ele>772</ele>
        <time>2021-08-10T10:10:41.773Z</time>
      </trkpt>
      <trkpt lat="46.94765" lon="8.58055">
        <ele>772</ele>
        <time>2021-08-10T10:10:42.772Z</time>
      </trkpt>
      <trkpt lat="46.94764" lon="8.58055">
        <ele>772</ele>
        <time>2021-08-10T10:10:43.773Z</time>
      </trkpt>
      <trkpt lat="46.94763" lon="8.58054">
        <ele>772</ele>
        <time>2021-08-10T10:10:44.773Z</time>
      </trkpt>
      <trkpt lat="46.94762" lon="8.58054">
        <ele>772</ele>
        <time>2021-08-10T10:10:45.773Z</time>
      </trkpt>
      <trkpt lat="46.94761" lon="8.58053">
        <ele>772</ele>
        <time>2021-08-10T10:10:46.772Z</time>
      </trkpt>
      <trkpt lat="46.9476" lon="8.58053">
        <ele>772</ele>
        <time>2021-08-10T10:10:47.773Z</time>
      </trkpt>
      <trkpt lat="46.94759" lon="8.58052">
        <ele>772</ele>
        <time>2021-08-10T10:10:48.772Z</time>
      </trkpt>
      <trkpt lat="46.94758" lon="8.58052">
        <ele>772</ele>
        <time>2021-08-10T10:10:49.773Z</time>
      </trkpt>
      <trkpt lat="46.94757" lon="8.58051">
        <ele>772</ele>
        <time>2021-08-10T10:10:50.773Z</time>
      </trkpt>
      <trkpt lat="46.94757" lon="8.5805">
        <ele>772</ele>
        <time>2021-08-10T10:10:51.773Z</time>
      </trkpt>
      <trkpt lat="46.94756" lon="8.5805">
        <ele>772</ele>
        <time>2021-08-10T10:10:52.772Z</time>
      </trkpt>
      <trkpt lat="46.94754" lon="8.58049">
        <ele>773</ele>
        <time>2021-08-10T10:10:53.772Z</time>
      </trkpt>
      <trkpt lat="46.94752" lon="8.58048">
        <ele>773</ele>
        <time>2021-08-10T10:10:54.773Z</time>
      </trkpt>
      <trkpt lat="46.94751" lon="8.58046">
        <ele>774</ele>
        <time>2021-08-10T10:10:55.773Z</time>
      </trkpt>
      <trkpt lat="46.9475" lon="8.58045">
        <ele>775</ele>
        <time>2021-08-10T10:10:56.772Z</time>
      </trkpt>
      <trkpt lat="46.94749" lon="8.58045">
        <ele>775</ele>
        <time>2021-08-10T10:10:57.773Z</time>
      </trkpt>
      <trkpt lat="46.94748" lon="8.58044">
        <ele>775</ele>
        <time>2021-08-10T10:10:58.773Z</time>
      </trkpt>
      <trkpt lat="46.94748" lon="8.58044">
        <ele>775</ele>
        <time>2021-08-10T10:10:59.773Z</time>
      </trkpt>
      <trkpt lat="46.94747" lon="8.58043">
        <ele>775</ele>
        <time>2021-08-10T10:11:00.773Z</time>
      </trkpt>
      <trkpt lat="46.94746" lon="8.58041">
        <ele>774</ele>
        <time>2021-08-10T10:11:01.773Z</time>
      </trkpt>
      <trkpt lat="46.94745" lon="8.58039">
        <ele>774</ele>
        <time>2021-08-10T10:11:02.773Z</time>
      </trkpt>
      <trkpt lat="46.94744" lon="8.58038">
        <ele>773</ele>
        <time>2021-08-10T10:11:03.772Z</time>
      </trkpt>
      <trkpt lat="46.94743" lon="8.58037">
        <ele>773</ele>
        <time>2021-08-10T10:11:04.773Z</time>
      </trkpt>
      <trkpt lat="46.94742" lon="8.58036">
        <ele>774</ele>
        <time>2021-08-10T10:11:05.773Z</time>
      </trkpt>
      <trkpt lat="46.9474" lon="8.58034">
        <ele>774</ele>
        <time>2021-08-10T10:11:06.772Z</time>
      </trkpt>
      <trkpt lat="46.94739" lon="8.58033">
        <ele>775</ele>
        <time>2021-08-10T10:11:07.773Z</time>
      </trkpt>
      <trkpt lat="46.94739" lon="8.58032">
        <ele>775</ele>
        <time>2021-08-10T10:11:08.772Z</time>
      </trkpt>
      <trkpt lat="46.94738" lon="8.58031">
        <ele>775</ele>
        <time>2021-08-10T10:11:09.773Z</time>
      </trkpt>
      <trkpt lat="46.94737" lon="8.58029">
        <ele>775</ele>
        <time>2021-08-10T10:11:10.773Z</time>
      </trkpt>
      <trkpt lat="46.94737" lon="8.58028">
        <ele>774</ele>
        <time>2021-08-10T10:11:11.772Z</time>
      </trkpt>
      <trkpt lat="46.94737" lon="8.58027">
        <ele>774</ele>
        <time>2021-08-10T10:11:12.772Z</time>
      </trkpt>
      <trkpt lat="46.94735" lon="8.58027">
        <ele>774</ele>
        <time>2021-08-10T10:11:13.773Z</time>
      </trkpt>
      <trkpt lat="46.94734" lon="8.58026">
        <ele>773</ele>
        <time>2021-08-10T10:11:14.773Z</time>
      </trkpt>
      <trkpt lat="46.94734" lon="8.58024">
        <ele>773</ele>
        <time>2021-08-10T10:11:15.773Z</time>
      </trkpt>
      <trkpt lat="46.94733" lon="8.58023">
        <ele>773</ele>
        <time>2021-08-10T10:11:16.772Z</time>
      </trkpt>
      <trkpt lat="46.94733" lon="8.58022">
        <ele>773</ele>
        <time>2021-08-10T10:11:17.773Z</time>
      </trkpt>
      <trkpt lat="46.94732" lon="8.5802">
        <ele>772</ele>
        <time>2021-08-10T10:11:18.773Z</time>
      </trkpt>
      <trkpt lat="46.94731" lon="8.58019">
        <ele>772</ele>
        <time>2021-08-10T10:11:19.773Z</time>
      </trkpt>
      <trkpt lat="46.9473" lon="8.58018">
        <ele>772</ele>
        <time>2021-08-10T10:11:20.772Z</time>
      </trkpt>
      <trkpt lat="46.94729" lon="8.58016">
        <ele>771</ele>
        <time>2021-08-10T10:11:21.773Z</time>
      </trkpt>
      <trkpt lat="46.94728" lon="8.58015">
        <ele>771</ele>
        <time>2021-08-10T10:11:22.772Z</time>
      </trkpt>
      <trkpt lat="46.94728" lon="8.58014">
        <ele>771</ele>
        <time>2021-08-10T10:11:23.773Z</time>
      </trkpt>
      <trkpt lat="46.94728" lon="8.58012">
        <ele>771</ele>
        <time>2021-08-10T10:11:24.773Z</time>
      </trkpt>
      <trkpt lat="46.94727" lon="8.58011">
        <ele>770</ele>
        <time>2021-08-10T10:11:25.773Z</time>
      </trkpt>
      <trkpt lat="46.94727" lon="8.5801">
        <ele>770</ele>
        <time>2021-08-10T10:11:26.773Z</time>
      </trkpt>
      <trkpt lat="46.94726" lon="8.58008">
        <ele>770</ele>
        <time>2021-08-10T10:11:27.773Z</time>
      </trkpt>
      <trkpt lat="46.94726" lon="8.58007">
        <ele>770</ele>
        <time>2021-08-10T10:11:28.773Z</time>
      </trkpt>
      <trkpt lat="46.94725" lon="8.58006">
        <ele>769</ele>
        <time>2021-08-10T10:11:29.773Z</time>
      </trkpt>
      <trkpt lat="46.94724" lon="8.58005">
        <ele>769</ele>
        <time>2021-08-10T10:11:30.772Z</time>
      </trkpt>
      <trkpt lat="46.94724" lon="8.58003">
        <ele>769</ele>
        <time>2021-08-10T10:11:31.773Z</time>
      </trkpt>
      <trkpt lat="46.94723" lon="8.58002">
        <ele>768</ele>
        <time>2021-08-10T10:11:32.773Z</time>
      </trkpt>
      <trkpt lat="46.94722" lon="8.58001">
        <ele>767</ele>
        <time>2021-08-10T10:11:33.773Z</time>
      </trkpt>
      <trkpt lat="46.94722" lon="8.57999">
        <ele>766</ele>
        <time>2021-08-10T10:11:34.773Z</time>
      </trkpt>
      <trkpt lat="46.94721" lon="8.57998">
        <ele>766</ele>
        <time>2021-08-10T10:11:35.773Z</time>
      </trkpt>
      <trkpt lat="46.94721" lon="8.57996">
        <ele>765</ele>
        <time>2021-08-10T10:11:36.773Z</time>
      </trkpt>
      <trkpt lat="46.9472" lon="8.57995">
        <ele>764</ele>
        <time>2021-08-10T10:11:37.772Z</time>
      </trkpt>
      <trkpt lat="46.9472" lon="8.57994">
        <ele>763</ele>
        <time>2021-08-10T10:11:38.773Z</time>
      </trkpt>
      <trkpt lat="46.94719" lon="8.57993">
        <ele>762</ele>
        <time>2021-08-10T10:11:39.773Z</time>
      </trkpt>
      <trkpt lat="46.94718" lon="8.57992">
        <ele>762</ele>
        <time>2021-08-10T10:11:40.773Z</time>
      </trkpt>
      <trkpt lat="46.94718" lon="8.57991">
        <ele>762</ele>
        <time>2021-08-10T10:11:41.773Z</time>
      </trkpt>
      <trkpt lat="46.94717" lon="8.5799">
        <ele>762</ele>
        <time>2021-08-10T10:11:42.773Z</time>
      </trkpt>
      <trkpt lat="46.94716" lon="8.57989">
        <ele>761</ele>
        <time>2021-08-10T10:11:43.772Z</time>
      </trkpt>
      <trkpt lat="46.94716" lon="8.57988">
        <ele>761</ele>
        <time>2021-08-10T10:11:44.772Z</time>
      </trkpt>
      <trkpt lat="46.94715" lon="8.57987">
        <ele>761</ele>
        <time>2021-08-10T10:11:45.773Z</time>
      </trkpt>
      <trkpt lat="46.94714" lon="8.57986">
        <ele>761</ele>
        <time>2021-08-10T10:11:46.773Z</time>
      </trkpt>
      <trkpt lat="46.94713" lon="8.57985">
        <ele>761</ele>
        <time>2021-08-10T10:11:47.773Z</time>
      </trkpt>
      <trkpt lat="46.94712" lon="8.57984">
        <ele>761</ele>
        <time>2021-08-10T10:11:48.773Z</time>
      </trkpt>
      <trkpt lat="46.94711" lon="8.57983">
        <ele>761</ele>
        <time>2021-08-10T10:11:49.773Z</time>
      </trkpt>
      <trkpt lat="46.9471" lon="8.57983">
        <ele>761</ele>
        <time>2021-08-10T10:11:50.772Z</time>
      </trkpt>
      <trkpt lat="46.9471" lon="8.57981">
        <ele>761</ele>
        <time>2021-08-10T10:11:51.772Z</time>
      </trkpt>
      <trkpt lat="46.9471" lon="8.57979">
        <ele>761</ele>
        <time>2021-08-10T10:11:52.773Z</time>
      </trkpt>
      <trkpt lat="46.94709" lon="8.57978">
        <ele>761</ele>
        <time>2021-08-10T10:11:53.773Z</time>
      </trkpt>
      <trkpt lat="46.94708" lon="8.57976">
        <ele>761</ele>
        <time>2021-08-10T10:11:54.772Z</time>
      </trkpt>
      <trkpt lat="46.94707" lon="8.57975">
        <ele>761</ele>
        <time>2021-08-10T10:11:55.773Z</time>
      </trkpt>
      <trkpt lat="46.94706" lon="8.57974">
        <ele>762</ele>
        <time>2021-08-10T10:11:56.773Z</time>
      </trkpt>
      <trkpt lat="46.94705" lon="8.57973">
        <ele>763</ele>
        <time>2021-08-10T10:11:57.772Z</time>
      </trkpt>
      <trkpt lat="46.94704" lon="8.57972">
        <ele>763</ele>
        <time>2021-08-10T10:11:58.773Z</time>
      </trkpt>
      <trkpt lat="46.94702" lon="8.5797">
        <ele>764</ele>
        <time>2021-08-10T10:11:59.773Z</time>
      </trkpt>
      <trkpt lat="46.94701" lon="8.57969">
        <ele>765</ele>
        <time>2021-08-10T10:12:00.773Z</time>
      </trkpt>
      <trkpt lat="46.947" lon="8.57968">
        <ele>765</ele>
        <time>2021-08-10T10:12:01.773Z</time>
      </trkpt>
      <trkpt lat="46.94699" lon="8.57967">
        <ele>765</ele>
        <time>2021-08-10T10:12:02.773Z</time>
      </trkpt>
      <trkpt lat="46.94698" lon="8.57965">
        <ele>765</ele>
        <time>2021-08-10T10:12:03.772Z</time>
      </trkpt>
      <trkpt lat="46.94697" lon="8.57964">
        <ele>764</ele>
        <time>2021-08-10T10:12:04.773Z</time>
      </trkpt>
      <trkpt lat="46.94696" lon="8.57963">
        <ele>764</ele>
        <time>2021-08-10T10:12:05.773Z</time>
      </trkpt>
      <trkpt lat="46.94694" lon="8.57963">
        <ele>764</ele>
        <time>2021-08-10T10:12:06.773Z</time>
      </trkpt>
      <trkpt lat="46.94693" lon="8.57962">
        <ele>764</ele>
        <time>2021-08-10T10:12:07.772Z</time>
      </trkpt>
      <trkpt lat="46.94692" lon="8.57962">
        <ele>764</ele>
        <time>2021-08-10T10:12:08.773Z</time>
      </trkpt>
      <trkpt lat="46.9469" lon="8.57961">
        <ele>764</ele>
        <time>2021-08-10T10:12:09.772Z</time>
      </trkpt>
      <trkpt lat="46.94689" lon="8.57961">
        <ele>764</ele>
        <time>2021-08-10T10:12:10.773Z</time>
      </trkpt>
      <trkpt lat="46.94688" lon="8.5796">
        <ele>763</ele>
        <time>2021-08-10T10:12:11.773Z</time>
      </trkpt>
      <trkpt lat="46.94687" lon="8.5796">
        <ele>763</ele>
        <time>2021-08-10T10:12:12.773Z</time>
      </trkpt>
      <trkpt lat="46.94686" lon="8.57959">
        <ele>763</ele>
        <time>2021-08-10T10:12:13.773Z</time>
      </trkpt>
      <trkpt lat="46.94685" lon="8.57959">
        <ele>764</ele>
        <time>2021-08-10T10:12:14.773Z</time>
      </trkpt>
      <trkpt lat="46.94684" lon="8.57958">
        <ele>764</ele>
        <time>2021-08-10T10:12:15.773Z</time>
      </trkpt>
      <trkpt lat="46.94682" lon="8.57957">
        <ele>764</ele>
        <time>2021-08-10T10:12:16.773Z</time>
      </trkpt>
      <trkpt lat="46.94681" lon="8.57957">
        <ele>764</ele>
        <time>2021-08-10T10:12:17.773Z</time>
      </trkpt>
      <trkpt lat="46.9468" lon="8.57956">
        <ele>764</ele>
        <time>2021-08-10T10:12:18.773Z</time>
      </trkpt>
      <trkpt lat="46.94678" lon="8.57956">
        <ele>764</ele>
        <time>2021-08-10T10:12:19.772Z</time>
      </trkpt>
      <trkpt lat="46.94677" lon="8.57956">
        <ele>764</ele>
        <time>2021-08-10T10:12:20.773Z</time>
      </trkpt>
      <trkpt lat="46.94676" lon="8.57955">
        <ele>764</ele>
        <time>2021-08-10T10:12:21.773Z</time>
      </trkpt>
      <trkpt lat="46.94674" lon="8.57955">
        <ele>764</ele>
        <time>2021-08-10T10:12:22.773Z</time>
      </trkpt>
      <trkpt lat="46.94673" lon="8.57955">
        <ele>764</ele>
        <time>2021-08-10T10:12:23.773Z</time>
      </trkpt>
      <trkpt lat="46.94672" lon="8.57955">
        <ele>763</ele>
        <time>2021-08-10T10:12:24.773Z</time>
      </trkpt>
      <trkpt lat="46.94671" lon="8.57955">
        <ele>763</ele>
        <time>2021-08-10T10:12:25.772Z</time>
      </trkpt>
      <trkpt lat="46.9467" lon="8.57955">
        <ele>763</ele>
        <time>2021-08-10T10:12:26.773Z</time>
      </trkpt>
      <trkpt lat="46.94669" lon="8.57956">
        <ele>762</ele>
        <time>2021-08-10T10:12:27.772Z</time>
      </trkpt>
      <trkpt lat="46.94668" lon="8.57957">
        <ele>763</ele>
        <time>2021-08-10T10:12:28.773Z</time>
      </trkpt>
      <trkpt lat="46.94667" lon="8.57957">
        <ele>763</ele>
        <time>2021-08-10T10:12:29.772Z</time>
      </trkpt>
      <trkpt lat="46.94665" lon="8.57957">
        <ele>763</ele>
        <time>2021-08-10T10:12:30.772Z</time>
      </trkpt>
      <trkpt lat="46.94664" lon="8.57957">
        <ele>763</ele>
        <time>2021-08-10T10:12:31.772Z</time>
      </trkpt>
      <trkpt lat="46.94663" lon="8.57957">
        <ele>763</ele>
        <time>2021-08-10T10:12:32.772Z</time>
      </trkpt>
      <trkpt lat="46.94661" lon="8.57958">
        <ele>763</ele>
        <time>2021-08-10T10:12:33.773Z</time>
      </trkpt>
      <trkpt lat="46.94659" lon="8.57959">
        <ele>763</ele>
        <time>2021-08-10T10:12:34.773Z</time>
      </trkpt>
      <trkpt lat="46.94657" lon="8.57959">
        <ele>763</ele>
        <time>2021-08-10T10:12:35.772Z</time>
      </trkpt>
      <trkpt lat="46.94656" lon="8.57959">
        <ele>763</ele>
        <time>2021-08-10T10:12:36.773Z</time>
      </trkpt>
      <trkpt lat="46.94654" lon="8.5796">
        <ele>763</ele>
        <time>2021-08-10T10:12:37.773Z</time>
      </trkpt>
      <trkpt lat="46.94653" lon="8.57961">
        <ele>763</ele>
        <time>2021-08-10T10:12:38.773Z</time>
      </trkpt>
      <trkpt lat="46.94652" lon="8.57962">
        <ele>763</ele>
        <time>2021-08-10T10:12:39.773Z</time>
      </trkpt>
      <trkpt lat="46.9465" lon="8.57962">
        <ele>763</ele>
        <time>2021-08-10T10:12:40.773Z</time>
      </trkpt>
      <trkpt lat="46.94649" lon="8.57963">
        <ele>763</ele>
        <time>2021-08-10T10:12:41.773Z</time>
      </trkpt>
      <trkpt lat="46.94648" lon="8.57964">
        <ele>762</ele>
        <time>2021-08-10T10:12:42.772Z</time>
      </trkpt>
      <trkpt lat="46.94647" lon="8.57965">
        <ele>762</ele>
        <time>2021-08-10T10:12:43.773Z</time>
      </trkpt>
      <trkpt lat="46.94645" lon="8.57966">
        <ele>761</ele>
        <time>2021-08-10T10:12:44.772Z</time>
      </trkpt>
      <trkpt lat="46.94644" lon="8.57968">
        <ele>761</ele>
        <time>2021-08-10T10:12:45.773Z</time>
      </trkpt>
      <trkpt lat="46.94643" lon="8.57969">
        <ele>760</ele>
        <time>2021-08-10T10:12:46.773Z</time>
      </trkpt>
      <trkpt lat="46.94642" lon="8.5797">
        <ele>760</ele>
        <time>2021-08-10T10:12:47.772Z</time>
      </trkpt>
      <trkpt lat="46.94641" lon="8.57971">
        <ele>759</ele>
        <time>2021-08-10T10:12:48.773Z</time>
      </trkpt>
      <trkpt lat="46.94641" lon="8.57973">
        <ele>758</ele>
        <time>2021-08-10T10:12:49.773Z</time>
      </trkpt>
      <trkpt lat="46.9464" lon="8.57974">
        <ele>758</ele>
        <time>2021-08-10T10:12:50.773Z</time>
      </trkpt>
      <trkpt lat="46.94639" lon="8.57976">
        <ele>758</ele>
        <time>2021-08-10T10:12:51.772Z</time>
      </trkpt>
      <trkpt lat="46.94638" lon="8.57978">
        <ele>758</ele>
        <time>2021-08-10T10:12:52.773Z</time>
      </trkpt>
      <trkpt lat="46.94637" lon="8.57979">
        <ele>758</ele>
        <time>2021-08-10T10:12:53.772Z</time>
      </trkpt>
      <trkpt lat="46.94637" lon="8.5798">
        <ele>757</ele>
        <time>2021-08-10T10:12:54.773Z</time>
      </trkpt>
      <trkpt lat="46.94636" lon="8.57982">
        <ele>757</ele>
        <time>2021-08-10T10:12:55.772Z</time>
      </trkpt>
      <trkpt lat="46.94636" lon="8.57983">
        <ele>757</ele>
        <time>2021-08-10T10:12:56.773Z</time>
      </trkpt>
      <trkpt lat="46.94635" lon="8.57984">
        <ele>756</ele>
        <time>2021-08-10T10:12:57.773Z</time>
      </trkpt>
      <trkpt lat="46.94634" lon="8.57986">
        <ele>756</ele>
        <time>2021-08-10T10:12:58.773Z</time>
      </trkpt>
      <trkpt lat="46.94633" lon="8.57987">
        <ele>756</ele>
        <time>2021-08-10T10:12:59.772Z</time>
      </trkpt>
      <trkpt lat="46.94632" lon="8.57988">
        <ele>756</ele>
        <time>2021-08-10T10:13:00.773Z</time>
      </trkpt>
      <trkpt lat="46.94631" lon="8.5799">
        <ele>756</ele>
        <time>2021-08-10T10:13:01.773Z</time>
      </trkpt>
      <trkpt lat="46.9463" lon="8.57991">
        <ele>756</ele>
        <time>2021-08-10T10:13:02.773Z</time>
      </trkpt>
      <trkpt lat="46.94629" lon="8.57993">
        <ele>756</ele>
        <time>2021-08-10T10:13:03.772Z</time>
      </trkpt>
      <trkpt lat="46.94628" lon="8.57994">
        <ele>756</ele>
        <time>2021-08-10T10:13:04.772Z</time>
      </trkpt>
      <trkpt lat="46.94627" lon="8.57996">
        <ele>756</ele>
        <time>2021-08-10T10:13:05.772Z</time>
      </trkpt>
      <trkpt lat="46.94626" lon="8.57997">
        <ele>756</ele>
        <time>2021-08-10T10:13:06.772Z</time>
      </trkpt>
      <trkpt lat="46.94626" lon="8.57998">
        <ele>756</ele>
        <time>2021-08-10T10:13:07.772Z</time>
      </trkpt>
      <trkpt lat="46.94625" lon="8.58">
        <ele>756</ele>
        <time>2021-08-10T10:13:08.773Z</time>
      </trkpt>
      <trkpt lat="46.94625" lon="8.58002">
        <ele>755</ele>
        <time>2021-08-10T10:13:09.773Z</time>
      </trkpt>
      <trkpt lat="46.94624" lon="8.58003">
        <ele>755</ele>
        <time>2021-08-10T10:13:10.773Z</time>
      </trkpt>
      <trkpt lat="46.94623" lon="8.58005">
        <ele>755</ele>
        <time>2021-08-10T10:13:11.773Z</time>
      </trkpt>
      <trkpt lat="46.94623" lon="8.58007">
        <ele>755</ele>
        <time>2021-08-10T10:13:12.772Z</time>
      </trkpt>
      <trkpt lat="46.94623" lon="8.58008">
        <ele>755</ele>
        <time>2021-08-10T10:13:13.772Z</time>
      </trkpt>
      <trkpt lat="46.94622" lon="8.5801">
        <ele>755</ele>
        <time>2021-08-10T10:13:14.772Z</time>
      </trkpt>
      <trkpt lat="46.94622" lon="8.58011">
        <ele>755</ele>
        <time>2021-08-10T10:13:15.773Z</time>
      </trkpt>
      <trkpt lat="46.94621" lon="8.58013">
        <ele>754</ele>
        <time>2021-08-10T10:13:16.772Z</time>
      </trkpt>
      <trkpt lat="46.94621" lon="8.58015">
        <ele>754</ele>
        <time>2021-08-10T10:13:17.772Z</time>
      </trkpt>
      <trkpt lat="46.9462" lon="8.58017">
        <ele>754</ele>
        <time>2021-08-10T10:13:18.772Z</time>
      </trkpt>
      <trkpt lat="46.94619" lon="8.58018">
        <ele>753</ele>
        <time>2021-08-10T10:13:19.772Z</time>
      </trkpt>
      <trkpt lat="46.94619" lon="8.5802">
        <ele>753</ele>
        <time>2021-08-10T10:13:20.773Z</time>
      </trkpt>
      <trkpt lat="46.94618" lon="8.58021">
        <ele>753</ele>
        <time>2021-08-10T10:13:21.772Z</time>
      </trkpt>
      <trkpt lat="46.94617" lon="8.58023">
        <ele>753</ele>
        <time>2021-08-10T10:13:22.773Z</time>
      </trkpt>
      <trkpt lat="46.94616" lon="8.58024">
        <ele>753</ele>
        <time>2021-08-10T10:13:23.773Z</time>
      </trkpt>
      <trkpt lat="46.94616" lon="8.58025">
        <ele>753</ele>
        <time>2021-08-10T10:13:24.772Z</time>
      </trkpt>
      <trkpt lat="46.94615" lon="8.58027">
        <ele>754</ele>
        <time>2021-08-10T10:13:25.772Z</time>
      </trkpt>
      <trkpt lat="46.94614" lon="8.58028">
        <ele>754</ele>
        <time>2021-08-10T10:13:26.773Z</time>
      </trkpt>
      <trkpt lat="46.94614" lon="8.5803">
        <ele>755</ele>
        <time>2021-08-10T10:13:27.772Z</time>
      </trkpt>
      <trkpt lat="46.94613" lon="8.58031">
        <ele>755</ele>
        <time>2021-08-10T10:13:28.772Z</time>
      </trkpt>
      <trkpt lat="46.94612" lon="8.58032">
        <ele>756</ele>
        <time>2021-08-10T10:13:29.773Z</time>
      </trkpt>
      <trkpt lat="46.94612" lon="8.58034">
        <ele>756</ele>
        <time>2021-08-10T10:13:30.772Z</time>
      </trkpt>
      <trkpt lat="46.94611" lon="8.58035">
        <ele>756</ele>
        <time>2021-08-10T10:13:31.773Z</time>
      </trkpt>
      <trkpt lat="46.9461" lon="8.58036">
        <ele>757</ele>
        <time>2021-08-10T10:13:32.772Z</time>
      </trkpt>
      <trkpt lat="46.94609" lon="8.58037">
        <ele>757</ele>
        <time>2021-08-10T10:13:33.772Z</time>
      </trkpt>
      <trkpt lat="46.94608" lon="8.58038">
        <ele>757</ele>
        <time>2021-08-10T10:13:34.772Z</time>
      </trkpt>
      <trkpt lat="46.94607" lon="8.58039">
        <ele>758</ele>
        <time>2021-08-10T10:13:35.772Z</time>
      </trkpt>
      <trkpt lat="46.94606" lon="8.58041">
        <ele>758</ele>
        <time>2021-08-10T10:13:36.772Z</time>
      </trkpt>
      <trkpt lat="46.94605" lon="8.58042">
        <ele>757</ele>
        <time>2021-08-10T10:13:37.772Z</time>
      </trkpt>
      <trkpt lat="46.94605" lon="8.58043">
        <ele>757</ele>
        <time>2021-08-10T10:13:38.773Z</time>
      </trkpt>
      <trkpt lat="46.94604" lon="8.58044">
        <ele>757</ele>
        <time>2021-08-10T10:13:39.772Z</time>
      </trkpt>
      <trkpt lat="46.94603" lon="8.58045">
        <ele>757</ele>
        <time>2021-08-10T10:13:40.772Z</time>
      </trkpt>
      <trkpt lat="46.94601" lon="8.58047">
        <ele>756</ele>
        <time>2021-08-10T10:13:41.772Z</time>
      </trkpt>
      <trkpt lat="46.946" lon="8.58048">
        <ele>756</ele>
        <time>2021-08-10T10:13:42.772Z</time>
      </trkpt>
      <trkpt lat="46.94599" lon="8.58048">
        <ele>756</ele>
        <time>2021-08-10T10:13:43.772Z</time>
      </trkpt>
      <trkpt lat="46.94598" lon="8.58049">
        <ele>755</ele>
        <time>2021-08-10T10:13:44.773Z</time>
      </trkpt>
      <trkpt lat="46.94597" lon="8.5805">
        <ele>755</ele>
        <time>2021-08-10T10:13:45.773Z</time>
      </trkpt>
      <trkpt lat="46.94596" lon="8.58051">
        <ele>754</ele>
        <time>2021-08-10T10:13:46.772Z</time>
      </trkpt>
      <trkpt lat="46.94595" lon="8.58052">
        <ele>753</ele>
        <time>2021-08-10T10:13:47.773Z</time>
      </trkpt>
      <trkpt lat="46.94595" lon="8.58053">
        <ele>753</ele>
        <time>2021-08-10T10:13:48.773Z</time>
      </trkpt>
      <trkpt lat="46.94594" lon="8.58054">
        <ele>752</ele>
        <time>2021-08-10T10:13:49.773Z</time>
      </trkpt>
      <trkpt lat="46.94593" lon="8.58055">
        <ele>752</ele>
        <time>2021-08-10T10:13:50.772Z</time>
      </trkpt>
      <trkpt lat="46.94592" lon="8.58056">
        <ele>752</ele>
        <time>2021-08-10T10:13:51.772Z</time>
      </trkpt>
      <trkpt lat="46.9459" lon="8.58057">
        <ele>752</ele>
        <time>2021-08-10T10:13:52.773Z</time>
      </trkpt>
      <trkpt lat="46.94589" lon="8.58057">
        <ele>752</ele>
        <time>2021-08-10T10:13:53.772Z</time>
      </trkpt>
      <trkpt lat="46.94588" lon="8.58057">
        <ele>752</ele>
        <time>2021-08-10T10:13:54.772Z</time>
      </trkpt>
      <trkpt lat="46.94587" lon="8.58057">
        <ele>752</ele>
        <time>2021-08-10T10:13:55.772Z</time>
      </trkpt>
      <trkpt lat="46.94586" lon="8.58058">
        <ele>751</ele>
        <time>2021-08-10T10:13:56.773Z</time>
      </trkpt>
      <trkpt lat="46.94584" lon="8.58058">
        <ele>751</ele>
        <time>2021-08-10T10:13:57.773Z</time>
      </trkpt>
      <trkpt lat="46.94583" lon="8.58058">
        <ele>750</ele>
        <time>2021-08-10T10:13:58.772Z</time>
      </trkpt>
      <trkpt lat="46.94582" lon="8.58058">
        <ele>749</ele>
        <time>2021-08-10T10:13:59.772Z</time>
      </trkpt>
      <trkpt lat="46.94581" lon="8.58059">
        <ele>748</ele>
        <time>2021-08-10T10:14:00.772Z</time>
      </trkpt>
      <trkpt lat="46.9458" lon="8.58059">
        <ele>747</ele>
        <time>2021-08-10T10:14:01.773Z</time>
      </trkpt>
      <trkpt lat="46.94579" lon="8.58059">
        <ele>747</ele>
        <time>2021-08-10T10:14:02.773Z</time>
      </trkpt>
      <trkpt lat="46.94578" lon="8.58059">
        <ele>747</ele>
        <time>2021-08-10T10:14:03.773Z</time>
      </trkpt>
      <trkpt lat="46.94577" lon="8.58058">
        <ele>747</ele>
        <time>2021-08-10T10:14:04.772Z</time>
      </trkpt>
      <trkpt lat="46.94576" lon="8.58059">
        <ele>746</ele>
        <time>2021-08-10T10:14:05.772Z</time>
      </trkpt>
      <trkpt lat="46.94575" lon="8.58059">
        <ele>746</ele>
        <time>2021-08-10T10:14:06.772Z</time>
      </trkpt>
      <trkpt lat="46.94573" lon="8.58059">
        <ele>746</ele>
        <time>2021-08-10T10:14:07.772Z</time>
      </trkpt>
      <trkpt lat="46.94572" lon="8.58058">
        <ele>746</ele>
        <time>2021-08-10T10:14:08.773Z</time>
      </trkpt>
      <trkpt lat="46.94571" lon="8.58058">
        <ele>746</ele>
        <time>2021-08-10T10:14:09.772Z</time>
      </trkpt>
      <trkpt lat="46.9457" lon="8.58057">
        <ele>746</ele>
        <time>2021-08-10T10:14:10.773Z</time>
      </trkpt>
      <trkpt lat="46.94569" lon="8.58057">
        <ele>746</ele>
        <time>2021-08-10T10:14:11.773Z</time>
      </trkpt>
      <trkpt lat="46.94568" lon="8.58056">
        <ele>745</ele>
        <time>2021-08-10T10:14:12.773Z</time>
      </trkpt>
      <trkpt lat="46.94567" lon="8.58056">
        <ele>745</ele>
        <time>2021-08-10T10:14:13.773Z</time>
      </trkpt>
      <trkpt lat="46.94566" lon="8.58055">
        <ele>745</ele>
        <time>2021-08-10T10:14:14.772Z</time>
      </trkpt>
      <trkpt lat="46.94565" lon="8.58055">
        <ele>746</ele>
        <time>2021-08-10T10:14:15.773Z</time>
      </trkpt>
      <trkpt lat="46.94563" lon="8.58054">
        <ele>746</ele>
        <time>2021-08-10T10:14:16.772Z</time>
      </trkpt>
      <trkpt lat="46.94562" lon="8.58054">
        <ele>746</ele>
        <time>2021-08-10T10:14:17.773Z</time>
      </trkpt>
      <trkpt lat="46.94561" lon="8.58053">
        <ele>747</ele>
        <time>2021-08-10T10:14:18.772Z</time>
      </trkpt>
      <trkpt lat="46.9456" lon="8.58052">
        <ele>747</ele>
        <time>2021-08-10T10:14:19.772Z</time>
      </trkpt>
      <trkpt lat="46.94559" lon="8.58051">
        <ele>747</ele>
        <time>2021-08-10T10:14:20.773Z</time>
      </trkpt>
      <trkpt lat="46.94557" lon="8.58051">
        <ele>747</ele>
        <time>2021-08-10T10:14:21.773Z</time>
      </trkpt>
      <trkpt lat="46.94556" lon="8.58049">
        <ele>748</ele>
        <time>2021-08-10T10:14:22.773Z</time>
      </trkpt>
      <trkpt lat="46.94555" lon="8.58049">
        <ele>748</ele>
        <time>2021-08-10T10:14:23.773Z</time>
      </trkpt>
      <trkpt lat="46.94554" lon="8.58048">
        <ele>749</ele>
        <time>2021-08-10T10:14:24.773Z</time>
      </trkpt>
      <trkpt lat="46.94553" lon="8.58046">
        <ele>749</ele>
        <time>2021-08-10T10:14:25.773Z</time>
      </trkpt>
      <trkpt lat="46.94552" lon="8.58045">
        <ele>749</ele>
        <time>2021-08-10T10:14:26.772Z</time>
      </trkpt>
      <trkpt lat="46.94551" lon="8.58043">
        <ele>749</ele>
        <time>2021-08-10T10:14:27.772Z</time>
      </trkpt>
      <trkpt lat="46.9455" lon="8.58042">
        <ele>749</ele>
        <time>2021-08-10T10:14:28.773Z</time>
      </trkpt>
      <trkpt lat="46.94549" lon="8.58041">
        <ele>748</ele>
        <time>2021-08-10T10:14:29.773Z</time>
      </trkpt>
      <trkpt lat="46.94549" lon="8.5804">
        <ele>748</ele>
        <time>2021-08-10T10:14:30.773Z</time>
      </trkpt>
      <trkpt lat="46.94548" lon="8.58039">
        <ele>748</ele>
        <time>2021-08-10T10:14:31.773Z</time>
      </trkpt>
      <trkpt lat="46.94547" lon="8.58038">
        <ele>747</ele>
        <time>2021-08-10T10:14:32.772Z</time>
      </trkpt>
      <trkpt lat="46.94547" lon="8.58036">
        <ele>746</ele>
        <time>2021-08-10T10:14:33.772Z</time>
      </trkpt>
      <trkpt lat="46.94546" lon="8.58035">
        <ele>746</ele>
        <time>2021-08-10T10:14:34.773Z</time>
      </trkpt>
      <trkpt lat="46.94545" lon="8.58033">
        <ele>746</ele>
        <time>2021-08-10T10:14:35.773Z</time>
      </trkpt>
      <trkpt lat="46.94545" lon="8.58031">
        <ele>746</ele>
        <time>2021-08-10T10:14:36.773Z</time>
      </trkpt>
      <trkpt lat="46.94544" lon="8.58031">
        <ele>745</ele>
        <time>2021-08-10T10:14:37.772Z</time>
      </trkpt>
      <trkpt lat="46.94543" lon="8.58029">
        <ele>745</ele>
        <time>2021-08-10T10:14:38.773Z</time>
      </trkpt>
      <trkpt lat="46.94542" lon="8.58028">
        <ele>746</ele>
        <time>2021-08-10T10:14:39.773Z</time>
      </trkpt>
      <trkpt lat="46.9454" lon="8.58027">
        <ele>746</ele>
        <time>2021-08-10T10:14:40.773Z</time>
      </trkpt>
      <trkpt lat="46.94539" lon="8.58026">
        <ele>746</ele>
        <time>2021-08-10T10:14:41.772Z</time>
      </trkpt>
      <trkpt lat="46.94538" lon="8.58024">
        <ele>746</ele>
        <time>2021-08-10T10:14:42.772Z</time>
      </trkpt>
      <trkpt lat="46.94538" lon="8.58023">
        <ele>747</ele>
        <time>2021-08-10T10:14:43.773Z</time>
      </trkpt>
      <trkpt lat="46.94537" lon="8.58021">
        <ele>747</ele>
        <time>2021-08-10T10:14:44.772Z</time>
      </trkpt>
      <trkpt lat="46.94537" lon="8.5802">
        <ele>747</ele>
        <time>2021-08-10T10:14:45.773Z</time>
      </trkpt>
      <trkpt lat="46.94537" lon="8.58018">
        <ele>747</ele>
        <time>2021-08-10T10:14:46.773Z</time>
      </trkpt>
      <trkpt lat="46.94537" lon="8.58017">
        <ele>747</ele>
        <time>2021-08-10T10:14:47.773Z</time>
      </trkpt>
      <trkpt lat="46.94537" lon="8.58015">
        <ele>747</ele>
        <time>2021-08-10T10:14:48.773Z</time>
      </trkpt>
      <trkpt lat="46.94537" lon="8.58013">
        <ele>747</ele>
        <time>2021-08-10T10:14:49.772Z</time>
      </trkpt>
      <trkpt lat="46.94537" lon="8.58012">
        <ele>747</ele>
        <time>2021-08-10T10:14:50.772Z</time>
      </trkpt>
      <trkpt lat="46.94536" lon="8.5801">
        <ele>747</ele>
        <time>2021-08-10T10:14:51.773Z</time>
      </trkpt>
      <trkpt lat="46.94536" lon="8.58009">
        <ele>747</ele>
        <time>2021-08-10T10:14:52.773Z</time>
      </trkpt>
      <trkpt lat="46.94536" lon="8.58009">
        <ele>747</ele>
        <time>2021-08-10T10:14:53.772Z</time>
      </trkpt>
      <trkpt lat="46.94535" lon="8.58008">
        <ele>747</ele>
        <time>2021-08-10T10:14:54.773Z</time>
      </trkpt>
      <trkpt lat="46.94534" lon="8.58007">
        <ele>747</ele>
        <time>2021-08-10T10:14:55.772Z</time>
      </trkpt>
      <trkpt lat="46.94534" lon="8.58006">
        <ele>746</ele>
        <time>2021-08-10T10:14:56.772Z</time>
      </trkpt>
      <trkpt lat="46.94534" lon="8.58004">
        <ele>746</ele>
        <time>2021-08-10T10:14:57.772Z</time>
      </trkpt>
      <trkpt lat="46.94533" lon="8.58002">
        <ele>746</ele>
        <time>2021-08-10T10:14:58.772Z</time>
      </trkpt>
      <trkpt lat="46.94533" lon="8.58001">
        <ele>745</ele>
        <time>2021-08-10T10:14:59.772Z</time>
      </trkpt>
      <trkpt lat="46.94532" lon="8.57998">
        <ele>745</ele>
        <time>2021-08-10T10:15:00.773Z</time>
      </trkpt>
      <trkpt lat="46.94532" lon="8.57997">
        <ele>745</ele>
        <time>2021-08-10T10:15:01.773Z</time>
      </trkpt>
      <trkpt lat="46.94531" lon="8.57994">
        <ele>745</ele>
        <time>2021-08-10T10:15:02.773Z</time>
      </trkpt>
      <trkpt lat="46.9453" lon="8.57993">
        <ele>745</ele>
        <time>2021-08-10T10:15:03.773Z</time>
      </trkpt>
      <trkpt lat="46.94529" lon="8.57992">
        <ele>745</ele>
        <time>2021-08-10T10:15:04.773Z</time>
      </trkpt>
      <trkpt lat="46.94529" lon="8.57992">
        <ele>746</ele>
        <time>2021-08-10T10:15:05.772Z</time>
      </trkpt>
      <trkpt lat="46.94528" lon="8.57991">
        <ele>746</ele>
        <time>2021-08-10T10:15:06.773Z</time>
      </trkpt>
      <trkpt lat="46.94528" lon="8.5799">
        <ele>746</ele>
        <time>2021-08-10T10:15:07.773Z</time>
      </trkpt>
      <trkpt lat="46.94528" lon="8.57989">
        <ele>745</ele>
        <time>2021-08-10T10:15:08.773Z</time>
      </trkpt>
      <trkpt lat="46.94528" lon="8.57988">
        <ele>745</ele>
        <time>2021-08-10T10:15:09.773Z</time>
      </trkpt>
      <trkpt lat="46.94527" lon="8.57986">
        <ele>744</ele>
        <time>2021-08-10T10:15:10.773Z</time>
      </trkpt>
      <trkpt lat="46.94527" lon="8.57984">
        <ele>744</ele>
        <time>2021-08-10T10:15:11.772Z</time>
      </trkpt>
      <trkpt lat="46.94527" lon="8.57982">
        <ele>744</ele>
        <time>2021-08-10T10:15:12.773Z</time>
      </trkpt>
      <trkpt lat="46.94526" lon="8.57981">
        <ele>744</ele>
        <time>2021-08-10T10:15:13.773Z</time>
      </trkpt>
      <trkpt lat="46.94525" lon="8.57979">
        <ele>743</ele>
        <time>2021-08-10T10:15:14.772Z</time>
      </trkpt>
      <trkpt lat="46.94525" lon="8.57978">
        <ele>743</ele>
        <time>2021-08-10T10:15:15.772Z</time>
      </trkpt>
      <trkpt lat="46.94524" lon="8.57976">
        <ele>743</ele>
        <time>2021-08-10T10:15:16.772Z</time>
      </trkpt>
      <trkpt lat="46.94523" lon="8.57975">
        <ele>743</ele>
        <time>2021-08-10T10:15:17.773Z</time>
      </trkpt>
      <trkpt lat="46.94522" lon="8.57973">
        <ele>743</ele>
        <time>2021-08-10T10:15:18.773Z</time>
      </trkpt>
      <trkpt lat="46.94522" lon="8.57972">
        <ele>743</ele>
        <time>2021-08-10T10:15:19.773Z</time>
      </trkpt>
      <trkpt lat="46.94521" lon="8.5797">
        <ele>743</ele>
        <time>2021-08-10T10:15:20.773Z</time>
      </trkpt>
      <trkpt lat="46.9452" lon="8.57969">
        <ele>744</ele>
        <time>2021-08-10T10:15:21.772Z</time>
      </trkpt>
      <trkpt lat="46.94519" lon="8.57968">
        <ele>744</ele>
        <time>2021-08-10T10:15:22.773Z</time>
      </trkpt>
      <trkpt lat="46.94518" lon="8.57966">
        <ele>743</ele>
        <time>2021-08-10T10:15:23.772Z</time>
      </trkpt>
      <trkpt lat="46.94518" lon="8.57964">
        <ele>743</ele>
        <time>2021-08-10T10:15:24.773Z</time>
      </trkpt>
      <trkpt lat="46.94517" lon="8.57962">
        <ele>743</ele>
        <time>2021-08-10T10:15:25.772Z</time>
      </trkpt>
      <trkpt lat="46.94517" lon="8.5796">
        <ele>743</ele>
        <time>2021-08-10T10:15:26.772Z</time>
      </trkpt>
      <trkpt lat="46.94517" lon="8.57958">
        <ele>743</ele>
        <time>2021-08-10T10:15:27.773Z</time>
      </trkpt>
      <trkpt lat="46.94516" lon="8.57957">
        <ele>743</ele>
        <time>2021-08-10T10:15:28.773Z</time>
      </trkpt>
      <trkpt lat="46.94515" lon="8.57955">
        <ele>742</ele>
        <time>2021-08-10T10:15:29.772Z</time>
      </trkpt>
      <trkpt lat="46.94514" lon="8.57954">
        <ele>742</ele>
        <time>2021-08-10T10:15:30.773Z</time>
      </trkpt>
      <trkpt lat="46.94512" lon="8.57952">
        <ele>742</ele>
        <time>2021-08-10T10:15:31.773Z</time>
      </trkpt>
      <trkpt lat="46.94511" lon="8.5795">
        <ele>742</ele>
        <time>2021-08-10T10:15:32.773Z</time>
      </trkpt>
      <trkpt lat="46.9451" lon="8.57949">
        <ele>742</ele>
        <time>2021-08-10T10:15:33.772Z</time>
      </trkpt>
      <trkpt lat="46.94509" lon="8.57948">
        <ele>742</ele>
        <time>2021-08-10T10:15:34.773Z</time>
      </trkpt>
      <trkpt lat="46.94508" lon="8.57947">
        <ele>742</ele>
        <time>2021-08-10T10:15:35.773Z</time>
      </trkpt>
      <trkpt lat="46.94507" lon="8.57946">
        <ele>742</ele>
        <time>2021-08-10T10:15:36.773Z</time>
      </trkpt>
      <trkpt lat="46.94506" lon="8.57945">
        <ele>742</ele>
        <time>2021-08-10T10:15:37.773Z</time>
      </trkpt>
      <trkpt lat="46.94505" lon="8.57943">
        <ele>742</ele>
        <time>2021-08-10T10:15:38.772Z</time>
      </trkpt>
      <trkpt lat="46.94504" lon="8.57942">
        <ele>742</ele>
        <time>2021-08-10T10:15:39.773Z</time>
      </trkpt>
      <trkpt lat="46.94502" lon="8.57941">
        <ele>742</ele>
        <time>2021-08-10T10:15:40.773Z</time>
      </trkpt>
      <trkpt lat="46.94501" lon="8.5794">
        <ele>742</ele>
        <time>2021-08-10T10:15:41.773Z</time>
      </trkpt>
      <trkpt lat="46.945" lon="8.57939">
        <ele>743</ele>
        <time>2021-08-10T10:15:42.773Z</time>
      </trkpt>
      <trkpt lat="46.94499" lon="8.57938">
        <ele>742</ele>
        <time>2021-08-10T10:15:43.772Z</time>
      </trkpt>
      <trkpt lat="46.94498" lon="8.57937">
        <ele>742</ele>
        <time>2021-08-10T10:15:44.773Z</time>
      </trkpt>
      <trkpt lat="46.94497" lon="8.57937">
        <ele>742</ele>
        <time>2021-08-10T10:15:45.773Z</time>
      </trkpt>
      <trkpt lat="46.94496" lon="8.57936">
        <ele>741</ele>
        <time>2021-08-10T10:15:46.773Z</time>
      </trkpt>
      <trkpt lat="46.94495" lon="8.57935">
        <ele>741</ele>
        <time>2021-08-10T10:15:47.773Z</time>
      </trkpt>
      <trkpt lat="46.94494" lon="8.57934">
        <ele>741</ele>
        <time>2021-08-10T10:15:48.773Z</time>
      </trkpt>
      <trkpt lat="46.94493" lon="8.57934">
        <ele>741</ele>
        <time>2021-08-10T10:15:49.773Z</time>
      </trkpt>
      <trkpt lat="46.94491" lon="8.57933">
        <ele>741</ele>
        <time>2021-08-10T10:15:50.772Z</time>
      </trkpt>
      <trkpt lat="46.9449" lon="8.57933">
        <ele>741</ele>
        <time>2021-08-10T10:15:51.773Z</time>
      </trkpt>
      <trkpt lat="46.94489" lon="8.57932">
        <ele>741</ele>
        <time>2021-08-10T10:15:52.773Z</time>
      </trkpt>
      <trkpt lat="46.94487" lon="8.57932">
        <ele>741</ele>
        <time>2021-08-10T10:15:53.772Z</time>
      </trkpt>
      <trkpt lat="46.94486" lon="8.57931">
        <ele>740</ele>
        <time>2021-08-10T10:15:54.773Z</time>
      </trkpt>
      <trkpt lat="46.94485" lon="8.5793">
        <ele>739</ele>
        <time>2021-08-10T10:15:55.773Z</time>
      </trkpt>
      <trkpt lat="46.94484" lon="8.5793">
        <ele>739</ele>
        <time>2021-08-10T10:15:56.773Z</time>
      </trkpt>
      <trkpt lat="46.94483" lon="8.5793">
        <ele>739</ele>
        <time>2021-08-10T10:15:57.773Z</time>
      </trkpt>
      <trkpt lat="46.94482" lon="8.5793">
        <ele>738</ele>
        <time>2021-08-10T10:15:58.772Z</time>
      </trkpt>
      <trkpt lat="46.94481" lon="8.5793">
        <ele>738</ele>
        <time>2021-08-10T10:15:59.773Z</time>
      </trkpt>
      <trkpt lat="46.9448" lon="8.57929">
        <ele>738</ele>
        <time>2021-08-10T10:16:00.773Z</time>
      </trkpt>
      <trkpt lat="46.94479" lon="8.57929">
        <ele>738</ele>
        <time>2021-08-10T10:16:01.773Z</time>
      </trkpt>
      <trkpt lat="46.94478" lon="8.57929">
        <ele>737</ele>
        <time>2021-08-10T10:16:02.773Z</time>
      </trkpt>
      <trkpt lat="46.94477" lon="8.57929">
        <ele>737</ele>
        <time>2021-08-10T10:16:03.773Z</time>
      </trkpt>
      <trkpt lat="46.94476" lon="8.57929">
        <ele>737</ele>
        <time>2021-08-10T10:16:04.773Z</time>
      </trkpt>
      <trkpt lat="46.94475" lon="8.57929">
        <ele>737</ele>
        <time>2021-08-10T10:16:05.772Z</time>
      </trkpt>
      <trkpt lat="46.94474" lon="8.57928">
        <ele>737</ele>
        <time>2021-08-10T10:16:06.772Z</time>
      </trkpt>
      <trkpt lat="46.94472" lon="8.57928">
        <ele>736</ele>
        <time>2021-08-10T10:16:07.772Z</time>
      </trkpt>
      <trkpt lat="46.94471" lon="8.57927">
        <ele>736</ele>
        <time>2021-08-10T10:16:08.772Z</time>
      </trkpt>
      <trkpt lat="46.9447" lon="8.57927">
        <ele>736</ele>
        <time>2021-08-10T10:16:09.772Z</time>
      </trkpt>
      <trkpt lat="46.94469" lon="8.57926">
        <ele>736</ele>
        <time>2021-08-10T10:16:10.772Z</time>
      </trkpt>
      <trkpt lat="46.94468" lon="8.57926">
        <ele>736</ele>
        <time>2021-08-10T10:16:11.772Z</time>
      </trkpt>
      <trkpt lat="46.94467" lon="8.57925">
        <ele>735</ele>
        <time>2021-08-10T10:16:12.772Z</time>
      </trkpt>
      <trkpt lat="46.94467" lon="8.57925">
        <ele>735</ele>
        <time>2021-08-10T10:16:13.772Z</time>
      </trkpt>
      <trkpt lat="46.94466" lon="8.57924">
        <ele>735</ele>
        <time>2021-08-10T10:16:14.773Z</time>
      </trkpt>
      <trkpt lat="46.94466" lon="8.57924">
        <ele>734</ele>
        <time>2021-08-10T10:16:15.772Z</time>
      </trkpt>
      <trkpt lat="46.94465" lon="8.57923">
        <ele>734</ele>
        <time>2021-08-10T10:16:16.772Z</time>
      </trkpt>
      <trkpt lat="46.94464" lon="8.57922">
        <ele>734</ele>
        <time>2021-08-10T10:16:17.772Z</time>
      </trkpt>
      <trkpt lat="46.94463" lon="8.57921">
        <ele>734</ele>
        <time>2021-08-10T10:16:18.773Z</time>
      </trkpt>
      <trkpt lat="46.94462" lon="8.57921">
        <ele>734</ele>
        <time>2021-08-10T10:16:19.773Z</time>
      </trkpt>
      <trkpt lat="46.9446" lon="8.57921">
        <ele>734</ele>
        <time>2021-08-10T10:16:20.772Z</time>
      </trkpt>
      <trkpt lat="46.94458" lon="8.5792">
        <ele>734</ele>
        <time>2021-08-10T10:16:21.773Z</time>
      </trkpt>
      <trkpt lat="46.94456" lon="8.57919">
        <ele>735</ele>
        <time>2021-08-10T10:16:22.773Z</time>
      </trkpt>
      <trkpt lat="46.94455" lon="8.57919">
        <ele>736</ele>
        <time>2021-08-10T10:16:23.773Z</time>
      </trkpt>
      <trkpt lat="46.94453" lon="8.57919">
        <ele>736</ele>
        <time>2021-08-10T10:16:24.773Z</time>
      </trkpt>
      <trkpt lat="46.94452" lon="8.57918">
        <ele>736</ele>
        <time>2021-08-10T10:16:25.773Z</time>
      </trkpt>
      <trkpt lat="46.94451" lon="8.57918">
        <ele>736</ele>
        <time>2021-08-10T10:16:26.773Z</time>
      </trkpt>
      <trkpt lat="46.94449" lon="8.57917">
        <ele>736</ele>
        <time>2021-08-10T10:16:27.772Z</time>
      </trkpt>
      <trkpt lat="46.94448" lon="8.57917">
        <ele>737</ele>
        <time>2021-08-10T10:16:28.772Z</time>
      </trkpt>
      <trkpt lat="46.94447" lon="8.57916">
        <ele>737</ele>
        <time>2021-08-10T10:16:29.773Z</time>
      </trkpt>
      <trkpt lat="46.94445" lon="8.57915">
        <ele>737</ele>
        <time>2021-08-10T10:16:30.773Z</time>
      </trkpt>
      <trkpt lat="46.94444" lon="8.57914">
        <ele>737</ele>
        <time>2021-08-10T10:16:31.772Z</time>
      </trkpt>
      <trkpt lat="46.94443" lon="8.57914">
        <ele>738</ele>
        <time>2021-08-10T10:16:32.773Z</time>
      </trkpt>
      <trkpt lat="46.94442" lon="8.57914">
        <ele>738</ele>
        <time>2021-08-10T10:16:33.772Z</time>
      </trkpt>
      <trkpt lat="46.94441" lon="8.57913">
        <ele>739</ele>
        <time>2021-08-10T10:16:34.772Z</time>
      </trkpt>
      <trkpt lat="46.9444" lon="8.57912">
        <ele>739</ele>
        <time>2021-08-10T10:16:35.773Z</time>
      </trkpt>
      <trkpt lat="46.94439" lon="8.57912">
        <ele>739</ele>
        <time>2021-08-10T10:16:36.772Z</time>
      </trkpt>
      <trkpt lat="46.94437" lon="8.57911">
        <ele>738</ele>
        <time>2021-08-10T10:16:37.773Z</time>
      </trkpt>
      <trkpt lat="46.94436" lon="8.5791">
        <ele>738</ele>
        <time>2021-08-10T10:16:38.773Z</time>
      </trkpt>
      <trkpt lat="46.94435" lon="8.5791">
        <ele>738</ele>
        <time>2021-08-10T10:16:39.773Z</time>
      </trkpt>
      <trkpt lat="46.94434" lon="8.57909">
        <ele>738</ele>
        <time>2021-08-10T10:16:40.772Z</time>
      </trkpt>
      <trkpt lat="46.94433" lon="8.57909">
        <ele>737</ele>
        <time>2021-08-10T10:16:41.773Z</time>
      </trkpt>
      <trkpt lat="46.94432" lon="8.57909">
        <ele>737</ele>
        <time>2021-08-10T10:16:42.773Z</time>
      </trkpt>
      <trkpt lat="46.94431" lon="8.57909">
        <ele>737</ele>
        <time>2021-08-10T10:16:43.773Z</time>
      </trkpt>
      <trkpt lat="46.9443" lon="8.57908">
        <ele>736</ele>
        <time>2021-08-10T10:16:44.773Z</time>
      </trkpt>
      <trkpt lat="46.94429" lon="8.57908">
        <ele>736</ele>
        <time>2021-08-10T10:16:45.773Z</time>
      </trkpt>
      <trkpt lat="46.94428" lon="8.57907">
        <ele>736</ele>
        <time>2021-08-10T10:16:46.773Z</time>
      </trkpt>
      <trkpt lat="46.94426" lon="8.57907">
        <ele>736</ele>
        <time>2021-08-10T10:16:47.772Z</time>
      </trkpt>
      <trkpt lat="46.94425" lon="8.57907">
        <ele>735</ele>
        <time>2021-08-10T10:16:48.773Z</time>
      </trkpt>
      <trkpt lat="46.94424" lon="8.57906">
        <ele>735</ele>
        <time>2021-08-10T10:16:49.772Z</time>
      </trkpt>
      <trkpt lat="46.94424" lon="8.57906">
        <ele>735</ele>
        <time>2021-08-10T10:16:50.772Z</time>
      </trkpt>
      <trkpt lat="46.94422" lon="8.57905">
        <ele>735</ele>
        <time>2021-08-10T10:16:51.773Z</time>
      </trkpt>
      <trkpt lat="46.94421" lon="8.57903">
        <ele>735</ele>
        <time>2021-08-10T10:16:52.773Z</time>
      </trkpt>
      <trkpt lat="46.9442" lon="8.57902">
        <ele>734</ele>
        <time>2021-08-10T10:16:53.772Z</time>
      </trkpt>
      <trkpt lat="46.94418" lon="8.57901">
        <ele>734</ele>
        <time>2021-08-10T10:16:54.772Z</time>
      </trkpt>
      <trkpt lat="46.94416" lon="8.57901">
        <ele>734</ele>
        <time>2021-08-10T10:16:55.772Z</time>
      </trkpt>
      <trkpt lat="46.94414" lon="8.57901">
        <ele>734</ele>
        <time>2021-08-10T10:16:56.772Z</time>
      </trkpt>
      <trkpt lat="46.94413" lon="8.57901">
        <ele>734</ele>
        <time>2021-08-10T10:16:57.773Z</time>
      </trkpt>
      <trkpt lat="46.94412" lon="8.579">
        <ele>733</ele>
        <time>2021-08-10T10:16:58.773Z</time>
      </trkpt>
      <trkpt lat="46.94412" lon="8.579">
        <ele>733</ele>
        <time>2021-08-10T10:16:59.773Z</time>
      </trkpt>
      <trkpt lat="46.9441" lon="8.57899">
        <ele>732</ele>
        <time>2021-08-10T10:17:00.772Z</time>
      </trkpt>
      <trkpt lat="46.94409" lon="8.57898">
        <ele>732</ele>
        <time>2021-08-10T10:17:01.772Z</time>
      </trkpt>
      <trkpt lat="46.94408" lon="8.57897">
        <ele>732</ele>
        <time>2021-08-10T10:17:02.772Z</time>
      </trkpt>
      <trkpt lat="46.94407" lon="8.57895">
        <ele>732</ele>
        <time>2021-08-10T10:17:03.772Z</time>
      </trkpt>
      <trkpt lat="46.94405" lon="8.57894">
        <ele>732</ele>
        <time>2021-08-10T10:17:04.772Z</time>
      </trkpt>
      <trkpt lat="46.94404" lon="8.57893">
        <ele>732</ele>
        <time>2021-08-10T10:17:05.773Z</time>
      </trkpt>
      <trkpt lat="46.94402" lon="8.57892">
        <ele>732</ele>
        <time>2021-08-10T10:17:06.772Z</time>
      </trkpt>
      <trkpt lat="46.94402" lon="8.57891">
        <ele>733</ele>
        <time>2021-08-10T10:17:07.772Z</time>
      </trkpt>
      <trkpt lat="46.944" lon="8.5789">
        <ele>732</ele>
        <time>2021-08-10T10:17:08.772Z</time>
      </trkpt>
      <trkpt lat="46.94399" lon="8.57889">
        <ele>732</ele>
        <time>2021-08-10T10:17:09.773Z</time>
      </trkpt>
      <trkpt lat="46.94398" lon="8.57888">
        <ele>732</ele>
        <time>2021-08-10T10:17:10.772Z</time>
      </trkpt>
      <trkpt lat="46.94397" lon="8.57887">
        <ele>731</ele>
        <time>2021-08-10T10:17:11.772Z</time>
      </trkpt>
      <trkpt lat="46.94396" lon="8.57887">
        <ele>731</ele>
        <time>2021-08-10T10:17:12.772Z</time>
      </trkpt>
      <trkpt lat="46.94395" lon="8.57886">
        <ele>731</ele>
        <time>2021-08-10T10:17:13.772Z</time>
      </trkpt>
      <trkpt lat="46.94394" lon="8.57885">
        <ele>730</ele>
        <time>2021-08-10T10:17:14.772Z</time>
      </trkpt>
      <trkpt lat="46.94393" lon="8.57884">
        <ele>730</ele>
        <time>2021-08-10T10:17:15.772Z</time>
      </trkpt>
      <trkpt lat="46.94392" lon="8.57884">
        <ele>729</ele>
        <time>2021-08-10T10:17:16.772Z</time>
      </trkpt>
      <trkpt lat="46.94391" lon="8.57884">
        <ele>728</ele>
        <time>2021-08-10T10:17:17.772Z</time>
      </trkpt>
      <trkpt lat="46.9439" lon="8.57883">
        <ele>728</ele>
        <time>2021-08-10T10:17:18.772Z</time>
      </trkpt>
      <trkpt lat="46.94389" lon="8.57883">
        <ele>728</ele>
        <time>2021-08-10T10:17:19.772Z</time>
      </trkpt>
      <trkpt lat="46.94388" lon="8.57882">
        <ele>728</ele>
        <time>2021-08-10T10:17:20.772Z</time>
      </trkpt>
      <trkpt lat="46.94386" lon="8.5788">
        <ele>728</ele>
        <time>2021-08-10T10:17:21.772Z</time>
      </trkpt>
      <trkpt lat="46.94385" lon="8.5788">
        <ele>729</ele>
        <time>2021-08-10T10:17:22.772Z</time>
      </trkpt>
      <trkpt lat="46.94383" lon="8.57878">
        <ele>729</ele>
        <time>2021-08-10T10:17:23.772Z</time>
      </trkpt>
      <trkpt lat="46.94382" lon="8.57878">
        <ele>729</ele>
        <time>2021-08-10T10:17:24.772Z</time>
      </trkpt>
      <trkpt lat="46.94381" lon="8.57877">
        <ele>729</ele>
        <time>2021-08-10T10:17:25.772Z</time>
      </trkpt>
      <trkpt lat="46.9438" lon="8.57876">
        <ele>728</ele>
        <time>2021-08-10T10:17:26.772Z</time>
      </trkpt>
      <trkpt lat="46.9438" lon="8.57875">
        <ele>728</ele>
        <time>2021-08-10T10:17:27.772Z</time>
      </trkpt>
      <trkpt lat="46.94379" lon="8.57875">
        <ele>728</ele>
        <time>2021-08-10T10:17:28.773Z</time>
      </trkpt>
      <trkpt lat="46.94378" lon="8.57873">
        <ele>728</ele>
        <time>2021-08-10T10:17:29.773Z</time>
      </trkpt>
      <trkpt lat="46.94377" lon="8.57872">
        <ele>728</ele>
        <time>2021-08-10T10:17:30.773Z</time>
      </trkpt>
      <trkpt lat="46.94376" lon="8.57871">
        <ele>728</ele>
        <time>2021-08-10T10:17:31.773Z</time>
      </trkpt>
      <trkpt lat="46.94374" lon="8.5787">
        <ele>728</ele>
        <time>2021-08-10T10:17:32.773Z</time>
      </trkpt>
      <trkpt lat="46.94373" lon="8.5787">
        <ele>727</ele>
        <time>2021-08-10T10:17:33.772Z</time>
      </trkpt>
      <trkpt lat="46.94372" lon="8.57869">
        <ele>727</ele>
        <time>2021-08-10T10:17:34.773Z</time>
      </trkpt>
      <trkpt lat="46.94371" lon="8.57867">
        <ele>727</ele>
        <time>2021-08-10T10:17:35.773Z</time>
      </trkpt>
      <trkpt lat="46.9437" lon="8.57866">
        <ele>728</ele>
        <time>2021-08-10T10:17:36.773Z</time>
      </trkpt>
      <trkpt lat="46.94369" lon="8.57865">
        <ele>728</ele>
        <time>2021-08-10T10:17:37.773Z</time>
      </trkpt>
      <trkpt lat="46.94368" lon="8.57864">
        <ele>729</ele>
        <time>2021-08-10T10:17:38.773Z</time>
      </trkpt>
      <trkpt lat="46.94367" lon="8.57863">
        <ele>729</ele>
        <time>2021-08-10T10:17:39.773Z</time>
      </trkpt>
      <trkpt lat="46.94366" lon="8.57861">
        <ele>729</ele>
        <time>2021-08-10T10:17:40.773Z</time>
      </trkpt>
      <trkpt lat="46.94365" lon="8.5786">
        <ele>728</ele>
        <time>2021-08-10T10:17:41.773Z</time>
      </trkpt>
      <trkpt lat="46.94365" lon="8.57858">
        <ele>728</ele>
        <time>2021-08-10T10:17:42.773Z</time>
      </trkpt>
      <trkpt lat="46.94364" lon="8.57857">
        <ele>727</ele>
        <time>2021-08-10T10:17:43.772Z</time>
      </trkpt>
      <trkpt lat="46.94363" lon="8.57856">
        <ele>727</ele>
        <time>2021-08-10T10:17:44.772Z</time>
      </trkpt>
      <trkpt lat="46.94363" lon="8.57856">
        <ele>726</ele>
        <time>2021-08-10T10:17:45.773Z</time>
      </trkpt>
      <trkpt lat="46.94361" lon="8.57855">
        <ele>726</ele>
        <time>2021-08-10T10:17:46.772Z</time>
      </trkpt>
      <trkpt lat="46.9436" lon="8.57854">
        <ele>725</ele>
        <time>2021-08-10T10:17:47.773Z</time>
      </trkpt>
      <trkpt lat="46.9436" lon="8.57852">
        <ele>725</ele>
        <time>2021-08-10T10:17:48.773Z</time>
      </trkpt>
      <trkpt lat="46.94359" lon="8.57849">
        <ele>724</ele>
        <time>2021-08-10T10:17:49.773Z</time>
      </trkpt>
      <trkpt lat="46.94359" lon="8.57847">
        <ele>724</ele>
        <time>2021-08-10T10:17:50.773Z</time>
      </trkpt>
      <trkpt lat="46.94358" lon="8.57846">
        <ele>723</ele>
        <time>2021-08-10T10:17:51.773Z</time>
      </trkpt>
      <trkpt lat="46.94357" lon="8.57845">
        <ele>722</ele>
        <time>2021-08-10T10:17:52.773Z</time>
      </trkpt>
      <trkpt lat="46.94356" lon="8.57844">
        <ele>721</ele>
        <time>2021-08-10T10:17:53.773Z</time>
      </trkpt>
      <trkpt lat="46.94356" lon="8.57843">
        <ele>721</ele>
        <time>2021-08-10T10:17:54.773Z</time>
      </trkpt>
      <trkpt lat="46.94355" lon="8.57842">
        <ele>720</ele>
        <time>2021-08-10T10:17:55.773Z</time>
      </trkpt>
      <trkpt lat="46.94354" lon="8.57841">
        <ele>720</ele>
        <time>2021-08-10T10:17:56.772Z</time>
      </trkpt>
      <trkpt lat="46.94353" lon="8.5784">
        <ele>720</ele>
        <time>2021-08-10T10:17:57.772Z</time>
      </trkpt>
      <trkpt lat="46.94352" lon="8.57839">
        <ele>719</ele>
        <time>2021-08-10T10:17:58.773Z</time>
      </trkpt>
      <trkpt lat="46.94351" lon="8.57837">
        <ele>719</ele>
        <time>2021-08-10T10:17:59.773Z</time>
      </trkpt>
      <trkpt lat="46.9435" lon="8.57836">
        <ele>719</ele>
        <time>2021-08-10T10:18:00.773Z</time>
      </trkpt>
      <trkpt lat="46.9435" lon="8.57834">
        <ele>718</ele>
        <time>2021-08-10T10:18:01.772Z</time>
      </trkpt>
      <trkpt lat="46.94349" lon="8.57833">
        <ele>718</ele>
        <time>2021-08-10T10:18:02.772Z</time>
      </trkpt>
      <trkpt lat="46.94347" lon="8.57833">
        <ele>718</ele>
        <time>2021-08-10T10:18:03.773Z</time>
      </trkpt>
      <trkpt lat="46.94346" lon="8.57832">
        <ele>718</ele>
        <time>2021-08-10T10:18:04.773Z</time>
      </trkpt>
      <trkpt lat="46.94345" lon="8.57831">
        <ele>717</ele>
        <time>2021-08-10T10:18:05.773Z</time>
      </trkpt>
      <trkpt lat="46.94344" lon="8.5783">
        <ele>717</ele>
        <time>2021-08-10T10:18:06.773Z</time>
      </trkpt>
      <trkpt lat="46.94343" lon="8.57829">
        <ele>717</ele>
        <time>2021-08-10T10:18:07.773Z</time>
      </trkpt>
      <trkpt lat="46.94342" lon="8.57828">
        <ele>716</ele>
        <time>2021-08-10T10:18:08.773Z</time>
      </trkpt>
      <trkpt lat="46.94342" lon="8.57828">
        <ele>716</ele>
        <time>2021-08-10T10:18:09.773Z</time>
      </trkpt>
      <trkpt lat="46.94342" lon="8.57827">
        <ele>715</ele>
        <time>2021-08-10T10:18:10.773Z</time>
      </trkpt>
      <trkpt lat="46.94341" lon="8.57826">
        <ele>715</ele>
        <time>2021-08-10T10:18:11.773Z</time>
      </trkpt>
      <trkpt lat="46.94341" lon="8.57824">
        <ele>715</ele>
        <time>2021-08-10T10:18:12.772Z</time>
      </trkpt>
      <trkpt lat="46.9434" lon="8.57822">
        <ele>715</ele>
        <time>2021-08-10T10:18:13.773Z</time>
      </trkpt>
      <trkpt lat="46.9434" lon="8.57821">
        <ele>715</ele>
        <time>2021-08-10T10:18:14.772Z</time>
      </trkpt>
      <trkpt lat="46.94339" lon="8.5782">
        <ele>714</ele>
        <time>2021-08-10T10:18:15.772Z</time>
      </trkpt>
      <trkpt lat="46.94339" lon="8.5782">
        <ele>714</ele>
        <time>2021-08-10T10:18:16.773Z</time>
      </trkpt>
      <trkpt lat="46.94339" lon="8.57819">
        <ele>714</ele>
        <time>2021-08-10T10:18:17.773Z</time>
      </trkpt>
      <trkpt lat="46.94339" lon="8.57818">
        <ele>714</ele>
        <time>2021-08-10T10:18:18.773Z</time>
      </trkpt>
      <trkpt lat="46.94339" lon="8.57816">
        <ele>713</ele>
        <time>2021-08-10T10:18:19.773Z</time>
      </trkpt>
      <trkpt lat="46.94339" lon="8.57815">
        <ele>713</ele>
        <time>2021-08-10T10:18:20.773Z</time>
      </trkpt>
      <trkpt lat="46.94339" lon="8.57814">
        <ele>712</ele>
        <time>2021-08-10T10:18:21.773Z</time>
      </trkpt>
      <trkpt lat="46.94339" lon="8.57814">
        <ele>712</ele>
        <time>2021-08-10T10:18:22.773Z</time>
      </trkpt>
      <trkpt lat="46.94338" lon="8.57814">
        <ele>712</ele>
        <time>2021-08-10T10:18:23.773Z</time>
      </trkpt>
      <trkpt lat="46.94339" lon="8.57813">
        <ele>711</ele>
        <time>2021-08-10T10:18:24.773Z</time>
      </trkpt>
      <trkpt lat="46.94339" lon="8.57813">
        <ele>711</ele>
        <time>2021-08-10T10:18:25.772Z</time>
      </trkpt>
      <trkpt lat="46.94338" lon="8.57814">
        <ele>712</ele>
        <time>2021-08-10T10:18:26.773Z</time>
      </trkpt>
      <trkpt lat="46.94338" lon="8.57813">
        <ele>712</ele>
        <time>2021-08-10T10:18:27.773Z</time>
      </trkpt>
      <trkpt lat="46.94334" lon="8.57813">
        <ele>722</ele>
        <time>2021-08-10T10:18:28.772Z</time>
      </trkpt>
      <trkpt lat="46.94334" lon="8.57813">
        <ele>724</ele>
        <time>2021-08-10T10:18:29.772Z</time>
      </trkpt>
      <trkpt lat="46.94333" lon="8.57813">
        <ele>726</ele>
        <time>2021-08-10T10:18:30.773Z</time>
      </trkpt>
      <trkpt lat="46.94333" lon="8.57812">
        <ele>727</ele>
        <time>2021-08-10T10:18:31.773Z</time>
      </trkpt>
      <trkpt lat="46.94333" lon="8.57812">
        <ele>729</ele>
        <time>2021-08-10T10:18:32.773Z</time>
      </trkpt>
      <trkpt lat="46.94333" lon="8.57811">
        <ele>730</ele>
        <time>2021-08-10T10:18:33.773Z</time>
      </trkpt>
      <trkpt lat="46.94333" lon="8.57811">
        <ele>731</ele>
        <time>2021-08-10T10:18:34.774Z</time>
      </trkpt>
      <trkpt lat="46.94334" lon="8.57812">
        <ele>731</ele>
        <time>2021-08-10T10:18:35.774Z</time>
      </trkpt>
      <trkpt lat="46.94334" lon="8.57818">
        <ele>725</ele>
        <time>2021-08-10T10:18:36.774Z</time>
      </trkpt>
      <trkpt lat="46.94333" lon="8.57819">
        <ele>725</ele>
        <time>2021-08-10T10:18:37.774Z</time>
      </trkpt>
      <trkpt lat="46.94333" lon="8.57819">
        <ele>725</ele>
        <time>2021-08-10T10:18:38.773Z</time>
      </trkpt>
      <trkpt lat="46.94333" lon="8.57818">
        <ele>725</ele>
        <time>2021-08-10T10:18:39.773Z</time>
      </trkpt>
      <trkpt lat="46.94333" lon="8.57815">
        <ele>725</ele>
        <time>2021-08-10T10:18:40.774Z</time>
      </trkpt>
      <trkpt lat="46.94333" lon="8.57814">
        <ele>725</ele>
        <time>2021-08-10T10:18:41.774Z</time>
      </trkpt>
      <trkpt lat="46.94333" lon="8.57813">
        <ele>725</ele>
        <time>2021-08-10T10:18:42.773Z</time>
      </trkpt>
      <trkpt lat="46.94333" lon="8.57813">
        <ele>724</ele>
        <time>2021-08-10T10:18:43.774Z</time>
      </trkpt>
      <trkpt lat="46.94332" lon="8.57813">
        <ele>724</ele>
        <time>2021-08-10T10:18:44.774Z</time>
      </trkpt>
      <trkpt lat="46.94331" lon="8.57813">
        <ele>723</ele>
        <time>2021-08-10T10:18:45.774Z</time>
      </trkpt>
      <trkpt lat="46.9433" lon="8.57813">
        <ele>723</ele>
        <time>2021-08-10T10:18:46.774Z</time>
      </trkpt>
      <trkpt lat="46.94329" lon="8.57813">
        <ele>723</ele>
        <time>2021-08-10T10:18:47.774Z</time>
      </trkpt>
      <trkpt lat="46.94328" lon="8.57812">
        <ele>723</ele>
        <time>2021-08-10T10:18:48.774Z</time>
      </trkpt>
      <trkpt lat="46.94328" lon="8.57812">
        <ele>723</ele>
        <time>2021-08-10T10:18:49.774Z</time>
      </trkpt>
      <trkpt lat="46.94328" lon="8.57812">
        <ele>723</ele>
        <time>2021-08-10T10:18:50.773Z</time>
      </trkpt>
      <trkpt lat="46.9433" lon="8.57809">
        <ele>721</ele>
        <time>2021-08-10T10:18:51.774Z</time>
      </trkpt>
      <trkpt lat="46.9433" lon="8.57809">
        <ele>721</ele>
        <time>2021-08-10T10:18:52.774Z</time>
      </trkpt>
      <trkpt lat="46.94329" lon="8.57808">
        <ele>721</ele>
        <time>2021-08-10T10:18:53.773Z</time>
      </trkpt>
      <trkpt lat="46.94329" lon="8.57808">
        <ele>721</ele>
        <time>2021-08-10T10:18:54.774Z</time>
      </trkpt>
      <trkpt lat="46.94328" lon="8.57808">
        <ele>721</ele>
        <time>2021-08-10T10:18:55.774Z</time>
      </trkpt>
      <trkpt lat="46.94327" lon="8.57807">
        <ele>721</ele>
        <time>2021-08-10T10:18:56.773Z</time>
      </trkpt>
      <trkpt lat="46.94326" lon="8.57806">
        <ele>721</ele>
        <time>2021-08-10T10:18:57.773Z</time>
      </trkpt>
      <trkpt lat="46.94326" lon="8.57805">
        <ele>722</ele>
        <time>2021-08-10T10:18:58.773Z</time>
      </trkpt>
      <trkpt lat="46.94325" lon="8.57804">
        <ele>722</ele>
        <time>2021-08-10T10:18:59.774Z</time>
      </trkpt>
      <trkpt lat="46.94324" lon="8.57803">
        <ele>722</ele>
        <time>2021-08-10T10:19:00.774Z</time>
      </trkpt>
      <trkpt lat="46.94324" lon="8.57802">
        <ele>722</ele>
        <time>2021-08-10T10:19:01.774Z</time>
      </trkpt>
      <trkpt lat="46.94323" lon="8.57801">
        <ele>721</ele>
        <time>2021-08-10T10:19:02.774Z</time>
      </trkpt>
      <trkpt lat="46.94322" lon="8.57799">
        <ele>721</ele>
        <time>2021-08-10T10:19:03.773Z</time>
      </trkpt>
      <trkpt lat="46.94322" lon="8.57798">
        <ele>721</ele>
        <time>2021-08-10T10:19:04.773Z</time>
      </trkpt>
      <trkpt lat="46.94321" lon="8.57797">
        <ele>721</ele>
        <time>2021-08-10T10:19:05.773Z</time>
      </trkpt>
      <trkpt lat="46.94321" lon="8.57795">
        <ele>721</ele>
        <time>2021-08-10T10:19:06.774Z</time>
      </trkpt>
      <trkpt lat="46.9432" lon="8.57794">
        <ele>721</ele>
        <time>2021-08-10T10:19:07.773Z</time>
      </trkpt>
      <trkpt lat="46.94319" lon="8.57792">
        <ele>721</ele>
        <time>2021-08-10T10:19:08.774Z</time>
      </trkpt>
      <trkpt lat="46.94319" lon="8.57791">
        <ele>721</ele>
        <time>2021-08-10T10:19:09.773Z</time>
      </trkpt>
      <trkpt lat="46.94318" lon="8.5779">
        <ele>720</ele>
        <time>2021-08-10T10:19:10.774Z</time>
      </trkpt>
      <trkpt lat="46.94317" lon="8.57788">
        <ele>720</ele>
        <time>2021-08-10T10:19:11.774Z</time>
      </trkpt>
      <trkpt lat="46.94317" lon="8.57788">
        <ele>720</ele>
        <time>2021-08-10T10:19:12.774Z</time>
      </trkpt>
      <trkpt lat="46.94316" lon="8.57787">
        <ele>719</ele>
        <time>2021-08-10T10:19:13.774Z</time>
      </trkpt>
      <trkpt lat="46.94316" lon="8.57787">
        <ele>719</ele>
        <time>2021-08-10T10:19:14.774Z</time>
      </trkpt>
      <trkpt lat="46.94316" lon="8.57786">
        <ele>718</ele>
        <time>2021-08-10T10:19:15.774Z</time>
      </trkpt>
      <trkpt lat="46.94316" lon="8.57786">
        <ele>718</ele>
        <time>2021-08-10T10:19:16.774Z</time>
      </trkpt>
      <trkpt lat="46.94315" lon="8.57786">
        <ele>717</ele>
        <time>2021-08-10T10:19:17.774Z</time>
      </trkpt>
      <trkpt lat="46.94315" lon="8.57786">
        <ele>717</ele>
        <time>2021-08-10T10:19:18.774Z</time>
      </trkpt>
      <trkpt lat="46.94314" lon="8.57785">
        <ele>716</ele>
        <time>2021-08-10T10:19:19.774Z</time>
      </trkpt>
      <trkpt lat="46.94314" lon="8.57784">
        <ele>716</ele>
        <time>2021-08-10T10:19:20.774Z</time>
      </trkpt>
      <trkpt lat="46.94313" lon="8.57783">
        <ele>716</ele>
        <time>2021-08-10T10:19:21.773Z</time>
      </trkpt>
      <trkpt lat="46.94311" lon="8.57783">
        <ele>715</ele>
        <time>2021-08-10T10:19:22.774Z</time>
      </trkpt>
      <trkpt lat="46.9431" lon="8.57781">
        <ele>715</ele>
        <time>2021-08-10T10:19:23.774Z</time>
      </trkpt>
      <trkpt lat="46.94309" lon="8.57779">
        <ele>716</ele>
        <time>2021-08-10T10:19:24.773Z</time>
      </trkpt>
      <trkpt lat="46.94308" lon="8.57778">
        <ele>716</ele>
        <time>2021-08-10T10:19:25.774Z</time>
      </trkpt>
      <trkpt lat="46.94307" lon="8.57777">
        <ele>716</ele>
        <time>2021-08-10T10:19:26.774Z</time>
      </trkpt>
      <trkpt lat="46.94307" lon="8.57776">
        <ele>715</ele>
        <time>2021-08-10T10:19:27.774Z</time>
      </trkpt>
      <trkpt lat="46.94306" lon="8.57775">
        <ele>715</ele>
        <time>2021-08-10T10:19:28.774Z</time>
      </trkpt>
      <trkpt lat="46.94306" lon="8.57774">
        <ele>715</ele>
        <time>2021-08-10T10:19:29.774Z</time>
      </trkpt>
      <trkpt lat="46.94305" lon="8.57772">
        <ele>715</ele>
        <time>2021-08-10T10:19:30.774Z</time>
      </trkpt>
      <trkpt lat="46.94305" lon="8.57771">
        <ele>714</ele>
        <time>2021-08-10T10:19:31.774Z</time>
      </trkpt>
      <trkpt lat="46.94305" lon="8.5777">
        <ele>714</ele>
        <time>2021-08-10T10:19:32.774Z</time>
      </trkpt>
      <trkpt lat="46.94305" lon="8.57769">
        <ele>714</ele>
        <time>2021-08-10T10:19:33.774Z</time>
      </trkpt>
      <trkpt lat="46.94304" lon="8.57768">
        <ele>714</ele>
        <time>2021-08-10T10:19:34.774Z</time>
      </trkpt>
      <trkpt lat="46.94303" lon="8.57766">
        <ele>714</ele>
        <time>2021-08-10T10:19:35.774Z</time>
      </trkpt>
      <trkpt lat="46.94303" lon="8.57765">
        <ele>714</ele>
        <time>2021-08-10T10:19:36.773Z</time>
      </trkpt>
      <trkpt lat="46.94302" lon="8.57763">
        <ele>714</ele>
        <time>2021-08-10T10:19:37.773Z</time>
      </trkpt>
      <trkpt lat="46.94301" lon="8.57762">
        <ele>715</ele>
        <time>2021-08-10T10:19:38.774Z</time>
      </trkpt>
      <trkpt lat="46.943" lon="8.57761">
        <ele>715</ele>
        <time>2021-08-10T10:19:39.773Z</time>
      </trkpt>
      <trkpt lat="46.943" lon="8.57759">
        <ele>715</ele>
        <time>2021-08-10T10:19:40.774Z</time>
      </trkpt>
      <trkpt lat="46.94299" lon="8.57757">
        <ele>715</ele>
        <time>2021-08-10T10:19:41.774Z</time>
      </trkpt>
      <trkpt lat="46.94299" lon="8.57756">
        <ele>715</ele>
        <time>2021-08-10T10:19:42.773Z</time>
      </trkpt>
      <trkpt lat="46.94299" lon="8.57755">
        <ele>715</ele>
        <time>2021-08-10T10:19:43.774Z</time>
      </trkpt>
      <trkpt lat="46.94298" lon="8.57753">
        <ele>715</ele>
        <time>2021-08-10T10:19:44.773Z</time>
      </trkpt>
      <trkpt lat="46.94297" lon="8.57752">
        <ele>715</ele>
        <time>2021-08-10T10:19:45.774Z</time>
      </trkpt>
      <trkpt lat="46.94297" lon="8.5775">
        <ele>715</ele>
        <time>2021-08-10T10:19:46.773Z</time>
      </trkpt>
      <trkpt lat="46.94296" lon="8.57747">
        <ele>716</ele>
        <time>2021-08-10T10:19:47.774Z</time>
      </trkpt>
      <trkpt lat="46.94295" lon="8.57745">
        <ele>716</ele>
        <time>2021-08-10T10:19:48.773Z</time>
      </trkpt>
      <trkpt lat="46.94294" lon="8.57744">
        <ele>716</ele>
        <time>2021-08-10T10:19:49.774Z</time>
      </trkpt>
      <trkpt lat="46.94293" lon="8.57742">
        <ele>716</ele>
        <time>2021-08-10T10:19:50.774Z</time>
      </trkpt>
      <trkpt lat="46.94292" lon="8.5774">
        <ele>716</ele>
        <time>2021-08-10T10:19:51.774Z</time>
      </trkpt>
      <trkpt lat="46.94291" lon="8.57738">
        <ele>717</ele>
        <time>2021-08-10T10:19:52.774Z</time>
      </trkpt>
      <trkpt lat="46.94291" lon="8.57736">
        <ele>716</ele>
        <time>2021-08-10T10:19:53.774Z</time>
      </trkpt>
      <trkpt lat="46.94291" lon="8.57735">
        <ele>716</ele>
        <time>2021-08-10T10:19:54.773Z</time>
      </trkpt>
      <trkpt lat="46.94291" lon="8.57733">
        <ele>716</ele>
        <time>2021-08-10T10:19:55.773Z</time>
      </trkpt>
      <trkpt lat="46.9429" lon="8.57732">
        <ele>716</ele>
        <time>2021-08-10T10:19:56.774Z</time>
      </trkpt>
      <trkpt lat="46.9429" lon="8.5773">
        <ele>716</ele>
        <time>2021-08-10T10:19:57.773Z</time>
      </trkpt>
      <trkpt lat="46.94289" lon="8.57728">
        <ele>716</ele>
        <time>2021-08-10T10:19:58.773Z</time>
      </trkpt>
      <trkpt lat="46.94289" lon="8.57726">
        <ele>716</ele>
        <time>2021-08-10T10:19:59.773Z</time>
      </trkpt>
      <trkpt lat="46.94288" lon="8.57725">
        <ele>716</ele>
        <time>2021-08-10T10:20:00.774Z</time>
      </trkpt>
      <trkpt lat="46.94288" lon="8.57723">
        <ele>717</ele>
        <time>2021-08-10T10:20:01.774Z</time>
      </trkpt>
      <trkpt lat="46.94287" lon="8.57722">
        <ele>717</ele>
        <time>2021-08-10T10:20:02.773Z</time>
      </trkpt>
      <trkpt lat="46.94286" lon="8.57721">
        <ele>717</ele>
        <time>2021-08-10T10:20:03.773Z</time>
      </trkpt>
      <trkpt lat="46.94284" lon="8.5772">
        <ele>717</ele>
        <time>2021-08-10T10:20:04.774Z</time>
      </trkpt>
      <trkpt lat="46.94283" lon="8.57718">
        <ele>717</ele>
        <time>2021-08-10T10:20:05.774Z</time>
      </trkpt>
      <trkpt lat="46.94282" lon="8.57717">
        <ele>717</ele>
        <time>2021-08-10T10:20:06.774Z</time>
      </trkpt>
      <trkpt lat="46.9428" lon="8.57715">
        <ele>717</ele>
        <time>2021-08-10T10:20:07.774Z</time>
      </trkpt>
      <trkpt lat="46.94279" lon="8.57714">
        <ele>717</ele>
        <time>2021-08-10T10:20:08.774Z</time>
      </trkpt>
      <trkpt lat="46.94278" lon="8.57715">
        <ele>718</ele>
        <time>2021-08-10T10:20:09.774Z</time>
      </trkpt>
      <trkpt lat="46.94278" lon="8.57715">
        <ele>718</ele>
        <time>2021-08-10T10:20:10.774Z</time>
      </trkpt>
      <trkpt lat="46.94278" lon="8.57716">
        <ele>718</ele>
        <time>2021-08-10T10:20:11.774Z</time>
      </trkpt>
      <trkpt lat="46.94278" lon="8.57715">
        <ele>718</ele>
        <time>2021-08-10T10:20:12.774Z</time>
      </trkpt>
      <trkpt lat="46.94278" lon="8.57715">
        <ele>718</ele>
        <time>2021-08-10T10:20:13.774Z</time>
      </trkpt>
      <trkpt lat="46.94276" lon="8.57713">
        <ele>718</ele>
        <time>2021-08-10T10:20:14.774Z</time>
      </trkpt>
      <trkpt lat="46.94274" lon="8.57711">
        <ele>718</ele>
        <time>2021-08-10T10:20:15.775Z</time>
      </trkpt>
      <trkpt lat="46.94273" lon="8.5771">
        <ele>718</ele>
        <time>2021-08-10T10:20:16.775Z</time>
      </trkpt>
      <trkpt lat="46.94271" lon="8.57709">
        <ele>718</ele>
        <time>2021-08-10T10:20:17.774Z</time>
      </trkpt>
      <trkpt lat="46.9427" lon="8.57708">
        <ele>718</ele>
        <time>2021-08-10T10:20:18.774Z</time>
      </trkpt>
      <trkpt lat="46.94271" lon="8.57707">
        <ele>718</ele>
        <time>2021-08-10T10:20:19.774Z</time>
      </trkpt>
      <trkpt lat="46.94271" lon="8.57707">
        <ele>718</ele>
        <time>2021-08-10T10:20:20.774Z</time>
      </trkpt>
      <trkpt lat="46.94271" lon="8.57706">
        <ele>718</ele>
        <time>2021-08-10T10:20:21.774Z</time>
      </trkpt>
      <trkpt lat="46.94271" lon="8.57706">
        <ele>718</ele>
        <time>2021-08-10T10:20:22.774Z</time>
      </trkpt>
      <trkpt lat="46.94271" lon="8.57705">
        <ele>718</ele>
        <time>2021-08-10T10:20:23.774Z</time>
      </trkpt>
      <trkpt lat="46.94271" lon="8.57704">
        <ele>718</ele>
        <time>2021-08-10T10:20:24.775Z</time>
      </trkpt>
      <trkpt lat="46.94271" lon="8.57703">
        <ele>718</ele>
        <time>2021-08-10T10:20:25.774Z</time>
      </trkpt>
      <trkpt lat="46.9427" lon="8.57703">
        <ele>718</ele>
        <time>2021-08-10T10:20:26.774Z</time>
      </trkpt>
      <trkpt lat="46.9427" lon="8.57703">
        <ele>718</ele>
        <time>2021-08-10T10:20:27.774Z</time>
      </trkpt>
      <trkpt lat="46.9427" lon="8.57703">
        <ele>717</ele>
        <time>2021-08-10T10:20:28.774Z</time>
      </trkpt>
      <trkpt lat="46.9427" lon="8.57703">
        <ele>717</ele>
        <time>2021-08-10T10:20:29.774Z</time>
      </trkpt>
      <trkpt lat="46.94271" lon="8.57703">
        <ele>717</ele>
        <time>2021-08-10T10:20:30.774Z</time>
      </trkpt>
      <trkpt lat="46.9427" lon="8.57703">
        <ele>717</ele>
        <time>2021-08-10T10:20:31.774Z</time>
      </trkpt>
      <trkpt lat="46.9427" lon="8.57702">
        <ele>717</ele>
        <time>2021-08-10T10:20:32.774Z</time>
      </trkpt>
      <trkpt lat="46.94271" lon="8.57702">
        <ele>717</ele>
        <time>2021-08-10T10:20:33.774Z</time>
      </trkpt>
      <trkpt lat="46.94272" lon="8.57702">
        <ele>717</ele>
        <time>2021-08-10T10:20:34.774Z</time>
      </trkpt>
      <trkpt lat="46.94273" lon="8.577">
        <ele>717</ele>
        <time>2021-08-10T10:20:35.774Z</time>
      </trkpt>
      <trkpt lat="46.94272" lon="8.57698">
        <ele>717</ele>
        <time>2021-08-10T10:20:36.774Z</time>
      </trkpt>
      <trkpt lat="46.94272" lon="8.57695">
        <ele>717</ele>
        <time>2021-08-10T10:20:37.774Z</time>
      </trkpt>
      <trkpt lat="46.94272" lon="8.57691">
        <ele>717</ele>
        <time>2021-08-10T10:20:38.774Z</time>
      </trkpt>
      <trkpt lat="46.94272" lon="8.5769">
        <ele>717</ele>
        <time>2021-08-10T10:20:39.774Z</time>
      </trkpt>
      <trkpt lat="46.94272" lon="8.57689">
        <ele>717</ele>
        <time>2021-08-10T10:20:40.774Z</time>
      </trkpt>
      <trkpt lat="46.94272" lon="8.5769">
        <ele>716</ele>
        <time>2021-08-10T10:20:41.774Z</time>
      </trkpt>
      <trkpt lat="46.94271" lon="8.57689">
        <ele>716</ele>
        <time>2021-08-10T10:20:42.774Z</time>
      </trkpt>
      <trkpt lat="46.94271" lon="8.57689">
        <ele>715</ele>
        <time>2021-08-10T10:20:43.774Z</time>
      </trkpt>
      <trkpt lat="46.94269" lon="8.57688">
        <ele>715</ele>
        <time>2021-08-10T10:20:44.774Z</time>
      </trkpt>
      <trkpt lat="46.94268" lon="8.57687">
        <ele>714</ele>
        <time>2021-08-10T10:20:45.774Z</time>
      </trkpt>
      <trkpt lat="46.94267" lon="8.57684">
        <ele>714</ele>
        <time>2021-08-10T10:20:46.775Z</time>
      </trkpt>
      <trkpt lat="46.94265" lon="8.57683">
        <ele>713</ele>
        <time>2021-08-10T10:20:47.775Z</time>
      </trkpt>
      <trkpt lat="46.94263" lon="8.57681">
        <ele>712</ele>
        <time>2021-08-10T10:20:48.775Z</time>
      </trkpt>
      <trkpt lat="46.9426" lon="8.57679">
        <ele>712</ele>
        <time>2021-08-10T10:20:49.775Z</time>
      </trkpt>
      <trkpt lat="46.94259" lon="8.57678">
        <ele>711</ele>
        <time>2021-08-10T10:20:50.774Z</time>
      </trkpt>
      <trkpt lat="46.94259" lon="8.57677">
        <ele>711</ele>
        <time>2021-08-10T10:20:51.774Z</time>
      </trkpt>
      <trkpt lat="46.94258" lon="8.57676">
        <ele>710</ele>
        <time>2021-08-10T10:20:52.774Z</time>
      </trkpt>
      <trkpt lat="46.94256" lon="8.57674">
        <ele>710</ele>
        <time>2021-08-10T10:20:53.775Z</time>
      </trkpt>
      <trkpt lat="46.94254" lon="8.57673">
        <ele>709</ele>
        <time>2021-08-10T10:20:54.775Z</time>
      </trkpt>
      <trkpt lat="46.94252" lon="8.57672">
        <ele>708</ele>
        <time>2021-08-10T10:20:55.775Z</time>
      </trkpt>
      <trkpt lat="46.94251" lon="8.57671">
        <ele>708</ele>
        <time>2021-08-10T10:20:56.774Z</time>
      </trkpt>
      <trkpt lat="46.94249" lon="8.57669">
        <ele>707</ele>
        <time>2021-08-10T10:20:57.774Z</time>
      </trkpt>
      <trkpt lat="46.94248" lon="8.57667">
        <ele>707</ele>
        <time>2021-08-10T10:20:58.775Z</time>
      </trkpt>
      <trkpt lat="46.94248" lon="8.57664">
        <ele>707</ele>
        <time>2021-08-10T10:20:59.774Z</time>
      </trkpt>
      <trkpt lat="46.94248" lon="8.57662">
        <ele>707</ele>
        <time>2021-08-10T10:21:00.775Z</time>
      </trkpt>
      <trkpt lat="46.94249" lon="8.5766">
        <ele>707</ele>
        <time>2021-08-10T10:21:01.774Z</time>
      </trkpt>
      <trkpt lat="46.9425" lon="8.57658">
        <ele>707</ele>
        <time>2021-08-10T10:21:02.775Z</time>
      </trkpt>
      <trkpt lat="46.94251" lon="8.57656">
        <ele>707</ele>
        <time>2021-08-10T10:21:03.774Z</time>
      </trkpt>
      <trkpt lat="46.94252" lon="8.57654">
        <ele>707</ele>
        <time>2021-08-10T10:21:04.775Z</time>
      </trkpt>
      <trkpt lat="46.94251" lon="8.57651">
        <ele>707</ele>
        <time>2021-08-10T10:21:05.775Z</time>
      </trkpt>
      <trkpt lat="46.94251" lon="8.5765">
        <ele>706</ele>
        <time>2021-08-10T10:21:06.775Z</time>
      </trkpt>
      <trkpt lat="46.9425" lon="8.57649">
        <ele>706</ele>
        <time>2021-08-10T10:21:07.775Z</time>
      </trkpt>
      <trkpt lat="46.9425" lon="8.57647">
        <ele>706</ele>
        <time>2021-08-10T10:21:08.775Z</time>
      </trkpt>
      <trkpt lat="46.94249" lon="8.57646">
        <ele>706</ele>
        <time>2021-08-10T10:21:09.775Z</time>
      </trkpt>
      <trkpt lat="46.94249" lon="8.57645">
        <ele>706</ele>
        <time>2021-08-10T10:21:10.775Z</time>
      </trkpt>
      <trkpt lat="46.94248" lon="8.57643">
        <ele>706</ele>
        <time>2021-08-10T10:21:11.775Z</time>
      </trkpt>
      <trkpt lat="46.94246" lon="8.57642">
        <ele>706</ele>
        <time>2021-08-10T10:21:12.775Z</time>
      </trkpt>
      <trkpt lat="46.94245" lon="8.57641">
        <ele>706</ele>
        <time>2021-08-10T10:21:13.775Z</time>
      </trkpt>
      <trkpt lat="46.94245" lon="8.5764">
        <ele>706</ele>
        <time>2021-08-10T10:21:14.775Z</time>
      </trkpt>
      <trkpt lat="46.94245" lon="8.57638">
        <ele>706</ele>
        <time>2021-08-10T10:21:15.774Z</time>
      </trkpt>
      <trkpt lat="46.94245" lon="8.57637">
        <ele>706</ele>
        <time>2021-08-10T10:21:16.775Z</time>
      </trkpt>
      <trkpt lat="46.94244" lon="8.57636">
        <ele>706</ele>
        <time>2021-08-10T10:21:17.775Z</time>
      </trkpt>
      <trkpt lat="46.94244" lon="8.57635">
        <ele>706</ele>
        <time>2021-08-10T10:21:18.775Z</time>
      </trkpt>
      <trkpt lat="46.94244" lon="8.57634">
        <ele>706</ele>
        <time>2021-08-10T10:21:19.774Z</time>
      </trkpt>
      <trkpt lat="46.94244" lon="8.57634">
        <ele>706</ele>
        <time>2021-08-10T10:21:20.775Z</time>
      </trkpt>
      <trkpt lat="46.94243" lon="8.57634">
        <ele>706</ele>
        <time>2021-08-10T10:21:21.775Z</time>
      </trkpt>
      <trkpt lat="46.94244" lon="8.57633">
        <ele>707</ele>
        <time>2021-08-10T10:21:22.775Z</time>
      </trkpt>
      <trkpt lat="46.94244" lon="8.57631">
        <ele>707</ele>
        <time>2021-08-10T10:21:23.774Z</time>
      </trkpt>
      <trkpt lat="46.94244" lon="8.5763">
        <ele>707</ele>
        <time>2021-08-10T10:21:24.775Z</time>
      </trkpt>
      <trkpt lat="46.94244" lon="8.57629">
        <ele>706</ele>
        <time>2021-08-10T10:21:25.775Z</time>
      </trkpt>
      <trkpt lat="46.94245" lon="8.57628">
        <ele>706</ele>
        <time>2021-08-10T10:21:26.775Z</time>
      </trkpt>
      <trkpt lat="46.94245" lon="8.57627">
        <ele>706</ele>
        <time>2021-08-10T10:21:27.775Z</time>
      </trkpt>
      <trkpt lat="46.94246" lon="8.57625">
        <ele>706</ele>
        <time>2021-08-10T10:21:28.775Z</time>
      </trkpt>
      <trkpt lat="46.94247" lon="8.57624">
        <ele>705</ele>
        <time>2021-08-10T10:21:29.775Z</time>
      </trkpt>
      <trkpt lat="46.94247" lon="8.57622">
        <ele>705</ele>
        <time>2021-08-10T10:21:30.774Z</time>
      </trkpt>
      <trkpt lat="46.94247" lon="8.57621">
        <ele>705</ele>
        <time>2021-08-10T10:21:31.775Z</time>
      </trkpt>
      <trkpt lat="46.94246" lon="8.57619">
        <ele>705</ele>
        <time>2021-08-10T10:21:32.774Z</time>
      </trkpt>
      <trkpt lat="46.94246" lon="8.57618">
        <ele>705</ele>
        <time>2021-08-10T10:21:33.775Z</time>
      </trkpt>
      <trkpt lat="46.94246" lon="8.57617">
        <ele>705</ele>
        <time>2021-08-10T10:21:34.774Z</time>
      </trkpt>
      <trkpt lat="46.94247" lon="8.57616">
        <ele>705</ele>
        <time>2021-08-10T10:21:35.775Z</time>
      </trkpt>
      <trkpt lat="46.94247" lon="8.57615">
        <ele>705</ele>
        <time>2021-08-10T10:21:36.774Z</time>
      </trkpt>
      <trkpt lat="46.94247" lon="8.57614">
        <ele>706</ele>
        <time>2021-08-10T10:21:37.775Z</time>
      </trkpt>
      <trkpt lat="46.94247" lon="8.57613">
        <ele>706</ele>
        <time>2021-08-10T10:21:38.774Z</time>
      </trkpt>
      <trkpt lat="46.94247" lon="8.57611">
        <ele>706</ele>
        <time>2021-08-10T10:21:39.775Z</time>
      </trkpt>
      <trkpt lat="46.94246" lon="8.5761">
        <ele>706</ele>
        <time>2021-08-10T10:21:40.775Z</time>
      </trkpt>
      <trkpt lat="46.94245" lon="8.57609">
        <ele>706</ele>
        <time>2021-08-10T10:21:41.775Z</time>
      </trkpt>
      <trkpt lat="46.94244" lon="8.57607">
        <ele>707</ele>
        <time>2021-08-10T10:21:42.774Z</time>
      </trkpt>
      <trkpt lat="46.94243" lon="8.57605">
        <ele>707</ele>
        <time>2021-08-10T10:21:43.775Z</time>
      </trkpt>
      <trkpt lat="46.94242" lon="8.57605">
        <ele>707</ele>
        <time>2021-08-10T10:21:44.775Z</time>
      </trkpt>
      <trkpt lat="46.94242" lon="8.57604">
        <ele>707</ele>
        <time>2021-08-10T10:21:45.775Z</time>
      </trkpt>
      <trkpt lat="46.94241" lon="8.57603">
        <ele>707</ele>
        <time>2021-08-10T10:21:46.775Z</time>
      </trkpt>
      <trkpt lat="46.94241" lon="8.57601">
        <ele>707</ele>
        <time>2021-08-10T10:21:47.775Z</time>
      </trkpt>
      <trkpt lat="46.9424" lon="8.57599">
        <ele>708</ele>
        <time>2021-08-10T10:21:48.775Z</time>
      </trkpt>
      <trkpt lat="46.94239" lon="8.57597">
        <ele>708</ele>
        <time>2021-08-10T10:21:49.775Z</time>
      </trkpt>
      <trkpt lat="46.94238" lon="8.57596">
        <ele>708</ele>
        <time>2021-08-10T10:21:50.774Z</time>
      </trkpt>
      <trkpt lat="46.94236" lon="8.57595">
        <ele>708</ele>
        <time>2021-08-10T10:21:51.775Z</time>
      </trkpt>
      <trkpt lat="46.94236" lon="8.57595">
        <ele>708</ele>
        <time>2021-08-10T10:21:52.775Z</time>
      </trkpt>
      <trkpt lat="46.94235" lon="8.57596">
        <ele>708</ele>
        <time>2021-08-10T10:21:53.775Z</time>
      </trkpt>
      <trkpt lat="46.94234" lon="8.57595">
        <ele>708</ele>
        <time>2021-08-10T10:21:54.775Z</time>
      </trkpt>
      <trkpt lat="46.94233" lon="8.57595">
        <ele>708</ele>
        <time>2021-08-10T10:21:55.775Z</time>
      </trkpt>
      <trkpt lat="46.94232" lon="8.57594">
        <ele>709</ele>
        <time>2021-08-10T10:21:56.775Z</time>
      </trkpt>
      <trkpt lat="46.94232" lon="8.57594">
        <ele>709</ele>
        <time>2021-08-10T10:21:57.775Z</time>
      </trkpt>
      <trkpt lat="46.9423" lon="8.57593">
        <ele>709</ele>
        <time>2021-08-10T10:21:58.775Z</time>
      </trkpt>
      <trkpt lat="46.94228" lon="8.57592">
        <ele>710</ele>
        <time>2021-08-10T10:21:59.775Z</time>
      </trkpt>
      <trkpt lat="46.94227" lon="8.57593">
        <ele>710</ele>
        <time>2021-08-10T10:22:00.775Z</time>
      </trkpt>
      <trkpt lat="46.94226" lon="8.57593">
        <ele>710</ele>
        <time>2021-08-10T10:22:01.774Z</time>
      </trkpt>
      <trkpt lat="46.94225" lon="8.57592">
        <ele>710</ele>
        <time>2021-08-10T10:22:02.775Z</time>
      </trkpt>
      <trkpt lat="46.94224" lon="8.57591">
        <ele>710</ele>
        <time>2021-08-10T10:22:03.774Z</time>
      </trkpt>
      <trkpt lat="46.94224" lon="8.5759">
        <ele>711</ele>
        <time>2021-08-10T10:22:04.775Z</time>
      </trkpt>
      <trkpt lat="46.94223" lon="8.57589">
        <ele>711</ele>
        <time>2021-08-10T10:22:05.775Z</time>
      </trkpt>
      <trkpt lat="46.94223" lon="8.57589">
        <ele>711</ele>
        <time>2021-08-10T10:22:06.775Z</time>
      </trkpt>
      <trkpt lat="46.94223" lon="8.57589">
        <ele>711</ele>
        <time>2021-08-10T10:22:07.775Z</time>
      </trkpt>
      <trkpt lat="46.94222" lon="8.57589">
        <ele>712</ele>
        <time>2021-08-10T10:22:08.775Z</time>
      </trkpt>
      <trkpt lat="46.94222" lon="8.5759">
        <ele>712</ele>
        <time>2021-08-10T10:22:09.776Z</time>
      </trkpt>
      <trkpt lat="46.94221" lon="8.5759">
        <ele>712</ele>
        <time>2021-08-10T10:22:10.775Z</time>
      </trkpt>
      <trkpt lat="46.9422" lon="8.57591">
        <ele>712</ele>
        <time>2021-08-10T10:22:11.775Z</time>
      </trkpt>
      <trkpt lat="46.94219" lon="8.57591">
        <ele>712</ele>
        <time>2021-08-10T10:22:12.775Z</time>
      </trkpt>
      <trkpt lat="46.94218" lon="8.57591">
        <ele>712</ele>
        <time>2021-08-10T10:22:13.776Z</time>
      </trkpt>
      <trkpt lat="46.94217" lon="8.57591">
        <ele>712</ele>
        <time>2021-08-10T10:22:14.776Z</time>
      </trkpt>
      <trkpt lat="46.94216" lon="8.57591">
        <ele>712</ele>
        <time>2021-08-10T10:22:15.775Z</time>
      </trkpt>
      <trkpt lat="46.94215" lon="8.57592">
        <ele>713</ele>
        <time>2021-08-10T10:22:16.776Z</time>
      </trkpt>
      <trkpt lat="46.94214" lon="8.57592">
        <ele>713</ele>
        <time>2021-08-10T10:22:17.776Z</time>
      </trkpt>
      <trkpt lat="46.94212" lon="8.57593">
        <ele>713</ele>
        <time>2021-08-10T10:22:18.776Z</time>
      </trkpt>
      <trkpt lat="46.9421" lon="8.57595">
        <ele>713</ele>
        <time>2021-08-10T10:22:19.776Z</time>
      </trkpt>
      <trkpt lat="46.94208" lon="8.57594">
        <ele>712</ele>
        <time>2021-08-10T10:22:20.777Z</time>
      </trkpt>
      <trkpt lat="46.94207" lon="8.57594">
        <ele>712</ele>
        <time>2021-08-10T10:22:21.777Z</time>
      </trkpt>
      <trkpt lat="46.94206" lon="8.57594">
        <ele>712</ele>
        <time>2021-08-10T10:22:22.777Z</time>
      </trkpt>
      <trkpt lat="46.94205" lon="8.57593">
        <ele>712</ele>
        <time>2021-08-10T10:22:23.777Z</time>
      </trkpt>
      <trkpt lat="46.94204" lon="8.57593">
        <ele>712</ele>
        <time>2021-08-10T10:22:24.777Z</time>
      </trkpt>
      <trkpt lat="46.94203" lon="8.57593">
        <ele>712</ele>
        <time>2021-08-10T10:22:25.777Z</time>
      </trkpt>
      <trkpt lat="46.94203" lon="8.57593">
        <ele>712</ele>
        <time>2021-08-10T10:22:26.777Z</time>
      </trkpt>
      <trkpt lat="46.94202" lon="8.57593">
        <ele>712</ele>
        <time>2021-08-10T10:22:27.777Z</time>
      </trkpt>
      <trkpt lat="46.94201" lon="8.57593">
        <ele>713</ele>
        <time>2021-08-10T10:22:28.777Z</time>
      </trkpt>
      <trkpt lat="46.942" lon="8.57593">
        <ele>713</ele>
        <time>2021-08-10T10:22:29.777Z</time>
      </trkpt>
      <trkpt lat="46.94199" lon="8.57593">
        <ele>713</ele>
        <time>2021-08-10T10:22:30.777Z</time>
      </trkpt>
      <trkpt lat="46.94198" lon="8.57593">
        <ele>713</ele>
        <time>2021-08-10T10:22:31.776Z</time>
      </trkpt>
      <trkpt lat="46.94197" lon="8.57594">
        <ele>713</ele>
        <time>2021-08-10T10:22:32.776Z</time>
      </trkpt>
      <trkpt lat="46.94197" lon="8.57594">
        <ele>713</ele>
        <time>2021-08-10T10:22:33.777Z</time>
      </trkpt>
      <trkpt lat="46.94196" lon="8.57595">
        <ele>713</ele>
        <time>2021-08-10T10:22:34.777Z</time>
      </trkpt>
      <trkpt lat="46.94196" lon="8.57594">
        <ele>713</ele>
        <time>2021-08-10T10:22:35.777Z</time>
      </trkpt>
      <trkpt lat="46.94195" lon="8.57594">
        <ele>713</ele>
        <time>2021-08-10T10:22:36.777Z</time>
      </trkpt>
      <trkpt lat="46.94194" lon="8.57593">
        <ele>714</ele>
        <time>2021-08-10T10:22:37.777Z</time>
      </trkpt>
      <trkpt lat="46.94193" lon="8.57591">
        <ele>714</ele>
        <time>2021-08-10T10:22:38.776Z</time>
      </trkpt>
      <trkpt lat="46.94193" lon="8.57589">
        <ele>714</ele>
        <time>2021-08-10T10:22:39.777Z</time>
      </trkpt>
      <trkpt lat="46.94192" lon="8.57589">
        <ele>714</ele>
        <time>2021-08-10T10:22:40.777Z</time>
      </trkpt>
      <trkpt lat="46.94192" lon="8.57589">
        <ele>714</ele>
        <time>2021-08-10T10:22:41.777Z</time>
      </trkpt>
      <trkpt lat="46.94191" lon="8.57589">
        <ele>714</ele>
        <time>2021-08-10T10:22:42.777Z</time>
      </trkpt>
      <trkpt lat="46.9419" lon="8.57588">
        <ele>713</ele>
        <time>2021-08-10T10:22:43.776Z</time>
      </trkpt>
      <trkpt lat="46.94189" lon="8.57587">
        <ele>713</ele>
        <time>2021-08-10T10:22:44.776Z</time>
      </trkpt>
      <trkpt lat="46.94188" lon="8.57587">
        <ele>712</ele>
        <time>2021-08-10T10:22:45.777Z</time>
      </trkpt>
      <trkpt lat="46.94187" lon="8.57587">
        <ele>711</ele>
        <time>2021-08-10T10:22:46.777Z</time>
      </trkpt>
      <trkpt lat="46.94185" lon="8.57587">
        <ele>710</ele>
        <time>2021-08-10T10:22:47.776Z</time>
      </trkpt>
      <trkpt lat="46.94184" lon="8.57587">
        <ele>708</ele>
        <time>2021-08-10T10:22:48.777Z</time>
      </trkpt>
      <trkpt lat="46.94183" lon="8.57588">
        <ele>708</ele>
        <time>2021-08-10T10:22:49.777Z</time>
      </trkpt>
      <trkpt lat="46.94181" lon="8.57587">
        <ele>707</ele>
        <time>2021-08-10T10:22:50.777Z</time>
      </trkpt>
      <trkpt lat="46.9418" lon="8.57587">
        <ele>706</ele>
        <time>2021-08-10T10:22:51.776Z</time>
      </trkpt>
      <trkpt lat="46.94179" lon="8.57587">
        <ele>706</ele>
        <time>2021-08-10T10:22:52.777Z</time>
      </trkpt>
      <trkpt lat="46.94177" lon="8.57586">
        <ele>706</ele>
        <time>2021-08-10T10:22:53.777Z</time>
      </trkpt>
      <trkpt lat="46.94176" lon="8.57586">
        <ele>705</ele>
        <time>2021-08-10T10:22:54.777Z</time>
      </trkpt>
      <trkpt lat="46.94175" lon="8.57587">
        <ele>705</ele>
        <time>2021-08-10T10:22:55.777Z</time>
      </trkpt>
      <trkpt lat="46.94174" lon="8.57589">
        <ele>705</ele>
        <time>2021-08-10T10:22:56.777Z</time>
      </trkpt>
      <trkpt lat="46.94174" lon="8.57589">
        <ele>705</ele>
        <time>2021-08-10T10:22:57.776Z</time>
      </trkpt>
      <trkpt lat="46.94174" lon="8.57589">
        <ele>705</ele>
        <time>2021-08-10T10:22:58.777Z</time>
      </trkpt>
      <trkpt lat="46.94173" lon="8.5759">
        <ele>705</ele>
        <time>2021-08-10T10:22:59.777Z</time>
      </trkpt>
      <trkpt lat="46.94172" lon="8.5759">
        <ele>705</ele>
        <time>2021-08-10T10:23:00.777Z</time>
      </trkpt>
      <trkpt lat="46.94171" lon="8.5759">
        <ele>705</ele>
        <time>2021-08-10T10:23:01.777Z</time>
      </trkpt>
      <trkpt lat="46.94171" lon="8.5759">
        <ele>706</ele>
        <time>2021-08-10T10:23:02.777Z</time>
      </trkpt>
      <trkpt lat="46.9417" lon="8.5759">
        <ele>706</ele>
        <time>2021-08-10T10:23:03.778Z</time>
      </trkpt>
      <trkpt lat="46.9417" lon="8.5759">
        <ele>706</ele>
        <time>2021-08-10T10:23:04.777Z</time>
      </trkpt>
      <trkpt lat="46.94169" lon="8.57591">
        <ele>706</ele>
        <time>2021-08-10T10:23:05.777Z</time>
      </trkpt>
      <trkpt lat="46.94168" lon="8.57592">
        <ele>706</ele>
        <time>2021-08-10T10:23:06.778Z</time>
      </trkpt>
      <trkpt lat="46.94167" lon="8.57592">
        <ele>706</ele>
        <time>2021-08-10T10:23:07.777Z</time>
      </trkpt>
      <trkpt lat="46.94166" lon="8.57593">
        <ele>706</ele>
        <time>2021-08-10T10:23:08.778Z</time>
      </trkpt>
      <trkpt lat="46.94164" lon="8.57594">
        <ele>706</ele>
        <time>2021-08-10T10:23:09.777Z</time>
      </trkpt>
      <trkpt lat="46.94163" lon="8.57595">
        <ele>706</ele>
        <time>2021-08-10T10:23:10.777Z</time>
      </trkpt>
      <trkpt lat="46.94161" lon="8.57596">
        <ele>706</ele>
        <time>2021-08-10T10:23:11.777Z</time>
      </trkpt>
      <trkpt lat="46.9416" lon="8.57598">
        <ele>706</ele>
        <time>2021-08-10T10:23:12.777Z</time>
      </trkpt>
      <trkpt lat="46.94159" lon="8.57599">
        <ele>706</ele>
        <time>2021-08-10T10:23:13.778Z</time>
      </trkpt>
      <trkpt lat="46.94158" lon="8.57601">
        <ele>706</ele>
        <time>2021-08-10T10:23:14.777Z</time>
      </trkpt>
      <trkpt lat="46.94158" lon="8.57602">
        <ele>706</ele>
        <time>2021-08-10T10:23:15.777Z</time>
      </trkpt>
      <trkpt lat="46.94158" lon="8.57604">
        <ele>706</ele>
        <time>2021-08-10T10:23:16.778Z</time>
      </trkpt>
      <trkpt lat="46.94158" lon="8.57605">
        <ele>706</ele>
        <time>2021-08-10T10:23:17.778Z</time>
      </trkpt>
      <trkpt lat="46.94158" lon="8.57606">
        <ele>707</ele>
        <time>2021-08-10T10:23:18.777Z</time>
      </trkpt>
      <trkpt lat="46.94157" lon="8.57615">
        <ele>710</ele>
        <time>2021-08-10T10:23:19.777Z</time>
      </trkpt>
      <trkpt lat="46.94157" lon="8.57617">
        <ele>710</ele>
        <time>2021-08-10T10:23:20.777Z</time>
      </trkpt>
      <trkpt lat="46.94152" lon="8.57624">
        <ele>711</ele>
        <time>2021-08-10T10:23:21.778Z</time>
      </trkpt>
      <trkpt lat="46.94152" lon="8.57625">
        <ele>712</ele>
        <time>2021-08-10T10:23:22.778Z</time>
      </trkpt>
      <trkpt lat="46.94153" lon="8.57627">
        <ele>713</ele>
        <time>2021-08-10T10:23:23.777Z</time>
      </trkpt>
      <trkpt lat="46.94156" lon="8.57632">
        <ele>719</ele>
        <time>2021-08-10T10:23:24.777Z</time>
      </trkpt>
      <trkpt lat="46.94156" lon="8.57632">
        <ele>719</ele>
        <time>2021-08-10T10:23:25.777Z</time>
      </trkpt>
      <trkpt lat="46.94151" lon="8.57639">
        <ele>723</ele>
        <time>2021-08-10T10:23:26.777Z</time>
      </trkpt>
      <trkpt lat="46.94151" lon="8.57639">
        <ele>723</ele>
        <time>2021-08-10T10:23:27.777Z</time>
      </trkpt>
      <trkpt lat="46.94154" lon="8.57636">
        <ele>731</ele>
        <time>2021-08-10T10:23:28.778Z</time>
      </trkpt>
      <trkpt lat="46.94154" lon="8.57635">
        <ele>731</ele>
        <time>2021-08-10T10:23:29.777Z</time>
      </trkpt>
      <trkpt lat="46.94154" lon="8.57635">
        <ele>732</ele>
        <time>2021-08-10T10:23:30.778Z</time>
      </trkpt>
      <trkpt lat="46.94154" lon="8.57634">
        <ele>732</ele>
        <time>2021-08-10T10:23:31.778Z</time>
      </trkpt>
      <trkpt lat="46.94154" lon="8.57634">
        <ele>732</ele>
        <time>2021-08-10T10:23:32.778Z</time>
      </trkpt>
      <trkpt lat="46.94154" lon="8.57632">
        <ele>723</ele>
        <time>2021-08-10T10:23:33.779Z</time>
      </trkpt>
      <trkpt lat="46.94154" lon="8.57631">
        <ele>722</ele>
        <time>2021-08-10T10:23:34.778Z</time>
      </trkpt>
      <trkpt lat="46.94155" lon="8.57632">
        <ele>721</ele>
        <time>2021-08-10T10:23:35.778Z</time>
      </trkpt>
      <trkpt lat="46.94155" lon="8.57632">
        <ele>720</ele>
        <time>2021-08-10T10:23:36.778Z</time>
      </trkpt>
      <trkpt lat="46.94155" lon="8.57633">
        <ele>718</ele>
        <time>2021-08-10T10:23:37.778Z</time>
      </trkpt>
      <trkpt lat="46.94157" lon="8.57631">
        <ele>714</ele>
        <time>2021-08-10T10:23:38.779Z</time>
      </trkpt>
      <trkpt lat="46.94157" lon="8.5763">
        <ele>714</ele>
        <time>2021-08-10T10:23:39.779Z</time>
      </trkpt>
      <trkpt lat="46.94157" lon="8.57629">
        <ele>713</ele>
        <time>2021-08-10T10:23:40.779Z</time>
      </trkpt>
      <trkpt lat="46.94158" lon="8.57628">
        <ele>712</ele>
        <time>2021-08-10T10:23:41.779Z</time>
      </trkpt>
      <trkpt lat="46.94158" lon="8.57628">
        <ele>712</ele>
        <time>2021-08-10T10:23:42.779Z</time>
      </trkpt>
      <trkpt lat="46.94158" lon="8.57627">
        <ele>711</ele>
        <time>2021-08-10T10:23:43.778Z</time>
      </trkpt>
      <trkpt lat="46.9416" lon="8.57625">
        <ele>709</ele>
        <time>2021-08-10T10:23:44.779Z</time>
      </trkpt>
      <trkpt lat="46.9416" lon="8.57625">
        <ele>709</ele>
        <time>2021-08-10T10:23:45.778Z</time>
      </trkpt>
      <trkpt lat="46.94161" lon="8.57624">
        <ele>709</ele>
        <time>2021-08-10T10:23:46.778Z</time>
      </trkpt>
      <trkpt lat="46.94161" lon="8.57624">
        <ele>709</ele>
        <time>2021-08-10T10:23:47.778Z</time>
      </trkpt>
      <trkpt lat="46.94161" lon="8.57623">
        <ele>709</ele>
        <time>2021-08-10T10:23:48.779Z</time>
      </trkpt>
      <trkpt lat="46.94162" lon="8.57623">
        <ele>708</ele>
        <time>2021-08-10T10:23:49.778Z</time>
      </trkpt>
      <trkpt lat="46.94162" lon="8.57623">
        <ele>708</ele>
        <time>2021-08-10T10:23:50.779Z</time>
      </trkpt>
      <trkpt lat="46.94162" lon="8.57623">
        <ele>709</ele>
        <time>2021-08-10T10:23:51.778Z</time>
      </trkpt>
      <trkpt lat="46.94163" lon="8.57623">
        <ele>709</ele>
        <time>2021-08-10T10:23:52.778Z</time>
      </trkpt>
      <trkpt lat="46.94163" lon="8.57623">
        <ele>709</ele>
        <time>2021-08-10T10:23:53.779Z</time>
      </trkpt>
      <trkpt lat="46.94163" lon="8.57624">
        <ele>709</ele>
        <time>2021-08-10T10:23:54.779Z</time>
      </trkpt>
      <trkpt lat="46.94163" lon="8.57623">
        <ele>709</ele>
        <time>2021-08-10T10:23:55.779Z</time>
      </trkpt>
      <trkpt lat="46.94164" lon="8.57617">
        <ele>709</ele>
        <time>2021-08-10T10:23:56.780Z</time>
      </trkpt>
      <trkpt lat="46.94164" lon="8.57617">
        <ele>709</ele>
        <time>2021-08-10T10:23:57.780Z</time>
      </trkpt>
      <trkpt lat="46.94164" lon="8.57616">
        <ele>709</ele>
        <time>2021-08-10T10:23:58.779Z</time>
      </trkpt>
      <trkpt lat="46.94159" lon="8.57619">
        <ele>705</ele>
        <time>2021-08-10T10:23:59.780Z</time>
      </trkpt>
      <trkpt lat="46.94159" lon="8.57618">
        <ele>704</ele>
        <time>2021-08-10T10:24:00.781Z</time>
      </trkpt>
      <trkpt lat="46.94161" lon="8.57618">
        <ele>704</ele>
        <time>2021-08-10T10:24:01.781Z</time>
      </trkpt>
      <trkpt lat="46.94161" lon="8.57618">
        <ele>705</ele>
        <time>2021-08-10T10:24:02.781Z</time>
      </trkpt>
      <trkpt lat="46.94161" lon="8.57619">
        <ele>705</ele>
        <time>2021-08-10T10:24:03.780Z</time>
      </trkpt>
      <trkpt lat="46.94161" lon="8.57623">
        <ele>709</ele>
        <time>2021-08-10T10:24:04.780Z</time>
      </trkpt>
      <trkpt lat="46.94161" lon="8.57624">
        <ele>709</ele>
        <time>2021-08-10T10:24:05.780Z</time>
      </trkpt>
      <trkpt lat="46.9416" lon="8.57627">
        <ele>710</ele>
        <time>2021-08-10T10:24:06.780Z</time>
      </trkpt>
      <trkpt lat="46.94159" lon="8.5763">
        <ele>710</ele>
        <time>2021-08-10T10:24:07.780Z</time>
      </trkpt>
      <trkpt lat="46.94162" lon="8.5763">
        <ele>720</ele>
        <time>2021-08-10T10:24:08.781Z</time>
      </trkpt>
      <trkpt lat="46.94163" lon="8.57631">
        <ele>720</ele>
        <time>2021-08-10T10:24:09.781Z</time>
      </trkpt>
      <trkpt lat="46.94164" lon="8.57631">
        <ele>721</ele>
        <time>2021-08-10T10:24:10.781Z</time>
      </trkpt>
      <trkpt lat="46.94164" lon="8.57632">
        <ele>722</ele>
        <time>2021-08-10T10:24:11.781Z</time>
      </trkpt>
      <trkpt lat="46.94166" lon="8.57632">
        <ele>722</ele>
        <time>2021-08-10T10:24:12.781Z</time>
      </trkpt>
      <trkpt lat="46.94166" lon="8.57633">
        <ele>722</ele>
        <time>2021-08-10T10:24:13.782Z</time>
      </trkpt>
      <trkpt lat="46.94166" lon="8.57633">
        <ele>722</ele>
        <time>2021-08-10T10:24:14.782Z</time>
      </trkpt>
      <trkpt lat="46.94166" lon="8.57633">
        <ele>722</ele>
        <time>2021-08-10T10:24:15.782Z</time>
      </trkpt>
      <trkpt lat="46.94169" lon="8.57632">
        <ele>721</ele>
        <time>2021-08-10T10:24:16.782Z</time>
      </trkpt>
      <trkpt lat="46.94165" lon="8.57631">
        <ele>719</ele>
        <time>2021-08-10T10:24:17.783Z</time>
      </trkpt>
      <trkpt lat="46.94163" lon="8.5763">
        <ele>717</ele>
        <time>2021-08-10T10:24:18.783Z</time>
      </trkpt>
      <trkpt lat="46.94162" lon="8.57629">
        <ele>717</ele>
        <time>2021-08-10T10:24:19.782Z</time>
      </trkpt>
      <trkpt lat="46.94161" lon="8.57629">
        <ele>717</ele>
        <time>2021-08-10T10:24:20.782Z</time>
      </trkpt>
      <trkpt lat="46.94159" lon="8.57628">
        <ele>717</ele>
        <time>2021-08-10T10:24:21.782Z</time>
      </trkpt>
      <trkpt lat="46.94158" lon="8.57626">
        <ele>717</ele>
        <time>2021-08-10T10:24:22.782Z</time>
      </trkpt>
      <trkpt lat="46.94158" lon="8.57627">
        <ele>716</ele>
        <time>2021-08-10T10:24:23.782Z</time>
      </trkpt>
      <trkpt lat="46.94157" lon="8.57627">
        <ele>716</ele>
        <time>2021-08-10T10:24:24.782Z</time>
      </trkpt>
      <trkpt lat="46.94156" lon="8.57628">
        <ele>715</ele>
        <time>2021-08-10T10:24:25.782Z</time>
      </trkpt>
      <trkpt lat="46.94156" lon="8.57629">
        <ele>715</ele>
        <time>2021-08-10T10:24:26.783Z</time>
      </trkpt>
      <trkpt lat="46.94155" lon="8.57629">
        <ele>714</ele>
        <time>2021-08-10T10:24:27.782Z</time>
      </trkpt>
      <trkpt lat="46.94156" lon="8.5763">
        <ele>714</ele>
        <time>2021-08-10T10:24:28.782Z</time>
      </trkpt>
      <trkpt lat="46.94156" lon="8.57631">
        <ele>714</ele>
        <time>2021-08-10T10:24:29.782Z</time>
      </trkpt>
      <trkpt lat="46.94156" lon="8.57632">
        <ele>713</ele>
        <time>2021-08-10T10:24:30.782Z</time>
      </trkpt>
      <trkpt lat="46.94156" lon="8.57633">
        <ele>712</ele>
        <time>2021-08-10T10:24:31.783Z</time>
      </trkpt>
      <trkpt lat="46.94156" lon="8.57634">
        <ele>711</ele>
        <time>2021-08-10T10:24:32.782Z</time>
      </trkpt>
      <trkpt lat="46.94157" lon="8.57635">
        <ele>711</ele>
        <time>2021-08-10T10:24:33.782Z</time>
      </trkpt>
      <trkpt lat="46.94157" lon="8.57636">
        <ele>710</ele>
        <time>2021-08-10T10:24:34.782Z</time>
      </trkpt>
      <trkpt lat="46.94157" lon="8.57637">
        <ele>710</ele>
        <time>2021-08-10T10:24:35.782Z</time>
      </trkpt>
      <trkpt lat="46.94158" lon="8.57638">
        <ele>709</ele>
        <time>2021-08-10T10:24:36.782Z</time>
      </trkpt>
      <trkpt lat="46.94158" lon="8.57639">
        <ele>709</ele>
        <time>2021-08-10T10:24:37.782Z</time>
      </trkpt>
      <trkpt lat="46.94158" lon="8.57639">
        <ele>709</ele>
        <time>2021-08-10T10:24:38.782Z</time>
      </trkpt>
      <trkpt lat="46.94158" lon="8.57641">
        <ele>709</ele>
        <time>2021-08-10T10:24:39.782Z</time>
      </trkpt>
      <trkpt lat="46.94157" lon="8.57642">
        <ele>709</ele>
        <time>2021-08-10T10:24:40.782Z</time>
      </trkpt>
      <trkpt lat="46.94157" lon="8.57641">
        <ele>709</ele>
        <time>2021-08-10T10:24:41.783Z</time>
      </trkpt>
      <trkpt lat="46.94156" lon="8.57641">
        <ele>709</ele>
        <time>2021-08-10T10:24:42.783Z</time>
      </trkpt>
      <trkpt lat="46.94156" lon="8.57641">
        <ele>708</ele>
        <time>2021-08-10T10:24:43.782Z</time>
      </trkpt>
      <trkpt lat="46.94155" lon="8.57641">
        <ele>707</ele>
        <time>2021-08-10T10:24:44.782Z</time>
      </trkpt>
      <trkpt lat="46.94154" lon="8.5764">
        <ele>706</ele>
        <time>2021-08-10T10:24:45.782Z</time>
      </trkpt>
      <trkpt lat="46.94153" lon="8.5764">
        <ele>705</ele>
        <time>2021-08-10T10:24:46.783Z</time>
      </trkpt>
      <trkpt lat="46.94153" lon="8.5764">
        <ele>704</ele>
        <time>2021-08-10T10:24:47.783Z</time>
      </trkpt>
      <trkpt lat="46.94153" lon="8.5764">
        <ele>703</ele>
        <time>2021-08-10T10:24:48.782Z</time>
      </trkpt>
      <trkpt lat="46.94155" lon="8.57641">
        <ele>702</ele>
        <time>2021-08-10T10:24:49.783Z</time>
      </trkpt>
      <trkpt lat="46.94156" lon="8.57641">
        <ele>701</ele>
        <time>2021-08-10T10:24:50.783Z</time>
      </trkpt>
      <trkpt lat="46.94156" lon="8.57641">
        <ele>700</ele>
        <time>2021-08-10T10:24:51.783Z</time>
      </trkpt>
      <trkpt lat="46.94157" lon="8.57641">
        <ele>699</ele>
        <time>2021-08-10T10:24:52.783Z</time>
      </trkpt>
      <trkpt lat="46.94157" lon="8.57642">
        <ele>698</ele>
        <time>2021-08-10T10:24:53.783Z</time>
      </trkpt>
      <trkpt lat="46.94157" lon="8.57643">
        <ele>697</ele>
        <time>2021-08-10T10:24:54.782Z</time>
      </trkpt>
      <trkpt lat="46.94157" lon="8.57643">
        <ele>696</ele>
        <time>2021-08-10T10:24:55.783Z</time>
      </trkpt>
      <trkpt lat="46.94157" lon="8.57643">
        <ele>695</ele>
        <time>2021-08-10T10:24:56.782Z</time>
      </trkpt>
      <trkpt lat="46.94157" lon="8.57642">
        <ele>694</ele>
        <time>2021-08-10T10:24:57.782Z</time>
      </trkpt>
      <trkpt lat="46.94157" lon="8.57642">
        <ele>693</ele>
        <time>2021-08-10T10:24:58.783Z</time>
      </trkpt>
      <trkpt lat="46.94157" lon="8.57642">
        <ele>692</ele>
        <time>2021-08-10T10:24:59.783Z</time>
      </trkpt>
      <trkpt lat="46.94157" lon="8.57643">
        <ele>691</ele>
        <time>2021-08-10T10:25:00.783Z</time>
      </trkpt>
      <trkpt lat="46.94157" lon="8.57643">
        <ele>690</ele>
        <time>2021-08-10T10:25:01.782Z</time>
      </trkpt>
      <trkpt lat="46.94156" lon="8.57644">
        <ele>689</ele>
        <time>2021-08-10T10:25:02.783Z</time>
      </trkpt>
      <trkpt lat="46.94156" lon="8.57645">
        <ele>688</ele>
        <time>2021-08-10T10:25:03.782Z</time>
      </trkpt>
      <trkpt lat="46.94155" lon="8.57645">
        <ele>686</ele>
        <time>2021-08-10T10:25:04.783Z</time>
      </trkpt>
      <trkpt lat="46.94155" lon="8.57645">
        <ele>685</ele>
        <time>2021-08-10T10:25:05.783Z</time>
      </trkpt>
      <trkpt lat="46.94154" lon="8.57645">
        <ele>684</ele>
        <time>2021-08-10T10:25:06.783Z</time>
      </trkpt>
      <trkpt lat="46.94154" lon="8.57645">
        <ele>683</ele>
        <time>2021-08-10T10:25:07.783Z</time>
      </trkpt>
      <trkpt lat="46.94153" lon="8.57645">
        <ele>682</ele>
        <time>2021-08-10T10:25:08.782Z</time>
      </trkpt>
      <trkpt lat="46.94153" lon="8.57645">
        <ele>681</ele>
        <time>2021-08-10T10:25:09.783Z</time>
      </trkpt>
      <trkpt lat="46.94152" lon="8.57644">
        <ele>680</ele>
        <time>2021-08-10T10:25:10.782Z</time>
      </trkpt>
      <trkpt lat="46.94152" lon="8.57644">
        <ele>679</ele>
        <time>2021-08-10T10:25:11.782Z</time>
      </trkpt>
      <trkpt lat="46.94151" lon="8.57644">
        <ele>678</ele>
        <time>2021-08-10T10:25:12.783Z</time>
      </trkpt>
      <trkpt lat="46.9415" lon="8.57644">
        <ele>678</ele>
        <time>2021-08-10T10:25:13.782Z</time>
      </trkpt>
      <trkpt lat="46.9415" lon="8.57644">
        <ele>677</ele>
        <time>2021-08-10T10:25:14.782Z</time>
      </trkpt>
      <trkpt lat="46.94149" lon="8.57644">
        <ele>676</ele>
        <time>2021-08-10T10:25:15.783Z</time>
      </trkpt>
      <trkpt lat="46.94148" lon="8.57645">
        <ele>676</ele>
        <time>2021-08-10T10:25:16.783Z</time>
      </trkpt>
      <trkpt lat="46.94148" lon="8.57645">
        <ele>676</ele>
        <time>2021-08-10T10:25:17.783Z</time>
      </trkpt>
      <trkpt lat="46.94147" lon="8.57645">
        <ele>676</ele>
        <time>2021-08-10T10:25:18.783Z</time>
      </trkpt>
      <trkpt lat="46.94146" lon="8.57643">
        <ele>676</ele>
        <time>2021-08-10T10:25:19.783Z</time>
      </trkpt>
      <trkpt lat="46.94144" lon="8.57643">
        <ele>676</ele>
        <time>2021-08-10T10:25:20.783Z</time>
      </trkpt>
      <trkpt lat="46.94142" lon="8.57643">
        <ele>676</ele>
        <time>2021-08-10T10:25:21.783Z</time>
      </trkpt>
      <trkpt lat="46.94141" lon="8.57642">
        <ele>676</ele>
        <time>2021-08-10T10:25:22.782Z</time>
      </trkpt>
      <trkpt lat="46.94141" lon="8.57642">
        <ele>675</ele>
        <time>2021-08-10T10:25:23.783Z</time>
      </trkpt>
      <trkpt lat="46.9414" lon="8.57643">
        <ele>675</ele>
        <time>2021-08-10T10:25:24.783Z</time>
      </trkpt>
      <trkpt lat="46.94139" lon="8.57643">
        <ele>674</ele>
        <time>2021-08-10T10:25:25.782Z</time>
      </trkpt>
      <trkpt lat="46.94138" lon="8.57643">
        <ele>674</ele>
        <time>2021-08-10T10:25:26.783Z</time>
      </trkpt>
      <trkpt lat="46.94137" lon="8.57643">
        <ele>674</ele>
        <time>2021-08-10T10:25:27.783Z</time>
      </trkpt>
      <trkpt lat="46.94136" lon="8.57643">
        <ele>673</ele>
        <time>2021-08-10T10:25:28.783Z</time>
      </trkpt>
      <trkpt lat="46.94136" lon="8.57643">
        <ele>673</ele>
        <time>2021-08-10T10:25:29.782Z</time>
      </trkpt>
      <trkpt lat="46.94136" lon="8.57643">
        <ele>672</ele>
        <time>2021-08-10T10:25:30.783Z</time>
      </trkpt>
      <trkpt lat="46.94135" lon="8.57644">
        <ele>672</ele>
        <time>2021-08-10T10:25:31.782Z</time>
      </trkpt>
      <trkpt lat="46.94134" lon="8.57644">
        <ele>671</ele>
        <time>2021-08-10T10:25:32.783Z</time>
      </trkpt>
      <trkpt lat="46.94133" lon="8.57644">
        <ele>670</ele>
        <time>2021-08-10T10:25:33.783Z</time>
      </trkpt>
      <trkpt lat="46.94132" lon="8.57644">
        <ele>669</ele>
        <time>2021-08-10T10:25:34.783Z</time>
      </trkpt>
      <trkpt lat="46.94132" lon="8.57642">
        <ele>669</ele>
        <time>2021-08-10T10:25:35.782Z</time>
      </trkpt>
      <trkpt lat="46.94131" lon="8.57641">
        <ele>668</ele>
        <time>2021-08-10T10:25:36.782Z</time>
      </trkpt>
      <trkpt lat="46.9413" lon="8.57641">
        <ele>668</ele>
        <time>2021-08-10T10:25:37.782Z</time>
      </trkpt>
      <trkpt lat="46.9413" lon="8.5764">
        <ele>667</ele>
        <time>2021-08-10T10:25:38.782Z</time>
      </trkpt>
      <trkpt lat="46.94129" lon="8.57641">
        <ele>667</ele>
        <time>2021-08-10T10:25:39.783Z</time>
      </trkpt>
      <trkpt lat="46.94129" lon="8.57642">
        <ele>667</ele>
        <time>2021-08-10T10:25:40.783Z</time>
      </trkpt>
      <trkpt lat="46.94128" lon="8.57643">
        <ele>668</ele>
        <time>2021-08-10T10:25:41.783Z</time>
      </trkpt>
      <trkpt lat="46.94128" lon="8.57645">
        <ele>669</ele>
        <time>2021-08-10T10:25:42.783Z</time>
      </trkpt>
      <trkpt lat="46.94127" lon="8.57646">
        <ele>670</ele>
        <time>2021-08-10T10:25:43.783Z</time>
      </trkpt>
      <trkpt lat="46.94127" lon="8.57646">
        <ele>671</ele>
        <time>2021-08-10T10:25:44.783Z</time>
      </trkpt>
      <trkpt lat="46.94127" lon="8.57647">
        <ele>672</ele>
        <time>2021-08-10T10:25:45.782Z</time>
      </trkpt>
      <trkpt lat="46.94127" lon="8.57648">
        <ele>672</ele>
        <time>2021-08-10T10:25:46.782Z</time>
      </trkpt>
      <trkpt lat="46.94127" lon="8.57648">
        <ele>673</ele>
        <time>2021-08-10T10:25:47.782Z</time>
      </trkpt>
      <trkpt lat="46.94127" lon="8.57649">
        <ele>672</ele>
        <time>2021-08-10T10:25:48.783Z</time>
      </trkpt>
      <trkpt lat="46.94126" lon="8.57649">
        <ele>672</ele>
        <time>2021-08-10T10:25:49.783Z</time>
      </trkpt>
      <trkpt lat="46.94126" lon="8.5765">
        <ele>672</ele>
        <time>2021-08-10T10:25:50.783Z</time>
      </trkpt>
      <trkpt lat="46.94125" lon="8.57651">
        <ele>672</ele>
        <time>2021-08-10T10:25:51.783Z</time>
      </trkpt>
      <trkpt lat="46.94124" lon="8.57652">
        <ele>672</ele>
        <time>2021-08-10T10:25:52.783Z</time>
      </trkpt>
      <trkpt lat="46.94123" lon="8.57652">
        <ele>672</ele>
        <time>2021-08-10T10:25:53.782Z</time>
      </trkpt>
      <trkpt lat="46.94123" lon="8.57652">
        <ele>672</ele>
        <time>2021-08-10T10:25:54.783Z</time>
      </trkpt>
      <trkpt lat="46.94122" lon="8.57653">
        <ele>671</ele>
        <time>2021-08-10T10:25:55.783Z</time>
      </trkpt>
      <trkpt lat="46.9412" lon="8.57653">
        <ele>671</ele>
        <time>2021-08-10T10:25:56.783Z</time>
      </trkpt>
      <trkpt lat="46.9412" lon="8.57654">
        <ele>670</ele>
        <time>2021-08-10T10:25:57.783Z</time>
      </trkpt>
      <trkpt lat="46.94119" lon="8.57655">
        <ele>670</ele>
        <time>2021-08-10T10:25:58.783Z</time>
      </trkpt>
      <trkpt lat="46.94118" lon="8.57656">
        <ele>669</ele>
        <time>2021-08-10T10:25:59.783Z</time>
      </trkpt>
      <trkpt lat="46.94117" lon="8.57656">
        <ele>669</ele>
        <time>2021-08-10T10:26:00.782Z</time>
      </trkpt>
      <trkpt lat="46.94116" lon="8.57656">
        <ele>669</ele>
        <time>2021-08-10T10:26:01.783Z</time>
      </trkpt>
      <trkpt lat="46.94115" lon="8.57657">
        <ele>669</ele>
        <time>2021-08-10T10:26:02.783Z</time>
      </trkpt>
      <trkpt lat="46.94115" lon="8.57658">
        <ele>670</ele>
        <time>2021-08-10T10:26:03.783Z</time>
      </trkpt>
      <trkpt lat="46.94114" lon="8.57659">
        <ele>670</ele>
        <time>2021-08-10T10:26:04.783Z</time>
      </trkpt>
      <trkpt lat="46.94114" lon="8.5766">
        <ele>670</ele>
        <time>2021-08-10T10:26:05.782Z</time>
      </trkpt>
      <trkpt lat="46.94114" lon="8.57661">
        <ele>670</ele>
        <time>2021-08-10T10:26:06.782Z</time>
      </trkpt>
      <trkpt lat="46.94115" lon="8.57662">
        <ele>669</ele>
        <time>2021-08-10T10:26:07.783Z</time>
      </trkpt>
      <trkpt lat="46.94115" lon="8.57663">
        <ele>668</ele>
        <time>2021-08-10T10:26:08.783Z</time>
      </trkpt>
      <trkpt lat="46.94116" lon="8.57665">
        <ele>667</ele>
        <time>2021-08-10T10:26:09.783Z</time>
      </trkpt>
      <trkpt lat="46.94116" lon="8.57666">
        <ele>666</ele>
        <time>2021-08-10T10:26:10.782Z</time>
      </trkpt>
      <trkpt lat="46.94117" lon="8.57667">
        <ele>666</ele>
        <time>2021-08-10T10:26:11.783Z</time>
      </trkpt>
      <trkpt lat="46.94117" lon="8.57668">
        <ele>665</ele>
        <time>2021-08-10T10:26:12.782Z</time>
      </trkpt>
      <trkpt lat="46.94118" lon="8.57668">
        <ele>664</ele>
        <time>2021-08-10T10:26:13.783Z</time>
      </trkpt>
      <trkpt lat="46.94118" lon="8.57669">
        <ele>663</ele>
        <time>2021-08-10T10:26:14.783Z</time>
      </trkpt>
      <trkpt lat="46.94117" lon="8.5767">
        <ele>663</ele>
        <time>2021-08-10T10:26:15.782Z</time>
      </trkpt>
      <trkpt lat="46.94117" lon="8.5767">
        <ele>663</ele>
        <time>2021-08-10T10:26:16.783Z</time>
      </trkpt>
      <trkpt lat="46.94117" lon="8.5767">
        <ele>662</ele>
        <time>2021-08-10T10:26:17.782Z</time>
      </trkpt>
      <trkpt lat="46.94117" lon="8.5767">
        <ele>662</ele>
        <time>2021-08-10T10:26:18.783Z</time>
      </trkpt>
      <trkpt lat="46.94116" lon="8.5767">
        <ele>661</ele>
        <time>2021-08-10T10:26:19.782Z</time>
      </trkpt>
      <trkpt lat="46.94115" lon="8.5767">
        <ele>661</ele>
        <time>2021-08-10T10:26:20.783Z</time>
      </trkpt>
      <trkpt lat="46.94115" lon="8.57669">
        <ele>660</ele>
        <time>2021-08-10T10:26:21.783Z</time>
      </trkpt>
      <trkpt lat="46.94114" lon="8.57669">
        <ele>660</ele>
        <time>2021-08-10T10:26:22.783Z</time>
      </trkpt>
      <trkpt lat="46.94114" lon="8.57669">
        <ele>659</ele>
        <time>2021-08-10T10:26:23.782Z</time>
      </trkpt>
      <trkpt lat="46.94113" lon="8.57669">
        <ele>659</ele>
        <time>2021-08-10T10:26:24.782Z</time>
      </trkpt>
      <trkpt lat="46.94112" lon="8.5767">
        <ele>659</ele>
        <time>2021-08-10T10:26:25.782Z</time>
      </trkpt>
      <trkpt lat="46.94112" lon="8.5767">
        <ele>659</ele>
        <time>2021-08-10T10:26:26.782Z</time>
      </trkpt>
      <trkpt lat="46.94111" lon="8.57671">
        <ele>658</ele>
        <time>2021-08-10T10:26:27.782Z</time>
      </trkpt>
      <trkpt lat="46.94111" lon="8.57671">
        <ele>658</ele>
        <time>2021-08-10T10:26:28.783Z</time>
      </trkpt>
      <trkpt lat="46.9411" lon="8.57671">
        <ele>657</ele>
        <time>2021-08-10T10:26:29.783Z</time>
      </trkpt>
      <trkpt lat="46.94109" lon="8.57672">
        <ele>657</ele>
        <time>2021-08-10T10:26:30.783Z</time>
      </trkpt>
      <trkpt lat="46.94108" lon="8.57672">
        <ele>656</ele>
        <time>2021-08-10T10:26:31.783Z</time>
      </trkpt>
      <trkpt lat="46.94108" lon="8.57672">
        <ele>656</ele>
        <time>2021-08-10T10:26:32.782Z</time>
      </trkpt>
      <trkpt lat="46.94107" lon="8.57672">
        <ele>655</ele>
        <time>2021-08-10T10:26:33.782Z</time>
      </trkpt>
      <trkpt lat="46.94107" lon="8.57672">
        <ele>655</ele>
        <time>2021-08-10T10:26:34.782Z</time>
      </trkpt>
      <trkpt lat="46.94106" lon="8.57673">
        <ele>654</ele>
        <time>2021-08-10T10:26:35.782Z</time>
      </trkpt>
      <trkpt lat="46.94105" lon="8.57673">
        <ele>654</ele>
        <time>2021-08-10T10:26:36.782Z</time>
      </trkpt>
      <trkpt lat="46.94105" lon="8.57674">
        <ele>654</ele>
        <time>2021-08-10T10:26:37.783Z</time>
      </trkpt>
      <trkpt lat="46.94104" lon="8.57675">
        <ele>654</ele>
        <time>2021-08-10T10:26:38.783Z</time>
      </trkpt>
      <trkpt lat="46.94104" lon="8.57676">
        <ele>654</ele>
        <time>2021-08-10T10:26:39.783Z</time>
      </trkpt>
      <trkpt lat="46.94105" lon="8.57677">
        <ele>654</ele>
        <time>2021-08-10T10:26:40.783Z</time>
      </trkpt>
      <trkpt lat="46.94105" lon="8.57679">
        <ele>654</ele>
        <time>2021-08-10T10:26:41.783Z</time>
      </trkpt>
      <trkpt lat="46.94105" lon="8.5768">
        <ele>654</ele>
        <time>2021-08-10T10:26:42.783Z</time>
      </trkpt>
      <trkpt lat="46.94106" lon="8.57681">
        <ele>655</ele>
        <time>2021-08-10T10:26:43.783Z</time>
      </trkpt>
      <trkpt lat="46.94107" lon="8.57682">
        <ele>655</ele>
        <time>2021-08-10T10:26:44.783Z</time>
      </trkpt>
      <trkpt lat="46.94108" lon="8.57683">
        <ele>655</ele>
        <time>2021-08-10T10:26:45.783Z</time>
      </trkpt>
      <trkpt lat="46.94108" lon="8.57684">
        <ele>655</ele>
        <time>2021-08-10T10:26:46.782Z</time>
      </trkpt>
      <trkpt lat="46.94109" lon="8.57685">
        <ele>655</ele>
        <time>2021-08-10T10:26:47.783Z</time>
      </trkpt>
      <trkpt lat="46.94109" lon="8.57686">
        <ele>655</ele>
        <time>2021-08-10T10:26:48.783Z</time>
      </trkpt>
      <trkpt lat="46.9411" lon="8.57687">
        <ele>655</ele>
        <time>2021-08-10T10:26:49.782Z</time>
      </trkpt>
      <trkpt lat="46.9411" lon="8.57688">
        <ele>655</ele>
        <time>2021-08-10T10:26:50.782Z</time>
      </trkpt>
      <trkpt lat="46.94111" lon="8.57689">
        <ele>655</ele>
        <time>2021-08-10T10:26:51.782Z</time>
      </trkpt>
      <trkpt lat="46.94111" lon="8.57689">
        <ele>654</ele>
        <time>2021-08-10T10:26:52.783Z</time>
      </trkpt>
      <trkpt lat="46.94112" lon="8.5769">
        <ele>654</ele>
        <time>2021-08-10T10:26:53.783Z</time>
      </trkpt>
      <trkpt lat="46.94112" lon="8.57691">
        <ele>654</ele>
        <time>2021-08-10T10:26:54.783Z</time>
      </trkpt>
      <trkpt lat="46.94113" lon="8.57691">
        <ele>655</ele>
        <time>2021-08-10T10:26:55.783Z</time>
      </trkpt>
      <trkpt lat="46.94113" lon="8.57692">
        <ele>655</ele>
        <time>2021-08-10T10:26:56.782Z</time>
      </trkpt>
      <trkpt lat="46.94114" lon="8.57692">
        <ele>656</ele>
        <time>2021-08-10T10:26:57.783Z</time>
      </trkpt>
      <trkpt lat="46.94114" lon="8.57693">
        <ele>656</ele>
        <time>2021-08-10T10:26:58.783Z</time>
      </trkpt>
      <trkpt lat="46.94115" lon="8.57693">
        <ele>655</ele>
        <time>2021-08-10T10:26:59.783Z</time>
      </trkpt>
      <trkpt lat="46.94115" lon="8.57694">
        <ele>655</ele>
        <time>2021-08-10T10:27:00.783Z</time>
      </trkpt>
      <trkpt lat="46.94116" lon="8.57695">
        <ele>655</ele>
        <time>2021-08-10T10:27:01.783Z</time>
      </trkpt>
      <trkpt lat="46.94116" lon="8.57695">
        <ele>655</ele>
        <time>2021-08-10T10:27:02.783Z</time>
      </trkpt>
      <trkpt lat="46.94117" lon="8.57696">
        <ele>655</ele>
        <time>2021-08-10T10:27:03.782Z</time>
      </trkpt>
      <trkpt lat="46.94118" lon="8.57696">
        <ele>655</ele>
        <time>2021-08-10T10:27:04.783Z</time>
      </trkpt>
      <trkpt lat="46.94119" lon="8.57696">
        <ele>655</ele>
        <time>2021-08-10T10:27:05.783Z</time>
      </trkpt>
      <trkpt lat="46.9412" lon="8.57697">
        <ele>656</ele>
        <time>2021-08-10T10:27:06.782Z</time>
      </trkpt>
      <trkpt lat="46.94121" lon="8.57698">
        <ele>656</ele>
        <time>2021-08-10T10:27:07.783Z</time>
      </trkpt>
      <trkpt lat="46.94122" lon="8.57699">
        <ele>656</ele>
        <time>2021-08-10T10:27:08.782Z</time>
      </trkpt>
      <trkpt lat="46.94123" lon="8.577">
        <ele>657</ele>
        <time>2021-08-10T10:27:09.783Z</time>
      </trkpt>
      <trkpt lat="46.94123" lon="8.577">
        <ele>657</ele>
        <time>2021-08-10T10:27:10.783Z</time>
      </trkpt>
      <trkpt lat="46.94124" lon="8.57701">
        <ele>657</ele>
        <time>2021-08-10T10:27:11.783Z</time>
      </trkpt>
      <trkpt lat="46.94124" lon="8.57702">
        <ele>658</ele>
        <time>2021-08-10T10:27:12.783Z</time>
      </trkpt>
      <trkpt lat="46.94125" lon="8.57703">
        <ele>658</ele>
        <time>2021-08-10T10:27:13.783Z</time>
      </trkpt>
      <trkpt lat="46.94125" lon="8.57703">
        <ele>658</ele>
        <time>2021-08-10T10:27:14.783Z</time>
      </trkpt>
      <trkpt lat="46.94126" lon="8.57704">
        <ele>658</ele>
        <time>2021-08-10T10:27:15.783Z</time>
      </trkpt>
      <trkpt lat="46.94126" lon="8.57704">
        <ele>659</ele>
        <time>2021-08-10T10:27:16.782Z</time>
      </trkpt>
      <trkpt lat="46.94125" lon="8.57704">
        <ele>659</ele>
        <time>2021-08-10T10:27:17.782Z</time>
      </trkpt>
      <trkpt lat="46.94125" lon="8.57704">
        <ele>659</ele>
        <time>2021-08-10T10:27:18.782Z</time>
      </trkpt>
      <trkpt lat="46.94124" lon="8.57706">
        <ele>660</ele>
        <time>2021-08-10T10:27:19.783Z</time>
      </trkpt>
      <trkpt lat="46.94125" lon="8.57706">
        <ele>660</ele>
        <time>2021-08-10T10:27:20.783Z</time>
      </trkpt>
      <trkpt lat="46.94125" lon="8.57705">
        <ele>660</ele>
        <time>2021-08-10T10:27:21.783Z</time>
      </trkpt>
      <trkpt lat="46.94123" lon="8.57702">
        <ele>661</ele>
        <time>2021-08-10T10:27:22.782Z</time>
      </trkpt>
      <trkpt lat="46.94123" lon="8.57701">
        <ele>661</ele>
        <time>2021-08-10T10:27:23.783Z</time>
      </trkpt>
      <trkpt lat="46.94116" lon="8.57696">
        <ele>658</ele>
        <time>2021-08-10T10:27:24.783Z</time>
      </trkpt>
      <trkpt lat="46.94115" lon="8.57696">
        <ele>658</ele>
        <time>2021-08-10T10:27:25.782Z</time>
      </trkpt>
      <trkpt lat="46.94115" lon="8.57697">
        <ele>657</ele>
        <time>2021-08-10T10:27:26.783Z</time>
      </trkpt>
      <trkpt lat="46.94115" lon="8.57697">
        <ele>657</ele>
        <time>2021-08-10T10:27:27.783Z</time>
      </trkpt>
      <trkpt lat="46.94115" lon="8.57697">
        <ele>657</ele>
        <time>2021-08-10T10:27:28.783Z</time>
      </trkpt>
      <trkpt lat="46.94114" lon="8.57698">
        <ele>656</ele>
        <time>2021-08-10T10:27:29.783Z</time>
      </trkpt>
      <trkpt lat="46.94114" lon="8.57698">
        <ele>656</ele>
        <time>2021-08-10T10:27:30.784Z</time>
      </trkpt>
      <trkpt lat="46.94114" lon="8.57699">
        <ele>656</ele>
        <time>2021-08-10T10:27:31.783Z</time>
      </trkpt>
      <trkpt lat="46.94113" lon="8.577">
        <ele>656</ele>
        <time>2021-08-10T10:27:32.784Z</time>
      </trkpt>
      <trkpt lat="46.94113" lon="8.57699">
        <ele>656</ele>
        <time>2021-08-10T10:27:33.784Z</time>
      </trkpt>
      <trkpt lat="46.94112" lon="8.577">
        <ele>656</ele>
        <time>2021-08-10T10:27:34.783Z</time>
      </trkpt>
      <trkpt lat="46.94111" lon="8.577">
        <ele>656</ele>
        <time>2021-08-10T10:27:35.784Z</time>
      </trkpt>
      <trkpt lat="46.94111" lon="8.57699">
        <ele>656</ele>
        <time>2021-08-10T10:27:36.784Z</time>
      </trkpt>
      <trkpt lat="46.9411" lon="8.57697">
        <ele>657</ele>
        <time>2021-08-10T10:27:37.783Z</time>
      </trkpt>
      <trkpt lat="46.94109" lon="8.57697">
        <ele>657</ele>
        <time>2021-08-10T10:27:38.784Z</time>
      </trkpt>
      <trkpt lat="46.94109" lon="8.57696">
        <ele>657</ele>
        <time>2021-08-10T10:27:39.784Z</time>
      </trkpt>
      <trkpt lat="46.94109" lon="8.57696">
        <ele>657</ele>
        <time>2021-08-10T10:27:40.783Z</time>
      </trkpt>
      <trkpt lat="46.94109" lon="8.57696">
        <ele>657</ele>
        <time>2021-08-10T10:27:41.783Z</time>
      </trkpt>
      <trkpt lat="46.94109" lon="8.57696">
        <ele>657</ele>
        <time>2021-08-10T10:27:42.783Z</time>
      </trkpt>
      <trkpt lat="46.94109" lon="8.57696">
        <ele>657</ele>
        <time>2021-08-10T10:27:43.783Z</time>
      </trkpt>
      <trkpt lat="46.94109" lon="8.57696">
        <ele>657</ele>
        <time>2021-08-10T10:27:44.783Z</time>
      </trkpt>
      <trkpt lat="46.94108" lon="8.57696">
        <ele>656</ele>
        <time>2021-08-10T10:27:45.783Z</time>
      </trkpt>
      <trkpt lat="46.94107" lon="8.57697">
        <ele>656</ele>
        <time>2021-08-10T10:27:46.783Z</time>
      </trkpt>
      <trkpt lat="46.94107" lon="8.57698">
        <ele>655</ele>
        <time>2021-08-10T10:27:47.783Z</time>
      </trkpt>
      <trkpt lat="46.94106" lon="8.57699">
        <ele>655</ele>
        <time>2021-08-10T10:27:48.783Z</time>
      </trkpt>
      <trkpt lat="46.94104" lon="8.577">
        <ele>655</ele>
        <time>2021-08-10T10:27:49.783Z</time>
      </trkpt>
      <trkpt lat="46.94102" lon="8.57702">
        <ele>654</ele>
        <time>2021-08-10T10:27:50.783Z</time>
      </trkpt>
      <trkpt lat="46.94102" lon="8.57703">
        <ele>654</ele>
        <time>2021-08-10T10:27:51.783Z</time>
      </trkpt>
      <trkpt lat="46.94102" lon="8.57703">
        <ele>653</ele>
        <time>2021-08-10T10:27:52.783Z</time>
      </trkpt>
      <trkpt lat="46.94102" lon="8.57704">
        <ele>652</ele>
        <time>2021-08-10T10:27:53.784Z</time>
      </trkpt>
      <trkpt lat="46.941" lon="8.57707">
        <ele>650</ele>
        <time>2021-08-10T10:27:54.785Z</time>
      </trkpt>
      <trkpt lat="46.94099" lon="8.57708">
        <ele>650</ele>
        <time>2021-08-10T10:27:55.785Z</time>
      </trkpt>
      <trkpt lat="46.941" lon="8.57709">
        <ele>649</ele>
        <time>2021-08-10T10:27:56.784Z</time>
      </trkpt>
      <trkpt lat="46.941" lon="8.57709">
        <ele>648</ele>
        <time>2021-08-10T10:27:57.785Z</time>
      </trkpt>
      <trkpt lat="46.94099" lon="8.57709">
        <ele>648</ele>
        <time>2021-08-10T10:27:58.785Z</time>
      </trkpt>
      <trkpt lat="46.94099" lon="8.5771">
        <ele>647</ele>
        <time>2021-08-10T10:27:59.784Z</time>
      </trkpt>
      <trkpt lat="46.94098" lon="8.5771">
        <ele>647</ele>
        <time>2021-08-10T10:28:00.785Z</time>
      </trkpt>
      <trkpt lat="46.94097" lon="8.5771">
        <ele>647</ele>
        <time>2021-08-10T10:28:01.785Z</time>
      </trkpt>
      <trkpt lat="46.94098" lon="8.5771">
        <ele>647</ele>
        <time>2021-08-10T10:28:02.784Z</time>
      </trkpt>
      <trkpt lat="46.94097" lon="8.57711">
        <ele>646</ele>
        <time>2021-08-10T10:28:03.784Z</time>
      </trkpt>
      <trkpt lat="46.94096" lon="8.57711">
        <ele>646</ele>
        <time>2021-08-10T10:28:04.784Z</time>
      </trkpt>
      <trkpt lat="46.94095" lon="8.57711">
        <ele>646</ele>
        <time>2021-08-10T10:28:05.784Z</time>
      </trkpt>
      <trkpt lat="46.94094" lon="8.57712">
        <ele>646</ele>
        <time>2021-08-10T10:28:06.784Z</time>
      </trkpt>
      <trkpt lat="46.94092" lon="8.57712">
        <ele>645</ele>
        <time>2021-08-10T10:28:07.785Z</time>
      </trkpt>
      <trkpt lat="46.94091" lon="8.57712">
        <ele>645</ele>
        <time>2021-08-10T10:28:08.784Z</time>
      </trkpt>
      <trkpt lat="46.94091" lon="8.57712">
        <ele>644</ele>
        <time>2021-08-10T10:28:09.785Z</time>
      </trkpt>
      <trkpt lat="46.94091" lon="8.57712">
        <ele>644</ele>
        <time>2021-08-10T10:28:10.785Z</time>
      </trkpt>
      <trkpt lat="46.9409" lon="8.57712">
        <ele>643</ele>
        <time>2021-08-10T10:28:11.785Z</time>
      </trkpt>
      <trkpt lat="46.94091" lon="8.57712">
        <ele>643</ele>
        <time>2021-08-10T10:28:12.785Z</time>
      </trkpt>
      <trkpt lat="46.94092" lon="8.57711">
        <ele>642</ele>
        <time>2021-08-10T10:28:13.785Z</time>
      </trkpt>
      <trkpt lat="46.94092" lon="8.57711">
        <ele>641</ele>
        <time>2021-08-10T10:28:14.784Z</time>
      </trkpt>
      <trkpt lat="46.94091" lon="8.5771">
        <ele>640</ele>
        <time>2021-08-10T10:28:15.784Z</time>
      </trkpt>
      <trkpt lat="46.94091" lon="8.57709">
        <ele>640</ele>
        <time>2021-08-10T10:28:16.785Z</time>
      </trkpt>
      <trkpt lat="46.94091" lon="8.57708">
        <ele>639</ele>
        <time>2021-08-10T10:28:17.785Z</time>
      </trkpt>
      <trkpt lat="46.94091" lon="8.57708">
        <ele>639</ele>
        <time>2021-08-10T10:28:18.785Z</time>
      </trkpt>
      <trkpt lat="46.9409" lon="8.57708">
        <ele>639</ele>
        <time>2021-08-10T10:28:19.784Z</time>
      </trkpt>
      <trkpt lat="46.94089" lon="8.57707">
        <ele>639</ele>
        <time>2021-08-10T10:28:20.784Z</time>
      </trkpt>
      <trkpt lat="46.94089" lon="8.57707">
        <ele>638</ele>
        <time>2021-08-10T10:28:21.785Z</time>
      </trkpt>
      <trkpt lat="46.94089" lon="8.57708">
        <ele>638</ele>
        <time>2021-08-10T10:28:22.785Z</time>
      </trkpt>
      <trkpt lat="46.94088" lon="8.57707">
        <ele>638</ele>
        <time>2021-08-10T10:28:23.785Z</time>
      </trkpt>
      <trkpt lat="46.94087" lon="8.57706">
        <ele>637</ele>
        <time>2021-08-10T10:28:24.784Z</time>
      </trkpt>
      <trkpt lat="46.94086" lon="8.57706">
        <ele>637</ele>
        <time>2021-08-10T10:28:25.785Z</time>
      </trkpt>
      <trkpt lat="46.94086" lon="8.57707">
        <ele>636</ele>
        <time>2021-08-10T10:28:26.785Z</time>
      </trkpt>
      <trkpt lat="46.94086" lon="8.57706">
        <ele>636</ele>
        <time>2021-08-10T10:28:27.784Z</time>
      </trkpt>
      <trkpt lat="46.94085" lon="8.57705">
        <ele>635</ele>
        <time>2021-08-10T10:28:28.785Z</time>
      </trkpt>
      <trkpt lat="46.94084" lon="8.57705">
        <ele>635</ele>
        <time>2021-08-10T10:28:29.784Z</time>
      </trkpt>
      <trkpt lat="46.94083" lon="8.57705">
        <ele>635</ele>
        <time>2021-08-10T10:28:30.785Z</time>
      </trkpt>
      <trkpt lat="46.94083" lon="8.57704">
        <ele>634</ele>
        <time>2021-08-10T10:28:31.785Z</time>
      </trkpt>
      <trkpt lat="46.94082" lon="8.57703">
        <ele>634</ele>
        <time>2021-08-10T10:28:32.785Z</time>
      </trkpt>
      <trkpt lat="46.94081" lon="8.57703">
        <ele>633</ele>
        <time>2021-08-10T10:28:33.785Z</time>
      </trkpt>
      <trkpt lat="46.9408" lon="8.57702">
        <ele>632</ele>
        <time>2021-08-10T10:28:34.785Z</time>
      </trkpt>
      <trkpt lat="46.94079" lon="8.57701">
        <ele>632</ele>
        <time>2021-08-10T10:28:35.785Z</time>
      </trkpt>
      <trkpt lat="46.94078" lon="8.57701">
        <ele>632</ele>
        <time>2021-08-10T10:28:36.785Z</time>
      </trkpt>
      <trkpt lat="46.94078" lon="8.57701">
        <ele>632</ele>
        <time>2021-08-10T10:28:37.785Z</time>
      </trkpt>
      <trkpt lat="46.94077" lon="8.57701">
        <ele>633</ele>
        <time>2021-08-10T10:28:38.784Z</time>
      </trkpt>
      <trkpt lat="46.94075" lon="8.57701">
        <ele>634</ele>
        <time>2021-08-10T10:28:39.785Z</time>
      </trkpt>
      <trkpt lat="46.94075" lon="8.57701">
        <ele>634</ele>
        <time>2021-08-10T10:28:40.785Z</time>
      </trkpt>
      <trkpt lat="46.94074" lon="8.57702">
        <ele>635</ele>
        <time>2021-08-10T10:28:41.785Z</time>
      </trkpt>
      <trkpt lat="46.94073" lon="8.57702">
        <ele>635</ele>
        <time>2021-08-10T10:28:42.784Z</time>
      </trkpt>
      <trkpt lat="46.94073" lon="8.57703">
        <ele>635</ele>
        <time>2021-08-10T10:28:43.785Z</time>
      </trkpt>
      <trkpt lat="46.94073" lon="8.57704">
        <ele>636</ele>
        <time>2021-08-10T10:28:44.785Z</time>
      </trkpt>
      <trkpt lat="46.94072" lon="8.57705">
        <ele>636</ele>
        <time>2021-08-10T10:28:45.785Z</time>
      </trkpt>
      <trkpt lat="46.94072" lon="8.57707">
        <ele>636</ele>
        <time>2021-08-10T10:28:46.785Z</time>
      </trkpt>
      <trkpt lat="46.94072" lon="8.57708">
        <ele>636</ele>
        <time>2021-08-10T10:28:47.785Z</time>
      </trkpt>
      <trkpt lat="46.94072" lon="8.57709">
        <ele>637</ele>
        <time>2021-08-10T10:28:48.785Z</time>
      </trkpt>
      <trkpt lat="46.94073" lon="8.5771">
        <ele>637</ele>
        <time>2021-08-10T10:28:49.785Z</time>
      </trkpt>
      <trkpt lat="46.94073" lon="8.57711">
        <ele>636</ele>
        <time>2021-08-10T10:28:50.785Z</time>
      </trkpt>
      <trkpt lat="46.94074" lon="8.57712">
        <ele>636</ele>
        <time>2021-08-10T10:28:51.785Z</time>
      </trkpt>
      <trkpt lat="46.94074" lon="8.57713">
        <ele>636</ele>
        <time>2021-08-10T10:28:52.784Z</time>
      </trkpt>
      <trkpt lat="46.94075" lon="8.57714">
        <ele>636</ele>
        <time>2021-08-10T10:28:53.785Z</time>
      </trkpt>
      <trkpt lat="46.94075" lon="8.57715">
        <ele>636</ele>
        <time>2021-08-10T10:28:54.785Z</time>
      </trkpt>
      <trkpt lat="46.94075" lon="8.57716">
        <ele>636</ele>
        <time>2021-08-10T10:28:55.785Z</time>
      </trkpt>
      <trkpt lat="46.94075" lon="8.57718">
        <ele>636</ele>
        <time>2021-08-10T10:28:56.785Z</time>
      </trkpt>
      <trkpt lat="46.94075" lon="8.57719">
        <ele>636</ele>
        <time>2021-08-10T10:28:57.785Z</time>
      </trkpt>
      <trkpt lat="46.94075" lon="8.57719">
        <ele>636</ele>
        <time>2021-08-10T10:28:58.785Z</time>
      </trkpt>
      <trkpt lat="46.94076" lon="8.5772">
        <ele>636</ele>
        <time>2021-08-10T10:28:59.785Z</time>
      </trkpt>
      <trkpt lat="46.94075" lon="8.57721">
        <ele>635</ele>
        <time>2021-08-10T10:29:00.786Z</time>
      </trkpt>
      <trkpt lat="46.94075" lon="8.57722">
        <ele>635</ele>
        <time>2021-08-10T10:29:01.785Z</time>
      </trkpt>
      <trkpt lat="46.94075" lon="8.57723">
        <ele>635</ele>
        <time>2021-08-10T10:29:02.785Z</time>
      </trkpt>
      <trkpt lat="46.94075" lon="8.57724">
        <ele>635</ele>
        <time>2021-08-10T10:29:03.786Z</time>
      </trkpt>
      <trkpt lat="46.94075" lon="8.57725">
        <ele>635</ele>
        <time>2021-08-10T10:29:04.786Z</time>
      </trkpt>
      <trkpt lat="46.94074" lon="8.57726">
        <ele>635</ele>
        <time>2021-08-10T10:29:05.786Z</time>
      </trkpt>
      <trkpt lat="46.94074" lon="8.57727">
        <ele>635</ele>
        <time>2021-08-10T10:29:06.786Z</time>
      </trkpt>
      <trkpt lat="46.94074" lon="8.57727">
        <ele>635</ele>
        <time>2021-08-10T10:29:07.786Z</time>
      </trkpt>
      <trkpt lat="46.94074" lon="8.57727">
        <ele>634</ele>
        <time>2021-08-10T10:29:08.785Z</time>
      </trkpt>
      <trkpt lat="46.94074" lon="8.57727">
        <ele>634</ele>
        <time>2021-08-10T10:29:09.786Z</time>
      </trkpt>
      <trkpt lat="46.94074" lon="8.57728">
        <ele>633</ele>
        <time>2021-08-10T10:29:10.785Z</time>
      </trkpt>
      <trkpt lat="46.94074" lon="8.57728">
        <ele>632</ele>
        <time>2021-08-10T10:29:11.786Z</time>
      </trkpt>
      <trkpt lat="46.94074" lon="8.5773">
        <ele>631</ele>
        <time>2021-08-10T10:29:12.786Z</time>
      </trkpt>
      <trkpt lat="46.94073" lon="8.57731">
        <ele>631</ele>
        <time>2021-08-10T10:29:13.785Z</time>
      </trkpt>
      <trkpt lat="46.94073" lon="8.57732">
        <ele>630</ele>
        <time>2021-08-10T10:29:14.786Z</time>
      </trkpt>
      <trkpt lat="46.94073" lon="8.57733">
        <ele>630</ele>
        <time>2021-08-10T10:29:15.786Z</time>
      </trkpt>
      <trkpt lat="46.94072" lon="8.57734">
        <ele>629</ele>
        <time>2021-08-10T10:29:16.785Z</time>
      </trkpt>
      <trkpt lat="46.94072" lon="8.57735">
        <ele>629</ele>
        <time>2021-08-10T10:29:17.785Z</time>
      </trkpt>
      <trkpt lat="46.94071" lon="8.57736">
        <ele>629</ele>
        <time>2021-08-10T10:29:18.786Z</time>
      </trkpt>
      <trkpt lat="46.94071" lon="8.57736">
        <ele>628</ele>
        <time>2021-08-10T10:29:19.786Z</time>
      </trkpt>
      <trkpt lat="46.9407" lon="8.57737">
        <ele>628</ele>
        <time>2021-08-10T10:29:20.786Z</time>
      </trkpt>
      <trkpt lat="46.9407" lon="8.57737">
        <ele>628</ele>
        <time>2021-08-10T10:29:21.785Z</time>
      </trkpt>
      <trkpt lat="46.94069" lon="8.57736">
        <ele>627</ele>
        <time>2021-08-10T10:29:22.786Z</time>
      </trkpt>
      <trkpt lat="46.94069" lon="8.57737">
        <ele>627</ele>
        <time>2021-08-10T10:29:23.785Z</time>
      </trkpt>
      <trkpt lat="46.94068" lon="8.57738">
        <ele>627</ele>
        <time>2021-08-10T10:29:24.786Z</time>
      </trkpt>
      <trkpt lat="46.94067" lon="8.57738">
        <ele>627</ele>
        <time>2021-08-10T10:29:25.786Z</time>
      </trkpt>
      <trkpt lat="46.94067" lon="8.57738">
        <ele>627</ele>
        <time>2021-08-10T10:29:26.786Z</time>
      </trkpt>
      <trkpt lat="46.94067" lon="8.57738">
        <ele>627</ele>
        <time>2021-08-10T10:29:27.786Z</time>
      </trkpt>
      <trkpt lat="46.94066" lon="8.57738">
        <ele>626</ele>
        <time>2021-08-10T10:29:28.786Z</time>
      </trkpt>
      <trkpt lat="46.94066" lon="8.57738">
        <ele>626</ele>
        <time>2021-08-10T10:29:29.786Z</time>
      </trkpt>
      <trkpt lat="46.94065" lon="8.57739">
        <ele>626</ele>
        <time>2021-08-10T10:29:30.787Z</time>
      </trkpt>
      <trkpt lat="46.94065" lon="8.5774">
        <ele>627</ele>
        <time>2021-08-10T10:29:31.787Z</time>
      </trkpt>
      <trkpt lat="46.94064" lon="8.57741">
        <ele>627</ele>
        <time>2021-08-10T10:29:32.787Z</time>
      </trkpt>
      <trkpt lat="46.94063" lon="8.57742">
        <ele>628</ele>
        <time>2021-08-10T10:29:33.786Z</time>
      </trkpt>
      <trkpt lat="46.94063" lon="8.57743">
        <ele>628</ele>
        <time>2021-08-10T10:29:34.787Z</time>
      </trkpt>
      <trkpt lat="46.94063" lon="8.57743">
        <ele>628</ele>
        <time>2021-08-10T10:29:35.786Z</time>
      </trkpt>
      <trkpt lat="46.94063" lon="8.57743">
        <ele>628</ele>
        <time>2021-08-10T10:29:36.787Z</time>
      </trkpt>
      <trkpt lat="46.94062" lon="8.57744">
        <ele>628</ele>
        <time>2021-08-10T10:29:37.787Z</time>
      </trkpt>
      <trkpt lat="46.94062" lon="8.57744">
        <ele>628</ele>
        <time>2021-08-10T10:29:38.786Z</time>
      </trkpt>
      <trkpt lat="46.94062" lon="8.57744">
        <ele>628</ele>
        <time>2021-08-10T10:29:39.786Z</time>
      </trkpt>
      <trkpt lat="46.94062" lon="8.57745">
        <ele>627</ele>
        <time>2021-08-10T10:29:40.786Z</time>
      </trkpt>
      <trkpt lat="46.9406" lon="8.57745">
        <ele>627</ele>
        <time>2021-08-10T10:29:41.787Z</time>
      </trkpt>
      <trkpt lat="46.94059" lon="8.57746">
        <ele>626</ele>
        <time>2021-08-10T10:29:42.786Z</time>
      </trkpt>
      <trkpt lat="46.94057" lon="8.57746">
        <ele>626</ele>
        <time>2021-08-10T10:29:43.787Z</time>
      </trkpt>
      <trkpt lat="46.94056" lon="8.57747">
        <ele>625</ele>
        <time>2021-08-10T10:29:44.787Z</time>
      </trkpt>
      <trkpt lat="46.94055" lon="8.57748">
        <ele>625</ele>
        <time>2021-08-10T10:29:45.787Z</time>
      </trkpt>
      <trkpt lat="46.94054" lon="8.57748">
        <ele>625</ele>
        <time>2021-08-10T10:29:46.787Z</time>
      </trkpt>
      <trkpt lat="46.94054" lon="8.57748">
        <ele>625</ele>
        <time>2021-08-10T10:29:47.787Z</time>
      </trkpt>
      <trkpt lat="46.94053" lon="8.57747">
        <ele>624</ele>
        <time>2021-08-10T10:29:48.786Z</time>
      </trkpt>
      <trkpt lat="46.94052" lon="8.57746">
        <ele>624</ele>
        <time>2021-08-10T10:29:49.786Z</time>
      </trkpt>
      <trkpt lat="46.94052" lon="8.57746">
        <ele>623</ele>
        <time>2021-08-10T10:29:50.787Z</time>
      </trkpt>
      <trkpt lat="46.94051" lon="8.57745">
        <ele>622</ele>
        <time>2021-08-10T10:29:51.787Z</time>
      </trkpt>
      <trkpt lat="46.9405" lon="8.57745">
        <ele>621</ele>
        <time>2021-08-10T10:29:52.786Z</time>
      </trkpt>
      <trkpt lat="46.94049" lon="8.57744">
        <ele>620</ele>
        <time>2021-08-10T10:29:53.786Z</time>
      </trkpt>
      <trkpt lat="46.94049" lon="8.57744">
        <ele>620</ele>
        <time>2021-08-10T10:29:54.786Z</time>
      </trkpt>
      <trkpt lat="46.94048" lon="8.57743">
        <ele>620</ele>
        <time>2021-08-10T10:29:55.786Z</time>
      </trkpt>
      <trkpt lat="46.94046" lon="8.57742">
        <ele>620</ele>
        <time>2021-08-10T10:29:56.787Z</time>
      </trkpt>
      <trkpt lat="46.94044" lon="8.57742">
        <ele>621</ele>
        <time>2021-08-10T10:29:57.786Z</time>
      </trkpt>
      <trkpt lat="46.94043" lon="8.57743">
        <ele>621</ele>
        <time>2021-08-10T10:29:58.786Z</time>
      </trkpt>
      <trkpt lat="46.94042" lon="8.57743">
        <ele>622</ele>
        <time>2021-08-10T10:29:59.786Z</time>
      </trkpt>
      <trkpt lat="46.9404" lon="8.57743">
        <ele>622</ele>
        <time>2021-08-10T10:30:00.786Z</time>
      </trkpt>
      <trkpt lat="46.94039" lon="8.57742">
        <ele>622</ele>
        <time>2021-08-10T10:30:01.786Z</time>
      </trkpt>
      <trkpt lat="46.94038" lon="8.57742">
        <ele>623</ele>
        <time>2021-08-10T10:30:02.786Z</time>
      </trkpt>
      <trkpt lat="46.94036" lon="8.57742">
        <ele>623</ele>
        <time>2021-08-10T10:30:03.787Z</time>
      </trkpt>
      <trkpt lat="46.94035" lon="8.57742">
        <ele>623</ele>
        <time>2021-08-10T10:30:04.786Z</time>
      </trkpt>
      <trkpt lat="46.94034" lon="8.57741">
        <ele>623</ele>
        <time>2021-08-10T10:30:05.786Z</time>
      </trkpt>
      <trkpt lat="46.94034" lon="8.5774">
        <ele>623</ele>
        <time>2021-08-10T10:30:06.786Z</time>
      </trkpt>
      <trkpt lat="46.94033" lon="8.57739">
        <ele>623</ele>
        <time>2021-08-10T10:30:07.786Z</time>
      </trkpt>
      <trkpt lat="46.94032" lon="8.57739">
        <ele>623</ele>
        <time>2021-08-10T10:30:08.786Z</time>
      </trkpt>
      <trkpt lat="46.94031" lon="8.57739">
        <ele>623</ele>
        <time>2021-08-10T10:30:09.786Z</time>
      </trkpt>
      <trkpt lat="46.9403" lon="8.57739">
        <ele>622</ele>
        <time>2021-08-10T10:30:10.786Z</time>
      </trkpt>
      <trkpt lat="46.9403" lon="8.57739">
        <ele>622</ele>
        <time>2021-08-10T10:30:11.786Z</time>
      </trkpt>
      <trkpt lat="46.94029" lon="8.57739">
        <ele>621</ele>
        <time>2021-08-10T10:30:12.786Z</time>
      </trkpt>
      <trkpt lat="46.94028" lon="8.57739">
        <ele>621</ele>
        <time>2021-08-10T10:30:13.786Z</time>
      </trkpt>
      <trkpt lat="46.94027" lon="8.57739">
        <ele>621</ele>
        <time>2021-08-10T10:30:14.786Z</time>
      </trkpt>
      <trkpt lat="46.94026" lon="8.57739">
        <ele>621</ele>
        <time>2021-08-10T10:30:15.786Z</time>
      </trkpt>
      <trkpt lat="46.94025" lon="8.57739">
        <ele>621</ele>
        <time>2021-08-10T10:30:16.787Z</time>
      </trkpt>
      <trkpt lat="46.94024" lon="8.5774">
        <ele>621</ele>
        <time>2021-08-10T10:30:17.787Z</time>
      </trkpt>
      <trkpt lat="46.94023" lon="8.5774">
        <ele>620</ele>
        <time>2021-08-10T10:30:18.786Z</time>
      </trkpt>
      <trkpt lat="46.94023" lon="8.5774">
        <ele>620</ele>
        <time>2021-08-10T10:30:19.786Z</time>
      </trkpt>
      <trkpt lat="46.94022" lon="8.5774">
        <ele>619</ele>
        <time>2021-08-10T10:30:20.786Z</time>
      </trkpt>
      <trkpt lat="46.94021" lon="8.5774">
        <ele>618</ele>
        <time>2021-08-10T10:30:21.786Z</time>
      </trkpt>
      <trkpt lat="46.94019" lon="8.5774">
        <ele>618</ele>
        <time>2021-08-10T10:30:22.786Z</time>
      </trkpt>
      <trkpt lat="46.94018" lon="8.5774">
        <ele>617</ele>
        <time>2021-08-10T10:30:23.786Z</time>
      </trkpt>
      <trkpt lat="46.94017" lon="8.57739">
        <ele>617</ele>
        <time>2021-08-10T10:30:24.786Z</time>
      </trkpt>
      <trkpt lat="46.94016" lon="8.57739">
        <ele>617</ele>
        <time>2021-08-10T10:30:25.786Z</time>
      </trkpt>
      <trkpt lat="46.94015" lon="8.5774">
        <ele>616</ele>
        <time>2021-08-10T10:30:26.786Z</time>
      </trkpt>
      <trkpt lat="46.94014" lon="8.5774">
        <ele>616</ele>
        <time>2021-08-10T10:30:27.787Z</time>
      </trkpt>
      <trkpt lat="46.94013" lon="8.5774">
        <ele>616</ele>
        <time>2021-08-10T10:30:28.786Z</time>
      </trkpt>
      <trkpt lat="46.94012" lon="8.57741">
        <ele>616</ele>
        <time>2021-08-10T10:30:29.786Z</time>
      </trkpt>
      <trkpt lat="46.9401" lon="8.57742">
        <ele>616</ele>
        <time>2021-08-10T10:30:30.786Z</time>
      </trkpt>
      <trkpt lat="46.94009" lon="8.57742">
        <ele>616</ele>
        <time>2021-08-10T10:30:31.787Z</time>
      </trkpt>
      <trkpt lat="46.94008" lon="8.57743">
        <ele>616</ele>
        <time>2021-08-10T10:30:32.787Z</time>
      </trkpt>
      <trkpt lat="46.94007" lon="8.57744">
        <ele>616</ele>
        <time>2021-08-10T10:30:33.786Z</time>
      </trkpt>
      <trkpt lat="46.94006" lon="8.57744">
        <ele>616</ele>
        <time>2021-08-10T10:30:34.786Z</time>
      </trkpt>
      <trkpt lat="46.94003" lon="8.57744">
        <ele>617</ele>
        <time>2021-08-10T10:30:35.786Z</time>
      </trkpt>
      <trkpt lat="46.94001" lon="8.57744">
        <ele>617</ele>
        <time>2021-08-10T10:30:36.787Z</time>
      </trkpt>
      <trkpt lat="46.93999" lon="8.57744">
        <ele>617</ele>
        <time>2021-08-10T10:30:37.786Z</time>
      </trkpt>
      <trkpt lat="46.93997" lon="8.57744">
        <ele>617</ele>
        <time>2021-08-10T10:30:38.786Z</time>
      </trkpt>
      <trkpt lat="46.93996" lon="8.57743">
        <ele>617</ele>
        <time>2021-08-10T10:30:39.787Z</time>
      </trkpt>
      <trkpt lat="46.93995" lon="8.57743">
        <ele>617</ele>
        <time>2021-08-10T10:30:40.787Z</time>
      </trkpt>
      <trkpt lat="46.93993" lon="8.57743">
        <ele>617</ele>
        <time>2021-08-10T10:30:41.786Z</time>
      </trkpt>
      <trkpt lat="46.93992" lon="8.57743">
        <ele>617</ele>
        <time>2021-08-10T10:30:42.786Z</time>
      </trkpt>
      <trkpt lat="46.9399" lon="8.57744">
        <ele>617</ele>
        <time>2021-08-10T10:30:43.786Z</time>
      </trkpt>
      <trkpt lat="46.93989" lon="8.57744">
        <ele>616</ele>
        <time>2021-08-10T10:30:44.786Z</time>
      </trkpt>
      <trkpt lat="46.93987" lon="8.57745">
        <ele>616</ele>
        <time>2021-08-10T10:30:45.786Z</time>
      </trkpt>
      <trkpt lat="46.93986" lon="8.57745">
        <ele>615</ele>
        <time>2021-08-10T10:30:46.786Z</time>
      </trkpt>
      <trkpt lat="46.93985" lon="8.57745">
        <ele>615</ele>
        <time>2021-08-10T10:30:47.786Z</time>
      </trkpt>
      <trkpt lat="46.93984" lon="8.57745">
        <ele>614</ele>
        <time>2021-08-10T10:30:48.787Z</time>
      </trkpt>
      <trkpt lat="46.93983" lon="8.57745">
        <ele>614</ele>
        <time>2021-08-10T10:30:49.787Z</time>
      </trkpt>
      <trkpt lat="46.93983" lon="8.57745">
        <ele>614</ele>
        <time>2021-08-10T10:30:50.787Z</time>
      </trkpt>
      <trkpt lat="46.93982" lon="8.57745">
        <ele>614</ele>
        <time>2021-08-10T10:30:51.786Z</time>
      </trkpt>
      <trkpt lat="46.93981" lon="8.57744">
        <ele>614</ele>
        <time>2021-08-10T10:30:52.787Z</time>
      </trkpt>
      <trkpt lat="46.9398" lon="8.57744">
        <ele>614</ele>
        <time>2021-08-10T10:30:53.787Z</time>
      </trkpt>
      <trkpt lat="46.93979" lon="8.57744">
        <ele>614</ele>
        <time>2021-08-10T10:30:54.786Z</time>
      </trkpt>
      <trkpt lat="46.93977" lon="8.57744">
        <ele>614</ele>
        <time>2021-08-10T10:30:55.787Z</time>
      </trkpt>
      <trkpt lat="46.93976" lon="8.57744">
        <ele>614</ele>
        <time>2021-08-10T10:30:56.787Z</time>
      </trkpt>
      <trkpt lat="46.93975" lon="8.57744">
        <ele>614</ele>
        <time>2021-08-10T10:30:57.787Z</time>
      </trkpt>
      <trkpt lat="46.93973" lon="8.57744">
        <ele>614</ele>
        <time>2021-08-10T10:30:58.787Z</time>
      </trkpt>
      <trkpt lat="46.93972" lon="8.57743">
        <ele>615</ele>
        <time>2021-08-10T10:30:59.787Z</time>
      </trkpt>
      <trkpt lat="46.93971" lon="8.57743">
        <ele>615</ele>
        <time>2021-08-10T10:31:00.787Z</time>
      </trkpt>
      <trkpt lat="46.9397" lon="8.57743">
        <ele>615</ele>
        <time>2021-08-10T10:31:01.787Z</time>
      </trkpt>
      <trkpt lat="46.93969" lon="8.57742">
        <ele>615</ele>
        <time>2021-08-10T10:31:02.786Z</time>
      </trkpt>
      <trkpt lat="46.93968" lon="8.57741">
        <ele>615</ele>
        <time>2021-08-10T10:31:03.787Z</time>
      </trkpt>
      <trkpt lat="46.93967" lon="8.57741">
        <ele>615</ele>
        <time>2021-08-10T10:31:04.787Z</time>
      </trkpt>
      <trkpt lat="46.93966" lon="8.5774">
        <ele>615</ele>
        <time>2021-08-10T10:31:05.786Z</time>
      </trkpt>
      <trkpt lat="46.93966" lon="8.5774">
        <ele>614</ele>
        <time>2021-08-10T10:31:06.786Z</time>
      </trkpt>
      <trkpt lat="46.93965" lon="8.57739">
        <ele>614</ele>
        <time>2021-08-10T10:31:07.786Z</time>
      </trkpt>
      <trkpt lat="46.93965" lon="8.57738">
        <ele>614</ele>
        <time>2021-08-10T10:31:08.786Z</time>
      </trkpt>
      <trkpt lat="46.93964" lon="8.57737">
        <ele>614</ele>
        <time>2021-08-10T10:31:09.786Z</time>
      </trkpt>
      <trkpt lat="46.93964" lon="8.57737">
        <ele>613</ele>
        <time>2021-08-10T10:31:10.787Z</time>
      </trkpt>
      <trkpt lat="46.93959" lon="8.57733">
        <ele>610</ele>
        <time>2021-08-10T10:31:11.786Z</time>
      </trkpt>
      <trkpt lat="46.9396" lon="8.57733">
        <ele>610</ele>
        <time>2021-08-10T10:31:12.786Z</time>
      </trkpt>
      <trkpt lat="46.9396" lon="8.57733">
        <ele>610</ele>
        <time>2021-08-10T10:31:13.786Z</time>
      </trkpt>
      <trkpt lat="46.9396" lon="8.57733">
        <ele>610</ele>
        <time>2021-08-10T10:31:14.786Z</time>
      </trkpt>
      <trkpt lat="46.9396" lon="8.57734">
        <ele>611</ele>
        <time>2021-08-10T10:31:15.787Z</time>
      </trkpt>
      <trkpt lat="46.9396" lon="8.57734">
        <ele>611</ele>
        <time>2021-08-10T10:31:16.786Z</time>
      </trkpt>
      <trkpt lat="46.9396" lon="8.57734">
        <ele>611</ele>
        <time>2021-08-10T10:31:17.787Z</time>
      </trkpt>
      <trkpt lat="46.93958" lon="8.57732">
        <ele>616</ele>
        <time>2021-08-10T10:31:18.787Z</time>
      </trkpt>
      <trkpt lat="46.93957" lon="8.57731">
        <ele>616</ele>
        <time>2021-08-10T10:31:19.786Z</time>
      </trkpt>
      <trkpt lat="46.93956" lon="8.5773">
        <ele>617</ele>
        <time>2021-08-10T10:31:20.786Z</time>
      </trkpt>
      <trkpt lat="46.93956" lon="8.5773">
        <ele>617</ele>
        <time>2021-08-10T10:31:21.786Z</time>
      </trkpt>
      <trkpt lat="46.93955" lon="8.57729">
        <ele>617</ele>
        <time>2021-08-10T10:31:22.787Z</time>
      </trkpt>
      <trkpt lat="46.93954" lon="8.57728">
        <ele>617</ele>
        <time>2021-08-10T10:31:23.786Z</time>
      </trkpt>
      <trkpt lat="46.93954" lon="8.57727">
        <ele>618</ele>
        <time>2021-08-10T10:31:24.786Z</time>
      </trkpt>
      <trkpt lat="46.93953" lon="8.57727">
        <ele>618</ele>
        <time>2021-08-10T10:31:25.787Z</time>
      </trkpt>
      <trkpt lat="46.93953" lon="8.57726">
        <ele>618</ele>
        <time>2021-08-10T10:31:26.786Z</time>
      </trkpt>
      <trkpt lat="46.93953" lon="8.57726">
        <ele>618</ele>
        <time>2021-08-10T10:31:27.787Z</time>
      </trkpt>
      <trkpt lat="46.93953" lon="8.57725">
        <ele>618</ele>
        <time>2021-08-10T10:31:28.786Z</time>
      </trkpt>
      <trkpt lat="46.93953" lon="8.57724">
        <ele>619</ele>
        <time>2021-08-10T10:31:29.786Z</time>
      </trkpt>
      <trkpt lat="46.93953" lon="8.57723">
        <ele>619</ele>
        <time>2021-08-10T10:31:30.787Z</time>
      </trkpt>
      <trkpt lat="46.93953" lon="8.57722">
        <ele>619</ele>
        <time>2021-08-10T10:31:31.786Z</time>
      </trkpt>
      <trkpt lat="46.93952" lon="8.57721">
        <ele>620</ele>
        <time>2021-08-10T10:31:32.786Z</time>
      </trkpt>
      <trkpt lat="46.93952" lon="8.5772">
        <ele>620</ele>
        <time>2021-08-10T10:31:33.787Z</time>
      </trkpt>
      <trkpt lat="46.93951" lon="8.57719">
        <ele>620</ele>
        <time>2021-08-10T10:31:34.786Z</time>
      </trkpt>
      <trkpt lat="46.9395" lon="8.57719">
        <ele>620</ele>
        <time>2021-08-10T10:31:35.786Z</time>
      </trkpt>
      <trkpt lat="46.93949" lon="8.57719">
        <ele>620</ele>
        <time>2021-08-10T10:31:36.786Z</time>
      </trkpt>
      <trkpt lat="46.93948" lon="8.57718">
        <ele>619</ele>
        <time>2021-08-10T10:31:37.786Z</time>
      </trkpt>
      <trkpt lat="46.93947" lon="8.57717">
        <ele>619</ele>
        <time>2021-08-10T10:31:38.786Z</time>
      </trkpt>
      <trkpt lat="46.93947" lon="8.57716">
        <ele>619</ele>
        <time>2021-08-10T10:31:39.786Z</time>
      </trkpt>
      <trkpt lat="46.93947" lon="8.57714">
        <ele>618</ele>
        <time>2021-08-10T10:31:40.786Z</time>
      </trkpt>
      <trkpt lat="46.93947" lon="8.57712">
        <ele>618</ele>
        <time>2021-08-10T10:31:41.786Z</time>
      </trkpt>
      <trkpt lat="46.93946" lon="8.57711">
        <ele>618</ele>
        <time>2021-08-10T10:31:42.786Z</time>
      </trkpt>
      <trkpt lat="46.93945" lon="8.57711">
        <ele>618</ele>
        <time>2021-08-10T10:31:43.786Z</time>
      </trkpt>
      <trkpt lat="46.93944" lon="8.57711">
        <ele>617</ele>
        <time>2021-08-10T10:31:44.786Z</time>
      </trkpt>
      <trkpt lat="46.93944" lon="8.57711">
        <ele>617</ele>
        <time>2021-08-10T10:31:45.786Z</time>
      </trkpt>
      <trkpt lat="46.93944" lon="8.57711">
        <ele>617</ele>
        <time>2021-08-10T10:31:46.786Z</time>
      </trkpt>
      <trkpt lat="46.93944" lon="8.57713">
        <ele>617</ele>
        <time>2021-08-10T10:31:47.786Z</time>
      </trkpt>
      <trkpt lat="46.93944" lon="8.57712">
        <ele>617</ele>
        <time>2021-08-10T10:31:48.786Z</time>
      </trkpt>
      <trkpt lat="46.93944" lon="8.57711">
        <ele>617</ele>
        <time>2021-08-10T10:31:49.787Z</time>
      </trkpt>
      <trkpt lat="46.93944" lon="8.57711">
        <ele>617</ele>
        <time>2021-08-10T10:31:50.787Z</time>
      </trkpt>
      <trkpt lat="46.93943" lon="8.57711">
        <ele>617</ele>
        <time>2021-08-10T10:31:51.787Z</time>
      </trkpt>
      <trkpt lat="46.93943" lon="8.57711">
        <ele>619</ele>
        <time>2021-08-10T10:31:52.788Z</time>
      </trkpt>
      <trkpt lat="46.93942" lon="8.57712">
        <ele>620</ele>
        <time>2021-08-10T10:31:53.789Z</time>
      </trkpt>
      <trkpt lat="46.93942" lon="8.57712">
        <ele>621</ele>
        <time>2021-08-10T10:31:54.789Z</time>
      </trkpt>
      <trkpt lat="46.93941" lon="8.57711">
        <ele>622</ele>
        <time>2021-08-10T10:31:55.789Z</time>
      </trkpt>
      <trkpt lat="46.9394" lon="8.57711">
        <ele>623</ele>
        <time>2021-08-10T10:31:56.788Z</time>
      </trkpt>
      <trkpt lat="46.93939" lon="8.5771">
        <ele>623</ele>
        <time>2021-08-10T10:31:57.789Z</time>
      </trkpt>
      <trkpt lat="46.93938" lon="8.57709">
        <ele>623</ele>
        <time>2021-08-10T10:31:58.789Z</time>
      </trkpt>
      <trkpt lat="46.93937" lon="8.57709">
        <ele>622</ele>
        <time>2021-08-10T10:31:59.789Z</time>
      </trkpt>
      <trkpt lat="46.93936" lon="8.57708">
        <ele>622</ele>
        <time>2021-08-10T10:32:00.789Z</time>
      </trkpt>
      <trkpt lat="46.93935" lon="8.57708">
        <ele>622</ele>
        <time>2021-08-10T10:32:01.788Z</time>
      </trkpt>
      <trkpt lat="46.93933" lon="8.57709">
        <ele>622</ele>
        <time>2021-08-10T10:32:02.788Z</time>
      </trkpt>
      <trkpt lat="46.93931" lon="8.57709">
        <ele>622</ele>
        <time>2021-08-10T10:32:03.789Z</time>
      </trkpt>
      <trkpt lat="46.9393" lon="8.57709">
        <ele>622</ele>
        <time>2021-08-10T10:32:04.789Z</time>
      </trkpt>
      <trkpt lat="46.93929" lon="8.57708">
        <ele>621</ele>
        <time>2021-08-10T10:32:05.788Z</time>
      </trkpt>
      <trkpt lat="46.93928" lon="8.57709">
        <ele>621</ele>
        <time>2021-08-10T10:32:06.789Z</time>
      </trkpt>
      <trkpt lat="46.93926" lon="8.57709">
        <ele>621</ele>
        <time>2021-08-10T10:32:07.788Z</time>
      </trkpt>
      <trkpt lat="46.93925" lon="8.57709">
        <ele>621</ele>
        <time>2021-08-10T10:32:08.788Z</time>
      </trkpt>
      <trkpt lat="46.93924" lon="8.5771">
        <ele>621</ele>
        <time>2021-08-10T10:32:09.788Z</time>
      </trkpt>
      <trkpt lat="46.93923" lon="8.5771">
        <ele>621</ele>
        <time>2021-08-10T10:32:10.788Z</time>
      </trkpt>
      <trkpt lat="46.93923" lon="8.5771">
        <ele>622</ele>
        <time>2021-08-10T10:32:11.788Z</time>
      </trkpt>
      <trkpt lat="46.93923" lon="8.5771">
        <ele>622</ele>
        <time>2021-08-10T10:32:12.788Z</time>
      </trkpt>
      <trkpt lat="46.93922" lon="8.57711">
        <ele>622</ele>
        <time>2021-08-10T10:32:13.788Z</time>
      </trkpt>
      <trkpt lat="46.93921" lon="8.57712">
        <ele>622</ele>
        <time>2021-08-10T10:32:14.789Z</time>
      </trkpt>
      <trkpt lat="46.9392" lon="8.57713">
        <ele>621</ele>
        <time>2021-08-10T10:32:15.789Z</time>
      </trkpt>
      <trkpt lat="46.9392" lon="8.57713">
        <ele>621</ele>
        <time>2021-08-10T10:32:16.789Z</time>
      </trkpt>
      <trkpt lat="46.93919" lon="8.57714">
        <ele>620</ele>
        <time>2021-08-10T10:32:17.789Z</time>
      </trkpt>
      <trkpt lat="46.93917" lon="8.57714">
        <ele>620</ele>
        <time>2021-08-10T10:32:18.789Z</time>
      </trkpt>
      <trkpt lat="46.93916" lon="8.57713">
        <ele>620</ele>
        <time>2021-08-10T10:32:19.789Z</time>
      </trkpt>
      <trkpt lat="46.93916" lon="8.57713">
        <ele>620</ele>
        <time>2021-08-10T10:32:20.789Z</time>
      </trkpt>
      <trkpt lat="46.93915" lon="8.57713">
        <ele>620</ele>
        <time>2021-08-10T10:32:21.788Z</time>
      </trkpt>
      <trkpt lat="46.93914" lon="8.57713">
        <ele>620</ele>
        <time>2021-08-10T10:32:22.789Z</time>
      </trkpt>
      <trkpt lat="46.93914" lon="8.57712">
        <ele>620</ele>
        <time>2021-08-10T10:32:23.788Z</time>
      </trkpt>
      <trkpt lat="46.93913" lon="8.57712">
        <ele>621</ele>
        <time>2021-08-10T10:32:24.789Z</time>
      </trkpt>
      <trkpt lat="46.93913" lon="8.5771">
        <ele>621</ele>
        <time>2021-08-10T10:32:25.788Z</time>
      </trkpt>
      <trkpt lat="46.93913" lon="8.57709">
        <ele>621</ele>
        <time>2021-08-10T10:32:26.788Z</time>
      </trkpt>
      <trkpt lat="46.93913" lon="8.57707">
        <ele>621</ele>
        <time>2021-08-10T10:32:27.789Z</time>
      </trkpt>
      <trkpt lat="46.93913" lon="8.57706">
        <ele>621</ele>
        <time>2021-08-10T10:32:28.789Z</time>
      </trkpt>
      <trkpt lat="46.93913" lon="8.57706">
        <ele>621</ele>
        <time>2021-08-10T10:32:29.789Z</time>
      </trkpt>
      <trkpt lat="46.93912" lon="8.57706">
        <ele>621</ele>
        <time>2021-08-10T10:32:30.789Z</time>
      </trkpt>
      <trkpt lat="46.93912" lon="8.57706">
        <ele>621</ele>
        <time>2021-08-10T10:32:31.789Z</time>
      </trkpt>
      <trkpt lat="46.93912" lon="8.57706">
        <ele>621</ele>
        <time>2021-08-10T10:32:32.789Z</time>
      </trkpt>
      <trkpt lat="46.93911" lon="8.57706">
        <ele>622</ele>
        <time>2021-08-10T10:32:33.789Z</time>
      </trkpt>
      <trkpt lat="46.9391" lon="8.57705">
        <ele>622</ele>
        <time>2021-08-10T10:32:34.789Z</time>
      </trkpt>
      <trkpt lat="46.9391" lon="8.57705">
        <ele>622</ele>
        <time>2021-08-10T10:32:35.790Z</time>
      </trkpt>
      <trkpt lat="46.93909" lon="8.57704">
        <ele>622</ele>
        <time>2021-08-10T10:32:36.790Z</time>
      </trkpt>
      <trkpt lat="46.93909" lon="8.57703">
        <ele>622</ele>
        <time>2021-08-10T10:32:37.789Z</time>
      </trkpt>
      <trkpt lat="46.93909" lon="8.57703">
        <ele>622</ele>
        <time>2021-08-10T10:32:38.790Z</time>
      </trkpt>
      <trkpt lat="46.93908" lon="8.57702">
        <ele>622</ele>
        <time>2021-08-10T10:32:39.790Z</time>
      </trkpt>
      <trkpt lat="46.93907" lon="8.57701">
        <ele>622</ele>
        <time>2021-08-10T10:32:40.790Z</time>
      </trkpt>
      <trkpt lat="46.93907" lon="8.57701">
        <ele>623</ele>
        <time>2021-08-10T10:32:41.789Z</time>
      </trkpt>
      <trkpt lat="46.93907" lon="8.57699">
        <ele>623</ele>
        <time>2021-08-10T10:32:42.790Z</time>
      </trkpt>
      <trkpt lat="46.93907" lon="8.57698">
        <ele>622</ele>
        <time>2021-08-10T10:32:43.789Z</time>
      </trkpt>
      <trkpt lat="46.93907" lon="8.57697">
        <ele>622</ele>
        <time>2021-08-10T10:32:44.790Z</time>
      </trkpt>
      <trkpt lat="46.93906" lon="8.57697">
        <ele>621</ele>
        <time>2021-08-10T10:32:45.790Z</time>
      </trkpt>
      <trkpt lat="46.93906" lon="8.57696">
        <ele>621</ele>
        <time>2021-08-10T10:32:46.790Z</time>
      </trkpt>
      <trkpt lat="46.93906" lon="8.57696">
        <ele>621</ele>
        <time>2021-08-10T10:32:47.790Z</time>
      </trkpt>
      <trkpt lat="46.93906" lon="8.57695">
        <ele>620</ele>
        <time>2021-08-10T10:32:48.790Z</time>
      </trkpt>
      <trkpt lat="46.93906" lon="8.57694">
        <ele>620</ele>
        <time>2021-08-10T10:32:49.790Z</time>
      </trkpt>
      <trkpt lat="46.93905" lon="8.57691">
        <ele>618</ele>
        <time>2021-08-10T10:32:50.791Z</time>
      </trkpt>
      <trkpt lat="46.93905" lon="8.57691">
        <ele>617</ele>
        <time>2021-08-10T10:32:51.790Z</time>
      </trkpt>
      <trkpt lat="46.93905" lon="8.57689">
        <ele>616</ele>
        <time>2021-08-10T10:32:52.791Z</time>
      </trkpt>
      <trkpt lat="46.93904" lon="8.57688">
        <ele>616</ele>
        <time>2021-08-10T10:32:53.790Z</time>
      </trkpt>
      <trkpt lat="46.93905" lon="8.57685">
        <ele>615</ele>
        <time>2021-08-10T10:32:54.791Z</time>
      </trkpt>
      <trkpt lat="46.93906" lon="8.57684">
        <ele>615</ele>
        <time>2021-08-10T10:32:55.790Z</time>
      </trkpt>
      <trkpt lat="46.93907" lon="8.57684">
        <ele>614</ele>
        <time>2021-08-10T10:32:56.791Z</time>
      </trkpt>
      <trkpt lat="46.93907" lon="8.57684">
        <ele>614</ele>
        <time>2021-08-10T10:32:57.790Z</time>
      </trkpt>
      <trkpt lat="46.93906" lon="8.57683">
        <ele>613</ele>
        <time>2021-08-10T10:32:58.791Z</time>
      </trkpt>
      <trkpt lat="46.93906" lon="8.57683">
        <ele>613</ele>
        <time>2021-08-10T10:32:59.790Z</time>
      </trkpt>
      <trkpt lat="46.93905" lon="8.57682">
        <ele>612</ele>
        <time>2021-08-10T10:33:00.791Z</time>
      </trkpt>
      <trkpt lat="46.93905" lon="8.57682">
        <ele>612</ele>
        <time>2021-08-10T10:33:01.791Z</time>
      </trkpt>
      <trkpt lat="46.93905" lon="8.57682">
        <ele>612</ele>
        <time>2021-08-10T10:33:02.791Z</time>
      </trkpt>
      <trkpt lat="46.93905" lon="8.57681">
        <ele>612</ele>
        <time>2021-08-10T10:33:03.790Z</time>
      </trkpt>
      <trkpt lat="46.93905" lon="8.57681">
        <ele>611</ele>
        <time>2021-08-10T10:33:04.791Z</time>
      </trkpt>
      <trkpt lat="46.93905" lon="8.57681">
        <ele>611</ele>
        <time>2021-08-10T10:33:05.791Z</time>
      </trkpt>
      <trkpt lat="46.93905" lon="8.5768">
        <ele>611</ele>
        <time>2021-08-10T10:33:06.791Z</time>
      </trkpt>
      <trkpt lat="46.93904" lon="8.57681">
        <ele>610</ele>
        <time>2021-08-10T10:33:07.791Z</time>
      </trkpt>
      <trkpt lat="46.93904" lon="8.57681">
        <ele>610</ele>
        <time>2021-08-10T10:33:08.790Z</time>
      </trkpt>
      <trkpt lat="46.93904" lon="8.57681">
        <ele>610</ele>
        <time>2021-08-10T10:33:09.791Z</time>
      </trkpt>
      <trkpt lat="46.93903" lon="8.5768">
        <ele>609</ele>
        <time>2021-08-10T10:33:10.792Z</time>
      </trkpt>
      <trkpt lat="46.93902" lon="8.57679">
        <ele>609</ele>
        <time>2021-08-10T10:33:11.792Z</time>
      </trkpt>
      <trkpt lat="46.93902" lon="8.57679">
        <ele>609</ele>
        <time>2021-08-10T10:33:12.791Z</time>
      </trkpt>
      <trkpt lat="46.93901" lon="8.57679">
        <ele>608</ele>
        <time>2021-08-10T10:33:13.792Z</time>
      </trkpt>
      <trkpt lat="46.93901" lon="8.57678">
        <ele>608</ele>
        <time>2021-08-10T10:33:14.792Z</time>
      </trkpt>
      <trkpt lat="46.939" lon="8.57678">
        <ele>608</ele>
        <time>2021-08-10T10:33:15.792Z</time>
      </trkpt>
      <trkpt lat="46.93899" lon="8.57678">
        <ele>608</ele>
        <time>2021-08-10T10:33:16.792Z</time>
      </trkpt>
      <trkpt lat="46.93899" lon="8.57678">
        <ele>608</ele>
        <time>2021-08-10T10:33:17.792Z</time>
      </trkpt>
      <trkpt lat="46.93898" lon="8.57677">
        <ele>608</ele>
        <time>2021-08-10T10:33:18.792Z</time>
      </trkpt>
      <trkpt lat="46.93897" lon="8.57677">
        <ele>608</ele>
        <time>2021-08-10T10:33:19.792Z</time>
      </trkpt>
      <trkpt lat="46.93896" lon="8.57676">
        <ele>608</ele>
        <time>2021-08-10T10:33:20.792Z</time>
      </trkpt>
      <trkpt lat="46.93894" lon="8.57675">
        <ele>607</ele>
        <time>2021-08-10T10:33:21.792Z</time>
      </trkpt>
      <trkpt lat="46.93892" lon="8.57674">
        <ele>607</ele>
        <time>2021-08-10T10:33:22.792Z</time>
      </trkpt>
      <trkpt lat="46.9389" lon="8.57673">
        <ele>607</ele>
        <time>2021-08-10T10:33:23.792Z</time>
      </trkpt>
      <trkpt lat="46.9389" lon="8.57674">
        <ele>608</ele>
        <time>2021-08-10T10:33:24.791Z</time>
      </trkpt>
      <trkpt lat="46.93889" lon="8.57676">
        <ele>607</ele>
        <time>2021-08-10T10:33:25.792Z</time>
      </trkpt>
      <trkpt lat="46.93889" lon="8.57676">
        <ele>607</ele>
        <time>2021-08-10T10:33:26.791Z</time>
      </trkpt>
      <trkpt lat="46.93889" lon="8.57676">
        <ele>607</ele>
        <time>2021-08-10T10:33:27.791Z</time>
      </trkpt>
      <trkpt lat="46.93888" lon="8.57676">
        <ele>606</ele>
        <time>2021-08-10T10:33:28.791Z</time>
      </trkpt>
      <trkpt lat="46.93888" lon="8.57676">
        <ele>605</ele>
        <time>2021-08-10T10:33:29.792Z</time>
      </trkpt>
      <trkpt lat="46.93888" lon="8.57678">
        <ele>604</ele>
        <time>2021-08-10T10:33:30.792Z</time>
      </trkpt>
      <trkpt lat="46.93889" lon="8.57679">
        <ele>604</ele>
        <time>2021-08-10T10:33:31.792Z</time>
      </trkpt>
      <trkpt lat="46.93889" lon="8.5768">
        <ele>603</ele>
        <time>2021-08-10T10:33:32.792Z</time>
      </trkpt>
      <trkpt lat="46.93889" lon="8.57682">
        <ele>602</ele>
        <time>2021-08-10T10:33:33.792Z</time>
      </trkpt>
      <trkpt lat="46.93889" lon="8.57684">
        <ele>602</ele>
        <time>2021-08-10T10:33:34.791Z</time>
      </trkpt>
      <trkpt lat="46.93888" lon="8.57685">
        <ele>601</ele>
        <time>2021-08-10T10:33:35.792Z</time>
      </trkpt>
      <trkpt lat="46.93887" lon="8.57685">
        <ele>601</ele>
        <time>2021-08-10T10:33:36.792Z</time>
      </trkpt>
      <trkpt lat="46.93886" lon="8.57685">
        <ele>601</ele>
        <time>2021-08-10T10:33:37.792Z</time>
      </trkpt>
      <trkpt lat="46.93886" lon="8.57685">
        <ele>600</ele>
        <time>2021-08-10T10:33:38.792Z</time>
      </trkpt>
      <trkpt lat="46.93886" lon="8.57685">
        <ele>600</ele>
        <time>2021-08-10T10:33:39.792Z</time>
      </trkpt>
      <trkpt lat="46.93886" lon="8.57684">
        <ele>600</ele>
        <time>2021-08-10T10:33:40.791Z</time>
      </trkpt>
      <trkpt lat="46.93885" lon="8.57684">
        <ele>600</ele>
        <time>2021-08-10T10:33:41.791Z</time>
      </trkpt>
      <trkpt lat="46.93884" lon="8.57684">
        <ele>601</ele>
        <time>2021-08-10T10:33:42.792Z</time>
      </trkpt>
      <trkpt lat="46.93884" lon="8.57683">
        <ele>601</ele>
        <time>2021-08-10T10:33:43.791Z</time>
      </trkpt>
      <trkpt lat="46.93883" lon="8.57683">
        <ele>602</ele>
        <time>2021-08-10T10:33:44.792Z</time>
      </trkpt>
      <trkpt lat="46.93882" lon="8.57682">
        <ele>602</ele>
        <time>2021-08-10T10:33:45.791Z</time>
      </trkpt>
      <trkpt lat="46.93882" lon="8.57681">
        <ele>603</ele>
        <time>2021-08-10T10:33:46.791Z</time>
      </trkpt>
      <trkpt lat="46.93881" lon="8.57681">
        <ele>603</ele>
        <time>2021-08-10T10:33:47.791Z</time>
      </trkpt>
      <trkpt lat="46.9388" lon="8.57679">
        <ele>603</ele>
        <time>2021-08-10T10:33:48.791Z</time>
      </trkpt>
      <trkpt lat="46.9388" lon="8.57678">
        <ele>603</ele>
        <time>2021-08-10T10:33:49.791Z</time>
      </trkpt>
      <trkpt lat="46.93879" lon="8.57678">
        <ele>603</ele>
        <time>2021-08-10T10:33:50.791Z</time>
      </trkpt>
      <trkpt lat="46.93878" lon="8.57677">
        <ele>603</ele>
        <time>2021-08-10T10:33:51.791Z</time>
      </trkpt>
      <trkpt lat="46.93877" lon="8.57677">
        <ele>603</ele>
        <time>2021-08-10T10:33:52.791Z</time>
      </trkpt>
      <trkpt lat="46.93876" lon="8.57677">
        <ele>603</ele>
        <time>2021-08-10T10:33:53.791Z</time>
      </trkpt>
      <trkpt lat="46.93875" lon="8.57676">
        <ele>603</ele>
        <time>2021-08-10T10:33:54.791Z</time>
      </trkpt>
      <trkpt lat="46.93875" lon="8.57675">
        <ele>603</ele>
        <time>2021-08-10T10:33:55.791Z</time>
      </trkpt>
      <trkpt lat="46.93875" lon="8.57674">
        <ele>604</ele>
        <time>2021-08-10T10:33:56.792Z</time>
      </trkpt>
      <trkpt lat="46.93874" lon="8.57673">
        <ele>604</ele>
        <time>2021-08-10T10:33:57.792Z</time>
      </trkpt>
      <trkpt lat="46.93873" lon="8.57673">
        <ele>604</ele>
        <time>2021-08-10T10:33:58.792Z</time>
      </trkpt>
      <trkpt lat="46.93873" lon="8.57672">
        <ele>604</ele>
        <time>2021-08-10T10:33:59.791Z</time>
      </trkpt>
      <trkpt lat="46.93872" lon="8.57671">
        <ele>604</ele>
        <time>2021-08-10T10:34:00.791Z</time>
      </trkpt>
      <trkpt lat="46.93871" lon="8.57671">
        <ele>604</ele>
        <time>2021-08-10T10:34:01.792Z</time>
      </trkpt>
      <trkpt lat="46.9387" lon="8.57671">
        <ele>604</ele>
        <time>2021-08-10T10:34:02.791Z</time>
      </trkpt>
      <trkpt lat="46.9387" lon="8.57671">
        <ele>603</ele>
        <time>2021-08-10T10:34:03.791Z</time>
      </trkpt>
      <trkpt lat="46.93869" lon="8.57671">
        <ele>603</ele>
        <time>2021-08-10T10:34:04.791Z</time>
      </trkpt>
      <trkpt lat="46.93867" lon="8.5767">
        <ele>602</ele>
        <time>2021-08-10T10:34:05.791Z</time>
      </trkpt>
      <trkpt lat="46.93866" lon="8.5767">
        <ele>602</ele>
        <time>2021-08-10T10:34:06.791Z</time>
      </trkpt>
      <trkpt lat="46.93864" lon="8.5767">
        <ele>601</ele>
        <time>2021-08-10T10:34:07.792Z</time>
      </trkpt>
      <trkpt lat="46.93862" lon="8.5767">
        <ele>601</ele>
        <time>2021-08-10T10:34:08.791Z</time>
      </trkpt>
      <trkpt lat="46.93861" lon="8.57671">
        <ele>600</ele>
        <time>2021-08-10T10:34:09.791Z</time>
      </trkpt>
      <trkpt lat="46.9386" lon="8.57671">
        <ele>600</ele>
        <time>2021-08-10T10:34:10.791Z</time>
      </trkpt>
      <trkpt lat="46.9386" lon="8.5767">
        <ele>599</ele>
        <time>2021-08-10T10:34:11.791Z</time>
      </trkpt>
      <trkpt lat="46.9386" lon="8.5767">
        <ele>599</ele>
        <time>2021-08-10T10:34:12.792Z</time>
      </trkpt>
      <trkpt lat="46.9386" lon="8.57668">
        <ele>598</ele>
        <time>2021-08-10T10:34:13.792Z</time>
      </trkpt>
      <trkpt lat="46.93858" lon="8.57667">
        <ele>597</ele>
        <time>2021-08-10T10:34:14.791Z</time>
      </trkpt>
      <trkpt lat="46.93858" lon="8.57667">
        <ele>597</ele>
        <time>2021-08-10T10:34:15.792Z</time>
      </trkpt>
      <trkpt lat="46.93857" lon="8.57666">
        <ele>597</ele>
        <time>2021-08-10T10:34:16.791Z</time>
      </trkpt>
      <trkpt lat="46.93857" lon="8.57666">
        <ele>596</ele>
        <time>2021-08-10T10:34:17.791Z</time>
      </trkpt>
      <trkpt lat="46.93856" lon="8.57665">
        <ele>596</ele>
        <time>2021-08-10T10:34:18.791Z</time>
      </trkpt>
      <trkpt lat="46.93856" lon="8.57665">
        <ele>595</ele>
        <time>2021-08-10T10:34:19.792Z</time>
      </trkpt>
      <trkpt lat="46.93855" lon="8.57664">
        <ele>595</ele>
        <time>2021-08-10T10:34:20.791Z</time>
      </trkpt>
      <trkpt lat="46.93854" lon="8.57664">
        <ele>595</ele>
        <time>2021-08-10T10:34:21.791Z</time>
      </trkpt>
      <trkpt lat="46.93854" lon="8.57663">
        <ele>595</ele>
        <time>2021-08-10T10:34:22.791Z</time>
      </trkpt>
      <trkpt lat="46.93854" lon="8.57663">
        <ele>595</ele>
        <time>2021-08-10T10:34:23.792Z</time>
      </trkpt>
      <trkpt lat="46.93854" lon="8.57663">
        <ele>595</ele>
        <time>2021-08-10T10:34:24.792Z</time>
      </trkpt>
      <trkpt lat="46.93854" lon="8.57662">
        <ele>595</ele>
        <time>2021-08-10T10:34:25.791Z</time>
      </trkpt>
      <trkpt lat="46.93853" lon="8.57663">
        <ele>592</ele>
        <time>2021-08-10T10:34:26.792Z</time>
      </trkpt>
      <trkpt lat="46.93852" lon="8.57662">
        <ele>591</ele>
        <time>2021-08-10T10:34:27.791Z</time>
      </trkpt>
      <trkpt lat="46.93851" lon="8.57661">
        <ele>591</ele>
        <time>2021-08-10T10:34:28.791Z</time>
      </trkpt>
      <trkpt lat="46.93851" lon="8.5766">
        <ele>591</ele>
        <time>2021-08-10T10:34:29.792Z</time>
      </trkpt>
      <trkpt lat="46.9385" lon="8.57659">
        <ele>591</ele>
        <time>2021-08-10T10:34:30.792Z</time>
      </trkpt>
      <trkpt lat="46.93849" lon="8.57657">
        <ele>591</ele>
        <time>2021-08-10T10:34:31.791Z</time>
      </trkpt>
      <trkpt lat="46.93848" lon="8.57656">
        <ele>591</ele>
        <time>2021-08-10T10:34:32.791Z</time>
      </trkpt>
      <trkpt lat="46.93848" lon="8.57654">
        <ele>591</ele>
        <time>2021-08-10T10:34:33.791Z</time>
      </trkpt>
      <trkpt lat="46.93849" lon="8.57653">
        <ele>591</ele>
        <time>2021-08-10T10:34:34.791Z</time>
      </trkpt>
      <trkpt lat="46.93849" lon="8.57651">
        <ele>591</ele>
        <time>2021-08-10T10:34:35.791Z</time>
      </trkpt>
      <trkpt lat="46.93848" lon="8.5765">
        <ele>591</ele>
        <time>2021-08-10T10:34:36.791Z</time>
      </trkpt>
      <trkpt lat="46.93848" lon="8.57649">
        <ele>591</ele>
        <time>2021-08-10T10:34:37.791Z</time>
      </trkpt>
      <trkpt lat="46.93847" lon="8.57648">
        <ele>591</ele>
        <time>2021-08-10T10:34:38.791Z</time>
      </trkpt>
      <trkpt lat="46.93847" lon="8.57646">
        <ele>591</ele>
        <time>2021-08-10T10:34:39.792Z</time>
      </trkpt>
      <trkpt lat="46.93846" lon="8.57645">
        <ele>591</ele>
        <time>2021-08-10T10:34:40.791Z</time>
      </trkpt>
      <trkpt lat="46.93845" lon="8.57643">
        <ele>591</ele>
        <time>2021-08-10T10:34:41.791Z</time>
      </trkpt>
      <trkpt lat="46.93844" lon="8.57642">
        <ele>591</ele>
        <time>2021-08-10T10:34:42.791Z</time>
      </trkpt>
      <trkpt lat="46.93843" lon="8.57641">
        <ele>591</ele>
        <time>2021-08-10T10:34:43.792Z</time>
      </trkpt>
      <trkpt lat="46.93842" lon="8.5764">
        <ele>592</ele>
        <time>2021-08-10T10:34:44.791Z</time>
      </trkpt>
      <trkpt lat="46.93841" lon="8.57639">
        <ele>592</ele>
        <time>2021-08-10T10:34:45.792Z</time>
      </trkpt>
      <trkpt lat="46.93841" lon="8.57638">
        <ele>591</ele>
        <time>2021-08-10T10:34:46.792Z</time>
      </trkpt>
      <trkpt lat="46.9384" lon="8.57637">
        <ele>591</ele>
        <time>2021-08-10T10:34:47.792Z</time>
      </trkpt>
      <trkpt lat="46.93839" lon="8.57636">
        <ele>591</ele>
        <time>2021-08-10T10:34:48.792Z</time>
      </trkpt>
      <trkpt lat="46.93839" lon="8.57636">
        <ele>590</ele>
        <time>2021-08-10T10:34:49.791Z</time>
      </trkpt>
      <trkpt lat="46.93839" lon="8.57636">
        <ele>590</ele>
        <time>2021-08-10T10:34:50.792Z</time>
      </trkpt>
      <trkpt lat="46.93838" lon="8.57637">
        <ele>589</ele>
        <time>2021-08-10T10:34:51.791Z</time>
      </trkpt>
      <trkpt lat="46.93834" lon="8.57635">
        <ele>592</ele>
        <time>2021-08-10T10:34:52.791Z</time>
      </trkpt>
      <trkpt lat="46.93834" lon="8.57634">
        <ele>592</ele>
        <time>2021-08-10T10:34:53.791Z</time>
      </trkpt>
      <trkpt lat="46.93834" lon="8.57632">
        <ele>591</ele>
        <time>2021-08-10T10:34:54.791Z</time>
      </trkpt>
      <trkpt lat="46.93834" lon="8.57631">
        <ele>591</ele>
        <time>2021-08-10T10:34:55.791Z</time>
      </trkpt>
      <trkpt lat="46.93833" lon="8.5763">
        <ele>590</ele>
        <time>2021-08-10T10:34:56.791Z</time>
      </trkpt>
      <trkpt lat="46.93833" lon="8.57629">
        <ele>590</ele>
        <time>2021-08-10T10:34:57.792Z</time>
      </trkpt>
      <trkpt lat="46.93832" lon="8.57628">
        <ele>589</ele>
        <time>2021-08-10T10:34:58.791Z</time>
      </trkpt>
      <trkpt lat="46.93832" lon="8.57627">
        <ele>589</ele>
        <time>2021-08-10T10:34:59.791Z</time>
      </trkpt>
      <trkpt lat="46.93832" lon="8.57626">
        <ele>589</ele>
        <time>2021-08-10T10:35:00.791Z</time>
      </trkpt>
      <trkpt lat="46.93832" lon="8.57625">
        <ele>589</ele>
        <time>2021-08-10T10:35:01.792Z</time>
      </trkpt>
      <trkpt lat="46.93831" lon="8.57624">
        <ele>589</ele>
        <time>2021-08-10T10:35:02.791Z</time>
      </trkpt>
      <trkpt lat="46.9383" lon="8.57623">
        <ele>589</ele>
        <time>2021-08-10T10:35:03.792Z</time>
      </trkpt>
      <trkpt lat="46.9383" lon="8.57623">
        <ele>588</ele>
        <time>2021-08-10T10:35:04.792Z</time>
      </trkpt>
      <trkpt lat="46.9383" lon="8.57621">
        <ele>588</ele>
        <time>2021-08-10T10:35:05.791Z</time>
      </trkpt>
      <trkpt lat="46.93829" lon="8.57619">
        <ele>588</ele>
        <time>2021-08-10T10:35:06.791Z</time>
      </trkpt>
      <trkpt lat="46.93828" lon="8.57618">
        <ele>587</ele>
        <time>2021-08-10T10:35:07.791Z</time>
      </trkpt>
      <trkpt lat="46.93828" lon="8.57618">
        <ele>587</ele>
        <time>2021-08-10T10:35:08.792Z</time>
      </trkpt>
      <trkpt lat="46.93827" lon="8.57617">
        <ele>587</ele>
        <time>2021-08-10T10:35:09.792Z</time>
      </trkpt>
      <trkpt lat="46.93826" lon="8.57616">
        <ele>587</ele>
        <time>2021-08-10T10:35:10.791Z</time>
      </trkpt>
      <trkpt lat="46.93825" lon="8.57615">
        <ele>588</ele>
        <time>2021-08-10T10:35:11.791Z</time>
      </trkpt>
      <trkpt lat="46.93824" lon="8.57614">
        <ele>588</ele>
        <time>2021-08-10T10:35:12.792Z</time>
      </trkpt>
      <trkpt lat="46.93823" lon="8.57613">
        <ele>588</ele>
        <time>2021-08-10T10:35:13.791Z</time>
      </trkpt>
      <trkpt lat="46.93823" lon="8.57611">
        <ele>588</ele>
        <time>2021-08-10T10:35:14.791Z</time>
      </trkpt>
      <trkpt lat="46.93822" lon="8.5761">
        <ele>588</ele>
        <time>2021-08-10T10:35:15.791Z</time>
      </trkpt>
      <trkpt lat="46.93821" lon="8.57609">
        <ele>588</ele>
        <time>2021-08-10T10:35:16.791Z</time>
      </trkpt>
      <trkpt lat="46.93821" lon="8.57607">
        <ele>588</ele>
        <time>2021-08-10T10:35:17.791Z</time>
      </trkpt>
      <trkpt lat="46.9382" lon="8.57606">
        <ele>588</ele>
        <time>2021-08-10T10:35:18.791Z</time>
      </trkpt>
      <trkpt lat="46.9382" lon="8.57603">
        <ele>588</ele>
        <time>2021-08-10T10:35:19.792Z</time>
      </trkpt>
      <trkpt lat="46.93819" lon="8.57602">
        <ele>588</ele>
        <time>2021-08-10T10:35:20.791Z</time>
      </trkpt>
      <trkpt lat="46.93818" lon="8.576">
        <ele>588</ele>
        <time>2021-08-10T10:35:21.791Z</time>
      </trkpt>
      <trkpt lat="46.93817" lon="8.57599">
        <ele>588</ele>
        <time>2021-08-10T10:35:22.791Z</time>
      </trkpt>
      <trkpt lat="46.93817" lon="8.57598">
        <ele>589</ele>
        <time>2021-08-10T10:35:23.791Z</time>
      </trkpt>
      <trkpt lat="46.93816" lon="8.57597">
        <ele>589</ele>
        <time>2021-08-10T10:35:24.792Z</time>
      </trkpt>
      <trkpt lat="46.93816" lon="8.57596">
        <ele>590</ele>
        <time>2021-08-10T10:35:25.791Z</time>
      </trkpt>
      <trkpt lat="46.93816" lon="8.57594">
        <ele>590</ele>
        <time>2021-08-10T10:35:26.792Z</time>
      </trkpt>
      <trkpt lat="46.93816" lon="8.57593">
        <ele>590</ele>
        <time>2021-08-10T10:35:27.791Z</time>
      </trkpt>
      <trkpt lat="46.93816" lon="8.57591">
        <ele>590</ele>
        <time>2021-08-10T10:35:28.791Z</time>
      </trkpt>
      <trkpt lat="46.93816" lon="8.57589">
        <ele>590</ele>
        <time>2021-08-10T10:35:29.792Z</time>
      </trkpt>
      <trkpt lat="46.93816" lon="8.57588">
        <ele>591</ele>
        <time>2021-08-10T10:35:30.792Z</time>
      </trkpt>
      <trkpt lat="46.93816" lon="8.57586">
        <ele>592</ele>
        <time>2021-08-10T10:35:31.792Z</time>
      </trkpt>
      <trkpt lat="46.93816" lon="8.57585">
        <ele>592</ele>
        <time>2021-08-10T10:35:32.792Z</time>
      </trkpt>
      <trkpt lat="46.93815" lon="8.57585">
        <ele>593</ele>
        <time>2021-08-10T10:35:33.792Z</time>
      </trkpt>
      <trkpt lat="46.93816" lon="8.57584">
        <ele>594</ele>
        <time>2021-08-10T10:35:34.792Z</time>
      </trkpt>
      <trkpt lat="46.93816" lon="8.57582">
        <ele>594</ele>
        <time>2021-08-10T10:35:35.792Z</time>
      </trkpt>
      <trkpt lat="46.93815" lon="8.5758">
        <ele>595</ele>
        <time>2021-08-10T10:35:36.791Z</time>
      </trkpt>
      <trkpt lat="46.93815" lon="8.57578">
        <ele>596</ele>
        <time>2021-08-10T10:35:37.792Z</time>
      </trkpt>
      <trkpt lat="46.93814" lon="8.57577">
        <ele>596</ele>
        <time>2021-08-10T10:35:38.792Z</time>
      </trkpt>
      <trkpt lat="46.93814" lon="8.57575">
        <ele>597</ele>
        <time>2021-08-10T10:35:39.792Z</time>
      </trkpt>
      <trkpt lat="46.93813" lon="8.57575">
        <ele>598</ele>
        <time>2021-08-10T10:35:40.791Z</time>
      </trkpt>
      <trkpt lat="46.93813" lon="8.57574">
        <ele>598</ele>
        <time>2021-08-10T10:35:41.791Z</time>
      </trkpt>
      <trkpt lat="46.93813" lon="8.57574">
        <ele>599</ele>
        <time>2021-08-10T10:35:42.791Z</time>
      </trkpt>
      <trkpt lat="46.93812" lon="8.57573">
        <ele>599</ele>
        <time>2021-08-10T10:35:43.791Z</time>
      </trkpt>
      <trkpt lat="46.93811" lon="8.57574">
        <ele>599</ele>
        <time>2021-08-10T10:35:44.791Z</time>
      </trkpt>
      <trkpt lat="46.9381" lon="8.57573">
        <ele>599</ele>
        <time>2021-08-10T10:35:45.792Z</time>
      </trkpt>
      <trkpt lat="46.93809" lon="8.57573">
        <ele>599</ele>
        <time>2021-08-10T10:35:46.791Z</time>
      </trkpt>
      <trkpt lat="46.93807" lon="8.57574">
        <ele>599</ele>
        <time>2021-08-10T10:35:47.792Z</time>
      </trkpt>
      <trkpt lat="46.93806" lon="8.57574">
        <ele>599</ele>
        <time>2021-08-10T10:35:48.791Z</time>
      </trkpt>
      <trkpt lat="46.93805" lon="8.57573">
        <ele>599</ele>
        <time>2021-08-10T10:35:49.791Z</time>
      </trkpt>
      <trkpt lat="46.93804" lon="8.57573">
        <ele>599</ele>
        <time>2021-08-10T10:35:50.791Z</time>
      </trkpt>
      <trkpt lat="46.93803" lon="8.57572">
        <ele>599</ele>
        <time>2021-08-10T10:35:51.792Z</time>
      </trkpt>
      <trkpt lat="46.93803" lon="8.57572">
        <ele>598</ele>
        <time>2021-08-10T10:35:52.791Z</time>
      </trkpt>
      <trkpt lat="46.93802" lon="8.57571">
        <ele>598</ele>
        <time>2021-08-10T10:35:53.791Z</time>
      </trkpt>
      <trkpt lat="46.93802" lon="8.5757">
        <ele>599</ele>
        <time>2021-08-10T10:35:54.791Z</time>
      </trkpt>
      <trkpt lat="46.93802" lon="8.57569">
        <ele>599</ele>
        <time>2021-08-10T10:35:55.791Z</time>
      </trkpt>
      <trkpt lat="46.93801" lon="8.57569">
        <ele>599</ele>
        <time>2021-08-10T10:35:56.791Z</time>
      </trkpt>
      <trkpt lat="46.93801" lon="8.57568">
        <ele>599</ele>
        <time>2021-08-10T10:35:57.792Z</time>
      </trkpt>
      <trkpt lat="46.93801" lon="8.57568">
        <ele>599</ele>
        <time>2021-08-10T10:35:58.792Z</time>
      </trkpt>
      <trkpt lat="46.938" lon="8.57567">
        <ele>601</ele>
        <time>2021-08-10T10:35:59.792Z</time>
      </trkpt>
      <trkpt lat="46.938" lon="8.57567">
        <ele>601</ele>
        <time>2021-08-10T10:36:00.792Z</time>
      </trkpt>
      <trkpt lat="46.938" lon="8.57566">
        <ele>602</ele>
        <time>2021-08-10T10:36:01.791Z</time>
      </trkpt>
      <trkpt lat="46.93799" lon="8.57566">
        <ele>602</ele>
        <time>2021-08-10T10:36:02.792Z</time>
      </trkpt>
      <trkpt lat="46.93799" lon="8.57565">
        <ele>603</ele>
        <time>2021-08-10T10:36:03.792Z</time>
      </trkpt>
      <trkpt lat="46.93798" lon="8.57565">
        <ele>603</ele>
        <time>2021-08-10T10:36:04.792Z</time>
      </trkpt>
      <trkpt lat="46.93797" lon="8.57565">
        <ele>602</ele>
        <time>2021-08-10T10:36:05.792Z</time>
      </trkpt>
      <trkpt lat="46.93797" lon="8.57566">
        <ele>602</ele>
        <time>2021-08-10T10:36:06.792Z</time>
      </trkpt>
      <trkpt lat="46.93797" lon="8.57565">
        <ele>602</ele>
        <time>2021-08-10T10:36:07.792Z</time>
      </trkpt>
      <trkpt lat="46.93796" lon="8.57564">
        <ele>602</ele>
        <time>2021-08-10T10:36:08.792Z</time>
      </trkpt>
      <trkpt lat="46.93796" lon="8.57563">
        <ele>602</ele>
        <time>2021-08-10T10:36:09.792Z</time>
      </trkpt>
      <trkpt lat="46.93795" lon="8.57562">
        <ele>601</ele>
        <time>2021-08-10T10:36:10.792Z</time>
      </trkpt>
      <trkpt lat="46.93795" lon="8.5756">
        <ele>601</ele>
        <time>2021-08-10T10:36:11.791Z</time>
      </trkpt>
      <trkpt lat="46.93796" lon="8.57558">
        <ele>601</ele>
        <time>2021-08-10T10:36:12.791Z</time>
      </trkpt>
      <trkpt lat="46.93796" lon="8.57557">
        <ele>601</ele>
        <time>2021-08-10T10:36:13.791Z</time>
      </trkpt>
      <trkpt lat="46.93795" lon="8.57557">
        <ele>600</ele>
        <time>2021-08-10T10:36:14.791Z</time>
      </trkpt>
      <trkpt lat="46.93795" lon="8.57557">
        <ele>600</ele>
        <time>2021-08-10T10:36:15.792Z</time>
      </trkpt>
      <trkpt lat="46.93795" lon="8.57556">
        <ele>599</ele>
        <time>2021-08-10T10:36:16.792Z</time>
      </trkpt>
      <trkpt lat="46.93795" lon="8.57554">
        <ele>599</ele>
        <time>2021-08-10T10:36:17.792Z</time>
      </trkpt>
      <trkpt lat="46.93795" lon="8.57554">
        <ele>599</ele>
        <time>2021-08-10T10:36:18.792Z</time>
      </trkpt>
      <trkpt lat="46.93794" lon="8.57553">
        <ele>599</ele>
        <time>2021-08-10T10:36:19.791Z</time>
      </trkpt>
      <trkpt lat="46.93793" lon="8.57552">
        <ele>599</ele>
        <time>2021-08-10T10:36:20.791Z</time>
      </trkpt>
      <trkpt lat="46.93792" lon="8.57551">
        <ele>599</ele>
        <time>2021-08-10T10:36:21.792Z</time>
      </trkpt>
      <trkpt lat="46.93791" lon="8.57551">
        <ele>599</ele>
        <time>2021-08-10T10:36:22.792Z</time>
      </trkpt>
      <trkpt lat="46.9379" lon="8.57551">
        <ele>600</ele>
        <time>2021-08-10T10:36:23.792Z</time>
      </trkpt>
      <trkpt lat="46.93789" lon="8.5755">
        <ele>599</ele>
        <time>2021-08-10T10:36:24.792Z</time>
      </trkpt>
      <trkpt lat="46.93788" lon="8.5755">
        <ele>599</ele>
        <time>2021-08-10T10:36:25.792Z</time>
      </trkpt>
      <trkpt lat="46.93787" lon="8.5755">
        <ele>599</ele>
        <time>2021-08-10T10:36:26.792Z</time>
      </trkpt>
      <trkpt lat="46.93786" lon="8.5755">
        <ele>599</ele>
        <time>2021-08-10T10:36:27.791Z</time>
      </trkpt>
      <trkpt lat="46.93785" lon="8.57549">
        <ele>600</ele>
        <time>2021-08-10T10:36:28.791Z</time>
      </trkpt>
      <trkpt lat="46.93784" lon="8.57549">
        <ele>600</ele>
        <time>2021-08-10T10:36:29.792Z</time>
      </trkpt>
      <trkpt lat="46.93784" lon="8.57549">
        <ele>600</ele>
        <time>2021-08-10T10:36:30.792Z</time>
      </trkpt>
      <trkpt lat="46.93783" lon="8.57548">
        <ele>600</ele>
        <time>2021-08-10T10:36:31.792Z</time>
      </trkpt>
      <trkpt lat="46.93782" lon="8.57548">
        <ele>600</ele>
        <time>2021-08-10T10:36:32.791Z</time>
      </trkpt>
      <trkpt lat="46.93782" lon="8.57548">
        <ele>600</ele>
        <time>2021-08-10T10:36:33.792Z</time>
      </trkpt>
      <trkpt lat="46.93781" lon="8.57548">
        <ele>600</ele>
        <time>2021-08-10T10:36:34.792Z</time>
      </trkpt>
      <trkpt lat="46.9378" lon="8.57548">
        <ele>600</ele>
        <time>2021-08-10T10:36:35.792Z</time>
      </trkpt>
      <trkpt lat="46.93779" lon="8.57548">
        <ele>600</ele>
        <time>2021-08-10T10:36:36.792Z</time>
      </trkpt>
      <trkpt lat="46.93778" lon="8.57548">
        <ele>600</ele>
        <time>2021-08-10T10:36:37.792Z</time>
      </trkpt>
      <trkpt lat="46.93777" lon="8.57548">
        <ele>600</ele>
        <time>2021-08-10T10:36:38.792Z</time>
      </trkpt>
      <trkpt lat="46.93776" lon="8.57548">
        <ele>600</ele>
        <time>2021-08-10T10:36:39.791Z</time>
      </trkpt>
      <trkpt lat="46.93776" lon="8.57548">
        <ele>600</ele>
        <time>2021-08-10T10:36:40.791Z</time>
      </trkpt>
      <trkpt lat="46.93776" lon="8.57549">
        <ele>600</ele>
        <time>2021-08-10T10:36:41.792Z</time>
      </trkpt>
      <trkpt lat="46.93776" lon="8.57549">
        <ele>600</ele>
        <time>2021-08-10T10:36:42.791Z</time>
      </trkpt>
      <trkpt lat="46.93774" lon="8.57549">
        <ele>599</ele>
        <time>2021-08-10T10:36:43.792Z</time>
      </trkpt>
      <trkpt lat="46.93774" lon="8.57548">
        <ele>599</ele>
        <time>2021-08-10T10:36:44.792Z</time>
      </trkpt>
      <trkpt lat="46.93773" lon="8.57548">
        <ele>599</ele>
        <time>2021-08-10T10:36:45.791Z</time>
      </trkpt>
      <trkpt lat="46.93772" lon="8.57547">
        <ele>599</ele>
        <time>2021-08-10T10:36:46.792Z</time>
      </trkpt>
      <trkpt lat="46.93771" lon="8.57546">
        <ele>599</ele>
        <time>2021-08-10T10:36:47.792Z</time>
      </trkpt>
      <trkpt lat="46.93769" lon="8.57546">
        <ele>599</ele>
        <time>2021-08-10T10:36:48.792Z</time>
      </trkpt>
      <trkpt lat="46.93768" lon="8.57546">
        <ele>599</ele>
        <time>2021-08-10T10:36:49.792Z</time>
      </trkpt>
      <trkpt lat="46.93767" lon="8.57546">
        <ele>599</ele>
        <time>2021-08-10T10:36:50.792Z</time>
      </trkpt>
      <trkpt lat="46.93766" lon="8.57545">
        <ele>599</ele>
        <time>2021-08-10T10:36:51.792Z</time>
      </trkpt>
      <trkpt lat="46.93765" lon="8.57544">
        <ele>598</ele>
        <time>2021-08-10T10:36:52.791Z</time>
      </trkpt>
      <trkpt lat="46.93763" lon="8.57543">
        <ele>598</ele>
        <time>2021-08-10T10:36:53.792Z</time>
      </trkpt>
      <trkpt lat="46.93762" lon="8.57543">
        <ele>597</ele>
        <time>2021-08-10T10:36:54.792Z</time>
      </trkpt>
      <trkpt lat="46.9376" lon="8.57543">
        <ele>596</ele>
        <time>2021-08-10T10:36:55.792Z</time>
      </trkpt>
      <trkpt lat="46.93759" lon="8.57542">
        <ele>595</ele>
        <time>2021-08-10T10:36:56.792Z</time>
      </trkpt>
      <trkpt lat="46.93758" lon="8.57541">
        <ele>594</ele>
        <time>2021-08-10T10:36:57.791Z</time>
      </trkpt>
      <trkpt lat="46.93756" lon="8.57541">
        <ele>593</ele>
        <time>2021-08-10T10:36:58.791Z</time>
      </trkpt>
      <trkpt lat="46.93755" lon="8.5754">
        <ele>592</ele>
        <time>2021-08-10T10:36:59.791Z</time>
      </trkpt>
      <trkpt lat="46.93754" lon="8.5754">
        <ele>591</ele>
        <time>2021-08-10T10:37:00.791Z</time>
      </trkpt>
      <trkpt lat="46.93753" lon="8.5754">
        <ele>591</ele>
        <time>2021-08-10T10:37:01.792Z</time>
      </trkpt>
      <trkpt lat="46.93753" lon="8.57539">
        <ele>590</ele>
        <time>2021-08-10T10:37:02.792Z</time>
      </trkpt>
      <trkpt lat="46.93752" lon="8.57539">
        <ele>590</ele>
        <time>2021-08-10T10:37:03.792Z</time>
      </trkpt>
      <trkpt lat="46.93751" lon="8.57538">
        <ele>590</ele>
        <time>2021-08-10T10:37:04.792Z</time>
      </trkpt>
      <trkpt lat="46.9375" lon="8.57538">
        <ele>590</ele>
        <time>2021-08-10T10:37:05.793Z</time>
      </trkpt>
      <trkpt lat="46.9375" lon="8.57538">
        <ele>590</ele>
        <time>2021-08-10T10:37:06.792Z</time>
      </trkpt>
      <trkpt lat="46.93749" lon="8.57538">
        <ele>591</ele>
        <time>2021-08-10T10:37:07.793Z</time>
      </trkpt>
      <trkpt lat="46.93749" lon="8.57538">
        <ele>591</ele>
        <time>2021-08-10T10:37:08.793Z</time>
      </trkpt>
      <trkpt lat="46.93749" lon="8.57538">
        <ele>591</ele>
        <time>2021-08-10T10:37:09.792Z</time>
      </trkpt>
      <trkpt lat="46.93748" lon="8.57538">
        <ele>592</ele>
        <time>2021-08-10T10:37:10.793Z</time>
      </trkpt>
      <trkpt lat="46.93748" lon="8.57538">
        <ele>592</ele>
        <time>2021-08-10T10:37:11.792Z</time>
      </trkpt>
      <trkpt lat="46.93747" lon="8.57537">
        <ele>592</ele>
        <time>2021-08-10T10:37:12.792Z</time>
      </trkpt>
      <trkpt lat="46.93747" lon="8.57537">
        <ele>592</ele>
        <time>2021-08-10T10:37:13.793Z</time>
      </trkpt>
      <trkpt lat="46.93746" lon="8.57537">
        <ele>593</ele>
        <time>2021-08-10T10:37:14.792Z</time>
      </trkpt>
      <trkpt lat="46.93746" lon="8.57536">
        <ele>593</ele>
        <time>2021-08-10T10:37:15.793Z</time>
      </trkpt>
      <trkpt lat="46.93746" lon="8.57535">
        <ele>593</ele>
        <time>2021-08-10T10:37:16.793Z</time>
      </trkpt>
      <trkpt lat="46.93747" lon="8.57535">
        <ele>593</ele>
        <time>2021-08-10T10:37:17.793Z</time>
      </trkpt>
      <trkpt lat="46.93746" lon="8.57534">
        <ele>593</ele>
        <time>2021-08-10T10:37:18.792Z</time>
      </trkpt>
      <trkpt lat="46.93744" lon="8.57536">
        <ele>593</ele>
        <time>2021-08-10T10:37:19.793Z</time>
      </trkpt>
      <trkpt lat="46.93743" lon="8.57538">
        <ele>594</ele>
        <time>2021-08-10T10:37:20.793Z</time>
      </trkpt>
      <trkpt lat="46.93741" lon="8.57538">
        <ele>594</ele>
        <time>2021-08-10T10:37:21.792Z</time>
      </trkpt>
      <trkpt lat="46.93741" lon="8.57539">
        <ele>595</ele>
        <time>2021-08-10T10:37:22.793Z</time>
      </trkpt>
      <trkpt lat="46.9374" lon="8.57539">
        <ele>596</ele>
        <time>2021-08-10T10:37:23.793Z</time>
      </trkpt>
      <trkpt lat="46.93739" lon="8.57539">
        <ele>596</ele>
        <time>2021-08-10T10:37:24.793Z</time>
      </trkpt>
      <trkpt lat="46.93738" lon="8.57539">
        <ele>596</ele>
        <time>2021-08-10T10:37:25.793Z</time>
      </trkpt>
      <trkpt lat="46.93737" lon="8.57539">
        <ele>596</ele>
        <time>2021-08-10T10:37:26.793Z</time>
      </trkpt>
      <trkpt lat="46.93736" lon="8.57539">
        <ele>596</ele>
        <time>2021-08-10T10:37:27.792Z</time>
      </trkpt>
      <trkpt lat="46.93736" lon="8.57539">
        <ele>596</ele>
        <time>2021-08-10T10:37:28.793Z</time>
      </trkpt>
      <trkpt lat="46.93736" lon="8.57539">
        <ele>596</ele>
        <time>2021-08-10T10:37:29.793Z</time>
      </trkpt>
      <trkpt lat="46.93736" lon="8.57538">
        <ele>597</ele>
        <time>2021-08-10T10:37:30.792Z</time>
      </trkpt>
      <trkpt lat="46.93736" lon="8.57537">
        <ele>597</ele>
        <time>2021-08-10T10:37:31.792Z</time>
      </trkpt>
      <trkpt lat="46.93736" lon="8.57537">
        <ele>597</ele>
        <time>2021-08-10T10:37:32.793Z</time>
      </trkpt>
      <trkpt lat="46.93736" lon="8.57537">
        <ele>597</ele>
        <time>2021-08-10T10:37:33.792Z</time>
      </trkpt>
      <trkpt lat="46.93735" lon="8.57537">
        <ele>597</ele>
        <time>2021-08-10T10:37:34.795Z</time>
      </trkpt>
      <trkpt lat="46.93734" lon="8.57537">
        <ele>597</ele>
        <time>2021-08-10T10:37:35.794Z</time>
      </trkpt>
      <trkpt lat="46.93734" lon="8.57536">
        <ele>597</ele>
        <time>2021-08-10T10:37:36.794Z</time>
      </trkpt>
      <trkpt lat="46.93733" lon="8.57536">
        <ele>597</ele>
        <time>2021-08-10T10:37:37.794Z</time>
      </trkpt>
      <trkpt lat="46.93733" lon="8.57536">
        <ele>597</ele>
        <time>2021-08-10T10:37:38.795Z</time>
      </trkpt>
      <trkpt lat="46.93733" lon="8.57535">
        <ele>597</ele>
        <time>2021-08-10T10:37:39.795Z</time>
      </trkpt>
      <trkpt lat="46.93732" lon="8.57535">
        <ele>596</ele>
        <time>2021-08-10T10:37:40.795Z</time>
      </trkpt>
      <trkpt lat="46.93732" lon="8.57535">
        <ele>596</ele>
        <time>2021-08-10T10:37:41.794Z</time>
      </trkpt>
      <trkpt lat="46.93732" lon="8.57536">
        <ele>596</ele>
        <time>2021-08-10T10:37:42.795Z</time>
      </trkpt>
      <trkpt lat="46.93731" lon="8.57538">
        <ele>596</ele>
        <time>2021-08-10T10:37:43.795Z</time>
      </trkpt>
      <trkpt lat="46.9373" lon="8.57539">
        <ele>596</ele>
        <time>2021-08-10T10:37:44.795Z</time>
      </trkpt>
      <trkpt lat="46.93728" lon="8.5754">
        <ele>596</ele>
        <time>2021-08-10T10:37:45.795Z</time>
      </trkpt>
      <trkpt lat="46.93727" lon="8.57539">
        <ele>596</ele>
        <time>2021-08-10T10:37:46.795Z</time>
      </trkpt>
      <trkpt lat="46.93727" lon="8.57539">
        <ele>595</ele>
        <time>2021-08-10T10:37:47.794Z</time>
      </trkpt>
      <trkpt lat="46.93727" lon="8.57537">
        <ele>595</ele>
        <time>2021-08-10T10:37:48.794Z</time>
      </trkpt>
      <trkpt lat="46.93727" lon="8.57534">
        <ele>595</ele>
        <time>2021-08-10T10:37:49.795Z</time>
      </trkpt>
      <trkpt lat="46.93727" lon="8.57532">
        <ele>594</ele>
        <time>2021-08-10T10:37:50.795Z</time>
      </trkpt>
      <trkpt lat="46.93726" lon="8.57532">
        <ele>594</ele>
        <time>2021-08-10T10:37:51.794Z</time>
      </trkpt>
      <trkpt lat="46.93725" lon="8.5753">
        <ele>593</ele>
        <time>2021-08-10T10:37:52.795Z</time>
      </trkpt>
      <trkpt lat="46.93724" lon="8.5753">
        <ele>593</ele>
        <time>2021-08-10T10:37:53.794Z</time>
      </trkpt>
      <trkpt lat="46.93723" lon="8.5753">
        <ele>593</ele>
        <time>2021-08-10T10:37:54.794Z</time>
      </trkpt>
      <trkpt lat="46.93723" lon="8.57531">
        <ele>593</ele>
        <time>2021-08-10T10:37:55.795Z</time>
      </trkpt>
      <trkpt lat="46.93723" lon="8.57532">
        <ele>593</ele>
        <time>2021-08-10T10:37:56.794Z</time>
      </trkpt>
      <trkpt lat="46.93723" lon="8.57533">
        <ele>594</ele>
        <time>2021-08-10T10:37:57.795Z</time>
      </trkpt>
      <trkpt lat="46.93722" lon="8.57533">
        <ele>594</ele>
        <time>2021-08-10T10:37:58.795Z</time>
      </trkpt>
      <trkpt lat="46.93721" lon="8.57534">
        <ele>594</ele>
        <time>2021-08-10T10:37:59.795Z</time>
      </trkpt>
      <trkpt lat="46.93721" lon="8.57533">
        <ele>595</ele>
        <time>2021-08-10T10:38:00.794Z</time>
      </trkpt>
      <trkpt lat="46.93721" lon="8.57533">
        <ele>595</ele>
        <time>2021-08-10T10:38:01.794Z</time>
      </trkpt>
      <trkpt lat="46.93721" lon="8.57532">
        <ele>595</ele>
        <time>2021-08-10T10:38:02.795Z</time>
      </trkpt>
      <trkpt lat="46.93721" lon="8.57531">
        <ele>595</ele>
        <time>2021-08-10T10:38:03.794Z</time>
      </trkpt>
      <trkpt lat="46.93719" lon="8.57531">
        <ele>595</ele>
        <time>2021-08-10T10:38:04.794Z</time>
      </trkpt>
      <trkpt lat="46.93718" lon="8.57531">
        <ele>595</ele>
        <time>2021-08-10T10:38:05.795Z</time>
      </trkpt>
      <trkpt lat="46.93717" lon="8.57532">
        <ele>595</ele>
        <time>2021-08-10T10:38:06.794Z</time>
      </trkpt>
      <trkpt lat="46.93716" lon="8.57532">
        <ele>594</ele>
        <time>2021-08-10T10:38:07.794Z</time>
      </trkpt>
      <trkpt lat="46.93715" lon="8.57533">
        <ele>594</ele>
        <time>2021-08-10T10:38:08.795Z</time>
      </trkpt>
      <trkpt lat="46.93715" lon="8.57534">
        <ele>594</ele>
        <time>2021-08-10T10:38:09.795Z</time>
      </trkpt>
      <trkpt lat="46.93715" lon="8.57536">
        <ele>593</ele>
        <time>2021-08-10T10:38:10.795Z</time>
      </trkpt>
      <trkpt lat="46.93714" lon="8.57537">
        <ele>593</ele>
        <time>2021-08-10T10:38:11.795Z</time>
      </trkpt>
      <trkpt lat="46.93714" lon="8.57538">
        <ele>593</ele>
        <time>2021-08-10T10:38:12.795Z</time>
      </trkpt>
      <trkpt lat="46.93713" lon="8.57538">
        <ele>592</ele>
        <time>2021-08-10T10:38:13.795Z</time>
      </trkpt>
      <trkpt lat="46.93712" lon="8.57538">
        <ele>592</ele>
        <time>2021-08-10T10:38:14.795Z</time>
      </trkpt>
      <trkpt lat="46.93712" lon="8.57539">
        <ele>591</ele>
        <time>2021-08-10T10:38:15.794Z</time>
      </trkpt>
      <trkpt lat="46.9371" lon="8.57539">
        <ele>591</ele>
        <time>2021-08-10T10:38:16.795Z</time>
      </trkpt>
      <trkpt lat="46.93709" lon="8.5754">
        <ele>590</ele>
        <time>2021-08-10T10:38:17.795Z</time>
      </trkpt>
      <trkpt lat="46.93708" lon="8.57541">
        <ele>590</ele>
        <time>2021-08-10T10:38:18.795Z</time>
      </trkpt>
      <trkpt lat="46.93708" lon="8.57542">
        <ele>589</ele>
        <time>2021-08-10T10:38:19.795Z</time>
      </trkpt>
      <trkpt lat="46.93708" lon="8.57543">
        <ele>589</ele>
        <time>2021-08-10T10:38:20.795Z</time>
      </trkpt>
      <trkpt lat="46.93707" lon="8.57544">
        <ele>589</ele>
        <time>2021-08-10T10:38:21.795Z</time>
      </trkpt>
      <trkpt lat="46.93707" lon="8.57546">
        <ele>588</ele>
        <time>2021-08-10T10:38:22.795Z</time>
      </trkpt>
      <trkpt lat="46.93707" lon="8.57547">
        <ele>588</ele>
        <time>2021-08-10T10:38:23.795Z</time>
      </trkpt>
      <trkpt lat="46.93706" lon="8.57549">
        <ele>588</ele>
        <time>2021-08-10T10:38:24.795Z</time>
      </trkpt>
      <trkpt lat="46.93706" lon="8.5755">
        <ele>587</ele>
        <time>2021-08-10T10:38:25.795Z</time>
      </trkpt>
      <trkpt lat="46.93705" lon="8.57551">
        <ele>586</ele>
        <time>2021-08-10T10:38:26.794Z</time>
      </trkpt>
      <trkpt lat="46.93705" lon="8.57551">
        <ele>585</ele>
        <time>2021-08-10T10:38:27.795Z</time>
      </trkpt>
      <trkpt lat="46.93703" lon="8.57553">
        <ele>580</ele>
        <time>2021-08-10T10:38:28.796Z</time>
      </trkpt>
      <trkpt lat="46.937" lon="8.57553">
        <ele>581</ele>
        <time>2021-08-10T10:38:29.796Z</time>
      </trkpt>
      <trkpt lat="46.937" lon="8.57554">
        <ele>581</ele>
        <time>2021-08-10T10:38:30.796Z</time>
      </trkpt>
      <trkpt lat="46.93699" lon="8.57554">
        <ele>581</ele>
        <time>2021-08-10T10:38:31.796Z</time>
      </trkpt>
      <trkpt lat="46.93699" lon="8.57554">
        <ele>581</ele>
        <time>2021-08-10T10:38:32.796Z</time>
      </trkpt>
      <trkpt lat="46.93698" lon="8.57554">
        <ele>581</ele>
        <time>2021-08-10T10:38:33.797Z</time>
      </trkpt>
      <trkpt lat="46.93698" lon="8.57554">
        <ele>581</ele>
        <time>2021-08-10T10:38:34.797Z</time>
      </trkpt>
      <trkpt lat="46.93697" lon="8.57554">
        <ele>581</ele>
        <time>2021-08-10T10:38:35.796Z</time>
      </trkpt>
      <trkpt lat="46.93697" lon="8.57554">
        <ele>582</ele>
        <time>2021-08-10T10:38:36.796Z</time>
      </trkpt>
      <trkpt lat="46.93696" lon="8.57551">
        <ele>581</ele>
        <time>2021-08-10T10:38:40.796Z</time>
      </trkpt>
      <trkpt lat="46.93696" lon="8.5755">
        <ele>581</ele>
        <time>2021-08-10T10:38:41.797Z</time>
      </trkpt>
      <trkpt lat="46.93697" lon="8.57551">
        <ele>581</ele>
        <time>2021-08-10T10:38:42.796Z</time>
      </trkpt>
      <trkpt lat="46.93699" lon="8.57552">
        <ele>581</ele>
        <time>2021-08-10T10:38:43.797Z</time>
      </trkpt>
      <trkpt lat="46.93698" lon="8.57552">
        <ele>581</ele>
        <time>2021-08-10T10:38:44.797Z</time>
      </trkpt>
      <trkpt lat="46.93698" lon="8.57552">
        <ele>580</ele>
        <time>2021-08-10T10:38:45.797Z</time>
      </trkpt>
      <trkpt lat="46.93698" lon="8.57551">
        <ele>580</ele>
        <time>2021-08-10T10:38:46.796Z</time>
      </trkpt>
      <trkpt lat="46.93699" lon="8.57548">
        <ele>580</ele>
        <time>2021-08-10T10:38:47.797Z</time>
      </trkpt>
      <trkpt lat="46.93699" lon="8.57546">
        <ele>580</ele>
        <time>2021-08-10T10:38:48.796Z</time>
      </trkpt>
      <trkpt lat="46.93698" lon="8.57545">
        <ele>579</ele>
        <time>2021-08-10T10:38:49.796Z</time>
      </trkpt>
      <trkpt lat="46.93697" lon="8.57545">
        <ele>579</ele>
        <time>2021-08-10T10:38:50.796Z</time>
      </trkpt>
      <trkpt lat="46.93696" lon="8.57544">
        <ele>578</ele>
        <time>2021-08-10T10:38:51.796Z</time>
      </trkpt>
      <trkpt lat="46.93696" lon="8.57544">
        <ele>577</ele>
        <time>2021-08-10T10:38:52.797Z</time>
      </trkpt>
      <trkpt lat="46.93697" lon="8.57543">
        <ele>577</ele>
        <time>2021-08-10T10:38:53.796Z</time>
      </trkpt>
      <trkpt lat="46.93697" lon="8.57544">
        <ele>576</ele>
        <time>2021-08-10T10:38:54.797Z</time>
      </trkpt>
      <trkpt lat="46.93698" lon="8.57544">
        <ele>577</ele>
        <time>2021-08-10T10:38:55.797Z</time>
      </trkpt>
      <trkpt lat="46.93698" lon="8.57544">
        <ele>577</ele>
        <time>2021-08-10T10:38:56.797Z</time>
      </trkpt>
      <trkpt lat="46.93698" lon="8.57544">
        <ele>577</ele>
        <time>2021-08-10T10:38:57.796Z</time>
      </trkpt>
      <trkpt lat="46.93698" lon="8.57544">
        <ele>577</ele>
        <time>2021-08-10T10:38:58.796Z</time>
      </trkpt>
      <trkpt lat="46.93698" lon="8.57544">
        <ele>577</ele>
        <time>2021-08-10T10:38:59.796Z</time>
      </trkpt>
      <trkpt lat="46.93698" lon="8.57544">
        <ele>578</ele>
        <time>2021-08-10T10:39:00.797Z</time>
      </trkpt>
      <trkpt lat="46.93698" lon="8.57543">
        <ele>577</ele>
        <time>2021-08-10T10:39:01.798Z</time>
      </trkpt>
      <trkpt lat="46.93698" lon="8.57543">
        <ele>577</ele>
        <time>2021-08-10T10:39:02.798Z</time>
      </trkpt>
      <trkpt lat="46.93697" lon="8.57543">
        <ele>577</ele>
        <time>2021-08-10T10:39:03.798Z</time>
      </trkpt>
      <trkpt lat="46.93697" lon="8.57543">
        <ele>577</ele>
        <time>2021-08-10T10:39:04.798Z</time>
      </trkpt>
      <trkpt lat="46.93696" lon="8.57544">
        <ele>576</ele>
        <time>2021-08-10T10:39:05.797Z</time>
      </trkpt>
      <trkpt lat="46.93697" lon="8.57545">
        <ele>576</ele>
        <time>2021-08-10T10:39:06.797Z</time>
      </trkpt>
      <trkpt lat="46.93697" lon="8.57545">
        <ele>576</ele>
        <time>2021-08-10T10:39:07.797Z</time>
      </trkpt>
      <trkpt lat="46.93697" lon="8.57546">
        <ele>576</ele>
        <time>2021-08-10T10:39:08.797Z</time>
      </trkpt>
      <trkpt lat="46.93696" lon="8.57547">
        <ele>576</ele>
        <time>2021-08-10T10:39:09.798Z</time>
      </trkpt>
      <trkpt lat="46.93696" lon="8.57548">
        <ele>576</ele>
        <time>2021-08-10T10:39:10.798Z</time>
      </trkpt>
      <trkpt lat="46.93695" lon="8.57548">
        <ele>575</ele>
        <time>2021-08-10T10:39:11.797Z</time>
      </trkpt>
      <trkpt lat="46.93695" lon="8.57548">
        <ele>575</ele>
        <time>2021-08-10T10:39:12.798Z</time>
      </trkpt>
      <trkpt lat="46.93694" lon="8.57548">
        <ele>574</ele>
        <time>2021-08-10T10:39:13.798Z</time>
      </trkpt>
      <trkpt lat="46.93693" lon="8.57548">
        <ele>574</ele>
        <time>2021-08-10T10:39:14.798Z</time>
      </trkpt>
      <trkpt lat="46.93693" lon="8.57546">
        <ele>573</ele>
        <time>2021-08-10T10:39:15.797Z</time>
      </trkpt>
      <trkpt lat="46.93691" lon="8.57545">
        <ele>573</ele>
        <time>2021-08-10T10:39:16.798Z</time>
      </trkpt>
      <trkpt lat="46.9369" lon="8.57544">
        <ele>572</ele>
        <time>2021-08-10T10:39:17.797Z</time>
      </trkpt>
      <trkpt lat="46.93689" lon="8.57542">
        <ele>572</ele>
        <time>2021-08-10T10:39:18.798Z</time>
      </trkpt>
      <trkpt lat="46.93688" lon="8.57542">
        <ele>572</ele>
        <time>2021-08-10T10:39:19.798Z</time>
      </trkpt>
      <trkpt lat="46.93688" lon="8.57542">
        <ele>572</ele>
        <time>2021-08-10T10:39:20.797Z</time>
      </trkpt>
      <trkpt lat="46.93688" lon="8.57541">
        <ele>572</ele>
        <time>2021-08-10T10:39:21.797Z</time>
      </trkpt>
      <trkpt lat="46.93688" lon="8.5754">
        <ele>572</ele>
        <time>2021-08-10T10:39:22.798Z</time>
      </trkpt>
      <trkpt lat="46.93688" lon="8.5754">
        <ele>572</ele>
        <time>2021-08-10T10:39:23.798Z</time>
      </trkpt>
      <trkpt lat="46.93688" lon="8.57539">
        <ele>571</ele>
        <time>2021-08-10T10:39:24.797Z</time>
      </trkpt>
      <trkpt lat="46.93689" lon="8.57539">
        <ele>571</ele>
        <time>2021-08-10T10:39:25.798Z</time>
      </trkpt>
      <trkpt lat="46.93689" lon="8.57539">
        <ele>571</ele>
        <time>2021-08-10T10:39:26.798Z</time>
      </trkpt>
      <trkpt lat="46.93689" lon="8.57538">
        <ele>571</ele>
        <time>2021-08-10T10:39:27.798Z</time>
      </trkpt>
      <trkpt lat="46.93688" lon="8.57536">
        <ele>571</ele>
        <time>2021-08-10T10:39:28.798Z</time>
      </trkpt>
      <trkpt lat="46.93687" lon="8.57536">
        <ele>570</ele>
        <time>2021-08-10T10:39:29.798Z</time>
      </trkpt>
      <trkpt lat="46.93686" lon="8.57535">
        <ele>570</ele>
        <time>2021-08-10T10:39:30.797Z</time>
      </trkpt>
      <trkpt lat="46.93684" lon="8.57533">
        <ele>569</ele>
        <time>2021-08-10T10:39:31.798Z</time>
      </trkpt>
      <trkpt lat="46.93683" lon="8.57532">
        <ele>569</ele>
        <time>2021-08-10T10:39:32.797Z</time>
      </trkpt>
      <trkpt lat="46.93683" lon="8.57532">
        <ele>569</ele>
        <time>2021-08-10T10:39:33.798Z</time>
      </trkpt>
      <trkpt lat="46.93682" lon="8.57533">
        <ele>569</ele>
        <time>2021-08-10T10:39:34.798Z</time>
      </trkpt>
      <trkpt lat="46.93682" lon="8.57532">
        <ele>569</ele>
        <time>2021-08-10T10:39:35.798Z</time>
      </trkpt>
      <trkpt lat="46.93682" lon="8.57532">
        <ele>569</ele>
        <time>2021-08-10T10:39:36.797Z</time>
      </trkpt>
      <trkpt lat="46.93683" lon="8.57533">
        <ele>568</ele>
        <time>2021-08-10T10:39:37.798Z</time>
      </trkpt>
      <trkpt lat="46.93684" lon="8.57532">
        <ele>568</ele>
        <time>2021-08-10T10:39:38.797Z</time>
      </trkpt>
      <trkpt lat="46.93684" lon="8.57531">
        <ele>568</ele>
        <time>2021-08-10T10:39:39.797Z</time>
      </trkpt>
      <trkpt lat="46.93684" lon="8.57531">
        <ele>568</ele>
        <time>2021-08-10T10:39:40.797Z</time>
      </trkpt>
      <trkpt lat="46.93685" lon="8.5753">
        <ele>568</ele>
        <time>2021-08-10T10:39:41.798Z</time>
      </trkpt>
      <trkpt lat="46.93686" lon="8.57531">
        <ele>568</ele>
        <time>2021-08-10T10:39:42.798Z</time>
      </trkpt>
      <trkpt lat="46.93687" lon="8.57532">
        <ele>568</ele>
        <time>2021-08-10T10:39:43.798Z</time>
      </trkpt>
      <trkpt lat="46.93686" lon="8.57531">
        <ele>568</ele>
        <time>2021-08-10T10:39:44.798Z</time>
      </trkpt>
      <trkpt lat="46.93686" lon="8.57531">
        <ele>569</ele>
        <time>2021-08-10T10:39:45.798Z</time>
      </trkpt>
      <trkpt lat="46.93685" lon="8.5753">
        <ele>569</ele>
        <time>2021-08-10T10:39:46.798Z</time>
      </trkpt>
      <trkpt lat="46.93683" lon="8.5753">
        <ele>570</ele>
        <time>2021-08-10T10:39:47.798Z</time>
      </trkpt>
      <trkpt lat="46.93683" lon="8.57529">
        <ele>570</ele>
        <time>2021-08-10T10:39:48.798Z</time>
      </trkpt>
      <trkpt lat="46.93682" lon="8.57528">
        <ele>570</ele>
        <time>2021-08-10T10:39:49.798Z</time>
      </trkpt>
      <trkpt lat="46.93682" lon="8.57528">
        <ele>571</ele>
        <time>2021-08-10T10:39:50.798Z</time>
      </trkpt>
      <trkpt lat="46.93682" lon="8.57527">
        <ele>571</ele>
        <time>2021-08-10T10:39:51.798Z</time>
      </trkpt>
      <trkpt lat="46.93681" lon="8.57527">
        <ele>571</ele>
        <time>2021-08-10T10:39:52.797Z</time>
      </trkpt>
      <trkpt lat="46.93681" lon="8.57527">
        <ele>572</ele>
        <time>2021-08-10T10:39:53.798Z</time>
      </trkpt>
      <trkpt lat="46.93681" lon="8.57527">
        <ele>572</ele>
        <time>2021-08-10T10:39:54.797Z</time>
      </trkpt>
      <trkpt lat="46.9368" lon="8.57527">
        <ele>572</ele>
        <time>2021-08-10T10:39:55.798Z</time>
      </trkpt>
      <trkpt lat="46.9368" lon="8.57526">
        <ele>573</ele>
        <time>2021-08-10T10:39:56.797Z</time>
      </trkpt>
      <trkpt lat="46.93679" lon="8.57525">
        <ele>573</ele>
        <time>2021-08-10T10:39:57.797Z</time>
      </trkpt>
      <trkpt lat="46.93679" lon="8.57525">
        <ele>573</ele>
        <time>2021-08-10T10:39:58.798Z</time>
      </trkpt>
      <trkpt lat="46.93678" lon="8.57525">
        <ele>573</ele>
        <time>2021-08-10T10:39:59.798Z</time>
      </trkpt>
      <trkpt lat="46.93678" lon="8.57525">
        <ele>573</ele>
        <time>2021-08-10T10:40:00.798Z</time>
      </trkpt>
      <trkpt lat="46.93678" lon="8.57525">
        <ele>572</ele>
        <time>2021-08-10T10:40:01.798Z</time>
      </trkpt>
      <trkpt lat="46.93678" lon="8.57526">
        <ele>572</ele>
        <time>2021-08-10T10:40:02.797Z</time>
      </trkpt>
      <trkpt lat="46.93678" lon="8.57526">
        <ele>572</ele>
        <time>2021-08-10T10:40:03.797Z</time>
      </trkpt>
      <trkpt lat="46.93678" lon="8.57526">
        <ele>571</ele>
        <time>2021-08-10T10:40:04.797Z</time>
      </trkpt>
      <trkpt lat="46.93678" lon="8.57528">
        <ele>570</ele>
        <time>2021-08-10T10:40:05.800Z</time>
      </trkpt>
      <trkpt lat="46.93677" lon="8.57528">
        <ele>569</ele>
        <time>2021-08-10T10:40:06.800Z</time>
      </trkpt>
      <trkpt lat="46.93676" lon="8.57529">
        <ele>569</ele>
        <time>2021-08-10T10:40:07.799Z</time>
      </trkpt>
      <trkpt lat="46.93676" lon="8.57531">
        <ele>569</ele>
        <time>2021-08-10T10:40:08.800Z</time>
      </trkpt>
      <trkpt lat="46.93675" lon="8.57532">
        <ele>569</ele>
        <time>2021-08-10T10:40:09.799Z</time>
      </trkpt>
      <trkpt lat="46.93675" lon="8.57533">
        <ele>569</ele>
        <time>2021-08-10T10:40:10.800Z</time>
      </trkpt>
      <trkpt lat="46.93675" lon="8.57534">
        <ele>570</ele>
        <time>2021-08-10T10:40:11.800Z</time>
      </trkpt>
      <trkpt lat="46.93674" lon="8.57536">
        <ele>570</ele>
        <time>2021-08-10T10:40:12.800Z</time>
      </trkpt>
      <trkpt lat="46.93674" lon="8.57537">
        <ele>570</ele>
        <time>2021-08-10T10:40:13.800Z</time>
      </trkpt>
      <trkpt lat="46.93674" lon="8.57538">
        <ele>570</ele>
        <time>2021-08-10T10:40:14.799Z</time>
      </trkpt>
      <trkpt lat="46.93673" lon="8.57539">
        <ele>570</ele>
        <time>2021-08-10T10:40:15.799Z</time>
      </trkpt>
      <trkpt lat="46.93673" lon="8.57541">
        <ele>570</ele>
        <time>2021-08-10T10:40:16.799Z</time>
      </trkpt>
      <trkpt lat="46.93672" lon="8.57541">
        <ele>570</ele>
        <time>2021-08-10T10:40:17.799Z</time>
      </trkpt>
      <trkpt lat="46.93672" lon="8.57541">
        <ele>569</ele>
        <time>2021-08-10T10:40:18.800Z</time>
      </trkpt>
      <trkpt lat="46.93671" lon="8.57542">
        <ele>569</ele>
        <time>2021-08-10T10:40:19.800Z</time>
      </trkpt>
      <trkpt lat="46.9367" lon="8.57542">
        <ele>569</ele>
        <time>2021-08-10T10:40:20.799Z</time>
      </trkpt>
      <trkpt lat="46.9367" lon="8.57541">
        <ele>569</ele>
        <time>2021-08-10T10:40:21.800Z</time>
      </trkpt>
      <trkpt lat="46.9367" lon="8.5754">
        <ele>569</ele>
        <time>2021-08-10T10:40:22.799Z</time>
      </trkpt>
      <trkpt lat="46.9367" lon="8.57538">
        <ele>568</ele>
        <time>2021-08-10T10:40:23.799Z</time>
      </trkpt>
      <trkpt lat="46.9367" lon="8.57536">
        <ele>567</ele>
        <time>2021-08-10T10:40:24.799Z</time>
      </trkpt>
      <trkpt lat="46.9367" lon="8.57535">
        <ele>567</ele>
        <time>2021-08-10T10:40:25.799Z</time>
      </trkpt>
      <trkpt lat="46.93671" lon="8.57534">
        <ele>566</ele>
        <time>2021-08-10T10:40:26.799Z</time>
      </trkpt>
      <trkpt lat="46.93671" lon="8.57535">
        <ele>565</ele>
        <time>2021-08-10T10:40:27.799Z</time>
      </trkpt>
      <trkpt lat="46.93672" lon="8.57535">
        <ele>565</ele>
        <time>2021-08-10T10:40:28.799Z</time>
      </trkpt>
      <trkpt lat="46.93671" lon="8.57535">
        <ele>565</ele>
        <time>2021-08-10T10:40:29.799Z</time>
      </trkpt>
      <trkpt lat="46.93671" lon="8.57534">
        <ele>564</ele>
        <time>2021-08-10T10:40:30.800Z</time>
      </trkpt>
      <trkpt lat="46.9367" lon="8.57534">
        <ele>564</ele>
        <time>2021-08-10T10:40:31.799Z</time>
      </trkpt>
      <trkpt lat="46.9367" lon="8.57533">
        <ele>564</ele>
        <time>2021-08-10T10:40:32.800Z</time>
      </trkpt>
      <trkpt lat="46.93669" lon="8.57533">
        <ele>563</ele>
        <time>2021-08-10T10:40:33.799Z</time>
      </trkpt>
      <trkpt lat="46.93667" lon="8.57532">
        <ele>563</ele>
        <time>2021-08-10T10:40:34.800Z</time>
      </trkpt>
      <trkpt lat="46.93666" lon="8.57531">
        <ele>562</ele>
        <time>2021-08-10T10:40:35.800Z</time>
      </trkpt>
      <trkpt lat="46.93665" lon="8.5753">
        <ele>561</ele>
        <time>2021-08-10T10:40:36.799Z</time>
      </trkpt>
      <trkpt lat="46.93663" lon="8.57528">
        <ele>560</ele>
        <time>2021-08-10T10:40:37.800Z</time>
      </trkpt>
      <trkpt lat="46.93663" lon="8.57527">
        <ele>559</ele>
        <time>2021-08-10T10:40:38.800Z</time>
      </trkpt>
      <trkpt lat="46.93662" lon="8.57527">
        <ele>559</ele>
        <time>2021-08-10T10:40:39.799Z</time>
      </trkpt>
      <trkpt lat="46.93662" lon="8.57527">
        <ele>559</ele>
        <time>2021-08-10T10:40:40.799Z</time>
      </trkpt>
      <trkpt lat="46.93662" lon="8.57526">
        <ele>558</ele>
        <time>2021-08-10T10:40:41.800Z</time>
      </trkpt>
      <trkpt lat="46.93661" lon="8.57526">
        <ele>558</ele>
        <time>2021-08-10T10:40:42.799Z</time>
      </trkpt>
      <trkpt lat="46.93661" lon="8.57525">
        <ele>558</ele>
        <time>2021-08-10T10:40:43.799Z</time>
      </trkpt>
      <trkpt lat="46.9366" lon="8.57525">
        <ele>558</ele>
        <time>2021-08-10T10:40:44.800Z</time>
      </trkpt>
      <trkpt lat="46.9366" lon="8.57524">
        <ele>558</ele>
        <time>2021-08-10T10:40:45.800Z</time>
      </trkpt>
      <trkpt lat="46.93659" lon="8.57524">
        <ele>558</ele>
        <time>2021-08-10T10:40:46.800Z</time>
      </trkpt>
      <trkpt lat="46.93659" lon="8.57524">
        <ele>558</ele>
        <time>2021-08-10T10:40:47.800Z</time>
      </trkpt>
      <trkpt lat="46.93659" lon="8.57523">
        <ele>557</ele>
        <time>2021-08-10T10:40:48.800Z</time>
      </trkpt>
      <trkpt lat="46.93659" lon="8.57522">
        <ele>557</ele>
        <time>2021-08-10T10:40:49.799Z</time>
      </trkpt>
      <trkpt lat="46.93659" lon="8.57522">
        <ele>556</ele>
        <time>2021-08-10T10:40:50.799Z</time>
      </trkpt>
      <trkpt lat="46.93656" lon="8.57518">
        <ele>553</ele>
        <time>2021-08-10T10:40:51.800Z</time>
      </trkpt>
      <trkpt lat="46.93655" lon="8.57518">
        <ele>552</ele>
        <time>2021-08-10T10:40:52.800Z</time>
      </trkpt>
      <trkpt lat="46.93654" lon="8.57519">
        <ele>552</ele>
        <time>2021-08-10T10:40:53.799Z</time>
      </trkpt>
      <trkpt lat="46.93655" lon="8.5752">
        <ele>552</ele>
        <time>2021-08-10T10:40:54.800Z</time>
      </trkpt>
      <trkpt lat="46.93655" lon="8.57521">
        <ele>551</ele>
        <time>2021-08-10T10:40:55.800Z</time>
      </trkpt>
      <trkpt lat="46.93655" lon="8.57522">
        <ele>551</ele>
        <time>2021-08-10T10:40:56.799Z</time>
      </trkpt>
      <trkpt lat="46.93655" lon="8.57522">
        <ele>550</ele>
        <time>2021-08-10T10:40:57.800Z</time>
      </trkpt>
      <trkpt lat="46.93655" lon="8.57523">
        <ele>549</ele>
        <time>2021-08-10T10:40:58.800Z</time>
      </trkpt>
      <trkpt lat="46.93654" lon="8.57524">
        <ele>549</ele>
        <time>2021-08-10T10:40:59.800Z</time>
      </trkpt>
      <trkpt lat="46.93654" lon="8.57525">
        <ele>548</ele>
        <time>2021-08-10T10:41:00.800Z</time>
      </trkpt>
      <trkpt lat="46.93653" lon="8.57526">
        <ele>548</ele>
        <time>2021-08-10T10:41:01.799Z</time>
      </trkpt>
      <trkpt lat="46.93653" lon="8.57527">
        <ele>547</ele>
        <time>2021-08-10T10:41:02.800Z</time>
      </trkpt>
      <trkpt lat="46.93653" lon="8.57528">
        <ele>547</ele>
        <time>2021-08-10T10:41:03.800Z</time>
      </trkpt>
      <trkpt lat="46.93653" lon="8.57528">
        <ele>546</ele>
        <time>2021-08-10T10:41:04.799Z</time>
      </trkpt>
      <trkpt lat="46.93653" lon="8.57529">
        <ele>546</ele>
        <time>2021-08-10T10:41:05.799Z</time>
      </trkpt>
      <trkpt lat="46.93653" lon="8.57529">
        <ele>545</ele>
        <time>2021-08-10T10:41:06.799Z</time>
      </trkpt>
      <trkpt lat="46.93654" lon="8.57528">
        <ele>545</ele>
        <time>2021-08-10T10:41:07.800Z</time>
      </trkpt>
      <trkpt lat="46.93654" lon="8.57528">
        <ele>545</ele>
        <time>2021-08-10T10:41:08.800Z</time>
      </trkpt>
      <trkpt lat="46.93653" lon="8.57527">
        <ele>544</ele>
        <time>2021-08-10T10:41:09.799Z</time>
      </trkpt>
      <trkpt lat="46.93653" lon="8.57526">
        <ele>544</ele>
        <time>2021-08-10T10:41:10.800Z</time>
      </trkpt>
      <trkpt lat="46.93652" lon="8.57525">
        <ele>544</ele>
        <time>2021-08-10T10:41:11.800Z</time>
      </trkpt>
      <trkpt lat="46.93652" lon="8.57524">
        <ele>545</ele>
        <time>2021-08-10T10:41:12.800Z</time>
      </trkpt>
      <trkpt lat="46.93652" lon="8.57523">
        <ele>545</ele>
        <time>2021-08-10T10:41:13.800Z</time>
      </trkpt>
      <trkpt lat="46.93651" lon="8.57522">
        <ele>546</ele>
        <time>2021-08-10T10:41:14.800Z</time>
      </trkpt>
      <trkpt lat="46.93651" lon="8.5752">
        <ele>546</ele>
        <time>2021-08-10T10:41:15.799Z</time>
      </trkpt>
      <trkpt lat="46.93651" lon="8.57519">
        <ele>547</ele>
        <time>2021-08-10T10:41:16.800Z</time>
      </trkpt>
      <trkpt lat="46.9365" lon="8.57518">
        <ele>548</ele>
        <time>2021-08-10T10:41:17.800Z</time>
      </trkpt>
      <trkpt lat="46.9365" lon="8.57517">
        <ele>548</ele>
        <time>2021-08-10T10:41:18.799Z</time>
      </trkpt>
      <trkpt lat="46.93649" lon="8.57516">
        <ele>548</ele>
        <time>2021-08-10T10:41:19.800Z</time>
      </trkpt>
      <trkpt lat="46.9365" lon="8.57516">
        <ele>549</ele>
        <time>2021-08-10T10:41:20.800Z</time>
      </trkpt>
      <trkpt lat="46.93649" lon="8.57515">
        <ele>548</ele>
        <time>2021-08-10T10:41:21.799Z</time>
      </trkpt>
      <trkpt lat="46.93648" lon="8.57515">
        <ele>548</ele>
        <time>2021-08-10T10:41:22.800Z</time>
      </trkpt>
      <trkpt lat="46.93648" lon="8.57514">
        <ele>549</ele>
        <time>2021-08-10T10:41:23.799Z</time>
      </trkpt>
      <trkpt lat="46.93647" lon="8.57513">
        <ele>549</ele>
        <time>2021-08-10T10:41:24.799Z</time>
      </trkpt>
      <trkpt lat="46.93646" lon="8.57512">
        <ele>549</ele>
        <time>2021-08-10T10:41:25.800Z</time>
      </trkpt>
      <trkpt lat="46.93646" lon="8.5751">
        <ele>550</ele>
        <time>2021-08-10T10:41:26.800Z</time>
      </trkpt>
      <trkpt lat="46.93646" lon="8.57509">
        <ele>550</ele>
        <time>2021-08-10T10:41:27.800Z</time>
      </trkpt>
      <trkpt lat="46.93646" lon="8.57508">
        <ele>549</ele>
        <time>2021-08-10T10:41:28.799Z</time>
      </trkpt>
      <trkpt lat="46.93645" lon="8.57506">
        <ele>549</ele>
        <time>2021-08-10T10:41:29.799Z</time>
      </trkpt>
      <trkpt lat="46.93645" lon="8.57505">
        <ele>549</ele>
        <time>2021-08-10T10:41:30.800Z</time>
      </trkpt>
      <trkpt lat="46.93645" lon="8.57504">
        <ele>549</ele>
        <time>2021-08-10T10:41:31.799Z</time>
      </trkpt>
      <trkpt lat="46.93644" lon="8.57504">
        <ele>549</ele>
        <time>2021-08-10T10:41:32.800Z</time>
      </trkpt>
      <trkpt lat="46.93643" lon="8.57503">
        <ele>550</ele>
        <time>2021-08-10T10:41:33.799Z</time>
      </trkpt>
      <trkpt lat="46.93642" lon="8.57503">
        <ele>550</ele>
        <time>2021-08-10T10:41:34.799Z</time>
      </trkpt>
      <trkpt lat="46.93642" lon="8.57502">
        <ele>550</ele>
        <time>2021-08-10T10:41:35.800Z</time>
      </trkpt>
      <trkpt lat="46.93641" lon="8.57501">
        <ele>550</ele>
        <time>2021-08-10T10:41:36.800Z</time>
      </trkpt>
      <trkpt lat="46.9364" lon="8.575">
        <ele>550</ele>
        <time>2021-08-10T10:41:37.799Z</time>
      </trkpt>
      <trkpt lat="46.9364" lon="8.575">
        <ele>550</ele>
        <time>2021-08-10T10:41:38.800Z</time>
      </trkpt>
      <trkpt lat="46.9364" lon="8.57499">
        <ele>550</ele>
        <time>2021-08-10T10:41:39.799Z</time>
      </trkpt>
      <trkpt lat="46.9364" lon="8.57499">
        <ele>550</ele>
        <time>2021-08-10T10:41:40.800Z</time>
      </trkpt>
      <trkpt lat="46.93639" lon="8.57498">
        <ele>551</ele>
        <time>2021-08-10T10:41:41.799Z</time>
      </trkpt>
      <trkpt lat="46.93638" lon="8.57498">
        <ele>551</ele>
        <time>2021-08-10T10:41:42.799Z</time>
      </trkpt>
      <trkpt lat="46.93637" lon="8.57498">
        <ele>551</ele>
        <time>2021-08-10T10:41:43.800Z</time>
      </trkpt>
      <trkpt lat="46.93637" lon="8.57499">
        <ele>550</ele>
        <time>2021-08-10T10:41:44.799Z</time>
      </trkpt>
      <trkpt lat="46.93636" lon="8.575">
        <ele>550</ele>
        <time>2021-08-10T10:41:45.799Z</time>
      </trkpt>
      <trkpt lat="46.93635" lon="8.57501">
        <ele>550</ele>
        <time>2021-08-10T10:41:46.799Z</time>
      </trkpt>
      <trkpt lat="46.93635" lon="8.57501">
        <ele>550</ele>
        <time>2021-08-10T10:41:47.799Z</time>
      </trkpt>
      <trkpt lat="46.93633" lon="8.57502">
        <ele>550</ele>
        <time>2021-08-10T10:41:48.800Z</time>
      </trkpt>
      <trkpt lat="46.93633" lon="8.57503">
        <ele>550</ele>
        <time>2021-08-10T10:41:49.799Z</time>
      </trkpt>
      <trkpt lat="46.93632" lon="8.57504">
        <ele>550</ele>
        <time>2021-08-10T10:41:50.800Z</time>
      </trkpt>
      <trkpt lat="46.93631" lon="8.57505">
        <ele>550</ele>
        <time>2021-08-10T10:41:51.799Z</time>
      </trkpt>
      <trkpt lat="46.9363" lon="8.57506">
        <ele>550</ele>
        <time>2021-08-10T10:41:52.799Z</time>
      </trkpt>
      <trkpt lat="46.93629" lon="8.57506">
        <ele>550</ele>
        <time>2021-08-10T10:41:53.800Z</time>
      </trkpt>
      <trkpt lat="46.93629" lon="8.57507">
        <ele>550</ele>
        <time>2021-08-10T10:41:54.800Z</time>
      </trkpt>
      <trkpt lat="46.93629" lon="8.57507">
        <ele>550</ele>
        <time>2021-08-10T10:41:55.799Z</time>
      </trkpt>
      <trkpt lat="46.93628" lon="8.57508">
        <ele>550</ele>
        <time>2021-08-10T10:41:56.799Z</time>
      </trkpt>
      <trkpt lat="46.93626" lon="8.57508">
        <ele>550</ele>
        <time>2021-08-10T10:41:57.799Z</time>
      </trkpt>
      <trkpt lat="46.93625" lon="8.57508">
        <ele>550</ele>
        <time>2021-08-10T10:41:58.799Z</time>
      </trkpt>
      <trkpt lat="46.93624" lon="8.57507">
        <ele>550</ele>
        <time>2021-08-10T10:41:59.800Z</time>
      </trkpt>
      <trkpt lat="46.93623" lon="8.57507">
        <ele>549</ele>
        <time>2021-08-10T10:42:00.799Z</time>
      </trkpt>
      <trkpt lat="46.93622" lon="8.57506">
        <ele>549</ele>
        <time>2021-08-10T10:42:01.800Z</time>
      </trkpt>
      <trkpt lat="46.93621" lon="8.57506">
        <ele>549</ele>
        <time>2021-08-10T10:42:02.800Z</time>
      </trkpt>
      <trkpt lat="46.9362" lon="8.57507">
        <ele>549</ele>
        <time>2021-08-10T10:42:03.800Z</time>
      </trkpt>
      <trkpt lat="46.93619" lon="8.57507">
        <ele>549</ele>
        <time>2021-08-10T10:42:04.799Z</time>
      </trkpt>
      <trkpt lat="46.93618" lon="8.57508">
        <ele>549</ele>
        <time>2021-08-10T10:42:05.799Z</time>
      </trkpt>
      <trkpt lat="46.93617" lon="8.57509">
        <ele>549</ele>
        <time>2021-08-10T10:42:06.799Z</time>
      </trkpt>
      <trkpt lat="46.93616" lon="8.57508">
        <ele>549</ele>
        <time>2021-08-10T10:42:07.799Z</time>
      </trkpt>
      <trkpt lat="46.93615" lon="8.57507">
        <ele>549</ele>
        <time>2021-08-10T10:42:08.800Z</time>
      </trkpt>
      <trkpt lat="46.93614" lon="8.57507">
        <ele>549</ele>
        <time>2021-08-10T10:42:09.800Z</time>
      </trkpt>
      <trkpt lat="46.93614" lon="8.57508">
        <ele>549</ele>
        <time>2021-08-10T10:42:10.800Z</time>
      </trkpt>
      <trkpt lat="46.93613" lon="8.57508">
        <ele>549</ele>
        <time>2021-08-10T10:42:11.800Z</time>
      </trkpt>
      <trkpt lat="46.93613" lon="8.57508">
        <ele>548</ele>
        <time>2021-08-10T10:42:12.799Z</time>
      </trkpt>
      <trkpt lat="46.93612" lon="8.57509">
        <ele>548</ele>
        <time>2021-08-10T10:42:13.799Z</time>
      </trkpt>
      <trkpt lat="46.93611" lon="8.57509">
        <ele>548</ele>
        <time>2021-08-10T10:42:14.799Z</time>
      </trkpt>
      <trkpt lat="46.9361" lon="8.57508">
        <ele>548</ele>
        <time>2021-08-10T10:42:15.799Z</time>
      </trkpt>
      <trkpt lat="46.9361" lon="8.57507">
        <ele>548</ele>
        <time>2021-08-10T10:42:16.800Z</time>
      </trkpt>
      <trkpt lat="46.9361" lon="8.57507">
        <ele>547</ele>
        <time>2021-08-10T10:42:17.799Z</time>
      </trkpt>
      <trkpt lat="46.9361" lon="8.57507">
        <ele>547</ele>
        <time>2021-08-10T10:42:18.800Z</time>
      </trkpt>
      <trkpt lat="46.93609" lon="8.57507">
        <ele>546</ele>
        <time>2021-08-10T10:42:19.799Z</time>
      </trkpt>
      <trkpt lat="46.93609" lon="8.57507">
        <ele>546</ele>
        <time>2021-08-10T10:42:20.800Z</time>
      </trkpt>
      <trkpt lat="46.93608" lon="8.57508">
        <ele>545</ele>
        <time>2021-08-10T10:42:21.799Z</time>
      </trkpt>
      <trkpt lat="46.93607" lon="8.57508">
        <ele>545</ele>
        <time>2021-08-10T10:42:22.799Z</time>
      </trkpt>
      <trkpt lat="46.93606" lon="8.57509">
        <ele>544</ele>
        <time>2021-08-10T10:42:23.799Z</time>
      </trkpt>
      <trkpt lat="46.93605" lon="8.5751">
        <ele>544</ele>
        <time>2021-08-10T10:42:24.799Z</time>
      </trkpt>
      <trkpt lat="46.93605" lon="8.57511">
        <ele>544</ele>
        <time>2021-08-10T10:42:25.800Z</time>
      </trkpt>
      <trkpt lat="46.93605" lon="8.57512">
        <ele>545</ele>
        <time>2021-08-10T10:42:26.800Z</time>
      </trkpt>
      <trkpt lat="46.93605" lon="8.57512">
        <ele>545</ele>
        <time>2021-08-10T10:42:27.799Z</time>
      </trkpt>
      <trkpt lat="46.93606" lon="8.57513">
        <ele>545</ele>
        <time>2021-08-10T10:42:28.800Z</time>
      </trkpt>
      <trkpt lat="46.93607" lon="8.57514">
        <ele>545</ele>
        <time>2021-08-10T10:42:29.800Z</time>
      </trkpt>
      <trkpt lat="46.93607" lon="8.57515">
        <ele>545</ele>
        <time>2021-08-10T10:42:30.800Z</time>
      </trkpt>
      <trkpt lat="46.93608" lon="8.57516">
        <ele>545</ele>
        <time>2021-08-10T10:42:31.799Z</time>
      </trkpt>
      <trkpt lat="46.93607" lon="8.57517">
        <ele>546</ele>
        <time>2021-08-10T10:42:32.800Z</time>
      </trkpt>
      <trkpt lat="46.93607" lon="8.57519">
        <ele>546</ele>
        <time>2021-08-10T10:42:33.800Z</time>
      </trkpt>
      <trkpt lat="46.93606" lon="8.57521">
        <ele>546</ele>
        <time>2021-08-10T10:42:34.800Z</time>
      </trkpt>
      <trkpt lat="46.93605" lon="8.57523">
        <ele>545</ele>
        <time>2021-08-10T10:42:35.800Z</time>
      </trkpt>
      <trkpt lat="46.93605" lon="8.57524">
        <ele>545</ele>
        <time>2021-08-10T10:42:36.800Z</time>
      </trkpt>
      <trkpt lat="46.93604" lon="8.57524">
        <ele>544</ele>
        <time>2021-08-10T10:42:37.799Z</time>
      </trkpt>
      <trkpt lat="46.93604" lon="8.57525">
        <ele>544</ele>
        <time>2021-08-10T10:42:38.799Z</time>
      </trkpt>
      <trkpt lat="46.93603" lon="8.57526">
        <ele>544</ele>
        <time>2021-08-10T10:42:39.799Z</time>
      </trkpt>
      <trkpt lat="46.93602" lon="8.57526">
        <ele>544</ele>
        <time>2021-08-10T10:42:40.800Z</time>
      </trkpt>
      <trkpt lat="46.93601" lon="8.57527">
        <ele>544</ele>
        <time>2021-08-10T10:42:41.800Z</time>
      </trkpt>
      <trkpt lat="46.93601" lon="8.57528">
        <ele>543</ele>
        <time>2021-08-10T10:42:42.799Z</time>
      </trkpt>
      <trkpt lat="46.936" lon="8.57528">
        <ele>542</ele>
        <time>2021-08-10T10:42:43.800Z</time>
      </trkpt>
      <trkpt lat="46.93599" lon="8.57529">
        <ele>542</ele>
        <time>2021-08-10T10:42:44.800Z</time>
      </trkpt>
      <trkpt lat="46.93598" lon="8.5753">
        <ele>541</ele>
        <time>2021-08-10T10:42:45.799Z</time>
      </trkpt>
      <trkpt lat="46.93597" lon="8.57531">
        <ele>540</ele>
        <time>2021-08-10T10:42:46.800Z</time>
      </trkpt>
      <trkpt lat="46.93596" lon="8.57532">
        <ele>540</ele>
        <time>2021-08-10T10:42:47.800Z</time>
      </trkpt>
      <trkpt lat="46.93595" lon="8.57534">
        <ele>540</ele>
        <time>2021-08-10T10:42:48.799Z</time>
      </trkpt>
      <trkpt lat="46.93595" lon="8.57535">
        <ele>540</ele>
        <time>2021-08-10T10:42:49.800Z</time>
      </trkpt>
      <trkpt lat="46.93595" lon="8.57536">
        <ele>540</ele>
        <time>2021-08-10T10:42:50.800Z</time>
      </trkpt>
      <trkpt lat="46.93595" lon="8.57537">
        <ele>539</ele>
        <time>2021-08-10T10:42:51.800Z</time>
      </trkpt>
      <trkpt lat="46.93595" lon="8.57538">
        <ele>539</ele>
        <time>2021-08-10T10:42:52.799Z</time>
      </trkpt>
      <trkpt lat="46.93595" lon="8.57539">
        <ele>538</ele>
        <time>2021-08-10T10:42:53.799Z</time>
      </trkpt>
      <trkpt lat="46.93595" lon="8.57539">
        <ele>538</ele>
        <time>2021-08-10T10:42:54.800Z</time>
      </trkpt>
      <trkpt lat="46.93596" lon="8.57541">
        <ele>537</ele>
        <time>2021-08-10T10:42:55.799Z</time>
      </trkpt>
      <trkpt lat="46.93596" lon="8.57542">
        <ele>536</ele>
        <time>2021-08-10T10:42:56.799Z</time>
      </trkpt>
      <trkpt lat="46.93597" lon="8.57542">
        <ele>536</ele>
        <time>2021-08-10T10:42:57.800Z</time>
      </trkpt>
      <trkpt lat="46.93598" lon="8.57542">
        <ele>535</ele>
        <time>2021-08-10T10:42:58.799Z</time>
      </trkpt>
      <trkpt lat="46.936" lon="8.57543">
        <ele>534</ele>
        <time>2021-08-10T10:42:59.799Z</time>
      </trkpt>
      <trkpt lat="46.93602" lon="8.57544">
        <ele>534</ele>
        <time>2021-08-10T10:43:00.800Z</time>
      </trkpt>
      <trkpt lat="46.93603" lon="8.57545">
        <ele>533</ele>
        <time>2021-08-10T10:43:01.799Z</time>
      </trkpt>
      <trkpt lat="46.93604" lon="8.57545">
        <ele>532</ele>
        <time>2021-08-10T10:43:02.799Z</time>
      </trkpt>
      <trkpt lat="46.93605" lon="8.57545">
        <ele>531</ele>
        <time>2021-08-10T10:43:03.799Z</time>
      </trkpt>
      <trkpt lat="46.93605" lon="8.57546">
        <ele>531</ele>
        <time>2021-08-10T10:43:04.799Z</time>
      </trkpt>
      <trkpt lat="46.93607" lon="8.57547">
        <ele>529</ele>
        <time>2021-08-10T10:43:05.799Z</time>
      </trkpt>
      <trkpt lat="46.93607" lon="8.57547">
        <ele>528</ele>
        <time>2021-08-10T10:43:06.799Z</time>
      </trkpt>
      <trkpt lat="46.93608" lon="8.57546">
        <ele>527</ele>
        <time>2021-08-10T10:43:07.799Z</time>
      </trkpt>
      <trkpt lat="46.93608" lon="8.57547">
        <ele>526</ele>
        <time>2021-08-10T10:43:08.799Z</time>
      </trkpt>
      <trkpt lat="46.93608" lon="8.57548">
        <ele>525</ele>
        <time>2021-08-10T10:43:09.799Z</time>
      </trkpt>
      <trkpt lat="46.93608" lon="8.57549">
        <ele>524</ele>
        <time>2021-08-10T10:43:10.799Z</time>
      </trkpt>
      <trkpt lat="46.93608" lon="8.5755">
        <ele>523</ele>
        <time>2021-08-10T10:43:11.799Z</time>
      </trkpt>
      <trkpt lat="46.93607" lon="8.57551">
        <ele>522</ele>
        <time>2021-08-10T10:43:12.800Z</time>
      </trkpt>
      <trkpt lat="46.93606" lon="8.57553">
        <ele>522</ele>
        <time>2021-08-10T10:43:13.799Z</time>
      </trkpt>
      <trkpt lat="46.93606" lon="8.57555">
        <ele>521</ele>
        <time>2021-08-10T10:43:14.799Z</time>
      </trkpt>
      <trkpt lat="46.93605" lon="8.57555">
        <ele>520</ele>
        <time>2021-08-10T10:43:15.800Z</time>
      </trkpt>
      <trkpt lat="46.93605" lon="8.57555">
        <ele>520</ele>
        <time>2021-08-10T10:43:16.799Z</time>
      </trkpt>
      <trkpt lat="46.93604" lon="8.57555">
        <ele>520</ele>
        <time>2021-08-10T10:43:17.799Z</time>
      </trkpt>
      <trkpt lat="46.93603" lon="8.57555">
        <ele>520</ele>
        <time>2021-08-10T10:43:18.799Z</time>
      </trkpt>
      <trkpt lat="46.93603" lon="8.57556">
        <ele>520</ele>
        <time>2021-08-10T10:43:19.799Z</time>
      </trkpt>
      <trkpt lat="46.93602" lon="8.57556">
        <ele>521</ele>
        <time>2021-08-10T10:43:20.799Z</time>
      </trkpt>
      <trkpt lat="46.93601" lon="8.57558">
        <ele>521</ele>
        <time>2021-08-10T10:43:21.799Z</time>
      </trkpt>
      <trkpt lat="46.936" lon="8.57559">
        <ele>521</ele>
        <time>2021-08-10T10:43:22.799Z</time>
      </trkpt>
      <trkpt lat="46.93599" lon="8.5756">
        <ele>522</ele>
        <time>2021-08-10T10:43:23.799Z</time>
      </trkpt>
      <trkpt lat="46.93599" lon="8.57561">
        <ele>522</ele>
        <time>2021-08-10T10:43:24.799Z</time>
      </trkpt>
      <trkpt lat="46.93598" lon="8.57561">
        <ele>522</ele>
        <time>2021-08-10T10:43:25.799Z</time>
      </trkpt>
      <trkpt lat="46.93597" lon="8.57561">
        <ele>522</ele>
        <time>2021-08-10T10:43:26.799Z</time>
      </trkpt>
      <trkpt lat="46.93596" lon="8.57562">
        <ele>522</ele>
        <time>2021-08-10T10:43:27.799Z</time>
      </trkpt>
      <trkpt lat="46.93595" lon="8.57562">
        <ele>522</ele>
        <time>2021-08-10T10:43:28.799Z</time>
      </trkpt>
      <trkpt lat="46.93594" lon="8.57563">
        <ele>522</ele>
        <time>2021-08-10T10:43:29.800Z</time>
      </trkpt>
      <trkpt lat="46.93592" lon="8.57564">
        <ele>522</ele>
        <time>2021-08-10T10:43:30.800Z</time>
      </trkpt>
      <trkpt lat="46.93591" lon="8.57565">
        <ele>522</ele>
        <time>2021-08-10T10:43:31.799Z</time>
      </trkpt>
      <trkpt lat="46.93591" lon="8.57565">
        <ele>522</ele>
        <time>2021-08-10T10:43:32.799Z</time>
      </trkpt>
      <trkpt lat="46.9359" lon="8.57565">
        <ele>521</ele>
        <time>2021-08-10T10:43:33.799Z</time>
      </trkpt>
      <trkpt lat="46.9359" lon="8.57565">
        <ele>521</ele>
        <time>2021-08-10T10:43:34.799Z</time>
      </trkpt>
      <trkpt lat="46.9359" lon="8.57566">
        <ele>520</ele>
        <time>2021-08-10T10:43:35.801Z</time>
      </trkpt>
      <trkpt lat="46.93589" lon="8.57566">
        <ele>520</ele>
        <time>2021-08-10T10:43:36.802Z</time>
      </trkpt>
      <trkpt lat="46.93588" lon="8.57565">
        <ele>520</ele>
        <time>2021-08-10T10:43:37.801Z</time>
      </trkpt>
      <trkpt lat="46.93587" lon="8.57565">
        <ele>520</ele>
        <time>2021-08-10T10:43:38.802Z</time>
      </trkpt>
      <trkpt lat="46.93586" lon="8.57565">
        <ele>520</ele>
        <time>2021-08-10T10:43:39.802Z</time>
      </trkpt>
      <trkpt lat="46.93585" lon="8.57565">
        <ele>520</ele>
        <time>2021-08-10T10:43:40.802Z</time>
      </trkpt>
      <trkpt lat="46.93585" lon="8.57565">
        <ele>520</ele>
        <time>2021-08-10T10:43:41.802Z</time>
      </trkpt>
      <trkpt lat="46.93584" lon="8.57565">
        <ele>519</ele>
        <time>2021-08-10T10:43:42.801Z</time>
      </trkpt>
      <trkpt lat="46.93583" lon="8.57565">
        <ele>519</ele>
        <time>2021-08-10T10:43:43.802Z</time>
      </trkpt>
      <trkpt lat="46.93583" lon="8.57565">
        <ele>518</ele>
        <time>2021-08-10T10:43:44.801Z</time>
      </trkpt>
      <trkpt lat="46.93582" lon="8.57565">
        <ele>518</ele>
        <time>2021-08-10T10:43:45.801Z</time>
      </trkpt>
      <trkpt lat="46.93581" lon="8.57565">
        <ele>517</ele>
        <time>2021-08-10T10:43:46.802Z</time>
      </trkpt>
      <trkpt lat="46.93581" lon="8.57565">
        <ele>517</ele>
        <time>2021-08-10T10:43:47.801Z</time>
      </trkpt>
      <trkpt lat="46.9358" lon="8.57566">
        <ele>516</ele>
        <time>2021-08-10T10:43:48.802Z</time>
      </trkpt>
      <trkpt lat="46.9358" lon="8.57566">
        <ele>516</ele>
        <time>2021-08-10T10:43:49.802Z</time>
      </trkpt>
      <trkpt lat="46.93579" lon="8.57567">
        <ele>515</ele>
        <time>2021-08-10T10:43:50.801Z</time>
      </trkpt>
      <trkpt lat="46.93578" lon="8.57567">
        <ele>515</ele>
        <time>2021-08-10T10:43:51.801Z</time>
      </trkpt>
      <trkpt lat="46.93578" lon="8.57568">
        <ele>515</ele>
        <time>2021-08-10T10:43:52.801Z</time>
      </trkpt>
      <trkpt lat="46.93577" lon="8.57568">
        <ele>515</ele>
        <time>2021-08-10T10:43:53.801Z</time>
      </trkpt>
      <trkpt lat="46.93577" lon="8.57568">
        <ele>515</ele>
        <time>2021-08-10T10:43:54.802Z</time>
      </trkpt>
      <trkpt lat="46.93576" lon="8.57568">
        <ele>515</ele>
        <time>2021-08-10T10:43:55.802Z</time>
      </trkpt>
      <trkpt lat="46.93576" lon="8.57568">
        <ele>515</ele>
        <time>2021-08-10T10:43:56.802Z</time>
      </trkpt>
      <trkpt lat="46.93575" lon="8.57569">
        <ele>516</ele>
        <time>2021-08-10T10:43:57.801Z</time>
      </trkpt>
      <trkpt lat="46.93575" lon="8.57569">
        <ele>516</ele>
        <time>2021-08-10T10:43:58.802Z</time>
      </trkpt>
      <trkpt lat="46.93574" lon="8.5757">
        <ele>517</ele>
        <time>2021-08-10T10:43:59.801Z</time>
      </trkpt>
      <trkpt lat="46.93574" lon="8.57571">
        <ele>517</ele>
        <time>2021-08-10T10:44:00.801Z</time>
      </trkpt>
      <trkpt lat="46.93574" lon="8.57572">
        <ele>518</ele>
        <time>2021-08-10T10:44:01.801Z</time>
      </trkpt>
      <trkpt lat="46.93574" lon="8.57573">
        <ele>518</ele>
        <time>2021-08-10T10:44:02.802Z</time>
      </trkpt>
      <trkpt lat="46.93574" lon="8.57573">
        <ele>519</ele>
        <time>2021-08-10T10:44:03.801Z</time>
      </trkpt>
      <trkpt lat="46.93574" lon="8.57574">
        <ele>520</ele>
        <time>2021-08-10T10:44:04.801Z</time>
      </trkpt>
      <trkpt lat="46.93574" lon="8.57574">
        <ele>520</ele>
        <time>2021-08-10T10:44:05.801Z</time>
      </trkpt>
      <trkpt lat="46.93573" lon="8.57575">
        <ele>521</ele>
        <time>2021-08-10T10:44:06.801Z</time>
      </trkpt>
      <trkpt lat="46.93573" lon="8.57575">
        <ele>521</ele>
        <time>2021-08-10T10:44:07.801Z</time>
      </trkpt>
      <trkpt lat="46.93573" lon="8.57577">
        <ele>521</ele>
        <time>2021-08-10T10:44:08.802Z</time>
      </trkpt>
      <trkpt lat="46.93573" lon="8.57579">
        <ele>522</ele>
        <time>2021-08-10T10:44:09.801Z</time>
      </trkpt>
      <trkpt lat="46.93572" lon="8.5758">
        <ele>522</ele>
        <time>2021-08-10T10:44:10.801Z</time>
      </trkpt>
      <trkpt lat="46.93572" lon="8.57581">
        <ele>522</ele>
        <time>2021-08-10T10:44:11.802Z</time>
      </trkpt>
      <trkpt lat="46.93572" lon="8.57581">
        <ele>522</ele>
        <time>2021-08-10T10:44:12.801Z</time>
      </trkpt>
      <trkpt lat="46.93572" lon="8.57582">
        <ele>522</ele>
        <time>2021-08-10T10:44:13.802Z</time>
      </trkpt>
      <trkpt lat="46.93571" lon="8.57582">
        <ele>522</ele>
        <time>2021-08-10T10:44:14.802Z</time>
      </trkpt>
      <trkpt lat="46.93571" lon="8.57582">
        <ele>522</ele>
        <time>2021-08-10T10:44:15.801Z</time>
      </trkpt>
      <trkpt lat="46.93571" lon="8.57583">
        <ele>521</ele>
        <time>2021-08-10T10:44:16.802Z</time>
      </trkpt>
      <trkpt lat="46.9357" lon="8.57583">
        <ele>521</ele>
        <time>2021-08-10T10:44:17.802Z</time>
      </trkpt>
      <trkpt lat="46.9357" lon="8.57584">
        <ele>522</ele>
        <time>2021-08-10T10:44:18.801Z</time>
      </trkpt>
      <trkpt lat="46.9357" lon="8.57586">
        <ele>522</ele>
        <time>2021-08-10T10:44:19.802Z</time>
      </trkpt>
      <trkpt lat="46.93569" lon="8.57587">
        <ele>522</ele>
        <time>2021-08-10T10:44:20.801Z</time>
      </trkpt>
      <trkpt lat="46.93568" lon="8.57589">
        <ele>522</ele>
        <time>2021-08-10T10:44:21.802Z</time>
      </trkpt>
      <trkpt lat="46.93568" lon="8.5759">
        <ele>522</ele>
        <time>2021-08-10T10:44:22.802Z</time>
      </trkpt>
      <trkpt lat="46.93567" lon="8.5759">
        <ele>522</ele>
        <time>2021-08-10T10:44:23.801Z</time>
      </trkpt>
      <trkpt lat="46.93567" lon="8.57591">
        <ele>522</ele>
        <time>2021-08-10T10:44:24.802Z</time>
      </trkpt>
      <trkpt lat="46.93566" lon="8.57591">
        <ele>522</ele>
        <time>2021-08-10T10:44:25.801Z</time>
      </trkpt>
      <trkpt lat="46.93566" lon="8.57592">
        <ele>522</ele>
        <time>2021-08-10T10:44:26.801Z</time>
      </trkpt>
      <trkpt lat="46.93565" lon="8.57593">
        <ele>522</ele>
        <time>2021-08-10T10:44:27.801Z</time>
      </trkpt>
      <trkpt lat="46.93565" lon="8.57594">
        <ele>522</ele>
        <time>2021-08-10T10:44:28.801Z</time>
      </trkpt>
      <trkpt lat="46.93564" lon="8.57594">
        <ele>521</ele>
        <time>2021-08-10T10:44:29.802Z</time>
      </trkpt>
      <trkpt lat="46.93564" lon="8.57595">
        <ele>521</ele>
        <time>2021-08-10T10:44:30.801Z</time>
      </trkpt>
      <trkpt lat="46.93563" lon="8.57596">
        <ele>521</ele>
        <time>2021-08-10T10:44:31.801Z</time>
      </trkpt>
      <trkpt lat="46.93563" lon="8.57596">
        <ele>521</ele>
        <time>2021-08-10T10:44:32.801Z</time>
      </trkpt>
      <trkpt lat="46.93562" lon="8.57598">
        <ele>521</ele>
        <time>2021-08-10T10:44:33.801Z</time>
      </trkpt>
      <trkpt lat="46.93563" lon="8.576">
        <ele>520</ele>
        <time>2021-08-10T10:44:34.802Z</time>
      </trkpt>
      <trkpt lat="46.93562" lon="8.57601">
        <ele>520</ele>
        <time>2021-08-10T10:44:35.801Z</time>
      </trkpt>
      <trkpt lat="46.93562" lon="8.57602">
        <ele>520</ele>
        <time>2021-08-10T10:44:36.801Z</time>
      </trkpt>
      <trkpt lat="46.93561" lon="8.57603">
        <ele>519</ele>
        <time>2021-08-10T10:44:37.801Z</time>
      </trkpt>
      <trkpt lat="46.93561" lon="8.57605">
        <ele>519</ele>
        <time>2021-08-10T10:44:38.802Z</time>
      </trkpt>
      <trkpt lat="46.93561" lon="8.57605">
        <ele>518</ele>
        <time>2021-08-10T10:44:39.802Z</time>
      </trkpt>
      <trkpt lat="46.93561" lon="8.57606">
        <ele>518</ele>
        <time>2021-08-10T10:44:40.801Z</time>
      </trkpt>
      <trkpt lat="46.93561" lon="8.57607">
        <ele>517</ele>
        <time>2021-08-10T10:44:41.802Z</time>
      </trkpt>
      <trkpt lat="46.9356" lon="8.57607">
        <ele>517</ele>
        <time>2021-08-10T10:44:42.802Z</time>
      </trkpt>
      <trkpt lat="46.9356" lon="8.57608">
        <ele>516</ele>
        <time>2021-08-10T10:44:43.801Z</time>
      </trkpt>
      <trkpt lat="46.9356" lon="8.57608">
        <ele>516</ele>
        <time>2021-08-10T10:44:44.801Z</time>
      </trkpt>
      <trkpt lat="46.9356" lon="8.57608">
        <ele>515</ele>
        <time>2021-08-10T10:44:45.802Z</time>
      </trkpt>
      <trkpt lat="46.9356" lon="8.57608">
        <ele>515</ele>
        <time>2021-08-10T10:44:46.802Z</time>
      </trkpt>
      <trkpt lat="46.9356" lon="8.57607">
        <ele>514</ele>
        <time>2021-08-10T10:44:47.802Z</time>
      </trkpt>
      <trkpt lat="46.9356" lon="8.57607">
        <ele>514</ele>
        <time>2021-08-10T10:44:48.802Z</time>
      </trkpt>
      <trkpt lat="46.93561" lon="8.57607">
        <ele>513</ele>
        <time>2021-08-10T10:44:49.801Z</time>
      </trkpt>
      <trkpt lat="46.93562" lon="8.57607">
        <ele>513</ele>
        <time>2021-08-10T10:44:50.802Z</time>
      </trkpt>
      <trkpt lat="46.93562" lon="8.57607">
        <ele>513</ele>
        <time>2021-08-10T10:44:51.801Z</time>
      </trkpt>
      <trkpt lat="46.93562" lon="8.57606">
        <ele>513</ele>
        <time>2021-08-10T10:44:52.801Z</time>
      </trkpt>
      <trkpt lat="46.93562" lon="8.57606">
        <ele>512</ele>
        <time>2021-08-10T10:44:53.801Z</time>
      </trkpt>
      <trkpt lat="46.93558" lon="8.57611">
        <ele>509</ele>
        <time>2021-08-10T10:44:54.802Z</time>
      </trkpt>
      <trkpt lat="46.93558" lon="8.57612">
        <ele>509</ele>
        <time>2021-08-10T10:44:55.801Z</time>
      </trkpt>
      <trkpt lat="46.93558" lon="8.57612">
        <ele>509</ele>
        <time>2021-08-10T10:44:56.801Z</time>
      </trkpt>
      <trkpt lat="46.93559" lon="8.57611">
        <ele>509</ele>
        <time>2021-08-10T10:44:57.802Z</time>
      </trkpt>
      <trkpt lat="46.93559" lon="8.57611">
        <ele>509</ele>
        <time>2021-08-10T10:44:58.802Z</time>
      </trkpt>
      <trkpt lat="46.9356" lon="8.57609">
        <ele>508</ele>
        <time>2021-08-10T10:44:59.802Z</time>
      </trkpt>
      <trkpt lat="46.9356" lon="8.57609">
        <ele>507</ele>
        <time>2021-08-10T10:45:00.801Z</time>
      </trkpt>
      <trkpt lat="46.9356" lon="8.57608">
        <ele>506</ele>
        <time>2021-08-10T10:45:01.802Z</time>
      </trkpt>
      <trkpt lat="46.9356" lon="8.57608">
        <ele>505</ele>
        <time>2021-08-10T10:45:02.802Z</time>
      </trkpt>
      <trkpt lat="46.9356" lon="8.57609">
        <ele>504</ele>
        <time>2021-08-10T10:45:03.803Z</time>
      </trkpt>
      <trkpt lat="46.9356" lon="8.5761">
        <ele>503</ele>
        <time>2021-08-10T10:45:04.803Z</time>
      </trkpt>
      <trkpt lat="46.9356" lon="8.57611">
        <ele>503</ele>
        <time>2021-08-10T10:45:05.803Z</time>
      </trkpt>
      <trkpt lat="46.9356" lon="8.57612">
        <ele>503</ele>
        <time>2021-08-10T10:45:06.802Z</time>
      </trkpt>
      <trkpt lat="46.9356" lon="8.57612">
        <ele>502</ele>
        <time>2021-08-10T10:45:07.802Z</time>
      </trkpt>
      <trkpt lat="46.93559" lon="8.57613">
        <ele>502</ele>
        <time>2021-08-10T10:45:08.803Z</time>
      </trkpt>
      <trkpt lat="46.93559" lon="8.57613">
        <ele>501</ele>
        <time>2021-08-10T10:45:09.803Z</time>
      </trkpt>
      <trkpt lat="46.93559" lon="8.57614">
        <ele>500</ele>
        <time>2021-08-10T10:45:10.803Z</time>
      </trkpt>
      <trkpt lat="46.93559" lon="8.57616">
        <ele>499</ele>
        <time>2021-08-10T10:45:11.803Z</time>
      </trkpt>
      <trkpt lat="46.93559" lon="8.57616">
        <ele>499</ele>
        <time>2021-08-10T10:45:12.803Z</time>
      </trkpt>
      <trkpt lat="46.93558" lon="8.57617">
        <ele>498</ele>
        <time>2021-08-10T10:45:13.803Z</time>
      </trkpt>
      <trkpt lat="46.93558" lon="8.57618">
        <ele>498</ele>
        <time>2021-08-10T10:45:14.802Z</time>
      </trkpt>
      <trkpt lat="46.93558" lon="8.5762">
        <ele>498</ele>
        <time>2021-08-10T10:45:15.802Z</time>
      </trkpt>
      <trkpt lat="46.93557" lon="8.57621">
        <ele>499</ele>
        <time>2021-08-10T10:45:16.803Z</time>
      </trkpt>
      <trkpt lat="46.93557" lon="8.57621">
        <ele>499</ele>
        <time>2021-08-10T10:45:17.803Z</time>
      </trkpt>
      <trkpt lat="46.93557" lon="8.57621">
        <ele>499</ele>
        <time>2021-08-10T10:45:18.802Z</time>
      </trkpt>
      <trkpt lat="46.93558" lon="8.57622">
        <ele>499</ele>
        <time>2021-08-10T10:45:19.803Z</time>
      </trkpt>
      <trkpt lat="46.93557" lon="8.57624">
        <ele>499</ele>
        <time>2021-08-10T10:45:20.803Z</time>
      </trkpt>
      <trkpt lat="46.93556" lon="8.57625">
        <ele>499</ele>
        <time>2021-08-10T10:45:21.802Z</time>
      </trkpt>
      <trkpt lat="46.93556" lon="8.57627">
        <ele>500</ele>
        <time>2021-08-10T10:45:22.802Z</time>
      </trkpt>
      <trkpt lat="46.93556" lon="8.57628">
        <ele>500</ele>
        <time>2021-08-10T10:45:23.802Z</time>
      </trkpt>
      <trkpt lat="46.93555" lon="8.57629">
        <ele>501</ele>
        <time>2021-08-10T10:45:24.803Z</time>
      </trkpt>
      <trkpt lat="46.93555" lon="8.5763">
        <ele>502</ele>
        <time>2021-08-10T10:45:25.803Z</time>
      </trkpt>
      <trkpt lat="46.93555" lon="8.57631">
        <ele>503</ele>
        <time>2021-08-10T10:45:26.803Z</time>
      </trkpt>
      <trkpt lat="46.93555" lon="8.57631">
        <ele>503</ele>
        <time>2021-08-10T10:45:27.802Z</time>
      </trkpt>
      <trkpt lat="46.93555" lon="8.57631">
        <ele>503</ele>
        <time>2021-08-10T10:45:28.803Z</time>
      </trkpt>
      <trkpt lat="46.93555" lon="8.57632">
        <ele>503</ele>
        <time>2021-08-10T10:45:29.802Z</time>
      </trkpt>
      <trkpt lat="46.93554" lon="8.57632">
        <ele>504</ele>
        <time>2021-08-10T10:45:30.802Z</time>
      </trkpt>
      <trkpt lat="46.93554" lon="8.57631">
        <ele>504</ele>
        <time>2021-08-10T10:45:31.802Z</time>
      </trkpt>
      <trkpt lat="46.93553" lon="8.57631">
        <ele>504</ele>
        <time>2021-08-10T10:45:32.802Z</time>
      </trkpt>
      <trkpt lat="46.93552" lon="8.57631">
        <ele>503</ele>
        <time>2021-08-10T10:45:33.803Z</time>
      </trkpt>
      <trkpt lat="46.93551" lon="8.57632">
        <ele>503</ele>
        <time>2021-08-10T10:45:34.803Z</time>
      </trkpt>
      <trkpt lat="46.9355" lon="8.57632">
        <ele>502</ele>
        <time>2021-08-10T10:45:35.802Z</time>
      </trkpt>
      <trkpt lat="46.9355" lon="8.57632">
        <ele>502</ele>
        <time>2021-08-10T10:45:36.803Z</time>
      </trkpt>
      <trkpt lat="46.9355" lon="8.57632">
        <ele>501</ele>
        <time>2021-08-10T10:45:37.803Z</time>
      </trkpt>
      <trkpt lat="46.9355" lon="8.57633">
        <ele>500</ele>
        <time>2021-08-10T10:45:38.803Z</time>
      </trkpt>
      <trkpt lat="46.93547" lon="8.57631">
        <ele>499</ele>
        <time>2021-08-10T10:45:39.804Z</time>
      </trkpt>
      <trkpt lat="46.93546" lon="8.57631">
        <ele>498</ele>
        <time>2021-08-10T10:45:40.803Z</time>
      </trkpt>
      <trkpt lat="46.93545" lon="8.57632">
        <ele>498</ele>
        <time>2021-08-10T10:45:41.804Z</time>
      </trkpt>
      <trkpt lat="46.93545" lon="8.57632">
        <ele>498</ele>
        <time>2021-08-10T10:45:42.803Z</time>
      </trkpt>
      <trkpt lat="46.93544" lon="8.57632">
        <ele>498</ele>
        <time>2021-08-10T10:45:43.803Z</time>
      </trkpt>
      <trkpt lat="46.93543" lon="8.57633">
        <ele>498</ele>
        <time>2021-08-10T10:45:44.803Z</time>
      </trkpt>
      <trkpt lat="46.93543" lon="8.57633">
        <ele>498</ele>
        <time>2021-08-10T10:45:45.803Z</time>
      </trkpt>
      <trkpt lat="46.93542" lon="8.57633">
        <ele>499</ele>
        <time>2021-08-10T10:45:46.803Z</time>
      </trkpt>
      <trkpt lat="46.93541" lon="8.57633">
        <ele>499</ele>
        <time>2021-08-10T10:45:47.803Z</time>
      </trkpt>
      <trkpt lat="46.93541" lon="8.57633">
        <ele>499</ele>
        <time>2021-08-10T10:45:48.803Z</time>
      </trkpt>
      <trkpt lat="46.9354" lon="8.57633">
        <ele>498</ele>
        <time>2021-08-10T10:45:49.803Z</time>
      </trkpt>
      <trkpt lat="46.9354" lon="8.57633">
        <ele>499</ele>
        <time>2021-08-10T10:45:50.804Z</time>
      </trkpt>
      <trkpt lat="46.93539" lon="8.57633">
        <ele>499</ele>
        <time>2021-08-10T10:45:51.803Z</time>
      </trkpt>
      <trkpt lat="46.93539" lon="8.57633">
        <ele>499</ele>
        <time>2021-08-10T10:45:52.803Z</time>
      </trkpt>
      <trkpt lat="46.93538" lon="8.57632">
        <ele>499</ele>
        <time>2021-08-10T10:45:53.804Z</time>
      </trkpt>
      <trkpt lat="46.93537" lon="8.57631">
        <ele>498</ele>
        <time>2021-08-10T10:45:54.803Z</time>
      </trkpt>
      <trkpt lat="46.93536" lon="8.5763">
        <ele>498</ele>
        <time>2021-08-10T10:45:55.803Z</time>
      </trkpt>
      <trkpt lat="46.93536" lon="8.57629">
        <ele>498</ele>
        <time>2021-08-10T10:45:56.803Z</time>
      </trkpt>
      <trkpt lat="46.93535" lon="8.57628">
        <ele>498</ele>
        <time>2021-08-10T10:45:57.803Z</time>
      </trkpt>
      <trkpt lat="46.93534" lon="8.57627">
        <ele>498</ele>
        <time>2021-08-10T10:45:58.803Z</time>
      </trkpt>
      <trkpt lat="46.93533" lon="8.57626">
        <ele>498</ele>
        <time>2021-08-10T10:45:59.803Z</time>
      </trkpt>
      <trkpt lat="46.93533" lon="8.57627">
        <ele>498</ele>
        <time>2021-08-10T10:46:00.803Z</time>
      </trkpt>
      <trkpt lat="46.93532" lon="8.57628">
        <ele>498</ele>
        <time>2021-08-10T10:46:01.804Z</time>
      </trkpt>
      <trkpt lat="46.93531" lon="8.57629">
        <ele>498</ele>
        <time>2021-08-10T10:46:02.803Z</time>
      </trkpt>
      <trkpt lat="46.93531" lon="8.57629">
        <ele>498</ele>
        <time>2021-08-10T10:46:03.803Z</time>
      </trkpt>
      <trkpt lat="46.93531" lon="8.57629">
        <ele>498</ele>
        <time>2021-08-10T10:46:04.803Z</time>
      </trkpt>
      <trkpt lat="46.9353" lon="8.57629">
        <ele>498</ele>
        <time>2021-08-10T10:46:05.803Z</time>
      </trkpt>
      <trkpt lat="46.93529" lon="8.5763">
        <ele>499</ele>
        <time>2021-08-10T10:46:06.803Z</time>
      </trkpt>
      <trkpt lat="46.93528" lon="8.5763">
        <ele>500</ele>
        <time>2021-08-10T10:46:07.803Z</time>
      </trkpt>
      <trkpt lat="46.93527" lon="8.57631">
        <ele>500</ele>
        <time>2021-08-10T10:46:08.803Z</time>
      </trkpt>
      <trkpt lat="46.93527" lon="8.57632">
        <ele>500</ele>
        <time>2021-08-10T10:46:09.803Z</time>
      </trkpt>
      <trkpt lat="46.93526" lon="8.57632">
        <ele>500</ele>
        <time>2021-08-10T10:46:10.803Z</time>
      </trkpt>
      <trkpt lat="46.93526" lon="8.57633">
        <ele>500</ele>
        <time>2021-08-10T10:46:11.803Z</time>
      </trkpt>
      <trkpt lat="46.93526" lon="8.57634">
        <ele>500</ele>
        <time>2021-08-10T10:46:12.804Z</time>
      </trkpt>
      <trkpt lat="46.93525" lon="8.57635">
        <ele>500</ele>
        <time>2021-08-10T10:46:13.803Z</time>
      </trkpt>
      <trkpt lat="46.93525" lon="8.57637">
        <ele>500</ele>
        <time>2021-08-10T10:46:14.803Z</time>
      </trkpt>
      <trkpt lat="46.93524" lon="8.57638">
        <ele>500</ele>
        <time>2021-08-10T10:46:15.804Z</time>
      </trkpt>
      <trkpt lat="46.93524" lon="8.5764">
        <ele>499</ele>
        <time>2021-08-10T10:46:16.803Z</time>
      </trkpt>
      <trkpt lat="46.93524" lon="8.57641">
        <ele>499</ele>
        <time>2021-08-10T10:46:17.803Z</time>
      </trkpt>
      <trkpt lat="46.93524" lon="8.57641">
        <ele>499</ele>
        <time>2021-08-10T10:46:18.803Z</time>
      </trkpt>
      <trkpt lat="46.93524" lon="8.57642">
        <ele>499</ele>
        <time>2021-08-10T10:46:19.804Z</time>
      </trkpt>
      <trkpt lat="46.93524" lon="8.57642">
        <ele>498</ele>
        <time>2021-08-10T10:46:20.804Z</time>
      </trkpt>
      <trkpt lat="46.93524" lon="8.57642">
        <ele>498</ele>
        <time>2021-08-10T10:46:21.804Z</time>
      </trkpt>
      <trkpt lat="46.93523" lon="8.57643">
        <ele>498</ele>
        <time>2021-08-10T10:46:22.804Z</time>
      </trkpt>
      <trkpt lat="46.93522" lon="8.57645">
        <ele>498</ele>
        <time>2021-08-10T10:46:23.803Z</time>
      </trkpt>
      <trkpt lat="46.93521" lon="8.57646">
        <ele>498</ele>
        <time>2021-08-10T10:46:24.803Z</time>
      </trkpt>
      <trkpt lat="46.9352" lon="8.57647">
        <ele>498</ele>
        <time>2021-08-10T10:46:25.803Z</time>
      </trkpt>
      <trkpt lat="46.9352" lon="8.57648">
        <ele>498</ele>
        <time>2021-08-10T10:46:26.804Z</time>
      </trkpt>
      <trkpt lat="46.93519" lon="8.57648">
        <ele>498</ele>
        <time>2021-08-10T10:46:27.804Z</time>
      </trkpt>
      <trkpt lat="46.93519" lon="8.57649">
        <ele>498</ele>
        <time>2021-08-10T10:46:28.804Z</time>
      </trkpt>
      <trkpt lat="46.93518" lon="8.57649">
        <ele>498</ele>
        <time>2021-08-10T10:46:29.804Z</time>
      </trkpt>
      <trkpt lat="46.93518" lon="8.57648">
        <ele>498</ele>
        <time>2021-08-10T10:46:30.804Z</time>
      </trkpt>
      <trkpt lat="46.93517" lon="8.57647">
        <ele>498</ele>
        <time>2021-08-10T10:46:31.804Z</time>
      </trkpt>
      <trkpt lat="46.93517" lon="8.57647">
        <ele>498</ele>
        <time>2021-08-10T10:46:32.803Z</time>
      </trkpt>
      <trkpt lat="46.93515" lon="8.57647">
        <ele>498</ele>
        <time>2021-08-10T10:46:33.804Z</time>
      </trkpt>
      <trkpt lat="46.93514" lon="8.57646">
        <ele>498</ele>
        <time>2021-08-10T10:46:34.804Z</time>
      </trkpt>
      <trkpt lat="46.93514" lon="8.57646">
        <ele>499</ele>
        <time>2021-08-10T10:46:35.804Z</time>
      </trkpt>
      <trkpt lat="46.93513" lon="8.57646">
        <ele>499</ele>
        <time>2021-08-10T10:46:36.804Z</time>
      </trkpt>
      <trkpt lat="46.93513" lon="8.57645">
        <ele>499</ele>
        <time>2021-08-10T10:46:37.803Z</time>
      </trkpt>
      <trkpt lat="46.93513" lon="8.57644">
        <ele>499</ele>
        <time>2021-08-10T10:46:38.803Z</time>
      </trkpt>
      <trkpt lat="46.93512" lon="8.57644">
        <ele>498</ele>
        <time>2021-08-10T10:46:39.804Z</time>
      </trkpt>
      <trkpt lat="46.93511" lon="8.57644">
        <ele>498</ele>
        <time>2021-08-10T10:46:40.803Z</time>
      </trkpt>
      <trkpt lat="46.93511" lon="8.57644">
        <ele>497</ele>
        <time>2021-08-10T10:46:41.804Z</time>
      </trkpt>
      <trkpt lat="46.9351" lon="8.57644">
        <ele>497</ele>
        <time>2021-08-10T10:46:42.804Z</time>
      </trkpt>
      <trkpt lat="46.93509" lon="8.57644">
        <ele>497</ele>
        <time>2021-08-10T10:46:43.804Z</time>
      </trkpt>
      <trkpt lat="46.93507" lon="8.57644">
        <ele>497</ele>
        <time>2021-08-10T10:46:44.804Z</time>
      </trkpt>
      <trkpt lat="46.93507" lon="8.57644">
        <ele>496</ele>
        <time>2021-08-10T10:46:45.804Z</time>
      </trkpt>
      <trkpt lat="46.93505" lon="8.57644">
        <ele>496</ele>
        <time>2021-08-10T10:46:46.804Z</time>
      </trkpt>
      <trkpt lat="46.93504" lon="8.57643">
        <ele>495</ele>
        <time>2021-08-10T10:46:47.803Z</time>
      </trkpt>
      <trkpt lat="46.93503" lon="8.57642">
        <ele>495</ele>
        <time>2021-08-10T10:46:48.804Z</time>
      </trkpt>
      <trkpt lat="46.93502" lon="8.57643">
        <ele>495</ele>
        <time>2021-08-10T10:46:49.804Z</time>
      </trkpt>
      <trkpt lat="46.93501" lon="8.57643">
        <ele>495</ele>
        <time>2021-08-10T10:46:50.804Z</time>
      </trkpt>
      <trkpt lat="46.935" lon="8.57643">
        <ele>495</ele>
        <time>2021-08-10T10:46:51.803Z</time>
      </trkpt>
      <trkpt lat="46.93499" lon="8.57643">
        <ele>495</ele>
        <time>2021-08-10T10:46:52.803Z</time>
      </trkpt>
      <trkpt lat="46.93498" lon="8.57643">
        <ele>496</ele>
        <time>2021-08-10T10:46:53.803Z</time>
      </trkpt>
      <trkpt lat="46.93497" lon="8.57643">
        <ele>496</ele>
        <time>2021-08-10T10:46:54.804Z</time>
      </trkpt>
      <trkpt lat="46.93495" lon="8.57643">
        <ele>497</ele>
        <time>2021-08-10T10:46:55.804Z</time>
      </trkpt>
      <trkpt lat="46.93491" lon="8.57645">
        <ele>501</ele>
        <time>2021-08-10T10:46:56.803Z</time>
      </trkpt>
      <trkpt lat="46.9349" lon="8.57645">
        <ele>502</ele>
        <time>2021-08-10T10:46:57.803Z</time>
      </trkpt>
      <trkpt lat="46.93489" lon="8.57644">
        <ele>503</ele>
        <time>2021-08-10T10:46:58.804Z</time>
      </trkpt>
      <trkpt lat="46.93489" lon="8.57644">
        <ele>503</ele>
        <time>2021-08-10T10:46:59.803Z</time>
      </trkpt>
      <trkpt lat="46.93487" lon="8.57645">
        <ele>504</ele>
        <time>2021-08-10T10:47:00.804Z</time>
      </trkpt>
      <trkpt lat="46.93486" lon="8.57647">
        <ele>504</ele>
        <time>2021-08-10T10:47:01.803Z</time>
      </trkpt>
      <trkpt lat="46.93485" lon="8.57647">
        <ele>504</ele>
        <time>2021-08-10T10:47:02.804Z</time>
      </trkpt>
      <trkpt lat="46.93485" lon="8.57648">
        <ele>504</ele>
        <time>2021-08-10T10:47:03.803Z</time>
      </trkpt>
      <trkpt lat="46.93484" lon="8.57649">
        <ele>503</ele>
        <time>2021-08-10T10:47:04.803Z</time>
      </trkpt>
      <trkpt lat="46.93483" lon="8.57649">
        <ele>502</ele>
        <time>2021-08-10T10:47:05.804Z</time>
      </trkpt>
      <trkpt lat="46.93482" lon="8.5765">
        <ele>501</ele>
        <time>2021-08-10T10:47:06.803Z</time>
      </trkpt>
      <trkpt lat="46.93481" lon="8.57651">
        <ele>501</ele>
        <time>2021-08-10T10:47:07.804Z</time>
      </trkpt>
      <trkpt lat="46.93481" lon="8.57651">
        <ele>499</ele>
        <time>2021-08-10T10:47:08.804Z</time>
      </trkpt>
      <trkpt lat="46.9348" lon="8.57653">
        <ele>498</ele>
        <time>2021-08-10T10:47:09.804Z</time>
      </trkpt>
      <trkpt lat="46.93478" lon="8.57654">
        <ele>497</ele>
        <time>2021-08-10T10:47:10.804Z</time>
      </trkpt>
      <trkpt lat="46.93477" lon="8.57654">
        <ele>496</ele>
        <time>2021-08-10T10:47:11.803Z</time>
      </trkpt>
      <trkpt lat="46.93476" lon="8.57654">
        <ele>495</ele>
        <time>2021-08-10T10:47:12.803Z</time>
      </trkpt>
      <trkpt lat="46.93475" lon="8.57654">
        <ele>495</ele>
        <time>2021-08-10T10:47:13.803Z</time>
      </trkpt>
      <trkpt lat="46.93474" lon="8.57655">
        <ele>494</ele>
        <time>2021-08-10T10:47:14.804Z</time>
      </trkpt>
      <trkpt lat="46.93473" lon="8.57655">
        <ele>494</ele>
        <time>2021-08-10T10:47:15.803Z</time>
      </trkpt>
      <trkpt lat="46.93472" lon="8.57655">
        <ele>494</ele>
        <time>2021-08-10T10:47:16.803Z</time>
      </trkpt>
      <trkpt lat="46.93471" lon="8.57656">
        <ele>493</ele>
        <time>2021-08-10T10:47:17.803Z</time>
      </trkpt>
      <trkpt lat="46.93471" lon="8.57656">
        <ele>493</ele>
        <time>2021-08-10T10:47:18.804Z</time>
      </trkpt>
      <trkpt lat="46.9347" lon="8.57657">
        <ele>492</ele>
        <time>2021-08-10T10:47:19.803Z</time>
      </trkpt>
      <trkpt lat="46.9347" lon="8.57657">
        <ele>492</ele>
        <time>2021-08-10T10:47:20.803Z</time>
      </trkpt>
      <trkpt lat="46.93469" lon="8.57658">
        <ele>491</ele>
        <time>2021-08-10T10:47:21.804Z</time>
      </trkpt>
      <trkpt lat="46.93468" lon="8.57658">
        <ele>491</ele>
        <time>2021-08-10T10:47:22.803Z</time>
      </trkpt>
      <trkpt lat="46.93468" lon="8.57659">
        <ele>492</ele>
        <time>2021-08-10T10:47:23.803Z</time>
      </trkpt>
      <trkpt lat="46.93467" lon="8.57659">
        <ele>492</ele>
        <time>2021-08-10T10:47:24.803Z</time>
      </trkpt>
      <trkpt lat="46.93466" lon="8.5766">
        <ele>492</ele>
        <time>2021-08-10T10:47:25.804Z</time>
      </trkpt>
      <trkpt lat="46.93466" lon="8.5766">
        <ele>492</ele>
        <time>2021-08-10T10:47:26.803Z</time>
      </trkpt>
      <trkpt lat="46.93465" lon="8.5766">
        <ele>492</ele>
        <time>2021-08-10T10:47:27.803Z</time>
      </trkpt>
      <trkpt lat="46.93465" lon="8.5766">
        <ele>493</ele>
        <time>2021-08-10T10:47:28.803Z</time>
      </trkpt>
      <trkpt lat="46.93464" lon="8.5766">
        <ele>493</ele>
        <time>2021-08-10T10:47:29.804Z</time>
      </trkpt>
      <trkpt lat="46.93463" lon="8.5766">
        <ele>493</ele>
        <time>2021-08-10T10:47:30.803Z</time>
      </trkpt>
      <trkpt lat="46.93462" lon="8.5766">
        <ele>493</ele>
        <time>2021-08-10T10:47:31.803Z</time>
      </trkpt>
      <trkpt lat="46.93461" lon="8.57659">
        <ele>493</ele>
        <time>2021-08-10T10:47:32.804Z</time>
      </trkpt>
      <trkpt lat="46.9346" lon="8.57658">
        <ele>494</ele>
        <time>2021-08-10T10:47:33.804Z</time>
      </trkpt>
      <trkpt lat="46.93459" lon="8.57657">
        <ele>494</ele>
        <time>2021-08-10T10:47:34.804Z</time>
      </trkpt>
      <trkpt lat="46.93458" lon="8.57657">
        <ele>494</ele>
        <time>2021-08-10T10:47:35.803Z</time>
      </trkpt>
      <trkpt lat="46.93457" lon="8.57656">
        <ele>494</ele>
        <time>2021-08-10T10:47:36.803Z</time>
      </trkpt>
      <trkpt lat="46.93456" lon="8.57656">
        <ele>494</ele>
        <time>2021-08-10T10:47:37.803Z</time>
      </trkpt>
      <trkpt lat="46.93457" lon="8.57656">
        <ele>494</ele>
        <time>2021-08-10T10:47:38.804Z</time>
      </trkpt>
      <trkpt lat="46.93455" lon="8.57657">
        <ele>493</ele>
        <time>2021-08-10T10:47:39.804Z</time>
      </trkpt>
      <trkpt lat="46.93454" lon="8.57658">
        <ele>493</ele>
        <time>2021-08-10T10:47:40.804Z</time>
      </trkpt>
      <trkpt lat="46.93454" lon="8.57659">
        <ele>492</ele>
        <time>2021-08-10T10:47:41.804Z</time>
      </trkpt>
      <trkpt lat="46.93453" lon="8.5766">
        <ele>492</ele>
        <time>2021-08-10T10:47:42.804Z</time>
      </trkpt>
      <trkpt lat="46.93452" lon="8.5766">
        <ele>492</ele>
        <time>2021-08-10T10:47:43.804Z</time>
      </trkpt>
      <trkpt lat="46.93451" lon="8.57661">
        <ele>491</ele>
        <time>2021-08-10T10:47:44.804Z</time>
      </trkpt>
      <trkpt lat="46.9345" lon="8.57662">
        <ele>491</ele>
        <time>2021-08-10T10:47:45.804Z</time>
      </trkpt>
      <trkpt lat="46.93449" lon="8.57663">
        <ele>490</ele>
        <time>2021-08-10T10:47:46.805Z</time>
      </trkpt>
      <trkpt lat="46.93448" lon="8.57664">
        <ele>489</ele>
        <time>2021-08-10T10:47:47.804Z</time>
      </trkpt>
      <trkpt lat="46.93447" lon="8.57665">
        <ele>489</ele>
        <time>2021-08-10T10:47:48.804Z</time>
      </trkpt>
      <trkpt lat="46.93446" lon="8.57666">
        <ele>488</ele>
        <time>2021-08-10T10:47:49.804Z</time>
      </trkpt>
      <trkpt lat="46.93446" lon="8.57667">
        <ele>488</ele>
        <time>2021-08-10T10:47:50.805Z</time>
      </trkpt>
      <trkpt lat="46.93445" lon="8.57668">
        <ele>488</ele>
        <time>2021-08-10T10:47:51.804Z</time>
      </trkpt>
      <trkpt lat="46.93444" lon="8.57668">
        <ele>488</ele>
        <time>2021-08-10T10:47:52.804Z</time>
      </trkpt>
      <trkpt lat="46.93443" lon="8.57669">
        <ele>487</ele>
        <time>2021-08-10T10:47:53.804Z</time>
      </trkpt>
      <trkpt lat="46.93442" lon="8.57669">
        <ele>487</ele>
        <time>2021-08-10T10:47:54.804Z</time>
      </trkpt>
      <trkpt lat="46.93441" lon="8.57671">
        <ele>486</ele>
        <time>2021-08-10T10:47:55.804Z</time>
      </trkpt>
      <trkpt lat="46.9344" lon="8.57672">
        <ele>486</ele>
        <time>2021-08-10T10:47:56.804Z</time>
      </trkpt>
      <trkpt lat="46.9344" lon="8.57672">
        <ele>486</ele>
        <time>2021-08-10T10:47:57.805Z</time>
      </trkpt>
      <trkpt lat="46.93439" lon="8.57672">
        <ele>485</ele>
        <time>2021-08-10T10:47:58.804Z</time>
      </trkpt>
      <trkpt lat="46.93438" lon="8.57674">
        <ele>485</ele>
        <time>2021-08-10T10:47:59.804Z</time>
      </trkpt>
      <trkpt lat="46.93437" lon="8.57674">
        <ele>484</ele>
        <time>2021-08-10T10:48:00.804Z</time>
      </trkpt>
      <trkpt lat="46.93436" lon="8.57674">
        <ele>483</ele>
        <time>2021-08-10T10:48:01.804Z</time>
      </trkpt>
      <trkpt lat="46.93436" lon="8.57675">
        <ele>483</ele>
        <time>2021-08-10T10:48:02.805Z</time>
      </trkpt>
      <trkpt lat="46.93435" lon="8.57675">
        <ele>482</ele>
        <time>2021-08-10T10:48:03.804Z</time>
      </trkpt>
      <trkpt lat="46.93435" lon="8.57675">
        <ele>481</ele>
        <time>2021-08-10T10:48:04.804Z</time>
      </trkpt>
      <trkpt lat="46.93434" lon="8.57675">
        <ele>480</ele>
        <time>2021-08-10T10:48:05.804Z</time>
      </trkpt>
      <trkpt lat="46.93434" lon="8.57676">
        <ele>480</ele>
        <time>2021-08-10T10:48:06.804Z</time>
      </trkpt>
      <trkpt lat="46.93434" lon="8.57676">
        <ele>479</ele>
        <time>2021-08-10T10:48:07.804Z</time>
      </trkpt>
      <trkpt lat="46.93433" lon="8.57677">
        <ele>479</ele>
        <time>2021-08-10T10:48:08.804Z</time>
      </trkpt>
      <trkpt lat="46.93433" lon="8.57677">
        <ele>478</ele>
        <time>2021-08-10T10:48:09.804Z</time>
      </trkpt>
      <trkpt lat="46.93433" lon="8.57677">
        <ele>478</ele>
        <time>2021-08-10T10:48:10.804Z</time>
      </trkpt>
      <trkpt lat="46.93432" lon="8.57677">
        <ele>475</ele>
        <time>2021-08-10T10:48:11.805Z</time>
      </trkpt>
      <trkpt lat="46.93431" lon="8.57678">
        <ele>475</ele>
        <time>2021-08-10T10:48:12.806Z</time>
      </trkpt>
      <trkpt lat="46.9343" lon="8.57679">
        <ele>475</ele>
        <time>2021-08-10T10:48:13.806Z</time>
      </trkpt>
      <trkpt lat="46.9343" lon="8.57679">
        <ele>475</ele>
        <time>2021-08-10T10:48:14.806Z</time>
      </trkpt>
      <trkpt lat="46.93429" lon="8.5768">
        <ele>475</ele>
        <time>2021-08-10T10:48:15.805Z</time>
      </trkpt>
      <trkpt lat="46.93428" lon="8.57681">
        <ele>475</ele>
        <time>2021-08-10T10:48:16.806Z</time>
      </trkpt>
      <trkpt lat="46.93427" lon="8.57681">
        <ele>475</ele>
        <time>2021-08-10T10:48:17.806Z</time>
      </trkpt>
      <trkpt lat="46.93426" lon="8.57682">
        <ele>475</ele>
        <time>2021-08-10T10:48:18.806Z</time>
      </trkpt>
      <trkpt lat="46.93425" lon="8.57682">
        <ele>475</ele>
        <time>2021-08-10T10:48:19.806Z</time>
      </trkpt>
      <trkpt lat="46.93424" lon="8.57683">
        <ele>475</ele>
        <time>2021-08-10T10:48:20.805Z</time>
      </trkpt>
      <trkpt lat="46.93423" lon="8.57683">
        <ele>475</ele>
        <time>2021-08-10T10:48:21.805Z</time>
      </trkpt>
      <trkpt lat="46.93422" lon="8.57684">
        <ele>475</ele>
        <time>2021-08-10T10:48:22.806Z</time>
      </trkpt>
      <trkpt lat="46.93421" lon="8.57685">
        <ele>475</ele>
        <time>2021-08-10T10:48:23.805Z</time>
      </trkpt>
      <trkpt lat="46.9342" lon="8.57685">
        <ele>476</ele>
        <time>2021-08-10T10:48:24.806Z</time>
      </trkpt>
      <trkpt lat="46.93419" lon="8.57686">
        <ele>476</ele>
        <time>2021-08-10T10:48:25.806Z</time>
      </trkpt>
      <trkpt lat="46.93418" lon="8.57686">
        <ele>477</ele>
        <time>2021-08-10T10:48:26.806Z</time>
      </trkpt>
      <trkpt lat="46.93417" lon="8.57686">
        <ele>477</ele>
        <time>2021-08-10T10:48:27.805Z</time>
      </trkpt>
      <trkpt lat="46.93417" lon="8.57686">
        <ele>478</ele>
        <time>2021-08-10T10:48:28.805Z</time>
      </trkpt>
      <trkpt lat="46.93416" lon="8.57686">
        <ele>478</ele>
        <time>2021-08-10T10:48:29.806Z</time>
      </trkpt>
      <trkpt lat="46.93415" lon="8.57687">
        <ele>479</ele>
        <time>2021-08-10T10:48:30.806Z</time>
      </trkpt>
      <trkpt lat="46.93414" lon="8.57687">
        <ele>479</ele>
        <time>2021-08-10T10:48:31.806Z</time>
      </trkpt>
      <trkpt lat="46.93414" lon="8.57687">
        <ele>480</ele>
        <time>2021-08-10T10:48:32.805Z</time>
      </trkpt>
      <trkpt lat="46.93413" lon="8.57688">
        <ele>480</ele>
        <time>2021-08-10T10:48:33.805Z</time>
      </trkpt>
      <trkpt lat="46.93412" lon="8.57688">
        <ele>480</ele>
        <time>2021-08-10T10:48:34.806Z</time>
      </trkpt>
      <trkpt lat="46.93412" lon="8.57688">
        <ele>480</ele>
        <time>2021-08-10T10:48:35.806Z</time>
      </trkpt>
      <trkpt lat="46.93411" lon="8.57688">
        <ele>481</ele>
        <time>2021-08-10T10:48:36.806Z</time>
      </trkpt>
      <trkpt lat="46.9341" lon="8.57687">
        <ele>481</ele>
        <time>2021-08-10T10:48:37.805Z</time>
      </trkpt>
      <trkpt lat="46.93409" lon="8.57687">
        <ele>480</ele>
        <time>2021-08-10T10:48:38.806Z</time>
      </trkpt>
      <trkpt lat="46.93408" lon="8.57687">
        <ele>480</ele>
        <time>2021-08-10T10:48:39.805Z</time>
      </trkpt>
      <trkpt lat="46.93407" lon="8.57687">
        <ele>480</ele>
        <time>2021-08-10T10:48:40.805Z</time>
      </trkpt>
      <trkpt lat="46.93407" lon="8.57686">
        <ele>480</ele>
        <time>2021-08-10T10:48:41.806Z</time>
      </trkpt>
      <trkpt lat="46.93406" lon="8.57686">
        <ele>480</ele>
        <time>2021-08-10T10:48:42.806Z</time>
      </trkpt>
      <trkpt lat="46.93404" lon="8.57686">
        <ele>481</ele>
        <time>2021-08-10T10:48:43.806Z</time>
      </trkpt>
      <trkpt lat="46.93403" lon="8.57687">
        <ele>482</ele>
        <time>2021-08-10T10:48:44.806Z</time>
      </trkpt>
      <trkpt lat="46.93402" lon="8.57687">
        <ele>482</ele>
        <time>2021-08-10T10:48:45.805Z</time>
      </trkpt>
      <trkpt lat="46.93401" lon="8.57688">
        <ele>482</ele>
        <time>2021-08-10T10:48:46.805Z</time>
      </trkpt>
      <trkpt lat="46.934" lon="8.57689">
        <ele>482</ele>
        <time>2021-08-10T10:48:47.805Z</time>
      </trkpt>
      <trkpt lat="46.93399" lon="8.5769">
        <ele>482</ele>
        <time>2021-08-10T10:48:48.805Z</time>
      </trkpt>
      <trkpt lat="46.93399" lon="8.57691">
        <ele>482</ele>
        <time>2021-08-10T10:48:49.806Z</time>
      </trkpt>
      <trkpt lat="46.93397" lon="8.57691">
        <ele>482</ele>
        <time>2021-08-10T10:48:50.805Z</time>
      </trkpt>
      <trkpt lat="46.93397" lon="8.57692">
        <ele>482</ele>
        <time>2021-08-10T10:48:51.806Z</time>
      </trkpt>
      <trkpt lat="46.93396" lon="8.57693">
        <ele>481</ele>
        <time>2021-08-10T10:48:52.806Z</time>
      </trkpt>
      <trkpt lat="46.93395" lon="8.57694">
        <ele>481</ele>
        <time>2021-08-10T10:48:53.806Z</time>
      </trkpt>
      <trkpt lat="46.93394" lon="8.57695">
        <ele>480</ele>
        <time>2021-08-10T10:48:54.806Z</time>
      </trkpt>
      <trkpt lat="46.93394" lon="8.57696">
        <ele>479</ele>
        <time>2021-08-10T10:48:55.806Z</time>
      </trkpt>
      <trkpt lat="46.93393" lon="8.57696">
        <ele>479</ele>
        <time>2021-08-10T10:48:56.806Z</time>
      </trkpt>
      <trkpt lat="46.93392" lon="8.57697">
        <ele>478</ele>
        <time>2021-08-10T10:48:57.806Z</time>
      </trkpt>
      <trkpt lat="46.93392" lon="8.57697">
        <ele>477</ele>
        <time>2021-08-10T10:48:58.806Z</time>
      </trkpt>
      <trkpt lat="46.93391" lon="8.57698">
        <ele>476</ele>
        <time>2021-08-10T10:48:59.805Z</time>
      </trkpt>
      <trkpt lat="46.9339" lon="8.57698">
        <ele>476</ele>
        <time>2021-08-10T10:49:00.806Z</time>
      </trkpt>
      <trkpt lat="46.93389" lon="8.57699">
        <ele>475</ele>
        <time>2021-08-10T10:49:01.805Z</time>
      </trkpt>
      <trkpt lat="46.93389" lon="8.57699">
        <ele>476</ele>
        <time>2021-08-10T10:49:02.805Z</time>
      </trkpt>
      <trkpt lat="46.93388" lon="8.577">
        <ele>476</ele>
        <time>2021-08-10T10:49:03.805Z</time>
      </trkpt>
      <trkpt lat="46.93387" lon="8.57702">
        <ele>476</ele>
        <time>2021-08-10T10:49:04.806Z</time>
      </trkpt>
      <trkpt lat="46.93387" lon="8.57702">
        <ele>477</ele>
        <time>2021-08-10T10:49:05.806Z</time>
      </trkpt>
      <trkpt lat="46.93386" lon="8.57703">
        <ele>477</ele>
        <time>2021-08-10T10:49:06.805Z</time>
      </trkpt>
      <trkpt lat="46.93385" lon="8.57704">
        <ele>477</ele>
        <time>2021-08-10T10:49:07.806Z</time>
      </trkpt>
      <trkpt lat="46.93384" lon="8.57704">
        <ele>477</ele>
        <time>2021-08-10T10:49:08.805Z</time>
      </trkpt>
      <trkpt lat="46.93383" lon="8.57705">
        <ele>477</ele>
        <time>2021-08-10T10:49:09.805Z</time>
      </trkpt>
      <trkpt lat="46.93382" lon="8.57705">
        <ele>477</ele>
        <time>2021-08-10T10:49:10.805Z</time>
      </trkpt>
      <trkpt lat="46.93381" lon="8.57705">
        <ele>477</ele>
        <time>2021-08-10T10:49:11.805Z</time>
      </trkpt>
      <trkpt lat="46.9338" lon="8.57705">
        <ele>476</ele>
        <time>2021-08-10T10:49:12.805Z</time>
      </trkpt>
      <trkpt lat="46.9338" lon="8.57705">
        <ele>476</ele>
        <time>2021-08-10T10:49:13.806Z</time>
      </trkpt>
      <trkpt lat="46.93378" lon="8.57705">
        <ele>476</ele>
        <time>2021-08-10T10:49:14.806Z</time>
      </trkpt>
      <trkpt lat="46.93377" lon="8.57705">
        <ele>476</ele>
        <time>2021-08-10T10:49:15.805Z</time>
      </trkpt>
      <trkpt lat="46.93376" lon="8.57705">
        <ele>476</ele>
        <time>2021-08-10T10:49:16.806Z</time>
      </trkpt>
      <trkpt lat="46.93376" lon="8.57705">
        <ele>476</ele>
        <time>2021-08-10T10:49:17.805Z</time>
      </trkpt>
      <trkpt lat="46.93375" lon="8.57704">
        <ele>475</ele>
        <time>2021-08-10T10:49:18.806Z</time>
      </trkpt>
      <trkpt lat="46.93374" lon="8.57704">
        <ele>475</ele>
        <time>2021-08-10T10:49:19.806Z</time>
      </trkpt>
      <trkpt lat="46.93373" lon="8.57704">
        <ele>475</ele>
        <time>2021-08-10T10:49:20.806Z</time>
      </trkpt>
      <trkpt lat="46.93373" lon="8.57704">
        <ele>475</ele>
        <time>2021-08-10T10:49:21.806Z</time>
      </trkpt>
      <trkpt lat="46.93372" lon="8.57704">
        <ele>476</ele>
        <time>2021-08-10T10:49:22.806Z</time>
      </trkpt>
      <trkpt lat="46.93371" lon="8.57704">
        <ele>476</ele>
        <time>2021-08-10T10:49:23.805Z</time>
      </trkpt>
      <trkpt lat="46.9337" lon="8.57703">
        <ele>476</ele>
        <time>2021-08-10T10:49:24.806Z</time>
      </trkpt>
      <trkpt lat="46.9337" lon="8.57703">
        <ele>475</ele>
        <time>2021-08-10T10:49:25.806Z</time>
      </trkpt>
      <trkpt lat="46.93369" lon="8.57703">
        <ele>475</ele>
        <time>2021-08-10T10:49:26.806Z</time>
      </trkpt>
      <trkpt lat="46.93368" lon="8.57703">
        <ele>474</ele>
        <time>2021-08-10T10:49:27.806Z</time>
      </trkpt>
      <trkpt lat="46.93368" lon="8.57704">
        <ele>473</ele>
        <time>2021-08-10T10:49:28.805Z</time>
      </trkpt>
      <trkpt lat="46.93367" lon="8.57704">
        <ele>473</ele>
        <time>2021-08-10T10:49:29.806Z</time>
      </trkpt>
      <trkpt lat="46.93366" lon="8.57704">
        <ele>473</ele>
        <time>2021-08-10T10:49:30.806Z</time>
      </trkpt>
      <trkpt lat="46.93365" lon="8.57705">
        <ele>472</ele>
        <time>2021-08-10T10:49:31.805Z</time>
      </trkpt>
      <trkpt lat="46.93364" lon="8.57705">
        <ele>472</ele>
        <time>2021-08-10T10:49:32.805Z</time>
      </trkpt>
      <trkpt lat="46.93362" lon="8.57706">
        <ele>471</ele>
        <time>2021-08-10T10:49:33.806Z</time>
      </trkpt>
      <trkpt lat="46.93361" lon="8.57706">
        <ele>471</ele>
        <time>2021-08-10T10:49:34.805Z</time>
      </trkpt>
      <trkpt lat="46.9336" lon="8.57707">
        <ele>470</ele>
        <time>2021-08-10T10:49:35.806Z</time>
      </trkpt>
      <trkpt lat="46.93359" lon="8.57706">
        <ele>469</ele>
        <time>2021-08-10T10:49:36.806Z</time>
      </trkpt>
      <trkpt lat="46.93358" lon="8.57706">
        <ele>469</ele>
        <time>2021-08-10T10:49:37.806Z</time>
      </trkpt>
      <trkpt lat="46.93357" lon="8.57706">
        <ele>468</ele>
        <time>2021-08-10T10:49:38.806Z</time>
      </trkpt>
      <trkpt lat="46.93356" lon="8.57706">
        <ele>467</ele>
        <time>2021-08-10T10:49:39.806Z</time>
      </trkpt>
      <trkpt lat="46.93356" lon="8.57706">
        <ele>467</ele>
        <time>2021-08-10T10:49:40.806Z</time>
      </trkpt>
      <trkpt lat="46.93356" lon="8.57706">
        <ele>465</ele>
        <time>2021-08-10T10:49:41.805Z</time>
      </trkpt>
      <trkpt lat="46.93355" lon="8.57707">
        <ele>464</ele>
        <time>2021-08-10T10:49:42.806Z</time>
      </trkpt>
      <trkpt lat="46.93354" lon="8.57707">
        <ele>464</ele>
        <time>2021-08-10T10:49:43.806Z</time>
      </trkpt>
      <trkpt lat="46.93353" lon="8.57707">
        <ele>463</ele>
        <time>2021-08-10T10:49:44.806Z</time>
      </trkpt>
      <trkpt lat="46.93353" lon="8.57706">
        <ele>463</ele>
        <time>2021-08-10T10:49:45.805Z</time>
      </trkpt>
      <trkpt lat="46.93352" lon="8.57706">
        <ele>464</ele>
        <time>2021-08-10T10:49:46.805Z</time>
      </trkpt>
      <trkpt lat="46.93351" lon="8.57705">
        <ele>464</ele>
        <time>2021-08-10T10:49:47.806Z</time>
      </trkpt>
      <trkpt lat="46.9335" lon="8.57705">
        <ele>464</ele>
        <time>2021-08-10T10:49:48.805Z</time>
      </trkpt>
      <trkpt lat="46.93349" lon="8.57704">
        <ele>464</ele>
        <time>2021-08-10T10:49:49.805Z</time>
      </trkpt>
      <trkpt lat="46.93348" lon="8.57703">
        <ele>464</ele>
        <time>2021-08-10T10:49:50.806Z</time>
      </trkpt>
      <trkpt lat="46.93347" lon="8.57702">
        <ele>465</ele>
        <time>2021-08-10T10:49:51.805Z</time>
      </trkpt>
      <trkpt lat="46.93346" lon="8.57701">
        <ele>465</ele>
        <time>2021-08-10T10:49:52.805Z</time>
      </trkpt>
      <trkpt lat="46.93346" lon="8.577">
        <ele>466</ele>
        <time>2021-08-10T10:49:53.806Z</time>
      </trkpt>
      <trkpt lat="46.93345" lon="8.57699">
        <ele>467</ele>
        <time>2021-08-10T10:49:54.806Z</time>
      </trkpt>
      <trkpt lat="46.93345" lon="8.57698">
        <ele>467</ele>
        <time>2021-08-10T10:49:55.805Z</time>
      </trkpt>
      <trkpt lat="46.93344" lon="8.57698">
        <ele>467</ele>
        <time>2021-08-10T10:49:56.806Z</time>
      </trkpt>
      <trkpt lat="46.93344" lon="8.57697">
        <ele>468</ele>
        <time>2021-08-10T10:49:57.806Z</time>
      </trkpt>
      <trkpt lat="46.93344" lon="8.57696">
        <ele>468</ele>
        <time>2021-08-10T10:49:58.805Z</time>
      </trkpt>
      <trkpt lat="46.93342" lon="8.57695">
        <ele>468</ele>
        <time>2021-08-10T10:49:59.806Z</time>
      </trkpt>
      <trkpt lat="46.93342" lon="8.57694">
        <ele>467</ele>
        <time>2021-08-10T10:50:00.806Z</time>
      </trkpt>
      <trkpt lat="46.93341" lon="8.57693">
        <ele>467</ele>
        <time>2021-08-10T10:50:01.806Z</time>
      </trkpt>
      <trkpt lat="46.9334" lon="8.57692">
        <ele>467</ele>
        <time>2021-08-10T10:50:02.806Z</time>
      </trkpt>
      <trkpt lat="46.93339" lon="8.57692">
        <ele>467</ele>
        <time>2021-08-10T10:50:03.805Z</time>
      </trkpt>
      <trkpt lat="46.93338" lon="8.57692">
        <ele>467</ele>
        <time>2021-08-10T10:50:04.806Z</time>
      </trkpt>
      <trkpt lat="46.93336" lon="8.57692">
        <ele>467</ele>
        <time>2021-08-10T10:50:05.805Z</time>
      </trkpt>
      <trkpt lat="46.93336" lon="8.57692">
        <ele>467</ele>
        <time>2021-08-10T10:50:06.805Z</time>
      </trkpt>
      <trkpt lat="46.93334" lon="8.57692">
        <ele>467</ele>
        <time>2021-08-10T10:50:07.806Z</time>
      </trkpt>
      <trkpt lat="46.93333" lon="8.57693">
        <ele>467</ele>
        <time>2021-08-10T10:50:08.806Z</time>
      </trkpt>
      <trkpt lat="46.93332" lon="8.57693">
        <ele>467</ele>
        <time>2021-08-10T10:50:09.806Z</time>
      </trkpt>
      <trkpt lat="46.93331" lon="8.57693">
        <ele>467</ele>
        <time>2021-08-10T10:50:10.806Z</time>
      </trkpt>
      <trkpt lat="46.93331" lon="8.57693">
        <ele>467</ele>
        <time>2021-08-10T10:50:11.806Z</time>
      </trkpt>
      <trkpt lat="46.9333" lon="8.57694">
        <ele>468</ele>
        <time>2021-08-10T10:50:12.806Z</time>
      </trkpt>
      <trkpt lat="46.93329" lon="8.57694">
        <ele>468</ele>
        <time>2021-08-10T10:50:13.806Z</time>
      </trkpt>
      <trkpt lat="46.93328" lon="8.57695">
        <ele>469</ele>
        <time>2021-08-10T10:50:14.806Z</time>
      </trkpt>
      <trkpt lat="46.93327" lon="8.57695">
        <ele>470</ele>
        <time>2021-08-10T10:50:15.805Z</time>
      </trkpt>
      <trkpt lat="46.93326" lon="8.57696">
        <ele>470</ele>
        <time>2021-08-10T10:50:16.805Z</time>
      </trkpt>
      <trkpt lat="46.93325" lon="8.57696">
        <ele>471</ele>
        <time>2021-08-10T10:50:17.806Z</time>
      </trkpt>
      <trkpt lat="46.93324" lon="8.57697">
        <ele>471</ele>
        <time>2021-08-10T10:50:18.806Z</time>
      </trkpt>
      <trkpt lat="46.93323" lon="8.57697">
        <ele>471</ele>
        <time>2021-08-10T10:50:19.805Z</time>
      </trkpt>
      <trkpt lat="46.93322" lon="8.57697">
        <ele>471</ele>
        <time>2021-08-10T10:50:20.806Z</time>
      </trkpt>
      <trkpt lat="46.93322" lon="8.57698">
        <ele>471</ele>
        <time>2021-08-10T10:50:21.806Z</time>
      </trkpt>
      <trkpt lat="46.93321" lon="8.57699">
        <ele>470</ele>
        <time>2021-08-10T10:50:22.806Z</time>
      </trkpt>
      <trkpt lat="46.9332" lon="8.57699">
        <ele>470</ele>
        <time>2021-08-10T10:50:23.806Z</time>
      </trkpt>
      <trkpt lat="46.93319" lon="8.57699">
        <ele>470</ele>
        <time>2021-08-10T10:50:24.805Z</time>
      </trkpt>
      <trkpt lat="46.93318" lon="8.57699">
        <ele>470</ele>
        <time>2021-08-10T10:50:25.806Z</time>
      </trkpt>
      <trkpt lat="46.93317" lon="8.57699">
        <ele>470</ele>
        <time>2021-08-10T10:50:26.806Z</time>
      </trkpt>
      <trkpt lat="46.93317" lon="8.57699">
        <ele>470</ele>
        <time>2021-08-10T10:50:27.805Z</time>
      </trkpt>
      <trkpt lat="46.93316" lon="8.57699">
        <ele>470</ele>
        <time>2021-08-10T10:50:28.806Z</time>
      </trkpt>
      <trkpt lat="46.93315" lon="8.57699">
        <ele>470</ele>
        <time>2021-08-10T10:50:29.806Z</time>
      </trkpt>
      <trkpt lat="46.93314" lon="8.57699">
        <ele>470</ele>
        <time>2021-08-10T10:50:30.806Z</time>
      </trkpt>
      <trkpt lat="46.93314" lon="8.57699">
        <ele>469</ele>
        <time>2021-08-10T10:50:31.806Z</time>
      </trkpt>
      <trkpt lat="46.93313" lon="8.57698">
        <ele>469</ele>
        <time>2021-08-10T10:50:32.805Z</time>
      </trkpt>
      <trkpt lat="46.93312" lon="8.57698">
        <ele>469</ele>
        <time>2021-08-10T10:50:33.806Z</time>
      </trkpt>
      <trkpt lat="46.93312" lon="8.57699">
        <ele>469</ele>
        <time>2021-08-10T10:50:34.805Z</time>
      </trkpt>
      <trkpt lat="46.93312" lon="8.57699">
        <ele>470</ele>
        <time>2021-08-10T10:50:35.806Z</time>
      </trkpt>
      <trkpt lat="46.93311" lon="8.57699">
        <ele>470</ele>
        <time>2021-08-10T10:50:36.806Z</time>
      </trkpt>
      <trkpt lat="46.93311" lon="8.57699">
        <ele>471</ele>
        <time>2021-08-10T10:50:37.805Z</time>
      </trkpt>
      <trkpt lat="46.9331" lon="8.577">
        <ele>471</ele>
        <time>2021-08-10T10:50:38.805Z</time>
      </trkpt>
      <trkpt lat="46.93308" lon="8.577">
        <ele>471</ele>
        <time>2021-08-10T10:50:39.805Z</time>
      </trkpt>
      <trkpt lat="46.93307" lon="8.577">
        <ele>471</ele>
        <time>2021-08-10T10:50:40.806Z</time>
      </trkpt>
      <trkpt lat="46.93306" lon="8.577">
        <ele>471</ele>
        <time>2021-08-10T10:50:41.805Z</time>
      </trkpt>
      <trkpt lat="46.93305" lon="8.57701">
        <ele>471</ele>
        <time>2021-08-10T10:50:42.806Z</time>
      </trkpt>
      <trkpt lat="46.93303" lon="8.57701">
        <ele>471</ele>
        <time>2021-08-10T10:50:43.805Z</time>
      </trkpt>
      <trkpt lat="46.93301" lon="8.57701">
        <ele>471</ele>
        <time>2021-08-10T10:50:44.805Z</time>
      </trkpt>
      <trkpt lat="46.93299" lon="8.57701">
        <ele>471</ele>
        <time>2021-08-10T10:50:45.806Z</time>
      </trkpt>
      <trkpt lat="46.93297" lon="8.57701">
        <ele>471</ele>
        <time>2021-08-10T10:50:46.806Z</time>
      </trkpt>
      <trkpt lat="46.93296" lon="8.57701">
        <ele>471</ele>
        <time>2021-08-10T10:50:47.806Z</time>
      </trkpt>
      <trkpt lat="46.93295" lon="8.577">
        <ele>471</ele>
        <time>2021-08-10T10:50:48.806Z</time>
      </trkpt>
      <trkpt lat="46.93294" lon="8.57699">
        <ele>471</ele>
        <time>2021-08-10T10:50:49.806Z</time>
      </trkpt>
      <trkpt lat="46.93294" lon="8.57699">
        <ele>471</ele>
        <time>2021-08-10T10:50:50.806Z</time>
      </trkpt>
      <trkpt lat="46.93293" lon="8.57699">
        <ele>471</ele>
        <time>2021-08-10T10:50:51.806Z</time>
      </trkpt>
      <trkpt lat="46.93292" lon="8.57699">
        <ele>471</ele>
        <time>2021-08-10T10:50:52.806Z</time>
      </trkpt>
      <trkpt lat="46.93292" lon="8.57698">
        <ele>471</ele>
        <time>2021-08-10T10:50:53.806Z</time>
      </trkpt>
      <trkpt lat="46.93291" lon="8.57698">
        <ele>471</ele>
        <time>2021-08-10T10:50:54.805Z</time>
      </trkpt>
      <trkpt lat="46.93291" lon="8.57698">
        <ele>471</ele>
        <time>2021-08-10T10:50:55.806Z</time>
      </trkpt>
      <trkpt lat="46.9329" lon="8.57698">
        <ele>470</ele>
        <time>2021-08-10T10:50:56.806Z</time>
      </trkpt>
      <trkpt lat="46.93289" lon="8.57699">
        <ele>470</ele>
        <time>2021-08-10T10:50:57.805Z</time>
      </trkpt>
      <trkpt lat="46.93287" lon="8.57699">
        <ele>470</ele>
        <time>2021-08-10T10:50:58.806Z</time>
      </trkpt>
      <trkpt lat="46.93286" lon="8.57699">
        <ele>470</ele>
        <time>2021-08-10T10:50:59.805Z</time>
      </trkpt>
      <trkpt lat="46.93285" lon="8.577">
        <ele>471</ele>
        <time>2021-08-10T10:51:00.806Z</time>
      </trkpt>
      <trkpt lat="46.93284" lon="8.577">
        <ele>472</ele>
        <time>2021-08-10T10:51:01.805Z</time>
      </trkpt>
      <trkpt lat="46.93283" lon="8.577">
        <ele>473</ele>
        <time>2021-08-10T10:51:02.806Z</time>
      </trkpt>
      <trkpt lat="46.93282" lon="8.577">
        <ele>474</ele>
        <time>2021-08-10T10:51:03.806Z</time>
      </trkpt>
      <trkpt lat="46.93281" lon="8.57701">
        <ele>474</ele>
        <time>2021-08-10T10:51:04.805Z</time>
      </trkpt>
      <trkpt lat="46.9328" lon="8.57702">
        <ele>475</ele>
        <time>2021-08-10T10:51:05.805Z</time>
      </trkpt>
      <trkpt lat="46.93279" lon="8.57702">
        <ele>475</ele>
        <time>2021-08-10T10:51:06.805Z</time>
      </trkpt>
      <trkpt lat="46.93278" lon="8.57703">
        <ele>476</ele>
        <time>2021-08-10T10:51:07.805Z</time>
      </trkpt>
      <trkpt lat="46.93277" lon="8.57704">
        <ele>476</ele>
        <time>2021-08-10T10:51:08.806Z</time>
      </trkpt>
      <trkpt lat="46.93276" lon="8.57705">
        <ele>476</ele>
        <time>2021-08-10T10:51:09.805Z</time>
      </trkpt>
      <trkpt lat="46.93275" lon="8.57706">
        <ele>477</ele>
        <time>2021-08-10T10:51:10.805Z</time>
      </trkpt>
      <trkpt lat="46.93275" lon="8.57707">
        <ele>477</ele>
        <time>2021-08-10T10:51:11.806Z</time>
      </trkpt>
      <trkpt lat="46.93274" lon="8.57708">
        <ele>477</ele>
        <time>2021-08-10T10:51:12.806Z</time>
      </trkpt>
      <trkpt lat="46.93273" lon="8.57708">
        <ele>478</ele>
        <time>2021-08-10T10:51:13.806Z</time>
      </trkpt>
      <trkpt lat="46.93272" lon="8.57709">
        <ele>478</ele>
        <time>2021-08-10T10:51:14.805Z</time>
      </trkpt>
      <trkpt lat="46.93272" lon="8.57711">
        <ele>478</ele>
        <time>2021-08-10T10:51:15.806Z</time>
      </trkpt>
      <trkpt lat="46.93271" lon="8.57712">
        <ele>479</ele>
        <time>2021-08-10T10:51:16.806Z</time>
      </trkpt>
      <trkpt lat="46.9327" lon="8.57713">
        <ele>479</ele>
        <time>2021-08-10T10:51:17.806Z</time>
      </trkpt>
      <trkpt lat="46.9327" lon="8.57714">
        <ele>479</ele>
        <time>2021-08-10T10:51:18.806Z</time>
      </trkpt>
      <trkpt lat="46.93269" lon="8.57714">
        <ele>479</ele>
        <time>2021-08-10T10:51:19.805Z</time>
      </trkpt>
      <trkpt lat="46.93269" lon="8.57714">
        <ele>480</ele>
        <time>2021-08-10T10:51:20.806Z</time>
      </trkpt>
      <trkpt lat="46.93268" lon="8.57715">
        <ele>480</ele>
        <time>2021-08-10T10:51:21.806Z</time>
      </trkpt>
      <trkpt lat="46.93268" lon="8.57716">
        <ele>481</ele>
        <time>2021-08-10T10:51:22.805Z</time>
      </trkpt>
      <trkpt lat="46.93267" lon="8.57717">
        <ele>481</ele>
        <time>2021-08-10T10:51:23.806Z</time>
      </trkpt>
      <trkpt lat="46.93266" lon="8.57718">
        <ele>481</ele>
        <time>2021-08-10T10:51:24.806Z</time>
      </trkpt>
      <trkpt lat="46.93266" lon="8.57719">
        <ele>481</ele>
        <time>2021-08-10T10:51:25.805Z</time>
      </trkpt>
      <trkpt lat="46.93265" lon="8.57719">
        <ele>480</ele>
        <time>2021-08-10T10:51:26.806Z</time>
      </trkpt>
      <trkpt lat="46.93265" lon="8.5772">
        <ele>480</ele>
        <time>2021-08-10T10:51:27.805Z</time>
      </trkpt>
      <trkpt lat="46.93264" lon="8.57721">
        <ele>480</ele>
        <time>2021-08-10T10:51:28.806Z</time>
      </trkpt>
      <trkpt lat="46.93264" lon="8.57722">
        <ele>479</ele>
        <time>2021-08-10T10:51:29.806Z</time>
      </trkpt>
      <trkpt lat="46.93263" lon="8.57722">
        <ele>479</ele>
        <time>2021-08-10T10:51:30.806Z</time>
      </trkpt>
      <trkpt lat="46.93263" lon="8.57723">
        <ele>479</ele>
        <time>2021-08-10T10:51:31.806Z</time>
      </trkpt>
      <trkpt lat="46.93263" lon="8.57723">
        <ele>479</ele>
        <time>2021-08-10T10:51:32.806Z</time>
      </trkpt>
      <trkpt lat="46.93264" lon="8.57739">
        <ele>485</ele>
        <time>2021-08-10T10:51:33.807Z</time>
      </trkpt>
      <trkpt lat="46.93264" lon="8.57739">
        <ele>485</ele>
        <time>2021-08-10T10:51:34.807Z</time>
      </trkpt>
      <trkpt lat="46.93264" lon="8.57737">
        <ele>485</ele>
        <time>2021-08-10T10:51:35.807Z</time>
      </trkpt>
      <trkpt lat="46.93264" lon="8.57736">
        <ele>485</ele>
        <time>2021-08-10T10:51:36.807Z</time>
      </trkpt>
      <trkpt lat="46.93262" lon="8.57738">
        <ele>486</ele>
        <time>2021-08-10T10:51:37.807Z</time>
      </trkpt>
      <trkpt lat="46.93262" lon="8.57737">
        <ele>486</ele>
        <time>2021-08-10T10:51:38.808Z</time>
      </trkpt>
      <trkpt lat="46.93262" lon="8.57737">
        <ele>486</ele>
        <time>2021-08-10T10:51:39.807Z</time>
      </trkpt>
      <trkpt lat="46.93261" lon="8.57737">
        <ele>486</ele>
        <time>2021-08-10T10:51:40.807Z</time>
      </trkpt>
      <trkpt lat="46.93259" lon="8.57738">
        <ele>485</ele>
        <time>2021-08-10T10:51:41.807Z</time>
      </trkpt>
      <trkpt lat="46.93259" lon="8.57738">
        <ele>485</ele>
        <time>2021-08-10T10:51:42.807Z</time>
      </trkpt>
      <trkpt lat="46.93258" lon="8.57739">
        <ele>485</ele>
        <time>2021-08-10T10:51:43.807Z</time>
      </trkpt>
      <trkpt lat="46.93258" lon="8.57739">
        <ele>486</ele>
        <time>2021-08-10T10:51:44.808Z</time>
      </trkpt>
      <trkpt lat="46.93257" lon="8.57739">
        <ele>485</ele>
        <time>2021-08-10T10:51:45.807Z</time>
      </trkpt>
      <trkpt lat="46.93257" lon="8.57739">
        <ele>485</ele>
        <time>2021-08-10T10:51:46.807Z</time>
      </trkpt>
      <trkpt lat="46.93256" lon="8.57738">
        <ele>485</ele>
        <time>2021-08-10T10:51:47.808Z</time>
      </trkpt>
      <trkpt lat="46.93256" lon="8.57738">
        <ele>485</ele>
        <time>2021-08-10T10:51:48.807Z</time>
      </trkpt>
      <trkpt lat="46.93254" lon="8.57739">
        <ele>485</ele>
        <time>2021-08-10T10:51:49.807Z</time>
      </trkpt>
      <trkpt lat="46.93252" lon="8.57739">
        <ele>485</ele>
        <time>2021-08-10T10:51:50.808Z</time>
      </trkpt>
      <trkpt lat="46.93251" lon="8.5774">
        <ele>484</ele>
        <time>2021-08-10T10:51:51.807Z</time>
      </trkpt>
      <trkpt lat="46.9325" lon="8.57739">
        <ele>484</ele>
        <time>2021-08-10T10:51:52.807Z</time>
      </trkpt>
      <trkpt lat="46.93249" lon="8.57739">
        <ele>484</ele>
        <time>2021-08-10T10:51:53.807Z</time>
      </trkpt>
      <trkpt lat="46.93248" lon="8.57739">
        <ele>484</ele>
        <time>2021-08-10T10:51:54.807Z</time>
      </trkpt>
      <trkpt lat="46.93247" lon="8.57738">
        <ele>484</ele>
        <time>2021-08-10T10:51:55.808Z</time>
      </trkpt>
      <trkpt lat="46.93246" lon="8.57738">
        <ele>484</ele>
        <time>2021-08-10T10:51:56.807Z</time>
      </trkpt>
      <trkpt lat="46.93245" lon="8.57737">
        <ele>484</ele>
        <time>2021-08-10T10:51:57.808Z</time>
      </trkpt>
      <trkpt lat="46.93244" lon="8.57736">
        <ele>484</ele>
        <time>2021-08-10T10:51:58.808Z</time>
      </trkpt>
      <trkpt lat="46.93243" lon="8.57736">
        <ele>484</ele>
        <time>2021-08-10T10:51:59.808Z</time>
      </trkpt>
      <trkpt lat="46.93243" lon="8.57735">
        <ele>484</ele>
        <time>2021-08-10T10:52:00.808Z</time>
      </trkpt>
      <trkpt lat="46.93241" lon="8.57735">
        <ele>483</ele>
        <time>2021-08-10T10:52:01.808Z</time>
      </trkpt>
      <trkpt lat="46.9324" lon="8.57735">
        <ele>483</ele>
        <time>2021-08-10T10:52:02.807Z</time>
      </trkpt>
      <trkpt lat="46.9324" lon="8.57735">
        <ele>483</ele>
        <time>2021-08-10T10:52:03.808Z</time>
      </trkpt>
      <trkpt lat="46.93239" lon="8.57734">
        <ele>484</ele>
        <time>2021-08-10T10:52:04.808Z</time>
      </trkpt>
      <trkpt lat="46.93238" lon="8.57734">
        <ele>484</ele>
        <time>2021-08-10T10:52:05.808Z</time>
      </trkpt>
      <trkpt lat="46.93238" lon="8.57734">
        <ele>484</ele>
        <time>2021-08-10T10:52:06.808Z</time>
      </trkpt>
      <trkpt lat="46.93237" lon="8.57732">
        <ele>484</ele>
        <time>2021-08-10T10:52:07.807Z</time>
      </trkpt>
      <trkpt lat="46.93236" lon="8.57731">
        <ele>484</ele>
        <time>2021-08-10T10:52:08.808Z</time>
      </trkpt>
      <trkpt lat="46.93236" lon="8.57731">
        <ele>484</ele>
        <time>2021-08-10T10:52:09.807Z</time>
      </trkpt>
      <trkpt lat="46.93235" lon="8.5773">
        <ele>484</ele>
        <time>2021-08-10T10:52:10.808Z</time>
      </trkpt>
      <trkpt lat="46.93234" lon="8.5773">
        <ele>484</ele>
        <time>2021-08-10T10:52:11.808Z</time>
      </trkpt>
      <trkpt lat="46.93234" lon="8.5773">
        <ele>485</ele>
        <time>2021-08-10T10:52:12.808Z</time>
      </trkpt>
      <trkpt lat="46.93233" lon="8.5773">
        <ele>485</ele>
        <time>2021-08-10T10:52:13.808Z</time>
      </trkpt>
      <trkpt lat="46.93232" lon="8.5773">
        <ele>485</ele>
        <time>2021-08-10T10:52:14.807Z</time>
      </trkpt>
      <trkpt lat="46.93231" lon="8.5773">
        <ele>486</ele>
        <time>2021-08-10T10:52:15.808Z</time>
      </trkpt>
      <trkpt lat="46.9323" lon="8.57729">
        <ele>486</ele>
        <time>2021-08-10T10:52:16.808Z</time>
      </trkpt>
      <trkpt lat="46.93229" lon="8.57729">
        <ele>486</ele>
        <time>2021-08-10T10:52:17.808Z</time>
      </trkpt>
      <trkpt lat="46.93228" lon="8.57729">
        <ele>486</ele>
        <time>2021-08-10T10:52:18.808Z</time>
      </trkpt>
      <trkpt lat="46.93228" lon="8.57728">
        <ele>486</ele>
        <time>2021-08-10T10:52:19.808Z</time>
      </trkpt>
      <trkpt lat="46.93227" lon="8.57728">
        <ele>485</ele>
        <time>2021-08-10T10:52:20.807Z</time>
      </trkpt>
      <trkpt lat="46.93226" lon="8.57727">
        <ele>485</ele>
        <time>2021-08-10T10:52:21.808Z</time>
      </trkpt>
      <trkpt lat="46.93225" lon="8.57726">
        <ele>485</ele>
        <time>2021-08-10T10:52:22.808Z</time>
      </trkpt>
      <trkpt lat="46.93224" lon="8.57726">
        <ele>484</ele>
        <time>2021-08-10T10:52:23.807Z</time>
      </trkpt>
      <trkpt lat="46.93223" lon="8.57725">
        <ele>484</ele>
        <time>2021-08-10T10:52:24.808Z</time>
      </trkpt>
      <trkpt lat="46.93222" lon="8.57724">
        <ele>483</ele>
        <time>2021-08-10T10:52:25.807Z</time>
      </trkpt>
      <trkpt lat="46.93221" lon="8.57724">
        <ele>483</ele>
        <time>2021-08-10T10:52:26.807Z</time>
      </trkpt>
      <trkpt lat="46.9322" lon="8.57723">
        <ele>483</ele>
        <time>2021-08-10T10:52:27.808Z</time>
      </trkpt>
      <trkpt lat="46.93219" lon="8.57722">
        <ele>483</ele>
        <time>2021-08-10T10:52:28.808Z</time>
      </trkpt>
      <trkpt lat="46.93218" lon="8.57721">
        <ele>483</ele>
        <time>2021-08-10T10:52:29.808Z</time>
      </trkpt>
      <trkpt lat="46.93217" lon="8.5772">
        <ele>483</ele>
        <time>2021-08-10T10:52:30.808Z</time>
      </trkpt>
      <trkpt lat="46.93217" lon="8.57719">
        <ele>483</ele>
        <time>2021-08-10T10:52:31.808Z</time>
      </trkpt>
      <trkpt lat="46.93216" lon="8.57717">
        <ele>483</ele>
        <time>2021-08-10T10:52:32.808Z</time>
      </trkpt>
      <trkpt lat="46.93216" lon="8.57716">
        <ele>483</ele>
        <time>2021-08-10T10:52:33.807Z</time>
      </trkpt>
      <trkpt lat="46.93215" lon="8.57715">
        <ele>483</ele>
        <time>2021-08-10T10:52:34.808Z</time>
      </trkpt>
      <trkpt lat="46.93215" lon="8.57714">
        <ele>483</ele>
        <time>2021-08-10T10:52:35.808Z</time>
      </trkpt>
      <trkpt lat="46.93215" lon="8.57714">
        <ele>483</ele>
        <time>2021-08-10T10:52:36.808Z</time>
      </trkpt>
      <trkpt lat="46.93214" lon="8.57713">
        <ele>483</ele>
        <time>2021-08-10T10:52:37.808Z</time>
      </trkpt>
      <trkpt lat="46.93213" lon="8.57713">
        <ele>482</ele>
        <time>2021-08-10T10:52:38.808Z</time>
      </trkpt>
      <trkpt lat="46.93213" lon="8.57712">
        <ele>482</ele>
        <time>2021-08-10T10:52:39.807Z</time>
      </trkpt>
      <trkpt lat="46.93213" lon="8.57712">
        <ele>481</ele>
        <time>2021-08-10T10:52:40.807Z</time>
      </trkpt>
      <trkpt lat="46.93212" lon="8.57711">
        <ele>481</ele>
        <time>2021-08-10T10:52:41.807Z</time>
      </trkpt>
      <trkpt lat="46.9321" lon="8.5771">
        <ele>480</ele>
        <time>2021-08-10T10:52:42.808Z</time>
      </trkpt>
      <trkpt lat="46.9321" lon="8.57709">
        <ele>480</ele>
        <time>2021-08-10T10:52:43.807Z</time>
      </trkpt>
      <trkpt lat="46.93209" lon="8.57709">
        <ele>479</ele>
        <time>2021-08-10T10:52:44.808Z</time>
      </trkpt>
      <trkpt lat="46.93208" lon="8.57708">
        <ele>479</ele>
        <time>2021-08-10T10:52:45.808Z</time>
      </trkpt>
      <trkpt lat="46.93207" lon="8.57707">
        <ele>479</ele>
        <time>2021-08-10T10:52:46.808Z</time>
      </trkpt>
      <trkpt lat="46.93206" lon="8.57707">
        <ele>479</ele>
        <time>2021-08-10T10:52:47.807Z</time>
      </trkpt>
      <trkpt lat="46.93206" lon="8.57706">
        <ele>479</ele>
        <time>2021-08-10T10:52:48.808Z</time>
      </trkpt>
      <trkpt lat="46.93204" lon="8.57704">
        <ele>479</ele>
        <time>2021-08-10T10:52:49.808Z</time>
      </trkpt>
      <trkpt lat="46.93203" lon="8.57703">
        <ele>480</ele>
        <time>2021-08-10T10:52:50.808Z</time>
      </trkpt>
      <trkpt lat="46.93202" lon="8.57703">
        <ele>480</ele>
        <time>2021-08-10T10:52:51.808Z</time>
      </trkpt>
      <trkpt lat="46.932" lon="8.57703">
        <ele>480</ele>
        <time>2021-08-10T10:52:52.808Z</time>
      </trkpt>
      <trkpt lat="46.93199" lon="8.57702">
        <ele>480</ele>
        <time>2021-08-10T10:52:53.808Z</time>
      </trkpt>
      <trkpt lat="46.93198" lon="8.57702">
        <ele>481</ele>
        <time>2021-08-10T10:52:54.807Z</time>
      </trkpt>
      <trkpt lat="46.93197" lon="8.57701">
        <ele>481</ele>
        <time>2021-08-10T10:52:55.808Z</time>
      </trkpt>
      <trkpt lat="46.93196" lon="8.57701">
        <ele>481</ele>
        <time>2021-08-10T10:52:56.808Z</time>
      </trkpt>
      <trkpt lat="46.93196" lon="8.57701">
        <ele>481</ele>
        <time>2021-08-10T10:52:57.807Z</time>
      </trkpt>
      <trkpt lat="46.93195" lon="8.577">
        <ele>481</ele>
        <time>2021-08-10T10:52:58.808Z</time>
      </trkpt>
      <trkpt lat="46.93194" lon="8.57699">
        <ele>481</ele>
        <time>2021-08-10T10:52:59.808Z</time>
      </trkpt>
      <trkpt lat="46.93194" lon="8.57698">
        <ele>480</ele>
        <time>2021-08-10T10:53:00.808Z</time>
      </trkpt>
      <trkpt lat="46.93193" lon="8.57698">
        <ele>480</ele>
        <time>2021-08-10T10:53:01.808Z</time>
      </trkpt>
      <trkpt lat="46.93192" lon="8.57697">
        <ele>480</ele>
        <time>2021-08-10T10:53:02.808Z</time>
      </trkpt>
      <trkpt lat="46.93191" lon="8.57696">
        <ele>480</ele>
        <time>2021-08-10T10:53:03.807Z</time>
      </trkpt>
      <trkpt lat="46.9319" lon="8.57695">
        <ele>480</ele>
        <time>2021-08-10T10:53:04.808Z</time>
      </trkpt>
      <trkpt lat="46.93189" lon="8.57695">
        <ele>480</ele>
        <time>2021-08-10T10:53:05.808Z</time>
      </trkpt>
      <trkpt lat="46.93189" lon="8.57694">
        <ele>479</ele>
        <time>2021-08-10T10:53:06.808Z</time>
      </trkpt>
      <trkpt lat="46.93188" lon="8.57694">
        <ele>479</ele>
        <time>2021-08-10T10:53:07.808Z</time>
      </trkpt>
      <trkpt lat="46.93187" lon="8.57693">
        <ele>479</ele>
        <time>2021-08-10T10:53:08.807Z</time>
      </trkpt>
      <trkpt lat="46.93186" lon="8.57692">
        <ele>478</ele>
        <time>2021-08-10T10:53:09.807Z</time>
      </trkpt>
      <trkpt lat="46.93185" lon="8.57691">
        <ele>478</ele>
        <time>2021-08-10T10:53:10.807Z</time>
      </trkpt>
      <trkpt lat="46.93184" lon="8.5769">
        <ele>478</ele>
        <time>2021-08-10T10:53:11.808Z</time>
      </trkpt>
      <trkpt lat="46.93183" lon="8.5769">
        <ele>479</ele>
        <time>2021-08-10T10:53:12.807Z</time>
      </trkpt>
      <trkpt lat="46.93182" lon="8.57689">
        <ele>479</ele>
        <time>2021-08-10T10:53:13.807Z</time>
      </trkpt>
      <trkpt lat="46.93181" lon="8.57688">
        <ele>479</ele>
        <time>2021-08-10T10:53:14.808Z</time>
      </trkpt>
      <trkpt lat="46.9318" lon="8.57687">
        <ele>479</ele>
        <time>2021-08-10T10:53:15.807Z</time>
      </trkpt>
      <trkpt lat="46.93179" lon="8.57686">
        <ele>479</ele>
        <time>2021-08-10T10:53:16.807Z</time>
      </trkpt>
      <trkpt lat="46.93179" lon="8.57686">
        <ele>479</ele>
        <time>2021-08-10T10:53:17.808Z</time>
      </trkpt>
      <trkpt lat="46.93178" lon="8.57686">
        <ele>480</ele>
        <time>2021-08-10T10:53:18.808Z</time>
      </trkpt>
      <trkpt lat="46.93177" lon="8.57685">
        <ele>480</ele>
        <time>2021-08-10T10:53:19.807Z</time>
      </trkpt>
      <trkpt lat="46.93176" lon="8.57684">
        <ele>479</ele>
        <time>2021-08-10T10:53:20.808Z</time>
      </trkpt>
      <trkpt lat="46.93176" lon="8.57684">
        <ele>480</ele>
        <time>2021-08-10T10:53:21.807Z</time>
      </trkpt>
      <trkpt lat="46.93175" lon="8.57684">
        <ele>479</ele>
        <time>2021-08-10T10:53:22.808Z</time>
      </trkpt>
      <trkpt lat="46.93175" lon="8.57683">
        <ele>479</ele>
        <time>2021-08-10T10:53:23.808Z</time>
      </trkpt>
      <trkpt lat="46.93174" lon="8.57683">
        <ele>478</ele>
        <time>2021-08-10T10:53:24.808Z</time>
      </trkpt>
      <trkpt lat="46.93174" lon="8.57682">
        <ele>478</ele>
        <time>2021-08-10T10:53:25.807Z</time>
      </trkpt>
      <trkpt lat="46.93173" lon="8.57682">
        <ele>478</ele>
        <time>2021-08-10T10:53:26.808Z</time>
      </trkpt>
      <trkpt lat="46.93173" lon="8.57681">
        <ele>478</ele>
        <time>2021-08-10T10:53:27.808Z</time>
      </trkpt>
      <trkpt lat="46.93172" lon="8.57681">
        <ele>479</ele>
        <time>2021-08-10T10:53:28.808Z</time>
      </trkpt>
      <trkpt lat="46.93171" lon="8.5768">
        <ele>479</ele>
        <time>2021-08-10T10:53:29.808Z</time>
      </trkpt>
      <trkpt lat="46.9317" lon="8.57679">
        <ele>480</ele>
        <time>2021-08-10T10:53:30.807Z</time>
      </trkpt>
      <trkpt lat="46.93169" lon="8.57679">
        <ele>481</ele>
        <time>2021-08-10T10:53:31.807Z</time>
      </trkpt>
      <trkpt lat="46.93169" lon="8.57678">
        <ele>482</ele>
        <time>2021-08-10T10:53:32.807Z</time>
      </trkpt>
      <trkpt lat="46.93168" lon="8.57677">
        <ele>483</ele>
        <time>2021-08-10T10:53:33.808Z</time>
      </trkpt>
      <trkpt lat="46.93168" lon="8.57677">
        <ele>484</ele>
        <time>2021-08-10T10:53:34.808Z</time>
      </trkpt>
      <trkpt lat="46.93167" lon="8.57676">
        <ele>484</ele>
        <time>2021-08-10T10:53:35.807Z</time>
      </trkpt>
      <trkpt lat="46.93167" lon="8.57675">
        <ele>484</ele>
        <time>2021-08-10T10:53:36.808Z</time>
      </trkpt>
      <trkpt lat="46.93166" lon="8.57674">
        <ele>485</ele>
        <time>2021-08-10T10:53:37.808Z</time>
      </trkpt>
      <trkpt lat="46.93166" lon="8.57673">
        <ele>485</ele>
        <time>2021-08-10T10:53:38.808Z</time>
      </trkpt>
      <trkpt lat="46.93165" lon="8.57672">
        <ele>485</ele>
        <time>2021-08-10T10:53:39.807Z</time>
      </trkpt>
      <trkpt lat="46.93164" lon="8.57671">
        <ele>486</ele>
        <time>2021-08-10T10:53:40.807Z</time>
      </trkpt>
      <trkpt lat="46.93164" lon="8.5767">
        <ele>486</ele>
        <time>2021-08-10T10:53:41.807Z</time>
      </trkpt>
      <trkpt lat="46.93163" lon="8.57668">
        <ele>486</ele>
        <time>2021-08-10T10:53:42.808Z</time>
      </trkpt>
      <trkpt lat="46.93161" lon="8.57667">
        <ele>486</ele>
        <time>2021-08-10T10:53:43.807Z</time>
      </trkpt>
      <trkpt lat="46.9316" lon="8.57666">
        <ele>486</ele>
        <time>2021-08-10T10:53:44.807Z</time>
      </trkpt>
      <trkpt lat="46.93159" lon="8.57665">
        <ele>486</ele>
        <time>2021-08-10T10:53:45.808Z</time>
      </trkpt>
      <trkpt lat="46.93158" lon="8.57665">
        <ele>487</ele>
        <time>2021-08-10T10:53:46.808Z</time>
      </trkpt>
      <trkpt lat="46.93158" lon="8.57665">
        <ele>487</ele>
        <time>2021-08-10T10:53:47.808Z</time>
      </trkpt>
      <trkpt lat="46.93157" lon="8.57664">
        <ele>487</ele>
        <time>2021-08-10T10:53:48.808Z</time>
      </trkpt>
      <trkpt lat="46.93156" lon="8.57664">
        <ele>488</ele>
        <time>2021-08-10T10:53:49.808Z</time>
      </trkpt>
      <trkpt lat="46.93155" lon="8.57663">
        <ele>489</ele>
        <time>2021-08-10T10:53:50.808Z</time>
      </trkpt>
      <trkpt lat="46.93154" lon="8.57663">
        <ele>489</ele>
        <time>2021-08-10T10:53:51.807Z</time>
      </trkpt>
      <trkpt lat="46.93154" lon="8.57662">
        <ele>490</ele>
        <time>2021-08-10T10:53:52.807Z</time>
      </trkpt>
      <trkpt lat="46.93153" lon="8.57662">
        <ele>490</ele>
        <time>2021-08-10T10:53:53.808Z</time>
      </trkpt>
      <trkpt lat="46.93152" lon="8.57661">
        <ele>490</ele>
        <time>2021-08-10T10:53:54.808Z</time>
      </trkpt>
      <trkpt lat="46.93152" lon="8.5766">
        <ele>490</ele>
        <time>2021-08-10T10:53:55.808Z</time>
      </trkpt>
      <trkpt lat="46.93151" lon="8.57659">
        <ele>490</ele>
        <time>2021-08-10T10:53:56.808Z</time>
      </trkpt>
      <trkpt lat="46.9315" lon="8.57659">
        <ele>490</ele>
        <time>2021-08-10T10:53:57.808Z</time>
      </trkpt>
      <trkpt lat="46.93149" lon="8.57658">
        <ele>490</ele>
        <time>2021-08-10T10:53:58.808Z</time>
      </trkpt>
      <trkpt lat="46.93148" lon="8.57657">
        <ele>490</ele>
        <time>2021-08-10T10:53:59.808Z</time>
      </trkpt>
      <trkpt lat="46.93147" lon="8.57656">
        <ele>490</ele>
        <time>2021-08-10T10:54:00.807Z</time>
      </trkpt>
      <trkpt lat="46.93146" lon="8.57655">
        <ele>489</ele>
        <time>2021-08-10T10:54:01.807Z</time>
      </trkpt>
      <trkpt lat="46.93146" lon="8.57654">
        <ele>489</ele>
        <time>2021-08-10T10:54:02.808Z</time>
      </trkpt>
      <trkpt lat="46.93145" lon="8.57652">
        <ele>488</ele>
        <time>2021-08-10T10:54:03.808Z</time>
      </trkpt>
      <trkpt lat="46.93144" lon="8.57651">
        <ele>488</ele>
        <time>2021-08-10T10:54:04.808Z</time>
      </trkpt>
      <trkpt lat="46.93143" lon="8.57649">
        <ele>487</ele>
        <time>2021-08-10T10:54:05.807Z</time>
      </trkpt>
      <trkpt lat="46.93143" lon="8.57648">
        <ele>487</ele>
        <time>2021-08-10T10:54:06.807Z</time>
      </trkpt>
      <trkpt lat="46.93142" lon="8.57647">
        <ele>487</ele>
        <time>2021-08-10T10:54:07.807Z</time>
      </trkpt>
      <trkpt lat="46.93141" lon="8.57645">
        <ele>487</ele>
        <time>2021-08-10T10:54:08.808Z</time>
      </trkpt>
      <trkpt lat="46.9314" lon="8.57644">
        <ele>487</ele>
        <time>2021-08-10T10:54:09.807Z</time>
      </trkpt>
      <trkpt lat="46.93139" lon="8.57643">
        <ele>488</ele>
        <time>2021-08-10T10:54:10.807Z</time>
      </trkpt>
      <trkpt lat="46.93138" lon="8.57642">
        <ele>488</ele>
        <time>2021-08-10T10:54:11.807Z</time>
      </trkpt>
      <trkpt lat="46.93137" lon="8.57642">
        <ele>488</ele>
        <time>2021-08-10T10:54:12.808Z</time>
      </trkpt>
      <trkpt lat="46.93136" lon="8.57642">
        <ele>489</ele>
        <time>2021-08-10T10:54:13.807Z</time>
      </trkpt>
      <trkpt lat="46.93135" lon="8.57641">
        <ele>489</ele>
        <time>2021-08-10T10:54:14.807Z</time>
      </trkpt>
      <trkpt lat="46.93134" lon="8.57641">
        <ele>489</ele>
        <time>2021-08-10T10:54:15.808Z</time>
      </trkpt>
      <trkpt lat="46.93133" lon="8.57641">
        <ele>489</ele>
        <time>2021-08-10T10:54:16.808Z</time>
      </trkpt>
      <trkpt lat="46.93132" lon="8.57641">
        <ele>490</ele>
        <time>2021-08-10T10:54:17.808Z</time>
      </trkpt>
      <trkpt lat="46.93131" lon="8.5764">
        <ele>490</ele>
        <time>2021-08-10T10:54:18.807Z</time>
      </trkpt>
      <trkpt lat="46.9313" lon="8.5764">
        <ele>491</ele>
        <time>2021-08-10T10:54:19.807Z</time>
      </trkpt>
      <trkpt lat="46.93129" lon="8.57639">
        <ele>491</ele>
        <time>2021-08-10T10:54:20.807Z</time>
      </trkpt>
      <trkpt lat="46.93127" lon="8.57639">
        <ele>491</ele>
        <time>2021-08-10T10:54:21.807Z</time>
      </trkpt>
      <trkpt lat="46.93126" lon="8.57638">
        <ele>491</ele>
        <time>2021-08-10T10:54:22.808Z</time>
      </trkpt>
      <trkpt lat="46.93125" lon="8.57637">
        <ele>491</ele>
        <time>2021-08-10T10:54:23.808Z</time>
      </trkpt>
      <trkpt lat="46.93124" lon="8.57636">
        <ele>491</ele>
        <time>2021-08-10T10:54:24.808Z</time>
      </trkpt>
      <trkpt lat="46.93123" lon="8.57635">
        <ele>491</ele>
        <time>2021-08-10T10:54:25.808Z</time>
      </trkpt>
      <trkpt lat="46.93122" lon="8.57634">
        <ele>491</ele>
        <time>2021-08-10T10:54:26.808Z</time>
      </trkpt>
      <trkpt lat="46.93122" lon="8.57633">
        <ele>490</ele>
        <time>2021-08-10T10:54:27.807Z</time>
      </trkpt>
      <trkpt lat="46.93121" lon="8.57632">
        <ele>489</ele>
        <time>2021-08-10T10:54:28.807Z</time>
      </trkpt>
      <trkpt lat="46.9312" lon="8.5763">
        <ele>489</ele>
        <time>2021-08-10T10:54:29.808Z</time>
      </trkpt>
      <trkpt lat="46.93119" lon="8.57629">
        <ele>489</ele>
        <time>2021-08-10T10:54:30.808Z</time>
      </trkpt>
      <trkpt lat="46.93118" lon="8.57628">
        <ele>489</ele>
        <time>2021-08-10T10:54:31.808Z</time>
      </trkpt>
      <trkpt lat="46.93118" lon="8.57627">
        <ele>489</ele>
        <time>2021-08-10T10:54:32.808Z</time>
      </trkpt>
      <trkpt lat="46.93118" lon="8.57625">
        <ele>489</ele>
        <time>2021-08-10T10:54:33.807Z</time>
      </trkpt>
      <trkpt lat="46.93117" lon="8.57624">
        <ele>489</ele>
        <time>2021-08-10T10:54:34.808Z</time>
      </trkpt>
      <trkpt lat="46.93117" lon="8.57623">
        <ele>489</ele>
        <time>2021-08-10T10:54:35.808Z</time>
      </trkpt>
      <trkpt lat="46.93117" lon="8.57622">
        <ele>489</ele>
        <time>2021-08-10T10:54:36.808Z</time>
      </trkpt>
      <trkpt lat="46.93116" lon="8.5762">
        <ele>489</ele>
        <time>2021-08-10T10:54:37.808Z</time>
      </trkpt>
      <trkpt lat="46.93115" lon="8.57619">
        <ele>489</ele>
        <time>2021-08-10T10:54:38.808Z</time>
      </trkpt>
      <trkpt lat="46.93114" lon="8.57618">
        <ele>489</ele>
        <time>2021-08-10T10:54:39.808Z</time>
      </trkpt>
      <trkpt lat="46.93114" lon="8.57617">
        <ele>489</ele>
        <time>2021-08-10T10:54:40.808Z</time>
      </trkpt>
      <trkpt lat="46.93113" lon="8.57616">
        <ele>489</ele>
        <time>2021-08-10T10:54:41.807Z</time>
      </trkpt>
      <trkpt lat="46.93112" lon="8.57615">
        <ele>489</ele>
        <time>2021-08-10T10:54:42.808Z</time>
      </trkpt>
      <trkpt lat="46.93112" lon="8.57613">
        <ele>488</ele>
        <time>2021-08-10T10:54:43.808Z</time>
      </trkpt>
      <trkpt lat="46.93111" lon="8.57612">
        <ele>488</ele>
        <time>2021-08-10T10:54:44.807Z</time>
      </trkpt>
      <trkpt lat="46.9311" lon="8.57611">
        <ele>488</ele>
        <time>2021-08-10T10:54:45.807Z</time>
      </trkpt>
      <trkpt lat="46.93109" lon="8.5761">
        <ele>488</ele>
        <time>2021-08-10T10:54:46.807Z</time>
      </trkpt>
      <trkpt lat="46.93108" lon="8.57609">
        <ele>488</ele>
        <time>2021-08-10T10:54:47.807Z</time>
      </trkpt>
      <trkpt lat="46.93107" lon="8.57608">
        <ele>488</ele>
        <time>2021-08-10T10:54:48.808Z</time>
      </trkpt>
      <trkpt lat="46.93106" lon="8.57607">
        <ele>488</ele>
        <time>2021-08-10T10:54:49.807Z</time>
      </trkpt>
      <trkpt lat="46.93104" lon="8.57606">
        <ele>488</ele>
        <time>2021-08-10T10:54:50.807Z</time>
      </trkpt>
      <trkpt lat="46.93104" lon="8.57606">
        <ele>488</ele>
        <time>2021-08-10T10:54:51.807Z</time>
      </trkpt>
      <trkpt lat="46.93103" lon="8.57606">
        <ele>488</ele>
        <time>2021-08-10T10:54:52.807Z</time>
      </trkpt>
      <trkpt lat="46.93103" lon="8.57605">
        <ele>488</ele>
        <time>2021-08-10T10:54:53.807Z</time>
      </trkpt>
      <trkpt lat="46.93102" lon="8.57604">
        <ele>488</ele>
        <time>2021-08-10T10:54:54.807Z</time>
      </trkpt>
      <trkpt lat="46.93101" lon="8.57604">
        <ele>487</ele>
        <time>2021-08-10T10:54:55.807Z</time>
      </trkpt>
      <trkpt lat="46.93101" lon="8.57603">
        <ele>487</ele>
        <time>2021-08-10T10:54:56.807Z</time>
      </trkpt>
      <trkpt lat="46.931" lon="8.57603">
        <ele>488</ele>
        <time>2021-08-10T10:54:57.808Z</time>
      </trkpt>
      <trkpt lat="46.93099" lon="8.57603">
        <ele>489</ele>
        <time>2021-08-10T10:54:58.807Z</time>
      </trkpt>
      <trkpt lat="46.93098" lon="8.57603">
        <ele>489</ele>
        <time>2021-08-10T10:54:59.808Z</time>
      </trkpt>
      <trkpt lat="46.93097" lon="8.57603">
        <ele>489</ele>
        <time>2021-08-10T10:55:00.808Z</time>
      </trkpt>
      <trkpt lat="46.93096" lon="8.57603">
        <ele>489</ele>
        <time>2021-08-10T10:55:01.807Z</time>
      </trkpt>
      <trkpt lat="46.93096" lon="8.57603">
        <ele>490</ele>
        <time>2021-08-10T10:55:02.807Z</time>
      </trkpt>
      <trkpt lat="46.93095" lon="8.57603">
        <ele>490</ele>
        <time>2021-08-10T10:55:03.807Z</time>
      </trkpt>
      <trkpt lat="46.93094" lon="8.57603">
        <ele>490</ele>
        <time>2021-08-10T10:55:04.808Z</time>
      </trkpt>
      <trkpt lat="46.93093" lon="8.57604">
        <ele>490</ele>
        <time>2021-08-10T10:55:05.808Z</time>
      </trkpt>
      <trkpt lat="46.93092" lon="8.57604">
        <ele>490</ele>
        <time>2021-08-10T10:55:06.808Z</time>
      </trkpt>
      <trkpt lat="46.93091" lon="8.57604">
        <ele>490</ele>
        <time>2021-08-10T10:55:07.807Z</time>
      </trkpt>
      <trkpt lat="46.9309" lon="8.57605">
        <ele>490</ele>
        <time>2021-08-10T10:55:08.807Z</time>
      </trkpt>
      <trkpt lat="46.93089" lon="8.57606">
        <ele>491</ele>
        <time>2021-08-10T10:55:09.807Z</time>
      </trkpt>
      <trkpt lat="46.93088" lon="8.57608">
        <ele>491</ele>
        <time>2021-08-10T10:55:10.807Z</time>
      </trkpt>
      <trkpt lat="46.93087" lon="8.57609">
        <ele>492</ele>
        <time>2021-08-10T10:55:11.807Z</time>
      </trkpt>
      <trkpt lat="46.93087" lon="8.57609">
        <ele>493</ele>
        <time>2021-08-10T10:55:12.807Z</time>
      </trkpt>
      <trkpt lat="46.93087" lon="8.5761">
        <ele>493</ele>
        <time>2021-08-10T10:55:13.807Z</time>
      </trkpt>
      <trkpt lat="46.93086" lon="8.5761">
        <ele>494</ele>
        <time>2021-08-10T10:55:14.807Z</time>
      </trkpt>
      <trkpt lat="46.93085" lon="8.5761">
        <ele>494</ele>
        <time>2021-08-10T10:55:15.807Z</time>
      </trkpt>
      <trkpt lat="46.93085" lon="8.5761">
        <ele>494</ele>
        <time>2021-08-10T10:55:16.807Z</time>
      </trkpt>
      <trkpt lat="46.93084" lon="8.57611">
        <ele>494</ele>
        <time>2021-08-10T10:55:17.808Z</time>
      </trkpt>
      <trkpt lat="46.93083" lon="8.57611">
        <ele>494</ele>
        <time>2021-08-10T10:55:18.808Z</time>
      </trkpt>
      <trkpt lat="46.93082" lon="8.57612">
        <ele>494</ele>
        <time>2021-08-10T10:55:19.807Z</time>
      </trkpt>
      <trkpt lat="46.93082" lon="8.57613">
        <ele>494</ele>
        <time>2021-08-10T10:55:20.807Z</time>
      </trkpt>
      <trkpt lat="46.93081" lon="8.57614">
        <ele>495</ele>
        <time>2021-08-10T10:55:21.807Z</time>
      </trkpt>
      <trkpt lat="46.9308" lon="8.57614">
        <ele>495</ele>
        <time>2021-08-10T10:55:22.808Z</time>
      </trkpt>
      <trkpt lat="46.93079" lon="8.57615">
        <ele>496</ele>
        <time>2021-08-10T10:55:23.808Z</time>
      </trkpt>
      <trkpt lat="46.93078" lon="8.57616">
        <ele>496</ele>
        <time>2021-08-10T10:55:24.808Z</time>
      </trkpt>
      <trkpt lat="46.93077" lon="8.57616">
        <ele>497</ele>
        <time>2021-08-10T10:55:25.807Z</time>
      </trkpt>
      <trkpt lat="46.93076" lon="8.57617">
        <ele>497</ele>
        <time>2021-08-10T10:55:26.808Z</time>
      </trkpt>
      <trkpt lat="46.93075" lon="8.57617">
        <ele>497</ele>
        <time>2021-08-10T10:55:27.808Z</time>
      </trkpt>
      <trkpt lat="46.93074" lon="8.57618">
        <ele>497</ele>
        <time>2021-08-10T10:55:28.807Z</time>
      </trkpt>
      <trkpt lat="46.93074" lon="8.57617">
        <ele>497</ele>
        <time>2021-08-10T10:55:29.808Z</time>
      </trkpt>
      <trkpt lat="46.93073" lon="8.57617">
        <ele>498</ele>
        <time>2021-08-10T10:55:30.808Z</time>
      </trkpt>
      <trkpt lat="46.93073" lon="8.57616">
        <ele>498</ele>
        <time>2021-08-10T10:55:31.808Z</time>
      </trkpt>
      <trkpt lat="46.93073" lon="8.57616">
        <ele>499</ele>
        <time>2021-08-10T10:55:32.808Z</time>
      </trkpt>
      <trkpt lat="46.93073" lon="8.57616">
        <ele>500</ele>
        <time>2021-08-10T10:55:33.808Z</time>
      </trkpt>
      <trkpt lat="46.93072" lon="8.57616">
        <ele>500</ele>
        <time>2021-08-10T10:55:34.807Z</time>
      </trkpt>
      <trkpt lat="46.93072" lon="8.57616">
        <ele>501</ele>
        <time>2021-08-10T10:55:35.807Z</time>
      </trkpt>
      <trkpt lat="46.93071" lon="8.57616">
        <ele>501</ele>
        <time>2021-08-10T10:55:36.808Z</time>
      </trkpt>
      <trkpt lat="46.93071" lon="8.57616">
        <ele>502</ele>
        <time>2021-08-10T10:55:37.808Z</time>
      </trkpt>
      <trkpt lat="46.93071" lon="8.57616">
        <ele>502</ele>
        <time>2021-08-10T10:55:38.807Z</time>
      </trkpt>
      <trkpt lat="46.93071" lon="8.57615">
        <ele>503</ele>
        <time>2021-08-10T10:55:39.807Z</time>
      </trkpt>
      <trkpt lat="46.9307" lon="8.57615">
        <ele>503</ele>
        <time>2021-08-10T10:55:40.808Z</time>
      </trkpt>
      <trkpt lat="46.9307" lon="8.57616">
        <ele>503</ele>
        <time>2021-08-10T10:55:41.807Z</time>
      </trkpt>
      <trkpt lat="46.93069" lon="8.57616">
        <ele>504</ele>
        <time>2021-08-10T10:55:42.808Z</time>
      </trkpt>
      <trkpt lat="46.93068" lon="8.57617">
        <ele>504</ele>
        <time>2021-08-10T10:55:43.808Z</time>
      </trkpt>
      <trkpt lat="46.93067" lon="8.57618">
        <ele>503</ele>
        <time>2021-08-10T10:55:44.808Z</time>
      </trkpt>
      <trkpt lat="46.93066" lon="8.57619">
        <ele>503</ele>
        <time>2021-08-10T10:55:45.807Z</time>
      </trkpt>
      <trkpt lat="46.93065" lon="8.5762">
        <ele>503</ele>
        <time>2021-08-10T10:55:46.807Z</time>
      </trkpt>
      <trkpt lat="46.93064" lon="8.57622">
        <ele>503</ele>
        <time>2021-08-10T10:55:47.807Z</time>
      </trkpt>
      <trkpt lat="46.93063" lon="8.57623">
        <ele>503</ele>
        <time>2021-08-10T10:55:48.808Z</time>
      </trkpt>
      <trkpt lat="46.93062" lon="8.57624">
        <ele>503</ele>
        <time>2021-08-10T10:55:49.807Z</time>
      </trkpt>
      <trkpt lat="46.93062" lon="8.57625">
        <ele>503</ele>
        <time>2021-08-10T10:55:50.807Z</time>
      </trkpt>
      <trkpt lat="46.93061" lon="8.57625">
        <ele>502</ele>
        <time>2021-08-10T10:55:51.807Z</time>
      </trkpt>
      <trkpt lat="46.93059" lon="8.57626">
        <ele>502</ele>
        <time>2021-08-10T10:55:52.808Z</time>
      </trkpt>
      <trkpt lat="46.93058" lon="8.57626">
        <ele>502</ele>
        <time>2021-08-10T10:55:53.808Z</time>
      </trkpt>
      <trkpt lat="46.93057" lon="8.57626">
        <ele>502</ele>
        <time>2021-08-10T10:55:54.807Z</time>
      </trkpt>
      <trkpt lat="46.93056" lon="8.57627">
        <ele>502</ele>
        <time>2021-08-10T10:55:55.808Z</time>
      </trkpt>
      <trkpt lat="46.93056" lon="8.57627">
        <ele>502</ele>
        <time>2021-08-10T10:55:56.807Z</time>
      </trkpt>
      <trkpt lat="46.93055" lon="8.57628">
        <ele>502</ele>
        <time>2021-08-10T10:55:57.808Z</time>
      </trkpt>
      <trkpt lat="46.93054" lon="8.57629">
        <ele>501</ele>
        <time>2021-08-10T10:55:58.808Z</time>
      </trkpt>
      <trkpt lat="46.93053" lon="8.57629">
        <ele>501</ele>
        <time>2021-08-10T10:55:59.807Z</time>
      </trkpt>
      <trkpt lat="46.93052" lon="8.57629">
        <ele>501</ele>
        <time>2021-08-10T10:56:00.807Z</time>
      </trkpt>
      <trkpt lat="46.93051" lon="8.57629">
        <ele>501</ele>
        <time>2021-08-10T10:56:01.807Z</time>
      </trkpt>
      <trkpt lat="46.9305" lon="8.57629">
        <ele>501</ele>
        <time>2021-08-10T10:56:02.808Z</time>
      </trkpt>
      <trkpt lat="46.93049" lon="8.57629">
        <ele>502</ele>
        <time>2021-08-10T10:56:03.808Z</time>
      </trkpt>
      <trkpt lat="46.93049" lon="8.57629">
        <ele>502</ele>
        <time>2021-08-10T10:56:04.807Z</time>
      </trkpt>
      <trkpt lat="46.93048" lon="8.57628">
        <ele>502</ele>
        <time>2021-08-10T10:56:05.807Z</time>
      </trkpt>
      <trkpt lat="46.93047" lon="8.57628">
        <ele>502</ele>
        <time>2021-08-10T10:56:06.807Z</time>
      </trkpt>
      <trkpt lat="46.93047" lon="8.57627">
        <ele>501</ele>
        <time>2021-08-10T10:56:07.808Z</time>
      </trkpt>
      <trkpt lat="46.93046" lon="8.57627">
        <ele>501</ele>
        <time>2021-08-10T10:56:08.808Z</time>
      </trkpt>
      <trkpt lat="46.93046" lon="8.57627">
        <ele>501</ele>
        <time>2021-08-10T10:56:09.807Z</time>
      </trkpt>
      <trkpt lat="46.93045" lon="8.57626">
        <ele>501</ele>
        <time>2021-08-10T10:56:10.807Z</time>
      </trkpt>
      <trkpt lat="46.93045" lon="8.57625">
        <ele>500</ele>
        <time>2021-08-10T10:56:11.807Z</time>
      </trkpt>
      <trkpt lat="46.93045" lon="8.57624">
        <ele>499</ele>
        <time>2021-08-10T10:56:12.808Z</time>
      </trkpt>
      <trkpt lat="46.93044" lon="8.57623">
        <ele>499</ele>
        <time>2021-08-10T10:56:13.807Z</time>
      </trkpt>
      <trkpt lat="46.93044" lon="8.57622">
        <ele>498</ele>
        <time>2021-08-10T10:56:14.807Z</time>
      </trkpt>
      <trkpt lat="46.93044" lon="8.57621">
        <ele>498</ele>
        <time>2021-08-10T10:56:15.807Z</time>
      </trkpt>
      <trkpt lat="46.93043" lon="8.5762">
        <ele>498</ele>
        <time>2021-08-10T10:56:16.807Z</time>
      </trkpt>
      <trkpt lat="46.93043" lon="8.5762">
        <ele>498</ele>
        <time>2021-08-10T10:56:17.808Z</time>
      </trkpt>
      <trkpt lat="46.93042" lon="8.57619">
        <ele>498</ele>
        <time>2021-08-10T10:56:18.807Z</time>
      </trkpt>
      <trkpt lat="46.93042" lon="8.57618">
        <ele>498</ele>
        <time>2021-08-10T10:56:19.807Z</time>
      </trkpt>
      <trkpt lat="46.93041" lon="8.57617">
        <ele>498</ele>
        <time>2021-08-10T10:56:20.807Z</time>
      </trkpt>
      <trkpt lat="46.9304" lon="8.57616">
        <ele>499</ele>
        <time>2021-08-10T10:56:21.807Z</time>
      </trkpt>
      <trkpt lat="46.93039" lon="8.57616">
        <ele>499</ele>
        <time>2021-08-10T10:56:22.808Z</time>
      </trkpt>
      <trkpt lat="46.93039" lon="8.57615">
        <ele>499</ele>
        <time>2021-08-10T10:56:23.807Z</time>
      </trkpt>
      <trkpt lat="46.93038" lon="8.57614">
        <ele>499</ele>
        <time>2021-08-10T10:56:24.807Z</time>
      </trkpt>
      <trkpt lat="46.93037" lon="8.57613">
        <ele>498</ele>
        <time>2021-08-10T10:56:25.807Z</time>
      </trkpt>
      <trkpt lat="46.93036" lon="8.57612">
        <ele>498</ele>
        <time>2021-08-10T10:56:26.807Z</time>
      </trkpt>
      <trkpt lat="46.93036" lon="8.57612">
        <ele>498</ele>
        <time>2021-08-10T10:56:27.807Z</time>
      </trkpt>
      <trkpt lat="46.93035" lon="8.57611">
        <ele>499</ele>
        <time>2021-08-10T10:56:28.808Z</time>
      </trkpt>
      <trkpt lat="46.93034" lon="8.5761">
        <ele>499</ele>
        <time>2021-08-10T10:56:29.807Z</time>
      </trkpt>
      <trkpt lat="46.93033" lon="8.5761">
        <ele>500</ele>
        <time>2021-08-10T10:56:30.807Z</time>
      </trkpt>
      <trkpt lat="46.93032" lon="8.57609">
        <ele>500</ele>
        <time>2021-08-10T10:56:31.808Z</time>
      </trkpt>
      <trkpt lat="46.93031" lon="8.57609">
        <ele>501</ele>
        <time>2021-08-10T10:56:32.807Z</time>
      </trkpt>
      <trkpt lat="46.9303" lon="8.57609">
        <ele>502</ele>
        <time>2021-08-10T10:56:33.807Z</time>
      </trkpt>
      <trkpt lat="46.93029" lon="8.57609">
        <ele>503</ele>
        <time>2021-08-10T10:56:34.807Z</time>
      </trkpt>
      <trkpt lat="46.93028" lon="8.57608">
        <ele>504</ele>
        <time>2021-08-10T10:56:35.808Z</time>
      </trkpt>
      <trkpt lat="46.93027" lon="8.57609">
        <ele>504</ele>
        <time>2021-08-10T10:56:36.807Z</time>
      </trkpt>
      <trkpt lat="46.93027" lon="8.57609">
        <ele>505</ele>
        <time>2021-08-10T10:56:37.808Z</time>
      </trkpt>
      <trkpt lat="46.93026" lon="8.5761">
        <ele>505</ele>
        <time>2021-08-10T10:56:38.808Z</time>
      </trkpt>
      <trkpt lat="46.93026" lon="8.57611">
        <ele>505</ele>
        <time>2021-08-10T10:56:39.808Z</time>
      </trkpt>
      <trkpt lat="46.93025" lon="8.57615">
        <ele>510</ele>
        <time>2021-08-10T10:56:40.807Z</time>
      </trkpt>
      <trkpt lat="46.93025" lon="8.57615">
        <ele>510</ele>
        <time>2021-08-10T10:56:41.808Z</time>
      </trkpt>
      <trkpt lat="46.93025" lon="8.57614">
        <ele>505</ele>
        <time>2021-08-10T10:56:42.810Z</time>
      </trkpt>
      <trkpt lat="46.93023" lon="8.57616">
        <ele>503</ele>
        <time>2021-08-10T10:56:43.809Z</time>
      </trkpt>
      <trkpt lat="46.93023" lon="8.57617">
        <ele>503</ele>
        <time>2021-08-10T10:56:44.809Z</time>
      </trkpt>
      <trkpt lat="46.93023" lon="8.57616">
        <ele>502</ele>
        <time>2021-08-10T10:56:45.809Z</time>
      </trkpt>
      <trkpt lat="46.93023" lon="8.57616">
        <ele>502</ele>
        <time>2021-08-10T10:56:46.810Z</time>
      </trkpt>
      <trkpt lat="46.93023" lon="8.57616">
        <ele>502</ele>
        <time>2021-08-10T10:56:47.810Z</time>
      </trkpt>
      <trkpt lat="46.93023" lon="8.57616">
        <ele>502</ele>
        <time>2021-08-10T10:56:48.810Z</time>
      </trkpt>
      <trkpt lat="46.93024" lon="8.57615">
        <ele>503</ele>
        <time>2021-08-10T10:56:49.811Z</time>
      </trkpt>
      <trkpt lat="46.93024" lon="8.57615">
        <ele>502</ele>
        <time>2021-08-10T10:56:50.811Z</time>
      </trkpt>
      <trkpt lat="46.93024" lon="8.57615">
        <ele>501</ele>
        <time>2021-08-10T10:56:51.810Z</time>
      </trkpt>
      <trkpt lat="46.93024" lon="8.57615">
        <ele>501</ele>
        <time>2021-08-10T10:56:52.810Z</time>
      </trkpt>
      <trkpt lat="46.93023" lon="8.57616">
        <ele>500</ele>
        <time>2021-08-10T10:56:53.812Z</time>
      </trkpt>
      <trkpt lat="46.93023" lon="8.57617">
        <ele>499</ele>
        <time>2021-08-10T10:56:54.811Z</time>
      </trkpt>
      <trkpt lat="46.93022" lon="8.57617">
        <ele>499</ele>
        <time>2021-08-10T10:56:55.812Z</time>
      </trkpt>
      <trkpt lat="46.93022" lon="8.57617">
        <ele>499</ele>
        <time>2021-08-10T10:56:56.811Z</time>
      </trkpt>
      <trkpt lat="46.93022" lon="8.57617">
        <ele>498</ele>
        <time>2021-08-10T10:56:57.811Z</time>
      </trkpt>
      <trkpt lat="46.93022" lon="8.57617">
        <ele>498</ele>
        <time>2021-08-10T10:56:58.811Z</time>
      </trkpt>
      <trkpt lat="46.93022" lon="8.57617">
        <ele>498</ele>
        <time>2021-08-10T10:56:59.812Z</time>
      </trkpt>
      <trkpt lat="46.93021" lon="8.57617">
        <ele>497</ele>
        <time>2021-08-10T10:57:00.811Z</time>
      </trkpt>
      <trkpt lat="46.9302" lon="8.57618">
        <ele>497</ele>
        <time>2021-08-10T10:57:01.812Z</time>
      </trkpt>
      <trkpt lat="46.93019" lon="8.57618">
        <ele>497</ele>
        <time>2021-08-10T10:57:02.812Z</time>
      </trkpt>
      <trkpt lat="46.93019" lon="8.57619">
        <ele>498</ele>
        <time>2021-08-10T10:57:03.812Z</time>
      </trkpt>
      <trkpt lat="46.93018" lon="8.5762">
        <ele>498</ele>
        <time>2021-08-10T10:57:04.812Z</time>
      </trkpt>
      <trkpt lat="46.93018" lon="8.57621">
        <ele>498</ele>
        <time>2021-08-10T10:57:05.812Z</time>
      </trkpt>
      <trkpt lat="46.93018" lon="8.57621">
        <ele>498</ele>
        <time>2021-08-10T10:57:06.812Z</time>
      </trkpt>
      <trkpt lat="46.93018" lon="8.57621">
        <ele>499</ele>
        <time>2021-08-10T10:57:07.812Z</time>
      </trkpt>
      <trkpt lat="46.93017" lon="8.57621">
        <ele>499</ele>
        <time>2021-08-10T10:57:08.812Z</time>
      </trkpt>
      <trkpt lat="46.93017" lon="8.57621">
        <ele>499</ele>
        <time>2021-08-10T10:57:09.811Z</time>
      </trkpt>
      <trkpt lat="46.93016" lon="8.57621">
        <ele>500</ele>
        <time>2021-08-10T10:57:10.812Z</time>
      </trkpt>
      <trkpt lat="46.93015" lon="8.57621">
        <ele>500</ele>
        <time>2021-08-10T10:57:11.811Z</time>
      </trkpt>
      <trkpt lat="46.93014" lon="8.57622">
        <ele>500</ele>
        <time>2021-08-10T10:57:12.811Z</time>
      </trkpt>
      <trkpt lat="46.93014" lon="8.57623">
        <ele>501</ele>
        <time>2021-08-10T10:57:13.812Z</time>
      </trkpt>
      <trkpt lat="46.93013" lon="8.57623">
        <ele>502</ele>
        <time>2021-08-10T10:57:14.812Z</time>
      </trkpt>
      <trkpt lat="46.93012" lon="8.57624">
        <ele>503</ele>
        <time>2021-08-10T10:57:15.812Z</time>
      </trkpt>
      <trkpt lat="46.93011" lon="8.57624">
        <ele>503</ele>
        <time>2021-08-10T10:57:16.812Z</time>
      </trkpt>
      <trkpt lat="46.9301" lon="8.57625">
        <ele>503</ele>
        <time>2021-08-10T10:57:17.812Z</time>
      </trkpt>
      <trkpt lat="46.93009" lon="8.57625">
        <ele>503</ele>
        <time>2021-08-10T10:57:18.812Z</time>
      </trkpt>
      <trkpt lat="46.93008" lon="8.57626">
        <ele>504</ele>
        <time>2021-08-10T10:57:19.812Z</time>
      </trkpt>
      <trkpt lat="46.93007" lon="8.57626">
        <ele>504</ele>
        <time>2021-08-10T10:57:20.812Z</time>
      </trkpt>
      <trkpt lat="46.93006" lon="8.57627">
        <ele>504</ele>
        <time>2021-08-10T10:57:21.812Z</time>
      </trkpt>
      <trkpt lat="46.93006" lon="8.57628">
        <ele>504</ele>
        <time>2021-08-10T10:57:22.812Z</time>
      </trkpt>
      <trkpt lat="46.93005" lon="8.57628">
        <ele>503</ele>
        <time>2021-08-10T10:57:23.812Z</time>
      </trkpt>
      <trkpt lat="46.93004" lon="8.57628">
        <ele>503</ele>
        <time>2021-08-10T10:57:24.812Z</time>
      </trkpt>
      <trkpt lat="46.93003" lon="8.57629">
        <ele>504</ele>
        <time>2021-08-10T10:57:25.812Z</time>
      </trkpt>
      <trkpt lat="46.93002" lon="8.57629">
        <ele>504</ele>
        <time>2021-08-10T10:57:26.812Z</time>
      </trkpt>
      <trkpt lat="46.93001" lon="8.5763">
        <ele>504</ele>
        <time>2021-08-10T10:57:27.812Z</time>
      </trkpt>
      <trkpt lat="46.93001" lon="8.57631">
        <ele>504</ele>
        <time>2021-08-10T10:57:28.812Z</time>
      </trkpt>
      <trkpt lat="46.93" lon="8.57632">
        <ele>504</ele>
        <time>2021-08-10T10:57:29.811Z</time>
      </trkpt>
      <trkpt lat="46.92999" lon="8.57632">
        <ele>505</ele>
        <time>2021-08-10T10:57:30.812Z</time>
      </trkpt>
      <trkpt lat="46.92999" lon="8.57632">
        <ele>505</ele>
        <time>2021-08-10T10:57:31.812Z</time>
      </trkpt>
      <trkpt lat="46.92998" lon="8.57633">
        <ele>505</ele>
        <time>2021-08-10T10:57:32.811Z</time>
      </trkpt>
      <trkpt lat="46.92998" lon="8.57633">
        <ele>505</ele>
        <time>2021-08-10T10:57:33.812Z</time>
      </trkpt>
      <trkpt lat="46.92997" lon="8.57634">
        <ele>505</ele>
        <time>2021-08-10T10:57:34.812Z</time>
      </trkpt>
      <trkpt lat="46.92996" lon="8.57634">
        <ele>505</ele>
        <time>2021-08-10T10:57:35.812Z</time>
      </trkpt>
      <trkpt lat="46.92996" lon="8.57634">
        <ele>505</ele>
        <time>2021-08-10T10:57:36.811Z</time>
      </trkpt>
      <trkpt lat="46.92995" lon="8.57634">
        <ele>505</ele>
        <time>2021-08-10T10:57:37.811Z</time>
      </trkpt>
      <trkpt lat="46.92994" lon="8.57634">
        <ele>504</ele>
        <time>2021-08-10T10:57:38.811Z</time>
      </trkpt>
      <trkpt lat="46.92994" lon="8.57634">
        <ele>504</ele>
        <time>2021-08-10T10:57:39.812Z</time>
      </trkpt>
      <trkpt lat="46.92993" lon="8.57635">
        <ele>504</ele>
        <time>2021-08-10T10:57:40.812Z</time>
      </trkpt>
      <trkpt lat="46.92992" lon="8.57635">
        <ele>505</ele>
        <time>2021-08-10T10:57:41.812Z</time>
      </trkpt>
      <trkpt lat="46.92991" lon="8.57635">
        <ele>505</ele>
        <time>2021-08-10T10:57:42.811Z</time>
      </trkpt>
      <trkpt lat="46.92991" lon="8.57636">
        <ele>505</ele>
        <time>2021-08-10T10:57:43.811Z</time>
      </trkpt>
      <trkpt lat="46.9299" lon="8.57636">
        <ele>505</ele>
        <time>2021-08-10T10:57:44.811Z</time>
      </trkpt>
      <trkpt lat="46.92989" lon="8.57637">
        <ele>505</ele>
        <time>2021-08-10T10:57:45.811Z</time>
      </trkpt>
      <trkpt lat="46.92988" lon="8.57638">
        <ele>505</ele>
        <time>2021-08-10T10:57:46.812Z</time>
      </trkpt>
      <trkpt lat="46.92987" lon="8.57639">
        <ele>505</ele>
        <time>2021-08-10T10:57:47.811Z</time>
      </trkpt>
      <trkpt lat="46.92986" lon="8.5764">
        <ele>505</ele>
        <time>2021-08-10T10:57:48.811Z</time>
      </trkpt>
      <trkpt lat="46.92986" lon="8.57641">
        <ele>505</ele>
        <time>2021-08-10T10:57:49.811Z</time>
      </trkpt>
      <trkpt lat="46.92985" lon="8.57642">
        <ele>505</ele>
        <time>2021-08-10T10:57:50.811Z</time>
      </trkpt>
      <trkpt lat="46.92984" lon="8.57643">
        <ele>504</ele>
        <time>2021-08-10T10:57:51.811Z</time>
      </trkpt>
      <trkpt lat="46.92984" lon="8.57644">
        <ele>504</ele>
        <time>2021-08-10T10:57:52.812Z</time>
      </trkpt>
      <trkpt lat="46.92983" lon="8.57645">
        <ele>504</ele>
        <time>2021-08-10T10:57:53.811Z</time>
      </trkpt>
      <trkpt lat="46.92983" lon="8.57647">
        <ele>504</ele>
        <time>2021-08-10T10:57:54.811Z</time>
      </trkpt>
      <trkpt lat="46.92983" lon="8.57648">
        <ele>503</ele>
        <time>2021-08-10T10:57:55.811Z</time>
      </trkpt>
      <trkpt lat="46.92983" lon="8.57649">
        <ele>503</ele>
        <time>2021-08-10T10:57:56.811Z</time>
      </trkpt>
      <trkpt lat="46.92982" lon="8.5765">
        <ele>503</ele>
        <time>2021-08-10T10:57:57.812Z</time>
      </trkpt>
      <trkpt lat="46.92982" lon="8.57651">
        <ele>502</ele>
        <time>2021-08-10T10:57:58.811Z</time>
      </trkpt>
      <trkpt lat="46.92982" lon="8.57652">
        <ele>502</ele>
        <time>2021-08-10T10:57:59.811Z</time>
      </trkpt>
      <trkpt lat="46.92981" lon="8.57653">
        <ele>502</ele>
        <time>2021-08-10T10:58:00.811Z</time>
      </trkpt>
      <trkpt lat="46.92981" lon="8.57653">
        <ele>502</ele>
        <time>2021-08-10T10:58:01.811Z</time>
      </trkpt>
      <trkpt lat="46.92981" lon="8.57654">
        <ele>502</ele>
        <time>2021-08-10T10:58:02.811Z</time>
      </trkpt>
      <trkpt lat="46.9298" lon="8.57655">
        <ele>502</ele>
        <time>2021-08-10T10:58:03.812Z</time>
      </trkpt>
      <trkpt lat="46.92979" lon="8.57656">
        <ele>503</ele>
        <time>2021-08-10T10:58:04.811Z</time>
      </trkpt>
      <trkpt lat="46.92978" lon="8.57657">
        <ele>503</ele>
        <time>2021-08-10T10:58:05.811Z</time>
      </trkpt>
      <trkpt lat="46.92977" lon="8.57657">
        <ele>503</ele>
        <time>2021-08-10T10:58:06.811Z</time>
      </trkpt>
      <trkpt lat="46.92976" lon="8.57658">
        <ele>503</ele>
        <time>2021-08-10T10:58:07.811Z</time>
      </trkpt>
      <trkpt lat="46.92975" lon="8.57659">
        <ele>503</ele>
        <time>2021-08-10T10:58:08.811Z</time>
      </trkpt>
      <trkpt lat="46.92975" lon="8.5766">
        <ele>504</ele>
        <time>2021-08-10T10:58:09.811Z</time>
      </trkpt>
      <trkpt lat="46.92974" lon="8.5766">
        <ele>504</ele>
        <time>2021-08-10T10:58:10.811Z</time>
      </trkpt>
      <trkpt lat="46.92973" lon="8.57661">
        <ele>504</ele>
        <time>2021-08-10T10:58:11.811Z</time>
      </trkpt>
      <trkpt lat="46.92972" lon="8.57661">
        <ele>504</ele>
        <time>2021-08-10T10:58:12.811Z</time>
      </trkpt>
      <trkpt lat="46.92972" lon="8.57661">
        <ele>505</ele>
        <time>2021-08-10T10:58:13.811Z</time>
      </trkpt>
      <trkpt lat="46.92972" lon="8.57662">
        <ele>505</ele>
        <time>2021-08-10T10:58:14.811Z</time>
      </trkpt>
      <trkpt lat="46.92971" lon="8.57662">
        <ele>506</ele>
        <time>2021-08-10T10:58:15.811Z</time>
      </trkpt>
      <trkpt lat="46.92971" lon="8.57663">
        <ele>506</ele>
        <time>2021-08-10T10:58:16.811Z</time>
      </trkpt>
      <trkpt lat="46.92969" lon="8.57664">
        <ele>506</ele>
        <time>2021-08-10T10:58:17.811Z</time>
      </trkpt>
      <trkpt lat="46.92968" lon="8.57665">
        <ele>507</ele>
        <time>2021-08-10T10:58:18.811Z</time>
      </trkpt>
      <trkpt lat="46.92967" lon="8.57665">
        <ele>507</ele>
        <time>2021-08-10T10:58:19.811Z</time>
      </trkpt>
      <trkpt lat="46.92967" lon="8.57665">
        <ele>507</ele>
        <time>2021-08-10T10:58:20.811Z</time>
      </trkpt>
      <trkpt lat="46.92966" lon="8.57665">
        <ele>507</ele>
        <time>2021-08-10T10:58:21.811Z</time>
      </trkpt>
      <trkpt lat="46.92966" lon="8.57665">
        <ele>507</ele>
        <time>2021-08-10T10:58:22.811Z</time>
      </trkpt>
      <trkpt lat="46.92965" lon="8.57665">
        <ele>507</ele>
        <time>2021-08-10T10:58:23.811Z</time>
      </trkpt>
      <trkpt lat="46.92965" lon="8.57665">
        <ele>507</ele>
        <time>2021-08-10T10:58:24.811Z</time>
      </trkpt>
      <trkpt lat="46.92964" lon="8.57665">
        <ele>506</ele>
        <time>2021-08-10T10:58:25.811Z</time>
      </trkpt>
      <trkpt lat="46.92964" lon="8.57665">
        <ele>506</ele>
        <time>2021-08-10T10:58:26.811Z</time>
      </trkpt>
      <trkpt lat="46.92963" lon="8.57665">
        <ele>505</ele>
        <time>2021-08-10T10:58:27.811Z</time>
      </trkpt>
      <trkpt lat="46.92962" lon="8.57665">
        <ele>505</ele>
        <time>2021-08-10T10:58:28.811Z</time>
      </trkpt>
      <trkpt lat="46.92961" lon="8.57665">
        <ele>505</ele>
        <time>2021-08-10T10:58:29.811Z</time>
      </trkpt>
      <trkpt lat="46.92961" lon="8.57665">
        <ele>506</ele>
        <time>2021-08-10T10:58:30.811Z</time>
      </trkpt>
      <trkpt lat="46.9296" lon="8.57665">
        <ele>506</ele>
        <time>2021-08-10T10:58:31.812Z</time>
      </trkpt>
      <trkpt lat="46.92959" lon="8.57665">
        <ele>507</ele>
        <time>2021-08-10T10:58:32.811Z</time>
      </trkpt>
      <trkpt lat="46.92959" lon="8.57666">
        <ele>507</ele>
        <time>2021-08-10T10:58:33.811Z</time>
      </trkpt>
      <trkpt lat="46.92958" lon="8.57666">
        <ele>508</ele>
        <time>2021-08-10T10:58:34.812Z</time>
      </trkpt>
      <trkpt lat="46.92958" lon="8.57666">
        <ele>509</ele>
        <time>2021-08-10T10:58:35.812Z</time>
      </trkpt>
      <trkpt lat="46.92958" lon="8.57668">
        <ele>510</ele>
        <time>2021-08-10T10:58:36.812Z</time>
      </trkpt>
      <trkpt lat="46.92957" lon="8.57669">
        <ele>511</ele>
        <time>2021-08-10T10:58:37.812Z</time>
      </trkpt>
      <trkpt lat="46.92957" lon="8.57671">
        <ele>511</ele>
        <time>2021-08-10T10:58:38.812Z</time>
      </trkpt>
      <trkpt lat="46.92957" lon="8.57672">
        <ele>512</ele>
        <time>2021-08-10T10:58:39.811Z</time>
      </trkpt>
      <trkpt lat="46.92956" lon="8.57673">
        <ele>512</ele>
        <time>2021-08-10T10:58:40.812Z</time>
      </trkpt>
      <trkpt lat="46.92955" lon="8.57674">
        <ele>512</ele>
        <time>2021-08-10T10:58:41.812Z</time>
      </trkpt>
      <trkpt lat="46.92955" lon="8.57674">
        <ele>513</ele>
        <time>2021-08-10T10:58:42.811Z</time>
      </trkpt>
      <trkpt lat="46.92954" lon="8.57674">
        <ele>513</ele>
        <time>2021-08-10T10:58:43.812Z</time>
      </trkpt>
      <trkpt lat="46.92953" lon="8.57674">
        <ele>513</ele>
        <time>2021-08-10T10:58:44.811Z</time>
      </trkpt>
      <trkpt lat="46.92953" lon="8.57673">
        <ele>513</ele>
        <time>2021-08-10T10:58:45.812Z</time>
      </trkpt>
      <trkpt lat="46.92952" lon="8.57673">
        <ele>513</ele>
        <time>2021-08-10T10:58:46.812Z</time>
      </trkpt>
      <trkpt lat="46.92951" lon="8.57673">
        <ele>514</ele>
        <time>2021-08-10T10:58:47.812Z</time>
      </trkpt>
      <trkpt lat="46.92951" lon="8.57673">
        <ele>514</ele>
        <time>2021-08-10T10:58:48.811Z</time>
      </trkpt>
      <trkpt lat="46.9295" lon="8.57672">
        <ele>514</ele>
        <time>2021-08-10T10:58:49.812Z</time>
      </trkpt>
      <trkpt lat="46.92949" lon="8.57671">
        <ele>514</ele>
        <time>2021-08-10T10:58:50.811Z</time>
      </trkpt>
      <trkpt lat="46.92948" lon="8.57671">
        <ele>514</ele>
        <time>2021-08-10T10:58:51.812Z</time>
      </trkpt>
      <trkpt lat="46.92947" lon="8.5767">
        <ele>514</ele>
        <time>2021-08-10T10:58:52.811Z</time>
      </trkpt>
      <trkpt lat="46.92947" lon="8.5767">
        <ele>514</ele>
        <time>2021-08-10T10:58:53.812Z</time>
      </trkpt>
      <trkpt lat="46.92945" lon="8.57669">
        <ele>514</ele>
        <time>2021-08-10T10:58:54.812Z</time>
      </trkpt>
      <trkpt lat="46.92945" lon="8.57669">
        <ele>513</ele>
        <time>2021-08-10T10:58:55.811Z</time>
      </trkpt>
      <trkpt lat="46.92943" lon="8.57669">
        <ele>513</ele>
        <time>2021-08-10T10:58:56.811Z</time>
      </trkpt>
      <trkpt lat="46.92942" lon="8.57668">
        <ele>512</ele>
        <time>2021-08-10T10:58:57.812Z</time>
      </trkpt>
      <trkpt lat="46.92941" lon="8.57668">
        <ele>512</ele>
        <time>2021-08-10T10:58:58.812Z</time>
      </trkpt>
      <trkpt lat="46.92939" lon="8.57667">
        <ele>511</ele>
        <time>2021-08-10T10:58:59.811Z</time>
      </trkpt>
      <trkpt lat="46.92937" lon="8.57665">
        <ele>511</ele>
        <time>2021-08-10T10:59:00.812Z</time>
      </trkpt>
      <trkpt lat="46.92937" lon="8.57664">
        <ele>511</ele>
        <time>2021-08-10T10:59:01.811Z</time>
      </trkpt>
      <trkpt lat="46.92937" lon="8.57663">
        <ele>511</ele>
        <time>2021-08-10T10:59:02.812Z</time>
      </trkpt>
      <trkpt lat="46.92937" lon="8.57663">
        <ele>511</ele>
        <time>2021-08-10T10:59:03.812Z</time>
      </trkpt>
      <trkpt lat="46.92936" lon="8.57663">
        <ele>511</ele>
        <time>2021-08-10T10:59:04.812Z</time>
      </trkpt>
      <trkpt lat="46.92936" lon="8.57662">
        <ele>511</ele>
        <time>2021-08-10T10:59:05.811Z</time>
      </trkpt>
      <trkpt lat="46.92935" lon="8.57662">
        <ele>511</ele>
        <time>2021-08-10T10:59:06.812Z</time>
      </trkpt>
      <trkpt lat="46.92934" lon="8.57661">
        <ele>511</ele>
        <time>2021-08-10T10:59:07.812Z</time>
      </trkpt>
      <trkpt lat="46.92934" lon="8.5766">
        <ele>510</ele>
        <time>2021-08-10T10:59:08.812Z</time>
      </trkpt>
      <trkpt lat="46.92933" lon="8.57658">
        <ele>510</ele>
        <time>2021-08-10T10:59:09.811Z</time>
      </trkpt>
      <trkpt lat="46.92933" lon="8.57657">
        <ele>510</ele>
        <time>2021-08-10T10:59:10.812Z</time>
      </trkpt>
      <trkpt lat="46.92932" lon="8.57656">
        <ele>510</ele>
        <time>2021-08-10T10:59:11.812Z</time>
      </trkpt>
      <trkpt lat="46.92932" lon="8.57656">
        <ele>509</ele>
        <time>2021-08-10T10:59:12.811Z</time>
      </trkpt>
      <trkpt lat="46.92931" lon="8.57655">
        <ele>509</ele>
        <time>2021-08-10T10:59:13.811Z</time>
      </trkpt>
      <trkpt lat="46.9293" lon="8.57655">
        <ele>509</ele>
        <time>2021-08-10T10:59:14.812Z</time>
      </trkpt>
      <trkpt lat="46.92929" lon="8.57655">
        <ele>508</ele>
        <time>2021-08-10T10:59:15.811Z</time>
      </trkpt>
      <trkpt lat="46.92928" lon="8.57656">
        <ele>508</ele>
        <time>2021-08-10T10:59:16.811Z</time>
      </trkpt>
      <trkpt lat="46.92928" lon="8.57658">
        <ele>507</ele>
        <time>2021-08-10T10:59:17.811Z</time>
      </trkpt>
      <trkpt lat="46.92928" lon="8.57659">
        <ele>507</ele>
        <time>2021-08-10T10:59:18.811Z</time>
      </trkpt>
      <trkpt lat="46.92928" lon="8.5766">
        <ele>506</ele>
        <time>2021-08-10T10:59:19.811Z</time>
      </trkpt>
      <trkpt lat="46.92928" lon="8.57662">
        <ele>506</ele>
        <time>2021-08-10T10:59:20.811Z</time>
      </trkpt>
      <trkpt lat="46.92927" lon="8.57663">
        <ele>506</ele>
        <time>2021-08-10T10:59:21.812Z</time>
      </trkpt>
      <trkpt lat="46.92927" lon="8.57665">
        <ele>506</ele>
        <time>2021-08-10T10:59:22.812Z</time>
      </trkpt>
      <trkpt lat="46.92927" lon="8.57666">
        <ele>505</ele>
        <time>2021-08-10T10:59:23.812Z</time>
      </trkpt>
      <trkpt lat="46.92927" lon="8.57668">
        <ele>505</ele>
        <time>2021-08-10T10:59:24.812Z</time>
      </trkpt>
      <trkpt lat="46.92928" lon="8.57669">
        <ele>504</ele>
        <time>2021-08-10T10:59:25.812Z</time>
      </trkpt>
      <trkpt lat="46.92928" lon="8.57668">
        <ele>504</ele>
        <time>2021-08-10T10:59:26.812Z</time>
      </trkpt>
      <trkpt lat="46.92928" lon="8.57669">
        <ele>503</ele>
        <time>2021-08-10T10:59:27.811Z</time>
      </trkpt>
      <trkpt lat="46.92927" lon="8.57671">
        <ele>502</ele>
        <time>2021-08-10T10:59:28.812Z</time>
      </trkpt>
      <trkpt lat="46.92927" lon="8.57672">
        <ele>501</ele>
        <time>2021-08-10T10:59:29.811Z</time>
      </trkpt>
      <trkpt lat="46.92928" lon="8.57673">
        <ele>501</ele>
        <time>2021-08-10T10:59:30.812Z</time>
      </trkpt>
      <trkpt lat="46.92928" lon="8.57673">
        <ele>501</ele>
        <time>2021-08-10T10:59:31.812Z</time>
      </trkpt>
      <trkpt lat="46.92928" lon="8.57674">
        <ele>500</ele>
        <time>2021-08-10T10:59:32.811Z</time>
      </trkpt>
      <trkpt lat="46.92928" lon="8.57675">
        <ele>500</ele>
        <time>2021-08-10T10:59:33.811Z</time>
      </trkpt>
      <trkpt lat="46.92928" lon="8.57676">
        <ele>500</ele>
        <time>2021-08-10T10:59:34.812Z</time>
      </trkpt>
      <trkpt lat="46.92928" lon="8.57677">
        <ele>500</ele>
        <time>2021-08-10T10:59:35.811Z</time>
      </trkpt>
      <trkpt lat="46.92928" lon="8.57678">
        <ele>499</ele>
        <time>2021-08-10T10:59:36.811Z</time>
      </trkpt>
      <trkpt lat="46.92928" lon="8.57679">
        <ele>499</ele>
        <time>2021-08-10T10:59:37.812Z</time>
      </trkpt>
      <trkpt lat="46.92929" lon="8.5768">
        <ele>498</ele>
        <time>2021-08-10T10:59:38.812Z</time>
      </trkpt>
      <trkpt lat="46.92929" lon="8.57681">
        <ele>498</ele>
        <time>2021-08-10T10:59:39.812Z</time>
      </trkpt>
      <trkpt lat="46.92929" lon="8.57682">
        <ele>498</ele>
        <time>2021-08-10T10:59:40.812Z</time>
      </trkpt>
      <trkpt lat="46.92929" lon="8.57683">
        <ele>497</ele>
        <time>2021-08-10T10:59:41.812Z</time>
      </trkpt>
      <trkpt lat="46.92929" lon="8.57683">
        <ele>497</ele>
        <time>2021-08-10T10:59:42.812Z</time>
      </trkpt>
      <trkpt lat="46.92929" lon="8.57684">
        <ele>497</ele>
        <time>2021-08-10T10:59:43.811Z</time>
      </trkpt>
      <trkpt lat="46.9293" lon="8.57685">
        <ele>496</ele>
        <time>2021-08-10T10:59:44.812Z</time>
      </trkpt>
      <trkpt lat="46.9293" lon="8.57685">
        <ele>496</ele>
        <time>2021-08-10T10:59:45.812Z</time>
      </trkpt>
      <trkpt lat="46.9293" lon="8.57686">
        <ele>495</ele>
        <time>2021-08-10T10:59:46.812Z</time>
      </trkpt>
      <trkpt lat="46.9293" lon="8.57687">
        <ele>495</ele>
        <time>2021-08-10T10:59:47.812Z</time>
      </trkpt>
      <trkpt lat="46.9293" lon="8.57688">
        <ele>495</ele>
        <time>2021-08-10T10:59:48.811Z</time>
      </trkpt>
      <trkpt lat="46.92929" lon="8.57689">
        <ele>494</ele>
        <time>2021-08-10T10:59:49.812Z</time>
      </trkpt>
      <trkpt lat="46.92929" lon="8.57691">
        <ele>494</ele>
        <time>2021-08-10T10:59:50.812Z</time>
      </trkpt>
      <trkpt lat="46.92929" lon="8.57692">
        <ele>493</ele>
        <time>2021-08-10T10:59:51.811Z</time>
      </trkpt>
      <trkpt lat="46.92928" lon="8.57694">
        <ele>493</ele>
        <time>2021-08-10T10:59:52.812Z</time>
      </trkpt>
      <trkpt lat="46.92929" lon="8.57695">
        <ele>492</ele>
        <time>2021-08-10T10:59:53.812Z</time>
      </trkpt>
      <trkpt lat="46.92929" lon="8.57696">
        <ele>492</ele>
        <time>2021-08-10T10:59:54.812Z</time>
      </trkpt>
      <trkpt lat="46.92929" lon="8.57697">
        <ele>491</ele>
        <time>2021-08-10T10:59:55.811Z</time>
      </trkpt>
      <trkpt lat="46.9293" lon="8.57698">
        <ele>491</ele>
        <time>2021-08-10T10:59:56.812Z</time>
      </trkpt>
      <trkpt lat="46.9293" lon="8.57699">
        <ele>490</ele>
        <time>2021-08-10T10:59:57.812Z</time>
      </trkpt>
      <trkpt lat="46.9293" lon="8.577">
        <ele>490</ele>
        <time>2021-08-10T10:59:58.812Z</time>
      </trkpt>
      <trkpt lat="46.9293" lon="8.57701">
        <ele>489</ele>
        <time>2021-08-10T10:59:59.812Z</time>
      </trkpt>
      <trkpt lat="46.92932" lon="8.577">
        <ele>489</ele>
        <time>2021-08-10T11:00:00.812Z</time>
      </trkpt>
      <trkpt lat="46.92933" lon="8.57701">
        <ele>488</ele>
        <time>2021-08-10T11:00:01.812Z</time>
      </trkpt>
      <trkpt lat="46.92933" lon="8.57702">
        <ele>488</ele>
        <time>2021-08-10T11:00:02.811Z</time>
      </trkpt>
      <trkpt lat="46.92933" lon="8.57704">
        <ele>488</ele>
        <time>2021-08-10T11:00:03.812Z</time>
      </trkpt>
      <trkpt lat="46.92932" lon="8.57704">
        <ele>488</ele>
        <time>2021-08-10T11:00:04.812Z</time>
      </trkpt>
      <trkpt lat="46.92931" lon="8.57704">
        <ele>488</ele>
        <time>2021-08-10T11:00:05.811Z</time>
      </trkpt>
      <trkpt lat="46.9293" lon="8.57704">
        <ele>488</ele>
        <time>2021-08-10T11:00:06.811Z</time>
      </trkpt>
      <trkpt lat="46.92929" lon="8.57704">
        <ele>489</ele>
        <time>2021-08-10T11:00:07.811Z</time>
      </trkpt>
      <trkpt lat="46.92928" lon="8.57705">
        <ele>489</ele>
        <time>2021-08-10T11:00:08.811Z</time>
      </trkpt>
      <trkpt lat="46.92927" lon="8.57707">
        <ele>489</ele>
        <time>2021-08-10T11:00:09.812Z</time>
      </trkpt>
      <trkpt lat="46.92926" lon="8.57708">
        <ele>489</ele>
        <time>2021-08-10T11:00:10.812Z</time>
      </trkpt>
      <trkpt lat="46.92926" lon="8.57709">
        <ele>489</ele>
        <time>2021-08-10T11:00:11.812Z</time>
      </trkpt>
      <trkpt lat="46.92925" lon="8.5771">
        <ele>489</ele>
        <time>2021-08-10T11:00:12.811Z</time>
      </trkpt>
      <trkpt lat="46.92925" lon="8.57712">
        <ele>488</ele>
        <time>2021-08-10T11:00:13.812Z</time>
      </trkpt>
      <trkpt lat="46.92925" lon="8.57713">
        <ele>488</ele>
        <time>2021-08-10T11:00:14.811Z</time>
      </trkpt>
      <trkpt lat="46.92925" lon="8.57714">
        <ele>488</ele>
        <time>2021-08-10T11:00:15.811Z</time>
      </trkpt>
      <trkpt lat="46.92924" lon="8.57715">
        <ele>488</ele>
        <time>2021-08-10T11:00:16.811Z</time>
      </trkpt>
      <trkpt lat="46.92924" lon="8.57716">
        <ele>488</ele>
        <time>2021-08-10T11:00:17.811Z</time>
      </trkpt>
      <trkpt lat="46.92924" lon="8.57718">
        <ele>488</ele>
        <time>2021-08-10T11:00:18.812Z</time>
      </trkpt>
      <trkpt lat="46.92924" lon="8.57719">
        <ele>488</ele>
        <time>2021-08-10T11:00:19.812Z</time>
      </trkpt>
      <trkpt lat="46.92923" lon="8.57721">
        <ele>488</ele>
        <time>2021-08-10T11:00:20.812Z</time>
      </trkpt>
      <trkpt lat="46.92923" lon="8.57723">
        <ele>488</ele>
        <time>2021-08-10T11:00:21.811Z</time>
      </trkpt>
      <trkpt lat="46.92923" lon="8.57725">
        <ele>488</ele>
        <time>2021-08-10T11:00:22.811Z</time>
      </trkpt>
      <trkpt lat="46.92922" lon="8.57726">
        <ele>488</ele>
        <time>2021-08-10T11:00:23.812Z</time>
      </trkpt>
      <trkpt lat="46.92922" lon="8.57726">
        <ele>488</ele>
        <time>2021-08-10T11:00:24.812Z</time>
      </trkpt>
      <trkpt lat="46.92922" lon="8.57726">
        <ele>489</ele>
        <time>2021-08-10T11:00:25.811Z</time>
      </trkpt>
      <trkpt lat="46.92921" lon="8.57726">
        <ele>489</ele>
        <time>2021-08-10T11:00:26.812Z</time>
      </trkpt>
      <trkpt lat="46.92921" lon="8.57725">
        <ele>489</ele>
        <time>2021-08-10T11:00:27.812Z</time>
      </trkpt>
      <trkpt lat="46.9292" lon="8.57724">
        <ele>489</ele>
        <time>2021-08-10T11:00:28.811Z</time>
      </trkpt>
      <trkpt lat="46.9292" lon="8.57723">
        <ele>489</ele>
        <time>2021-08-10T11:00:29.812Z</time>
      </trkpt>
      <trkpt lat="46.9292" lon="8.57721">
        <ele>489</ele>
        <time>2021-08-10T11:00:30.812Z</time>
      </trkpt>
      <trkpt lat="46.9292" lon="8.57721">
        <ele>489</ele>
        <time>2021-08-10T11:00:31.812Z</time>
      </trkpt>
      <trkpt lat="46.9292" lon="8.5772">
        <ele>489</ele>
        <time>2021-08-10T11:00:32.812Z</time>
      </trkpt>
      <trkpt lat="46.9292" lon="8.57719">
        <ele>489</ele>
        <time>2021-08-10T11:00:33.811Z</time>
      </trkpt>
      <trkpt lat="46.9292" lon="8.57717">
        <ele>489</ele>
        <time>2021-08-10T11:00:34.811Z</time>
      </trkpt>
      <trkpt lat="46.92919" lon="8.57716">
        <ele>489</ele>
        <time>2021-08-10T11:00:35.812Z</time>
      </trkpt>
      <trkpt lat="46.9292" lon="8.57715">
        <ele>489</ele>
        <time>2021-08-10T11:00:36.812Z</time>
      </trkpt>
      <trkpt lat="46.92919" lon="8.57714">
        <ele>489</ele>
        <time>2021-08-10T11:00:37.812Z</time>
      </trkpt>
      <trkpt lat="46.92919" lon="8.57713">
        <ele>489</ele>
        <time>2021-08-10T11:00:38.812Z</time>
      </trkpt>
      <trkpt lat="46.92919" lon="8.57712">
        <ele>488</ele>
        <time>2021-08-10T11:00:39.812Z</time>
      </trkpt>
      <trkpt lat="46.92919" lon="8.57711">
        <ele>488</ele>
        <time>2021-08-10T11:00:40.811Z</time>
      </trkpt>
      <trkpt lat="46.92919" lon="8.57711">
        <ele>488</ele>
        <time>2021-08-10T11:00:41.812Z</time>
      </trkpt>
      <trkpt lat="46.92919" lon="8.57709">
        <ele>487</ele>
        <time>2021-08-10T11:00:42.811Z</time>
      </trkpt>
      <trkpt lat="46.92918" lon="8.57709">
        <ele>487</ele>
        <time>2021-08-10T11:00:43.811Z</time>
      </trkpt>
      <trkpt lat="46.92919" lon="8.57709">
        <ele>487</ele>
        <time>2021-08-10T11:00:44.811Z</time>
      </trkpt>
      <trkpt lat="46.92919" lon="8.57708">
        <ele>486</ele>
        <time>2021-08-10T11:00:45.812Z</time>
      </trkpt>
      <trkpt lat="46.92919" lon="8.57707">
        <ele>486</ele>
        <time>2021-08-10T11:00:46.811Z</time>
      </trkpt>
      <trkpt lat="46.92919" lon="8.57707">
        <ele>486</ele>
        <time>2021-08-10T11:00:47.811Z</time>
      </trkpt>
      <trkpt lat="46.92918" lon="8.57707">
        <ele>486</ele>
        <time>2021-08-10T11:00:48.812Z</time>
      </trkpt>
      <trkpt lat="46.92917" lon="8.57706">
        <ele>487</ele>
        <time>2021-08-10T11:00:49.812Z</time>
      </trkpt>
      <trkpt lat="46.92918" lon="8.57706">
        <ele>487</ele>
        <time>2021-08-10T11:00:50.812Z</time>
      </trkpt>
      <trkpt lat="46.92918" lon="8.57705">
        <ele>487</ele>
        <time>2021-08-10T11:00:51.812Z</time>
      </trkpt>
      <trkpt lat="46.92917" lon="8.57704">
        <ele>487</ele>
        <time>2021-08-10T11:00:52.811Z</time>
      </trkpt>
      <trkpt lat="46.92917" lon="8.57703">
        <ele>488</ele>
        <time>2021-08-10T11:00:53.812Z</time>
      </trkpt>
      <trkpt lat="46.92916" lon="8.57703">
        <ele>488</ele>
        <time>2021-08-10T11:00:54.812Z</time>
      </trkpt>
      <trkpt lat="46.92916" lon="8.57703">
        <ele>488</ele>
        <time>2021-08-10T11:00:55.812Z</time>
      </trkpt>
      <trkpt lat="46.92917" lon="8.57702">
        <ele>489</ele>
        <time>2021-08-10T11:00:56.811Z</time>
      </trkpt>
      <trkpt lat="46.92917" lon="8.57701">
        <ele>489</ele>
        <time>2021-08-10T11:00:57.812Z</time>
      </trkpt>
      <trkpt lat="46.92916" lon="8.577">
        <ele>489</ele>
        <time>2021-08-10T11:00:58.812Z</time>
      </trkpt>
      <trkpt lat="46.92916" lon="8.577">
        <ele>489</ele>
        <time>2021-08-10T11:00:59.811Z</time>
      </trkpt>
      <trkpt lat="46.92916" lon="8.577">
        <ele>488</ele>
        <time>2021-08-10T11:01:00.811Z</time>
      </trkpt>
      <trkpt lat="46.92915" lon="8.57698">
        <ele>489</ele>
        <time>2021-08-10T11:01:01.812Z</time>
      </trkpt>
      <trkpt lat="46.92914" lon="8.57697">
        <ele>489</ele>
        <time>2021-08-10T11:01:02.813Z</time>
      </trkpt>
      <trkpt lat="46.92914" lon="8.57696">
        <ele>489</ele>
        <time>2021-08-10T11:01:03.813Z</time>
      </trkpt>
      <trkpt lat="46.92914" lon="8.57696">
        <ele>489</ele>
        <time>2021-08-10T11:01:04.812Z</time>
      </trkpt>
      <trkpt lat="46.92914" lon="8.57695">
        <ele>489</ele>
        <time>2021-08-10T11:01:05.813Z</time>
      </trkpt>
      <trkpt lat="46.92914" lon="8.57695">
        <ele>489</ele>
        <time>2021-08-10T11:01:06.813Z</time>
      </trkpt>
      <trkpt lat="46.92915" lon="8.57694">
        <ele>489</ele>
        <time>2021-08-10T11:01:07.813Z</time>
      </trkpt>
      <trkpt lat="46.92916" lon="8.57693">
        <ele>489</ele>
        <time>2021-08-10T11:01:08.813Z</time>
      </trkpt>
      <trkpt lat="46.92916" lon="8.57693">
        <ele>489</ele>
        <time>2021-08-10T11:01:09.813Z</time>
      </trkpt>
      <trkpt lat="46.92916" lon="8.57692">
        <ele>489</ele>
        <time>2021-08-10T11:01:10.813Z</time>
      </trkpt>
      <trkpt lat="46.92916" lon="8.57691">
        <ele>489</ele>
        <time>2021-08-10T11:01:11.813Z</time>
      </trkpt>
      <trkpt lat="46.92916" lon="8.5769">
        <ele>489</ele>
        <time>2021-08-10T11:01:12.813Z</time>
      </trkpt>
      <trkpt lat="46.92915" lon="8.5769">
        <ele>489</ele>
        <time>2021-08-10T11:01:13.812Z</time>
      </trkpt>
      <trkpt lat="46.92915" lon="8.5769">
        <ele>489</ele>
        <time>2021-08-10T11:01:14.813Z</time>
      </trkpt>
      <trkpt lat="46.92915" lon="8.57689">
        <ele>488</ele>
        <time>2021-08-10T11:01:15.813Z</time>
      </trkpt>
      <trkpt lat="46.92914" lon="8.57689">
        <ele>488</ele>
        <time>2021-08-10T11:01:16.812Z</time>
      </trkpt>
      <trkpt lat="46.92914" lon="8.57688">
        <ele>488</ele>
        <time>2021-08-10T11:01:17.813Z</time>
      </trkpt>
      <trkpt lat="46.92913" lon="8.57687">
        <ele>488</ele>
        <time>2021-08-10T11:01:18.813Z</time>
      </trkpt>
      <trkpt lat="46.92913" lon="8.57687">
        <ele>488</ele>
        <time>2021-08-10T11:01:19.812Z</time>
      </trkpt>
      <trkpt lat="46.92912" lon="8.57686">
        <ele>487</ele>
        <time>2021-08-10T11:01:20.812Z</time>
      </trkpt>
      <trkpt lat="46.92912" lon="8.57685">
        <ele>487</ele>
        <time>2021-08-10T11:01:21.813Z</time>
      </trkpt>
      <trkpt lat="46.92912" lon="8.57684">
        <ele>487</ele>
        <time>2021-08-10T11:01:22.812Z</time>
      </trkpt>
      <trkpt lat="46.92913" lon="8.57683">
        <ele>487</ele>
        <time>2021-08-10T11:01:23.813Z</time>
      </trkpt>
      <trkpt lat="46.92911" lon="8.57682">
        <ele>488</ele>
        <time>2021-08-10T11:01:24.813Z</time>
      </trkpt>
      <trkpt lat="46.92909" lon="8.57682">
        <ele>490</ele>
        <time>2021-08-10T11:01:25.812Z</time>
      </trkpt>
      <trkpt lat="46.92908" lon="8.57682">
        <ele>491</ele>
        <time>2021-08-10T11:01:26.813Z</time>
      </trkpt>
      <trkpt lat="46.92907" lon="8.57681">
        <ele>493</ele>
        <time>2021-08-10T11:01:27.813Z</time>
      </trkpt>
      <trkpt lat="46.92907" lon="8.57681">
        <ele>494</ele>
        <time>2021-08-10T11:01:28.812Z</time>
      </trkpt>
      <trkpt lat="46.92906" lon="8.57681">
        <ele>495</ele>
        <time>2021-08-10T11:01:29.813Z</time>
      </trkpt>
      <trkpt lat="46.92905" lon="8.57681">
        <ele>497</ele>
        <time>2021-08-10T11:01:30.812Z</time>
      </trkpt>
      <trkpt lat="46.92905" lon="8.57681">
        <ele>498</ele>
        <time>2021-08-10T11:01:31.812Z</time>
      </trkpt>
      <trkpt lat="46.92905" lon="8.57681">
        <ele>499</ele>
        <time>2021-08-10T11:01:32.813Z</time>
      </trkpt>
      <trkpt lat="46.92905" lon="8.57679">
        <ele>501</ele>
        <time>2021-08-10T11:01:33.814Z</time>
      </trkpt>
      <trkpt lat="46.92904" lon="8.57679">
        <ele>501</ele>
        <time>2021-08-10T11:01:34.813Z</time>
      </trkpt>
      <trkpt lat="46.92904" lon="8.57679">
        <ele>501</ele>
        <time>2021-08-10T11:01:35.813Z</time>
      </trkpt>
      <trkpt lat="46.92904" lon="8.57678">
        <ele>501</ele>
        <time>2021-08-10T11:01:36.813Z</time>
      </trkpt>
      <trkpt lat="46.92902" lon="8.57679">
        <ele>501</ele>
        <time>2021-08-10T11:01:37.813Z</time>
      </trkpt>
      <trkpt lat="46.92901" lon="8.5768">
        <ele>501</ele>
        <time>2021-08-10T11:01:38.813Z</time>
      </trkpt>
      <trkpt lat="46.929" lon="8.5768">
        <ele>501</ele>
        <time>2021-08-10T11:01:39.814Z</time>
      </trkpt>
      <trkpt lat="46.92899" lon="8.5768">
        <ele>501</ele>
        <time>2021-08-10T11:01:40.814Z</time>
      </trkpt>
      <trkpt lat="46.92898" lon="8.57681">
        <ele>501</ele>
        <time>2021-08-10T11:01:41.814Z</time>
      </trkpt>
      <trkpt lat="46.92898" lon="8.57682">
        <ele>501</ele>
        <time>2021-08-10T11:01:42.814Z</time>
      </trkpt>
      <trkpt lat="46.92897" lon="8.57684">
        <ele>500</ele>
        <time>2021-08-10T11:01:43.813Z</time>
      </trkpt>
      <trkpt lat="46.92896" lon="8.57685">
        <ele>500</ele>
        <time>2021-08-10T11:01:44.814Z</time>
      </trkpt>
      <trkpt lat="46.92896" lon="8.57685">
        <ele>500</ele>
        <time>2021-08-10T11:01:45.813Z</time>
      </trkpt>
      <trkpt lat="46.92895" lon="8.57685">
        <ele>500</ele>
        <time>2021-08-10T11:01:46.814Z</time>
      </trkpt>
      <trkpt lat="46.92894" lon="8.57684">
        <ele>500</ele>
        <time>2021-08-10T11:01:47.813Z</time>
      </trkpt>
      <trkpt lat="46.92893" lon="8.57685">
        <ele>500</ele>
        <time>2021-08-10T11:01:48.814Z</time>
      </trkpt>
      <trkpt lat="46.92891" lon="8.57683">
        <ele>500</ele>
        <time>2021-08-10T11:01:49.813Z</time>
      </trkpt>
      <trkpt lat="46.92889" lon="8.57682">
        <ele>500</ele>
        <time>2021-08-10T11:01:50.813Z</time>
      </trkpt>
      <trkpt lat="46.92889" lon="8.57686">
        <ele>500</ele>
        <time>2021-08-10T11:01:51.814Z</time>
      </trkpt>
      <trkpt lat="46.9289" lon="8.57688">
        <ele>500</ele>
        <time>2021-08-10T11:01:52.814Z</time>
      </trkpt>
      <trkpt lat="46.92891" lon="8.5769">
        <ele>500</ele>
        <time>2021-08-10T11:01:53.814Z</time>
      </trkpt>
      <trkpt lat="46.92893" lon="8.57693">
        <ele>500</ele>
        <time>2021-08-10T11:01:54.813Z</time>
      </trkpt>
      <trkpt lat="46.92894" lon="8.57695">
        <ele>500</ele>
        <time>2021-08-10T11:01:55.813Z</time>
      </trkpt>
      <trkpt lat="46.92894" lon="8.57698">
        <ele>500</ele>
        <time>2021-08-10T11:01:56.813Z</time>
      </trkpt>
      <trkpt lat="46.92894" lon="8.57699">
        <ele>500</ele>
        <time>2021-08-10T11:01:57.814Z</time>
      </trkpt>
      <trkpt lat="46.92889" lon="8.57703">
        <ele>500</ele>
        <time>2021-08-10T11:01:58.813Z</time>
      </trkpt>
      <trkpt lat="46.92886" lon="8.57704">
        <ele>500</ele>
        <time>2021-08-10T11:01:59.814Z</time>
      </trkpt>
      <trkpt lat="46.92883" lon="8.57706">
        <ele>500</ele>
        <time>2021-08-10T11:02:00.814Z</time>
      </trkpt>
      <trkpt lat="46.92883" lon="8.57707">
        <ele>500</ele>
        <time>2021-08-10T11:02:01.814Z</time>
      </trkpt>
      <trkpt lat="46.92884" lon="8.57708">
        <ele>501</ele>
        <time>2021-08-10T11:02:02.814Z</time>
      </trkpt>
      <trkpt lat="46.92885" lon="8.57709">
        <ele>501</ele>
        <time>2021-08-10T11:02:03.814Z</time>
      </trkpt>
      <trkpt lat="46.92886" lon="8.57711">
        <ele>501</ele>
        <time>2021-08-10T11:02:04.814Z</time>
      </trkpt>
      <trkpt lat="46.92887" lon="8.57713">
        <ele>501</ele>
        <time>2021-08-10T11:02:05.813Z</time>
      </trkpt>
      <trkpt lat="46.92887" lon="8.57713">
        <ele>501</ele>
        <time>2021-08-10T11:02:06.814Z</time>
      </trkpt>
      <trkpt lat="46.92887" lon="8.57712">
        <ele>501</ele>
        <time>2021-08-10T11:02:07.813Z</time>
      </trkpt>
      <trkpt lat="46.92887" lon="8.57712">
        <ele>501</ele>
        <time>2021-08-10T11:02:08.814Z</time>
      </trkpt>
      <trkpt lat="46.92888" lon="8.57711">
        <ele>501</ele>
        <time>2021-08-10T11:02:09.813Z</time>
      </trkpt>
      <trkpt lat="46.9289" lon="8.57711">
        <ele>501</ele>
        <time>2021-08-10T11:02:10.813Z</time>
      </trkpt>
      <trkpt lat="46.92891" lon="8.57711">
        <ele>502</ele>
        <time>2021-08-10T11:02:11.814Z</time>
      </trkpt>
      <trkpt lat="46.92891" lon="8.57711">
        <ele>502</ele>
        <time>2021-08-10T11:02:12.814Z</time>
      </trkpt>
      <trkpt lat="46.9289" lon="8.57711">
        <ele>501</ele>
        <time>2021-08-10T11:02:13.814Z</time>
      </trkpt>
      <trkpt lat="46.92892" lon="8.57711">
        <ele>501</ele>
        <time>2021-08-10T11:02:14.813Z</time>
      </trkpt>
      <trkpt lat="46.92893" lon="8.57711">
        <ele>501</ele>
        <time>2021-08-10T11:02:15.813Z</time>
      </trkpt>
      <trkpt lat="46.92894" lon="8.5771">
        <ele>501</ele>
        <time>2021-08-10T11:02:16.814Z</time>
      </trkpt>
      <trkpt lat="46.92893" lon="8.57709">
        <ele>501</ele>
        <time>2021-08-10T11:02:17.814Z</time>
      </trkpt>
      <trkpt lat="46.92894" lon="8.57709">
        <ele>501</ele>
        <time>2021-08-10T11:02:18.813Z</time>
      </trkpt>
      <trkpt lat="46.92895" lon="8.5771">
        <ele>500</ele>
        <time>2021-08-10T11:02:19.813Z</time>
      </trkpt>
      <trkpt lat="46.92897" lon="8.57711">
        <ele>500</ele>
        <time>2021-08-10T11:02:20.813Z</time>
      </trkpt>
      <trkpt lat="46.92898" lon="8.57713">
        <ele>500</ele>
        <time>2021-08-10T11:02:21.813Z</time>
      </trkpt>
      <trkpt lat="46.92898" lon="8.57714">
        <ele>500</ele>
        <time>2021-08-10T11:02:22.814Z</time>
      </trkpt>
      <trkpt lat="46.92898" lon="8.57714">
        <ele>500</ele>
        <time>2021-08-10T11:02:23.813Z</time>
      </trkpt>
      <trkpt lat="46.92898" lon="8.57715">
        <ele>500</ele>
        <time>2021-08-10T11:02:24.813Z</time>
      </trkpt>
      <trkpt lat="46.92898" lon="8.57715">
        <ele>500</ele>
        <time>2021-08-10T11:02:25.814Z</time>
      </trkpt>
      <trkpt lat="46.92899" lon="8.57715">
        <ele>500</ele>
        <time>2021-08-10T11:02:27.813Z</time>
      </trkpt>
      <trkpt lat="46.92898" lon="8.57714">
        <ele>499</ele>
        <time>2021-08-10T11:02:28.813Z</time>
      </trkpt>
      <trkpt lat="46.92898" lon="8.57714">
        <ele>499</ele>
        <time>2021-08-10T11:02:29.813Z</time>
      </trkpt>
      <trkpt lat="46.92895" lon="8.57714">
        <ele>498</ele>
        <time>2021-08-10T11:02:30.813Z</time>
      </trkpt>
      <trkpt lat="46.92894" lon="8.57715">
        <ele>498</ele>
        <time>2021-08-10T11:02:31.813Z</time>
      </trkpt>
      <trkpt lat="46.92895" lon="8.57715">
        <ele>498</ele>
        <time>2021-08-10T11:02:32.813Z</time>
      </trkpt>
      <trkpt lat="46.92895" lon="8.57715">
        <ele>497</ele>
        <time>2021-08-10T11:02:33.813Z</time>
      </trkpt>
      <trkpt lat="46.92894" lon="8.57716">
        <ele>497</ele>
        <time>2021-08-10T11:02:34.813Z</time>
      </trkpt>
      <trkpt lat="46.92894" lon="8.57718">
        <ele>496</ele>
        <time>2021-08-10T11:02:35.814Z</time>
      </trkpt>
      <trkpt lat="46.92894" lon="8.57719">
        <ele>496</ele>
        <time>2021-08-10T11:02:36.813Z</time>
      </trkpt>
      <trkpt lat="46.92893" lon="8.57718">
        <ele>496</ele>
        <time>2021-08-10T11:02:37.814Z</time>
      </trkpt>
      <trkpt lat="46.92892" lon="8.57717">
        <ele>496</ele>
        <time>2021-08-10T11:02:38.814Z</time>
      </trkpt>
      <trkpt lat="46.92891" lon="8.57716">
        <ele>497</ele>
        <time>2021-08-10T11:02:39.813Z</time>
      </trkpt>
      <trkpt lat="46.9289" lon="8.57714">
        <ele>497</ele>
        <time>2021-08-10T11:02:40.814Z</time>
      </trkpt>
      <trkpt lat="46.9289" lon="8.57713">
        <ele>497</ele>
        <time>2021-08-10T11:02:41.814Z</time>
      </trkpt>
      <trkpt lat="46.92889" lon="8.57712">
        <ele>498</ele>
        <time>2021-08-10T11:02:42.813Z</time>
      </trkpt>
      <trkpt lat="46.9289" lon="8.57711">
        <ele>498</ele>
        <time>2021-08-10T11:02:43.814Z</time>
      </trkpt>
      <trkpt lat="46.92889" lon="8.57711">
        <ele>499</ele>
        <time>2021-08-10T11:02:44.813Z</time>
      </trkpt>
      <trkpt lat="46.92889" lon="8.57711">
        <ele>500</ele>
        <time>2021-08-10T11:02:45.813Z</time>
      </trkpt>
      <trkpt lat="46.92889" lon="8.57711">
        <ele>501</ele>
        <time>2021-08-10T11:02:46.814Z</time>
      </trkpt>
      <trkpt lat="46.92888" lon="8.5771">
        <ele>502</ele>
        <time>2021-08-10T11:02:47.814Z</time>
      </trkpt>
      <trkpt lat="46.92888" lon="8.5771">
        <ele>503</ele>
        <time>2021-08-10T11:02:48.814Z</time>
      </trkpt>
      <trkpt lat="46.92887" lon="8.5771">
        <ele>504</ele>
        <time>2021-08-10T11:02:49.814Z</time>
      </trkpt>
      <trkpt lat="46.92891" lon="8.5771">
        <ele>506</ele>
        <time>2021-08-10T11:02:50.814Z</time>
      </trkpt>
      <trkpt lat="46.9289" lon="8.5771">
        <ele>506</ele>
        <time>2021-08-10T11:02:51.813Z</time>
      </trkpt>
      <trkpt lat="46.92889" lon="8.5771">
        <ele>506</ele>
        <time>2021-08-10T11:02:52.813Z</time>
      </trkpt>
      <trkpt lat="46.92889" lon="8.5771">
        <ele>507</ele>
        <time>2021-08-10T11:02:53.814Z</time>
      </trkpt>
      <trkpt lat="46.92888" lon="8.57709">
        <ele>507</ele>
        <time>2021-08-10T11:02:54.814Z</time>
      </trkpt>
      <trkpt lat="46.92888" lon="8.57709">
        <ele>507</ele>
        <time>2021-08-10T11:02:55.814Z</time>
      </trkpt>
      <trkpt lat="46.92887" lon="8.57709">
        <ele>508</ele>
        <time>2021-08-10T11:02:56.813Z</time>
      </trkpt>
      <trkpt lat="46.92887" lon="8.57708">
        <ele>508</ele>
        <time>2021-08-10T11:02:57.814Z</time>
      </trkpt>
      <trkpt lat="46.92887" lon="8.57707">
        <ele>508</ele>
        <time>2021-08-10T11:02:58.813Z</time>
      </trkpt>
      <trkpt lat="46.92886" lon="8.57707">
        <ele>509</ele>
        <time>2021-08-10T11:02:59.814Z</time>
      </trkpt>
      <trkpt lat="46.92886" lon="8.57706">
        <ele>509</ele>
        <time>2021-08-10T11:03:00.814Z</time>
      </trkpt>
      <trkpt lat="46.92886" lon="8.57706">
        <ele>509</ele>
        <time>2021-08-10T11:03:01.814Z</time>
      </trkpt>
      <trkpt lat="46.92886" lon="8.57706">
        <ele>509</ele>
        <time>2021-08-10T11:03:02.814Z</time>
      </trkpt>
      <trkpt lat="46.92885" lon="8.57707">
        <ele>509</ele>
        <time>2021-08-10T11:03:03.814Z</time>
      </trkpt>
      <trkpt lat="46.92884" lon="8.57707">
        <ele>510</ele>
        <time>2021-08-10T11:03:04.814Z</time>
      </trkpt>
      <trkpt lat="46.92883" lon="8.57707">
        <ele>510</ele>
        <time>2021-08-10T11:03:05.814Z</time>
      </trkpt>
      <trkpt lat="46.92883" lon="8.57707">
        <ele>510</ele>
        <time>2021-08-10T11:03:06.814Z</time>
      </trkpt>
      <trkpt lat="46.92883" lon="8.57707">
        <ele>510</ele>
        <time>2021-08-10T11:03:07.813Z</time>
      </trkpt>
      <trkpt lat="46.92883" lon="8.57708">
        <ele>510</ele>
        <time>2021-08-10T11:03:08.814Z</time>
      </trkpt>
      <trkpt lat="46.92882" lon="8.57709">
        <ele>511</ele>
        <time>2021-08-10T11:03:09.813Z</time>
      </trkpt>
      <trkpt lat="46.92881" lon="8.5771">
        <ele>511</ele>
        <time>2021-08-10T11:03:10.814Z</time>
      </trkpt>
      <trkpt lat="46.92881" lon="8.57711">
        <ele>512</ele>
        <time>2021-08-10T11:03:11.814Z</time>
      </trkpt>
      <trkpt lat="46.92881" lon="8.57713">
        <ele>512</ele>
        <time>2021-08-10T11:03:12.813Z</time>
      </trkpt>
      <trkpt lat="46.92881" lon="8.57713">
        <ele>513</ele>
        <time>2021-08-10T11:03:13.814Z</time>
      </trkpt>
      <trkpt lat="46.92881" lon="8.57714">
        <ele>514</ele>
        <time>2021-08-10T11:03:14.813Z</time>
      </trkpt>
      <trkpt lat="46.92881" lon="8.57715">
        <ele>515</ele>
        <time>2021-08-10T11:03:15.814Z</time>
      </trkpt>
      <trkpt lat="46.92881" lon="8.57716">
        <ele>516</ele>
        <time>2021-08-10T11:03:16.814Z</time>
      </trkpt>
      <trkpt lat="46.92881" lon="8.57717">
        <ele>517</ele>
        <time>2021-08-10T11:03:17.813Z</time>
      </trkpt>
      <trkpt lat="46.92882" lon="8.57718">
        <ele>518</ele>
        <time>2021-08-10T11:03:18.814Z</time>
      </trkpt>
      <trkpt lat="46.92883" lon="8.57719">
        <ele>519</ele>
        <time>2021-08-10T11:03:19.814Z</time>
      </trkpt>
      <trkpt lat="46.92883" lon="8.5772">
        <ele>520</ele>
        <time>2021-08-10T11:03:20.814Z</time>
      </trkpt>
      <trkpt lat="46.92884" lon="8.57721">
        <ele>521</ele>
        <time>2021-08-10T11:03:21.814Z</time>
      </trkpt>
      <trkpt lat="46.92883" lon="8.57721">
        <ele>521</ele>
        <time>2021-08-10T11:03:22.814Z</time>
      </trkpt>
      <trkpt lat="46.92882" lon="8.57722">
        <ele>522</ele>
        <time>2021-08-10T11:03:23.813Z</time>
      </trkpt>
      <trkpt lat="46.92881" lon="8.57722">
        <ele>522</ele>
        <time>2021-08-10T11:03:24.814Z</time>
      </trkpt>
      <trkpt lat="46.92881" lon="8.57723">
        <ele>522</ele>
        <time>2021-08-10T11:03:25.814Z</time>
      </trkpt>
      <trkpt lat="46.9288" lon="8.57724">
        <ele>522</ele>
        <time>2021-08-10T11:03:26.813Z</time>
      </trkpt>
      <trkpt lat="46.92879" lon="8.57726">
        <ele>522</ele>
        <time>2021-08-10T11:03:27.814Z</time>
      </trkpt>
      <trkpt lat="46.92879" lon="8.57727">
        <ele>522</ele>
        <time>2021-08-10T11:03:28.813Z</time>
      </trkpt>
      <trkpt lat="46.9288" lon="8.57728">
        <ele>522</ele>
        <time>2021-08-10T11:03:29.814Z</time>
      </trkpt>
      <trkpt lat="46.9288" lon="8.5773">
        <ele>522</ele>
        <time>2021-08-10T11:03:30.814Z</time>
      </trkpt>
      <trkpt lat="46.9288" lon="8.5773">
        <ele>522</ele>
        <time>2021-08-10T11:03:31.813Z</time>
      </trkpt>
      <trkpt lat="46.9288" lon="8.57731">
        <ele>522</ele>
        <time>2021-08-10T11:03:32.813Z</time>
      </trkpt>
      <trkpt lat="46.9288" lon="8.57733">
        <ele>522</ele>
        <time>2021-08-10T11:03:33.816Z</time>
      </trkpt>
      <trkpt lat="46.9288" lon="8.57734">
        <ele>522</ele>
        <time>2021-08-10T11:03:34.816Z</time>
      </trkpt>
      <trkpt lat="46.9288" lon="8.57735">
        <ele>521</ele>
        <time>2021-08-10T11:03:35.815Z</time>
      </trkpt>
      <trkpt lat="46.92879" lon="8.57735">
        <ele>522</ele>
        <time>2021-08-10T11:03:36.816Z</time>
      </trkpt>
      <trkpt lat="46.92879" lon="8.57736">
        <ele>522</ele>
        <time>2021-08-10T11:03:37.815Z</time>
      </trkpt>
      <trkpt lat="46.92878" lon="8.57737">
        <ele>521</ele>
        <time>2021-08-10T11:03:38.815Z</time>
      </trkpt>
      <trkpt lat="46.92878" lon="8.57738">
        <ele>521</ele>
        <time>2021-08-10T11:03:39.815Z</time>
      </trkpt>
      <trkpt lat="46.92877" lon="8.57739">
        <ele>521</ele>
        <time>2021-08-10T11:03:40.816Z</time>
      </trkpt>
      <trkpt lat="46.92877" lon="8.57741">
        <ele>521</ele>
        <time>2021-08-10T11:03:41.815Z</time>
      </trkpt>
      <trkpt lat="46.92876" lon="8.57742">
        <ele>521</ele>
        <time>2021-08-10T11:03:42.816Z</time>
      </trkpt>
      <trkpt lat="46.92875" lon="8.57743">
        <ele>520</ele>
        <time>2021-08-10T11:03:43.816Z</time>
      </trkpt>
      <trkpt lat="46.92875" lon="8.57744">
        <ele>520</ele>
        <time>2021-08-10T11:03:44.816Z</time>
      </trkpt>
      <trkpt lat="46.92874" lon="8.57745">
        <ele>520</ele>
        <time>2021-08-10T11:03:45.816Z</time>
      </trkpt>
      <trkpt lat="46.92873" lon="8.57746">
        <ele>519</ele>
        <time>2021-08-10T11:03:46.816Z</time>
      </trkpt>
      <trkpt lat="46.92873" lon="8.57747">
        <ele>519</ele>
        <time>2021-08-10T11:03:47.816Z</time>
      </trkpt>
      <trkpt lat="46.92872" lon="8.57748">
        <ele>519</ele>
        <time>2021-08-10T11:03:48.815Z</time>
      </trkpt>
      <trkpt lat="46.92872" lon="8.57749">
        <ele>519</ele>
        <time>2021-08-10T11:03:49.816Z</time>
      </trkpt>
      <trkpt lat="46.92872" lon="8.57749">
        <ele>518</ele>
        <time>2021-08-10T11:03:50.816Z</time>
      </trkpt>
      <trkpt lat="46.92871" lon="8.57751">
        <ele>518</ele>
        <time>2021-08-10T11:03:51.815Z</time>
      </trkpt>
      <trkpt lat="46.92871" lon="8.57752">
        <ele>518</ele>
        <time>2021-08-10T11:03:52.816Z</time>
      </trkpt>
      <trkpt lat="46.92871" lon="8.57753">
        <ele>517</ele>
        <time>2021-08-10T11:03:53.815Z</time>
      </trkpt>
      <trkpt lat="46.92872" lon="8.57754">
        <ele>517</ele>
        <time>2021-08-10T11:03:54.816Z</time>
      </trkpt>
      <trkpt lat="46.92872" lon="8.57755">
        <ele>517</ele>
        <time>2021-08-10T11:03:55.815Z</time>
      </trkpt>
      <trkpt lat="46.92872" lon="8.57756">
        <ele>517</ele>
        <time>2021-08-10T11:03:56.815Z</time>
      </trkpt>
      <trkpt lat="46.92872" lon="8.57756">
        <ele>517</ele>
        <time>2021-08-10T11:03:57.815Z</time>
      </trkpt>
      <trkpt lat="46.92872" lon="8.57757">
        <ele>517</ele>
        <time>2021-08-10T11:03:58.815Z</time>
      </trkpt>
      <trkpt lat="46.92872" lon="8.57758">
        <ele>517</ele>
        <time>2021-08-10T11:03:59.816Z</time>
      </trkpt>
      <trkpt lat="46.92872" lon="8.57758">
        <ele>517</ele>
        <time>2021-08-10T11:04:00.815Z</time>
      </trkpt>
      <trkpt lat="46.92871" lon="8.57759">
        <ele>517</ele>
        <time>2021-08-10T11:04:01.816Z</time>
      </trkpt>
      <trkpt lat="46.92871" lon="8.5776">
        <ele>517</ele>
        <time>2021-08-10T11:04:02.815Z</time>
      </trkpt>
      <trkpt lat="46.92869" lon="8.5776">
        <ele>517</ele>
        <time>2021-08-10T11:04:03.816Z</time>
      </trkpt>
      <trkpt lat="46.92868" lon="8.5776">
        <ele>516</ele>
        <time>2021-08-10T11:04:04.815Z</time>
      </trkpt>
      <trkpt lat="46.92868" lon="8.57759">
        <ele>516</ele>
        <time>2021-08-10T11:04:05.815Z</time>
      </trkpt>
      <trkpt lat="46.92868" lon="8.57759">
        <ele>516</ele>
        <time>2021-08-10T11:04:06.816Z</time>
      </trkpt>
      <trkpt lat="46.92869" lon="8.57757">
        <ele>516</ele>
        <time>2021-08-10T11:04:07.816Z</time>
      </trkpt>
      <trkpt lat="46.92868" lon="8.57756">
        <ele>516</ele>
        <time>2021-08-10T11:04:08.816Z</time>
      </trkpt>
      <trkpt lat="46.92868" lon="8.57755">
        <ele>516</ele>
        <time>2021-08-10T11:04:09.816Z</time>
      </trkpt>
      <trkpt lat="46.92869" lon="8.57754">
        <ele>517</ele>
        <time>2021-08-10T11:04:10.816Z</time>
      </trkpt>
      <trkpt lat="46.92869" lon="8.57753">
        <ele>517</ele>
        <time>2021-08-10T11:04:11.816Z</time>
      </trkpt>
      <trkpt lat="46.9287" lon="8.57751">
        <ele>517</ele>
        <time>2021-08-10T11:04:12.815Z</time>
      </trkpt>
      <trkpt lat="46.92869" lon="8.5775">
        <ele>517</ele>
        <time>2021-08-10T11:04:13.815Z</time>
      </trkpt>
      <trkpt lat="46.92869" lon="8.57749">
        <ele>516</ele>
        <time>2021-08-10T11:04:14.816Z</time>
      </trkpt>
      <trkpt lat="46.92868" lon="8.57749">
        <ele>515</ele>
        <time>2021-08-10T11:04:15.816Z</time>
      </trkpt>
      <trkpt lat="46.92867" lon="8.57748">
        <ele>515</ele>
        <time>2021-08-10T11:04:16.816Z</time>
      </trkpt>
      <trkpt lat="46.92867" lon="8.57748">
        <ele>514</ele>
        <time>2021-08-10T11:04:17.816Z</time>
      </trkpt>
      <trkpt lat="46.92867" lon="8.57747">
        <ele>514</ele>
        <time>2021-08-10T11:04:18.815Z</time>
      </trkpt>
      <trkpt lat="46.92867" lon="8.57747">
        <ele>515</ele>
        <time>2021-08-10T11:04:19.816Z</time>
      </trkpt>
      <trkpt lat="46.92866" lon="8.57746">
        <ele>516</ele>
        <time>2021-08-10T11:04:20.815Z</time>
      </trkpt>
      <trkpt lat="46.92866" lon="8.57745">
        <ele>517</ele>
        <time>2021-08-10T11:04:21.816Z</time>
      </trkpt>
      <trkpt lat="46.92866" lon="8.57744">
        <ele>519</ele>
        <time>2021-08-10T11:04:22.816Z</time>
      </trkpt>
      <trkpt lat="46.92866" lon="8.57743">
        <ele>520</ele>
        <time>2021-08-10T11:04:23.816Z</time>
      </trkpt>
      <trkpt lat="46.92865" lon="8.5774">
        <ele>524</ele>
        <time>2021-08-10T11:04:24.817Z</time>
      </trkpt>
      <trkpt lat="46.92865" lon="8.5774">
        <ele>525</ele>
        <time>2021-08-10T11:04:25.817Z</time>
      </trkpt>
      <trkpt lat="46.92865" lon="8.57739">
        <ele>526</ele>
        <time>2021-08-10T11:04:26.816Z</time>
      </trkpt>
      <trkpt lat="46.92866" lon="8.57738">
        <ele>527</ele>
        <time>2021-08-10T11:04:27.816Z</time>
      </trkpt>
      <trkpt lat="46.92868" lon="8.57737">
        <ele>527</ele>
        <time>2021-08-10T11:04:28.817Z</time>
      </trkpt>
      <trkpt lat="46.92869" lon="8.57735">
        <ele>528</ele>
        <time>2021-08-10T11:04:29.816Z</time>
      </trkpt>
      <trkpt lat="46.92869" lon="8.57735">
        <ele>528</ele>
        <time>2021-08-10T11:04:30.817Z</time>
      </trkpt>
      <trkpt lat="46.92869" lon="8.57735">
        <ele>529</ele>
        <time>2021-08-10T11:04:31.816Z</time>
      </trkpt>
      <trkpt lat="46.92868" lon="8.57734">
        <ele>529</ele>
        <time>2021-08-10T11:04:32.817Z</time>
      </trkpt>
      <trkpt lat="46.92867" lon="8.57733">
        <ele>529</ele>
        <time>2021-08-10T11:04:33.817Z</time>
      </trkpt>
      <trkpt lat="46.92867" lon="8.57733">
        <ele>530</ele>
        <time>2021-08-10T11:04:34.817Z</time>
      </trkpt>
      <trkpt lat="46.92866" lon="8.57732">
        <ele>530</ele>
        <time>2021-08-10T11:04:35.816Z</time>
      </trkpt>
      <trkpt lat="46.92866" lon="8.57732">
        <ele>530</ele>
        <time>2021-08-10T11:04:36.817Z</time>
      </trkpt>
      <trkpt lat="46.92866" lon="8.57732">
        <ele>531</ele>
        <time>2021-08-10T11:04:37.817Z</time>
      </trkpt>
      <trkpt lat="46.92865" lon="8.57731">
        <ele>532</ele>
        <time>2021-08-10T11:04:38.818Z</time>
      </trkpt>
      <trkpt lat="46.92864" lon="8.57731">
        <ele>532</ele>
        <time>2021-08-10T11:04:39.818Z</time>
      </trkpt>
      <trkpt lat="46.92864" lon="8.5773">
        <ele>532</ele>
        <time>2021-08-10T11:04:40.818Z</time>
      </trkpt>
      <trkpt lat="46.92863" lon="8.57729">
        <ele>532</ele>
        <time>2021-08-10T11:04:41.818Z</time>
      </trkpt>
      <trkpt lat="46.92863" lon="8.57729">
        <ele>532</ele>
        <time>2021-08-10T11:04:42.817Z</time>
      </trkpt>
      <trkpt lat="46.92862" lon="8.57728">
        <ele>532</ele>
        <time>2021-08-10T11:04:43.817Z</time>
      </trkpt>
      <trkpt lat="46.9286" lon="8.5773">
        <ele>532</ele>
        <time>2021-08-10T11:04:44.817Z</time>
      </trkpt>
      <trkpt lat="46.92859" lon="8.57732">
        <ele>531</ele>
        <time>2021-08-10T11:04:45.818Z</time>
      </trkpt>
      <trkpt lat="46.92858" lon="8.57732">
        <ele>531</ele>
        <time>2021-08-10T11:04:46.817Z</time>
      </trkpt>
      <trkpt lat="46.92857" lon="8.57733">
        <ele>530</ele>
        <time>2021-08-10T11:04:47.818Z</time>
      </trkpt>
      <trkpt lat="46.92857" lon="8.57733">
        <ele>530</ele>
        <time>2021-08-10T11:04:48.817Z</time>
      </trkpt>
      <trkpt lat="46.92857" lon="8.57733">
        <ele>529</ele>
        <time>2021-08-10T11:04:49.818Z</time>
      </trkpt>
      <trkpt lat="46.92857" lon="8.57734">
        <ele>528</ele>
        <time>2021-08-10T11:04:50.818Z</time>
      </trkpt>
      <trkpt lat="46.92857" lon="8.57735">
        <ele>527</ele>
        <time>2021-08-10T11:04:51.817Z</time>
      </trkpt>
      <trkpt lat="46.92857" lon="8.57735">
        <ele>527</ele>
        <time>2021-08-10T11:04:52.818Z</time>
      </trkpt>
      <trkpt lat="46.92856" lon="8.57736">
        <ele>527</ele>
        <time>2021-08-10T11:04:53.818Z</time>
      </trkpt>
      <trkpt lat="46.92856" lon="8.57736">
        <ele>526</ele>
        <time>2021-08-10T11:04:54.818Z</time>
      </trkpt>
      <trkpt lat="46.92855" lon="8.57736">
        <ele>526</ele>
        <time>2021-08-10T11:04:55.817Z</time>
      </trkpt>
      <trkpt lat="46.92854" lon="8.57737">
        <ele>526</ele>
        <time>2021-08-10T11:04:56.818Z</time>
      </trkpt>
      <trkpt lat="46.92854" lon="8.57737">
        <ele>526</ele>
        <time>2021-08-10T11:04:57.818Z</time>
      </trkpt>
      <trkpt lat="46.92853" lon="8.57738">
        <ele>526</ele>
        <time>2021-08-10T11:04:58.818Z</time>
      </trkpt>
      <trkpt lat="46.92852" lon="8.5774">
        <ele>526</ele>
        <time>2021-08-10T11:04:59.817Z</time>
      </trkpt>
      <trkpt lat="46.92852" lon="8.57741">
        <ele>527</ele>
        <time>2021-08-10T11:05:00.818Z</time>
      </trkpt>
      <trkpt lat="46.92851" lon="8.57743">
        <ele>527</ele>
        <time>2021-08-10T11:05:01.818Z</time>
      </trkpt>
      <trkpt lat="46.92851" lon="8.57743">
        <ele>527</ele>
        <time>2021-08-10T11:05:02.818Z</time>
      </trkpt>
      <trkpt lat="46.92851" lon="8.57743">
        <ele>527</ele>
        <time>2021-08-10T11:05:03.818Z</time>
      </trkpt>
      <trkpt lat="46.92851" lon="8.57743">
        <ele>527</ele>
        <time>2021-08-10T11:05:04.817Z</time>
      </trkpt>
      <trkpt lat="46.92851" lon="8.57745">
        <ele>528</ele>
        <time>2021-08-10T11:05:05.817Z</time>
      </trkpt>
      <trkpt lat="46.92851" lon="8.57746">
        <ele>529</ele>
        <time>2021-08-10T11:05:06.817Z</time>
      </trkpt>
      <trkpt lat="46.92851" lon="8.57747">
        <ele>529</ele>
        <time>2021-08-10T11:05:07.817Z</time>
      </trkpt>
      <trkpt lat="46.92851" lon="8.57748">
        <ele>530</ele>
        <time>2021-08-10T11:05:08.817Z</time>
      </trkpt>
      <trkpt lat="46.9285" lon="8.57749">
        <ele>530</ele>
        <time>2021-08-10T11:05:09.817Z</time>
      </trkpt>
      <trkpt lat="46.9285" lon="8.5775">
        <ele>531</ele>
        <time>2021-08-10T11:05:10.817Z</time>
      </trkpt>
      <trkpt lat="46.9285" lon="8.57751">
        <ele>532</ele>
        <time>2021-08-10T11:05:11.817Z</time>
      </trkpt>
      <trkpt lat="46.92849" lon="8.57752">
        <ele>533</ele>
        <time>2021-08-10T11:05:12.818Z</time>
      </trkpt>
      <trkpt lat="46.92849" lon="8.57752">
        <ele>533</ele>
        <time>2021-08-10T11:05:13.817Z</time>
      </trkpt>
      <trkpt lat="46.92849" lon="8.57753">
        <ele>534</ele>
        <time>2021-08-10T11:05:14.818Z</time>
      </trkpt>
      <trkpt lat="46.9285" lon="8.57753">
        <ele>534</ele>
        <time>2021-08-10T11:05:15.817Z</time>
      </trkpt>
      <trkpt lat="46.9285" lon="8.57753">
        <ele>534</ele>
        <time>2021-08-10T11:05:16.817Z</time>
      </trkpt>
      <trkpt lat="46.9285" lon="8.57754">
        <ele>535</ele>
        <time>2021-08-10T11:05:17.817Z</time>
      </trkpt>
      <trkpt lat="46.92849" lon="8.57755">
        <ele>536</ele>
        <time>2021-08-10T11:05:18.817Z</time>
      </trkpt>
      <trkpt lat="46.92848" lon="8.57755">
        <ele>536</ele>
        <time>2021-08-10T11:05:19.818Z</time>
      </trkpt>
      <trkpt lat="46.92847" lon="8.57756">
        <ele>537</ele>
        <time>2021-08-10T11:05:20.817Z</time>
      </trkpt>
      <trkpt lat="46.92846" lon="8.57757">
        <ele>538</ele>
        <time>2021-08-10T11:05:21.818Z</time>
      </trkpt>
      <trkpt lat="46.92846" lon="8.57757">
        <ele>538</ele>
        <time>2021-08-10T11:05:22.817Z</time>
      </trkpt>
      <trkpt lat="46.92845" lon="8.57757">
        <ele>539</ele>
        <time>2021-08-10T11:05:23.817Z</time>
      </trkpt>
      <trkpt lat="46.92845" lon="8.57758">
        <ele>539</ele>
        <time>2021-08-10T11:05:24.817Z</time>
      </trkpt>
      <trkpt lat="46.92845" lon="8.57758">
        <ele>540</ele>
        <time>2021-08-10T11:05:25.817Z</time>
      </trkpt>
      <trkpt lat="46.92844" lon="8.57758">
        <ele>540</ele>
        <time>2021-08-10T11:05:26.817Z</time>
      </trkpt>
      <trkpt lat="46.92844" lon="8.57758">
        <ele>540</ele>
        <time>2021-08-10T11:05:27.817Z</time>
      </trkpt>
      <trkpt lat="46.92843" lon="8.57758">
        <ele>540</ele>
        <time>2021-08-10T11:05:28.817Z</time>
      </trkpt>
      <trkpt lat="46.92843" lon="8.57758">
        <ele>541</ele>
        <time>2021-08-10T11:05:29.817Z</time>
      </trkpt>
      <trkpt lat="46.92842" lon="8.57758">
        <ele>541</ele>
        <time>2021-08-10T11:05:30.818Z</time>
      </trkpt>
      <trkpt lat="46.92842" lon="8.57758">
        <ele>541</ele>
        <time>2021-08-10T11:05:31.817Z</time>
      </trkpt>
      <trkpt lat="46.92839" lon="8.57759">
        <ele>541</ele>
        <time>2021-08-10T11:05:32.819Z</time>
      </trkpt>
      <trkpt lat="46.92839" lon="8.5776">
        <ele>541</ele>
        <time>2021-08-10T11:05:33.819Z</time>
      </trkpt>
      <trkpt lat="46.92838" lon="8.57761">
        <ele>540</ele>
        <time>2021-08-10T11:05:34.818Z</time>
      </trkpt>
      <trkpt lat="46.92837" lon="8.57762">
        <ele>540</ele>
        <time>2021-08-10T11:05:35.819Z</time>
      </trkpt>
      <trkpt lat="46.92836" lon="8.57763">
        <ele>540</ele>
        <time>2021-08-10T11:05:36.819Z</time>
      </trkpt>
      <trkpt lat="46.92835" lon="8.57764">
        <ele>540</ele>
        <time>2021-08-10T11:05:37.818Z</time>
      </trkpt>
      <trkpt lat="46.92834" lon="8.57764">
        <ele>540</ele>
        <time>2021-08-10T11:05:38.818Z</time>
      </trkpt>
      <trkpt lat="46.92834" lon="8.57764">
        <ele>540</ele>
        <time>2021-08-10T11:05:39.819Z</time>
      </trkpt>
      <trkpt lat="46.92834" lon="8.57764">
        <ele>541</ele>
        <time>2021-08-10T11:05:40.818Z</time>
      </trkpt>
      <trkpt lat="46.92834" lon="8.57764">
        <ele>541</ele>
        <time>2021-08-10T11:05:41.818Z</time>
      </trkpt>
      <trkpt lat="46.92834" lon="8.57764">
        <ele>541</ele>
        <time>2021-08-10T11:05:42.818Z</time>
      </trkpt>
      <trkpt lat="46.92833" lon="8.57763">
        <ele>541</ele>
        <time>2021-08-10T11:05:43.818Z</time>
      </trkpt>
      <trkpt lat="46.92831" lon="8.57763">
        <ele>542</ele>
        <time>2021-08-10T11:05:44.818Z</time>
      </trkpt>
      <trkpt lat="46.9283" lon="8.57764">
        <ele>542</ele>
        <time>2021-08-10T11:05:45.818Z</time>
      </trkpt>
      <trkpt lat="46.92829" lon="8.57765">
        <ele>542</ele>
        <time>2021-08-10T11:05:46.818Z</time>
      </trkpt>
      <trkpt lat="46.92828" lon="8.57766">
        <ele>543</ele>
        <time>2021-08-10T11:05:47.819Z</time>
      </trkpt>
      <trkpt lat="46.92828" lon="8.57766">
        <ele>543</ele>
        <time>2021-08-10T11:05:48.818Z</time>
      </trkpt>
      <trkpt lat="46.92827" lon="8.57766">
        <ele>543</ele>
        <time>2021-08-10T11:05:49.819Z</time>
      </trkpt>
      <trkpt lat="46.92827" lon="8.57766">
        <ele>543</ele>
        <time>2021-08-10T11:05:50.819Z</time>
      </trkpt>
      <trkpt lat="46.92826" lon="8.57766">
        <ele>543</ele>
        <time>2021-08-10T11:05:51.818Z</time>
      </trkpt>
      <trkpt lat="46.92826" lon="8.57767">
        <ele>543</ele>
        <time>2021-08-10T11:05:52.818Z</time>
      </trkpt>
      <trkpt lat="46.92825" lon="8.57767">
        <ele>542</ele>
        <time>2021-08-10T11:05:53.819Z</time>
      </trkpt>
      <trkpt lat="46.92825" lon="8.57767">
        <ele>542</ele>
        <time>2021-08-10T11:05:54.819Z</time>
      </trkpt>
      <trkpt lat="46.92825" lon="8.57767">
        <ele>542</ele>
        <time>2021-08-10T11:05:55.819Z</time>
      </trkpt>
      <trkpt lat="46.92824" lon="8.57767">
        <ele>542</ele>
        <time>2021-08-10T11:05:56.818Z</time>
      </trkpt>
      <trkpt lat="46.92823" lon="8.57766">
        <ele>542</ele>
        <time>2021-08-10T11:05:57.820Z</time>
      </trkpt>
      <trkpt lat="46.92823" lon="8.57765">
        <ele>542</ele>
        <time>2021-08-10T11:05:58.819Z</time>
      </trkpt>
      <trkpt lat="46.92822" lon="8.57764">
        <ele>543</ele>
        <time>2021-08-10T11:05:59.820Z</time>
      </trkpt>
      <trkpt lat="46.92821" lon="8.57763">
        <ele>543</ele>
        <time>2021-08-10T11:06:00.819Z</time>
      </trkpt>
      <trkpt lat="46.92821" lon="8.57762">
        <ele>543</ele>
        <time>2021-08-10T11:06:01.819Z</time>
      </trkpt>
      <trkpt lat="46.9282" lon="8.57761">
        <ele>543</ele>
        <time>2021-08-10T11:06:02.820Z</time>
      </trkpt>
      <trkpt lat="46.92819" lon="8.5776">
        <ele>544</ele>
        <time>2021-08-10T11:06:03.819Z</time>
      </trkpt>
      <trkpt lat="46.92819" lon="8.5776">
        <ele>544</ele>
        <time>2021-08-10T11:06:04.819Z</time>
      </trkpt>
      <trkpt lat="46.92818" lon="8.57759">
        <ele>545</ele>
        <time>2021-08-10T11:06:05.820Z</time>
      </trkpt>
      <trkpt lat="46.92818" lon="8.57759">
        <ele>545</ele>
        <time>2021-08-10T11:06:06.819Z</time>
      </trkpt>
      <trkpt lat="46.92818" lon="8.57759">
        <ele>545</ele>
        <time>2021-08-10T11:06:07.819Z</time>
      </trkpt>
      <trkpt lat="46.92817" lon="8.57759">
        <ele>545</ele>
        <time>2021-08-10T11:06:08.819Z</time>
      </trkpt>
      <trkpt lat="46.92816" lon="8.57759">
        <ele>545</ele>
        <time>2021-08-10T11:06:09.820Z</time>
      </trkpt>
      <trkpt lat="46.92816" lon="8.57759">
        <ele>545</ele>
        <time>2021-08-10T11:06:10.820Z</time>
      </trkpt>
      <trkpt lat="46.92815" lon="8.57759">
        <ele>545</ele>
        <time>2021-08-10T11:06:11.819Z</time>
      </trkpt>
      <trkpt lat="46.92815" lon="8.57759">
        <ele>545</ele>
        <time>2021-08-10T11:06:12.820Z</time>
      </trkpt>
      <trkpt lat="46.92815" lon="8.57758">
        <ele>545</ele>
        <time>2021-08-10T11:06:13.820Z</time>
      </trkpt>
      <trkpt lat="46.92814" lon="8.57758">
        <ele>545</ele>
        <time>2021-08-10T11:06:14.819Z</time>
      </trkpt>
      <trkpt lat="46.92814" lon="8.57758">
        <ele>544</ele>
        <time>2021-08-10T11:06:15.820Z</time>
      </trkpt>
      <trkpt lat="46.92814" lon="8.57758">
        <ele>544</ele>
        <time>2021-08-10T11:06:16.820Z</time>
      </trkpt>
      <trkpt lat="46.92813" lon="8.57758">
        <ele>544</ele>
        <time>2021-08-10T11:06:17.819Z</time>
      </trkpt>
      <trkpt lat="46.92812" lon="8.57758">
        <ele>544</ele>
        <time>2021-08-10T11:06:18.820Z</time>
      </trkpt>
      <trkpt lat="46.92811" lon="8.57757">
        <ele>544</ele>
        <time>2021-08-10T11:06:19.819Z</time>
      </trkpt>
      <trkpt lat="46.92811" lon="8.57756">
        <ele>544</ele>
        <time>2021-08-10T11:06:20.819Z</time>
      </trkpt>
      <trkpt lat="46.9281" lon="8.57754">
        <ele>544</ele>
        <time>2021-08-10T11:06:21.820Z</time>
      </trkpt>
      <trkpt lat="46.92809" lon="8.57754">
        <ele>544</ele>
        <time>2021-08-10T11:06:22.819Z</time>
      </trkpt>
      <trkpt lat="46.92807" lon="8.57756">
        <ele>544</ele>
        <time>2021-08-10T11:06:23.820Z</time>
      </trkpt>
      <trkpt lat="46.92806" lon="8.57758">
        <ele>544</ele>
        <time>2021-08-10T11:06:24.819Z</time>
      </trkpt>
      <trkpt lat="46.92806" lon="8.57759">
        <ele>544</ele>
        <time>2021-08-10T11:06:25.820Z</time>
      </trkpt>
      <trkpt lat="46.92806" lon="8.57759">
        <ele>545</ele>
        <time>2021-08-10T11:06:26.819Z</time>
      </trkpt>
      <trkpt lat="46.92807" lon="8.57759">
        <ele>545</ele>
        <time>2021-08-10T11:06:27.819Z</time>
      </trkpt>
      <trkpt lat="46.92807" lon="8.5776">
        <ele>545</ele>
        <time>2021-08-10T11:06:28.819Z</time>
      </trkpt>
      <trkpt lat="46.92807" lon="8.57761">
        <ele>545</ele>
        <time>2021-08-10T11:06:29.820Z</time>
      </trkpt>
      <trkpt lat="46.92807" lon="8.57762">
        <ele>545</ele>
        <time>2021-08-10T11:06:30.819Z</time>
      </trkpt>
      <trkpt lat="46.92807" lon="8.57763">
        <ele>546</ele>
        <time>2021-08-10T11:06:31.819Z</time>
      </trkpt>
      <trkpt lat="46.92807" lon="8.57764">
        <ele>546</ele>
        <time>2021-08-10T11:06:32.820Z</time>
      </trkpt>
      <trkpt lat="46.92807" lon="8.57765">
        <ele>546</ele>
        <time>2021-08-10T11:06:33.820Z</time>
      </trkpt>
      <trkpt lat="46.92807" lon="8.57766">
        <ele>546</ele>
        <time>2021-08-10T11:06:34.820Z</time>
      </trkpt>
      <trkpt lat="46.92807" lon="8.57766">
        <ele>546</ele>
        <time>2021-08-10T11:06:35.820Z</time>
      </trkpt>
      <trkpt lat="46.92807" lon="8.57767">
        <ele>546</ele>
        <time>2021-08-10T11:06:36.820Z</time>
      </trkpt>
      <trkpt lat="46.92808" lon="8.57767">
        <ele>547</ele>
        <time>2021-08-10T11:06:37.820Z</time>
      </trkpt>
      <trkpt lat="46.92809" lon="8.57771">
        <ele>551</ele>
        <time>2021-08-10T11:06:38.819Z</time>
      </trkpt>
      <trkpt lat="46.92808" lon="8.57772">
        <ele>551</ele>
        <time>2021-08-10T11:06:39.820Z</time>
      </trkpt>
      <trkpt lat="46.92809" lon="8.57773">
        <ele>552</ele>
        <time>2021-08-10T11:06:40.819Z</time>
      </trkpt>
      <trkpt lat="46.92809" lon="8.57772">
        <ele>552</ele>
        <time>2021-08-10T11:06:41.819Z</time>
      </trkpt>
      <trkpt lat="46.92809" lon="8.57771">
        <ele>552</ele>
        <time>2021-08-10T11:06:42.819Z</time>
      </trkpt>
      <trkpt lat="46.92806" lon="8.57769">
        <ele>554</ele>
        <time>2021-08-10T11:06:43.820Z</time>
      </trkpt>
      <trkpt lat="46.92806" lon="8.57769">
        <ele>554</ele>
        <time>2021-08-10T11:06:44.819Z</time>
      </trkpt>
      <trkpt lat="46.92806" lon="8.57769">
        <ele>555</ele>
        <time>2021-08-10T11:06:45.820Z</time>
      </trkpt>
      <trkpt lat="46.92805" lon="8.57768">
        <ele>555</ele>
        <time>2021-08-10T11:06:46.819Z</time>
      </trkpt>
      <trkpt lat="46.92805" lon="8.57768">
        <ele>555</ele>
        <time>2021-08-10T11:06:47.819Z</time>
      </trkpt>
      <trkpt lat="46.92804" lon="8.57767">
        <ele>556</ele>
        <time>2021-08-10T11:06:48.819Z</time>
      </trkpt>
      <trkpt lat="46.92804" lon="8.57766">
        <ele>556</ele>
        <time>2021-08-10T11:06:49.820Z</time>
      </trkpt>
      <trkpt lat="46.92804" lon="8.57765">
        <ele>557</ele>
        <time>2021-08-10T11:06:50.819Z</time>
      </trkpt>
      <trkpt lat="46.92803" lon="8.57764">
        <ele>557</ele>
        <time>2021-08-10T11:06:51.820Z</time>
      </trkpt>
      <trkpt lat="46.92803" lon="8.57764">
        <ele>557</ele>
        <time>2021-08-10T11:06:52.820Z</time>
      </trkpt>
      <trkpt lat="46.92801" lon="8.57762">
        <ele>558</ele>
        <time>2021-08-10T11:06:53.820Z</time>
      </trkpt>
      <trkpt lat="46.92801" lon="8.57761">
        <ele>558</ele>
        <time>2021-08-10T11:06:54.819Z</time>
      </trkpt>
      <trkpt lat="46.928" lon="8.5776">
        <ele>558</ele>
        <time>2021-08-10T11:06:55.819Z</time>
      </trkpt>
      <trkpt lat="46.928" lon="8.57759">
        <ele>558</ele>
        <time>2021-08-10T11:06:56.820Z</time>
      </trkpt>
      <trkpt lat="46.928" lon="8.57759">
        <ele>557</ele>
        <time>2021-08-10T11:06:57.820Z</time>
      </trkpt>
      <trkpt lat="46.92799" lon="8.57758">
        <ele>557</ele>
        <time>2021-08-10T11:06:58.820Z</time>
      </trkpt>
      <trkpt lat="46.92798" lon="8.57757">
        <ele>556</ele>
        <time>2021-08-10T11:06:59.819Z</time>
      </trkpt>
      <trkpt lat="46.92797" lon="8.57757">
        <ele>556</ele>
        <time>2021-08-10T11:07:00.819Z</time>
      </trkpt>
      <trkpt lat="46.92796" lon="8.57755">
        <ele>556</ele>
        <time>2021-08-10T11:07:01.820Z</time>
      </trkpt>
      <trkpt lat="46.92794" lon="8.57753">
        <ele>556</ele>
        <time>2021-08-10T11:07:02.819Z</time>
      </trkpt>
      <trkpt lat="46.92794" lon="8.57752">
        <ele>555</ele>
        <time>2021-08-10T11:07:03.820Z</time>
      </trkpt>
      <trkpt lat="46.92794" lon="8.57751">
        <ele>555</ele>
        <time>2021-08-10T11:07:04.819Z</time>
      </trkpt>
      <trkpt lat="46.92794" lon="8.5775">
        <ele>554</ele>
        <time>2021-08-10T11:07:05.820Z</time>
      </trkpt>
      <trkpt lat="46.92794" lon="8.5775">
        <ele>553</ele>
        <time>2021-08-10T11:07:06.820Z</time>
      </trkpt>
      <trkpt lat="46.92794" lon="8.57749">
        <ele>552</ele>
        <time>2021-08-10T11:07:07.820Z</time>
      </trkpt>
      <trkpt lat="46.92794" lon="8.57749">
        <ele>551</ele>
        <time>2021-08-10T11:07:08.820Z</time>
      </trkpt>
      <trkpt lat="46.92793" lon="8.57748">
        <ele>551</ele>
        <time>2021-08-10T11:07:09.820Z</time>
      </trkpt>
      <trkpt lat="46.92793" lon="8.57748">
        <ele>550</ele>
        <time>2021-08-10T11:07:10.820Z</time>
      </trkpt>
      <trkpt lat="46.92792" lon="8.57747">
        <ele>550</ele>
        <time>2021-08-10T11:07:11.821Z</time>
      </trkpt>
      <trkpt lat="46.92792" lon="8.57747">
        <ele>550</ele>
        <time>2021-08-10T11:07:12.820Z</time>
      </trkpt>
      <trkpt lat="46.92793" lon="8.57747">
        <ele>550</ele>
        <time>2021-08-10T11:07:13.820Z</time>
      </trkpt>
      <trkpt lat="46.92793" lon="8.57747">
        <ele>550</ele>
        <time>2021-08-10T11:07:14.821Z</time>
      </trkpt>
      <trkpt lat="46.92793" lon="8.57746">
        <ele>550</ele>
        <time>2021-08-10T11:07:15.821Z</time>
      </trkpt>
      <trkpt lat="46.92794" lon="8.57746">
        <ele>551</ele>
        <time>2021-08-10T11:07:16.821Z</time>
      </trkpt>
      <trkpt lat="46.92794" lon="8.57746">
        <ele>551</ele>
        <time>2021-08-10T11:07:17.821Z</time>
      </trkpt>
      <trkpt lat="46.9279" lon="8.57743">
        <ele>551</ele>
        <time>2021-08-10T11:07:18.820Z</time>
      </trkpt>
      <trkpt lat="46.92789" lon="8.57743">
        <ele>551</ele>
        <time>2021-08-10T11:07:19.820Z</time>
      </trkpt>
      <trkpt lat="46.92789" lon="8.57742">
        <ele>550</ele>
        <time>2021-08-10T11:07:20.820Z</time>
      </trkpt>
      <trkpt lat="46.92788" lon="8.57742">
        <ele>550</ele>
        <time>2021-08-10T11:07:21.820Z</time>
      </trkpt>
      <trkpt lat="46.92788" lon="8.57742">
        <ele>550</ele>
        <time>2021-08-10T11:07:22.820Z</time>
      </trkpt>
      <trkpt lat="46.92788" lon="8.57741">
        <ele>550</ele>
        <time>2021-08-10T11:07:23.821Z</time>
      </trkpt>
      <trkpt lat="46.92787" lon="8.5774">
        <ele>550</ele>
        <time>2021-08-10T11:07:24.821Z</time>
      </trkpt>
      <trkpt lat="46.92786" lon="8.5774">
        <ele>550</ele>
        <time>2021-08-10T11:07:25.821Z</time>
      </trkpt>
      <trkpt lat="46.92786" lon="8.5774">
        <ele>550</ele>
        <time>2021-08-10T11:07:26.821Z</time>
      </trkpt>
      <trkpt lat="46.92785" lon="8.5774">
        <ele>549</ele>
        <time>2021-08-10T11:07:27.821Z</time>
      </trkpt>
      <trkpt lat="46.92785" lon="8.57739">
        <ele>549</ele>
        <time>2021-08-10T11:07:28.821Z</time>
      </trkpt>
      <trkpt lat="46.92784" lon="8.57739">
        <ele>550</ele>
        <time>2021-08-10T11:07:29.821Z</time>
      </trkpt>
      <trkpt lat="46.92783" lon="8.57739">
        <ele>550</ele>
        <time>2021-08-10T11:07:30.821Z</time>
      </trkpt>
      <trkpt lat="46.92783" lon="8.57738">
        <ele>550</ele>
        <time>2021-08-10T11:07:31.820Z</time>
      </trkpt>
      <trkpt lat="46.92782" lon="8.57739">
        <ele>550</ele>
        <time>2021-08-10T11:07:32.820Z</time>
      </trkpt>
      <trkpt lat="46.92782" lon="8.57739">
        <ele>550</ele>
        <time>2021-08-10T11:07:33.821Z</time>
      </trkpt>
      <trkpt lat="46.92781" lon="8.57739">
        <ele>551</ele>
        <time>2021-08-10T11:07:34.821Z</time>
      </trkpt>
      <trkpt lat="46.9278" lon="8.57739">
        <ele>551</ele>
        <time>2021-08-10T11:07:35.821Z</time>
      </trkpt>
      <trkpt lat="46.92779" lon="8.57739">
        <ele>552</ele>
        <time>2021-08-10T11:07:36.821Z</time>
      </trkpt>
      <trkpt lat="46.92779" lon="8.5774">
        <ele>552</ele>
        <time>2021-08-10T11:07:37.821Z</time>
      </trkpt>
      <trkpt lat="46.92778" lon="8.5774">
        <ele>553</ele>
        <time>2021-08-10T11:07:38.821Z</time>
      </trkpt>
      <trkpt lat="46.92777" lon="8.5774">
        <ele>554</ele>
        <time>2021-08-10T11:07:39.821Z</time>
      </trkpt>
      <trkpt lat="46.92777" lon="8.5774">
        <ele>555</ele>
        <time>2021-08-10T11:07:40.821Z</time>
      </trkpt>
      <trkpt lat="46.92776" lon="8.5774">
        <ele>555</ele>
        <time>2021-08-10T11:07:41.821Z</time>
      </trkpt>
      <trkpt lat="46.92776" lon="8.5774">
        <ele>556</ele>
        <time>2021-08-10T11:07:42.821Z</time>
      </trkpt>
      <trkpt lat="46.92775" lon="8.57739">
        <ele>557</ele>
        <time>2021-08-10T11:07:43.821Z</time>
      </trkpt>
      <trkpt lat="46.92775" lon="8.57739">
        <ele>558</ele>
        <time>2021-08-10T11:07:44.821Z</time>
      </trkpt>
      <trkpt lat="46.92774" lon="8.57738">
        <ele>558</ele>
        <time>2021-08-10T11:07:45.820Z</time>
      </trkpt>
      <trkpt lat="46.92774" lon="8.57738">
        <ele>559</ele>
        <time>2021-08-10T11:07:46.821Z</time>
      </trkpt>
      <trkpt lat="46.92773" lon="8.57738">
        <ele>560</ele>
        <time>2021-08-10T11:07:47.821Z</time>
      </trkpt>
      <trkpt lat="46.92773" lon="8.57738">
        <ele>561</ele>
        <time>2021-08-10T11:07:48.821Z</time>
      </trkpt>
      <trkpt lat="46.92772" lon="8.57737">
        <ele>562</ele>
        <time>2021-08-10T11:07:49.821Z</time>
      </trkpt>
      <trkpt lat="46.92772" lon="8.57737">
        <ele>563</ele>
        <time>2021-08-10T11:07:50.821Z</time>
      </trkpt>
      <trkpt lat="46.92771" lon="8.57737">
        <ele>564</ele>
        <time>2021-08-10T11:07:51.821Z</time>
      </trkpt>
      <trkpt lat="46.92771" lon="8.57736">
        <ele>565</ele>
        <time>2021-08-10T11:07:52.821Z</time>
      </trkpt>
      <trkpt lat="46.9277" lon="8.57736">
        <ele>566</ele>
        <time>2021-08-10T11:07:53.821Z</time>
      </trkpt>
      <trkpt lat="46.9277" lon="8.57736">
        <ele>567</ele>
        <time>2021-08-10T11:07:54.821Z</time>
      </trkpt>
      <trkpt lat="46.92769" lon="8.57735">
        <ele>567</ele>
        <time>2021-08-10T11:07:55.821Z</time>
      </trkpt>
      <trkpt lat="46.92769" lon="8.57734">
        <ele>567</ele>
        <time>2021-08-10T11:07:56.821Z</time>
      </trkpt>
      <trkpt lat="46.92768" lon="8.57734">
        <ele>568</ele>
        <time>2021-08-10T11:07:57.821Z</time>
      </trkpt>
      <trkpt lat="46.92768" lon="8.57734">
        <ele>568</ele>
        <time>2021-08-10T11:07:58.821Z</time>
      </trkpt>
      <trkpt lat="46.92768" lon="8.57734">
        <ele>569</ele>
        <time>2021-08-10T11:07:59.821Z</time>
      </trkpt>
      <trkpt lat="46.92769" lon="8.57734">
        <ele>569</ele>
        <time>2021-08-10T11:08:00.822Z</time>
      </trkpt>
      <trkpt lat="46.92769" lon="8.57734">
        <ele>568</ele>
        <time>2021-08-10T11:08:01.822Z</time>
      </trkpt>
      <trkpt lat="46.92768" lon="8.57733">
        <ele>567</ele>
        <time>2021-08-10T11:08:02.821Z</time>
      </trkpt>
      <trkpt lat="46.92768" lon="8.57733">
        <ele>567</ele>
        <time>2021-08-10T11:08:03.822Z</time>
      </trkpt>
      <trkpt lat="46.92767" lon="8.57733">
        <ele>567</ele>
        <time>2021-08-10T11:08:04.821Z</time>
      </trkpt>
      <trkpt lat="46.92768" lon="8.5773">
        <ele>568</ele>
        <time>2021-08-10T11:08:05.822Z</time>
      </trkpt>
      <trkpt lat="46.92768" lon="8.5773">
        <ele>567</ele>
        <time>2021-08-10T11:08:06.821Z</time>
      </trkpt>
      <trkpt lat="46.92768" lon="8.5773">
        <ele>567</ele>
        <time>2021-08-10T11:08:07.822Z</time>
      </trkpt>
      <trkpt lat="46.92767" lon="8.57731">
        <ele>567</ele>
        <time>2021-08-10T11:08:08.821Z</time>
      </trkpt>
      <trkpt lat="46.92767" lon="8.57731">
        <ele>567</ele>
        <time>2021-08-10T11:08:09.821Z</time>
      </trkpt>
      <trkpt lat="46.92767" lon="8.57731">
        <ele>567</ele>
        <time>2021-08-10T11:08:10.821Z</time>
      </trkpt>
      <trkpt lat="46.92766" lon="8.57731">
        <ele>566</ele>
        <time>2021-08-10T11:08:11.822Z</time>
      </trkpt>
      <trkpt lat="46.92766" lon="8.57732">
        <ele>566</ele>
        <time>2021-08-10T11:08:12.821Z</time>
      </trkpt>
      <trkpt lat="46.92765" lon="8.57732">
        <ele>566</ele>
        <time>2021-08-10T11:08:13.822Z</time>
      </trkpt>
      <trkpt lat="46.92765" lon="8.57732">
        <ele>566</ele>
        <time>2021-08-10T11:08:14.821Z</time>
      </trkpt>
      <trkpt lat="46.92764" lon="8.57733">
        <ele>566</ele>
        <time>2021-08-10T11:08:15.822Z</time>
      </trkpt>
      <trkpt lat="46.92764" lon="8.57734">
        <ele>566</ele>
        <time>2021-08-10T11:08:16.821Z</time>
      </trkpt>
      <trkpt lat="46.92763" lon="8.57735">
        <ele>565</ele>
        <time>2021-08-10T11:08:17.821Z</time>
      </trkpt>
      <trkpt lat="46.92762" lon="8.57736">
        <ele>565</ele>
        <time>2021-08-10T11:08:18.821Z</time>
      </trkpt>
      <trkpt lat="46.92762" lon="8.57737">
        <ele>565</ele>
        <time>2021-08-10T11:08:19.821Z</time>
      </trkpt>
      <trkpt lat="46.92762" lon="8.57737">
        <ele>565</ele>
        <time>2021-08-10T11:08:20.822Z</time>
      </trkpt>
      <trkpt lat="46.92762" lon="8.57738">
        <ele>565</ele>
        <time>2021-08-10T11:08:21.821Z</time>
      </trkpt>
      <trkpt lat="46.92761" lon="8.57738">
        <ele>565</ele>
        <time>2021-08-10T11:08:22.821Z</time>
      </trkpt>
      <trkpt lat="46.9276" lon="8.57738">
        <ele>565</ele>
        <time>2021-08-10T11:08:23.821Z</time>
      </trkpt>
      <trkpt lat="46.92759" lon="8.57738">
        <ele>565</ele>
        <time>2021-08-10T11:08:24.822Z</time>
      </trkpt>
      <trkpt lat="46.92759" lon="8.57739">
        <ele>565</ele>
        <time>2021-08-10T11:08:25.822Z</time>
      </trkpt>
      <trkpt lat="46.92758" lon="8.5774">
        <ele>564</ele>
        <time>2021-08-10T11:08:26.821Z</time>
      </trkpt>
      <trkpt lat="46.92757" lon="8.5774">
        <ele>564</ele>
        <time>2021-08-10T11:08:27.822Z</time>
      </trkpt>
      <trkpt lat="46.92757" lon="8.5774">
        <ele>564</ele>
        <time>2021-08-10T11:08:28.822Z</time>
      </trkpt>
      <trkpt lat="46.92756" lon="8.57741">
        <ele>564</ele>
        <time>2021-08-10T11:08:29.822Z</time>
      </trkpt>
      <trkpt lat="46.92756" lon="8.5774">
        <ele>564</ele>
        <time>2021-08-10T11:08:30.822Z</time>
      </trkpt>
      <trkpt lat="46.92754" lon="8.5774">
        <ele>564</ele>
        <time>2021-08-10T11:08:31.822Z</time>
      </trkpt>
      <trkpt lat="46.92753" lon="8.5774">
        <ele>564</ele>
        <time>2021-08-10T11:08:32.822Z</time>
      </trkpt>
      <trkpt lat="46.92752" lon="8.57739">
        <ele>565</ele>
        <time>2021-08-10T11:08:33.822Z</time>
      </trkpt>
      <trkpt lat="46.92751" lon="8.57739">
        <ele>565</ele>
        <time>2021-08-10T11:08:34.821Z</time>
      </trkpt>
      <trkpt lat="46.92751" lon="8.57739">
        <ele>565</ele>
        <time>2021-08-10T11:08:35.821Z</time>
      </trkpt>
      <trkpt lat="46.92751" lon="8.57739">
        <ele>565</ele>
        <time>2021-08-10T11:08:36.821Z</time>
      </trkpt>
      <trkpt lat="46.92749" lon="8.5774">
        <ele>566</ele>
        <time>2021-08-10T11:08:37.823Z</time>
      </trkpt>
      <trkpt lat="46.92749" lon="8.57741">
        <ele>566</ele>
        <time>2021-08-10T11:08:38.823Z</time>
      </trkpt>
      <trkpt lat="46.92748" lon="8.57742">
        <ele>566</ele>
        <time>2021-08-10T11:08:39.822Z</time>
      </trkpt>
      <trkpt lat="46.92748" lon="8.57743">
        <ele>566</ele>
        <time>2021-08-10T11:08:40.823Z</time>
      </trkpt>
      <trkpt lat="46.92748" lon="8.57744">
        <ele>567</ele>
        <time>2021-08-10T11:08:41.823Z</time>
      </trkpt>
      <trkpt lat="46.92748" lon="8.57745">
        <ele>567</ele>
        <time>2021-08-10T11:08:42.822Z</time>
      </trkpt>
      <trkpt lat="46.92748" lon="8.57746">
        <ele>568</ele>
        <time>2021-08-10T11:08:43.823Z</time>
      </trkpt>
      <trkpt lat="46.92748" lon="8.57747">
        <ele>568</ele>
        <time>2021-08-10T11:08:44.823Z</time>
      </trkpt>
      <trkpt lat="46.92748" lon="8.57748">
        <ele>568</ele>
        <time>2021-08-10T11:08:45.823Z</time>
      </trkpt>
      <trkpt lat="46.92748" lon="8.57749">
        <ele>568</ele>
        <time>2021-08-10T11:08:46.822Z</time>
      </trkpt>
      <trkpt lat="46.92748" lon="8.5775">
        <ele>568</ele>
        <time>2021-08-10T11:08:47.823Z</time>
      </trkpt>
      <trkpt lat="46.92748" lon="8.57751">
        <ele>568</ele>
        <time>2021-08-10T11:08:48.823Z</time>
      </trkpt>
      <trkpt lat="46.92748" lon="8.57752">
        <ele>568</ele>
        <time>2021-08-10T11:08:49.823Z</time>
      </trkpt>
      <trkpt lat="46.92747" lon="8.57753">
        <ele>568</ele>
        <time>2021-08-10T11:08:50.822Z</time>
      </trkpt>
      <trkpt lat="46.92748" lon="8.57755">
        <ele>569</ele>
        <time>2021-08-10T11:08:51.823Z</time>
      </trkpt>
      <trkpt lat="46.92748" lon="8.57756">
        <ele>569</ele>
        <time>2021-08-10T11:08:52.822Z</time>
      </trkpt>
      <trkpt lat="46.92748" lon="8.57758">
        <ele>570</ele>
        <time>2021-08-10T11:08:53.823Z</time>
      </trkpt>
      <trkpt lat="46.92749" lon="8.57761">
        <ele>570</ele>
        <time>2021-08-10T11:08:54.823Z</time>
      </trkpt>
      <trkpt lat="46.92749" lon="8.57763">
        <ele>571</ele>
        <time>2021-08-10T11:08:55.823Z</time>
      </trkpt>
      <trkpt lat="46.9275" lon="8.57764">
        <ele>571</ele>
        <time>2021-08-10T11:08:56.823Z</time>
      </trkpt>
      <trkpt lat="46.9275" lon="8.57765">
        <ele>571</ele>
        <time>2021-08-10T11:08:57.823Z</time>
      </trkpt>
      <trkpt lat="46.9275" lon="8.57766">
        <ele>571</ele>
        <time>2021-08-10T11:08:58.823Z</time>
      </trkpt>
      <trkpt lat="46.9275" lon="8.57767">
        <ele>571</ele>
        <time>2021-08-10T11:08:59.822Z</time>
      </trkpt>
      <trkpt lat="46.9275" lon="8.57767">
        <ele>571</ele>
        <time>2021-08-10T11:09:00.823Z</time>
      </trkpt>
      <trkpt lat="46.92749" lon="8.57768">
        <ele>571</ele>
        <time>2021-08-10T11:09:01.822Z</time>
      </trkpt>
      <trkpt lat="46.9275" lon="8.57769">
        <ele>571</ele>
        <time>2021-08-10T11:09:02.822Z</time>
      </trkpt>
      <trkpt lat="46.92751" lon="8.57769">
        <ele>571</ele>
        <time>2021-08-10T11:09:03.822Z</time>
      </trkpt>
      <trkpt lat="46.92751" lon="8.5777">
        <ele>571</ele>
        <time>2021-08-10T11:09:04.822Z</time>
      </trkpt>
      <trkpt lat="46.92751" lon="8.57771">
        <ele>571</ele>
        <time>2021-08-10T11:09:05.823Z</time>
      </trkpt>
      <trkpt lat="46.9275" lon="8.57772">
        <ele>570</ele>
        <time>2021-08-10T11:09:06.823Z</time>
      </trkpt>
      <trkpt lat="46.9275" lon="8.57774">
        <ele>570</ele>
        <time>2021-08-10T11:09:07.823Z</time>
      </trkpt>
      <trkpt lat="46.9275" lon="8.57775">
        <ele>570</ele>
        <time>2021-08-10T11:09:08.823Z</time>
      </trkpt>
      <trkpt lat="46.9275" lon="8.57777">
        <ele>570</ele>
        <time>2021-08-10T11:09:09.823Z</time>
      </trkpt>
      <trkpt lat="46.92749" lon="8.57778">
        <ele>570</ele>
        <time>2021-08-10T11:09:10.822Z</time>
      </trkpt>
      <trkpt lat="46.92748" lon="8.57779">
        <ele>570</ele>
        <time>2021-08-10T11:09:11.822Z</time>
      </trkpt>
      <trkpt lat="46.92747" lon="8.5778">
        <ele>570</ele>
        <time>2021-08-10T11:09:12.822Z</time>
      </trkpt>
      <trkpt lat="46.92747" lon="8.5778">
        <ele>569</ele>
        <time>2021-08-10T11:09:13.823Z</time>
      </trkpt>
      <trkpt lat="46.92746" lon="8.57781">
        <ele>569</ele>
        <time>2021-08-10T11:09:14.823Z</time>
      </trkpt>
      <trkpt lat="46.92746" lon="8.57781">
        <ele>569</ele>
        <time>2021-08-10T11:09:15.822Z</time>
      </trkpt>
      <trkpt lat="46.92746" lon="8.57782">
        <ele>569</ele>
        <time>2021-08-10T11:09:16.822Z</time>
      </trkpt>
      <trkpt lat="46.92746" lon="8.57782">
        <ele>569</ele>
        <time>2021-08-10T11:09:17.823Z</time>
      </trkpt>
      <trkpt lat="46.92745" lon="8.57782">
        <ele>569</ele>
        <time>2021-08-10T11:09:18.822Z</time>
      </trkpt>
      <trkpt lat="46.92744" lon="8.57781">
        <ele>569</ele>
        <time>2021-08-10T11:09:19.823Z</time>
      </trkpt>
      <trkpt lat="46.92743" lon="8.5778">
        <ele>569</ele>
        <time>2021-08-10T11:09:20.822Z</time>
      </trkpt>
      <trkpt lat="46.92742" lon="8.5778">
        <ele>569</ele>
        <time>2021-08-10T11:09:21.823Z</time>
      </trkpt>
      <trkpt lat="46.92741" lon="8.57779">
        <ele>570</ele>
        <time>2021-08-10T11:09:22.823Z</time>
      </trkpt>
      <trkpt lat="46.92741" lon="8.57779">
        <ele>570</ele>
        <time>2021-08-10T11:09:23.823Z</time>
      </trkpt>
      <trkpt lat="46.9274" lon="8.57779">
        <ele>570</ele>
        <time>2021-08-10T11:09:24.823Z</time>
      </trkpt>
      <trkpt lat="46.9274" lon="8.57779">
        <ele>571</ele>
        <time>2021-08-10T11:09:25.823Z</time>
      </trkpt>
      <trkpt lat="46.9274" lon="8.57778">
        <ele>571</ele>
        <time>2021-08-10T11:09:26.823Z</time>
      </trkpt>
      <trkpt lat="46.92741" lon="8.57778">
        <ele>572</ele>
        <time>2021-08-10T11:09:27.823Z</time>
      </trkpt>
      <trkpt lat="46.92741" lon="8.57778">
        <ele>573</ele>
        <time>2021-08-10T11:09:28.822Z</time>
      </trkpt>
      <trkpt lat="46.92741" lon="8.57776">
        <ele>577</ele>
        <time>2021-08-10T11:09:29.822Z</time>
      </trkpt>
      <trkpt lat="46.92742" lon="8.57776">
        <ele>578</ele>
        <time>2021-08-10T11:09:30.823Z</time>
      </trkpt>
      <trkpt lat="46.92743" lon="8.57775">
        <ele>579</ele>
        <time>2021-08-10T11:09:31.823Z</time>
      </trkpt>
      <trkpt lat="46.92743" lon="8.57775">
        <ele>579</ele>
        <time>2021-08-10T11:09:32.823Z</time>
      </trkpt>
      <trkpt lat="46.92743" lon="8.57774">
        <ele>580</ele>
        <time>2021-08-10T11:09:33.822Z</time>
      </trkpt>
      <trkpt lat="46.92742" lon="8.57774">
        <ele>580</ele>
        <time>2021-08-10T11:09:34.822Z</time>
      </trkpt>
      <trkpt lat="46.92742" lon="8.57773">
        <ele>580</ele>
        <time>2021-08-10T11:09:35.822Z</time>
      </trkpt>
      <trkpt lat="46.92741" lon="8.57773">
        <ele>580</ele>
        <time>2021-08-10T11:09:36.822Z</time>
      </trkpt>
      <trkpt lat="46.92741" lon="8.57773">
        <ele>580</ele>
        <time>2021-08-10T11:09:37.823Z</time>
      </trkpt>
      <trkpt lat="46.92742" lon="8.57772">
        <ele>580</ele>
        <time>2021-08-10T11:09:38.823Z</time>
      </trkpt>
      <trkpt lat="46.92742" lon="8.57773">
        <ele>580</ele>
        <time>2021-08-10T11:09:39.822Z</time>
      </trkpt>
      <trkpt lat="46.92741" lon="8.57773">
        <ele>580</ele>
        <time>2021-08-10T11:09:40.823Z</time>
      </trkpt>
      <trkpt lat="46.92741" lon="8.57774">
        <ele>580</ele>
        <time>2021-08-10T11:09:41.822Z</time>
      </trkpt>
      <trkpt lat="46.92741" lon="8.57774">
        <ele>580</ele>
        <time>2021-08-10T11:09:42.823Z</time>
      </trkpt>
      <trkpt lat="46.92741" lon="8.57774">
        <ele>580</ele>
        <time>2021-08-10T11:09:43.822Z</time>
      </trkpt>
      <trkpt lat="46.92739" lon="8.57776">
        <ele>578</ele>
        <time>2021-08-10T11:09:44.825Z</time>
      </trkpt>
      <trkpt lat="46.92739" lon="8.57776">
        <ele>578</ele>
        <time>2021-08-10T11:09:45.825Z</time>
      </trkpt>
      <trkpt lat="46.92738" lon="8.57776">
        <ele>577</ele>
        <time>2021-08-10T11:09:46.824Z</time>
      </trkpt>
      <trkpt lat="46.92738" lon="8.57776">
        <ele>577</ele>
        <time>2021-08-10T11:09:47.825Z</time>
      </trkpt>
      <trkpt lat="46.92738" lon="8.57778">
        <ele>577</ele>
        <time>2021-08-10T11:09:48.824Z</time>
      </trkpt>
      <trkpt lat="46.92738" lon="8.57779">
        <ele>577</ele>
        <time>2021-08-10T11:09:49.824Z</time>
      </trkpt>
      <trkpt lat="46.92737" lon="8.57779">
        <ele>576</ele>
        <time>2021-08-10T11:09:50.824Z</time>
      </trkpt>
      <trkpt lat="46.92737" lon="8.57779">
        <ele>576</ele>
        <time>2021-08-10T11:09:51.825Z</time>
      </trkpt>
      <trkpt lat="46.92736" lon="8.57779">
        <ele>576</ele>
        <time>2021-08-10T11:09:52.825Z</time>
      </trkpt>
      <trkpt lat="46.92737" lon="8.57779">
        <ele>575</ele>
        <time>2021-08-10T11:09:53.825Z</time>
      </trkpt>
      <trkpt lat="46.92736" lon="8.57779">
        <ele>575</ele>
        <time>2021-08-10T11:09:54.825Z</time>
      </trkpt>
      <trkpt lat="46.92736" lon="8.5778">
        <ele>575</ele>
        <time>2021-08-10T11:09:55.824Z</time>
      </trkpt>
      <trkpt lat="46.92736" lon="8.57781">
        <ele>575</ele>
        <time>2021-08-10T11:09:56.825Z</time>
      </trkpt>
      <trkpt lat="46.92734" lon="8.57783">
        <ele>575</ele>
        <time>2021-08-10T11:09:57.825Z</time>
      </trkpt>
      <trkpt lat="46.92733" lon="8.57783">
        <ele>575</ele>
        <time>2021-08-10T11:09:58.825Z</time>
      </trkpt>
      <trkpt lat="46.92733" lon="8.57784">
        <ele>575</ele>
        <time>2021-08-10T11:09:59.825Z</time>
      </trkpt>
      <trkpt lat="46.92733" lon="8.57783">
        <ele>576</ele>
        <time>2021-08-10T11:10:00.826Z</time>
      </trkpt>
      <trkpt lat="46.92733" lon="8.57784">
        <ele>576</ele>
        <time>2021-08-10T11:10:01.826Z</time>
      </trkpt>
      <trkpt lat="46.92733" lon="8.57782">
        <ele>577</ele>
        <time>2021-08-10T11:10:02.826Z</time>
      </trkpt>
      <trkpt lat="46.92734" lon="8.57782">
        <ele>578</ele>
        <time>2021-08-10T11:10:03.825Z</time>
      </trkpt>
      <trkpt lat="46.92735" lon="8.57783">
        <ele>578</ele>
        <time>2021-08-10T11:10:04.825Z</time>
      </trkpt>
      <trkpt lat="46.92735" lon="8.57784">
        <ele>578</ele>
        <time>2021-08-10T11:10:05.825Z</time>
      </trkpt>
      <trkpt lat="46.92736" lon="8.57784">
        <ele>578</ele>
        <time>2021-08-10T11:10:06.825Z</time>
      </trkpt>
      <trkpt lat="46.92736" lon="8.57785">
        <ele>578</ele>
        <time>2021-08-10T11:10:07.825Z</time>
      </trkpt>
      <trkpt lat="46.92735" lon="8.57785">
        <ele>578</ele>
        <time>2021-08-10T11:10:08.826Z</time>
      </trkpt>
      <trkpt lat="46.92735" lon="8.57786">
        <ele>578</ele>
        <time>2021-08-10T11:10:09.825Z</time>
      </trkpt>
      <trkpt lat="46.92735" lon="8.57786">
        <ele>578</ele>
        <time>2021-08-10T11:10:10.826Z</time>
      </trkpt>
      <trkpt lat="46.92734" lon="8.57786">
        <ele>578</ele>
        <time>2021-08-10T11:10:11.825Z</time>
      </trkpt>
      <trkpt lat="46.92734" lon="8.57786">
        <ele>579</ele>
        <time>2021-08-10T11:10:12.826Z</time>
      </trkpt>
      <trkpt lat="46.92734" lon="8.57786">
        <ele>579</ele>
        <time>2021-08-10T11:10:13.825Z</time>
      </trkpt>
      <trkpt lat="46.92733" lon="8.57786">
        <ele>580</ele>
        <time>2021-08-10T11:10:14.825Z</time>
      </trkpt>
      <trkpt lat="46.92733" lon="8.57786">
        <ele>580</ele>
        <time>2021-08-10T11:10:15.826Z</time>
      </trkpt>
      <trkpt lat="46.92732" lon="8.57785">
        <ele>581</ele>
        <time>2021-08-10T11:10:16.825Z</time>
      </trkpt>
      <trkpt lat="46.92732" lon="8.57785">
        <ele>582</ele>
        <time>2021-08-10T11:10:17.825Z</time>
      </trkpt>
      <trkpt lat="46.9273" lon="8.57781">
        <ele>583</ele>
        <time>2021-08-10T11:10:18.827Z</time>
      </trkpt>
      <trkpt lat="46.92729" lon="8.57781">
        <ele>583</ele>
        <time>2021-08-10T11:10:19.827Z</time>
      </trkpt>
      <trkpt lat="46.9273" lon="8.57777">
        <ele>584</ele>
        <time>2021-08-10T11:10:20.827Z</time>
      </trkpt>
      <trkpt lat="46.9273" lon="8.57777">
        <ele>584</ele>
        <time>2021-08-10T11:10:21.826Z</time>
      </trkpt>
      <trkpt lat="46.92729" lon="8.57777">
        <ele>584</ele>
        <time>2021-08-10T11:10:22.827Z</time>
      </trkpt>
      <trkpt lat="46.92729" lon="8.57777">
        <ele>583</ele>
        <time>2021-08-10T11:10:23.826Z</time>
      </trkpt>
      <trkpt lat="46.92729" lon="8.57776">
        <ele>583</ele>
        <time>2021-08-10T11:10:24.827Z</time>
      </trkpt>
      <trkpt lat="46.9273" lon="8.57775">
        <ele>579</ele>
        <time>2021-08-10T11:10:25.828Z</time>
      </trkpt>
      <trkpt lat="46.92731" lon="8.57777">
        <ele>587</ele>
        <time>2021-08-10T11:10:26.828Z</time>
      </trkpt>
      <trkpt lat="46.92731" lon="8.57778">
        <ele>588</ele>
        <time>2021-08-10T11:10:27.828Z</time>
      </trkpt>
      <trkpt lat="46.92732" lon="8.57778">
        <ele>589</ele>
        <time>2021-08-10T11:10:28.827Z</time>
      </trkpt>
      <trkpt lat="46.92731" lon="8.57778">
        <ele>590</ele>
        <time>2021-08-10T11:10:29.827Z</time>
      </trkpt>
      <trkpt lat="46.92729" lon="8.57777">
        <ele>600</ele>
        <time>2021-08-10T11:10:30.827Z</time>
      </trkpt>
      <trkpt lat="46.9273" lon="8.57775">
        <ele>601</ele>
        <time>2021-08-10T11:10:31.828Z</time>
      </trkpt>
      <trkpt lat="46.92731" lon="8.57775">
        <ele>603</ele>
        <time>2021-08-10T11:10:32.828Z</time>
      </trkpt>
      <trkpt lat="46.92732" lon="8.57776">
        <ele>601</ele>
        <time>2021-08-10T11:10:33.828Z</time>
      </trkpt>
      <trkpt lat="46.92732" lon="8.57777">
        <ele>600</ele>
        <time>2021-08-10T11:10:34.828Z</time>
      </trkpt>
      <trkpt lat="46.92731" lon="8.57777">
        <ele>600</ele>
        <time>2021-08-10T11:10:35.829Z</time>
      </trkpt>
      <trkpt lat="46.92729" lon="8.57776">
        <ele>598</ele>
        <time>2021-08-10T11:10:36.830Z</time>
      </trkpt>
      <trkpt lat="46.92729" lon="8.57776">
        <ele>597</ele>
        <time>2021-08-10T11:10:37.830Z</time>
      </trkpt>
      <trkpt lat="46.9273" lon="8.57775">
        <ele>595</ele>
        <time>2021-08-10T11:10:38.830Z</time>
      </trkpt>
      <trkpt lat="46.92729" lon="8.57775">
        <ele>594</ele>
        <time>2021-08-10T11:10:39.831Z</time>
      </trkpt>
      <trkpt lat="46.92729" lon="8.57775">
        <ele>594</ele>
        <time>2021-08-10T11:10:40.830Z</time>
      </trkpt>
      <trkpt lat="46.92728" lon="8.57775">
        <ele>593</ele>
        <time>2021-08-10T11:10:41.831Z</time>
      </trkpt>
      <trkpt lat="46.92728" lon="8.57775">
        <ele>593</ele>
        <time>2021-08-10T11:10:42.830Z</time>
      </trkpt>
      <trkpt lat="46.92727" lon="8.57776">
        <ele>592</ele>
        <time>2021-08-10T11:10:43.830Z</time>
      </trkpt>
      <trkpt lat="46.92727" lon="8.57777">
        <ele>591</ele>
        <time>2021-08-10T11:10:44.830Z</time>
      </trkpt>
      <trkpt lat="46.92727" lon="8.57778">
        <ele>591</ele>
        <time>2021-08-10T11:10:45.831Z</time>
      </trkpt>
      <trkpt lat="46.92727" lon="8.57779">
        <ele>590</ele>
        <time>2021-08-10T11:10:46.831Z</time>
      </trkpt>
      <trkpt lat="46.92727" lon="8.5778">
        <ele>590</ele>
        <time>2021-08-10T11:10:47.830Z</time>
      </trkpt>
      <trkpt lat="46.92727" lon="8.57781">
        <ele>590</ele>
        <time>2021-08-10T11:10:48.830Z</time>
      </trkpt>
      <trkpt lat="46.92727" lon="8.57782">
        <ele>590</ele>
        <time>2021-08-10T11:10:49.831Z</time>
      </trkpt>
      <trkpt lat="46.92727" lon="8.57783">
        <ele>590</ele>
        <time>2021-08-10T11:10:50.831Z</time>
      </trkpt>
      <trkpt lat="46.92727" lon="8.57784">
        <ele>589</ele>
        <time>2021-08-10T11:10:51.830Z</time>
      </trkpt>
      <trkpt lat="46.92726" lon="8.57785">
        <ele>590</ele>
        <time>2021-08-10T11:10:52.830Z</time>
      </trkpt>
      <trkpt lat="46.92726" lon="8.57786">
        <ele>590</ele>
        <time>2021-08-10T11:10:53.830Z</time>
      </trkpt>
      <trkpt lat="46.92725" lon="8.57787">
        <ele>590</ele>
        <time>2021-08-10T11:10:54.831Z</time>
      </trkpt>
      <trkpt lat="46.92725" lon="8.57788">
        <ele>590</ele>
        <time>2021-08-10T11:10:55.831Z</time>
      </trkpt>
      <trkpt lat="46.92725" lon="8.57789">
        <ele>590</ele>
        <time>2021-08-10T11:10:56.830Z</time>
      </trkpt>
      <trkpt lat="46.92725" lon="8.5779">
        <ele>590</ele>
        <time>2021-08-10T11:10:57.830Z</time>
      </trkpt>
      <trkpt lat="46.92724" lon="8.57791">
        <ele>590</ele>
        <time>2021-08-10T11:10:58.830Z</time>
      </trkpt>
      <trkpt lat="46.92724" lon="8.57792">
        <ele>590</ele>
        <time>2021-08-10T11:10:59.831Z</time>
      </trkpt>
      <trkpt lat="46.92724" lon="8.57793">
        <ele>589</ele>
        <time>2021-08-10T11:11:00.831Z</time>
      </trkpt>
      <trkpt lat="46.92724" lon="8.57794">
        <ele>589</ele>
        <time>2021-08-10T11:11:01.830Z</time>
      </trkpt>
      <trkpt lat="46.92724" lon="8.57795">
        <ele>589</ele>
        <time>2021-08-10T11:11:02.830Z</time>
      </trkpt>
      <trkpt lat="46.92724" lon="8.57796">
        <ele>589</ele>
        <time>2021-08-10T11:11:03.830Z</time>
      </trkpt>
      <trkpt lat="46.92724" lon="8.57798">
        <ele>588</ele>
        <time>2021-08-10T11:11:04.830Z</time>
      </trkpt>
      <trkpt lat="46.92724" lon="8.57799">
        <ele>588</ele>
        <time>2021-08-10T11:11:05.830Z</time>
      </trkpt>
      <trkpt lat="46.92724" lon="8.57801">
        <ele>588</ele>
        <time>2021-08-10T11:11:06.830Z</time>
      </trkpt>
      <trkpt lat="46.92723" lon="8.57802">
        <ele>588</ele>
        <time>2021-08-10T11:11:07.830Z</time>
      </trkpt>
      <trkpt lat="46.92722" lon="8.57804">
        <ele>588</ele>
        <time>2021-08-10T11:11:08.830Z</time>
      </trkpt>
      <trkpt lat="46.92722" lon="8.57805">
        <ele>588</ele>
        <time>2021-08-10T11:11:09.830Z</time>
      </trkpt>
      <trkpt lat="46.9272" lon="8.57806">
        <ele>587</ele>
        <time>2021-08-10T11:11:10.831Z</time>
      </trkpt>
      <trkpt lat="46.92719" lon="8.57808">
        <ele>587</ele>
        <time>2021-08-10T11:11:11.831Z</time>
      </trkpt>
      <trkpt lat="46.92719" lon="8.57809">
        <ele>587</ele>
        <time>2021-08-10T11:11:12.830Z</time>
      </trkpt>
      <trkpt lat="46.92719" lon="8.5781">
        <ele>587</ele>
        <time>2021-08-10T11:11:13.830Z</time>
      </trkpt>
      <trkpt lat="46.92719" lon="8.57813">
        <ele>587</ele>
        <time>2021-08-10T11:11:14.831Z</time>
      </trkpt>
      <trkpt lat="46.92719" lon="8.57815">
        <ele>587</ele>
        <time>2021-08-10T11:11:15.831Z</time>
      </trkpt>
      <trkpt lat="46.92719" lon="8.57817">
        <ele>587</ele>
        <time>2021-08-10T11:11:16.830Z</time>
      </trkpt>
      <trkpt lat="46.92719" lon="8.57818">
        <ele>587</ele>
        <time>2021-08-10T11:11:17.830Z</time>
      </trkpt>
      <trkpt lat="46.9272" lon="8.5782">
        <ele>588</ele>
        <time>2021-08-10T11:11:18.831Z</time>
      </trkpt>
      <trkpt lat="46.9272" lon="8.57822">
        <ele>588</ele>
        <time>2021-08-10T11:11:19.830Z</time>
      </trkpt>
      <trkpt lat="46.9272" lon="8.57823">
        <ele>588</ele>
        <time>2021-08-10T11:11:20.831Z</time>
      </trkpt>
      <trkpt lat="46.9272" lon="8.57825">
        <ele>589</ele>
        <time>2021-08-10T11:11:21.830Z</time>
      </trkpt>
      <trkpt lat="46.9272" lon="8.57827">
        <ele>589</ele>
        <time>2021-08-10T11:11:22.831Z</time>
      </trkpt>
      <trkpt lat="46.9272" lon="8.57829">
        <ele>589</ele>
        <time>2021-08-10T11:11:23.831Z</time>
      </trkpt>
      <trkpt lat="46.9272" lon="8.5783">
        <ele>589</ele>
        <time>2021-08-10T11:11:24.831Z</time>
      </trkpt>
      <trkpt lat="46.92719" lon="8.57831">
        <ele>589</ele>
        <time>2021-08-10T11:11:25.831Z</time>
      </trkpt>
      <trkpt lat="46.92719" lon="8.57832">
        <ele>590</ele>
        <time>2021-08-10T11:11:26.830Z</time>
      </trkpt>
      <trkpt lat="46.92719" lon="8.57834">
        <ele>590</ele>
        <time>2021-08-10T11:11:27.830Z</time>
      </trkpt>
      <trkpt lat="46.92719" lon="8.57836">
        <ele>590</ele>
        <time>2021-08-10T11:11:28.831Z</time>
      </trkpt>
      <trkpt lat="46.92719" lon="8.57837">
        <ele>591</ele>
        <time>2021-08-10T11:11:29.831Z</time>
      </trkpt>
      <trkpt lat="46.92719" lon="8.57839">
        <ele>591</ele>
        <time>2021-08-10T11:11:30.831Z</time>
      </trkpt>
      <trkpt lat="46.92719" lon="8.5784">
        <ele>591</ele>
        <time>2021-08-10T11:11:31.831Z</time>
      </trkpt>
      <trkpt lat="46.9272" lon="8.57842">
        <ele>591</ele>
        <time>2021-08-10T11:11:32.831Z</time>
      </trkpt>
      <trkpt lat="46.92721" lon="8.57843">
        <ele>591</ele>
        <time>2021-08-10T11:11:33.830Z</time>
      </trkpt>
      <trkpt lat="46.92721" lon="8.57844">
        <ele>591</ele>
        <time>2021-08-10T11:11:34.830Z</time>
      </trkpt>
      <trkpt lat="46.92722" lon="8.57846">
        <ele>591</ele>
        <time>2021-08-10T11:11:35.831Z</time>
      </trkpt>
      <trkpt lat="46.92723" lon="8.5785">
        <ele>592</ele>
        <time>2021-08-10T11:11:36.832Z</time>
      </trkpt>
      <trkpt lat="46.92723" lon="8.5785">
        <ele>592</ele>
        <time>2021-08-10T11:11:37.832Z</time>
      </trkpt>
      <trkpt lat="46.92723" lon="8.57851">
        <ele>592</ele>
        <time>2021-08-10T11:11:38.831Z</time>
      </trkpt>
      <trkpt lat="46.92722" lon="8.57851">
        <ele>592</ele>
        <time>2021-08-10T11:11:39.832Z</time>
      </trkpt>
      <trkpt lat="46.92722" lon="8.57851">
        <ele>592</ele>
        <time>2021-08-10T11:11:40.831Z</time>
      </trkpt>
      <trkpt lat="46.92721" lon="8.57851">
        <ele>592</ele>
        <time>2021-08-10T11:11:41.831Z</time>
      </trkpt>
      <trkpt lat="46.9272" lon="8.57852">
        <ele>592</ele>
        <time>2021-08-10T11:11:42.831Z</time>
      </trkpt>
      <trkpt lat="46.9272" lon="8.57853">
        <ele>592</ele>
        <time>2021-08-10T11:11:43.832Z</time>
      </trkpt>
      <trkpt lat="46.9272" lon="8.57854">
        <ele>592</ele>
        <time>2021-08-10T11:11:44.832Z</time>
      </trkpt>
      <trkpt lat="46.92719" lon="8.57855">
        <ele>592</ele>
        <time>2021-08-10T11:11:45.832Z</time>
      </trkpt>
      <trkpt lat="46.92719" lon="8.57856">
        <ele>592</ele>
        <time>2021-08-10T11:11:46.832Z</time>
      </trkpt>
      <trkpt lat="46.92719" lon="8.57857">
        <ele>592</ele>
        <time>2021-08-10T11:11:47.832Z</time>
      </trkpt>
      <trkpt lat="46.92719" lon="8.57858">
        <ele>592</ele>
        <time>2021-08-10T11:11:48.831Z</time>
      </trkpt>
      <trkpt lat="46.92719" lon="8.57859">
        <ele>593</ele>
        <time>2021-08-10T11:11:49.832Z</time>
      </trkpt>
      <trkpt lat="46.92719" lon="8.57859">
        <ele>593</ele>
        <time>2021-08-10T11:11:50.832Z</time>
      </trkpt>
      <trkpt lat="46.9272" lon="8.57859">
        <ele>593</ele>
        <time>2021-08-10T11:11:51.832Z</time>
      </trkpt>
      <trkpt lat="46.9272" lon="8.57859">
        <ele>594</ele>
        <time>2021-08-10T11:11:52.832Z</time>
      </trkpt>
      <trkpt lat="46.92721" lon="8.57859">
        <ele>594</ele>
        <time>2021-08-10T11:11:53.832Z</time>
      </trkpt>
      <trkpt lat="46.92721" lon="8.57858">
        <ele>594</ele>
        <time>2021-08-10T11:11:54.831Z</time>
      </trkpt>
      <trkpt lat="46.92721" lon="8.57858">
        <ele>594</ele>
        <time>2021-08-10T11:11:55.832Z</time>
      </trkpt>
      <trkpt lat="46.92721" lon="8.57858">
        <ele>595</ele>
        <time>2021-08-10T11:11:56.832Z</time>
      </trkpt>
      <trkpt lat="46.92721" lon="8.57857">
        <ele>595</ele>
        <time>2021-08-10T11:11:57.832Z</time>
      </trkpt>
      <trkpt lat="46.92719" lon="8.57857">
        <ele>595</ele>
        <time>2021-08-10T11:11:58.832Z</time>
      </trkpt>
      <trkpt lat="46.92717" lon="8.57857">
        <ele>595</ele>
        <time>2021-08-10T11:11:59.831Z</time>
      </trkpt>
      <trkpt lat="46.92716" lon="8.57857">
        <ele>596</ele>
        <time>2021-08-10T11:12:00.832Z</time>
      </trkpt>
      <trkpt lat="46.92715" lon="8.57856">
        <ele>596</ele>
        <time>2021-08-10T11:12:01.832Z</time>
      </trkpt>
      <trkpt lat="46.92714" lon="8.57853">
        <ele>596</ele>
        <time>2021-08-10T11:12:02.832Z</time>
      </trkpt>
      <trkpt lat="46.92715" lon="8.57852">
        <ele>597</ele>
        <time>2021-08-10T11:12:03.832Z</time>
      </trkpt>
      <trkpt lat="46.92712" lon="8.57852">
        <ele>597</ele>
        <time>2021-08-10T11:12:04.832Z</time>
      </trkpt>
      <trkpt lat="46.92709" lon="8.57854">
        <ele>597</ele>
        <time>2021-08-10T11:12:05.831Z</time>
      </trkpt>
      <trkpt lat="46.92705" lon="8.57857">
        <ele>597</ele>
        <time>2021-08-10T11:12:06.832Z</time>
      </trkpt>
      <trkpt lat="46.92704" lon="8.57857">
        <ele>598</ele>
        <time>2021-08-10T11:12:07.831Z</time>
      </trkpt>
      <trkpt lat="46.92704" lon="8.57857">
        <ele>598</ele>
        <time>2021-08-10T11:12:08.832Z</time>
      </trkpt>
      <trkpt lat="46.92705" lon="8.57857">
        <ele>598</ele>
        <time>2021-08-10T11:12:09.831Z</time>
      </trkpt>
      <trkpt lat="46.92704" lon="8.57858">
        <ele>599</ele>
        <time>2021-08-10T11:12:10.832Z</time>
      </trkpt>
      <trkpt lat="46.92703" lon="8.57858">
        <ele>599</ele>
        <time>2021-08-10T11:12:11.832Z</time>
      </trkpt>
      <trkpt lat="46.92704" lon="8.57858">
        <ele>600</ele>
        <time>2021-08-10T11:12:12.832Z</time>
      </trkpt>
      <trkpt lat="46.92704" lon="8.57857">
        <ele>600</ele>
        <time>2021-08-10T11:12:13.831Z</time>
      </trkpt>
      <trkpt lat="46.92704" lon="8.57857">
        <ele>600</ele>
        <time>2021-08-10T11:12:14.832Z</time>
      </trkpt>
      <trkpt lat="46.92704" lon="8.57858">
        <ele>601</ele>
        <time>2021-08-10T11:12:15.831Z</time>
      </trkpt>
      <trkpt lat="46.92705" lon="8.57858">
        <ele>601</ele>
        <time>2021-08-10T11:12:16.831Z</time>
      </trkpt>
      <trkpt lat="46.92706" lon="8.57858">
        <ele>601</ele>
        <time>2021-08-10T11:12:17.832Z</time>
      </trkpt>
      <trkpt lat="46.92706" lon="8.57858">
        <ele>601</ele>
        <time>2021-08-10T11:12:18.831Z</time>
      </trkpt>
      <trkpt lat="46.92706" lon="8.57859">
        <ele>602</ele>
        <time>2021-08-10T11:12:19.831Z</time>
      </trkpt>
      <trkpt lat="46.92707" lon="8.57858">
        <ele>602</ele>
        <time>2021-08-10T11:12:20.832Z</time>
      </trkpt>
      <trkpt lat="46.92708" lon="8.57858">
        <ele>602</ele>
        <time>2021-08-10T11:12:21.832Z</time>
      </trkpt>
      <trkpt lat="46.92708" lon="8.57857">
        <ele>602</ele>
        <time>2021-08-10T11:12:22.832Z</time>
      </trkpt>
      <trkpt lat="46.92708" lon="8.57857">
        <ele>602</ele>
        <time>2021-08-10T11:12:23.831Z</time>
      </trkpt>
      <trkpt lat="46.92707" lon="8.57857">
        <ele>603</ele>
        <time>2021-08-10T11:12:24.832Z</time>
      </trkpt>
      <trkpt lat="46.92706" lon="8.57857">
        <ele>603</ele>
        <time>2021-08-10T11:12:25.832Z</time>
      </trkpt>
      <trkpt lat="46.92706" lon="8.57857">
        <ele>604</ele>
        <time>2021-08-10T11:12:26.832Z</time>
      </trkpt>
      <trkpt lat="46.92705" lon="8.57858">
        <ele>604</ele>
        <time>2021-08-10T11:12:27.832Z</time>
      </trkpt>
      <trkpt lat="46.92706" lon="8.57859">
        <ele>606</ele>
        <time>2021-08-10T11:12:28.833Z</time>
      </trkpt>
      <trkpt lat="46.92706" lon="8.5786">
        <ele>606</ele>
        <time>2021-08-10T11:12:29.832Z</time>
      </trkpt>
      <trkpt lat="46.92707" lon="8.57861">
        <ele>606</ele>
        <time>2021-08-10T11:12:30.832Z</time>
      </trkpt>
      <trkpt lat="46.92707" lon="8.57863">
        <ele>607</ele>
        <time>2021-08-10T11:12:31.832Z</time>
      </trkpt>
      <trkpt lat="46.92706" lon="8.57864">
        <ele>607</ele>
        <time>2021-08-10T11:12:32.833Z</time>
      </trkpt>
      <trkpt lat="46.92704" lon="8.57866">
        <ele>607</ele>
        <time>2021-08-10T11:12:33.833Z</time>
      </trkpt>
      <trkpt lat="46.92702" lon="8.57867">
        <ele>607</ele>
        <time>2021-08-10T11:12:34.833Z</time>
      </trkpt>
      <trkpt lat="46.92702" lon="8.57867">
        <ele>607</ele>
        <time>2021-08-10T11:12:35.832Z</time>
      </trkpt>
      <trkpt lat="46.92703" lon="8.57867">
        <ele>607</ele>
        <time>2021-08-10T11:12:36.833Z</time>
      </trkpt>
      <trkpt lat="46.92703" lon="8.57867">
        <ele>607</ele>
        <time>2021-08-10T11:12:37.833Z</time>
      </trkpt>
      <trkpt lat="46.92702" lon="8.57867">
        <ele>607</ele>
        <time>2021-08-10T11:12:38.832Z</time>
      </trkpt>
      <trkpt lat="46.92701" lon="8.57866">
        <ele>607</ele>
        <time>2021-08-10T11:12:39.833Z</time>
      </trkpt>
      <trkpt lat="46.92701" lon="8.57866">
        <ele>607</ele>
        <time>2021-08-10T11:12:40.833Z</time>
      </trkpt>
      <trkpt lat="46.927" lon="8.57866">
        <ele>607</ele>
        <time>2021-08-10T11:12:41.833Z</time>
      </trkpt>
      <trkpt lat="46.92701" lon="8.57866">
        <ele>607</ele>
        <time>2021-08-10T11:12:42.832Z</time>
      </trkpt>
      <trkpt lat="46.927" lon="8.57866">
        <ele>607</ele>
        <time>2021-08-10T11:12:43.833Z</time>
      </trkpt>
      <trkpt lat="46.92701" lon="8.57867">
        <ele>607</ele>
        <time>2021-08-10T11:12:44.833Z</time>
      </trkpt>
      <trkpt lat="46.92703" lon="8.57867">
        <ele>607</ele>
        <time>2021-08-10T11:12:45.833Z</time>
      </trkpt>
      <trkpt lat="46.92703" lon="8.57867">
        <ele>607</ele>
        <time>2021-08-10T11:12:46.832Z</time>
      </trkpt>
      <trkpt lat="46.92702" lon="8.57868">
        <ele>607</ele>
        <time>2021-08-10T11:12:47.833Z</time>
      </trkpt>
      <trkpt lat="46.92701" lon="8.57869">
        <ele>606</ele>
        <time>2021-08-10T11:12:48.832Z</time>
      </trkpt>
      <trkpt lat="46.927" lon="8.57871">
        <ele>606</ele>
        <time>2021-08-10T11:12:49.833Z</time>
      </trkpt>
      <trkpt lat="46.927" lon="8.57871">
        <ele>606</ele>
        <time>2021-08-10T11:12:50.833Z</time>
      </trkpt>
      <trkpt lat="46.927" lon="8.57871">
        <ele>605</ele>
        <time>2021-08-10T11:12:51.833Z</time>
      </trkpt>
      <trkpt lat="46.92699" lon="8.57871">
        <ele>605</ele>
        <time>2021-08-10T11:12:52.832Z</time>
      </trkpt>
      <trkpt lat="46.92697" lon="8.5787">
        <ele>604</ele>
        <time>2021-08-10T11:12:53.833Z</time>
      </trkpt>
      <trkpt lat="46.92696" lon="8.57869">
        <ele>604</ele>
        <time>2021-08-10T11:12:54.832Z</time>
      </trkpt>
      <trkpt lat="46.92695" lon="8.5787">
        <ele>603</ele>
        <time>2021-08-10T11:12:55.832Z</time>
      </trkpt>
      <trkpt lat="46.92693" lon="8.5787">
        <ele>603</ele>
        <time>2021-08-10T11:12:56.833Z</time>
      </trkpt>
      <trkpt lat="46.92692" lon="8.57869">
        <ele>603</ele>
        <time>2021-08-10T11:12:57.833Z</time>
      </trkpt>
      <trkpt lat="46.92692" lon="8.5787">
        <ele>602</ele>
        <time>2021-08-10T11:12:58.833Z</time>
      </trkpt>
      <trkpt lat="46.92692" lon="8.57871">
        <ele>602</ele>
        <time>2021-08-10T11:12:59.832Z</time>
      </trkpt>
      <trkpt lat="46.92693" lon="8.57872">
        <ele>602</ele>
        <time>2021-08-10T11:13:00.832Z</time>
      </trkpt>
      <trkpt lat="46.92693" lon="8.57874">
        <ele>603</ele>
        <time>2021-08-10T11:13:01.833Z</time>
      </trkpt>
      <trkpt lat="46.92694" lon="8.57876">
        <ele>603</ele>
        <time>2021-08-10T11:13:02.833Z</time>
      </trkpt>
      <trkpt lat="46.92694" lon="8.57879">
        <ele>603</ele>
        <time>2021-08-10T11:13:03.833Z</time>
      </trkpt>
      <trkpt lat="46.92694" lon="8.5788">
        <ele>603</ele>
        <time>2021-08-10T11:13:04.833Z</time>
      </trkpt>
      <trkpt lat="46.92694" lon="8.57881">
        <ele>604</ele>
        <time>2021-08-10T11:13:05.833Z</time>
      </trkpt>
      <trkpt lat="46.92694" lon="8.57882">
        <ele>604</ele>
        <time>2021-08-10T11:13:06.833Z</time>
      </trkpt>
      <trkpt lat="46.92693" lon="8.57883">
        <ele>604</ele>
        <time>2021-08-10T11:13:07.832Z</time>
      </trkpt>
      <trkpt lat="46.92694" lon="8.57884">
        <ele>605</ele>
        <time>2021-08-10T11:13:08.832Z</time>
      </trkpt>
      <trkpt lat="46.92694" lon="8.57886">
        <ele>605</ele>
        <time>2021-08-10T11:13:09.833Z</time>
      </trkpt>
      <trkpt lat="46.92693" lon="8.57886">
        <ele>606</ele>
        <time>2021-08-10T11:13:10.832Z</time>
      </trkpt>
      <trkpt lat="46.92693" lon="8.57885">
        <ele>606</ele>
        <time>2021-08-10T11:13:11.833Z</time>
      </trkpt>
      <trkpt lat="46.92692" lon="8.57886">
        <ele>607</ele>
        <time>2021-08-10T11:13:12.833Z</time>
      </trkpt>
      <trkpt lat="46.92692" lon="8.57886">
        <ele>607</ele>
        <time>2021-08-10T11:13:13.833Z</time>
      </trkpt>
      <trkpt lat="46.92692" lon="8.57885">
        <ele>608</ele>
        <time>2021-08-10T11:13:14.833Z</time>
      </trkpt>
      <trkpt lat="46.92692" lon="8.57886">
        <ele>608</ele>
        <time>2021-08-10T11:13:15.832Z</time>
      </trkpt>
      <trkpt lat="46.92691" lon="8.57886">
        <ele>609</ele>
        <time>2021-08-10T11:13:16.832Z</time>
      </trkpt>
      <trkpt lat="46.92692" lon="8.57888">
        <ele>610</ele>
        <time>2021-08-10T11:13:17.833Z</time>
      </trkpt>
      <trkpt lat="46.92692" lon="8.57889">
        <ele>611</ele>
        <time>2021-08-10T11:13:18.832Z</time>
      </trkpt>
      <trkpt lat="46.92692" lon="8.57891">
        <ele>612</ele>
        <time>2021-08-10T11:13:19.833Z</time>
      </trkpt>
      <trkpt lat="46.92691" lon="8.57893">
        <ele>613</ele>
        <time>2021-08-10T11:13:20.833Z</time>
      </trkpt>
      <trkpt lat="46.9269" lon="8.57894">
        <ele>614</ele>
        <time>2021-08-10T11:13:21.833Z</time>
      </trkpt>
      <trkpt lat="46.92689" lon="8.57895">
        <ele>615</ele>
        <time>2021-08-10T11:13:22.833Z</time>
      </trkpt>
      <trkpt lat="46.92688" lon="8.57896">
        <ele>616</ele>
        <time>2021-08-10T11:13:23.833Z</time>
      </trkpt>
      <trkpt lat="46.92687" lon="8.57897">
        <ele>617</ele>
        <time>2021-08-10T11:13:24.832Z</time>
      </trkpt>
      <trkpt lat="46.92687" lon="8.57897">
        <ele>617</ele>
        <time>2021-08-10T11:13:25.833Z</time>
      </trkpt>
      <trkpt lat="46.92686" lon="8.57898">
        <ele>618</ele>
        <time>2021-08-10T11:13:26.832Z</time>
      </trkpt>
      <trkpt lat="46.92686" lon="8.57898">
        <ele>619</ele>
        <time>2021-08-10T11:13:27.832Z</time>
      </trkpt>
      <trkpt lat="46.92685" lon="8.57897">
        <ele>619</ele>
        <time>2021-08-10T11:13:28.833Z</time>
      </trkpt>
      <trkpt lat="46.92684" lon="8.57896">
        <ele>619</ele>
        <time>2021-08-10T11:13:29.833Z</time>
      </trkpt>
      <trkpt lat="46.92683" lon="8.57896">
        <ele>620</ele>
        <time>2021-08-10T11:13:30.833Z</time>
      </trkpt>
      <trkpt lat="46.92683" lon="8.57895">
        <ele>620</ele>
        <time>2021-08-10T11:13:31.833Z</time>
      </trkpt>
      <trkpt lat="46.92683" lon="8.57895">
        <ele>620</ele>
        <time>2021-08-10T11:13:32.832Z</time>
      </trkpt>
      <trkpt lat="46.92683" lon="8.57895">
        <ele>621</ele>
        <time>2021-08-10T11:13:33.833Z</time>
      </trkpt>
      <trkpt lat="46.92682" lon="8.57896">
        <ele>621</ele>
        <time>2021-08-10T11:13:34.832Z</time>
      </trkpt>
      <trkpt lat="46.92681" lon="8.57896">
        <ele>621</ele>
        <time>2021-08-10T11:13:35.833Z</time>
      </trkpt>
      <trkpt lat="46.9268" lon="8.57897">
        <ele>622</ele>
        <time>2021-08-10T11:13:36.833Z</time>
      </trkpt>
      <trkpt lat="46.92679" lon="8.57897">
        <ele>622</ele>
        <time>2021-08-10T11:13:37.833Z</time>
      </trkpt>
      <trkpt lat="46.92679" lon="8.57897">
        <ele>622</ele>
        <time>2021-08-10T11:13:38.833Z</time>
      </trkpt>
      <trkpt lat="46.92679" lon="8.57898">
        <ele>622</ele>
        <time>2021-08-10T11:13:39.833Z</time>
      </trkpt>
      <trkpt lat="46.92679" lon="8.57898">
        <ele>622</ele>
        <time>2021-08-10T11:13:40.833Z</time>
      </trkpt>
      <trkpt lat="46.9268" lon="8.57898">
        <ele>623</ele>
        <time>2021-08-10T11:13:41.832Z</time>
      </trkpt>
      <trkpt lat="46.92682" lon="8.579">
        <ele>623</ele>
        <time>2021-08-10T11:13:42.832Z</time>
      </trkpt>
      <trkpt lat="46.92683" lon="8.57902">
        <ele>623</ele>
        <time>2021-08-10T11:13:43.833Z</time>
      </trkpt>
      <trkpt lat="46.92684" lon="8.57904">
        <ele>623</ele>
        <time>2021-08-10T11:13:44.833Z</time>
      </trkpt>
      <trkpt lat="46.92684" lon="8.57905">
        <ele>623</ele>
        <time>2021-08-10T11:13:45.832Z</time>
      </trkpt>
      <trkpt lat="46.92685" lon="8.57907">
        <ele>623</ele>
        <time>2021-08-10T11:13:46.833Z</time>
      </trkpt>
      <trkpt lat="46.92685" lon="8.57909">
        <ele>623</ele>
        <time>2021-08-10T11:13:47.833Z</time>
      </trkpt>
      <trkpt lat="46.92684" lon="8.57912">
        <ele>623</ele>
        <time>2021-08-10T11:13:48.833Z</time>
      </trkpt>
      <trkpt lat="46.92684" lon="8.57914">
        <ele>623</ele>
        <time>2021-08-10T11:13:49.833Z</time>
      </trkpt>
      <trkpt lat="46.92682" lon="8.57913">
        <ele>622</ele>
        <time>2021-08-10T11:13:50.833Z</time>
      </trkpt>
      <trkpt lat="46.92681" lon="8.57912">
        <ele>622</ele>
        <time>2021-08-10T11:13:51.833Z</time>
      </trkpt>
      <trkpt lat="46.9268" lon="8.57917">
        <ele>622</ele>
        <time>2021-08-10T11:13:52.833Z</time>
      </trkpt>
      <trkpt lat="46.92679" lon="8.57921">
        <ele>622</ele>
        <time>2021-08-10T11:13:53.833Z</time>
      </trkpt>
      <trkpt lat="46.92679" lon="8.57925">
        <ele>622</ele>
        <time>2021-08-10T11:13:54.833Z</time>
      </trkpt>
      <trkpt lat="46.92681" lon="8.57928">
        <ele>622</ele>
        <time>2021-08-10T11:13:55.833Z</time>
      </trkpt>
      <trkpt lat="46.92682" lon="8.5793">
        <ele>623</ele>
        <time>2021-08-10T11:13:56.833Z</time>
      </trkpt>
      <trkpt lat="46.92684" lon="8.57932">
        <ele>623</ele>
        <time>2021-08-10T11:13:57.833Z</time>
      </trkpt>
      <trkpt lat="46.92684" lon="8.57932">
        <ele>624</ele>
        <time>2021-08-10T11:13:58.833Z</time>
      </trkpt>
      <trkpt lat="46.92684" lon="8.57933">
        <ele>624</ele>
        <time>2021-08-10T11:13:59.833Z</time>
      </trkpt>
      <trkpt lat="46.92684" lon="8.57933">
        <ele>624</ele>
        <time>2021-08-10T11:14:00.833Z</time>
      </trkpt>
      <trkpt lat="46.92685" lon="8.57933">
        <ele>625</ele>
        <time>2021-08-10T11:14:01.832Z</time>
      </trkpt>
      <trkpt lat="46.92686" lon="8.57934">
        <ele>625</ele>
        <time>2021-08-10T11:14:02.833Z</time>
      </trkpt>
      <trkpt lat="46.92685" lon="8.57935">
        <ele>625</ele>
        <time>2021-08-10T11:14:03.833Z</time>
      </trkpt>
      <trkpt lat="46.92684" lon="8.57936">
        <ele>625</ele>
        <time>2021-08-10T11:14:04.833Z</time>
      </trkpt>
      <trkpt lat="46.92683" lon="8.57936">
        <ele>625</ele>
        <time>2021-08-10T11:14:05.832Z</time>
      </trkpt>
      <trkpt lat="46.92682" lon="8.57935">
        <ele>625</ele>
        <time>2021-08-10T11:14:06.832Z</time>
      </trkpt>
      <trkpt lat="46.92682" lon="8.57935">
        <ele>625</ele>
        <time>2021-08-10T11:14:07.833Z</time>
      </trkpt>
      <trkpt lat="46.9268" lon="8.57935">
        <ele>625</ele>
        <time>2021-08-10T11:14:08.832Z</time>
      </trkpt>
      <trkpt lat="46.92679" lon="8.57935">
        <ele>625</ele>
        <time>2021-08-10T11:14:09.832Z</time>
      </trkpt>
      <trkpt lat="46.92679" lon="8.57935">
        <ele>625</ele>
        <time>2021-08-10T11:14:10.833Z</time>
      </trkpt>
      <trkpt lat="46.92678" lon="8.57935">
        <ele>625</ele>
        <time>2021-08-10T11:14:11.832Z</time>
      </trkpt>
      <trkpt lat="46.92676" lon="8.57936">
        <ele>625</ele>
        <time>2021-08-10T11:14:12.832Z</time>
      </trkpt>
      <trkpt lat="46.92675" lon="8.57937">
        <ele>625</ele>
        <time>2021-08-10T11:14:13.832Z</time>
      </trkpt>
      <trkpt lat="46.92676" lon="8.57938">
        <ele>624</ele>
        <time>2021-08-10T11:14:14.832Z</time>
      </trkpt>
      <trkpt lat="46.92676" lon="8.57939">
        <ele>624</ele>
        <time>2021-08-10T11:14:15.833Z</time>
      </trkpt>
      <trkpt lat="46.92677" lon="8.57938">
        <ele>624</ele>
        <time>2021-08-10T11:14:16.833Z</time>
      </trkpt>
      <trkpt lat="46.92678" lon="8.57938">
        <ele>624</ele>
        <time>2021-08-10T11:14:17.833Z</time>
      </trkpt>
      <trkpt lat="46.92678" lon="8.57938">
        <ele>624</ele>
        <time>2021-08-10T11:14:18.832Z</time>
      </trkpt>
      <trkpt lat="46.92676" lon="8.57938">
        <ele>624</ele>
        <time>2021-08-10T11:14:19.833Z</time>
      </trkpt>
      <trkpt lat="46.92675" lon="8.57938">
        <ele>624</ele>
        <time>2021-08-10T11:14:20.833Z</time>
      </trkpt>
      <trkpt lat="46.92675" lon="8.57939">
        <ele>624</ele>
        <time>2021-08-10T11:14:21.833Z</time>
      </trkpt>
      <trkpt lat="46.92675" lon="8.57939">
        <ele>624</ele>
        <time>2021-08-10T11:14:22.832Z</time>
      </trkpt>
      <trkpt lat="46.92674" lon="8.57939">
        <ele>624</ele>
        <time>2021-08-10T11:14:23.832Z</time>
      </trkpt>
      <trkpt lat="46.92673" lon="8.57938">
        <ele>625</ele>
        <time>2021-08-10T11:14:24.832Z</time>
      </trkpt>
      <trkpt lat="46.92672" lon="8.57937">
        <ele>625</ele>
        <time>2021-08-10T11:14:25.833Z</time>
      </trkpt>
      <trkpt lat="46.92673" lon="8.57936">
        <ele>625</ele>
        <time>2021-08-10T11:14:26.833Z</time>
      </trkpt>
      <trkpt lat="46.92673" lon="8.57935">
        <ele>625</ele>
        <time>2021-08-10T11:14:27.832Z</time>
      </trkpt>
      <trkpt lat="46.92674" lon="8.57935">
        <ele>625</ele>
        <time>2021-08-10T11:14:28.832Z</time>
      </trkpt>
      <trkpt lat="46.92676" lon="8.57936">
        <ele>625</ele>
        <time>2021-08-10T11:14:29.833Z</time>
      </trkpt>
      <trkpt lat="46.92677" lon="8.57936">
        <ele>625</ele>
        <time>2021-08-10T11:14:30.832Z</time>
      </trkpt>
      <trkpt lat="46.92678" lon="8.57935">
        <ele>625</ele>
        <time>2021-08-10T11:14:31.833Z</time>
      </trkpt>
      <trkpt lat="46.92679" lon="8.57935">
        <ele>625</ele>
        <time>2021-08-10T11:14:32.833Z</time>
      </trkpt>
      <trkpt lat="46.9268" lon="8.57934">
        <ele>624</ele>
        <time>2021-08-10T11:14:33.832Z</time>
      </trkpt>
      <trkpt lat="46.9268" lon="8.57933">
        <ele>624</ele>
        <time>2021-08-10T11:14:34.832Z</time>
      </trkpt>
      <trkpt lat="46.92681" lon="8.57932">
        <ele>624</ele>
        <time>2021-08-10T11:14:35.832Z</time>
      </trkpt>
      <trkpt lat="46.92681" lon="8.57931">
        <ele>624</ele>
        <time>2021-08-10T11:14:36.833Z</time>
      </trkpt>
      <trkpt lat="46.92681" lon="8.57931">
        <ele>624</ele>
        <time>2021-08-10T11:14:37.833Z</time>
      </trkpt>
      <trkpt lat="46.92681" lon="8.5793">
        <ele>623</ele>
        <time>2021-08-10T11:14:38.832Z</time>
      </trkpt>
      <trkpt lat="46.92681" lon="8.57929">
        <ele>623</ele>
        <time>2021-08-10T11:14:39.833Z</time>
      </trkpt>
      <trkpt lat="46.92681" lon="8.57928">
        <ele>623</ele>
        <time>2021-08-10T11:14:40.832Z</time>
      </trkpt>
      <trkpt lat="46.92681" lon="8.57927">
        <ele>622</ele>
        <time>2021-08-10T11:14:41.833Z</time>
      </trkpt>
      <trkpt lat="46.9268" lon="8.57924">
        <ele>622</ele>
        <time>2021-08-10T11:14:42.832Z</time>
      </trkpt>
      <trkpt lat="46.9268" lon="8.57923">
        <ele>622</ele>
        <time>2021-08-10T11:14:43.833Z</time>
      </trkpt>
      <trkpt lat="46.9268" lon="8.57924">
        <ele>622</ele>
        <time>2021-08-10T11:14:44.832Z</time>
      </trkpt>
      <trkpt lat="46.92679" lon="8.57924">
        <ele>622</ele>
        <time>2021-08-10T11:14:45.832Z</time>
      </trkpt>
      <trkpt lat="46.92679" lon="8.57923">
        <ele>621</ele>
        <time>2021-08-10T11:14:46.833Z</time>
      </trkpt>
      <trkpt lat="46.92678" lon="8.57923">
        <ele>621</ele>
        <time>2021-08-10T11:14:47.833Z</time>
      </trkpt>
      <trkpt lat="46.92677" lon="8.57924">
        <ele>621</ele>
        <time>2021-08-10T11:14:48.833Z</time>
      </trkpt>
      <trkpt lat="46.92677" lon="8.57925">
        <ele>621</ele>
        <time>2021-08-10T11:14:49.833Z</time>
      </trkpt>
      <trkpt lat="46.92676" lon="8.57926">
        <ele>621</ele>
        <time>2021-08-10T11:14:50.832Z</time>
      </trkpt>
      <trkpt lat="46.92674" lon="8.57927">
        <ele>621</ele>
        <time>2021-08-10T11:14:51.833Z</time>
      </trkpt>
      <trkpt lat="46.92672" lon="8.57927">
        <ele>621</ele>
        <time>2021-08-10T11:14:52.832Z</time>
      </trkpt>
      <trkpt lat="46.92669" lon="8.57928">
        <ele>621</ele>
        <time>2021-08-10T11:14:53.833Z</time>
      </trkpt>
      <trkpt lat="46.92667" lon="8.57931">
        <ele>621</ele>
        <time>2021-08-10T11:14:54.833Z</time>
      </trkpt>
      <trkpt lat="46.92667" lon="8.57933">
        <ele>621</ele>
        <time>2021-08-10T11:14:55.833Z</time>
      </trkpt>
      <trkpt lat="46.92668" lon="8.57934">
        <ele>621</ele>
        <time>2021-08-10T11:14:56.832Z</time>
      </trkpt>
      <trkpt lat="46.92667" lon="8.57934">
        <ele>621</ele>
        <time>2021-08-10T11:14:57.833Z</time>
      </trkpt>
      <trkpt lat="46.92668" lon="8.57934">
        <ele>621</ele>
        <time>2021-08-10T11:14:58.832Z</time>
      </trkpt>
      <trkpt lat="46.92668" lon="8.57933">
        <ele>621</ele>
        <time>2021-08-10T11:14:59.833Z</time>
      </trkpt>
      <trkpt lat="46.92668" lon="8.57933">
        <ele>621</ele>
        <time>2021-08-10T11:15:00.833Z</time>
      </trkpt>
      <trkpt lat="46.92667" lon="8.57933">
        <ele>621</ele>
        <time>2021-08-10T11:15:01.832Z</time>
      </trkpt>
      <trkpt lat="46.92667" lon="8.57934">
        <ele>621</ele>
        <time>2021-08-10T11:15:02.832Z</time>
      </trkpt>
      <trkpt lat="46.92666" lon="8.57934">
        <ele>621</ele>
        <time>2021-08-10T11:15:03.833Z</time>
      </trkpt>
      <trkpt lat="46.92666" lon="8.57934">
        <ele>621</ele>
        <time>2021-08-10T11:15:04.832Z</time>
      </trkpt>
      <trkpt lat="46.92665" lon="8.57934">
        <ele>621</ele>
        <time>2021-08-10T11:15:05.833Z</time>
      </trkpt>
      <trkpt lat="46.92665" lon="8.57934">
        <ele>621</ele>
        <time>2021-08-10T11:15:06.833Z</time>
      </trkpt>
      <trkpt lat="46.92666" lon="8.57934">
        <ele>621</ele>
        <time>2021-08-10T11:15:07.833Z</time>
      </trkpt>
      <trkpt lat="46.92665" lon="8.57934">
        <ele>621</ele>
        <time>2021-08-10T11:15:08.832Z</time>
      </trkpt>
      <trkpt lat="46.92665" lon="8.57935">
        <ele>620</ele>
        <time>2021-08-10T11:15:09.832Z</time>
      </trkpt>
      <trkpt lat="46.92665" lon="8.57935">
        <ele>620</ele>
        <time>2021-08-10T11:15:10.833Z</time>
      </trkpt>
      <trkpt lat="46.92665" lon="8.57936">
        <ele>620</ele>
        <time>2021-08-10T11:15:11.833Z</time>
      </trkpt>
      <trkpt lat="46.92665" lon="8.57936">
        <ele>620</ele>
        <time>2021-08-10T11:15:12.832Z</time>
      </trkpt>
      <trkpt lat="46.92665" lon="8.57937">
        <ele>620</ele>
        <time>2021-08-10T11:15:13.833Z</time>
      </trkpt>
      <trkpt lat="46.92664" lon="8.57938">
        <ele>620</ele>
        <time>2021-08-10T11:15:14.833Z</time>
      </trkpt>
      <trkpt lat="46.92664" lon="8.57939">
        <ele>620</ele>
        <time>2021-08-10T11:15:15.833Z</time>
      </trkpt>
      <trkpt lat="46.92665" lon="8.57939">
        <ele>619</ele>
        <time>2021-08-10T11:15:16.832Z</time>
      </trkpt>
      <trkpt lat="46.92666" lon="8.57939">
        <ele>620</ele>
        <time>2021-08-10T11:15:17.833Z</time>
      </trkpt>
      <trkpt lat="46.92667" lon="8.57939">
        <ele>620</ele>
        <time>2021-08-10T11:15:18.833Z</time>
      </trkpt>
      <trkpt lat="46.92667" lon="8.57939">
        <ele>620</ele>
        <time>2021-08-10T11:15:19.833Z</time>
      </trkpt>
      <trkpt lat="46.92667" lon="8.57937">
        <ele>620</ele>
        <time>2021-08-10T11:15:20.832Z</time>
      </trkpt>
      <trkpt lat="46.92667" lon="8.57937">
        <ele>620</ele>
        <time>2021-08-10T11:15:21.833Z</time>
      </trkpt>
      <trkpt lat="46.92666" lon="8.57937">
        <ele>620</ele>
        <time>2021-08-10T11:15:22.833Z</time>
      </trkpt>
      <trkpt lat="46.92666" lon="8.57938">
        <ele>619</ele>
        <time>2021-08-10T11:15:23.833Z</time>
      </trkpt>
      <trkpt lat="46.92666" lon="8.5794">
        <ele>619</ele>
        <time>2021-08-10T11:15:24.833Z</time>
      </trkpt>
      <trkpt lat="46.92666" lon="8.57941">
        <ele>619</ele>
        <time>2021-08-10T11:15:25.832Z</time>
      </trkpt>
      <trkpt lat="46.92667" lon="8.5794">
        <ele>619</ele>
        <time>2021-08-10T11:15:26.833Z</time>
      </trkpt>
      <trkpt lat="46.92669" lon="8.57941">
        <ele>619</ele>
        <time>2021-08-10T11:15:27.832Z</time>
      </trkpt>
      <trkpt lat="46.92671" lon="8.57941">
        <ele>618</ele>
        <time>2021-08-10T11:15:28.832Z</time>
      </trkpt>
      <trkpt lat="46.92672" lon="8.57941">
        <ele>618</ele>
        <time>2021-08-10T11:15:29.833Z</time>
      </trkpt>
      <trkpt lat="46.92673" lon="8.5794">
        <ele>618</ele>
        <time>2021-08-10T11:15:30.832Z</time>
      </trkpt>
      <trkpt lat="46.92673" lon="8.5794">
        <ele>618</ele>
        <time>2021-08-10T11:15:31.832Z</time>
      </trkpt>
      <trkpt lat="46.9267" lon="8.57941">
        <ele>618</ele>
        <time>2021-08-10T11:15:32.832Z</time>
      </trkpt>
      <trkpt lat="46.92667" lon="8.5794">
        <ele>618</ele>
        <time>2021-08-10T11:15:33.833Z</time>
      </trkpt>
      <trkpt lat="46.92664" lon="8.57941">
        <ele>618</ele>
        <time>2021-08-10T11:15:34.833Z</time>
      </trkpt>
      <trkpt lat="46.9266" lon="8.57942">
        <ele>618</ele>
        <time>2021-08-10T11:15:35.832Z</time>
      </trkpt>
      <trkpt lat="46.92659" lon="8.57942">
        <ele>618</ele>
        <time>2021-08-10T11:15:36.833Z</time>
      </trkpt>
      <trkpt lat="46.92657" lon="8.57943">
        <ele>618</ele>
        <time>2021-08-10T11:15:37.833Z</time>
      </trkpt>
      <trkpt lat="46.92658" lon="8.57943">
        <ele>618</ele>
        <time>2021-08-10T11:15:38.832Z</time>
      </trkpt>
      <trkpt lat="46.92657" lon="8.57943">
        <ele>618</ele>
        <time>2021-08-10T11:15:39.832Z</time>
      </trkpt>
      <trkpt lat="46.92658" lon="8.57942">
        <ele>618</ele>
        <time>2021-08-10T11:15:40.832Z</time>
      </trkpt>
      <trkpt lat="46.92659" lon="8.57941">
        <ele>618</ele>
        <time>2021-08-10T11:15:41.832Z</time>
      </trkpt>
      <trkpt lat="46.9266" lon="8.57941">
        <ele>618</ele>
        <time>2021-08-10T11:15:42.833Z</time>
      </trkpt>
      <trkpt lat="46.9266" lon="8.57943">
        <ele>618</ele>
        <time>2021-08-10T11:15:43.832Z</time>
      </trkpt>
      <trkpt lat="46.92659" lon="8.57943">
        <ele>619</ele>
        <time>2021-08-10T11:15:44.833Z</time>
      </trkpt>
      <trkpt lat="46.92659" lon="8.57944">
        <ele>619</ele>
        <time>2021-08-10T11:15:45.833Z</time>
      </trkpt>
      <trkpt lat="46.92658" lon="8.57945">
        <ele>619</ele>
        <time>2021-08-10T11:15:46.832Z</time>
      </trkpt>
      <trkpt lat="46.92657" lon="8.57945">
        <ele>620</ele>
        <time>2021-08-10T11:15:47.833Z</time>
      </trkpt>
      <trkpt lat="46.92657" lon="8.57945">
        <ele>620</ele>
        <time>2021-08-10T11:15:48.833Z</time>
      </trkpt>
      <trkpt lat="46.92656" lon="8.57945">
        <ele>620</ele>
        <time>2021-08-10T11:15:49.833Z</time>
      </trkpt>
      <trkpt lat="46.92658" lon="8.57943">
        <ele>620</ele>
        <time>2021-08-10T11:15:50.832Z</time>
      </trkpt>
      <trkpt lat="46.92658" lon="8.57942">
        <ele>620</ele>
        <time>2021-08-10T11:15:51.833Z</time>
      </trkpt>
      <trkpt lat="46.92658" lon="8.57942">
        <ele>620</ele>
        <time>2021-08-10T11:15:52.833Z</time>
      </trkpt>
      <trkpt lat="46.92658" lon="8.57942">
        <ele>621</ele>
        <time>2021-08-10T11:15:53.833Z</time>
      </trkpt>
      <trkpt lat="46.9266" lon="8.57941">
        <ele>621</ele>
        <time>2021-08-10T11:15:54.833Z</time>
      </trkpt>
      <trkpt lat="46.92661" lon="8.57941">
        <ele>621</ele>
        <time>2021-08-10T11:15:55.833Z</time>
      </trkpt>
      <trkpt lat="46.92663" lon="8.5794">
        <ele>621</ele>
        <time>2021-08-10T11:15:56.832Z</time>
      </trkpt>
      <trkpt lat="46.92664" lon="8.57939">
        <ele>621</ele>
        <time>2021-08-10T11:15:57.833Z</time>
      </trkpt>
      <trkpt lat="46.92663" lon="8.5794">
        <ele>621</ele>
        <time>2021-08-10T11:15:58.833Z</time>
      </trkpt>
      <trkpt lat="46.92663" lon="8.5794">
        <ele>621</ele>
        <time>2021-08-10T11:15:59.833Z</time>
      </trkpt>
      <trkpt lat="46.92662" lon="8.5794">
        <ele>622</ele>
        <time>2021-08-10T11:16:00.833Z</time>
      </trkpt>
      <trkpt lat="46.92661" lon="8.5794">
        <ele>622</ele>
        <time>2021-08-10T11:16:01.832Z</time>
      </trkpt>
      <trkpt lat="46.92659" lon="8.57939">
        <ele>622</ele>
        <time>2021-08-10T11:16:02.832Z</time>
      </trkpt>
      <trkpt lat="46.92659" lon="8.57942">
        <ele>622</ele>
        <time>2021-08-10T11:16:03.832Z</time>
      </trkpt>
      <trkpt lat="46.92658" lon="8.57945">
        <ele>622</ele>
        <time>2021-08-10T11:16:04.832Z</time>
      </trkpt>
      <trkpt lat="46.92657" lon="8.57948">
        <ele>622</ele>
        <time>2021-08-10T11:16:05.833Z</time>
      </trkpt>
      <trkpt lat="46.92657" lon="8.5795">
        <ele>623</ele>
        <time>2021-08-10T11:16:06.832Z</time>
      </trkpt>
      <trkpt lat="46.92656" lon="8.57951">
        <ele>623</ele>
        <time>2021-08-10T11:16:07.832Z</time>
      </trkpt>
      <trkpt lat="46.92655" lon="8.57953">
        <ele>624</ele>
        <time>2021-08-10T11:16:08.832Z</time>
      </trkpt>
      <trkpt lat="46.92655" lon="8.57954">
        <ele>625</ele>
        <time>2021-08-10T11:16:09.832Z</time>
      </trkpt>
      <trkpt lat="46.92654" lon="8.57956">
        <ele>626</ele>
        <time>2021-08-10T11:16:10.832Z</time>
      </trkpt>
      <trkpt lat="46.92654" lon="8.57958">
        <ele>627</ele>
        <time>2021-08-10T11:16:11.833Z</time>
      </trkpt>
      <trkpt lat="46.92653" lon="8.5796">
        <ele>627</ele>
        <time>2021-08-10T11:16:12.832Z</time>
      </trkpt>
      <trkpt lat="46.92653" lon="8.57961">
        <ele>628</ele>
        <time>2021-08-10T11:16:13.833Z</time>
      </trkpt>
      <trkpt lat="46.92652" lon="8.57961">
        <ele>628</ele>
        <time>2021-08-10T11:16:14.833Z</time>
      </trkpt>
      <trkpt lat="46.92651" lon="8.57961">
        <ele>629</ele>
        <time>2021-08-10T11:16:15.833Z</time>
      </trkpt>
      <trkpt lat="46.9265" lon="8.57961">
        <ele>630</ele>
        <time>2021-08-10T11:16:16.833Z</time>
      </trkpt>
      <trkpt lat="46.92648" lon="8.57961">
        <ele>630</ele>
        <time>2021-08-10T11:16:17.832Z</time>
      </trkpt>
      <trkpt lat="46.92647" lon="8.57962">
        <ele>631</ele>
        <time>2021-08-10T11:16:18.832Z</time>
      </trkpt>
      <trkpt lat="46.92646" lon="8.57963">
        <ele>632</ele>
        <time>2021-08-10T11:16:19.833Z</time>
      </trkpt>
      <trkpt lat="46.92647" lon="8.57962">
        <ele>634</ele>
        <time>2021-08-10T11:16:20.832Z</time>
      </trkpt>
      <trkpt lat="46.92647" lon="8.57962">
        <ele>635</ele>
        <time>2021-08-10T11:16:21.833Z</time>
      </trkpt>
      <trkpt lat="46.92647" lon="8.57962">
        <ele>636</ele>
        <time>2021-08-10T11:16:22.833Z</time>
      </trkpt>
      <trkpt lat="46.92647" lon="8.57962">
        <ele>637</ele>
        <time>2021-08-10T11:16:23.832Z</time>
      </trkpt>
      <trkpt lat="46.92642" lon="8.57955">
        <ele>638</ele>
        <time>2021-08-10T11:16:27.833Z</time>
      </trkpt>
      <trkpt lat="46.92641" lon="8.57956">
        <ele>638</ele>
        <time>2021-08-10T11:16:28.833Z</time>
      </trkpt>
      <trkpt lat="46.92641" lon="8.57955">
        <ele>639</ele>
        <time>2021-08-10T11:16:29.832Z</time>
      </trkpt>
      <trkpt lat="46.92641" lon="8.57955">
        <ele>640</ele>
        <time>2021-08-10T11:16:30.832Z</time>
      </trkpt>
      <trkpt lat="46.92641" lon="8.57954">
        <ele>641</ele>
        <time>2021-08-10T11:16:31.833Z</time>
      </trkpt>
      <trkpt lat="46.92641" lon="8.57954">
        <ele>641</ele>
        <time>2021-08-10T11:16:32.832Z</time>
      </trkpt>
      <trkpt lat="46.92641" lon="8.57953">
        <ele>642</ele>
        <time>2021-08-10T11:16:33.832Z</time>
      </trkpt>
      <trkpt lat="46.92641" lon="8.57954">
        <ele>642</ele>
        <time>2021-08-10T11:16:34.833Z</time>
      </trkpt>
      <trkpt lat="46.9264" lon="8.57955">
        <ele>643</ele>
        <time>2021-08-10T11:16:35.833Z</time>
      </trkpt>
      <trkpt lat="46.9264" lon="8.57955">
        <ele>643</ele>
        <time>2021-08-10T11:16:36.833Z</time>
      </trkpt>
      <trkpt lat="46.92639" lon="8.57955">
        <ele>644</ele>
        <time>2021-08-10T11:16:37.832Z</time>
      </trkpt>
      <trkpt lat="46.92638" lon="8.57954">
        <ele>644</ele>
        <time>2021-08-10T11:16:38.833Z</time>
      </trkpt>
      <trkpt lat="46.92638" lon="8.57954">
        <ele>644</ele>
        <time>2021-08-10T11:16:39.833Z</time>
      </trkpt>
      <trkpt lat="46.92637" lon="8.57954">
        <ele>645</ele>
        <time>2021-08-10T11:16:40.833Z</time>
      </trkpt>
      <trkpt lat="46.92637" lon="8.57954">
        <ele>645</ele>
        <time>2021-08-10T11:16:41.833Z</time>
      </trkpt>
      <trkpt lat="46.92637" lon="8.57954">
        <ele>645</ele>
        <time>2021-08-10T11:16:42.832Z</time>
      </trkpt>
      <trkpt lat="46.92636" lon="8.57953">
        <ele>645</ele>
        <time>2021-08-10T11:16:43.833Z</time>
      </trkpt>
      <trkpt lat="46.92635" lon="8.57953">
        <ele>645</ele>
        <time>2021-08-10T11:16:44.832Z</time>
      </trkpt>
      <trkpt lat="46.92634" lon="8.57953">
        <ele>646</ele>
        <time>2021-08-10T11:16:45.833Z</time>
      </trkpt>
      <trkpt lat="46.92633" lon="8.57953">
        <ele>646</ele>
        <time>2021-08-10T11:16:46.833Z</time>
      </trkpt>
      <trkpt lat="46.92631" lon="8.57954">
        <ele>646</ele>
        <time>2021-08-10T11:16:47.832Z</time>
      </trkpt>
      <trkpt lat="46.9263" lon="8.57953">
        <ele>646</ele>
        <time>2021-08-10T11:16:48.833Z</time>
      </trkpt>
      <trkpt lat="46.92629" lon="8.57954">
        <ele>646</ele>
        <time>2021-08-10T11:16:49.832Z</time>
      </trkpt>
      <trkpt lat="46.92628" lon="8.57953">
        <ele>646</ele>
        <time>2021-08-10T11:16:50.833Z</time>
      </trkpt>
      <trkpt lat="46.92628" lon="8.57953">
        <ele>646</ele>
        <time>2021-08-10T11:16:51.832Z</time>
      </trkpt>
      <trkpt lat="46.92627" lon="8.57954">
        <ele>646</ele>
        <time>2021-08-10T11:16:52.833Z</time>
      </trkpt>
      <trkpt lat="46.92627" lon="8.57954">
        <ele>646</ele>
        <time>2021-08-10T11:16:53.833Z</time>
      </trkpt>
      <trkpt lat="46.92626" lon="8.57955">
        <ele>646</ele>
        <time>2021-08-10T11:16:54.833Z</time>
      </trkpt>
      <trkpt lat="46.92625" lon="8.57955">
        <ele>646</ele>
        <time>2021-08-10T11:16:55.833Z</time>
      </trkpt>
      <trkpt lat="46.92624" lon="8.57956">
        <ele>647</ele>
        <time>2021-08-10T11:16:56.833Z</time>
      </trkpt>
      <trkpt lat="46.92623" lon="8.57957">
        <ele>647</ele>
        <time>2021-08-10T11:16:57.833Z</time>
      </trkpt>
      <trkpt lat="46.92621" lon="8.57959">
        <ele>647</ele>
        <time>2021-08-10T11:16:58.833Z</time>
      </trkpt>
      <trkpt lat="46.9262" lon="8.5796">
        <ele>648</ele>
        <time>2021-08-10T11:16:59.833Z</time>
      </trkpt>
      <trkpt lat="46.9262" lon="8.57961">
        <ele>648</ele>
        <time>2021-08-10T11:17:00.833Z</time>
      </trkpt>
      <trkpt lat="46.9262" lon="8.57961">
        <ele>648</ele>
        <time>2021-08-10T11:17:01.832Z</time>
      </trkpt>
      <trkpt lat="46.92619" lon="8.57962">
        <ele>649</ele>
        <time>2021-08-10T11:17:02.832Z</time>
      </trkpt>
      <trkpt lat="46.92617" lon="8.57964">
        <ele>649</ele>
        <time>2021-08-10T11:17:03.832Z</time>
      </trkpt>
      <trkpt lat="46.92616" lon="8.57964">
        <ele>650</ele>
        <time>2021-08-10T11:17:04.832Z</time>
      </trkpt>
      <trkpt lat="46.92615" lon="8.57964">
        <ele>650</ele>
        <time>2021-08-10T11:17:05.832Z</time>
      </trkpt>
      <trkpt lat="46.92614" lon="8.57964">
        <ele>651</ele>
        <time>2021-08-10T11:17:06.832Z</time>
      </trkpt>
      <trkpt lat="46.92614" lon="8.57964">
        <ele>651</ele>
        <time>2021-08-10T11:17:07.833Z</time>
      </trkpt>
      <trkpt lat="46.92613" lon="8.57963">
        <ele>652</ele>
        <time>2021-08-10T11:17:08.832Z</time>
      </trkpt>
      <trkpt lat="46.92613" lon="8.57963">
        <ele>652</ele>
        <time>2021-08-10T11:17:09.832Z</time>
      </trkpt>
      <trkpt lat="46.92613" lon="8.57964">
        <ele>653</ele>
        <time>2021-08-10T11:17:10.832Z</time>
      </trkpt>
      <trkpt lat="46.92612" lon="8.57964">
        <ele>653</ele>
        <time>2021-08-10T11:17:11.832Z</time>
      </trkpt>
      <trkpt lat="46.92611" lon="8.57965">
        <ele>653</ele>
        <time>2021-08-10T11:17:12.832Z</time>
      </trkpt>
      <trkpt lat="46.9261" lon="8.57965">
        <ele>653</ele>
        <time>2021-08-10T11:17:13.833Z</time>
      </trkpt>
      <trkpt lat="46.9261" lon="8.57966">
        <ele>654</ele>
        <time>2021-08-10T11:17:14.832Z</time>
      </trkpt>
      <trkpt lat="46.92609" lon="8.57965">
        <ele>654</ele>
        <time>2021-08-10T11:17:15.833Z</time>
      </trkpt>
      <trkpt lat="46.92609" lon="8.57965">
        <ele>654</ele>
        <time>2021-08-10T11:17:16.833Z</time>
      </trkpt>
      <trkpt lat="46.92608" lon="8.57966">
        <ele>654</ele>
        <time>2021-08-10T11:17:17.833Z</time>
      </trkpt>
      <trkpt lat="46.92607" lon="8.57966">
        <ele>655</ele>
        <time>2021-08-10T11:17:18.833Z</time>
      </trkpt>
      <trkpt lat="46.92607" lon="8.57966">
        <ele>655</ele>
        <time>2021-08-10T11:17:19.833Z</time>
      </trkpt>
      <trkpt lat="46.92606" lon="8.57967">
        <ele>655</ele>
        <time>2021-08-10T11:17:20.832Z</time>
      </trkpt>
      <trkpt lat="46.92606" lon="8.57966">
        <ele>655</ele>
        <time>2021-08-10T11:17:21.833Z</time>
      </trkpt>
      <trkpt lat="46.92605" lon="8.57966">
        <ele>655</ele>
        <time>2021-08-10T11:17:22.833Z</time>
      </trkpt>
      <trkpt lat="46.92605" lon="8.57966">
        <ele>655</ele>
        <time>2021-08-10T11:17:23.832Z</time>
      </trkpt>
      <trkpt lat="46.92605" lon="8.57965">
        <ele>655</ele>
        <time>2021-08-10T11:17:24.832Z</time>
      </trkpt>
      <trkpt lat="46.92605" lon="8.57965">
        <ele>655</ele>
        <time>2021-08-10T11:17:25.833Z</time>
      </trkpt>
      <trkpt lat="46.92604" lon="8.57965">
        <ele>655</ele>
        <time>2021-08-10T11:17:26.833Z</time>
      </trkpt>
      <trkpt lat="46.92603" lon="8.57965">
        <ele>655</ele>
        <time>2021-08-10T11:17:27.832Z</time>
      </trkpt>
      <trkpt lat="46.92603" lon="8.57965">
        <ele>655</ele>
        <time>2021-08-10T11:17:28.833Z</time>
      </trkpt>
      <trkpt lat="46.92602" lon="8.57965">
        <ele>655</ele>
        <time>2021-08-10T11:17:29.833Z</time>
      </trkpt>
      <trkpt lat="46.92602" lon="8.57965">
        <ele>655</ele>
        <time>2021-08-10T11:17:30.833Z</time>
      </trkpt>
      <trkpt lat="46.92601" lon="8.57965">
        <ele>655</ele>
        <time>2021-08-10T11:17:31.833Z</time>
      </trkpt>
      <trkpt lat="46.926" lon="8.57966">
        <ele>655</ele>
        <time>2021-08-10T11:17:32.833Z</time>
      </trkpt>
      <trkpt lat="46.926" lon="8.57966">
        <ele>655</ele>
        <time>2021-08-10T11:17:33.832Z</time>
      </trkpt>
      <trkpt lat="46.92599" lon="8.57966">
        <ele>654</ele>
        <time>2021-08-10T11:17:34.833Z</time>
      </trkpt>
      <trkpt lat="46.92598" lon="8.57968">
        <ele>653</ele>
        <time>2021-08-10T11:17:35.833Z</time>
      </trkpt>
      <trkpt lat="46.92598" lon="8.57969">
        <ele>653</ele>
        <time>2021-08-10T11:17:36.833Z</time>
      </trkpt>
      <trkpt lat="46.92597" lon="8.5797">
        <ele>652</ele>
        <time>2021-08-10T11:17:37.832Z</time>
      </trkpt>
      <trkpt lat="46.92597" lon="8.57971">
        <ele>652</ele>
        <time>2021-08-10T11:17:38.832Z</time>
      </trkpt>
      <trkpt lat="46.92597" lon="8.57973">
        <ele>651</ele>
        <time>2021-08-10T11:17:39.833Z</time>
      </trkpt>
      <trkpt lat="46.92596" lon="8.57974">
        <ele>651</ele>
        <time>2021-08-10T11:17:40.832Z</time>
      </trkpt>
      <trkpt lat="46.92596" lon="8.57976">
        <ele>650</ele>
        <time>2021-08-10T11:17:41.832Z</time>
      </trkpt>
      <trkpt lat="46.92595" lon="8.57978">
        <ele>649</ele>
        <time>2021-08-10T11:17:42.833Z</time>
      </trkpt>
      <trkpt lat="46.92595" lon="8.57979">
        <ele>648</ele>
        <time>2021-08-10T11:17:43.833Z</time>
      </trkpt>
      <trkpt lat="46.92595" lon="8.57981">
        <ele>647</ele>
        <time>2021-08-10T11:17:44.833Z</time>
      </trkpt>
      <trkpt lat="46.92596" lon="8.57983">
        <ele>646</ele>
        <time>2021-08-10T11:17:45.832Z</time>
      </trkpt>
      <trkpt lat="46.92596" lon="8.57984">
        <ele>645</ele>
        <time>2021-08-10T11:17:46.832Z</time>
      </trkpt>
      <trkpt lat="46.92596" lon="8.57986">
        <ele>644</ele>
        <time>2021-08-10T11:17:47.832Z</time>
      </trkpt>
      <trkpt lat="46.92596" lon="8.57987">
        <ele>643</ele>
        <time>2021-08-10T11:17:48.832Z</time>
      </trkpt>
      <trkpt lat="46.92596" lon="8.57988">
        <ele>643</ele>
        <time>2021-08-10T11:17:49.833Z</time>
      </trkpt>
      <trkpt lat="46.92597" lon="8.57989">
        <ele>642</ele>
        <time>2021-08-10T11:17:50.833Z</time>
      </trkpt>
      <trkpt lat="46.92597" lon="8.57991">
        <ele>642</ele>
        <time>2021-08-10T11:17:51.833Z</time>
      </trkpt>
      <trkpt lat="46.92597" lon="8.57992">
        <ele>642</ele>
        <time>2021-08-10T11:17:52.833Z</time>
      </trkpt>
      <trkpt lat="46.92596" lon="8.57993">
        <ele>642</ele>
        <time>2021-08-10T11:17:53.832Z</time>
      </trkpt>
      <trkpt lat="46.92596" lon="8.57994">
        <ele>643</ele>
        <time>2021-08-10T11:17:54.833Z</time>
      </trkpt>
      <trkpt lat="46.92596" lon="8.57995">
        <ele>643</ele>
        <time>2021-08-10T11:17:55.833Z</time>
      </trkpt>
      <trkpt lat="46.92596" lon="8.57996">
        <ele>642</ele>
        <time>2021-08-10T11:17:56.833Z</time>
      </trkpt>
      <trkpt lat="46.92595" lon="8.57997">
        <ele>642</ele>
        <time>2021-08-10T11:17:57.833Z</time>
      </trkpt>
      <trkpt lat="46.92595" lon="8.57998">
        <ele>642</ele>
        <time>2021-08-10T11:17:58.832Z</time>
      </trkpt>
      <trkpt lat="46.92595" lon="8.57997">
        <ele>642</ele>
        <time>2021-08-10T11:17:59.833Z</time>
      </trkpt>
      <trkpt lat="46.92594" lon="8.57999">
        <ele>641</ele>
        <time>2021-08-10T11:18:00.833Z</time>
      </trkpt>
      <trkpt lat="46.92594" lon="8.58">
        <ele>640</ele>
        <time>2021-08-10T11:18:01.833Z</time>
      </trkpt>
      <trkpt lat="46.92594" lon="8.58">
        <ele>640</ele>
        <time>2021-08-10T11:18:02.833Z</time>
      </trkpt>
      <trkpt lat="46.92594" lon="8.58001">
        <ele>639</ele>
        <time>2021-08-10T11:18:03.833Z</time>
      </trkpt>
      <trkpt lat="46.92594" lon="8.58002">
        <ele>639</ele>
        <time>2021-08-10T11:18:04.833Z</time>
      </trkpt>
      <trkpt lat="46.92594" lon="8.58003">
        <ele>638</ele>
        <time>2021-08-10T11:18:05.833Z</time>
      </trkpt>
      <trkpt lat="46.92593" lon="8.58004">
        <ele>638</ele>
        <time>2021-08-10T11:18:06.832Z</time>
      </trkpt>
      <trkpt lat="46.92594" lon="8.58006">
        <ele>638</ele>
        <time>2021-08-10T11:18:07.832Z</time>
      </trkpt>
      <trkpt lat="46.92593" lon="8.58007">
        <ele>637</ele>
        <time>2021-08-10T11:18:08.832Z</time>
      </trkpt>
      <trkpt lat="46.92593" lon="8.58007">
        <ele>637</ele>
        <time>2021-08-10T11:18:09.833Z</time>
      </trkpt>
      <trkpt lat="46.92593" lon="8.58008">
        <ele>637</ele>
        <time>2021-08-10T11:18:10.833Z</time>
      </trkpt>
      <trkpt lat="46.92593" lon="8.58009">
        <ele>637</ele>
        <time>2021-08-10T11:18:11.833Z</time>
      </trkpt>
      <trkpt lat="46.92593" lon="8.58009">
        <ele>637</ele>
        <time>2021-08-10T11:18:12.833Z</time>
      </trkpt>
      <trkpt lat="46.92592" lon="8.5801">
        <ele>637</ele>
        <time>2021-08-10T11:18:13.833Z</time>
      </trkpt>
      <trkpt lat="46.92592" lon="8.5801">
        <ele>637</ele>
        <time>2021-08-10T11:18:14.832Z</time>
      </trkpt>
      <trkpt lat="46.92591" lon="8.58011">
        <ele>637</ele>
        <time>2021-08-10T11:18:15.832Z</time>
      </trkpt>
      <trkpt lat="46.9259" lon="8.58011">
        <ele>636</ele>
        <time>2021-08-10T11:18:16.833Z</time>
      </trkpt>
      <trkpt lat="46.92589" lon="8.5801">
        <ele>636</ele>
        <time>2021-08-10T11:18:17.833Z</time>
      </trkpt>
      <trkpt lat="46.92588" lon="8.5801">
        <ele>636</ele>
        <time>2021-08-10T11:18:18.832Z</time>
      </trkpt>
      <trkpt lat="46.92588" lon="8.5801">
        <ele>636</ele>
        <time>2021-08-10T11:18:19.833Z</time>
      </trkpt>
      <trkpt lat="46.92587" lon="8.5801">
        <ele>636</ele>
        <time>2021-08-10T11:18:20.832Z</time>
      </trkpt>
      <trkpt lat="46.92587" lon="8.58011">
        <ele>635</ele>
        <time>2021-08-10T11:18:21.833Z</time>
      </trkpt>
      <trkpt lat="46.92587" lon="8.58011">
        <ele>635</ele>
        <time>2021-08-10T11:18:22.832Z</time>
      </trkpt>
      <trkpt lat="46.92587" lon="8.58012">
        <ele>635</ele>
        <time>2021-08-10T11:18:23.833Z</time>
      </trkpt>
      <trkpt lat="46.92587" lon="8.58013">
        <ele>634</ele>
        <time>2021-08-10T11:18:24.833Z</time>
      </trkpt>
      <trkpt lat="46.92587" lon="8.58013">
        <ele>634</ele>
        <time>2021-08-10T11:18:25.832Z</time>
      </trkpt>
      <trkpt lat="46.92586" lon="8.58015">
        <ele>634</ele>
        <time>2021-08-10T11:18:26.833Z</time>
      </trkpt>
      <trkpt lat="46.92586" lon="8.58015">
        <ele>634</ele>
        <time>2021-08-10T11:18:27.833Z</time>
      </trkpt>
      <trkpt lat="46.92585" lon="8.58016">
        <ele>634</ele>
        <time>2021-08-10T11:18:28.833Z</time>
      </trkpt>
      <trkpt lat="46.92585" lon="8.58017">
        <ele>635</ele>
        <time>2021-08-10T11:18:29.833Z</time>
      </trkpt>
      <trkpt lat="46.92584" lon="8.58019">
        <ele>635</ele>
        <time>2021-08-10T11:18:30.833Z</time>
      </trkpt>
      <trkpt lat="46.92584" lon="8.5802">
        <ele>636</ele>
        <time>2021-08-10T11:18:31.833Z</time>
      </trkpt>
      <trkpt lat="46.92583" lon="8.58022">
        <ele>636</ele>
        <time>2021-08-10T11:18:32.833Z</time>
      </trkpt>
      <trkpt lat="46.92583" lon="8.58023">
        <ele>636</ele>
        <time>2021-08-10T11:18:33.833Z</time>
      </trkpt>
      <trkpt lat="46.92583" lon="8.58024">
        <ele>637</ele>
        <time>2021-08-10T11:18:34.833Z</time>
      </trkpt>
      <trkpt lat="46.92582" lon="8.58026">
        <ele>637</ele>
        <time>2021-08-10T11:18:35.833Z</time>
      </trkpt>
      <trkpt lat="46.92582" lon="8.58027">
        <ele>637</ele>
        <time>2021-08-10T11:18:36.833Z</time>
      </trkpt>
      <trkpt lat="46.92581" lon="8.58028">
        <ele>637</ele>
        <time>2021-08-10T11:18:37.832Z</time>
      </trkpt>
      <trkpt lat="46.92581" lon="8.5803">
        <ele>638</ele>
        <time>2021-08-10T11:18:38.833Z</time>
      </trkpt>
      <trkpt lat="46.9258" lon="8.58031">
        <ele>638</ele>
        <time>2021-08-10T11:18:39.833Z</time>
      </trkpt>
      <trkpt lat="46.92579" lon="8.58032">
        <ele>637</ele>
        <time>2021-08-10T11:18:40.832Z</time>
      </trkpt>
      <trkpt lat="46.92578" lon="8.58032">
        <ele>637</ele>
        <time>2021-08-10T11:18:41.833Z</time>
      </trkpt>
      <trkpt lat="46.92578" lon="8.58032">
        <ele>637</ele>
        <time>2021-08-10T11:18:42.833Z</time>
      </trkpt>
      <trkpt lat="46.92578" lon="8.58032">
        <ele>638</ele>
        <time>2021-08-10T11:18:43.832Z</time>
      </trkpt>
      <trkpt lat="46.92578" lon="8.58033">
        <ele>638</ele>
        <time>2021-08-10T11:18:44.833Z</time>
      </trkpt>
      <trkpt lat="46.92578" lon="8.58034">
        <ele>638</ele>
        <time>2021-08-10T11:18:45.833Z</time>
      </trkpt>
      <trkpt lat="46.92578" lon="8.58034">
        <ele>637</ele>
        <time>2021-08-10T11:18:46.832Z</time>
      </trkpt>
      <trkpt lat="46.92578" lon="8.58035">
        <ele>637</ele>
        <time>2021-08-10T11:18:47.833Z</time>
      </trkpt>
      <trkpt lat="46.92577" lon="8.58036">
        <ele>637</ele>
        <time>2021-08-10T11:18:48.833Z</time>
      </trkpt>
      <trkpt lat="46.92577" lon="8.58037">
        <ele>637</ele>
        <time>2021-08-10T11:18:49.833Z</time>
      </trkpt>
      <trkpt lat="46.92577" lon="8.58037">
        <ele>636</ele>
        <time>2021-08-10T11:18:50.833Z</time>
      </trkpt>
      <trkpt lat="46.92577" lon="8.58038">
        <ele>636</ele>
        <time>2021-08-10T11:18:51.833Z</time>
      </trkpt>
      <trkpt lat="46.92577" lon="8.58039">
        <ele>636</ele>
        <time>2021-08-10T11:18:52.833Z</time>
      </trkpt>
      <trkpt lat="46.92577" lon="8.5804">
        <ele>636</ele>
        <time>2021-08-10T11:18:53.832Z</time>
      </trkpt>
      <trkpt lat="46.92577" lon="8.5804">
        <ele>636</ele>
        <time>2021-08-10T11:18:54.833Z</time>
      </trkpt>
      <trkpt lat="46.92576" lon="8.5804">
        <ele>636</ele>
        <time>2021-08-10T11:18:55.833Z</time>
      </trkpt>
      <trkpt lat="46.92575" lon="8.5804">
        <ele>636</ele>
        <time>2021-08-10T11:18:56.832Z</time>
      </trkpt>
      <trkpt lat="46.92575" lon="8.58041">
        <ele>635</ele>
        <time>2021-08-10T11:18:57.833Z</time>
      </trkpt>
      <trkpt lat="46.92574" lon="8.58041">
        <ele>635</ele>
        <time>2021-08-10T11:18:58.832Z</time>
      </trkpt>
      <trkpt lat="46.92573" lon="8.58042">
        <ele>635</ele>
        <time>2021-08-10T11:18:59.832Z</time>
      </trkpt>
      <trkpt lat="46.92573" lon="8.58043">
        <ele>635</ele>
        <time>2021-08-10T11:19:00.832Z</time>
      </trkpt>
      <trkpt lat="46.92573" lon="8.58044">
        <ele>634</ele>
        <time>2021-08-10T11:19:01.833Z</time>
      </trkpt>
      <trkpt lat="46.92572" lon="8.58045">
        <ele>634</ele>
        <time>2021-08-10T11:19:02.833Z</time>
      </trkpt>
      <trkpt lat="46.92572" lon="8.58047">
        <ele>634</ele>
        <time>2021-08-10T11:19:03.832Z</time>
      </trkpt>
      <trkpt lat="46.92572" lon="8.58047">
        <ele>633</ele>
        <time>2021-08-10T11:19:04.833Z</time>
      </trkpt>
      <trkpt lat="46.92572" lon="8.58048">
        <ele>633</ele>
        <time>2021-08-10T11:19:05.833Z</time>
      </trkpt>
      <trkpt lat="46.92572" lon="8.58049">
        <ele>633</ele>
        <time>2021-08-10T11:19:06.833Z</time>
      </trkpt>
      <trkpt lat="46.92572" lon="8.5805">
        <ele>633</ele>
        <time>2021-08-10T11:19:07.832Z</time>
      </trkpt>
      <trkpt lat="46.92572" lon="8.58051">
        <ele>633</ele>
        <time>2021-08-10T11:19:08.833Z</time>
      </trkpt>
      <trkpt lat="46.92572" lon="8.58053">
        <ele>633</ele>
        <time>2021-08-10T11:19:09.833Z</time>
      </trkpt>
      <trkpt lat="46.92571" lon="8.58054">
        <ele>633</ele>
        <time>2021-08-10T11:19:10.833Z</time>
      </trkpt>
      <trkpt lat="46.92571" lon="8.58055">
        <ele>633</ele>
        <time>2021-08-10T11:19:11.832Z</time>
      </trkpt>
      <trkpt lat="46.92571" lon="8.58056">
        <ele>633</ele>
        <time>2021-08-10T11:19:12.832Z</time>
      </trkpt>
      <trkpt lat="46.92572" lon="8.58057">
        <ele>632</ele>
        <time>2021-08-10T11:19:13.832Z</time>
      </trkpt>
      <trkpt lat="46.92572" lon="8.58058">
        <ele>632</ele>
        <time>2021-08-10T11:19:14.833Z</time>
      </trkpt>
      <trkpt lat="46.92572" lon="8.5806">
        <ele>632</ele>
        <time>2021-08-10T11:19:15.833Z</time>
      </trkpt>
      <trkpt lat="46.92572" lon="8.5806">
        <ele>632</ele>
        <time>2021-08-10T11:19:16.832Z</time>
      </trkpt>
      <trkpt lat="46.92572" lon="8.58061">
        <ele>632</ele>
        <time>2021-08-10T11:19:17.833Z</time>
      </trkpt>
      <trkpt lat="46.92572" lon="8.58062">
        <ele>632</ele>
        <time>2021-08-10T11:19:18.833Z</time>
      </trkpt>
      <trkpt lat="46.92572" lon="8.58063">
        <ele>633</ele>
        <time>2021-08-10T11:19:19.833Z</time>
      </trkpt>
      <trkpt lat="46.92571" lon="8.58064">
        <ele>633</ele>
        <time>2021-08-10T11:19:20.833Z</time>
      </trkpt>
      <trkpt lat="46.92571" lon="8.58064">
        <ele>633</ele>
        <time>2021-08-10T11:19:21.832Z</time>
      </trkpt>
      <trkpt lat="46.9257" lon="8.58065">
        <ele>633</ele>
        <time>2021-08-10T11:19:22.833Z</time>
      </trkpt>
      <trkpt lat="46.9257" lon="8.58066">
        <ele>634</ele>
        <time>2021-08-10T11:19:23.833Z</time>
      </trkpt>
      <trkpt lat="46.9257" lon="8.58068">
        <ele>634</ele>
        <time>2021-08-10T11:19:24.832Z</time>
      </trkpt>
      <trkpt lat="46.9257" lon="8.58069">
        <ele>634</ele>
        <time>2021-08-10T11:19:25.833Z</time>
      </trkpt>
      <trkpt lat="46.9257" lon="8.5807">
        <ele>634</ele>
        <time>2021-08-10T11:19:26.832Z</time>
      </trkpt>
      <trkpt lat="46.92569" lon="8.58071">
        <ele>635</ele>
        <time>2021-08-10T11:19:27.833Z</time>
      </trkpt>
      <trkpt lat="46.92568" lon="8.58072">
        <ele>635</ele>
        <time>2021-08-10T11:19:28.833Z</time>
      </trkpt>
      <trkpt lat="46.92567" lon="8.58073">
        <ele>635</ele>
        <time>2021-08-10T11:19:29.833Z</time>
      </trkpt>
      <trkpt lat="46.92566" lon="8.58074">
        <ele>636</ele>
        <time>2021-08-10T11:19:30.832Z</time>
      </trkpt>
      <trkpt lat="46.92566" lon="8.58074">
        <ele>636</ele>
        <time>2021-08-10T11:19:31.833Z</time>
      </trkpt>
      <trkpt lat="46.92567" lon="8.58075">
        <ele>637</ele>
        <time>2021-08-10T11:19:32.833Z</time>
      </trkpt>
      <trkpt lat="46.92567" lon="8.58076">
        <ele>637</ele>
        <time>2021-08-10T11:19:33.833Z</time>
      </trkpt>
      <trkpt lat="46.92567" lon="8.58077">
        <ele>637</ele>
        <time>2021-08-10T11:19:34.833Z</time>
      </trkpt>
      <trkpt lat="46.92567" lon="8.58078">
        <ele>638</ele>
        <time>2021-08-10T11:19:35.832Z</time>
      </trkpt>
      <trkpt lat="46.92567" lon="8.58078">
        <ele>638</ele>
        <time>2021-08-10T11:19:36.833Z</time>
      </trkpt>
      <trkpt lat="46.92567" lon="8.58079">
        <ele>638</ele>
        <time>2021-08-10T11:19:37.833Z</time>
      </trkpt>
      <trkpt lat="46.92567" lon="8.5808">
        <ele>639</ele>
        <time>2021-08-10T11:19:38.833Z</time>
      </trkpt>
      <trkpt lat="46.92567" lon="8.5808">
        <ele>639</ele>
        <time>2021-08-10T11:19:39.833Z</time>
      </trkpt>
      <trkpt lat="46.92567" lon="8.58081">
        <ele>640</ele>
        <time>2021-08-10T11:19:40.833Z</time>
      </trkpt>
      <trkpt lat="46.92566" lon="8.58081">
        <ele>640</ele>
        <time>2021-08-10T11:19:41.833Z</time>
      </trkpt>
      <trkpt lat="46.92566" lon="8.58081">
        <ele>641</ele>
        <time>2021-08-10T11:19:42.833Z</time>
      </trkpt>
      <trkpt lat="46.92566" lon="8.58083">
        <ele>641</ele>
        <time>2021-08-10T11:19:43.832Z</time>
      </trkpt>
      <trkpt lat="46.92566" lon="8.58083">
        <ele>641</ele>
        <time>2021-08-10T11:19:44.832Z</time>
      </trkpt>
      <trkpt lat="46.92565" lon="8.58084">
        <ele>642</ele>
        <time>2021-08-10T11:19:45.832Z</time>
      </trkpt>
      <trkpt lat="46.92564" lon="8.58085">
        <ele>642</ele>
        <time>2021-08-10T11:19:46.833Z</time>
      </trkpt>
      <trkpt lat="46.92562" lon="8.58085">
        <ele>643</ele>
        <time>2021-08-10T11:19:47.832Z</time>
      </trkpt>
      <trkpt lat="46.92561" lon="8.58086">
        <ele>643</ele>
        <time>2021-08-10T11:19:48.833Z</time>
      </trkpt>
      <trkpt lat="46.92562" lon="8.58087">
        <ele>643</ele>
        <time>2021-08-10T11:19:49.832Z</time>
      </trkpt>
      <trkpt lat="46.92562" lon="8.58088">
        <ele>644</ele>
        <time>2021-08-10T11:19:50.833Z</time>
      </trkpt>
      <trkpt lat="46.92562" lon="8.58088">
        <ele>644</ele>
        <time>2021-08-10T11:19:51.833Z</time>
      </trkpt>
      <trkpt lat="46.92562" lon="8.58089">
        <ele>644</ele>
        <time>2021-08-10T11:19:52.832Z</time>
      </trkpt>
      <trkpt lat="46.92561" lon="8.5809">
        <ele>645</ele>
        <time>2021-08-10T11:19:53.832Z</time>
      </trkpt>
      <trkpt lat="46.9256" lon="8.58091">
        <ele>645</ele>
        <time>2021-08-10T11:19:54.832Z</time>
      </trkpt>
      <trkpt lat="46.92559" lon="8.58092">
        <ele>646</ele>
        <time>2021-08-10T11:19:55.832Z</time>
      </trkpt>
      <trkpt lat="46.92559" lon="8.58093">
        <ele>646</ele>
        <time>2021-08-10T11:19:56.833Z</time>
      </trkpt>
      <trkpt lat="46.92559" lon="8.58094">
        <ele>647</ele>
        <time>2021-08-10T11:19:57.832Z</time>
      </trkpt>
      <trkpt lat="46.92559" lon="8.58095">
        <ele>647</ele>
        <time>2021-08-10T11:19:58.832Z</time>
      </trkpt>
      <trkpt lat="46.92558" lon="8.58096">
        <ele>648</ele>
        <time>2021-08-10T11:19:59.833Z</time>
      </trkpt>
      <trkpt lat="46.92557" lon="8.58096">
        <ele>649</ele>
        <time>2021-08-10T11:20:00.833Z</time>
      </trkpt>
      <trkpt lat="46.92556" lon="8.58097">
        <ele>649</ele>
        <time>2021-08-10T11:20:01.832Z</time>
      </trkpt>
      <trkpt lat="46.92556" lon="8.58099">
        <ele>650</ele>
        <time>2021-08-10T11:20:02.833Z</time>
      </trkpt>
      <trkpt lat="46.92556" lon="8.58099">
        <ele>650</ele>
        <time>2021-08-10T11:20:03.832Z</time>
      </trkpt>
      <trkpt lat="46.92557" lon="8.58099">
        <ele>650</ele>
        <time>2021-08-10T11:20:04.833Z</time>
      </trkpt>
      <trkpt lat="46.92557" lon="8.58099">
        <ele>651</ele>
        <time>2021-08-10T11:20:05.832Z</time>
      </trkpt>
      <trkpt lat="46.92556" lon="8.58098">
        <ele>652</ele>
        <time>2021-08-10T11:20:06.832Z</time>
      </trkpt>
      <trkpt lat="46.92556" lon="8.58098">
        <ele>652</ele>
        <time>2021-08-10T11:20:07.832Z</time>
      </trkpt>
      <trkpt lat="46.92555" lon="8.58097">
        <ele>652</ele>
        <time>2021-08-10T11:20:08.833Z</time>
      </trkpt>
      <trkpt lat="46.92555" lon="8.58097">
        <ele>653</ele>
        <time>2021-08-10T11:20:09.832Z</time>
      </trkpt>
      <trkpt lat="46.92556" lon="8.58097">
        <ele>653</ele>
        <time>2021-08-10T11:20:10.832Z</time>
      </trkpt>
      <trkpt lat="46.92556" lon="8.58096">
        <ele>653</ele>
        <time>2021-08-10T11:20:11.832Z</time>
      </trkpt>
      <trkpt lat="46.92555" lon="8.58095">
        <ele>654</ele>
        <time>2021-08-10T11:20:12.832Z</time>
      </trkpt>
      <trkpt lat="46.92555" lon="8.58095">
        <ele>654</ele>
        <time>2021-08-10T11:20:13.832Z</time>
      </trkpt>
      <trkpt lat="46.92554" lon="8.58094">
        <ele>654</ele>
        <time>2021-08-10T11:20:14.832Z</time>
      </trkpt>
      <trkpt lat="46.92554" lon="8.58094">
        <ele>654</ele>
        <time>2021-08-10T11:20:15.833Z</time>
      </trkpt>
      <trkpt lat="46.92554" lon="8.58094">
        <ele>655</ele>
        <time>2021-08-10T11:20:16.833Z</time>
      </trkpt>
      <trkpt lat="46.92553" lon="8.58095">
        <ele>655</ele>
        <time>2021-08-10T11:20:17.833Z</time>
      </trkpt>
      <trkpt lat="46.92552" lon="8.58095">
        <ele>655</ele>
        <time>2021-08-10T11:20:18.833Z</time>
      </trkpt>
      <trkpt lat="46.9255" lon="8.58096">
        <ele>656</ele>
        <time>2021-08-10T11:20:19.833Z</time>
      </trkpt>
      <trkpt lat="46.92549" lon="8.58096">
        <ele>656</ele>
        <time>2021-08-10T11:20:20.833Z</time>
      </trkpt>
      <trkpt lat="46.92548" lon="8.58096">
        <ele>657</ele>
        <time>2021-08-10T11:20:21.832Z</time>
      </trkpt>
      <trkpt lat="46.92547" lon="8.58096">
        <ele>657</ele>
        <time>2021-08-10T11:20:22.833Z</time>
      </trkpt>
      <trkpt lat="46.92546" lon="8.58097">
        <ele>658</ele>
        <time>2021-08-10T11:20:23.833Z</time>
      </trkpt>
      <trkpt lat="46.92545" lon="8.58098">
        <ele>658</ele>
        <time>2021-08-10T11:20:24.832Z</time>
      </trkpt>
      <trkpt lat="46.92544" lon="8.58099">
        <ele>659</ele>
        <time>2021-08-10T11:20:25.833Z</time>
      </trkpt>
      <trkpt lat="46.92543" lon="8.581">
        <ele>659</ele>
        <time>2021-08-10T11:20:26.833Z</time>
      </trkpt>
      <trkpt lat="46.92542" lon="8.581">
        <ele>660</ele>
        <time>2021-08-10T11:20:27.832Z</time>
      </trkpt>
      <trkpt lat="46.92541" lon="8.58101">
        <ele>661</ele>
        <time>2021-08-10T11:20:28.833Z</time>
      </trkpt>
      <trkpt lat="46.9254" lon="8.58101">
        <ele>661</ele>
        <time>2021-08-10T11:20:29.833Z</time>
      </trkpt>
      <trkpt lat="46.92539" lon="8.58102">
        <ele>662</ele>
        <time>2021-08-10T11:20:30.833Z</time>
      </trkpt>
      <trkpt lat="46.92539" lon="8.58102">
        <ele>662</ele>
        <time>2021-08-10T11:20:31.833Z</time>
      </trkpt>
      <trkpt lat="46.92539" lon="8.58103">
        <ele>663</ele>
        <time>2021-08-10T11:20:32.833Z</time>
      </trkpt>
      <trkpt lat="46.92539" lon="8.58103">
        <ele>664</ele>
        <time>2021-08-10T11:20:33.833Z</time>
      </trkpt>
      <trkpt lat="46.9254" lon="8.58104">
        <ele>664</ele>
        <time>2021-08-10T11:20:34.833Z</time>
      </trkpt>
      <trkpt lat="46.9254" lon="8.58105">
        <ele>664</ele>
        <time>2021-08-10T11:20:35.833Z</time>
      </trkpt>
      <trkpt lat="46.92538" lon="8.58107">
        <ele>665</ele>
        <time>2021-08-10T11:20:36.833Z</time>
      </trkpt>
      <trkpt lat="46.92539" lon="8.58106">
        <ele>665</ele>
        <time>2021-08-10T11:20:37.833Z</time>
      </trkpt>
      <trkpt lat="46.9254" lon="8.58106">
        <ele>665</ele>
        <time>2021-08-10T11:20:38.833Z</time>
      </trkpt>
      <trkpt lat="46.9254" lon="8.58106">
        <ele>665</ele>
        <time>2021-08-10T11:20:39.833Z</time>
      </trkpt>
      <trkpt lat="46.9254" lon="8.58106">
        <ele>665</ele>
        <time>2021-08-10T11:20:40.832Z</time>
      </trkpt>
      <trkpt lat="46.9254" lon="8.58106">
        <ele>665</ele>
        <time>2021-08-10T11:20:41.832Z</time>
      </trkpt>
      <trkpt lat="46.92541" lon="8.58106">
        <ele>665</ele>
        <time>2021-08-10T11:20:42.833Z</time>
      </trkpt>
      <trkpt lat="46.92541" lon="8.58106">
        <ele>666</ele>
        <time>2021-08-10T11:20:43.833Z</time>
      </trkpt>
      <trkpt lat="46.9254" lon="8.58107">
        <ele>666</ele>
        <time>2021-08-10T11:20:44.832Z</time>
      </trkpt>
      <trkpt lat="46.9254" lon="8.58107">
        <ele>666</ele>
        <time>2021-08-10T11:20:45.833Z</time>
      </trkpt>
      <trkpt lat="46.9254" lon="8.58107">
        <ele>666</ele>
        <time>2021-08-10T11:20:46.832Z</time>
      </trkpt>
      <trkpt lat="46.92539" lon="8.58107">
        <ele>666</ele>
        <time>2021-08-10T11:20:47.833Z</time>
      </trkpt>
      <trkpt lat="46.92539" lon="8.58107">
        <ele>666</ele>
        <time>2021-08-10T11:20:48.833Z</time>
      </trkpt>
      <trkpt lat="46.92539" lon="8.58107">
        <ele>667</ele>
        <time>2021-08-10T11:20:49.833Z</time>
      </trkpt>
      <trkpt lat="46.92538" lon="8.58107">
        <ele>667</ele>
        <time>2021-08-10T11:20:50.832Z</time>
      </trkpt>
      <trkpt lat="46.92538" lon="8.58108">
        <ele>667</ele>
        <time>2021-08-10T11:20:51.833Z</time>
      </trkpt>
      <trkpt lat="46.92538" lon="8.58108">
        <ele>667</ele>
        <time>2021-08-10T11:20:52.832Z</time>
      </trkpt>
      <trkpt lat="46.92538" lon="8.58108">
        <ele>668</ele>
        <time>2021-08-10T11:20:53.833Z</time>
      </trkpt>
      <trkpt lat="46.92537" lon="8.58108">
        <ele>668</ele>
        <time>2021-08-10T11:20:54.832Z</time>
      </trkpt>
      <trkpt lat="46.92535" lon="8.58108">
        <ele>668</ele>
        <time>2021-08-10T11:20:55.833Z</time>
      </trkpt>
      <trkpt lat="46.92534" lon="8.58107">
        <ele>668</ele>
        <time>2021-08-10T11:20:56.832Z</time>
      </trkpt>
      <trkpt lat="46.92533" lon="8.58107">
        <ele>668</ele>
        <time>2021-08-10T11:20:57.832Z</time>
      </trkpt>
      <trkpt lat="46.92533" lon="8.58107">
        <ele>668</ele>
        <time>2021-08-10T11:20:58.833Z</time>
      </trkpt>
      <trkpt lat="46.92533" lon="8.58107">
        <ele>668</ele>
        <time>2021-08-10T11:20:59.832Z</time>
      </trkpt>
      <trkpt lat="46.92532" lon="8.5811">
        <ele>669</ele>
        <time>2021-08-10T11:21:00.832Z</time>
      </trkpt>
      <trkpt lat="46.92532" lon="8.58112">
        <ele>669</ele>
        <time>2021-08-10T11:21:01.832Z</time>
      </trkpt>
      <trkpt lat="46.92532" lon="8.58114">
        <ele>669</ele>
        <time>2021-08-10T11:21:02.832Z</time>
      </trkpt>
      <trkpt lat="46.92532" lon="8.58115">
        <ele>669</ele>
        <time>2021-08-10T11:21:03.832Z</time>
      </trkpt>
      <trkpt lat="46.92532" lon="8.58116">
        <ele>670</ele>
        <time>2021-08-10T11:21:04.833Z</time>
      </trkpt>
      <trkpt lat="46.92533" lon="8.58117">
        <ele>670</ele>
        <time>2021-08-10T11:21:05.832Z</time>
      </trkpt>
      <trkpt lat="46.92532" lon="8.58117">
        <ele>670</ele>
        <time>2021-08-10T11:21:06.832Z</time>
      </trkpt>
      <trkpt lat="46.92532" lon="8.58117">
        <ele>670</ele>
        <time>2021-08-10T11:21:07.832Z</time>
      </trkpt>
      <trkpt lat="46.92532" lon="8.58116">
        <ele>670</ele>
        <time>2021-08-10T11:21:08.832Z</time>
      </trkpt>
      <trkpt lat="46.92531" lon="8.58117">
        <ele>670</ele>
        <time>2021-08-10T11:21:09.832Z</time>
      </trkpt>
      <trkpt lat="46.92531" lon="8.58118">
        <ele>670</ele>
        <time>2021-08-10T11:21:10.832Z</time>
      </trkpt>
      <trkpt lat="46.9253" lon="8.58118">
        <ele>670</ele>
        <time>2021-08-10T11:21:11.833Z</time>
      </trkpt>
      <trkpt lat="46.92529" lon="8.58119">
        <ele>670</ele>
        <time>2021-08-10T11:21:12.833Z</time>
      </trkpt>
      <trkpt lat="46.92529" lon="8.58119">
        <ele>670</ele>
        <time>2021-08-10T11:21:13.832Z</time>
      </trkpt>
      <trkpt lat="46.92529" lon="8.5812">
        <ele>670</ele>
        <time>2021-08-10T11:21:14.832Z</time>
      </trkpt>
      <trkpt lat="46.92528" lon="8.58122">
        <ele>670</ele>
        <time>2021-08-10T11:21:15.832Z</time>
      </trkpt>
      <trkpt lat="46.92527" lon="8.58123">
        <ele>670</ele>
        <time>2021-08-10T11:21:16.833Z</time>
      </trkpt>
      <trkpt lat="46.92526" lon="8.58125">
        <ele>670</ele>
        <time>2021-08-10T11:21:17.832Z</time>
      </trkpt>
      <trkpt lat="46.92525" lon="8.58125">
        <ele>670</ele>
        <time>2021-08-10T11:21:18.833Z</time>
      </trkpt>
      <trkpt lat="46.92523" lon="8.58125">
        <ele>670</ele>
        <time>2021-08-10T11:21:19.832Z</time>
      </trkpt>
      <trkpt lat="46.92522" lon="8.58125">
        <ele>670</ele>
        <time>2021-08-10T11:21:20.832Z</time>
      </trkpt>
      <trkpt lat="46.92521" lon="8.58125">
        <ele>669</ele>
        <time>2021-08-10T11:21:21.833Z</time>
      </trkpt>
      <trkpt lat="46.9252" lon="8.58125">
        <ele>669</ele>
        <time>2021-08-10T11:21:22.833Z</time>
      </trkpt>
      <trkpt lat="46.9252" lon="8.58126">
        <ele>669</ele>
        <time>2021-08-10T11:21:23.832Z</time>
      </trkpt>
      <trkpt lat="46.92518" lon="8.58127">
        <ele>669</ele>
        <time>2021-08-10T11:21:24.832Z</time>
      </trkpt>
      <trkpt lat="46.92517" lon="8.58129">
        <ele>669</ele>
        <time>2021-08-10T11:21:25.832Z</time>
      </trkpt>
      <trkpt lat="46.92516" lon="8.58129">
        <ele>668</ele>
        <time>2021-08-10T11:21:26.832Z</time>
      </trkpt>
      <trkpt lat="46.92516" lon="8.58129">
        <ele>668</ele>
        <time>2021-08-10T11:21:27.833Z</time>
      </trkpt>
      <trkpt lat="46.92515" lon="8.58129">
        <ele>668</ele>
        <time>2021-08-10T11:21:28.833Z</time>
      </trkpt>
      <trkpt lat="46.92515" lon="8.58129">
        <ele>668</ele>
        <time>2021-08-10T11:21:29.833Z</time>
      </trkpt>
      <trkpt lat="46.92514" lon="8.58129">
        <ele>668</ele>
        <time>2021-08-10T11:21:30.832Z</time>
      </trkpt>
      <trkpt lat="46.92513" lon="8.58129">
        <ele>668</ele>
        <time>2021-08-10T11:21:31.832Z</time>
      </trkpt>
      <trkpt lat="46.92512" lon="8.58129">
        <ele>668</ele>
        <time>2021-08-10T11:21:32.833Z</time>
      </trkpt>
      <trkpt lat="46.92512" lon="8.58129">
        <ele>668</ele>
        <time>2021-08-10T11:21:33.833Z</time>
      </trkpt>
      <trkpt lat="46.92512" lon="8.58129">
        <ele>668</ele>
        <time>2021-08-10T11:21:34.832Z</time>
      </trkpt>
      <trkpt lat="46.92512" lon="8.5813">
        <ele>668</ele>
        <time>2021-08-10T11:21:35.832Z</time>
      </trkpt>
      <trkpt lat="46.92512" lon="8.5813">
        <ele>668</ele>
        <time>2021-08-10T11:21:36.833Z</time>
      </trkpt>
      <trkpt lat="46.92512" lon="8.5813">
        <ele>668</ele>
        <time>2021-08-10T11:21:37.835Z</time>
      </trkpt>
      <trkpt lat="46.92512" lon="8.58129">
        <ele>668</ele>
        <time>2021-08-10T11:21:38.835Z</time>
      </trkpt>
      <trkpt lat="46.92512" lon="8.5813">
        <ele>668</ele>
        <time>2021-08-10T11:21:39.835Z</time>
      </trkpt>
      <trkpt lat="46.92511" lon="8.5813">
        <ele>668</ele>
        <time>2021-08-10T11:21:40.835Z</time>
      </trkpt>
      <trkpt lat="46.92511" lon="8.5813">
        <ele>667</ele>
        <time>2021-08-10T11:21:41.835Z</time>
      </trkpt>
      <trkpt lat="46.9251" lon="8.5813">
        <ele>667</ele>
        <time>2021-08-10T11:21:42.835Z</time>
      </trkpt>
      <trkpt lat="46.92509" lon="8.5813">
        <ele>667</ele>
        <time>2021-08-10T11:21:43.835Z</time>
      </trkpt>
      <trkpt lat="46.92509" lon="8.58129">
        <ele>667</ele>
        <time>2021-08-10T11:21:44.835Z</time>
      </trkpt>
      <trkpt lat="46.92509" lon="8.5813">
        <ele>667</ele>
        <time>2021-08-10T11:21:45.835Z</time>
      </trkpt>
      <trkpt lat="46.92511" lon="8.58129">
        <ele>666</ele>
        <time>2021-08-10T11:21:46.835Z</time>
      </trkpt>
      <trkpt lat="46.92512" lon="8.5813">
        <ele>666</ele>
        <time>2021-08-10T11:21:47.835Z</time>
      </trkpt>
      <trkpt lat="46.92511" lon="8.5813">
        <ele>666</ele>
        <time>2021-08-10T11:21:48.834Z</time>
      </trkpt>
      <trkpt lat="46.92511" lon="8.5813">
        <ele>666</ele>
        <time>2021-08-10T11:21:49.835Z</time>
      </trkpt>
      <trkpt lat="46.92511" lon="8.5813">
        <ele>666</ele>
        <time>2021-08-10T11:21:50.834Z</time>
      </trkpt>
      <trkpt lat="46.92511" lon="8.58129">
        <ele>666</ele>
        <time>2021-08-10T11:21:51.834Z</time>
      </trkpt>
      <trkpt lat="46.92511" lon="8.58129">
        <ele>667</ele>
        <time>2021-08-10T11:21:52.834Z</time>
      </trkpt>
      <trkpt lat="46.92512" lon="8.58128">
        <ele>667</ele>
        <time>2021-08-10T11:21:53.835Z</time>
      </trkpt>
      <trkpt lat="46.92513" lon="8.58129">
        <ele>667</ele>
        <time>2021-08-10T11:21:54.835Z</time>
      </trkpt>
      <trkpt lat="46.92512" lon="8.5813">
        <ele>668</ele>
        <time>2021-08-10T11:21:55.835Z</time>
      </trkpt>
      <trkpt lat="46.92512" lon="8.58131">
        <ele>668</ele>
        <time>2021-08-10T11:21:56.834Z</time>
      </trkpt>
      <trkpt lat="46.9251" lon="8.58129">
        <ele>668</ele>
        <time>2021-08-10T11:21:57.835Z</time>
      </trkpt>
      <trkpt lat="46.92509" lon="8.58129">
        <ele>668</ele>
        <time>2021-08-10T11:21:58.835Z</time>
      </trkpt>
      <trkpt lat="46.92509" lon="8.58128">
        <ele>669</ele>
        <time>2021-08-10T11:21:59.835Z</time>
      </trkpt>
      <trkpt lat="46.92508" lon="8.58127">
        <ele>669</ele>
        <time>2021-08-10T11:22:00.835Z</time>
      </trkpt>
      <trkpt lat="46.92507" lon="8.58128">
        <ele>669</ele>
        <time>2021-08-10T11:22:01.835Z</time>
      </trkpt>
      <trkpt lat="46.92507" lon="8.58129">
        <ele>669</ele>
        <time>2021-08-10T11:22:02.834Z</time>
      </trkpt>
      <trkpt lat="46.92506" lon="8.5813">
        <ele>670</ele>
        <time>2021-08-10T11:22:03.834Z</time>
      </trkpt>
      <trkpt lat="46.92506" lon="8.58131">
        <ele>670</ele>
        <time>2021-08-10T11:22:04.835Z</time>
      </trkpt>
      <trkpt lat="46.92505" lon="8.58132">
        <ele>670</ele>
        <time>2021-08-10T11:22:05.835Z</time>
      </trkpt>
      <trkpt lat="46.92505" lon="8.58133">
        <ele>671</ele>
        <time>2021-08-10T11:22:06.835Z</time>
      </trkpt>
      <trkpt lat="46.92505" lon="8.58134">
        <ele>671</ele>
        <time>2021-08-10T11:22:07.835Z</time>
      </trkpt>
      <trkpt lat="46.92505" lon="8.58135">
        <ele>672</ele>
        <time>2021-08-10T11:22:08.835Z</time>
      </trkpt>
      <trkpt lat="46.92506" lon="8.58137">
        <ele>672</ele>
        <time>2021-08-10T11:22:09.835Z</time>
      </trkpt>
      <trkpt lat="46.92508" lon="8.58138">
        <ele>672</ele>
        <time>2021-08-10T11:22:10.835Z</time>
      </trkpt>
      <trkpt lat="46.9251" lon="8.5814">
        <ele>673</ele>
        <time>2021-08-10T11:22:11.835Z</time>
      </trkpt>
      <trkpt lat="46.92512" lon="8.58142">
        <ele>673</ele>
        <time>2021-08-10T11:22:12.834Z</time>
      </trkpt>
      <trkpt lat="46.92514" lon="8.58143">
        <ele>673</ele>
        <time>2021-08-10T11:22:13.834Z</time>
      </trkpt>
      <trkpt lat="46.92515" lon="8.58144">
        <ele>673</ele>
        <time>2021-08-10T11:22:14.835Z</time>
      </trkpt>
      <trkpt lat="46.92516" lon="8.58145">
        <ele>673</ele>
        <time>2021-08-10T11:22:15.834Z</time>
      </trkpt>
      <trkpt lat="46.92516" lon="8.58146">
        <ele>674</ele>
        <time>2021-08-10T11:22:16.835Z</time>
      </trkpt>
      <trkpt lat="46.92516" lon="8.58147">
        <ele>674</ele>
        <time>2021-08-10T11:22:17.835Z</time>
      </trkpt>
      <trkpt lat="46.92516" lon="8.58149">
        <ele>674</ele>
        <time>2021-08-10T11:22:18.835Z</time>
      </trkpt>
      <trkpt lat="46.92516" lon="8.5815">
        <ele>675</ele>
        <time>2021-08-10T11:22:19.835Z</time>
      </trkpt>
      <trkpt lat="46.92517" lon="8.58151">
        <ele>675</ele>
        <time>2021-08-10T11:22:20.835Z</time>
      </trkpt>
      <trkpt lat="46.92518" lon="8.58152">
        <ele>676</ele>
        <time>2021-08-10T11:22:21.834Z</time>
      </trkpt>
      <trkpt lat="46.9252" lon="8.58153">
        <ele>676</ele>
        <time>2021-08-10T11:22:22.834Z</time>
      </trkpt>
      <trkpt lat="46.9252" lon="8.58154">
        <ele>676</ele>
        <time>2021-08-10T11:22:23.835Z</time>
      </trkpt>
      <trkpt lat="46.9252" lon="8.58155">
        <ele>676</ele>
        <time>2021-08-10T11:22:24.835Z</time>
      </trkpt>
      <trkpt lat="46.9252" lon="8.58155">
        <ele>677</ele>
        <time>2021-08-10T11:22:25.835Z</time>
      </trkpt>
      <trkpt lat="46.92519" lon="8.58156">
        <ele>677</ele>
        <time>2021-08-10T11:22:26.834Z</time>
      </trkpt>
      <trkpt lat="46.92519" lon="8.58157">
        <ele>677</ele>
        <time>2021-08-10T11:22:27.835Z</time>
      </trkpt>
      <trkpt lat="46.92519" lon="8.58159">
        <ele>677</ele>
        <time>2021-08-10T11:22:28.834Z</time>
      </trkpt>
      <trkpt lat="46.92519" lon="8.5816">
        <ele>677</ele>
        <time>2021-08-10T11:22:29.835Z</time>
      </trkpt>
      <trkpt lat="46.92519" lon="8.58161">
        <ele>676</ele>
        <time>2021-08-10T11:22:30.835Z</time>
      </trkpt>
      <trkpt lat="46.92518" lon="8.58162">
        <ele>676</ele>
        <time>2021-08-10T11:22:31.835Z</time>
      </trkpt>
      <trkpt lat="46.92518" lon="8.58164">
        <ele>675</ele>
        <time>2021-08-10T11:22:32.835Z</time>
      </trkpt>
      <trkpt lat="46.92517" lon="8.58165">
        <ele>674</ele>
        <time>2021-08-10T11:22:33.835Z</time>
      </trkpt>
      <trkpt lat="46.92516" lon="8.58167">
        <ele>674</ele>
        <time>2021-08-10T11:22:34.835Z</time>
      </trkpt>
      <trkpt lat="46.92515" lon="8.58168">
        <ele>673</ele>
        <time>2021-08-10T11:22:35.835Z</time>
      </trkpt>
      <trkpt lat="46.92515" lon="8.58169">
        <ele>673</ele>
        <time>2021-08-10T11:22:36.835Z</time>
      </trkpt>
      <trkpt lat="46.92514" lon="8.5817">
        <ele>672</ele>
        <time>2021-08-10T11:22:37.834Z</time>
      </trkpt>
      <trkpt lat="46.92513" lon="8.58171">
        <ele>672</ele>
        <time>2021-08-10T11:22:38.834Z</time>
      </trkpt>
      <trkpt lat="46.92512" lon="8.58173">
        <ele>672</ele>
        <time>2021-08-10T11:22:39.834Z</time>
      </trkpt>
      <trkpt lat="46.92511" lon="8.58175">
        <ele>672</ele>
        <time>2021-08-10T11:22:40.835Z</time>
      </trkpt>
      <trkpt lat="46.9251" lon="8.58176">
        <ele>672</ele>
        <time>2021-08-10T11:22:41.834Z</time>
      </trkpt>
      <trkpt lat="46.92509" lon="8.58177">
        <ele>672</ele>
        <time>2021-08-10T11:22:42.835Z</time>
      </trkpt>
      <trkpt lat="46.92509" lon="8.58177">
        <ele>672</ele>
        <time>2021-08-10T11:22:43.835Z</time>
      </trkpt>
      <trkpt lat="46.92508" lon="8.58178">
        <ele>672</ele>
        <time>2021-08-10T11:22:44.835Z</time>
      </trkpt>
      <trkpt lat="46.92509" lon="8.58178">
        <ele>672</ele>
        <time>2021-08-10T11:22:45.835Z</time>
      </trkpt>
      <trkpt lat="46.92509" lon="8.58179">
        <ele>672</ele>
        <time>2021-08-10T11:22:46.835Z</time>
      </trkpt>
      <trkpt lat="46.92508" lon="8.58179">
        <ele>672</ele>
        <time>2021-08-10T11:22:47.835Z</time>
      </trkpt>
      <trkpt lat="46.92507" lon="8.58181">
        <ele>672</ele>
        <time>2021-08-10T11:22:48.834Z</time>
      </trkpt>
      <trkpt lat="46.92506" lon="8.58181">
        <ele>672</ele>
        <time>2021-08-10T11:22:49.835Z</time>
      </trkpt>
      <trkpt lat="46.92505" lon="8.58182">
        <ele>672</ele>
        <time>2021-08-10T11:22:50.835Z</time>
      </trkpt>
      <trkpt lat="46.92505" lon="8.58182">
        <ele>673</ele>
        <time>2021-08-10T11:22:51.835Z</time>
      </trkpt>
      <trkpt lat="46.92505" lon="8.58182">
        <ele>673</ele>
        <time>2021-08-10T11:22:52.835Z</time>
      </trkpt>
      <trkpt lat="46.92505" lon="8.58183">
        <ele>673</ele>
        <time>2021-08-10T11:22:53.834Z</time>
      </trkpt>
      <trkpt lat="46.92504" lon="8.58183">
        <ele>673</ele>
        <time>2021-08-10T11:22:54.834Z</time>
      </trkpt>
      <trkpt lat="46.92504" lon="8.58185">
        <ele>673</ele>
        <time>2021-08-10T11:22:55.835Z</time>
      </trkpt>
      <trkpt lat="46.92503" lon="8.58186">
        <ele>673</ele>
        <time>2021-08-10T11:22:56.834Z</time>
      </trkpt>
      <trkpt lat="46.92502" lon="8.58188">
        <ele>673</ele>
        <time>2021-08-10T11:22:57.835Z</time>
      </trkpt>
      <trkpt lat="46.92501" lon="8.58187">
        <ele>673</ele>
        <time>2021-08-10T11:22:58.834Z</time>
      </trkpt>
      <trkpt lat="46.92501" lon="8.58187">
        <ele>672</ele>
        <time>2021-08-10T11:22:59.835Z</time>
      </trkpt>
      <trkpt lat="46.92499" lon="8.58188">
        <ele>672</ele>
        <time>2021-08-10T11:23:00.834Z</time>
      </trkpt>
      <trkpt lat="46.92498" lon="8.5819">
        <ele>672</ele>
        <time>2021-08-10T11:23:01.835Z</time>
      </trkpt>
      <trkpt lat="46.92498" lon="8.58191">
        <ele>671</ele>
        <time>2021-08-10T11:23:02.835Z</time>
      </trkpt>
      <trkpt lat="46.92497" lon="8.58192">
        <ele>671</ele>
        <time>2021-08-10T11:23:03.835Z</time>
      </trkpt>
      <trkpt lat="46.92497" lon="8.58193">
        <ele>671</ele>
        <time>2021-08-10T11:23:04.835Z</time>
      </trkpt>
      <trkpt lat="46.92497" lon="8.58194">
        <ele>670</ele>
        <time>2021-08-10T11:23:05.835Z</time>
      </trkpt>
      <trkpt lat="46.92497" lon="8.58194">
        <ele>670</ele>
        <time>2021-08-10T11:23:06.835Z</time>
      </trkpt>
      <trkpt lat="46.92497" lon="8.58194">
        <ele>670</ele>
        <time>2021-08-10T11:23:07.835Z</time>
      </trkpt>
      <trkpt lat="46.92497" lon="8.58195">
        <ele>670</ele>
        <time>2021-08-10T11:23:08.835Z</time>
      </trkpt>
      <trkpt lat="46.92498" lon="8.58195">
        <ele>670</ele>
        <time>2021-08-10T11:23:09.835Z</time>
      </trkpt>
      <trkpt lat="46.92498" lon="8.58195">
        <ele>671</ele>
        <time>2021-08-10T11:23:10.835Z</time>
      </trkpt>
      <trkpt lat="46.92497" lon="8.58195">
        <ele>671</ele>
        <time>2021-08-10T11:23:11.834Z</time>
      </trkpt>
      <trkpt lat="46.92497" lon="8.58196">
        <ele>672</ele>
        <time>2021-08-10T11:23:12.835Z</time>
      </trkpt>
      <trkpt lat="46.92496" lon="8.58196">
        <ele>672</ele>
        <time>2021-08-10T11:23:13.834Z</time>
      </trkpt>
      <trkpt lat="46.92495" lon="8.58196">
        <ele>673</ele>
        <time>2021-08-10T11:23:14.835Z</time>
      </trkpt>
      <trkpt lat="46.92495" lon="8.58197">
        <ele>673</ele>
        <time>2021-08-10T11:23:15.835Z</time>
      </trkpt>
      <trkpt lat="46.92495" lon="8.58198">
        <ele>673</ele>
        <time>2021-08-10T11:23:16.835Z</time>
      </trkpt>
      <trkpt lat="46.92496" lon="8.582">
        <ele>674</ele>
        <time>2021-08-10T11:23:17.835Z</time>
      </trkpt>
      <trkpt lat="46.92497" lon="8.58202">
        <ele>674</ele>
        <time>2021-08-10T11:23:18.835Z</time>
      </trkpt>
      <trkpt lat="46.92497" lon="8.58203">
        <ele>674</ele>
        <time>2021-08-10T11:23:19.835Z</time>
      </trkpt>
      <trkpt lat="46.92497" lon="8.58205">
        <ele>675</ele>
        <time>2021-08-10T11:23:20.834Z</time>
      </trkpt>
      <trkpt lat="46.92497" lon="8.58205">
        <ele>675</ele>
        <time>2021-08-10T11:23:21.834Z</time>
      </trkpt>
      <trkpt lat="46.92497" lon="8.58205">
        <ele>675</ele>
        <time>2021-08-10T11:23:22.835Z</time>
      </trkpt>
      <trkpt lat="46.92498" lon="8.58206">
        <ele>676</ele>
        <time>2021-08-10T11:23:23.835Z</time>
      </trkpt>
      <trkpt lat="46.92498" lon="8.58207">
        <ele>676</ele>
        <time>2021-08-10T11:23:24.835Z</time>
      </trkpt>
      <trkpt lat="46.92498" lon="8.58208">
        <ele>675</ele>
        <time>2021-08-10T11:23:25.835Z</time>
      </trkpt>
      <trkpt lat="46.92498" lon="8.58209">
        <ele>675</ele>
        <time>2021-08-10T11:23:26.835Z</time>
      </trkpt>
      <trkpt lat="46.92498" lon="8.58211">
        <ele>675</ele>
        <time>2021-08-10T11:23:27.834Z</time>
      </trkpt>
      <trkpt lat="46.92498" lon="8.58212">
        <ele>675</ele>
        <time>2021-08-10T11:23:28.835Z</time>
      </trkpt>
      <trkpt lat="46.92498" lon="8.58214">
        <ele>675</ele>
        <time>2021-08-10T11:23:29.835Z</time>
      </trkpt>
      <trkpt lat="46.92498" lon="8.58215">
        <ele>675</ele>
        <time>2021-08-10T11:23:30.835Z</time>
      </trkpt>
      <trkpt lat="46.92498" lon="8.58217">
        <ele>675</ele>
        <time>2021-08-10T11:23:31.835Z</time>
      </trkpt>
      <trkpt lat="46.92498" lon="8.58219">
        <ele>675</ele>
        <time>2021-08-10T11:23:32.835Z</time>
      </trkpt>
      <trkpt lat="46.92499" lon="8.58221">
        <ele>676</ele>
        <time>2021-08-10T11:23:33.834Z</time>
      </trkpt>
      <trkpt lat="46.92499" lon="8.58222">
        <ele>676</ele>
        <time>2021-08-10T11:23:34.835Z</time>
      </trkpt>
      <trkpt lat="46.92499" lon="8.58224">
        <ele>676</ele>
        <time>2021-08-10T11:23:35.835Z</time>
      </trkpt>
      <trkpt lat="46.92498" lon="8.58225">
        <ele>677</ele>
        <time>2021-08-10T11:23:36.835Z</time>
      </trkpt>
      <trkpt lat="46.92498" lon="8.58227">
        <ele>677</ele>
        <time>2021-08-10T11:23:37.835Z</time>
      </trkpt>
      <trkpt lat="46.92498" lon="8.58228">
        <ele>677</ele>
        <time>2021-08-10T11:23:38.834Z</time>
      </trkpt>
      <trkpt lat="46.92498" lon="8.58229">
        <ele>677</ele>
        <time>2021-08-10T11:23:39.835Z</time>
      </trkpt>
      <trkpt lat="46.92498" lon="8.58231">
        <ele>676</ele>
        <time>2021-08-10T11:23:40.835Z</time>
      </trkpt>
      <trkpt lat="46.92498" lon="8.58232">
        <ele>676</ele>
        <time>2021-08-10T11:23:41.835Z</time>
      </trkpt>
      <trkpt lat="46.92498" lon="8.58234">
        <ele>676</ele>
        <time>2021-08-10T11:23:42.834Z</time>
      </trkpt>
      <trkpt lat="46.92498" lon="8.58235">
        <ele>676</ele>
        <time>2021-08-10T11:23:43.835Z</time>
      </trkpt>
      <trkpt lat="46.92498" lon="8.58236">
        <ele>676</ele>
        <time>2021-08-10T11:23:44.835Z</time>
      </trkpt>
      <trkpt lat="46.92499" lon="8.58238">
        <ele>675</ele>
        <time>2021-08-10T11:23:45.835Z</time>
      </trkpt>
      <trkpt lat="46.92498" lon="8.58239">
        <ele>675</ele>
        <time>2021-08-10T11:23:46.835Z</time>
      </trkpt>
      <trkpt lat="46.92497" lon="8.58241">
        <ele>675</ele>
        <time>2021-08-10T11:23:47.835Z</time>
      </trkpt>
      <trkpt lat="46.92496" lon="8.58242">
        <ele>675</ele>
        <time>2021-08-10T11:23:48.834Z</time>
      </trkpt>
      <trkpt lat="46.92496" lon="8.58243">
        <ele>674</ele>
        <time>2021-08-10T11:23:49.834Z</time>
      </trkpt>
      <trkpt lat="46.92497" lon="8.58242">
        <ele>674</ele>
        <time>2021-08-10T11:23:50.835Z</time>
      </trkpt>
      <trkpt lat="46.92497" lon="8.58242">
        <ele>674</ele>
        <time>2021-08-10T11:23:51.834Z</time>
      </trkpt>
      <trkpt lat="46.92497" lon="8.58242">
        <ele>673</ele>
        <time>2021-08-10T11:23:52.834Z</time>
      </trkpt>
      <trkpt lat="46.92497" lon="8.58243">
        <ele>673</ele>
        <time>2021-08-10T11:23:53.834Z</time>
      </trkpt>
      <trkpt lat="46.92496" lon="8.58244">
        <ele>673</ele>
        <time>2021-08-10T11:23:54.835Z</time>
      </trkpt>
      <trkpt lat="46.92496" lon="8.58245">
        <ele>673</ele>
        <time>2021-08-10T11:23:55.835Z</time>
      </trkpt>
      <trkpt lat="46.92496" lon="8.58245">
        <ele>673</ele>
        <time>2021-08-10T11:23:56.834Z</time>
      </trkpt>
      <trkpt lat="46.92496" lon="8.58246">
        <ele>673</ele>
        <time>2021-08-10T11:23:57.834Z</time>
      </trkpt>
      <trkpt lat="46.92496" lon="8.58247">
        <ele>673</ele>
        <time>2021-08-10T11:23:58.835Z</time>
      </trkpt>
      <trkpt lat="46.92496" lon="8.58247">
        <ele>673</ele>
        <time>2021-08-10T11:23:59.835Z</time>
      </trkpt>
      <trkpt lat="46.92495" lon="8.58248">
        <ele>673</ele>
        <time>2021-08-10T11:24:00.834Z</time>
      </trkpt>
      <trkpt lat="46.92496" lon="8.58248">
        <ele>673</ele>
        <time>2021-08-10T11:24:01.835Z</time>
      </trkpt>
      <trkpt lat="46.92496" lon="8.58248">
        <ele>673</ele>
        <time>2021-08-10T11:24:02.835Z</time>
      </trkpt>
      <trkpt lat="46.92497" lon="8.58249">
        <ele>673</ele>
        <time>2021-08-10T11:24:03.834Z</time>
      </trkpt>
      <trkpt lat="46.92496" lon="8.5825">
        <ele>673</ele>
        <time>2021-08-10T11:24:04.834Z</time>
      </trkpt>
      <trkpt lat="46.92496" lon="8.58251">
        <ele>674</ele>
        <time>2021-08-10T11:24:05.835Z</time>
      </trkpt>
      <trkpt lat="46.92495" lon="8.58253">
        <ele>674</ele>
        <time>2021-08-10T11:24:06.835Z</time>
      </trkpt>
      <trkpt lat="46.92495" lon="8.58254">
        <ele>674</ele>
        <time>2021-08-10T11:24:07.835Z</time>
      </trkpt>
      <trkpt lat="46.92495" lon="8.58255">
        <ele>674</ele>
        <time>2021-08-10T11:24:08.835Z</time>
      </trkpt>
      <trkpt lat="46.92495" lon="8.58255">
        <ele>674</ele>
        <time>2021-08-10T11:24:09.834Z</time>
      </trkpt>
      <trkpt lat="46.92495" lon="8.58256">
        <ele>674</ele>
        <time>2021-08-10T11:24:10.835Z</time>
      </trkpt>
      <trkpt lat="46.92494" lon="8.58256">
        <ele>674</ele>
        <time>2021-08-10T11:24:11.835Z</time>
      </trkpt>
      <trkpt lat="46.92495" lon="8.58256">
        <ele>674</ele>
        <time>2021-08-10T11:24:12.834Z</time>
      </trkpt>
      <trkpt lat="46.92495" lon="8.58256">
        <ele>674</ele>
        <time>2021-08-10T11:24:13.835Z</time>
      </trkpt>
      <trkpt lat="46.92495" lon="8.58257">
        <ele>674</ele>
        <time>2021-08-10T11:24:14.835Z</time>
      </trkpt>
      <trkpt lat="46.92494" lon="8.58258">
        <ele>674</ele>
        <time>2021-08-10T11:24:15.835Z</time>
      </trkpt>
      <trkpt lat="46.92494" lon="8.58259">
        <ele>674</ele>
        <time>2021-08-10T11:24:16.835Z</time>
      </trkpt>
      <trkpt lat="46.92493" lon="8.5826">
        <ele>675</ele>
        <time>2021-08-10T11:24:17.835Z</time>
      </trkpt>
      <trkpt lat="46.92493" lon="8.5826">
        <ele>675</ele>
        <time>2021-08-10T11:24:18.834Z</time>
      </trkpt>
      <trkpt lat="46.92492" lon="8.58261">
        <ele>675</ele>
        <time>2021-08-10T11:24:19.835Z</time>
      </trkpt>
      <trkpt lat="46.92491" lon="8.58262">
        <ele>675</ele>
        <time>2021-08-10T11:24:20.835Z</time>
      </trkpt>
      <trkpt lat="46.9249" lon="8.58263">
        <ele>675</ele>
        <time>2021-08-10T11:24:21.834Z</time>
      </trkpt>
      <trkpt lat="46.9249" lon="8.58263">
        <ele>675</ele>
        <time>2021-08-10T11:24:22.834Z</time>
      </trkpt>
      <trkpt lat="46.92489" lon="8.58264">
        <ele>675</ele>
        <time>2021-08-10T11:24:23.835Z</time>
      </trkpt>
      <trkpt lat="46.9249" lon="8.58264">
        <ele>675</ele>
        <time>2021-08-10T11:24:24.835Z</time>
      </trkpt>
      <trkpt lat="46.9249" lon="8.58264">
        <ele>674</ele>
        <time>2021-08-10T11:24:25.835Z</time>
      </trkpt>
      <trkpt lat="46.92492" lon="8.58265">
        <ele>674</ele>
        <time>2021-08-10T11:24:26.835Z</time>
      </trkpt>
      <trkpt lat="46.92492" lon="8.58266">
        <ele>674</ele>
        <time>2021-08-10T11:24:27.835Z</time>
      </trkpt>
      <trkpt lat="46.92492" lon="8.58266">
        <ele>674</ele>
        <time>2021-08-10T11:24:28.835Z</time>
      </trkpt>
      <trkpt lat="46.92493" lon="8.58266">
        <ele>674</ele>
        <time>2021-08-10T11:24:29.835Z</time>
      </trkpt>
      <trkpt lat="46.92492" lon="8.58266">
        <ele>674</ele>
        <time>2021-08-10T11:24:30.835Z</time>
      </trkpt>
      <trkpt lat="46.92492" lon="8.58266">
        <ele>675</ele>
        <time>2021-08-10T11:24:31.834Z</time>
      </trkpt>
      <trkpt lat="46.92491" lon="8.58266">
        <ele>675</ele>
        <time>2021-08-10T11:24:32.835Z</time>
      </trkpt>
      <trkpt lat="46.92491" lon="8.58266">
        <ele>676</ele>
        <time>2021-08-10T11:24:33.835Z</time>
      </trkpt>
      <trkpt lat="46.92491" lon="8.58267">
        <ele>676</ele>
        <time>2021-08-10T11:24:34.835Z</time>
      </trkpt>
      <trkpt lat="46.9249" lon="8.58267">
        <ele>676</ele>
        <time>2021-08-10T11:24:35.834Z</time>
      </trkpt>
      <trkpt lat="46.92491" lon="8.58267">
        <ele>676</ele>
        <time>2021-08-10T11:24:36.834Z</time>
      </trkpt>
      <trkpt lat="46.9249" lon="8.58267">
        <ele>677</ele>
        <time>2021-08-10T11:24:37.835Z</time>
      </trkpt>
      <trkpt lat="46.92489" lon="8.58268">
        <ele>677</ele>
        <time>2021-08-10T11:24:38.836Z</time>
      </trkpt>
      <trkpt lat="46.92489" lon="8.58269">
        <ele>677</ele>
        <time>2021-08-10T11:24:39.835Z</time>
      </trkpt>
      <trkpt lat="46.92489" lon="8.5827">
        <ele>678</ele>
        <time>2021-08-10T11:24:40.836Z</time>
      </trkpt>
      <trkpt lat="46.92488" lon="8.58271">
        <ele>678</ele>
        <time>2021-08-10T11:24:41.835Z</time>
      </trkpt>
      <trkpt lat="46.92488" lon="8.58272">
        <ele>678</ele>
        <time>2021-08-10T11:24:42.836Z</time>
      </trkpt>
      <trkpt lat="46.92487" lon="8.58273">
        <ele>678</ele>
        <time>2021-08-10T11:24:43.835Z</time>
      </trkpt>
      <trkpt lat="46.92486" lon="8.58274">
        <ele>678</ele>
        <time>2021-08-10T11:24:44.836Z</time>
      </trkpt>
      <trkpt lat="46.92486" lon="8.58274">
        <ele>678</ele>
        <time>2021-08-10T11:24:45.836Z</time>
      </trkpt>
      <trkpt lat="46.92485" lon="8.58275">
        <ele>679</ele>
        <time>2021-08-10T11:24:46.836Z</time>
      </trkpt>
      <trkpt lat="46.92483" lon="8.58276">
        <ele>679</ele>
        <time>2021-08-10T11:24:47.836Z</time>
      </trkpt>
      <trkpt lat="46.92481" lon="8.58277">
        <ele>679</ele>
        <time>2021-08-10T11:24:48.836Z</time>
      </trkpt>
      <trkpt lat="46.92481" lon="8.58278">
        <ele>679</ele>
        <time>2021-08-10T11:24:49.836Z</time>
      </trkpt>
      <trkpt lat="46.9248" lon="8.58278">
        <ele>680</ele>
        <time>2021-08-10T11:24:50.836Z</time>
      </trkpt>
      <trkpt lat="46.9248" lon="8.58279">
        <ele>680</ele>
        <time>2021-08-10T11:24:51.836Z</time>
      </trkpt>
      <trkpt lat="46.9248" lon="8.58281">
        <ele>680</ele>
        <time>2021-08-10T11:24:52.835Z</time>
      </trkpt>
      <trkpt lat="46.9248" lon="8.58282">
        <ele>680</ele>
        <time>2021-08-10T11:24:53.836Z</time>
      </trkpt>
      <trkpt lat="46.92479" lon="8.58283">
        <ele>680</ele>
        <time>2021-08-10T11:24:54.836Z</time>
      </trkpt>
      <trkpt lat="46.92479" lon="8.58284">
        <ele>680</ele>
        <time>2021-08-10T11:24:55.836Z</time>
      </trkpt>
      <trkpt lat="46.92479" lon="8.58285">
        <ele>680</ele>
        <time>2021-08-10T11:24:56.836Z</time>
      </trkpt>
      <trkpt lat="46.92479" lon="8.58287">
        <ele>680</ele>
        <time>2021-08-10T11:24:57.836Z</time>
      </trkpt>
      <trkpt lat="46.92479" lon="8.58288">
        <ele>681</ele>
        <time>2021-08-10T11:24:58.836Z</time>
      </trkpt>
      <trkpt lat="46.92479" lon="8.58289">
        <ele>681</ele>
        <time>2021-08-10T11:24:59.836Z</time>
      </trkpt>
      <trkpt lat="46.92479" lon="8.58289">
        <ele>681</ele>
        <time>2021-08-10T11:25:00.835Z</time>
      </trkpt>
      <trkpt lat="46.92478" lon="8.58289">
        <ele>681</ele>
        <time>2021-08-10T11:25:01.836Z</time>
      </trkpt>
      <trkpt lat="46.92478" lon="8.58289">
        <ele>681</ele>
        <time>2021-08-10T11:25:02.836Z</time>
      </trkpt>
      <trkpt lat="46.92479" lon="8.58288">
        <ele>681</ele>
        <time>2021-08-10T11:25:03.835Z</time>
      </trkpt>
      <trkpt lat="46.92478" lon="8.58289">
        <ele>682</ele>
        <time>2021-08-10T11:25:04.835Z</time>
      </trkpt>
      <trkpt lat="46.92478" lon="8.58289">
        <ele>682</ele>
        <time>2021-08-10T11:25:05.836Z</time>
      </trkpt>
      <trkpt lat="46.92479" lon="8.5829">
        <ele>682</ele>
        <time>2021-08-10T11:25:06.835Z</time>
      </trkpt>
      <trkpt lat="46.92479" lon="8.58291">
        <ele>682</ele>
        <time>2021-08-10T11:25:07.836Z</time>
      </trkpt>
      <trkpt lat="46.92478" lon="8.58292">
        <ele>682</ele>
        <time>2021-08-10T11:25:08.836Z</time>
      </trkpt>
      <trkpt lat="46.92477" lon="8.58292">
        <ele>682</ele>
        <time>2021-08-10T11:25:09.836Z</time>
      </trkpt>
      <trkpt lat="46.92477" lon="8.58293">
        <ele>682</ele>
        <time>2021-08-10T11:25:10.835Z</time>
      </trkpt>
      <trkpt lat="46.92476" lon="8.58294">
        <ele>682</ele>
        <time>2021-08-10T11:25:11.835Z</time>
      </trkpt>
      <trkpt lat="46.92476" lon="8.58295">
        <ele>682</ele>
        <time>2021-08-10T11:25:12.836Z</time>
      </trkpt>
      <trkpt lat="46.92476" lon="8.58296">
        <ele>682</ele>
        <time>2021-08-10T11:25:13.836Z</time>
      </trkpt>
      <trkpt lat="46.92476" lon="8.58297">
        <ele>682</ele>
        <time>2021-08-10T11:25:14.836Z</time>
      </trkpt>
      <trkpt lat="46.92477" lon="8.58298">
        <ele>682</ele>
        <time>2021-08-10T11:25:15.836Z</time>
      </trkpt>
      <trkpt lat="46.92477" lon="8.58298">
        <ele>682</ele>
        <time>2021-08-10T11:25:16.836Z</time>
      </trkpt>
      <trkpt lat="46.92477" lon="8.58299">
        <ele>682</ele>
        <time>2021-08-10T11:25:17.835Z</time>
      </trkpt>
      <trkpt lat="46.92477" lon="8.583">
        <ele>682</ele>
        <time>2021-08-10T11:25:18.836Z</time>
      </trkpt>
      <trkpt lat="46.92477" lon="8.583">
        <ele>682</ele>
        <time>2021-08-10T11:25:19.836Z</time>
      </trkpt>
      <trkpt lat="46.92476" lon="8.58301">
        <ele>683</ele>
        <time>2021-08-10T11:25:20.835Z</time>
      </trkpt>
      <trkpt lat="46.92475" lon="8.58302">
        <ele>683</ele>
        <time>2021-08-10T11:25:21.836Z</time>
      </trkpt>
      <trkpt lat="46.92475" lon="8.58302">
        <ele>683</ele>
        <time>2021-08-10T11:25:22.836Z</time>
      </trkpt>
      <trkpt lat="46.92475" lon="8.58303">
        <ele>684</ele>
        <time>2021-08-10T11:25:23.835Z</time>
      </trkpt>
      <trkpt lat="46.92474" lon="8.58303">
        <ele>685</ele>
        <time>2021-08-10T11:25:24.836Z</time>
      </trkpt>
      <trkpt lat="46.92474" lon="8.58303">
        <ele>686</ele>
        <time>2021-08-10T11:25:25.836Z</time>
      </trkpt>
      <trkpt lat="46.92474" lon="8.58307">
        <ele>692</ele>
        <time>2021-08-10T11:25:26.836Z</time>
      </trkpt>
      <trkpt lat="46.92474" lon="8.58308">
        <ele>693</ele>
        <time>2021-08-10T11:25:27.836Z</time>
      </trkpt>
      <trkpt lat="46.92473" lon="8.58309">
        <ele>694</ele>
        <time>2021-08-10T11:25:28.835Z</time>
      </trkpt>
      <trkpt lat="46.92472" lon="8.58321">
        <ele>699</ele>
        <time>2021-08-10T11:25:29.836Z</time>
      </trkpt>
      <trkpt lat="46.92471" lon="8.58322">
        <ele>699</ele>
        <time>2021-08-10T11:25:30.836Z</time>
      </trkpt>
      <trkpt lat="46.92471" lon="8.58322">
        <ele>700</ele>
        <time>2021-08-10T11:25:31.835Z</time>
      </trkpt>
      <trkpt lat="46.92472" lon="8.58323">
        <ele>700</ele>
        <time>2021-08-10T11:25:32.835Z</time>
      </trkpt>
      <trkpt lat="46.92473" lon="8.58324">
        <ele>700</ele>
        <time>2021-08-10T11:25:33.835Z</time>
      </trkpt>
      <trkpt lat="46.92472" lon="8.58325">
        <ele>701</ele>
        <time>2021-08-10T11:25:34.836Z</time>
      </trkpt>
      <trkpt lat="46.92472" lon="8.58324">
        <ele>701</ele>
        <time>2021-08-10T11:25:35.836Z</time>
      </trkpt>
      <trkpt lat="46.92471" lon="8.58324">
        <ele>701</ele>
        <time>2021-08-10T11:25:36.835Z</time>
      </trkpt>
      <trkpt lat="46.9247" lon="8.58325">
        <ele>701</ele>
        <time>2021-08-10T11:25:37.835Z</time>
      </trkpt>
      <trkpt lat="46.92468" lon="8.58326">
        <ele>701</ele>
        <time>2021-08-10T11:25:38.836Z</time>
      </trkpt>
      <trkpt lat="46.92468" lon="8.58327">
        <ele>701</ele>
        <time>2021-08-10T11:25:39.836Z</time>
      </trkpt>
      <trkpt lat="46.92468" lon="8.58329">
        <ele>701</ele>
        <time>2021-08-10T11:25:40.836Z</time>
      </trkpt>
      <trkpt lat="46.92468" lon="8.58331">
        <ele>701</ele>
        <time>2021-08-10T11:25:41.836Z</time>
      </trkpt>
      <trkpt lat="46.92469" lon="8.58333">
        <ele>701</ele>
        <time>2021-08-10T11:25:42.835Z</time>
      </trkpt>
      <trkpt lat="46.92469" lon="8.58334">
        <ele>701</ele>
        <time>2021-08-10T11:25:43.836Z</time>
      </trkpt>
      <trkpt lat="46.92469" lon="8.58335">
        <ele>701</ele>
        <time>2021-08-10T11:25:44.835Z</time>
      </trkpt>
      <trkpt lat="46.92469" lon="8.58336">
        <ele>701</ele>
        <time>2021-08-10T11:25:45.835Z</time>
      </trkpt>
      <trkpt lat="46.92469" lon="8.58337">
        <ele>701</ele>
        <time>2021-08-10T11:25:46.836Z</time>
      </trkpt>
      <trkpt lat="46.92469" lon="8.58338">
        <ele>701</ele>
        <time>2021-08-10T11:25:47.836Z</time>
      </trkpt>
      <trkpt lat="46.9247" lon="8.58339">
        <ele>701</ele>
        <time>2021-08-10T11:25:48.835Z</time>
      </trkpt>
      <trkpt lat="46.9247" lon="8.58339">
        <ele>700</ele>
        <time>2021-08-10T11:25:49.835Z</time>
      </trkpt>
      <trkpt lat="46.9247" lon="8.5834">
        <ele>700</ele>
        <time>2021-08-10T11:25:50.836Z</time>
      </trkpt>
      <trkpt lat="46.9247" lon="8.58341">
        <ele>700</ele>
        <time>2021-08-10T11:25:51.836Z</time>
      </trkpt>
      <trkpt lat="46.9247" lon="8.58342">
        <ele>700</ele>
        <time>2021-08-10T11:25:52.837Z</time>
      </trkpt>
      <trkpt lat="46.92471" lon="8.58343">
        <ele>700</ele>
        <time>2021-08-10T11:25:53.836Z</time>
      </trkpt>
      <trkpt lat="46.92471" lon="8.58344">
        <ele>700</ele>
        <time>2021-08-10T11:25:54.836Z</time>
      </trkpt>
      <trkpt lat="46.9247" lon="8.58344">
        <ele>700</ele>
        <time>2021-08-10T11:25:55.837Z</time>
      </trkpt>
      <trkpt lat="46.9247" lon="8.58345">
        <ele>700</ele>
        <time>2021-08-10T11:25:56.837Z</time>
      </trkpt>
      <trkpt lat="46.9247" lon="8.58346">
        <ele>700</ele>
        <time>2021-08-10T11:25:57.836Z</time>
      </trkpt>
      <trkpt lat="46.9247" lon="8.58348">
        <ele>700</ele>
        <time>2021-08-10T11:25:58.837Z</time>
      </trkpt>
      <trkpt lat="46.92469" lon="8.58349">
        <ele>700</ele>
        <time>2021-08-10T11:25:59.837Z</time>
      </trkpt>
      <trkpt lat="46.92469" lon="8.5835">
        <ele>700</ele>
        <time>2021-08-10T11:26:00.837Z</time>
      </trkpt>
      <trkpt lat="46.92469" lon="8.58351">
        <ele>700</ele>
        <time>2021-08-10T11:26:01.837Z</time>
      </trkpt>
      <trkpt lat="46.9247" lon="8.58352">
        <ele>700</ele>
        <time>2021-08-10T11:26:02.837Z</time>
      </trkpt>
      <trkpt lat="46.92469" lon="8.58353">
        <ele>700</ele>
        <time>2021-08-10T11:26:03.837Z</time>
      </trkpt>
      <trkpt lat="46.9247" lon="8.58354">
        <ele>700</ele>
        <time>2021-08-10T11:26:04.837Z</time>
      </trkpt>
      <trkpt lat="46.9247" lon="8.58355">
        <ele>700</ele>
        <time>2021-08-10T11:26:05.836Z</time>
      </trkpt>
      <trkpt lat="46.9247" lon="8.58356">
        <ele>700</ele>
        <time>2021-08-10T11:26:06.836Z</time>
      </trkpt>
      <trkpt lat="46.9247" lon="8.58356">
        <ele>700</ele>
        <time>2021-08-10T11:26:07.837Z</time>
      </trkpt>
      <trkpt lat="46.9247" lon="8.58356">
        <ele>700</ele>
        <time>2021-08-10T11:26:08.837Z</time>
      </trkpt>
      <trkpt lat="46.92469" lon="8.58357">
        <ele>700</ele>
        <time>2021-08-10T11:26:09.836Z</time>
      </trkpt>
      <trkpt lat="46.92469" lon="8.58357">
        <ele>700</ele>
        <time>2021-08-10T11:26:10.837Z</time>
      </trkpt>
      <trkpt lat="46.92469" lon="8.58358">
        <ele>700</ele>
        <time>2021-08-10T11:26:11.837Z</time>
      </trkpt>
      <trkpt lat="46.92469" lon="8.58359">
        <ele>700</ele>
        <time>2021-08-10T11:26:12.837Z</time>
      </trkpt>
      <trkpt lat="46.92469" lon="8.5836">
        <ele>700</ele>
        <time>2021-08-10T11:26:13.837Z</time>
      </trkpt>
      <trkpt lat="46.92469" lon="8.5836">
        <ele>700</ele>
        <time>2021-08-10T11:26:14.837Z</time>
      </trkpt>
      <trkpt lat="46.92469" lon="8.58361">
        <ele>700</ele>
        <time>2021-08-10T11:26:15.836Z</time>
      </trkpt>
      <trkpt lat="46.92469" lon="8.58362">
        <ele>700</ele>
        <time>2021-08-10T11:26:16.836Z</time>
      </trkpt>
      <trkpt lat="46.92469" lon="8.58363">
        <ele>700</ele>
        <time>2021-08-10T11:26:17.836Z</time>
      </trkpt>
      <trkpt lat="46.92469" lon="8.58364">
        <ele>700</ele>
        <time>2021-08-10T11:26:18.837Z</time>
      </trkpt>
      <trkpt lat="46.9247" lon="8.58364">
        <ele>700</ele>
        <time>2021-08-10T11:26:19.836Z</time>
      </trkpt>
      <trkpt lat="46.9247" lon="8.58365">
        <ele>700</ele>
        <time>2021-08-10T11:26:20.837Z</time>
      </trkpt>
      <trkpt lat="46.9247" lon="8.58365">
        <ele>700</ele>
        <time>2021-08-10T11:26:21.837Z</time>
      </trkpt>
      <trkpt lat="46.9247" lon="8.58366">
        <ele>700</ele>
        <time>2021-08-10T11:26:22.836Z</time>
      </trkpt>
      <trkpt lat="46.9247" lon="8.58367">
        <ele>700</ele>
        <time>2021-08-10T11:26:23.837Z</time>
      </trkpt>
      <trkpt lat="46.9247" lon="8.58367">
        <ele>700</ele>
        <time>2021-08-10T11:26:24.837Z</time>
      </trkpt>
      <trkpt lat="46.92469" lon="8.58367">
        <ele>700</ele>
        <time>2021-08-10T11:26:25.837Z</time>
      </trkpt>
      <trkpt lat="46.92469" lon="8.58368">
        <ele>699</ele>
        <time>2021-08-10T11:26:26.837Z</time>
      </trkpt>
      <trkpt lat="46.92468" lon="8.58369">
        <ele>699</ele>
        <time>2021-08-10T11:26:27.836Z</time>
      </trkpt>
      <trkpt lat="46.92469" lon="8.5837">
        <ele>699</ele>
        <time>2021-08-10T11:26:28.837Z</time>
      </trkpt>
      <trkpt lat="46.9247" lon="8.58371">
        <ele>698</ele>
        <time>2021-08-10T11:26:29.836Z</time>
      </trkpt>
      <trkpt lat="46.9247" lon="8.58372">
        <ele>698</ele>
        <time>2021-08-10T11:26:30.836Z</time>
      </trkpt>
      <trkpt lat="46.9247" lon="8.58373">
        <ele>698</ele>
        <time>2021-08-10T11:26:31.837Z</time>
      </trkpt>
      <trkpt lat="46.9247" lon="8.58373">
        <ele>698</ele>
        <time>2021-08-10T11:26:32.837Z</time>
      </trkpt>
      <trkpt lat="46.9247" lon="8.58374">
        <ele>698</ele>
        <time>2021-08-10T11:26:33.837Z</time>
      </trkpt>
      <trkpt lat="46.9247" lon="8.58375">
        <ele>697</ele>
        <time>2021-08-10T11:26:34.837Z</time>
      </trkpt>
      <trkpt lat="46.9247" lon="8.58377">
        <ele>697</ele>
        <time>2021-08-10T11:26:35.837Z</time>
      </trkpt>
      <trkpt lat="46.92469" lon="8.58377">
        <ele>697</ele>
        <time>2021-08-10T11:26:36.837Z</time>
      </trkpt>
      <trkpt lat="46.92468" lon="8.58378">
        <ele>696</ele>
        <time>2021-08-10T11:26:37.837Z</time>
      </trkpt>
      <trkpt lat="46.92468" lon="8.58378">
        <ele>696</ele>
        <time>2021-08-10T11:26:38.837Z</time>
      </trkpt>
      <trkpt lat="46.92467" lon="8.58378">
        <ele>696</ele>
        <time>2021-08-10T11:26:39.836Z</time>
      </trkpt>
      <trkpt lat="46.92467" lon="8.58379">
        <ele>695</ele>
        <time>2021-08-10T11:26:40.837Z</time>
      </trkpt>
      <trkpt lat="46.92467" lon="8.5838">
        <ele>695</ele>
        <time>2021-08-10T11:26:41.836Z</time>
      </trkpt>
      <trkpt lat="46.92468" lon="8.58381">
        <ele>695</ele>
        <time>2021-08-10T11:26:42.837Z</time>
      </trkpt>
      <trkpt lat="46.92469" lon="8.58382">
        <ele>694</ele>
        <time>2021-08-10T11:26:43.837Z</time>
      </trkpt>
      <trkpt lat="46.9247" lon="8.58383">
        <ele>694</ele>
        <time>2021-08-10T11:26:44.837Z</time>
      </trkpt>
      <trkpt lat="46.9247" lon="8.58383">
        <ele>694</ele>
        <time>2021-08-10T11:26:45.836Z</time>
      </trkpt>
      <trkpt lat="46.92469" lon="8.58384">
        <ele>693</ele>
        <time>2021-08-10T11:26:46.837Z</time>
      </trkpt>
      <trkpt lat="46.92469" lon="8.58385">
        <ele>693</ele>
        <time>2021-08-10T11:26:47.837Z</time>
      </trkpt>
      <trkpt lat="46.92469" lon="8.58387">
        <ele>693</ele>
        <time>2021-08-10T11:26:48.836Z</time>
      </trkpt>
      <trkpt lat="46.92469" lon="8.58387">
        <ele>693</ele>
        <time>2021-08-10T11:26:49.836Z</time>
      </trkpt>
      <trkpt lat="46.92468" lon="8.58388">
        <ele>693</ele>
        <time>2021-08-10T11:26:50.837Z</time>
      </trkpt>
      <trkpt lat="46.92468" lon="8.58389">
        <ele>693</ele>
        <time>2021-08-10T11:26:51.836Z</time>
      </trkpt>
      <trkpt lat="46.92467" lon="8.5839">
        <ele>692</ele>
        <time>2021-08-10T11:26:52.837Z</time>
      </trkpt>
      <trkpt lat="46.92466" lon="8.58391">
        <ele>692</ele>
        <time>2021-08-10T11:26:53.837Z</time>
      </trkpt>
      <trkpt lat="46.92466" lon="8.58392">
        <ele>693</ele>
        <time>2021-08-10T11:26:54.837Z</time>
      </trkpt>
      <trkpt lat="46.92466" lon="8.58393">
        <ele>693</ele>
        <time>2021-08-10T11:26:55.837Z</time>
      </trkpt>
      <trkpt lat="46.92466" lon="8.58394">
        <ele>693</ele>
        <time>2021-08-10T11:26:56.837Z</time>
      </trkpt>
      <trkpt lat="46.92465" lon="8.58396">
        <ele>693</ele>
        <time>2021-08-10T11:26:57.836Z</time>
      </trkpt>
      <trkpt lat="46.92465" lon="8.58397">
        <ele>693</ele>
        <time>2021-08-10T11:26:58.837Z</time>
      </trkpt>
      <trkpt lat="46.92465" lon="8.58398">
        <ele>693</ele>
        <time>2021-08-10T11:26:59.836Z</time>
      </trkpt>
      <trkpt lat="46.92466" lon="8.58399">
        <ele>693</ele>
        <time>2021-08-10T11:27:00.837Z</time>
      </trkpt>
      <trkpt lat="46.92466" lon="8.584">
        <ele>693</ele>
        <time>2021-08-10T11:27:01.837Z</time>
      </trkpt>
      <trkpt lat="46.92466" lon="8.58401">
        <ele>693</ele>
        <time>2021-08-10T11:27:02.837Z</time>
      </trkpt>
      <trkpt lat="46.92466" lon="8.58402">
        <ele>693</ele>
        <time>2021-08-10T11:27:03.836Z</time>
      </trkpt>
      <trkpt lat="46.92464" lon="8.58403">
        <ele>693</ele>
        <time>2021-08-10T11:27:04.837Z</time>
      </trkpt>
      <trkpt lat="46.92463" lon="8.58404">
        <ele>693</ele>
        <time>2021-08-10T11:27:05.836Z</time>
      </trkpt>
      <trkpt lat="46.92462" lon="8.58405">
        <ele>693</ele>
        <time>2021-08-10T11:27:06.837Z</time>
      </trkpt>
      <trkpt lat="46.92461" lon="8.58405">
        <ele>693</ele>
        <time>2021-08-10T11:27:07.836Z</time>
      </trkpt>
      <trkpt lat="46.92461" lon="8.58405">
        <ele>692</ele>
        <time>2021-08-10T11:27:08.836Z</time>
      </trkpt>
      <trkpt lat="46.9246" lon="8.58406">
        <ele>692</ele>
        <time>2021-08-10T11:27:09.837Z</time>
      </trkpt>
      <trkpt lat="46.9246" lon="8.58406">
        <ele>692</ele>
        <time>2021-08-10T11:27:10.836Z</time>
      </trkpt>
      <trkpt lat="46.9246" lon="8.58407">
        <ele>691</ele>
        <time>2021-08-10T11:27:11.837Z</time>
      </trkpt>
      <trkpt lat="46.92459" lon="8.58406">
        <ele>691</ele>
        <time>2021-08-10T11:27:12.836Z</time>
      </trkpt>
      <trkpt lat="46.92459" lon="8.58406">
        <ele>691</ele>
        <time>2021-08-10T11:27:13.837Z</time>
      </trkpt>
      <trkpt lat="46.9246" lon="8.58406">
        <ele>691</ele>
        <time>2021-08-10T11:27:14.837Z</time>
      </trkpt>
      <trkpt lat="46.92459" lon="8.58407">
        <ele>691</ele>
        <time>2021-08-10T11:27:15.837Z</time>
      </trkpt>
      <trkpt lat="46.92459" lon="8.58408">
        <ele>691</ele>
        <time>2021-08-10T11:27:16.837Z</time>
      </trkpt>
      <trkpt lat="46.92458" lon="8.58409">
        <ele>691</ele>
        <time>2021-08-10T11:27:17.836Z</time>
      </trkpt>
      <trkpt lat="46.92458" lon="8.5841">
        <ele>691</ele>
        <time>2021-08-10T11:27:18.837Z</time>
      </trkpt>
      <trkpt lat="46.92457" lon="8.58411">
        <ele>691</ele>
        <time>2021-08-10T11:27:19.836Z</time>
      </trkpt>
      <trkpt lat="46.92456" lon="8.58412">
        <ele>690</ele>
        <time>2021-08-10T11:27:20.837Z</time>
      </trkpt>
      <trkpt lat="46.92457" lon="8.58413">
        <ele>690</ele>
        <time>2021-08-10T11:27:21.837Z</time>
      </trkpt>
      <trkpt lat="46.92458" lon="8.58415">
        <ele>690</ele>
        <time>2021-08-10T11:27:22.837Z</time>
      </trkpt>
      <trkpt lat="46.92458" lon="8.58418">
        <ele>691</ele>
        <time>2021-08-10T11:27:23.838Z</time>
      </trkpt>
      <trkpt lat="46.92458" lon="8.58418">
        <ele>691</ele>
        <time>2021-08-10T11:27:24.837Z</time>
      </trkpt>
      <trkpt lat="46.92457" lon="8.58418">
        <ele>691</ele>
        <time>2021-08-10T11:27:25.838Z</time>
      </trkpt>
      <trkpt lat="46.92456" lon="8.58419">
        <ele>691</ele>
        <time>2021-08-10T11:27:26.838Z</time>
      </trkpt>
      <trkpt lat="46.92454" lon="8.58419">
        <ele>691</ele>
        <time>2021-08-10T11:27:27.837Z</time>
      </trkpt>
      <trkpt lat="46.92454" lon="8.5842">
        <ele>691</ele>
        <time>2021-08-10T11:27:28.838Z</time>
      </trkpt>
      <trkpt lat="46.92452" lon="8.58421">
        <ele>691</ele>
        <time>2021-08-10T11:27:29.838Z</time>
      </trkpt>
      <trkpt lat="46.92452" lon="8.58422">
        <ele>691</ele>
        <time>2021-08-10T11:27:30.837Z</time>
      </trkpt>
      <trkpt lat="46.92451" lon="8.58423">
        <ele>691</ele>
        <time>2021-08-10T11:27:31.837Z</time>
      </trkpt>
      <trkpt lat="46.92451" lon="8.58425">
        <ele>691</ele>
        <time>2021-08-10T11:27:32.837Z</time>
      </trkpt>
      <trkpt lat="46.9245" lon="8.58427">
        <ele>691</ele>
        <time>2021-08-10T11:27:33.838Z</time>
      </trkpt>
      <trkpt lat="46.92449" lon="8.58428">
        <ele>690</ele>
        <time>2021-08-10T11:27:34.838Z</time>
      </trkpt>
      <trkpt lat="46.92449" lon="8.58429">
        <ele>690</ele>
        <time>2021-08-10T11:27:35.837Z</time>
      </trkpt>
      <trkpt lat="46.92449" lon="8.5843">
        <ele>690</ele>
        <time>2021-08-10T11:27:36.838Z</time>
      </trkpt>
      <trkpt lat="46.92448" lon="8.58432">
        <ele>690</ele>
        <time>2021-08-10T11:27:37.838Z</time>
      </trkpt>
      <trkpt lat="46.92448" lon="8.58432">
        <ele>690</ele>
        <time>2021-08-10T11:27:38.838Z</time>
      </trkpt>
      <trkpt lat="46.92448" lon="8.58434">
        <ele>690</ele>
        <time>2021-08-10T11:27:39.838Z</time>
      </trkpt>
      <trkpt lat="46.92447" lon="8.58435">
        <ele>690</ele>
        <time>2021-08-10T11:27:40.838Z</time>
      </trkpt>
      <trkpt lat="46.92448" lon="8.58436">
        <ele>690</ele>
        <time>2021-08-10T11:27:41.838Z</time>
      </trkpt>
      <trkpt lat="46.92448" lon="8.58438">
        <ele>690</ele>
        <time>2021-08-10T11:27:42.838Z</time>
      </trkpt>
      <trkpt lat="46.92449" lon="8.58439">
        <ele>689</ele>
        <time>2021-08-10T11:27:43.837Z</time>
      </trkpt>
      <trkpt lat="46.9245" lon="8.5844">
        <ele>689</ele>
        <time>2021-08-10T11:27:44.838Z</time>
      </trkpt>
      <trkpt lat="46.92449" lon="8.58442">
        <ele>689</ele>
        <time>2021-08-10T11:27:45.838Z</time>
      </trkpt>
      <trkpt lat="46.92446" lon="8.58444">
        <ele>689</ele>
        <time>2021-08-10T11:27:46.837Z</time>
      </trkpt>
      <trkpt lat="46.92443" lon="8.58445">
        <ele>689</ele>
        <time>2021-08-10T11:27:47.837Z</time>
      </trkpt>
      <trkpt lat="46.9244" lon="8.58446">
        <ele>689</ele>
        <time>2021-08-10T11:27:48.838Z</time>
      </trkpt>
      <trkpt lat="46.92438" lon="8.58447">
        <ele>689</ele>
        <time>2021-08-10T11:27:49.838Z</time>
      </trkpt>
      <trkpt lat="46.92435" lon="8.58449">
        <ele>689</ele>
        <time>2021-08-10T11:27:51.837Z</time>
      </trkpt>
      <trkpt lat="46.92434" lon="8.58449">
        <ele>689</ele>
        <time>2021-08-10T11:27:52.838Z</time>
      </trkpt>
      <trkpt lat="46.92432" lon="8.58449">
        <ele>689</ele>
        <time>2021-08-10T11:27:53.837Z</time>
      </trkpt>
      <trkpt lat="46.92433" lon="8.58449">
        <ele>689</ele>
        <time>2021-08-10T11:27:54.837Z</time>
      </trkpt>
      <trkpt lat="46.92433" lon="8.58448">
        <ele>689</ele>
        <time>2021-08-10T11:27:55.838Z</time>
      </trkpt>
      <trkpt lat="46.92433" lon="8.58448">
        <ele>689</ele>
        <time>2021-08-10T11:27:56.837Z</time>
      </trkpt>
      <trkpt lat="46.92433" lon="8.58448">
        <ele>689</ele>
        <time>2021-08-10T11:27:57.837Z</time>
      </trkpt>
      <trkpt lat="46.92432" lon="8.58449">
        <ele>689</ele>
        <time>2021-08-10T11:27:58.838Z</time>
      </trkpt>
      <trkpt lat="46.92432" lon="8.5845">
        <ele>689</ele>
        <time>2021-08-10T11:27:59.838Z</time>
      </trkpt>
      <trkpt lat="46.92431" lon="8.58452">
        <ele>689</ele>
        <time>2021-08-10T11:28:00.837Z</time>
      </trkpt>
      <trkpt lat="46.9243" lon="8.58454">
        <ele>689</ele>
        <time>2021-08-10T11:28:01.837Z</time>
      </trkpt>
      <trkpt lat="46.92429" lon="8.58455">
        <ele>689</ele>
        <time>2021-08-10T11:28:02.837Z</time>
      </trkpt>
      <trkpt lat="46.92429" lon="8.58456">
        <ele>689</ele>
        <time>2021-08-10T11:28:03.837Z</time>
      </trkpt>
      <trkpt lat="46.92428" lon="8.58457">
        <ele>689</ele>
        <time>2021-08-10T11:28:04.837Z</time>
      </trkpt>
      <trkpt lat="46.92428" lon="8.58458">
        <ele>688</ele>
        <time>2021-08-10T11:28:05.838Z</time>
      </trkpt>
      <trkpt lat="46.92427" lon="8.58458">
        <ele>688</ele>
        <time>2021-08-10T11:28:06.838Z</time>
      </trkpt>
      <trkpt lat="46.92428" lon="8.58459">
        <ele>688</ele>
        <time>2021-08-10T11:28:07.838Z</time>
      </trkpt>
      <trkpt lat="46.92428" lon="8.5846">
        <ele>688</ele>
        <time>2021-08-10T11:28:08.838Z</time>
      </trkpt>
      <trkpt lat="46.92428" lon="8.5846">
        <ele>688</ele>
        <time>2021-08-10T11:28:09.838Z</time>
      </trkpt>
      <trkpt lat="46.92428" lon="8.5846">
        <ele>688</ele>
        <time>2021-08-10T11:28:10.838Z</time>
      </trkpt>
      <trkpt lat="46.92427" lon="8.5846">
        <ele>688</ele>
        <time>2021-08-10T11:28:11.838Z</time>
      </trkpt>
      <trkpt lat="46.92427" lon="8.58461">
        <ele>688</ele>
        <time>2021-08-10T11:28:12.838Z</time>
      </trkpt>
      <trkpt lat="46.92427" lon="8.58461">
        <ele>688</ele>
        <time>2021-08-10T11:28:13.838Z</time>
      </trkpt>
      <trkpt lat="46.92425" lon="8.58461">
        <ele>687</ele>
        <time>2021-08-10T11:28:14.838Z</time>
      </trkpt>
      <trkpt lat="46.92424" lon="8.58463">
        <ele>687</ele>
        <time>2021-08-10T11:28:15.837Z</time>
      </trkpt>
      <trkpt lat="46.92424" lon="8.58465">
        <ele>687</ele>
        <time>2021-08-10T11:28:16.838Z</time>
      </trkpt>
      <trkpt lat="46.92423" lon="8.58467">
        <ele>687</ele>
        <time>2021-08-10T11:28:17.837Z</time>
      </trkpt>
      <trkpt lat="46.92422" lon="8.58469">
        <ele>687</ele>
        <time>2021-08-10T11:28:18.837Z</time>
      </trkpt>
      <trkpt lat="46.92421" lon="8.58471">
        <ele>687</ele>
        <time>2021-08-10T11:28:19.838Z</time>
      </trkpt>
      <trkpt lat="46.92421" lon="8.58472">
        <ele>687</ele>
        <time>2021-08-10T11:28:20.838Z</time>
      </trkpt>
      <trkpt lat="46.92421" lon="8.58472">
        <ele>687</ele>
        <time>2021-08-10T11:28:26.020Z</time>
      </trkpt>
      <trkpt lat="46.92421" lon="8.58472">
        <ele>687</ele>
        <time>2021-08-10T11:28:27.020Z</time>
      </trkpt>
      <trkpt lat="46.92421" lon="8.58472">
        <ele>687</ele>
        <time>2021-08-10T11:28:28.022Z</time>
      </trkpt>
      <trkpt lat="46.9242" lon="8.58472">
        <ele>687</ele>
        <time>2021-08-10T11:28:29.022Z</time>
      </trkpt>
      <trkpt lat="46.92419" lon="8.58473">
        <ele>687</ele>
        <time>2021-08-10T11:28:30.022Z</time>
      </trkpt>
      <trkpt lat="46.92417" lon="8.58473">
        <ele>688</ele>
        <time>2021-08-10T11:28:31.021Z</time>
      </trkpt>
      <trkpt lat="46.92416" lon="8.58473">
        <ele>688</ele>
        <time>2021-08-10T11:28:32.022Z</time>
      </trkpt>
      <trkpt lat="46.92414" lon="8.58473">
        <ele>688</ele>
        <time>2021-08-10T11:28:33.022Z</time>
      </trkpt>
      <trkpt lat="46.92413" lon="8.58472">
        <ele>688</ele>
        <time>2021-08-10T11:28:34.021Z</time>
      </trkpt>
      <trkpt lat="46.92411" lon="8.58472">
        <ele>688</ele>
        <time>2021-08-10T11:28:35.021Z</time>
      </trkpt>
      <trkpt lat="46.9241" lon="8.58472">
        <ele>687</ele>
        <time>2021-08-10T11:28:36.021Z</time>
      </trkpt>
      <trkpt lat="46.92408" lon="8.58472">
        <ele>687</ele>
        <time>2021-08-10T11:28:37.022Z</time>
      </trkpt>
      <trkpt lat="46.92407" lon="8.58473">
        <ele>687</ele>
        <time>2021-08-10T11:28:38.022Z</time>
      </trkpt>
      <trkpt lat="46.92405" lon="8.58473">
        <ele>687</ele>
        <time>2021-08-10T11:28:39.021Z</time>
      </trkpt>
      <trkpt lat="46.92405" lon="8.58473">
        <ele>687</ele>
        <time>2021-08-10T11:28:40.022Z</time>
      </trkpt>
      <trkpt lat="46.92407" lon="8.58475">
        <ele>687</ele>
        <time>2021-08-10T11:28:41.021Z</time>
      </trkpt>
      <trkpt lat="46.92407" lon="8.58475">
        <ele>687</ele>
        <time>2021-08-10T11:28:42.022Z</time>
      </trkpt>
      <trkpt lat="46.92406" lon="8.58473">
        <ele>687</ele>
        <time>2021-08-10T11:28:43.021Z</time>
      </trkpt>
      <trkpt lat="46.92409" lon="8.58471">
        <ele>688</ele>
        <time>2021-08-10T11:28:44.022Z</time>
      </trkpt>
      <trkpt lat="46.92411" lon="8.5847">
        <ele>688</ele>
        <time>2021-08-10T11:28:45.021Z</time>
      </trkpt>
      <trkpt lat="46.92414" lon="8.5847">
        <ele>688</ele>
        <time>2021-08-10T11:28:46.021Z</time>
      </trkpt>
      <trkpt lat="46.92415" lon="8.58472">
        <ele>688</ele>
        <time>2021-08-10T11:28:47.022Z</time>
      </trkpt>
      <trkpt lat="46.92417" lon="8.58475">
        <ele>688</ele>
        <time>2021-08-10T11:28:48.022Z</time>
      </trkpt>
      <trkpt lat="46.92417" lon="8.58476">
        <ele>688</ele>
        <time>2021-08-10T11:28:49.021Z</time>
      </trkpt>
      <trkpt lat="46.92414" lon="8.58478">
        <ele>688</ele>
        <time>2021-08-10T11:28:50.021Z</time>
      </trkpt>
      <trkpt lat="46.92414" lon="8.58478">
        <ele>688</ele>
        <time>2021-08-10T11:28:51.021Z</time>
      </trkpt>
      <trkpt lat="46.92415" lon="8.58478">
        <ele>688</ele>
        <time>2021-08-10T11:28:52.022Z</time>
      </trkpt>
      <trkpt lat="46.92415" lon="8.58478">
        <ele>688</ele>
        <time>2021-08-10T11:28:53.021Z</time>
      </trkpt>
      <trkpt lat="46.92415" lon="8.58479">
        <ele>688</ele>
        <time>2021-08-10T11:28:54.022Z</time>
      </trkpt>
      <trkpt lat="46.92413" lon="8.5848">
        <ele>688</ele>
        <time>2021-08-10T11:28:55.021Z</time>
      </trkpt>
      <trkpt lat="46.9241" lon="8.58482">
        <ele>688</ele>
        <time>2021-08-10T11:28:56.022Z</time>
      </trkpt>
      <trkpt lat="46.9241" lon="8.58483">
        <ele>688</ele>
        <time>2021-08-10T11:28:57.022Z</time>
      </trkpt>
      <trkpt lat="46.9241" lon="8.58484">
        <ele>688</ele>
        <time>2021-08-10T11:28:58.021Z</time>
      </trkpt>
      <trkpt lat="46.92411" lon="8.58484">
        <ele>688</ele>
        <time>2021-08-10T11:28:59.021Z</time>
      </trkpt>
      <trkpt lat="46.92412" lon="8.58485">
        <ele>688</ele>
        <time>2021-08-10T11:29:00.021Z</time>
      </trkpt>
      <trkpt lat="46.92414" lon="8.58484">
        <ele>687</ele>
        <time>2021-08-10T11:29:01.022Z</time>
      </trkpt>
      <trkpt lat="46.92414" lon="8.58484">
        <ele>687</ele>
        <time>2021-08-10T11:29:02.021Z</time>
      </trkpt>
      <trkpt lat="46.92415" lon="8.58485">
        <ele>687</ele>
        <time>2021-08-10T11:29:03.021Z</time>
      </trkpt>
      <trkpt lat="46.92417" lon="8.58485">
        <ele>686</ele>
        <time>2021-08-10T11:29:04.021Z</time>
      </trkpt>
      <trkpt lat="46.92418" lon="8.58486">
        <ele>686</ele>
        <time>2021-08-10T11:29:05.022Z</time>
      </trkpt>
      <trkpt lat="46.92419" lon="8.58487">
        <ele>686</ele>
        <time>2021-08-10T11:29:06.022Z</time>
      </trkpt>
      <trkpt lat="46.9242" lon="8.58488">
        <ele>685</ele>
        <time>2021-08-10T11:29:07.022Z</time>
      </trkpt>
      <trkpt lat="46.92422" lon="8.5849">
        <ele>685</ele>
        <time>2021-08-10T11:29:08.022Z</time>
      </trkpt>
      <trkpt lat="46.92422" lon="8.58491">
        <ele>685</ele>
        <time>2021-08-10T11:29:09.022Z</time>
      </trkpt>
      <trkpt lat="46.92422" lon="8.58493">
        <ele>685</ele>
        <time>2021-08-10T11:29:10.021Z</time>
      </trkpt>
      <trkpt lat="46.92422" lon="8.58495">
        <ele>685</ele>
        <time>2021-08-10T11:29:11.022Z</time>
      </trkpt>
      <trkpt lat="46.92422" lon="8.58497">
        <ele>685</ele>
        <time>2021-08-10T11:29:12.022Z</time>
      </trkpt>
      <trkpt lat="46.92424" lon="8.58499">
        <ele>685</ele>
        <time>2021-08-10T11:29:13.022Z</time>
      </trkpt>
      <trkpt lat="46.92425" lon="8.585">
        <ele>685</ele>
        <time>2021-08-10T11:29:14.022Z</time>
      </trkpt>
      <trkpt lat="46.92426" lon="8.58502">
        <ele>685</ele>
        <time>2021-08-10T11:29:15.022Z</time>
      </trkpt>
      <trkpt lat="46.92428" lon="8.58504">
        <ele>685</ele>
        <time>2021-08-10T11:29:16.022Z</time>
      </trkpt>
      <trkpt lat="46.9243" lon="8.58505">
        <ele>685</ele>
        <time>2021-08-10T11:29:17.021Z</time>
      </trkpt>
      <trkpt lat="46.9243" lon="8.58507">
        <ele>685</ele>
        <time>2021-08-10T11:29:18.022Z</time>
      </trkpt>
      <trkpt lat="46.9243" lon="8.58509">
        <ele>685</ele>
        <time>2021-08-10T11:29:19.022Z</time>
      </trkpt>
      <trkpt lat="46.9243" lon="8.5851">
        <ele>685</ele>
        <time>2021-08-10T11:29:20.021Z</time>
      </trkpt>
      <trkpt lat="46.92431" lon="8.58511">
        <ele>684</ele>
        <time>2021-08-10T11:29:21.022Z</time>
      </trkpt>
      <trkpt lat="46.92431" lon="8.58511">
        <ele>684</ele>
        <time>2021-08-10T11:29:22.022Z</time>
      </trkpt>
      <trkpt lat="46.92432" lon="8.58512">
        <ele>684</ele>
        <time>2021-08-10T11:29:23.022Z</time>
      </trkpt>
      <trkpt lat="46.92431" lon="8.58513">
        <ele>684</ele>
        <time>2021-08-10T11:29:24.022Z</time>
      </trkpt>
      <trkpt lat="46.9243" lon="8.58514">
        <ele>684</ele>
        <time>2021-08-10T11:29:25.022Z</time>
      </trkpt>
      <trkpt lat="46.9243" lon="8.58515">
        <ele>683</ele>
        <time>2021-08-10T11:29:26.021Z</time>
      </trkpt>
      <trkpt lat="46.9243" lon="8.58516">
        <ele>683</ele>
        <time>2021-08-10T11:29:27.022Z</time>
      </trkpt>
      <trkpt lat="46.92431" lon="8.58517">
        <ele>683</ele>
        <time>2021-08-10T11:29:28.022Z</time>
      </trkpt>
      <trkpt lat="46.92432" lon="8.58518">
        <ele>684</ele>
        <time>2021-08-10T11:29:29.022Z</time>
      </trkpt>
      <trkpt lat="46.92432" lon="8.58519">
        <ele>684</ele>
        <time>2021-08-10T11:29:36.156Z</time>
      </trkpt>
      <trkpt lat="46.92432" lon="8.58519">
        <ele>685</ele>
        <time>2021-08-10T11:29:37.155Z</time>
      </trkpt>
      <trkpt lat="46.92433" lon="8.5852">
        <ele>686</ele>
        <time>2021-08-10T11:29:38.155Z</time>
      </trkpt>
      <trkpt lat="46.92434" lon="8.58521">
        <ele>686</ele>
        <time>2021-08-10T11:29:39.156Z</time>
      </trkpt>
      <trkpt lat="46.92433" lon="8.58522">
        <ele>686</ele>
        <time>2021-08-10T11:29:40.155Z</time>
      </trkpt>
      <trkpt lat="46.92433" lon="8.58523">
        <ele>687</ele>
        <time>2021-08-10T11:29:41.156Z</time>
      </trkpt>
      <trkpt lat="46.92431" lon="8.58525">
        <ele>687</ele>
        <time>2021-08-10T11:29:43.206Z</time>
      </trkpt>
      <trkpt lat="46.9243" lon="8.58525">
        <ele>687</ele>
        <time>2021-08-10T11:29:44.205Z</time>
      </trkpt>
      <trkpt lat="46.92429" lon="8.58526">
        <ele>687</ele>
        <time>2021-08-10T11:29:45.205Z</time>
      </trkpt>
      <trkpt lat="46.92427" lon="8.58528">
        <ele>687</ele>
        <time>2021-08-10T11:29:46.206Z</time>
      </trkpt>
      <trkpt lat="46.92425" lon="8.58529">
        <ele>687</ele>
        <time>2021-08-10T11:29:47.206Z</time>
      </trkpt>
      <trkpt lat="46.92423" lon="8.58529">
        <ele>688</ele>
        <time>2021-08-10T11:29:48.206Z</time>
      </trkpt>
      <trkpt lat="46.92422" lon="8.58528">
        <ele>688</ele>
        <time>2021-08-10T11:29:49.205Z</time>
      </trkpt>
      <trkpt lat="46.92421" lon="8.58528">
        <ele>688</ele>
        <time>2021-08-10T11:29:50.206Z</time>
      </trkpt>
      <trkpt lat="46.9242" lon="8.58528">
        <ele>688</ele>
        <time>2021-08-10T11:29:51.206Z</time>
      </trkpt>
      <trkpt lat="46.92419" lon="8.58529">
        <ele>688</ele>
        <time>2021-08-10T11:29:52.206Z</time>
      </trkpt>
      <trkpt lat="46.92416" lon="8.5853">
        <ele>689</ele>
        <time>2021-08-10T11:29:53.206Z</time>
      </trkpt>
      <trkpt lat="46.92416" lon="8.58532">
        <ele>689</ele>
        <time>2021-08-10T11:29:54.206Z</time>
      </trkpt>
      <trkpt lat="46.92416" lon="8.58533">
        <ele>689</ele>
        <time>2021-08-10T11:29:55.206Z</time>
      </trkpt>
      <trkpt lat="46.92416" lon="8.58534">
        <ele>690</ele>
        <time>2021-08-10T11:29:56.205Z</time>
      </trkpt>
      <trkpt lat="46.92417" lon="8.58534">
        <ele>690</ele>
        <time>2021-08-10T11:29:57.206Z</time>
      </trkpt>
      <trkpt lat="46.92417" lon="8.58535">
        <ele>690</ele>
        <time>2021-08-10T11:29:58.206Z</time>
      </trkpt>
      <trkpt lat="46.92417" lon="8.58535">
        <ele>690</ele>
        <time>2021-08-10T11:29:59.206Z</time>
      </trkpt>
      <trkpt lat="46.92417" lon="8.58536">
        <ele>690</ele>
        <time>2021-08-10T11:30:00.205Z</time>
      </trkpt>
      <trkpt lat="46.92418" lon="8.58536">
        <ele>690</ele>
        <time>2021-08-10T11:30:01.205Z</time>
      </trkpt>
      <trkpt lat="46.92417" lon="8.58537">
        <ele>690</ele>
        <time>2021-08-10T11:30:02.206Z</time>
      </trkpt>
      <trkpt lat="46.92416" lon="8.58538">
        <ele>690</ele>
        <time>2021-08-10T11:30:03.205Z</time>
      </trkpt>
      <trkpt lat="46.92416" lon="8.58539">
        <ele>691</ele>
        <time>2021-08-10T11:30:07.245Z</time>
      </trkpt>
      <trkpt lat="46.92415" lon="8.5854">
        <ele>691</ele>
        <time>2021-08-10T11:30:13.117Z</time>
      </trkpt>
      <trkpt lat="46.92414" lon="8.58541">
        <ele>691</ele>
        <time>2021-08-10T11:30:14.117Z</time>
      </trkpt>
      <trkpt lat="46.92413" lon="8.58541">
        <ele>690</ele>
        <time>2021-08-10T11:30:15.117Z</time>
      </trkpt>
      <trkpt lat="46.92413" lon="8.58542">
        <ele>690</ele>
        <time>2021-08-10T11:30:16.117Z</time>
      </trkpt>
      <trkpt lat="46.92412" lon="8.58541">
        <ele>690</ele>
        <time>2021-08-10T11:30:17.117Z</time>
      </trkpt>
      <trkpt lat="46.92411" lon="8.58541">
        <ele>690</ele>
        <time>2021-08-10T11:30:18.116Z</time>
      </trkpt>
      <trkpt lat="46.92411" lon="8.58541">
        <ele>689</ele>
        <time>2021-08-10T11:30:19.117Z</time>
      </trkpt>
      <trkpt lat="46.9241" lon="8.58541">
        <ele>689</ele>
        <time>2021-08-10T11:30:22.097Z</time>
      </trkpt>
      <trkpt lat="46.9241" lon="8.58541">
        <ele>689</ele>
        <time>2021-08-10T11:30:23.097Z</time>
      </trkpt>
      <trkpt lat="46.9241" lon="8.58541">
        <ele>689</ele>
        <time>2021-08-10T11:30:24.098Z</time>
      </trkpt>
      <trkpt lat="46.9241" lon="8.58542">
        <ele>689</ele>
        <time>2021-08-10T11:30:25.098Z</time>
      </trkpt>
      <trkpt lat="46.9241" lon="8.58542">
        <ele>689</ele>
        <time>2021-08-10T11:30:26.098Z</time>
      </trkpt>
      <trkpt lat="46.9241" lon="8.58542">
        <ele>689</ele>
        <time>2021-08-10T11:30:27.098Z</time>
      </trkpt>
      <trkpt lat="46.9241" lon="8.58542">
        <ele>689</ele>
        <time>2021-08-10T11:30:28.098Z</time>
      </trkpt>
      <trkpt lat="46.92411" lon="8.58542">
        <ele>689</ele>
        <time>2021-08-10T11:30:29.098Z</time>
      </trkpt>
      <trkpt lat="46.9241" lon="8.58543">
        <ele>689</ele>
        <time>2021-08-10T11:30:30.098Z</time>
      </trkpt>
      <trkpt lat="46.92409" lon="8.58543">
        <ele>689</ele>
        <time>2021-08-10T11:30:31.098Z</time>
      </trkpt>
      <trkpt lat="46.92408" lon="8.58543">
        <ele>689</ele>
        <time>2021-08-10T11:30:32.098Z</time>
      </trkpt>
      <trkpt lat="46.92409" lon="8.58542">
        <ele>690</ele>
        <time>2021-08-10T11:30:33.098Z</time>
      </trkpt>
      <trkpt lat="46.92409" lon="8.58542">
        <ele>690</ele>
        <time>2021-08-10T11:30:34.098Z</time>
      </trkpt>
      <trkpt lat="46.92409" lon="8.58542">
        <ele>690</ele>
        <time>2021-08-10T11:30:35.098Z</time>
      </trkpt>
      <trkpt lat="46.92408" lon="8.58542">
        <ele>690</ele>
        <time>2021-08-10T11:30:36.097Z</time>
      </trkpt>
      <trkpt lat="46.92407" lon="8.58541">
        <ele>690</ele>
        <time>2021-08-10T11:30:37.097Z</time>
      </trkpt>
      <trkpt lat="46.92407" lon="8.58542">
        <ele>690</ele>
        <time>2021-08-10T11:30:38.097Z</time>
      </trkpt>
      <trkpt lat="46.92407" lon="8.58542">
        <ele>690</ele>
        <time>2021-08-10T11:30:39.098Z</time>
      </trkpt>
      <trkpt lat="46.92405" lon="8.58542">
        <ele>690</ele>
        <time>2021-08-10T11:30:40.099Z</time>
      </trkpt>
      <trkpt lat="46.92405" lon="8.58541">
        <ele>690</ele>
        <time>2021-08-10T11:30:41.098Z</time>
      </trkpt>
      <trkpt lat="46.92405" lon="8.58541">
        <ele>690</ele>
        <time>2021-08-10T11:30:42.098Z</time>
      </trkpt>
      <trkpt lat="46.92405" lon="8.5854">
        <ele>690</ele>
        <time>2021-08-10T11:30:43.099Z</time>
      </trkpt>
      <trkpt lat="46.92405" lon="8.5854">
        <ele>690</ele>
        <time>2021-08-10T11:30:44.099Z</time>
      </trkpt>
      <trkpt lat="46.92406" lon="8.58539">
        <ele>690</ele>
        <time>2021-08-10T11:30:45.099Z</time>
      </trkpt>
      <trkpt lat="46.92407" lon="8.58538">
        <ele>691</ele>
        <time>2021-08-10T11:30:46.099Z</time>
      </trkpt>
      <trkpt lat="46.92407" lon="8.58537">
        <ele>691</ele>
        <time>2021-08-10T11:30:47.099Z</time>
      </trkpt>
      <trkpt lat="46.92407" lon="8.58536">
        <ele>691</ele>
        <time>2021-08-10T11:30:48.099Z</time>
      </trkpt>
      <trkpt lat="46.92408" lon="8.58535">
        <ele>691</ele>
        <time>2021-08-10T11:30:49.099Z</time>
      </trkpt>
      <trkpt lat="46.92408" lon="8.58535">
        <ele>691</ele>
        <time>2021-08-10T11:30:50.099Z</time>
      </trkpt>
      <trkpt lat="46.92409" lon="8.58536">
        <ele>691</ele>
        <time>2021-08-10T11:30:58.169Z</time>
      </trkpt>
      <trkpt lat="46.92409" lon="8.58535">
        <ele>691</ele>
        <time>2021-08-10T11:30:59.169Z</time>
      </trkpt>
      <trkpt lat="46.92409" lon="8.58535">
        <ele>691</ele>
        <time>2021-08-10T11:31:00.169Z</time>
      </trkpt>
      <trkpt lat="46.9241" lon="8.58535">
        <ele>691</ele>
        <time>2021-08-10T11:31:01.168Z</time>
      </trkpt>
      <trkpt lat="46.92411" lon="8.58534">
        <ele>691</ele>
        <time>2021-08-10T11:31:02.169Z</time>
      </trkpt>
      <trkpt lat="46.92412" lon="8.58534">
        <ele>691</ele>
        <time>2021-08-10T11:31:03.169Z</time>
      </trkpt>
      <trkpt lat="46.92413" lon="8.58534">
        <ele>692</ele>
        <time>2021-08-10T11:31:04.169Z</time>
      </trkpt>
      <trkpt lat="46.92414" lon="8.58534">
        <ele>692</ele>
        <time>2021-08-10T11:31:05.169Z</time>
      </trkpt>
      <trkpt lat="46.92414" lon="8.58534">
        <ele>692</ele>
        <time>2021-08-10T11:31:06.169Z</time>
      </trkpt>
      <trkpt lat="46.92414" lon="8.58534">
        <ele>692</ele>
        <time>2021-08-10T11:31:07.168Z</time>
      </trkpt>
      <trkpt lat="46.92415" lon="8.58532">
        <ele>692</ele>
        <time>2021-08-10T11:31:08.169Z</time>
      </trkpt>
      <trkpt lat="46.92416" lon="8.58531">
        <ele>692</ele>
        <time>2021-08-10T11:31:09.169Z</time>
      </trkpt>
      <trkpt lat="46.92416" lon="8.58529">
        <ele>693</ele>
        <time>2021-08-10T11:31:10.168Z</time>
      </trkpt>
      <trkpt lat="46.92416" lon="8.58529">
        <ele>693</ele>
        <time>2021-08-10T11:31:11.168Z</time>
      </trkpt>
      <trkpt lat="46.92416" lon="8.58528">
        <ele>693</ele>
        <time>2021-08-10T11:31:12.169Z</time>
      </trkpt>
      <trkpt lat="46.92415" lon="8.58528">
        <ele>693</ele>
        <time>2021-08-10T11:31:13.169Z</time>
      </trkpt>
      <trkpt lat="46.92414" lon="8.58529">
        <ele>693</ele>
        <time>2021-08-10T11:31:14.169Z</time>
      </trkpt>
      <trkpt lat="46.92413" lon="8.5853">
        <ele>693</ele>
        <time>2021-08-10T11:31:15.169Z</time>
      </trkpt>
      <trkpt lat="46.92412" lon="8.5853">
        <ele>694</ele>
        <time>2021-08-10T11:31:16.169Z</time>
      </trkpt>
      <trkpt lat="46.92411" lon="8.5853">
        <ele>694</ele>
        <time>2021-08-10T11:31:17.169Z</time>
      </trkpt>
      <trkpt lat="46.9241" lon="8.5853">
        <ele>694</ele>
        <time>2021-08-10T11:31:18.169Z</time>
      </trkpt>
      <trkpt lat="46.92409" lon="8.5853">
        <ele>694</ele>
        <time>2021-08-10T11:31:19.168Z</time>
      </trkpt>
      <trkpt lat="46.92409" lon="8.58531">
        <ele>694</ele>
        <time>2021-08-10T11:31:20.169Z</time>
      </trkpt>
      <trkpt lat="46.92409" lon="8.58531">
        <ele>694</ele>
        <time>2021-08-10T11:31:21.168Z</time>
      </trkpt>
      <trkpt lat="46.92409" lon="8.58531">
        <ele>694</ele>
        <time>2021-08-10T11:31:22.169Z</time>
      </trkpt>
      <trkpt lat="46.92408" lon="8.58531">
        <ele>694</ele>
        <time>2021-08-10T11:31:23.170Z</time>
      </trkpt>
      <trkpt lat="46.92407" lon="8.58531">
        <ele>693</ele>
        <time>2021-08-10T11:31:24.169Z</time>
      </trkpt>
      <trkpt lat="46.92407" lon="8.58531">
        <ele>693</ele>
        <time>2021-08-10T11:31:25.169Z</time>
      </trkpt>
      <trkpt lat="46.92406" lon="8.58531">
        <ele>693</ele>
        <time>2021-08-10T11:31:26.170Z</time>
      </trkpt>
      <trkpt lat="46.92405" lon="8.58531">
        <ele>693</ele>
        <time>2021-08-10T11:31:27.170Z</time>
      </trkpt>
      <trkpt lat="46.92405" lon="8.58531">
        <ele>693</ele>
        <time>2021-08-10T11:31:28.169Z</time>
      </trkpt>
      <trkpt lat="46.92405" lon="8.58532">
        <ele>693</ele>
        <time>2021-08-10T11:31:29.170Z</time>
      </trkpt>
      <trkpt lat="46.92405" lon="8.58532">
        <ele>693</ele>
        <time>2021-08-10T11:31:30.170Z</time>
      </trkpt>
      <trkpt lat="46.92405" lon="8.58534">
        <ele>693</ele>
        <time>2021-08-10T11:31:31.170Z</time>
      </trkpt>
      <trkpt lat="46.92404" lon="8.58535">
        <ele>693</ele>
        <time>2021-08-10T11:31:32.169Z</time>
      </trkpt>
      <trkpt lat="46.92402" lon="8.58536">
        <ele>693</ele>
        <time>2021-08-10T11:31:33.170Z</time>
      </trkpt>
      <trkpt lat="46.92401" lon="8.58538">
        <ele>693</ele>
        <time>2021-08-10T11:31:34.170Z</time>
      </trkpt>
      <trkpt lat="46.92401" lon="8.58538">
        <ele>692</ele>
        <time>2021-08-10T11:31:35.170Z</time>
      </trkpt>
      <trkpt lat="46.92401" lon="8.58538">
        <ele>692</ele>
        <time>2021-08-10T11:31:36.169Z</time>
      </trkpt>
      <trkpt lat="46.92399" lon="8.58537">
        <ele>692</ele>
        <time>2021-08-10T11:31:37.170Z</time>
      </trkpt>
      <trkpt lat="46.92399" lon="8.58538">
        <ele>692</ele>
        <time>2021-08-10T11:31:38.171Z</time>
      </trkpt>
      <trkpt lat="46.92399" lon="8.58538">
        <ele>692</ele>
        <time>2021-08-10T11:31:39.170Z</time>
      </trkpt>
      <trkpt lat="46.92399" lon="8.58538">
        <ele>692</ele>
        <time>2021-08-10T11:31:40.170Z</time>
      </trkpt>
      <trkpt lat="46.92399" lon="8.58539">
        <ele>692</ele>
        <time>2021-08-10T11:31:41.171Z</time>
      </trkpt>
      <trkpt lat="46.92398" lon="8.5854">
        <ele>692</ele>
        <time>2021-08-10T11:31:42.171Z</time>
      </trkpt>
      <trkpt lat="46.92398" lon="8.5854">
        <ele>692</ele>
        <time>2021-08-10T11:31:43.170Z</time>
      </trkpt>
      <trkpt lat="46.92399" lon="8.58538">
        <ele>693</ele>
        <time>2021-08-10T11:31:44.170Z</time>
      </trkpt>
      <trkpt lat="46.92398" lon="8.58539">
        <ele>693</ele>
        <time>2021-08-10T11:31:45.170Z</time>
      </trkpt>
      <trkpt lat="46.92398" lon="8.5854">
        <ele>693</ele>
        <time>2021-08-10T11:31:46.170Z</time>
      </trkpt>
      <trkpt lat="46.92397" lon="8.5854">
        <ele>693</ele>
        <time>2021-08-10T11:31:47.171Z</time>
      </trkpt>
      <trkpt lat="46.92397" lon="8.58541">
        <ele>693</ele>
        <time>2021-08-10T11:31:48.170Z</time>
      </trkpt>
      <trkpt lat="46.92398" lon="8.58541">
        <ele>693</ele>
        <time>2021-08-10T11:31:49.171Z</time>
      </trkpt>
      <trkpt lat="46.92397" lon="8.58543">
        <ele>693</ele>
        <time>2021-08-10T11:31:50.170Z</time>
      </trkpt>
      <trkpt lat="46.92397" lon="8.58545">
        <ele>693</ele>
        <time>2021-08-10T11:31:51.170Z</time>
      </trkpt>
      <trkpt lat="46.92397" lon="8.58546">
        <ele>693</ele>
        <time>2021-08-10T11:31:52.170Z</time>
      </trkpt>
      <trkpt lat="46.92397" lon="8.58547">
        <ele>693</ele>
        <time>2021-08-10T11:31:53.170Z</time>
      </trkpt>
      <trkpt lat="46.92396" lon="8.58548">
        <ele>693</ele>
        <time>2021-08-10T11:31:54.170Z</time>
      </trkpt>
      <trkpt lat="46.92396" lon="8.58546">
        <ele>693</ele>
        <time>2021-08-10T11:31:55.170Z</time>
      </trkpt>
      <trkpt lat="46.92396" lon="8.58545">
        <ele>693</ele>
        <time>2021-08-10T11:31:56.170Z</time>
      </trkpt>
      <trkpt lat="46.92395" lon="8.58543">
        <ele>694</ele>
        <time>2021-08-10T11:31:57.170Z</time>
      </trkpt>
      <trkpt lat="46.92395" lon="8.58541">
        <ele>694</ele>
        <time>2021-08-10T11:31:58.171Z</time>
      </trkpt>
      <trkpt lat="46.92395" lon="8.58542">
        <ele>694</ele>
        <time>2021-08-10T11:31:59.170Z</time>
      </trkpt>
      <trkpt lat="46.92394" lon="8.58541">
        <ele>694</ele>
        <time>2021-08-10T11:32:00.171Z</time>
      </trkpt>
      <trkpt lat="46.92394" lon="8.58539">
        <ele>694</ele>
        <time>2021-08-10T11:32:01.170Z</time>
      </trkpt>
      <trkpt lat="46.92392" lon="8.58536">
        <ele>694</ele>
        <time>2021-08-10T11:32:02.170Z</time>
      </trkpt>
      <trkpt lat="46.92391" lon="8.58536">
        <ele>694</ele>
        <time>2021-08-10T11:32:09.300Z</time>
      </trkpt>
      <trkpt lat="46.92391" lon="8.58539">
        <ele>694</ele>
        <time>2021-08-10T11:32:10.299Z</time>
      </trkpt>
      <trkpt lat="46.92389" lon="8.5854">
        <ele>694</ele>
        <time>2021-08-10T11:32:11.299Z</time>
      </trkpt>
      <trkpt lat="46.92389" lon="8.58541">
        <ele>695</ele>
        <time>2021-08-10T11:32:15.435Z</time>
      </trkpt>
      <trkpt lat="46.92388" lon="8.58542">
        <ele>695</ele>
        <time>2021-08-10T11:32:25.283Z</time>
      </trkpt>
      <trkpt lat="46.92388" lon="8.58543">
        <ele>695</ele>
        <time>2021-08-10T11:32:26.283Z</time>
      </trkpt>
      <trkpt lat="46.9239" lon="8.58543">
        <ele>695</ele>
        <time>2021-08-10T11:32:27.283Z</time>
      </trkpt>
      <trkpt lat="46.9239" lon="8.58543">
        <ele>695</ele>
        <time>2021-08-10T11:32:28.284Z</time>
      </trkpt>
      <trkpt lat="46.9239" lon="8.58543">
        <ele>695</ele>
        <time>2021-08-10T11:32:29.284Z</time>
      </trkpt>
      <trkpt lat="46.92389" lon="8.58544">
        <ele>696</ele>
        <time>2021-08-10T11:32:30.283Z</time>
      </trkpt>
      <trkpt lat="46.92389" lon="8.58545">
        <ele>696</ele>
        <time>2021-08-10T11:32:31.284Z</time>
      </trkpt>
      <trkpt lat="46.92388" lon="8.58546">
        <ele>696</ele>
        <time>2021-08-10T11:32:32.283Z</time>
      </trkpt>
      <trkpt lat="46.92388" lon="8.58547">
        <ele>696</ele>
        <time>2021-08-10T11:32:33.283Z</time>
      </trkpt>
      <trkpt lat="46.92389" lon="8.58549">
        <ele>697</ele>
        <time>2021-08-10T11:32:34.283Z</time>
      </trkpt>
      <trkpt lat="46.92387" lon="8.58548">
        <ele>697</ele>
        <time>2021-08-10T11:32:46.192Z</time>
      </trkpt>
      <trkpt lat="46.92384" lon="8.58545">
        <ele>697</ele>
        <time>2021-08-10T11:32:47.192Z</time>
      </trkpt>
      <trkpt lat="46.92381" lon="8.58542">
        <ele>698</ele>
        <time>2021-08-10T11:33:14.025Z</time>
      </trkpt>
      <trkpt lat="46.9238" lon="8.58541">
        <ele>698</ele>
        <time>2021-08-10T11:33:15.025Z</time>
      </trkpt>
      <trkpt lat="46.9238" lon="8.58541">
        <ele>698</ele>
        <time>2021-08-10T11:33:16.026Z</time>
      </trkpt>
      <trkpt lat="46.92381" lon="8.58541">
        <ele>698</ele>
        <time>2021-08-10T11:33:17.025Z</time>
      </trkpt>
      <trkpt lat="46.92381" lon="8.5854">
        <ele>698</ele>
        <time>2021-08-10T11:33:21.062Z</time>
      </trkpt>
      <trkpt lat="46.92381" lon="8.5854">
        <ele>698</ele>
        <time>2021-08-10T11:33:22.061Z</time>
      </trkpt>
      <trkpt lat="46.92381" lon="8.58539">
        <ele>698</ele>
        <time>2021-08-10T11:33:23.061Z</time>
      </trkpt>
      <trkpt lat="46.92382" lon="8.5854">
        <ele>698</ele>
        <time>2021-08-10T11:33:25.167Z</time>
      </trkpt>
      <trkpt lat="46.92382" lon="8.5854">
        <ele>699</ele>
        <time>2021-08-10T11:33:26.167Z</time>
      </trkpt>
      <trkpt lat="46.92383" lon="8.58539">
        <ele>699</ele>
        <time>2021-08-10T11:33:27.166Z</time>
      </trkpt>
      <trkpt lat="46.92383" lon="8.58539">
        <ele>699</ele>
        <time>2021-08-10T11:33:28.166Z</time>
      </trkpt>
      <trkpt lat="46.92384" lon="8.58538">
        <ele>699</ele>
        <time>2021-08-10T11:33:29.167Z</time>
      </trkpt>
      <trkpt lat="46.92384" lon="8.58538">
        <ele>699</ele>
        <time>2021-08-10T11:33:30.167Z</time>
      </trkpt>
      <trkpt lat="46.92384" lon="8.58537">
        <ele>699</ele>
        <time>2021-08-10T11:33:34.305Z</time>
      </trkpt>
      <trkpt lat="46.92384" lon="8.58537">
        <ele>699</ele>
        <time>2021-08-10T11:33:35.306Z</time>
      </trkpt>
      <trkpt lat="46.92383" lon="8.58538">
        <ele>700</ele>
        <time>2021-08-10T11:33:36.305Z</time>
      </trkpt>
      <trkpt lat="46.92383" lon="8.58538">
        <ele>700</ele>
        <time>2021-08-10T11:33:40.401Z</time>
      </trkpt>
      <trkpt lat="46.92382" lon="8.58538">
        <ele>700</ele>
        <time>2021-08-10T11:33:41.401Z</time>
      </trkpt>
      <trkpt lat="46.92383" lon="8.58538">
        <ele>700</ele>
        <time>2021-08-10T11:33:42.401Z</time>
      </trkpt>
      <trkpt lat="46.92384" lon="8.5854">
        <ele>700</ele>
        <time>2021-08-10T11:33:43.401Z</time>
      </trkpt>
      <trkpt lat="46.92383" lon="8.58544">
        <ele>700</ele>
        <time>2021-08-10T11:33:44.401Z</time>
      </trkpt>
      <trkpt lat="46.92382" lon="8.58547">
        <ele>701</ele>
        <time>2021-08-10T11:33:45.401Z</time>
      </trkpt>
      <trkpt lat="46.92381" lon="8.58549">
        <ele>701</ele>
        <time>2021-08-10T11:33:46.401Z</time>
      </trkpt>
      <trkpt lat="46.92379" lon="8.5855">
        <ele>702</ele>
        <time>2021-08-10T11:33:47.401Z</time>
      </trkpt>
      <trkpt lat="46.92378" lon="8.58552">
        <ele>703</ele>
        <time>2021-08-10T11:33:48.402Z</time>
      </trkpt>
      <trkpt lat="46.92371" lon="8.58557">
        <ele>703</ele>
        <time>2021-08-10T11:33:52.401Z</time>
      </trkpt>
      <trkpt lat="46.92372" lon="8.58556">
        <ele>704</ele>
        <time>2021-08-10T11:33:53.401Z</time>
      </trkpt>
      <trkpt lat="46.92373" lon="8.58557">
        <ele>704</ele>
        <time>2021-08-10T11:33:54.401Z</time>
      </trkpt>
      <trkpt lat="46.92373" lon="8.58556">
        <ele>705</ele>
        <time>2021-08-10T11:33:55.402Z</time>
      </trkpt>
      <trkpt lat="46.92373" lon="8.58556">
        <ele>705</ele>
        <time>2021-08-10T11:33:56.402Z</time>
      </trkpt>
      <trkpt lat="46.92372" lon="8.58557">
        <ele>705</ele>
        <time>2021-08-10T11:33:57.402Z</time>
      </trkpt>
      <trkpt lat="46.92372" lon="8.58558">
        <ele>706</ele>
        <time>2021-08-10T11:33:58.401Z</time>
      </trkpt>
      <trkpt lat="46.92371" lon="8.58565">
        <ele>706</ele>
        <time>2021-08-10T11:33:59.402Z</time>
      </trkpt>
      <trkpt lat="46.92371" lon="8.58565">
        <ele>706</ele>
        <time>2021-08-10T11:34:00.402Z</time>
      </trkpt>
      <trkpt lat="46.9237" lon="8.58568">
        <ele>707</ele>
        <time>2021-08-10T11:34:01.402Z</time>
      </trkpt>
      <trkpt lat="46.9237" lon="8.5857">
        <ele>707</ele>
        <time>2021-08-10T11:34:02.402Z</time>
      </trkpt>
      <trkpt lat="46.9237" lon="8.58573">
        <ele>707</ele>
        <time>2021-08-10T11:34:03.402Z</time>
      </trkpt>
      <trkpt lat="46.9237" lon="8.58574">
        <ele>708</ele>
        <time>2021-08-10T11:34:04.402Z</time>
      </trkpt>
      <trkpt lat="46.9237" lon="8.58575">
        <ele>708</ele>
        <time>2021-08-10T11:34:05.401Z</time>
      </trkpt>
      <trkpt lat="46.9237" lon="8.58576">
        <ele>708</ele>
        <time>2021-08-10T11:34:06.402Z</time>
      </trkpt>
      <trkpt lat="46.92368" lon="8.58577">
        <ele>708</ele>
        <time>2021-08-10T11:34:07.402Z</time>
      </trkpt>
      <trkpt lat="46.92368" lon="8.58576">
        <ele>709</ele>
        <time>2021-08-10T11:34:08.402Z</time>
      </trkpt>
      <trkpt lat="46.92366" lon="8.58576">
        <ele>709</ele>
        <time>2021-08-10T11:34:09.402Z</time>
      </trkpt>
      <trkpt lat="46.92364" lon="8.58575">
        <ele>709</ele>
        <time>2021-08-10T11:34:10.402Z</time>
      </trkpt>
      <trkpt lat="46.92364" lon="8.58575">
        <ele>709</ele>
        <time>2021-08-10T11:34:11.401Z</time>
      </trkpt>
      <trkpt lat="46.92363" lon="8.58576">
        <ele>709</ele>
        <time>2021-08-10T11:34:12.402Z</time>
      </trkpt>
      <trkpt lat="46.92361" lon="8.5858">
        <ele>710</ele>
        <time>2021-08-10T11:34:50.402Z</time>
      </trkpt>
      <trkpt lat="46.92359" lon="8.5858">
        <ele>711</ele>
        <time>2021-08-10T11:34:51.402Z</time>
      </trkpt>
      <trkpt lat="46.92357" lon="8.58583">
        <ele>711</ele>
        <time>2021-08-10T11:34:52.402Z</time>
      </trkpt>
      <trkpt lat="46.92356" lon="8.58585">
        <ele>712</ele>
        <time>2021-08-10T11:34:53.401Z</time>
      </trkpt>
      <trkpt lat="46.92354" lon="8.58586">
        <ele>712</ele>
        <time>2021-08-10T11:34:54.401Z</time>
      </trkpt>
      <trkpt lat="46.92353" lon="8.58586">
        <ele>713</ele>
        <time>2021-08-10T11:34:55.402Z</time>
      </trkpt>
      <trkpt lat="46.92353" lon="8.58583">
        <ele>713</ele>
        <time>2021-08-10T11:34:56.401Z</time>
      </trkpt>
      <trkpt lat="46.92355" lon="8.58582">
        <ele>714</ele>
        <time>2021-08-10T11:34:57.401Z</time>
      </trkpt>
      <trkpt lat="46.92356" lon="8.58581">
        <ele>714</ele>
        <time>2021-08-10T11:34:58.402Z</time>
      </trkpt>
      <trkpt lat="46.92355" lon="8.58581">
        <ele>715</ele>
        <time>2021-08-10T11:34:59.401Z</time>
      </trkpt>
      <trkpt lat="46.92354" lon="8.58579">
        <ele>716</ele>
        <time>2021-08-10T11:35:02.496Z</time>
      </trkpt>
      <trkpt lat="46.92354" lon="8.58578">
        <ele>716</ele>
        <time>2021-08-10T11:35:03.496Z</time>
      </trkpt>
      <trkpt lat="46.92355" lon="8.58577">
        <ele>717</ele>
        <time>2021-08-10T11:35:04.497Z</time>
      </trkpt>
      <trkpt lat="46.92353" lon="8.58577">
        <ele>718</ele>
        <time>2021-08-10T11:35:05.497Z</time>
      </trkpt>
      <trkpt lat="46.92352" lon="8.58577">
        <ele>718</ele>
        <time>2021-08-10T11:35:06.497Z</time>
      </trkpt>
      <trkpt lat="46.92351" lon="8.58578">
        <ele>718</ele>
        <time>2021-08-10T11:35:07.497Z</time>
      </trkpt>
      <trkpt lat="46.92351" lon="8.58577">
        <ele>718</ele>
        <time>2021-08-10T11:35:08.497Z</time>
      </trkpt>
      <trkpt lat="46.92349" lon="8.58577">
        <ele>718</ele>
        <time>2021-08-10T11:35:09.498Z</time>
      </trkpt>
      <trkpt lat="46.92349" lon="8.58577">
        <ele>718</ele>
        <time>2021-08-10T11:35:10.498Z</time>
      </trkpt>
      <trkpt lat="46.92349" lon="8.58577">
        <ele>718</ele>
        <time>2021-08-10T11:35:11.498Z</time>
      </trkpt>
      <trkpt lat="46.92349" lon="8.58577">
        <ele>718</ele>
        <time>2021-08-10T11:35:12.498Z</time>
      </trkpt>
      <trkpt lat="46.92348" lon="8.58576">
        <ele>717</ele>
        <time>2021-08-10T11:35:13.497Z</time>
      </trkpt>
      <trkpt lat="46.92348" lon="8.58576">
        <ele>717</ele>
        <time>2021-08-10T11:35:14.497Z</time>
      </trkpt>
      <trkpt lat="46.92348" lon="8.58575">
        <ele>717</ele>
        <time>2021-08-10T11:35:15.497Z</time>
      </trkpt>
      <trkpt lat="46.92347" lon="8.58574">
        <ele>717</ele>
        <time>2021-08-10T11:35:16.498Z</time>
      </trkpt>
      <trkpt lat="46.92346" lon="8.58574">
        <ele>717</ele>
        <time>2021-08-10T11:35:17.497Z</time>
      </trkpt>
      <trkpt lat="46.92346" lon="8.58573">
        <ele>717</ele>
        <time>2021-08-10T11:35:18.498Z</time>
      </trkpt>
      <trkpt lat="46.92346" lon="8.58572">
        <ele>716</ele>
        <time>2021-08-10T11:35:19.498Z</time>
      </trkpt>
      <trkpt lat="46.92346" lon="8.58571">
        <ele>716</ele>
        <time>2021-08-10T11:35:20.497Z</time>
      </trkpt>
      <trkpt lat="46.92345" lon="8.58571">
        <ele>716</ele>
        <time>2021-08-10T11:35:21.498Z</time>
      </trkpt>
      <trkpt lat="46.92345" lon="8.58571">
        <ele>716</ele>
        <time>2021-08-10T11:35:22.498Z</time>
      </trkpt>
      <trkpt lat="46.92344" lon="8.5857">
        <ele>716</ele>
        <time>2021-08-10T11:35:23.498Z</time>
      </trkpt>
      <trkpt lat="46.92343" lon="8.5857">
        <ele>716</ele>
        <time>2021-08-10T11:35:24.498Z</time>
      </trkpt>
      <trkpt lat="46.92342" lon="8.58571">
        <ele>715</ele>
        <time>2021-08-10T11:35:25.498Z</time>
      </trkpt>
      <trkpt lat="46.92342" lon="8.5857">
        <ele>715</ele>
        <time>2021-08-10T11:35:26.497Z</time>
      </trkpt>
      <trkpt lat="46.92341" lon="8.58569">
        <ele>715</ele>
        <time>2021-08-10T11:35:27.497Z</time>
      </trkpt>
      <trkpt lat="46.9234" lon="8.58567">
        <ele>714</ele>
        <time>2021-08-10T11:35:28.497Z</time>
      </trkpt>
      <trkpt lat="46.92339" lon="8.58566">
        <ele>714</ele>
        <time>2021-08-10T11:35:29.498Z</time>
      </trkpt>
      <trkpt lat="46.92339" lon="8.58567">
        <ele>714</ele>
        <time>2021-08-10T11:35:30.498Z</time>
      </trkpt>
      <trkpt lat="46.92339" lon="8.58567">
        <ele>714</ele>
        <time>2021-08-10T11:35:31.498Z</time>
      </trkpt>
      <trkpt lat="46.92339" lon="8.58567">
        <ele>714</ele>
        <time>2021-08-10T11:35:32.498Z</time>
      </trkpt>
      <trkpt lat="46.92339" lon="8.58567">
        <ele>714</ele>
        <time>2021-08-10T11:35:33.498Z</time>
      </trkpt>
      <trkpt lat="46.9234" lon="8.58567">
        <ele>714</ele>
        <time>2021-08-10T11:35:34.498Z</time>
      </trkpt>
      <trkpt lat="46.92341" lon="8.58567">
        <ele>714</ele>
        <time>2021-08-10T11:35:35.497Z</time>
      </trkpt>
      <trkpt lat="46.92342" lon="8.58568">
        <ele>714</ele>
        <time>2021-08-10T11:35:36.498Z</time>
      </trkpt>
      <trkpt lat="46.92342" lon="8.58567">
        <ele>714</ele>
        <time>2021-08-10T11:35:37.497Z</time>
      </trkpt>
      <trkpt lat="46.92343" lon="8.58567">
        <ele>714</ele>
        <time>2021-08-10T11:35:38.497Z</time>
      </trkpt>
      <trkpt lat="46.92344" lon="8.58566">
        <ele>714</ele>
        <time>2021-08-10T11:35:39.498Z</time>
      </trkpt>
      <trkpt lat="46.92344" lon="8.58566">
        <ele>714</ele>
        <time>2021-08-10T11:35:40.498Z</time>
      </trkpt>
      <trkpt lat="46.92344" lon="8.58566">
        <ele>714</ele>
        <time>2021-08-10T11:35:41.498Z</time>
      </trkpt>
      <trkpt lat="46.92344" lon="8.58565">
        <ele>714</ele>
        <time>2021-08-10T11:35:47.517Z</time>
      </trkpt>
      <trkpt lat="46.92344" lon="8.58565">
        <ele>714</ele>
        <time>2021-08-10T11:35:48.517Z</time>
      </trkpt>
      <trkpt lat="46.92343" lon="8.58564">
        <ele>714</ele>
        <time>2021-08-10T11:35:49.517Z</time>
      </trkpt>
      <trkpt lat="46.92342" lon="8.58564">
        <ele>715</ele>
        <time>2021-08-10T11:35:50.517Z</time>
      </trkpt>
      <trkpt lat="46.92341" lon="8.58565">
        <ele>715</ele>
        <time>2021-08-10T11:35:55.660Z</time>
      </trkpt>
      <trkpt lat="46.9234" lon="8.58565">
        <ele>715</ele>
        <time>2021-08-10T11:35:56.659Z</time>
      </trkpt>
      <trkpt lat="46.92339" lon="8.58565">
        <ele>715</ele>
        <time>2021-08-10T11:36:02.557Z</time>
      </trkpt>
      <trkpt lat="46.92338" lon="8.58564">
        <ele>715</ele>
        <time>2021-08-10T11:36:03.557Z</time>
      </trkpt>
      <trkpt lat="46.92337" lon="8.58564">
        <ele>716</ele>
        <time>2021-08-10T11:36:21.393Z</time>
      </trkpt>
      <trkpt lat="46.92336" lon="8.58563">
        <ele>716</ele>
        <time>2021-08-10T11:36:22.393Z</time>
      </trkpt>
      <trkpt lat="46.92336" lon="8.58564">
        <ele>717</ele>
        <time>2021-08-10T11:36:28.291Z</time>
      </trkpt>
      <trkpt lat="46.92335" lon="8.58564">
        <ele>718</ele>
        <time>2021-08-10T11:36:29.290Z</time>
      </trkpt>
      <trkpt lat="46.92335" lon="8.58565">
        <ele>719</ele>
        <time>2021-08-10T11:36:30.291Z</time>
      </trkpt>
      <trkpt lat="46.92334" lon="8.58566">
        <ele>720</ele>
        <time>2021-08-10T11:36:31.290Z</time>
      </trkpt>
      <trkpt lat="46.92334" lon="8.58567">
        <ele>721</ele>
        <time>2021-08-10T11:36:32.291Z</time>
      </trkpt>
      <trkpt lat="46.92334" lon="8.58567">
        <ele>721</ele>
        <time>2021-08-10T11:36:33.291Z</time>
      </trkpt>
      <trkpt lat="46.92334" lon="8.58567">
        <ele>722</ele>
        <time>2021-08-10T11:36:39.396Z</time>
      </trkpt>
      <trkpt lat="46.92333" lon="8.58568">
        <ele>723</ele>
        <time>2021-08-10T11:36:40.396Z</time>
      </trkpt>
      <trkpt lat="46.92333" lon="8.58566">
        <ele>723</ele>
        <time>2021-08-10T11:36:41.395Z</time>
      </trkpt>
      <trkpt lat="46.92333" lon="8.58565">
        <ele>724</ele>
        <time>2021-08-10T11:36:42.395Z</time>
      </trkpt>
      <trkpt lat="46.92332" lon="8.58564">
        <ele>724</ele>
        <time>2021-08-10T11:36:59.502Z</time>
      </trkpt>
      <trkpt lat="46.92331" lon="8.58565">
        <ele>725</ele>
        <time>2021-08-10T11:37:00.502Z</time>
      </trkpt>
      <trkpt lat="46.92331" lon="8.58565">
        <ele>726</ele>
        <time>2021-08-10T11:37:02.275Z</time>
      </trkpt>
      <trkpt lat="46.92332" lon="8.58565">
        <ele>726</ele>
        <time>2021-08-10T11:37:03.276Z</time>
      </trkpt>
      <trkpt lat="46.92331" lon="8.58565">
        <ele>726</ele>
        <time>2021-08-10T11:37:04.276Z</time>
      </trkpt>
      <trkpt lat="46.92331" lon="8.58566">
        <ele>727</ele>
        <time>2021-08-10T11:37:23.379Z</time>
      </trkpt>
      <trkpt lat="46.9233" lon="8.58566">
        <ele>727</ele>
        <time>2021-08-10T11:37:24.380Z</time>
      </trkpt>
      <trkpt lat="46.9233" lon="8.58566">
        <ele>727</ele>
        <time>2021-08-10T11:37:25.380Z</time>
      </trkpt>
      <trkpt lat="46.92329" lon="8.58567">
        <ele>727</ele>
        <time>2021-08-10T11:37:26.380Z</time>
      </trkpt>
      <trkpt lat="46.92328" lon="8.58568">
        <ele>728</ele>
        <time>2021-08-10T11:37:27.380Z</time>
      </trkpt>
      <trkpt lat="46.92327" lon="8.58568">
        <ele>728</ele>
        <time>2021-08-10T11:37:28.380Z</time>
      </trkpt>
      <trkpt lat="46.92326" lon="8.58569">
        <ele>728</ele>
        <time>2021-08-10T11:37:29.380Z</time>
      </trkpt>
      <trkpt lat="46.92325" lon="8.58568">
        <ele>729</ele>
        <time>2021-08-10T11:37:43.535Z</time>
      </trkpt>
      <trkpt lat="46.92325" lon="8.58568">
        <ele>729</ele>
        <time>2021-08-10T11:37:44.535Z</time>
      </trkpt>
      <trkpt lat="46.92325" lon="8.58568">
        <ele>730</ele>
        <time>2021-08-10T11:37:45.536Z</time>
      </trkpt>
      <trkpt lat="46.92325" lon="8.58568">
        <ele>730</ele>
        <time>2021-08-10T11:37:50.672Z</time>
      </trkpt>
      <trkpt lat="46.92325" lon="8.58568">
        <ele>732</ele>
        <time>2021-08-10T11:38:07.513Z</time>
      </trkpt>
      <trkpt lat="46.92325" lon="8.58568">
        <ele>732</ele>
        <time>2021-08-10T11:38:08.513Z</time>
      </trkpt>
      <trkpt lat="46.92325" lon="8.58568">
        <ele>732</ele>
        <time>2021-08-10T11:38:09.513Z</time>
      </trkpt>
      <trkpt lat="46.92324" lon="8.58567">
        <ele>733</ele>
        <time>2021-08-10T11:38:10.512Z</time>
      </trkpt>
      <trkpt lat="46.92325" lon="8.58567">
        <ele>733</ele>
        <time>2021-08-10T11:38:11.513Z</time>
      </trkpt>
      <trkpt lat="46.92325" lon="8.58567">
        <ele>733</ele>
        <time>2021-08-10T11:38:15.661Z</time>
      </trkpt>
      <trkpt lat="46.92325" lon="8.58566">
        <ele>733</ele>
        <time>2021-08-10T11:38:16.661Z</time>
      </trkpt>
      <trkpt lat="46.92323" lon="8.58567">
        <ele>734</ele>
        <time>2021-08-10T11:38:29.412Z</time>
      </trkpt>
      <trkpt lat="46.92322" lon="8.58569">
        <ele>734</ele>
        <time>2021-08-10T11:38:30.413Z</time>
      </trkpt>
      <trkpt lat="46.92321" lon="8.5857">
        <ele>734</ele>
        <time>2021-08-10T11:38:31.413Z</time>
      </trkpt>
      <trkpt lat="46.92321" lon="8.5857">
        <ele>734</ele>
        <time>2021-08-10T11:38:32.413Z</time>
      </trkpt>
      <trkpt lat="46.92321" lon="8.5857">
        <ele>735</ele>
        <time>2021-08-10T11:38:33.413Z</time>
      </trkpt>
      <trkpt lat="46.9232" lon="8.58572">
        <ele>735</ele>
        <time>2021-08-10T11:38:34.413Z</time>
      </trkpt>
      <trkpt lat="46.92319" lon="8.58573">
        <ele>735</ele>
        <time>2021-08-10T11:38:35.413Z</time>
      </trkpt>
      <trkpt lat="46.92319" lon="8.58574">
        <ele>736</ele>
        <time>2021-08-10T11:38:57.557Z</time>
      </trkpt>
      <trkpt lat="46.92319" lon="8.58574">
        <ele>735</ele>
        <time>2021-08-10T11:38:59.396Z</time>
      </trkpt>
      <trkpt lat="46.92318" lon="8.58575">
        <ele>735</ele>
        <time>2021-08-10T11:39:00.396Z</time>
      </trkpt>
      <trkpt lat="46.92318" lon="8.58576">
        <ele>736</ele>
        <time>2021-08-10T11:39:01.397Z</time>
      </trkpt>
      <trkpt lat="46.92317" lon="8.58577">
        <ele>736</ele>
        <time>2021-08-10T11:39:02.397Z</time>
      </trkpt>
      <trkpt lat="46.92316" lon="8.58577">
        <ele>736</ele>
        <time>2021-08-10T11:39:03.396Z</time>
      </trkpt>
      <trkpt lat="46.92316" lon="8.58578">
        <ele>736</ele>
        <time>2021-08-10T11:39:04.397Z</time>
      </trkpt>
      <trkpt lat="46.92315" lon="8.58578">
        <ele>736</ele>
        <time>2021-08-10T11:39:05.396Z</time>
      </trkpt>
      <trkpt lat="46.92314" lon="8.58578">
        <ele>736</ele>
        <time>2021-08-10T11:39:06.396Z</time>
      </trkpt>
      <trkpt lat="46.92313" lon="8.58579">
        <ele>736</ele>
        <time>2021-08-10T11:39:07.396Z</time>
      </trkpt>
      <trkpt lat="46.92312" lon="8.58579">
        <ele>736</ele>
        <time>2021-08-10T11:39:18.517Z</time>
      </trkpt>
      <trkpt lat="46.92311" lon="8.58579">
        <ele>736</ele>
        <time>2021-08-10T11:39:21.363Z</time>
      </trkpt>
      <trkpt lat="46.92311" lon="8.58579">
        <ele>736</ele>
        <time>2021-08-10T11:39:22.362Z</time>
      </trkpt>
      <trkpt lat="46.9231" lon="8.58579">
        <ele>735</ele>
        <time>2021-08-10T11:39:23.362Z</time>
      </trkpt>
      <trkpt lat="46.92309" lon="8.58579">
        <ele>735</ele>
        <time>2021-08-10T11:39:36.556Z</time>
      </trkpt>
      <trkpt lat="46.92308" lon="8.5858">
        <ele>735</ele>
        <time>2021-08-10T11:39:37.556Z</time>
      </trkpt>
      <trkpt lat="46.92308" lon="8.5858">
        <ele>735</ele>
        <time>2021-08-10T11:39:38.555Z</time>
      </trkpt>
      <trkpt lat="46.92307" lon="8.5858">
        <ele>735</ele>
        <time>2021-08-10T11:39:39.555Z</time>
      </trkpt>
      <trkpt lat="46.92306" lon="8.58579">
        <ele>735</ele>
        <time>2021-08-10T11:39:40.555Z</time>
      </trkpt>
      <trkpt lat="46.92306" lon="8.58579">
        <ele>735</ele>
        <time>2021-08-10T11:39:41.555Z</time>
      </trkpt>
      <trkpt lat="46.92306" lon="8.58579">
        <ele>735</ele>
        <time>2021-08-10T11:39:42.555Z</time>
      </trkpt>
      <trkpt lat="46.92305" lon="8.58579">
        <ele>735</ele>
        <time>2021-08-10T11:39:43.555Z</time>
      </trkpt>
      <trkpt lat="46.92305" lon="8.5858">
        <ele>735</ele>
        <time>2021-08-10T11:39:44.556Z</time>
      </trkpt>
      <trkpt lat="46.92304" lon="8.58583">
        <ele>735</ele>
        <time>2021-08-10T11:39:45.556Z</time>
      </trkpt>
      <trkpt lat="46.92304" lon="8.58585">
        <ele>734</ele>
        <time>2021-08-10T11:39:46.555Z</time>
      </trkpt>
      <trkpt lat="46.92302" lon="8.58586">
        <ele>734</ele>
        <time>2021-08-10T11:39:52.656Z</time>
      </trkpt>
      <trkpt lat="46.92302" lon="8.58587">
        <ele>734</ele>
        <time>2021-08-10T11:39:53.656Z</time>
      </trkpt>
      <trkpt lat="46.92301" lon="8.58588">
        <ele>734</ele>
        <time>2021-08-10T11:39:54.656Z</time>
      </trkpt>
      <trkpt lat="46.923" lon="8.58589">
        <ele>734</ele>
        <time>2021-08-10T11:40:00.789Z</time>
      </trkpt>
      <trkpt lat="46.923" lon="8.58589">
        <ele>734</ele>
        <time>2021-08-10T11:40:01.788Z</time>
      </trkpt>
      <trkpt lat="46.92299" lon="8.58589">
        <ele>734</ele>
        <time>2021-08-10T11:40:02.789Z</time>
      </trkpt>
      <trkpt lat="46.92298" lon="8.58589">
        <ele>735</ele>
        <time>2021-08-10T11:40:03.788Z</time>
      </trkpt>
      <trkpt lat="46.92298" lon="8.5859">
        <ele>735</ele>
        <time>2021-08-10T11:40:08.916Z</time>
      </trkpt>
      <trkpt lat="46.92297" lon="8.58589">
        <ele>735</ele>
        <time>2021-08-10T11:40:09.917Z</time>
      </trkpt>
      <trkpt lat="46.92296" lon="8.5859">
        <ele>736</ele>
        <time>2021-08-10T11:40:10.917Z</time>
      </trkpt>
      <trkpt lat="46.92296" lon="8.5859">
        <ele>736</ele>
        <time>2021-08-10T11:40:11.916Z</time>
      </trkpt>
      <trkpt lat="46.92294" lon="8.58589">
        <ele>736</ele>
        <time>2021-08-10T11:40:12.916Z</time>
      </trkpt>
      <trkpt lat="46.92293" lon="8.58589">
        <ele>737</ele>
        <time>2021-08-10T11:40:13.917Z</time>
      </trkpt>
      <trkpt lat="46.92293" lon="8.58589">
        <ele>737</ele>
        <time>2021-08-10T11:40:14.916Z</time>
      </trkpt>
      <trkpt lat="46.92292" lon="8.5859">
        <ele>737</ele>
        <time>2021-08-10T11:40:15.916Z</time>
      </trkpt>
      <trkpt lat="46.92292" lon="8.5859">
        <ele>738</ele>
        <time>2021-08-10T11:40:16.917Z</time>
      </trkpt>
      <trkpt lat="46.92292" lon="8.58589">
        <ele>738</ele>
        <time>2021-08-10T11:40:17.916Z</time>
      </trkpt>
      <trkpt lat="46.92291" lon="8.58589">
        <ele>738</ele>
        <time>2021-08-10T11:40:18.917Z</time>
      </trkpt>
      <trkpt lat="46.92291" lon="8.58588">
        <ele>738</ele>
        <time>2021-08-10T11:40:19.916Z</time>
      </trkpt>
      <trkpt lat="46.92291" lon="8.58585">
        <ele>739</ele>
        <time>2021-08-10T11:40:20.917Z</time>
      </trkpt>
      <trkpt lat="46.92291" lon="8.58585">
        <ele>739</ele>
        <time>2021-08-10T11:40:21.917Z</time>
      </trkpt>
      <trkpt lat="46.9229" lon="8.58585">
        <ele>740</ele>
        <time>2021-08-10T11:40:22.916Z</time>
      </trkpt>
      <trkpt lat="46.92289" lon="8.58585">
        <ele>740</ele>
        <time>2021-08-10T11:40:23.916Z</time>
      </trkpt>
      <trkpt lat="46.92288" lon="8.58584">
        <ele>740</ele>
        <time>2021-08-10T11:40:24.916Z</time>
      </trkpt>
      <trkpt lat="46.92288" lon="8.58583">
        <ele>740</ele>
        <time>2021-08-10T11:40:25.916Z</time>
      </trkpt>
      <trkpt lat="46.92287" lon="8.58581">
        <ele>741</ele>
        <time>2021-08-10T11:40:26.916Z</time>
      </trkpt>
      <trkpt lat="46.92286" lon="8.58581">
        <ele>741</ele>
        <time>2021-08-10T11:40:27.916Z</time>
      </trkpt>
      <trkpt lat="46.92284" lon="8.58579">
        <ele>742</ele>
        <time>2021-08-10T11:40:28.917Z</time>
      </trkpt>
      <trkpt lat="46.92284" lon="8.58578">
        <ele>742</ele>
        <time>2021-08-10T11:40:29.916Z</time>
      </trkpt>
      <trkpt lat="46.92284" lon="8.58578">
        <ele>742</ele>
        <time>2021-08-10T11:40:30.916Z</time>
      </trkpt>
      <trkpt lat="46.92283" lon="8.58577">
        <ele>742</ele>
        <time>2021-08-10T11:40:31.916Z</time>
      </trkpt>
      <trkpt lat="46.92283" lon="8.58577">
        <ele>742</ele>
        <time>2021-08-10T11:40:32.916Z</time>
      </trkpt>
      <trkpt lat="46.92282" lon="8.58576">
        <ele>742</ele>
        <time>2021-08-10T11:40:33.916Z</time>
      </trkpt>
      <trkpt lat="46.92281" lon="8.58576">
        <ele>742</ele>
        <time>2021-08-10T11:40:34.916Z</time>
      </trkpt>
      <trkpt lat="46.92281" lon="8.58575">
        <ele>743</ele>
        <time>2021-08-10T11:40:35.916Z</time>
      </trkpt>
      <trkpt lat="46.9228" lon="8.58573">
        <ele>743</ele>
        <time>2021-08-10T11:40:36.916Z</time>
      </trkpt>
      <trkpt lat="46.92281" lon="8.58571">
        <ele>743</ele>
        <time>2021-08-10T11:40:44.891Z</time>
      </trkpt>
      <trkpt lat="46.92281" lon="8.58569">
        <ele>744</ele>
        <time>2021-08-10T11:40:45.890Z</time>
      </trkpt>
      <trkpt lat="46.92281" lon="8.58567">
        <ele>744</ele>
        <time>2021-08-10T11:40:46.890Z</time>
      </trkpt>
      <trkpt lat="46.9228" lon="8.58566">
        <ele>744</ele>
        <time>2021-08-10T11:40:47.890Z</time>
      </trkpt>
      <trkpt lat="46.92278" lon="8.58566">
        <ele>744</ele>
        <time>2021-08-10T11:40:48.890Z</time>
      </trkpt>
      <trkpt lat="46.92278" lon="8.58566">
        <ele>744</ele>
        <time>2021-08-10T11:40:49.891Z</time>
      </trkpt>
      <trkpt lat="46.92277" lon="8.58566">
        <ele>744</ele>
        <time>2021-08-10T11:40:50.890Z</time>
      </trkpt>
      <trkpt lat="46.92277" lon="8.58566">
        <ele>745</ele>
        <time>2021-08-10T11:40:51.891Z</time>
      </trkpt>
      <trkpt lat="46.92277" lon="8.58565">
        <ele>745</ele>
        <time>2021-08-10T11:40:52.890Z</time>
      </trkpt>
      <trkpt lat="46.92276" lon="8.58565">
        <ele>745</ele>
        <time>2021-08-10T11:40:59.038Z</time>
      </trkpt>
      <trkpt lat="46.92277" lon="8.58565">
        <ele>745</ele>
        <time>2021-08-10T11:41:00.039Z</time>
      </trkpt>
      <trkpt lat="46.92277" lon="8.58564">
        <ele>745</ele>
        <time>2021-08-10T11:41:01.039Z</time>
      </trkpt>
      <trkpt lat="46.92276" lon="8.58564">
        <ele>744</ele>
        <time>2021-08-10T11:41:02.038Z</time>
      </trkpt>
      <trkpt lat="46.92276" lon="8.58563">
        <ele>744</ele>
        <time>2021-08-10T11:41:03.038Z</time>
      </trkpt>
      <trkpt lat="46.92276" lon="8.58562">
        <ele>744</ele>
        <time>2021-08-10T11:41:04.038Z</time>
      </trkpt>
      <trkpt lat="46.92275" lon="8.58561">
        <ele>744</ele>
        <time>2021-08-10T11:41:05.038Z</time>
      </trkpt>
      <trkpt lat="46.92275" lon="8.58561">
        <ele>744</ele>
        <time>2021-08-10T11:41:06.039Z</time>
      </trkpt>
      <trkpt lat="46.92274" lon="8.58561">
        <ele>744</ele>
        <time>2021-08-10T11:41:07.039Z</time>
      </trkpt>
      <trkpt lat="46.92274" lon="8.58561">
        <ele>744</ele>
        <time>2021-08-10T11:41:08.038Z</time>
      </trkpt>
      <trkpt lat="46.92275" lon="8.5856">
        <ele>744</ele>
        <time>2021-08-10T11:41:09.038Z</time>
      </trkpt>
      <trkpt lat="46.92275" lon="8.5856">
        <ele>744</ele>
        <time>2021-08-10T11:41:10.038Z</time>
      </trkpt>
      <trkpt lat="46.92273" lon="8.58561">
        <ele>737</ele>
        <time>2021-08-10T11:41:11.039Z</time>
      </trkpt>
      <trkpt lat="46.92272" lon="8.58562">
        <ele>737</ele>
        <time>2021-08-10T11:41:12.038Z</time>
      </trkpt>
      <trkpt lat="46.92271" lon="8.58561">
        <ele>736</ele>
        <time>2021-08-10T11:41:13.038Z</time>
      </trkpt>
      <trkpt lat="46.92271" lon="8.58562">
        <ele>736</ele>
        <time>2021-08-10T11:41:14.038Z</time>
      </trkpt>
      <trkpt lat="46.92271" lon="8.58562">
        <ele>735</ele>
        <time>2021-08-10T11:41:15.039Z</time>
      </trkpt>
      <trkpt lat="46.92271" lon="8.58564">
        <ele>734</ele>
        <time>2021-08-10T11:41:16.040Z</time>
      </trkpt>
      <trkpt lat="46.92271" lon="8.58564">
        <ele>733</ele>
        <time>2021-08-10T11:41:17.039Z</time>
      </trkpt>
      <trkpt lat="46.92273" lon="8.58553">
        <ele>721</ele>
        <time>2021-08-10T11:41:18.041Z</time>
      </trkpt>
      <trkpt lat="46.92273" lon="8.58553">
        <ele>721</ele>
        <time>2021-08-10T11:41:19.040Z</time>
      </trkpt>
      <trkpt lat="46.92272" lon="8.58553">
        <ele>721</ele>
        <time>2021-08-10T11:41:20.041Z</time>
      </trkpt>
      <trkpt lat="46.92271" lon="8.58554">
        <ele>720</ele>
        <time>2021-08-10T11:41:21.041Z</time>
      </trkpt>
      <trkpt lat="46.92271" lon="8.58555">
        <ele>720</ele>
        <time>2021-08-10T11:41:22.041Z</time>
      </trkpt>
      <trkpt lat="46.92269" lon="8.58554">
        <ele>720</ele>
        <time>2021-08-10T11:41:23.041Z</time>
      </trkpt>
      <trkpt lat="46.92269" lon="8.58553">
        <ele>720</ele>
        <time>2021-08-10T11:41:24.040Z</time>
      </trkpt>
      <trkpt lat="46.92269" lon="8.58552">
        <ele>720</ele>
        <time>2021-08-10T11:41:25.040Z</time>
      </trkpt>
      <trkpt lat="46.92268" lon="8.5855">
        <ele>720</ele>
        <time>2021-08-10T11:41:26.040Z</time>
      </trkpt>
      <trkpt lat="46.9227" lon="8.58548">
        <ele>714</ele>
        <time>2021-08-10T11:41:27.040Z</time>
      </trkpt>
      <trkpt lat="46.92271" lon="8.58548">
        <ele>714</ele>
        <time>2021-08-10T11:41:28.041Z</time>
      </trkpt>
      <trkpt lat="46.92271" lon="8.58547">
        <ele>713</ele>
        <time>2021-08-10T11:41:29.040Z</time>
      </trkpt>
      <trkpt lat="46.92271" lon="8.58547">
        <ele>712</ele>
        <time>2021-08-10T11:42:04.153Z</time>
      </trkpt>
      <trkpt lat="46.92271" lon="8.58545">
        <ele>711</ele>
        <time>2021-08-10T11:42:05.153Z</time>
      </trkpt>
      <trkpt lat="46.92271" lon="8.58545">
        <ele>711</ele>
        <time>2021-08-10T11:42:06.153Z</time>
      </trkpt>
      <trkpt lat="46.92271" lon="8.58548">
        <ele>714</ele>
        <time>2021-08-10T11:42:07.154Z</time>
      </trkpt>
      <trkpt lat="46.92271" lon="8.58548">
        <ele>715</ele>
        <time>2021-08-10T11:42:08.153Z</time>
      </trkpt>
      <trkpt lat="46.92271" lon="8.58548">
        <ele>715</ele>
        <time>2021-08-10T11:42:09.153Z</time>
      </trkpt>
      <trkpt lat="46.9227" lon="8.58548">
        <ele>717</ele>
        <time>2021-08-10T11:42:10.155Z</time>
      </trkpt>
      <trkpt lat="46.92268" lon="8.5855">
        <ele>717</ele>
        <time>2021-08-10T11:42:11.155Z</time>
      </trkpt>
      <trkpt lat="46.92268" lon="8.58552">
        <ele>718</ele>
        <time>2021-08-10T11:42:12.154Z</time>
      </trkpt>
      <trkpt lat="46.92267" lon="8.58553">
        <ele>718</ele>
        <time>2021-08-10T11:42:13.155Z</time>
      </trkpt>
      <trkpt lat="46.92267" lon="8.58554">
        <ele>718</ele>
        <time>2021-08-10T11:42:14.155Z</time>
      </trkpt>
      <trkpt lat="46.92267" lon="8.58555">
        <ele>719</ele>
        <time>2021-08-10T11:42:15.155Z</time>
      </trkpt>
      <trkpt lat="46.92266" lon="8.58557">
        <ele>719</ele>
        <time>2021-08-10T11:42:16.155Z</time>
      </trkpt>
      <trkpt lat="46.92265" lon="8.58558">
        <ele>719</ele>
        <time>2021-08-10T11:42:17.155Z</time>
      </trkpt>
      <trkpt lat="46.92264" lon="8.58559">
        <ele>720</ele>
        <time>2021-08-10T11:42:18.155Z</time>
      </trkpt>
      <trkpt lat="46.92263" lon="8.5856">
        <ele>720</ele>
        <time>2021-08-10T11:42:19.154Z</time>
      </trkpt>
      <trkpt lat="46.92263" lon="8.58562">
        <ele>720</ele>
        <time>2021-08-10T11:42:20.155Z</time>
      </trkpt>
      <trkpt lat="46.92263" lon="8.58563">
        <ele>721</ele>
        <time>2021-08-10T11:42:21.155Z</time>
      </trkpt>
      <trkpt lat="46.92262" lon="8.58564">
        <ele>721</ele>
        <time>2021-08-10T11:42:22.155Z</time>
      </trkpt>
      <trkpt lat="46.92261" lon="8.58565">
        <ele>721</ele>
        <time>2021-08-10T11:42:23.154Z</time>
      </trkpt>
      <trkpt lat="46.92261" lon="8.58567">
        <ele>721</ele>
        <time>2021-08-10T11:42:24.155Z</time>
      </trkpt>
      <trkpt lat="46.92261" lon="8.58569">
        <ele>721</ele>
        <time>2021-08-10T11:42:25.154Z</time>
      </trkpt>
      <trkpt lat="46.9226" lon="8.5857">
        <ele>722</ele>
        <time>2021-08-10T11:42:26.154Z</time>
      </trkpt>
      <trkpt lat="46.92259" lon="8.58572">
        <ele>722</ele>
        <time>2021-08-10T11:42:27.155Z</time>
      </trkpt>
      <trkpt lat="46.92258" lon="8.58574">
        <ele>722</ele>
        <time>2021-08-10T11:42:28.154Z</time>
      </trkpt>
      <trkpt lat="46.92257" lon="8.58575">
        <ele>722</ele>
        <time>2021-08-10T11:42:29.155Z</time>
      </trkpt>
      <trkpt lat="46.92256" lon="8.58577">
        <ele>722</ele>
        <time>2021-08-10T11:42:30.155Z</time>
      </trkpt>
      <trkpt lat="46.92255" lon="8.58578">
        <ele>722</ele>
        <time>2021-08-10T11:42:31.155Z</time>
      </trkpt>
      <trkpt lat="46.92254" lon="8.58579">
        <ele>723</ele>
        <time>2021-08-10T11:42:32.155Z</time>
      </trkpt>
      <trkpt lat="46.92253" lon="8.58581">
        <ele>723</ele>
        <time>2021-08-10T11:42:33.155Z</time>
      </trkpt>
      <trkpt lat="46.92251" lon="8.58581">
        <ele>723</ele>
        <time>2021-08-10T11:42:34.155Z</time>
      </trkpt>
      <trkpt lat="46.92249" lon="8.58581">
        <ele>723</ele>
        <time>2021-08-10T11:42:35.154Z</time>
      </trkpt>
      <trkpt lat="46.92249" lon="8.58581">
        <ele>723</ele>
        <time>2021-08-10T11:42:36.155Z</time>
      </trkpt>
      <trkpt lat="46.92248" lon="8.58582">
        <ele>724</ele>
        <time>2021-08-10T11:42:37.154Z</time>
      </trkpt>
      <trkpt lat="46.92247" lon="8.58584">
        <ele>724</ele>
        <time>2021-08-10T11:42:38.154Z</time>
      </trkpt>
      <trkpt lat="46.92246" lon="8.58586">
        <ele>724</ele>
        <time>2021-08-10T11:42:39.155Z</time>
      </trkpt>
      <trkpt lat="46.92244" lon="8.58588">
        <ele>725</ele>
        <time>2021-08-10T11:42:40.155Z</time>
      </trkpt>
      <trkpt lat="46.92244" lon="8.58588">
        <ele>725</ele>
        <time>2021-08-10T11:42:41.154Z</time>
      </trkpt>
      <trkpt lat="46.92243" lon="8.58589">
        <ele>725</ele>
        <time>2021-08-10T11:42:42.154Z</time>
      </trkpt>
      <trkpt lat="46.92242" lon="8.58592">
        <ele>726</ele>
        <time>2021-08-10T11:42:43.156Z</time>
      </trkpt>
      <trkpt lat="46.92242" lon="8.58593">
        <ele>726</ele>
        <time>2021-08-10T11:42:44.156Z</time>
      </trkpt>
      <trkpt lat="46.92241" lon="8.58593">
        <ele>726</ele>
        <time>2021-08-10T11:42:45.155Z</time>
      </trkpt>
      <trkpt lat="46.92241" lon="8.58593">
        <ele>726</ele>
        <time>2021-08-10T11:42:46.155Z</time>
      </trkpt>
      <trkpt lat="46.9224" lon="8.58594">
        <ele>726</ele>
        <time>2021-08-10T11:42:47.155Z</time>
      </trkpt>
      <trkpt lat="46.9224" lon="8.58594">
        <ele>727</ele>
        <time>2021-08-10T11:42:48.156Z</time>
      </trkpt>
      <trkpt lat="46.92239" lon="8.58594">
        <ele>727</ele>
        <time>2021-08-10T11:42:49.156Z</time>
      </trkpt>
      <trkpt lat="46.92238" lon="8.58594">
        <ele>727</ele>
        <time>2021-08-10T11:42:50.155Z</time>
      </trkpt>
      <trkpt lat="46.92238" lon="8.58594">
        <ele>727</ele>
        <time>2021-08-10T11:42:51.156Z</time>
      </trkpt>
      <trkpt lat="46.92237" lon="8.58593">
        <ele>728</ele>
        <time>2021-08-10T11:42:52.156Z</time>
      </trkpt>
      <trkpt lat="46.92236" lon="8.58592">
        <ele>728</ele>
        <time>2021-08-10T11:42:53.156Z</time>
      </trkpt>
      <trkpt lat="46.92234" lon="8.58591">
        <ele>728</ele>
        <time>2021-08-10T11:42:54.156Z</time>
      </trkpt>
      <trkpt lat="46.92233" lon="8.5859">
        <ele>728</ele>
        <time>2021-08-10T11:42:55.156Z</time>
      </trkpt>
      <trkpt lat="46.92232" lon="8.5859">
        <ele>729</ele>
        <time>2021-08-10T11:42:56.155Z</time>
      </trkpt>
      <trkpt lat="46.92231" lon="8.5859">
        <ele>729</ele>
        <time>2021-08-10T11:42:57.155Z</time>
      </trkpt>
      <trkpt lat="46.9223" lon="8.5859">
        <ele>729</ele>
        <time>2021-08-10T11:42:58.155Z</time>
      </trkpt>
      <trkpt lat="46.9223" lon="8.5859">
        <ele>729</ele>
        <time>2021-08-10T11:42:59.155Z</time>
      </trkpt>
      <trkpt lat="46.92229" lon="8.5859">
        <ele>729</ele>
        <time>2021-08-10T11:43:00.156Z</time>
      </trkpt>
      <trkpt lat="46.92228" lon="8.5859">
        <ele>729</ele>
        <time>2021-08-10T11:43:01.156Z</time>
      </trkpt>
      <trkpt lat="46.92228" lon="8.5859">
        <ele>729</ele>
        <time>2021-08-10T11:43:02.156Z</time>
      </trkpt>
      <trkpt lat="46.92227" lon="8.5859">
        <ele>729</ele>
        <time>2021-08-10T11:43:03.156Z</time>
      </trkpt>
      <trkpt lat="46.92227" lon="8.5859">
        <ele>729</ele>
        <time>2021-08-10T11:43:04.156Z</time>
      </trkpt>
      <trkpt lat="46.92226" lon="8.5859">
        <ele>729</ele>
        <time>2021-08-10T11:43:05.155Z</time>
      </trkpt>
      <trkpt lat="46.92226" lon="8.5859">
        <ele>729</ele>
        <time>2021-08-10T11:43:06.155Z</time>
      </trkpt>
      <trkpt lat="46.92226" lon="8.58589">
        <ele>729</ele>
        <time>2021-08-10T11:43:07.156Z</time>
      </trkpt>
      <trkpt lat="46.92225" lon="8.58589">
        <ele>729</ele>
        <time>2021-08-10T11:43:38.257Z</time>
      </trkpt>
      <trkpt lat="46.92224" lon="8.58589">
        <ele>729</ele>
        <time>2021-08-10T11:43:39.257Z</time>
      </trkpt>
      <trkpt lat="46.92223" lon="8.5859">
        <ele>729</ele>
        <time>2021-08-10T11:43:45.145Z</time>
      </trkpt>
      <trkpt lat="46.92222" lon="8.58591">
        <ele>729</ele>
        <time>2021-08-10T11:43:46.144Z</time>
      </trkpt>
      <trkpt lat="46.92221" lon="8.58591">
        <ele>729</ele>
        <time>2021-08-10T11:43:47.145Z</time>
      </trkpt>
      <trkpt lat="46.92221" lon="8.58591">
        <ele>728</ele>
        <time>2021-08-10T11:44:20.290Z</time>
      </trkpt>
      <trkpt lat="46.9222" lon="8.58591">
        <ele>728</ele>
        <time>2021-08-10T11:44:21.290Z</time>
      </trkpt>
      <trkpt lat="46.9222" lon="8.5859">
        <ele>728</ele>
        <time>2021-08-10T11:44:22.290Z</time>
      </trkpt>
      <trkpt lat="46.92219" lon="8.5859">
        <ele>728</ele>
        <time>2021-08-10T11:44:23.290Z</time>
      </trkpt>
      <trkpt lat="46.92219" lon="8.58589">
        <ele>728</ele>
        <time>2021-08-10T11:44:24.290Z</time>
      </trkpt>
      <trkpt lat="46.92218" lon="8.58588">
        <ele>727</ele>
        <time>2021-08-10T11:44:25.289Z</time>
      </trkpt>
      <trkpt lat="46.92217" lon="8.58588">
        <ele>727</ele>
        <time>2021-08-10T11:44:26.289Z</time>
      </trkpt>
      <trkpt lat="46.92217" lon="8.58588">
        <ele>727</ele>
        <time>2021-08-10T11:44:27.290Z</time>
      </trkpt>
      <trkpt lat="46.92216" lon="8.58588">
        <ele>727</ele>
        <time>2021-08-10T11:44:35.404Z</time>
      </trkpt>
      <trkpt lat="46.92215" lon="8.58589">
        <ele>727</ele>
        <time>2021-08-10T11:44:36.404Z</time>
      </trkpt>
      <trkpt lat="46.92214" lon="8.5859">
        <ele>727</ele>
        <time>2021-08-10T11:44:37.403Z</time>
      </trkpt>
      <trkpt lat="46.92214" lon="8.58591">
        <ele>727</ele>
        <time>2021-08-10T11:44:51.417Z</time>
      </trkpt>
      <trkpt lat="46.92213" lon="8.58592">
        <ele>727</ele>
        <time>2021-08-10T11:44:52.417Z</time>
      </trkpt>
      <trkpt lat="46.92213" lon="8.58592">
        <ele>728</ele>
        <time>2021-08-10T11:44:53.417Z</time>
      </trkpt>
      <trkpt lat="46.92212" lon="8.58592">
        <ele>728</ele>
        <time>2021-08-10T11:44:54.417Z</time>
      </trkpt>
      <trkpt lat="46.92212" lon="8.58593">
        <ele>728</ele>
        <time>2021-08-10T11:44:55.416Z</time>
      </trkpt>
      <trkpt lat="46.92211" lon="8.58594">
        <ele>728</ele>
        <time>2021-08-10T11:44:56.417Z</time>
      </trkpt>
      <trkpt lat="46.9221" lon="8.58595">
        <ele>729</ele>
        <time>2021-08-10T11:44:57.416Z</time>
      </trkpt>
      <trkpt lat="46.92209" lon="8.58595">
        <ele>729</ele>
        <time>2021-08-10T11:44:58.417Z</time>
      </trkpt>
      <trkpt lat="46.92208" lon="8.58595">
        <ele>729</ele>
        <time>2021-08-10T11:44:59.416Z</time>
      </trkpt>
      <trkpt lat="46.92208" lon="8.58595">
        <ele>730</ele>
        <time>2021-08-10T11:45:00.417Z</time>
      </trkpt>
      <trkpt lat="46.92207" lon="8.58595">
        <ele>730</ele>
        <time>2021-08-10T11:45:01.417Z</time>
      </trkpt>
      <trkpt lat="46.92207" lon="8.58594">
        <ele>731</ele>
        <time>2021-08-10T11:45:02.417Z</time>
      </trkpt>
      <trkpt lat="46.92207" lon="8.58594">
        <ele>731</ele>
        <time>2021-08-10T11:45:03.417Z</time>
      </trkpt>
      <trkpt lat="46.92207" lon="8.58594">
        <ele>731</ele>
        <time>2021-08-10T11:45:04.417Z</time>
      </trkpt>
      <trkpt lat="46.92206" lon="8.58594">
        <ele>731</ele>
        <time>2021-08-10T11:45:05.417Z</time>
      </trkpt>
      <trkpt lat="46.92205" lon="8.58594">
        <ele>731</ele>
        <time>2021-08-10T11:45:06.417Z</time>
      </trkpt>
      <trkpt lat="46.92204" lon="8.58593">
        <ele>732</ele>
        <time>2021-08-10T11:45:07.417Z</time>
      </trkpt>
      <trkpt lat="46.92204" lon="8.58592">
        <ele>732</ele>
        <time>2021-08-10T11:45:08.417Z</time>
      </trkpt>
      <trkpt lat="46.92203" lon="8.58592">
        <ele>732</ele>
        <time>2021-08-10T11:45:09.417Z</time>
      </trkpt>
      <trkpt lat="46.92203" lon="8.58591">
        <ele>732</ele>
        <time>2021-08-10T11:45:10.417Z</time>
      </trkpt>
      <trkpt lat="46.92203" lon="8.5859">
        <ele>732</ele>
        <time>2021-08-10T11:45:11.417Z</time>
      </trkpt>
      <trkpt lat="46.92202" lon="8.58588">
        <ele>732</ele>
        <time>2021-08-10T11:45:12.417Z</time>
      </trkpt>
      <trkpt lat="46.92201" lon="8.58588">
        <ele>732</ele>
        <time>2021-08-10T11:45:13.417Z</time>
      </trkpt>
      <trkpt lat="46.922" lon="8.58588">
        <ele>733</ele>
        <time>2021-08-10T11:45:14.417Z</time>
      </trkpt>
      <trkpt lat="46.92199" lon="8.58589">
        <ele>733</ele>
        <time>2021-08-10T11:45:15.417Z</time>
      </trkpt>
      <trkpt lat="46.92198" lon="8.58589">
        <ele>733</ele>
        <time>2021-08-10T11:45:16.417Z</time>
      </trkpt>
      <trkpt lat="46.92198" lon="8.58589">
        <ele>734</ele>
        <time>2021-08-10T11:45:17.416Z</time>
      </trkpt>
      <trkpt lat="46.92197" lon="8.58588">
        <ele>734</ele>
        <time>2021-08-10T11:45:18.416Z</time>
      </trkpt>
      <trkpt lat="46.92197" lon="8.58587">
        <ele>735</ele>
        <time>2021-08-10T11:45:19.417Z</time>
      </trkpt>
      <trkpt lat="46.92197" lon="8.58588">
        <ele>735</ele>
        <time>2021-08-10T11:45:20.417Z</time>
      </trkpt>
      <trkpt lat="46.92197" lon="8.58588">
        <ele>735</ele>
        <time>2021-08-10T11:45:21.417Z</time>
      </trkpt>
      <trkpt lat="46.92195" lon="8.58588">
        <ele>735</ele>
        <time>2021-08-10T11:45:22.417Z</time>
      </trkpt>
      <trkpt lat="46.92194" lon="8.58589">
        <ele>736</ele>
        <time>2021-08-10T11:45:23.416Z</time>
      </trkpt>
      <trkpt lat="46.92193" lon="8.58589">
        <ele>736</ele>
        <time>2021-08-10T11:45:24.417Z</time>
      </trkpt>
      <trkpt lat="46.92193" lon="8.58589">
        <ele>736</ele>
        <time>2021-08-10T11:45:25.416Z</time>
      </trkpt>
      <trkpt lat="46.92192" lon="8.58589">
        <ele>736</ele>
        <time>2021-08-10T11:45:26.417Z</time>
      </trkpt>
      <trkpt lat="46.92193" lon="8.5859">
        <ele>736</ele>
        <time>2021-08-10T11:45:27.416Z</time>
      </trkpt>
      <trkpt lat="46.92193" lon="8.5859">
        <ele>736</ele>
        <time>2021-08-10T11:45:28.417Z</time>
      </trkpt>
      <trkpt lat="46.92193" lon="8.58593">
        <ele>738</ele>
        <time>2021-08-10T11:45:29.416Z</time>
      </trkpt>
      <trkpt lat="46.92193" lon="8.58592">
        <ele>738</ele>
        <time>2021-08-10T11:45:30.416Z</time>
      </trkpt>
      <trkpt lat="46.92193" lon="8.58592">
        <ele>739</ele>
        <time>2021-08-10T11:45:31.417Z</time>
      </trkpt>
      <trkpt lat="46.92192" lon="8.58592">
        <ele>739</ele>
        <time>2021-08-10T11:45:32.417Z</time>
      </trkpt>
      <trkpt lat="46.92192" lon="8.58592">
        <ele>739</ele>
        <time>2021-08-10T11:45:33.417Z</time>
      </trkpt>
      <trkpt lat="46.92191" lon="8.58591">
        <ele>739</ele>
        <time>2021-08-10T11:45:34.417Z</time>
      </trkpt>
      <trkpt lat="46.92189" lon="8.5859">
        <ele>740</ele>
        <time>2021-08-10T11:45:35.417Z</time>
      </trkpt>
      <trkpt lat="46.92188" lon="8.5859">
        <ele>740</ele>
        <time>2021-08-10T11:45:36.417Z</time>
      </trkpt>
      <trkpt lat="46.92188" lon="8.58589">
        <ele>740</ele>
        <time>2021-08-10T11:45:37.417Z</time>
      </trkpt>
      <trkpt lat="46.92187" lon="8.58589">
        <ele>740</ele>
        <time>2021-08-10T11:45:38.417Z</time>
      </trkpt>
      <trkpt lat="46.92187" lon="8.58588">
        <ele>740</ele>
        <time>2021-08-10T11:45:39.417Z</time>
      </trkpt>
      <trkpt lat="46.92187" lon="8.58588">
        <ele>740</ele>
        <time>2021-08-10T11:45:40.416Z</time>
      </trkpt>
      <trkpt lat="46.92187" lon="8.58589">
        <ele>740</ele>
        <time>2021-08-10T11:45:41.416Z</time>
      </trkpt>
      <trkpt lat="46.92186" lon="8.5859">
        <ele>741</ele>
        <time>2021-08-10T11:45:42.417Z</time>
      </trkpt>
      <trkpt lat="46.92186" lon="8.5859">
        <ele>741</ele>
        <time>2021-08-10T11:45:43.417Z</time>
      </trkpt>
      <trkpt lat="46.92185" lon="8.58591">
        <ele>741</ele>
        <time>2021-08-10T11:45:44.416Z</time>
      </trkpt>
      <trkpt lat="46.92183" lon="8.58591">
        <ele>741</ele>
        <time>2021-08-10T11:45:45.416Z</time>
      </trkpt>
      <trkpt lat="46.92182" lon="8.58592">
        <ele>741</ele>
        <time>2021-08-10T11:45:46.416Z</time>
      </trkpt>
      <trkpt lat="46.92181" lon="8.58592">
        <ele>741</ele>
        <time>2021-08-10T11:45:47.416Z</time>
      </trkpt>
      <trkpt lat="46.92181" lon="8.58592">
        <ele>741</ele>
        <time>2021-08-10T11:45:48.417Z</time>
      </trkpt>
      <trkpt lat="46.9218" lon="8.58593">
        <ele>741</ele>
        <time>2021-08-10T11:45:49.417Z</time>
      </trkpt>
      <trkpt lat="46.92179" lon="8.58594">
        <ele>742</ele>
        <time>2021-08-10T11:45:50.417Z</time>
      </trkpt>
      <trkpt lat="46.92178" lon="8.58595">
        <ele>742</ele>
        <time>2021-08-10T11:45:51.417Z</time>
      </trkpt>
      <trkpt lat="46.92177" lon="8.58595">
        <ele>742</ele>
        <time>2021-08-10T11:45:52.416Z</time>
      </trkpt>
      <trkpt lat="46.92176" lon="8.58595">
        <ele>742</ele>
        <time>2021-08-10T11:45:53.416Z</time>
      </trkpt>
      <trkpt lat="46.92174" lon="8.58597">
        <ele>742</ele>
        <time>2021-08-10T11:45:54.417Z</time>
      </trkpt>
      <trkpt lat="46.92174" lon="8.58599">
        <ele>742</ele>
        <time>2021-08-10T11:45:55.416Z</time>
      </trkpt>
      <trkpt lat="46.92174" lon="8.58599">
        <ele>742</ele>
        <time>2021-08-10T11:45:56.417Z</time>
      </trkpt>
      <trkpt lat="46.92174" lon="8.586">
        <ele>743</ele>
        <time>2021-08-10T11:45:57.417Z</time>
      </trkpt>
      <trkpt lat="46.92173" lon="8.586">
        <ele>743</ele>
        <time>2021-08-10T11:45:58.417Z</time>
      </trkpt>
      <trkpt lat="46.92172" lon="8.58602">
        <ele>743</ele>
        <time>2021-08-10T11:45:59.417Z</time>
      </trkpt>
      <trkpt lat="46.92172" lon="8.58604">
        <ele>743</ele>
        <time>2021-08-10T11:46:00.417Z</time>
      </trkpt>
      <trkpt lat="46.9217" lon="8.58606">
        <ele>744</ele>
        <time>2021-08-10T11:46:01.416Z</time>
      </trkpt>
      <trkpt lat="46.92167" lon="8.58608">
        <ele>744</ele>
        <time>2021-08-10T11:46:02.417Z</time>
      </trkpt>
      <trkpt lat="46.92165" lon="8.58609">
        <ele>744</ele>
        <time>2021-08-10T11:46:03.417Z</time>
      </trkpt>
      <trkpt lat="46.92163" lon="8.58608">
        <ele>744</ele>
        <time>2021-08-10T11:46:04.416Z</time>
      </trkpt>
      <trkpt lat="46.9216" lon="8.58608">
        <ele>744</ele>
        <time>2021-08-10T11:46:05.417Z</time>
      </trkpt>
      <trkpt lat="46.92159" lon="8.58607">
        <ele>745</ele>
        <time>2021-08-10T11:46:06.416Z</time>
      </trkpt>
      <trkpt lat="46.92159" lon="8.58607">
        <ele>745</ele>
        <time>2021-08-10T11:46:07.417Z</time>
      </trkpt>
      <trkpt lat="46.92159" lon="8.58606">
        <ele>745</ele>
        <time>2021-08-10T11:46:08.417Z</time>
      </trkpt>
      <trkpt lat="46.92159" lon="8.58606">
        <ele>745</ele>
        <time>2021-08-10T11:46:09.417Z</time>
      </trkpt>
      <trkpt lat="46.92158" lon="8.58606">
        <ele>745</ele>
        <time>2021-08-10T11:46:10.417Z</time>
      </trkpt>
      <trkpt lat="46.92158" lon="8.58606">
        <ele>746</ele>
        <time>2021-08-10T11:46:11.416Z</time>
      </trkpt>
      <trkpt lat="46.92157" lon="8.58606">
        <ele>746</ele>
        <time>2021-08-10T11:46:12.416Z</time>
      </trkpt>
      <trkpt lat="46.92158" lon="8.58605">
        <ele>747</ele>
        <time>2021-08-10T11:46:13.417Z</time>
      </trkpt>
      <trkpt lat="46.92158" lon="8.58604">
        <ele>748</ele>
        <time>2021-08-10T11:46:14.416Z</time>
      </trkpt>
      <trkpt lat="46.92159" lon="8.58603">
        <ele>749</ele>
        <time>2021-08-10T11:46:15.416Z</time>
      </trkpt>
      <trkpt lat="46.92158" lon="8.58603">
        <ele>750</ele>
        <time>2021-08-10T11:46:16.416Z</time>
      </trkpt>
      <trkpt lat="46.92158" lon="8.58603">
        <ele>750</ele>
        <time>2021-08-10T11:46:17.416Z</time>
      </trkpt>
      <trkpt lat="46.92159" lon="8.58601">
        <ele>753</ele>
        <time>2021-08-10T11:46:18.417Z</time>
      </trkpt>
      <trkpt lat="46.92158" lon="8.58601">
        <ele>754</ele>
        <time>2021-08-10T11:46:19.417Z</time>
      </trkpt>
      <trkpt lat="46.92158" lon="8.586">
        <ele>754</ele>
        <time>2021-08-10T11:46:20.417Z</time>
      </trkpt>
      <trkpt lat="46.92158" lon="8.586">
        <ele>754</ele>
        <time>2021-08-10T11:46:21.417Z</time>
      </trkpt>
      <trkpt lat="46.92158" lon="8.58599">
        <ele>755</ele>
        <time>2021-08-10T11:46:22.417Z</time>
      </trkpt>
      <trkpt lat="46.92159" lon="8.58597">
        <ele>756</ele>
        <time>2021-08-10T11:46:23.417Z</time>
      </trkpt>
      <trkpt lat="46.92159" lon="8.58596">
        <ele>756</ele>
        <time>2021-08-10T11:46:24.417Z</time>
      </trkpt>
      <trkpt lat="46.92159" lon="8.58596">
        <ele>756</ele>
        <time>2021-08-10T11:46:25.417Z</time>
      </trkpt>
      <trkpt lat="46.92158" lon="8.58597">
        <ele>757</ele>
        <time>2021-08-10T11:46:26.418Z</time>
      </trkpt>
      <trkpt lat="46.92158" lon="8.58597">
        <ele>757</ele>
        <time>2021-08-10T11:46:27.417Z</time>
      </trkpt>
      <trkpt lat="46.92158" lon="8.58596">
        <ele>758</ele>
        <time>2021-08-10T11:46:28.417Z</time>
      </trkpt>
      <trkpt lat="46.92159" lon="8.58596">
        <ele>758</ele>
        <time>2021-08-10T11:46:29.417Z</time>
      </trkpt>
      <trkpt lat="46.92159" lon="8.58596">
        <ele>759</ele>
        <time>2021-08-10T11:46:30.417Z</time>
      </trkpt>
      <trkpt lat="46.92161" lon="8.58597">
        <ele>760</ele>
        <time>2021-08-10T11:46:31.417Z</time>
      </trkpt>
      <trkpt lat="46.92162" lon="8.58597">
        <ele>760</ele>
        <time>2021-08-10T11:46:32.417Z</time>
      </trkpt>
      <trkpt lat="46.9216" lon="8.58603">
        <ele>762</ele>
        <time>2021-08-10T11:46:33.417Z</time>
      </trkpt>
      <trkpt lat="46.92159" lon="8.58604">
        <ele>763</ele>
        <time>2021-08-10T11:46:34.417Z</time>
      </trkpt>
      <trkpt lat="46.92158" lon="8.58605">
        <ele>763</ele>
        <time>2021-08-10T11:46:35.418Z</time>
      </trkpt>
      <trkpt lat="46.92158" lon="8.58605">
        <ele>763</ele>
        <time>2021-08-10T11:46:36.418Z</time>
      </trkpt>
      <trkpt lat="46.92157" lon="8.58605">
        <ele>763</ele>
        <time>2021-08-10T11:46:37.418Z</time>
      </trkpt>
      <trkpt lat="46.92156" lon="8.58605">
        <ele>763</ele>
        <time>2021-08-10T11:46:38.417Z</time>
      </trkpt>
      <trkpt lat="46.92156" lon="8.58606">
        <ele>763</ele>
        <time>2021-08-10T11:46:39.417Z</time>
      </trkpt>
      <trkpt lat="46.92156" lon="8.58606">
        <ele>763</ele>
        <time>2021-08-10T11:46:40.417Z</time>
      </trkpt>
      <trkpt lat="46.92155" lon="8.58606">
        <ele>764</ele>
        <time>2021-08-10T11:46:41.417Z</time>
      </trkpt>
      <trkpt lat="46.92154" lon="8.58606">
        <ele>764</ele>
        <time>2021-08-10T11:46:42.417Z</time>
      </trkpt>
      <trkpt lat="46.92153" lon="8.58607">
        <ele>764</ele>
        <time>2021-08-10T11:46:43.417Z</time>
      </trkpt>
      <trkpt lat="46.92152" lon="8.58608">
        <ele>764</ele>
        <time>2021-08-10T11:46:44.418Z</time>
      </trkpt>
      <trkpt lat="46.92151" lon="8.58609">
        <ele>764</ele>
        <time>2021-08-10T11:46:45.417Z</time>
      </trkpt>
      <trkpt lat="46.9215" lon="8.58609">
        <ele>764</ele>
        <time>2021-08-10T11:46:46.417Z</time>
      </trkpt>
      <trkpt lat="46.92149" lon="8.5861">
        <ele>764</ele>
        <time>2021-08-10T11:46:47.418Z</time>
      </trkpt>
      <trkpt lat="46.92149" lon="8.5861">
        <ele>764</ele>
        <time>2021-08-10T11:46:48.417Z</time>
      </trkpt>
      <trkpt lat="46.92148" lon="8.5861">
        <ele>765</ele>
        <time>2021-08-10T11:46:49.418Z</time>
      </trkpt>
      <trkpt lat="46.92147" lon="8.5861">
        <ele>765</ele>
        <time>2021-08-10T11:46:50.418Z</time>
      </trkpt>
      <trkpt lat="46.92146" lon="8.58612">
        <ele>765</ele>
        <time>2021-08-10T11:46:51.417Z</time>
      </trkpt>
      <trkpt lat="46.92145" lon="8.58614">
        <ele>765</ele>
        <time>2021-08-10T11:46:52.418Z</time>
      </trkpt>
      <trkpt lat="46.92145" lon="8.58616">
        <ele>765</ele>
        <time>2021-08-10T11:46:53.417Z</time>
      </trkpt>
      <trkpt lat="46.92145" lon="8.58617">
        <ele>765</ele>
        <time>2021-08-10T11:46:54.417Z</time>
      </trkpt>
      <trkpt lat="46.92145" lon="8.58618">
        <ele>765</ele>
        <time>2021-08-10T11:46:55.417Z</time>
      </trkpt>
      <trkpt lat="46.92145" lon="8.58619">
        <ele>765</ele>
        <time>2021-08-10T11:46:56.417Z</time>
      </trkpt>
      <trkpt lat="46.92144" lon="8.58621">
        <ele>765</ele>
        <time>2021-08-10T11:46:57.418Z</time>
      </trkpt>
      <trkpt lat="46.92143" lon="8.58623">
        <ele>766</ele>
        <time>2021-08-10T11:46:58.417Z</time>
      </trkpt>
      <trkpt lat="46.92142" lon="8.58624">
        <ele>766</ele>
        <time>2021-08-10T11:46:59.417Z</time>
      </trkpt>
      <trkpt lat="46.92142" lon="8.58624">
        <ele>766</ele>
        <time>2021-08-10T11:47:00.417Z</time>
      </trkpt>
      <trkpt lat="46.92142" lon="8.58623">
        <ele>766</ele>
        <time>2021-08-10T11:47:01.417Z</time>
      </trkpt>
      <trkpt lat="46.92141" lon="8.58623">
        <ele>766</ele>
        <time>2021-08-10T11:47:02.417Z</time>
      </trkpt>
      <trkpt lat="46.9214" lon="8.58622">
        <ele>766</ele>
        <time>2021-08-10T11:47:03.417Z</time>
      </trkpt>
      <trkpt lat="46.92139" lon="8.58622">
        <ele>767</ele>
        <time>2021-08-10T11:47:04.417Z</time>
      </trkpt>
      <trkpt lat="46.92138" lon="8.58621">
        <ele>767</ele>
        <time>2021-08-10T11:47:05.417Z</time>
      </trkpt>
      <trkpt lat="46.92134" lon="8.58624">
        <ele>767</ele>
        <time>2021-08-10T11:47:06.417Z</time>
      </trkpt>
      <trkpt lat="46.92133" lon="8.58625">
        <ele>767</ele>
        <time>2021-08-10T11:47:07.417Z</time>
      </trkpt>
      <trkpt lat="46.92132" lon="8.58626">
        <ele>767</ele>
        <time>2021-08-10T11:47:08.418Z</time>
      </trkpt>
      <trkpt lat="46.92131" lon="8.58627">
        <ele>767</ele>
        <time>2021-08-10T11:47:09.417Z</time>
      </trkpt>
      <trkpt lat="46.9213" lon="8.58628">
        <ele>767</ele>
        <time>2021-08-10T11:47:10.417Z</time>
      </trkpt>
      <trkpt lat="46.92129" lon="8.58629">
        <ele>767</ele>
        <time>2021-08-10T11:47:11.417Z</time>
      </trkpt>
      <trkpt lat="46.92128" lon="8.58629">
        <ele>767</ele>
        <time>2021-08-10T11:47:12.417Z</time>
      </trkpt>
      <trkpt lat="46.92126" lon="8.58629">
        <ele>767</ele>
        <time>2021-08-10T11:47:13.417Z</time>
      </trkpt>
      <trkpt lat="46.92125" lon="8.58629">
        <ele>766</ele>
        <time>2021-08-10T11:47:14.417Z</time>
      </trkpt>
      <trkpt lat="46.92124" lon="8.58628">
        <ele>766</ele>
        <time>2021-08-10T11:47:15.418Z</time>
      </trkpt>
      <trkpt lat="46.92124" lon="8.58627">
        <ele>766</ele>
        <time>2021-08-10T11:47:16.417Z</time>
      </trkpt>
      <trkpt lat="46.92123" lon="8.58627">
        <ele>766</ele>
        <time>2021-08-10T11:47:17.417Z</time>
      </trkpt>
      <trkpt lat="46.92123" lon="8.58627">
        <ele>766</ele>
        <time>2021-08-10T11:47:18.417Z</time>
      </trkpt>
      <trkpt lat="46.92122" lon="8.58627">
        <ele>766</ele>
        <time>2021-08-10T11:47:19.418Z</time>
      </trkpt>
      <trkpt lat="46.92122" lon="8.58626">
        <ele>766</ele>
        <time>2021-08-10T11:47:20.417Z</time>
      </trkpt>
      <trkpt lat="46.92121" lon="8.58626">
        <ele>766</ele>
        <time>2021-08-10T11:47:21.417Z</time>
      </trkpt>
      <trkpt lat="46.9212" lon="8.58626">
        <ele>766</ele>
        <time>2021-08-10T11:47:22.418Z</time>
      </trkpt>
      <trkpt lat="46.92119" lon="8.58626">
        <ele>766</ele>
        <time>2021-08-10T11:47:23.417Z</time>
      </trkpt>
      <trkpt lat="46.92119" lon="8.58626">
        <ele>766</ele>
        <time>2021-08-10T11:47:24.418Z</time>
      </trkpt>
      <trkpt lat="46.92118" lon="8.58626">
        <ele>765</ele>
        <time>2021-08-10T11:47:25.417Z</time>
      </trkpt>
      <trkpt lat="46.92118" lon="8.58627">
        <ele>765</ele>
        <time>2021-08-10T11:47:26.417Z</time>
      </trkpt>
      <trkpt lat="46.92117" lon="8.58627">
        <ele>765</ele>
        <time>2021-08-10T11:47:27.417Z</time>
      </trkpt>
      <trkpt lat="46.92116" lon="8.58627">
        <ele>765</ele>
        <time>2021-08-10T11:47:28.418Z</time>
      </trkpt>
      <trkpt lat="46.92115" lon="8.58627">
        <ele>765</ele>
        <time>2021-08-10T11:47:29.418Z</time>
      </trkpt>
      <trkpt lat="46.92114" lon="8.58627">
        <ele>765</ele>
        <time>2021-08-10T11:47:30.417Z</time>
      </trkpt>
      <trkpt lat="46.92113" lon="8.58627">
        <ele>764</ele>
        <time>2021-08-10T11:47:31.418Z</time>
      </trkpt>
      <trkpt lat="46.92112" lon="8.58627">
        <ele>764</ele>
        <time>2021-08-10T11:47:32.417Z</time>
      </trkpt>
      <trkpt lat="46.92112" lon="8.58626">
        <ele>764</ele>
        <time>2021-08-10T11:47:33.418Z</time>
      </trkpt>
      <trkpt lat="46.92112" lon="8.58625">
        <ele>764</ele>
        <time>2021-08-10T11:47:34.418Z</time>
      </trkpt>
      <trkpt lat="46.92111" lon="8.58624">
        <ele>764</ele>
        <time>2021-08-10T11:47:35.417Z</time>
      </trkpt>
      <trkpt lat="46.92111" lon="8.58624">
        <ele>764</ele>
        <time>2021-08-10T11:47:36.417Z</time>
      </trkpt>
      <trkpt lat="46.9211" lon="8.58624">
        <ele>763</ele>
        <time>2021-08-10T11:47:37.417Z</time>
      </trkpt>
      <trkpt lat="46.9211" lon="8.58625">
        <ele>763</ele>
        <time>2021-08-10T11:47:38.417Z</time>
      </trkpt>
      <trkpt lat="46.9211" lon="8.58626">
        <ele>763</ele>
        <time>2021-08-10T11:47:39.417Z</time>
      </trkpt>
      <trkpt lat="46.92109" lon="8.58626">
        <ele>763</ele>
        <time>2021-08-10T11:47:40.418Z</time>
      </trkpt>
      <trkpt lat="46.92108" lon="8.58625">
        <ele>763</ele>
        <time>2021-08-10T11:47:41.417Z</time>
      </trkpt>
      <trkpt lat="46.92107" lon="8.58625">
        <ele>763</ele>
        <time>2021-08-10T11:47:42.417Z</time>
      </trkpt>
      <trkpt lat="46.92106" lon="8.58625">
        <ele>762</ele>
        <time>2021-08-10T11:47:43.417Z</time>
      </trkpt>
      <trkpt lat="46.92106" lon="8.58625">
        <ele>762</ele>
        <time>2021-08-10T11:47:44.418Z</time>
      </trkpt>
      <trkpt lat="46.92105" lon="8.58626">
        <ele>762</ele>
        <time>2021-08-10T11:47:45.417Z</time>
      </trkpt>
      <trkpt lat="46.92104" lon="8.58626">
        <ele>761</ele>
        <time>2021-08-10T11:47:46.417Z</time>
      </trkpt>
      <trkpt lat="46.92104" lon="8.58626">
        <ele>761</ele>
        <time>2021-08-10T11:47:47.417Z</time>
      </trkpt>
      <trkpt lat="46.92103" lon="8.58627">
        <ele>761</ele>
        <time>2021-08-10T11:47:48.418Z</time>
      </trkpt>
      <trkpt lat="46.92102" lon="8.58628">
        <ele>761</ele>
        <time>2021-08-10T11:47:49.418Z</time>
      </trkpt>
      <trkpt lat="46.92102" lon="8.58628">
        <ele>761</ele>
        <time>2021-08-10T11:47:50.417Z</time>
      </trkpt>
      <trkpt lat="46.92102" lon="8.58628">
        <ele>761</ele>
        <time>2021-08-10T11:47:51.417Z</time>
      </trkpt>
      <trkpt lat="46.92101" lon="8.58628">
        <ele>761</ele>
        <time>2021-08-10T11:47:52.417Z</time>
      </trkpt>
      <trkpt lat="46.921" lon="8.58627">
        <ele>761</ele>
        <time>2021-08-10T11:47:53.418Z</time>
      </trkpt>
      <trkpt lat="46.92099" lon="8.58625">
        <ele>761</ele>
        <time>2021-08-10T11:47:54.417Z</time>
      </trkpt>
      <trkpt lat="46.92099" lon="8.58624">
        <ele>761</ele>
        <time>2021-08-10T11:47:55.417Z</time>
      </trkpt>
      <trkpt lat="46.92099" lon="8.58623">
        <ele>762</ele>
        <time>2021-08-10T11:47:56.417Z</time>
      </trkpt>
      <trkpt lat="46.92098" lon="8.58622">
        <ele>762</ele>
        <time>2021-08-10T11:47:57.417Z</time>
      </trkpt>
      <trkpt lat="46.92098" lon="8.58621">
        <ele>762</ele>
        <time>2021-08-10T11:47:58.417Z</time>
      </trkpt>
      <trkpt lat="46.92097" lon="8.58621">
        <ele>762</ele>
        <time>2021-08-10T11:47:59.417Z</time>
      </trkpt>
      <trkpt lat="46.92096" lon="8.58622">
        <ele>762</ele>
        <time>2021-08-10T11:48:00.417Z</time>
      </trkpt>
      <trkpt lat="46.92095" lon="8.58623">
        <ele>762</ele>
        <time>2021-08-10T11:48:01.418Z</time>
      </trkpt>
      <trkpt lat="46.92095" lon="8.58623">
        <ele>762</ele>
        <time>2021-08-10T11:48:02.417Z</time>
      </trkpt>
      <trkpt lat="46.92094" lon="8.58623">
        <ele>763</ele>
        <time>2021-08-10T11:48:03.417Z</time>
      </trkpt>
      <trkpt lat="46.92093" lon="8.58623">
        <ele>763</ele>
        <time>2021-08-10T11:48:04.417Z</time>
      </trkpt>
      <trkpt lat="46.92093" lon="8.58624">
        <ele>763</ele>
        <time>2021-08-10T11:48:05.417Z</time>
      </trkpt>
      <trkpt lat="46.92092" lon="8.58624">
        <ele>763</ele>
        <time>2021-08-10T11:48:06.417Z</time>
      </trkpt>
      <trkpt lat="46.92091" lon="8.58625">
        <ele>764</ele>
        <time>2021-08-10T11:48:07.417Z</time>
      </trkpt>
      <trkpt lat="46.92091" lon="8.58625">
        <ele>764</ele>
        <time>2021-08-10T11:48:08.418Z</time>
      </trkpt>
      <trkpt lat="46.92091" lon="8.58624">
        <ele>764</ele>
        <time>2021-08-10T11:48:09.417Z</time>
      </trkpt>
      <trkpt lat="46.9209" lon="8.58624">
        <ele>765</ele>
        <time>2021-08-10T11:48:10.417Z</time>
      </trkpt>
      <trkpt lat="46.9209" lon="8.58623">
        <ele>765</ele>
        <time>2021-08-10T11:48:11.417Z</time>
      </trkpt>
      <trkpt lat="46.9209" lon="8.58622">
        <ele>765</ele>
        <time>2021-08-10T11:48:12.418Z</time>
      </trkpt>
      <trkpt lat="46.92089" lon="8.58621">
        <ele>765</ele>
        <time>2021-08-10T11:48:13.418Z</time>
      </trkpt>
      <trkpt lat="46.92089" lon="8.5862">
        <ele>766</ele>
        <time>2021-08-10T11:48:14.418Z</time>
      </trkpt>
      <trkpt lat="46.92088" lon="8.58621">
        <ele>766</ele>
        <time>2021-08-10T11:48:15.418Z</time>
      </trkpt>
      <trkpt lat="46.92088" lon="8.58621">
        <ele>766</ele>
        <time>2021-08-10T11:48:16.418Z</time>
      </trkpt>
      <trkpt lat="46.92087" lon="8.58621">
        <ele>766</ele>
        <time>2021-08-10T11:48:17.417Z</time>
      </trkpt>
      <trkpt lat="46.92087" lon="8.58621">
        <ele>766</ele>
        <time>2021-08-10T11:48:18.418Z</time>
      </trkpt>
      <trkpt lat="46.92087" lon="8.5862">
        <ele>766</ele>
        <time>2021-08-10T11:48:19.418Z</time>
      </trkpt>
      <trkpt lat="46.92087" lon="8.58619">
        <ele>766</ele>
        <time>2021-08-10T11:48:20.418Z</time>
      </trkpt>
      <trkpt lat="46.92086" lon="8.58618">
        <ele>766</ele>
        <time>2021-08-10T11:48:21.418Z</time>
      </trkpt>
      <trkpt lat="46.92086" lon="8.58617">
        <ele>766</ele>
        <time>2021-08-10T11:48:22.418Z</time>
      </trkpt>
      <trkpt lat="46.92086" lon="8.58617">
        <ele>766</ele>
        <time>2021-08-10T11:48:23.418Z</time>
      </trkpt>
      <trkpt lat="46.92086" lon="8.58617">
        <ele>766</ele>
        <time>2021-08-10T11:48:24.418Z</time>
      </trkpt>
      <trkpt lat="46.92085" lon="8.58617">
        <ele>767</ele>
        <time>2021-08-10T11:48:25.418Z</time>
      </trkpt>
      <trkpt lat="46.92085" lon="8.58616">
        <ele>767</ele>
        <time>2021-08-10T11:48:26.417Z</time>
      </trkpt>
      <trkpt lat="46.92085" lon="8.58615">
        <ele>767</ele>
        <time>2021-08-10T11:48:27.418Z</time>
      </trkpt>
      <trkpt lat="46.92084" lon="8.58615">
        <ele>767</ele>
        <time>2021-08-10T11:48:28.418Z</time>
      </trkpt>
      <trkpt lat="46.92083" lon="8.58614">
        <ele>768</ele>
        <time>2021-08-10T11:48:29.419Z</time>
      </trkpt>
      <trkpt lat="46.92083" lon="8.58613">
        <ele>768</ele>
        <time>2021-08-10T11:48:30.418Z</time>
      </trkpt>
      <trkpt lat="46.92082" lon="8.58612">
        <ele>768</ele>
        <time>2021-08-10T11:48:31.418Z</time>
      </trkpt>
      <trkpt lat="46.92076" lon="8.58613">
        <ele>769</ele>
        <time>2021-08-10T11:48:32.419Z</time>
      </trkpt>
      <trkpt lat="46.92075" lon="8.58613">
        <ele>769</ele>
        <time>2021-08-10T11:48:33.418Z</time>
      </trkpt>
      <trkpt lat="46.92074" lon="8.58614">
        <ele>769</ele>
        <time>2021-08-10T11:48:34.419Z</time>
      </trkpt>
      <trkpt lat="46.92073" lon="8.58614">
        <ele>769</ele>
        <time>2021-08-10T11:48:35.418Z</time>
      </trkpt>
      <trkpt lat="46.92073" lon="8.58614">
        <ele>769</ele>
        <time>2021-08-10T11:48:36.418Z</time>
      </trkpt>
      <trkpt lat="46.92073" lon="8.58613">
        <ele>770</ele>
        <time>2021-08-10T11:48:37.418Z</time>
      </trkpt>
      <trkpt lat="46.92072" lon="8.58614">
        <ele>770</ele>
        <time>2021-08-10T11:48:38.418Z</time>
      </trkpt>
      <trkpt lat="46.92071" lon="8.58613">
        <ele>770</ele>
        <time>2021-08-10T11:48:39.418Z</time>
      </trkpt>
      <trkpt lat="46.92069" lon="8.58613">
        <ele>771</ele>
        <time>2021-08-10T11:48:40.418Z</time>
      </trkpt>
      <trkpt lat="46.92068" lon="8.58614">
        <ele>771</ele>
        <time>2021-08-10T11:48:41.418Z</time>
      </trkpt>
      <trkpt lat="46.92067" lon="8.58614">
        <ele>771</ele>
        <time>2021-08-10T11:48:42.418Z</time>
      </trkpt>
      <trkpt lat="46.92067" lon="8.58614">
        <ele>771</ele>
        <time>2021-08-10T11:48:43.418Z</time>
      </trkpt>
      <trkpt lat="46.92067" lon="8.58613">
        <ele>771</ele>
        <time>2021-08-10T11:48:44.418Z</time>
      </trkpt>
      <trkpt lat="46.92067" lon="8.58613">
        <ele>771</ele>
        <time>2021-08-10T11:48:45.418Z</time>
      </trkpt>
      <trkpt lat="46.92067" lon="8.58612">
        <ele>771</ele>
        <time>2021-08-10T11:48:46.419Z</time>
      </trkpt>
      <trkpt lat="46.92067" lon="8.5861">
        <ele>771</ele>
        <time>2021-08-10T11:48:47.418Z</time>
      </trkpt>
      <trkpt lat="46.92067" lon="8.58608">
        <ele>771</ele>
        <time>2021-08-10T11:48:48.419Z</time>
      </trkpt>
      <trkpt lat="46.92067" lon="8.58607">
        <ele>771</ele>
        <time>2021-08-10T11:48:51.510Z</time>
      </trkpt>
      <trkpt lat="46.92067" lon="8.58606">
        <ele>771</ele>
        <time>2021-08-10T11:48:52.511Z</time>
      </trkpt>
      <trkpt lat="46.92066" lon="8.58605">
        <ele>771</ele>
        <time>2021-08-10T11:48:53.511Z</time>
      </trkpt>
      <trkpt lat="46.92066" lon="8.58605">
        <ele>770</ele>
        <time>2021-08-10T11:48:56.652Z</time>
      </trkpt>
      <trkpt lat="46.92065" lon="8.58605">
        <ele>770</ele>
        <time>2021-08-10T11:48:57.652Z</time>
      </trkpt>
      <trkpt lat="46.92065" lon="8.58605">
        <ele>770</ele>
        <time>2021-08-10T11:48:58.652Z</time>
      </trkpt>
      <trkpt lat="46.92065" lon="8.58604">
        <ele>770</ele>
        <time>2021-08-10T11:48:59.652Z</time>
      </trkpt>
      <trkpt lat="46.92065" lon="8.58603">
        <ele>770</ele>
        <time>2021-08-10T11:49:00.653Z</time>
      </trkpt>
      <trkpt lat="46.92065" lon="8.58603">
        <ele>770</ele>
        <time>2021-08-10T11:49:01.652Z</time>
      </trkpt>
      <trkpt lat="46.92064" lon="8.58603">
        <ele>770</ele>
        <time>2021-08-10T11:49:02.652Z</time>
      </trkpt>
      <trkpt lat="46.92063" lon="8.58603">
        <ele>771</ele>
        <time>2021-08-10T11:49:03.652Z</time>
      </trkpt>
      <trkpt lat="46.92062" lon="8.58603">
        <ele>771</ele>
        <time>2021-08-10T11:49:04.652Z</time>
      </trkpt>
      <trkpt lat="46.92061" lon="8.58604">
        <ele>771</ele>
        <time>2021-08-10T11:49:05.653Z</time>
      </trkpt>
      <trkpt lat="46.9206" lon="8.58604">
        <ele>771</ele>
        <time>2021-08-10T11:49:06.652Z</time>
      </trkpt>
      <trkpt lat="46.92059" lon="8.58605">
        <ele>771</ele>
        <time>2021-08-10T11:49:07.652Z</time>
      </trkpt>
      <trkpt lat="46.92058" lon="8.58604">
        <ele>772</ele>
        <time>2021-08-10T11:49:08.652Z</time>
      </trkpt>
      <trkpt lat="46.92058" lon="8.58604">
        <ele>772</ele>
        <time>2021-08-10T11:49:09.652Z</time>
      </trkpt>
      <trkpt lat="46.92057" lon="8.58605">
        <ele>772</ele>
        <time>2021-08-10T11:49:10.652Z</time>
      </trkpt>
      <trkpt lat="46.92058" lon="8.58605">
        <ele>772</ele>
        <time>2021-08-10T11:49:11.652Z</time>
      </trkpt>
      <trkpt lat="46.92058" lon="8.58604">
        <ele>773</ele>
        <time>2021-08-10T11:49:12.652Z</time>
      </trkpt>
      <trkpt lat="46.92058" lon="8.58603">
        <ele>773</ele>
        <time>2021-08-10T11:49:13.652Z</time>
      </trkpt>
      <trkpt lat="46.92058" lon="8.58602">
        <ele>773</ele>
        <time>2021-08-10T11:49:14.652Z</time>
      </trkpt>
      <trkpt lat="46.92057" lon="8.58602">
        <ele>773</ele>
        <time>2021-08-10T11:49:15.653Z</time>
      </trkpt>
      <trkpt lat="46.92056" lon="8.58603">
        <ele>774</ele>
        <time>2021-08-10T11:49:16.653Z</time>
      </trkpt>
      <trkpt lat="46.92056" lon="8.58604">
        <ele>774</ele>
        <time>2021-08-10T11:49:17.653Z</time>
      </trkpt>
      <trkpt lat="46.92055" lon="8.58605">
        <ele>774</ele>
        <time>2021-08-10T11:49:18.652Z</time>
      </trkpt>
      <trkpt lat="46.92055" lon="8.58604">
        <ele>774</ele>
        <time>2021-08-10T11:49:19.653Z</time>
      </trkpt>
      <trkpt lat="46.92054" lon="8.58604">
        <ele>775</ele>
        <time>2021-08-10T11:49:20.652Z</time>
      </trkpt>
      <trkpt lat="46.92054" lon="8.58603">
        <ele>775</ele>
        <time>2021-08-10T11:49:21.652Z</time>
      </trkpt>
      <trkpt lat="46.92054" lon="8.58603">
        <ele>775</ele>
        <time>2021-08-10T11:49:22.652Z</time>
      </trkpt>
      <trkpt lat="46.92054" lon="8.58603">
        <ele>775</ele>
        <time>2021-08-10T11:49:23.652Z</time>
      </trkpt>
      <trkpt lat="46.92054" lon="8.58602">
        <ele>775</ele>
        <time>2021-08-10T11:49:24.652Z</time>
      </trkpt>
      <trkpt lat="46.92054" lon="8.58603">
        <ele>775</ele>
        <time>2021-08-10T11:49:25.652Z</time>
      </trkpt>
      <trkpt lat="46.92054" lon="8.58602">
        <ele>775</ele>
        <time>2021-08-10T11:49:26.652Z</time>
      </trkpt>
      <trkpt lat="46.92054" lon="8.58603">
        <ele>776</ele>
        <time>2021-08-10T11:49:27.652Z</time>
      </trkpt>
      <trkpt lat="46.92053" lon="8.58604">
        <ele>776</ele>
        <time>2021-08-10T11:49:28.652Z</time>
      </trkpt>
      <trkpt lat="46.92052" lon="8.58605">
        <ele>776</ele>
        <time>2021-08-10T11:49:29.652Z</time>
      </trkpt>
      <trkpt lat="46.92051" lon="8.58605">
        <ele>776</ele>
        <time>2021-08-10T11:49:30.652Z</time>
      </trkpt>
      <trkpt lat="46.9205" lon="8.58605">
        <ele>777</ele>
        <time>2021-08-10T11:49:31.652Z</time>
      </trkpt>
      <trkpt lat="46.9205" lon="8.58604">
        <ele>777</ele>
        <time>2021-08-10T11:49:32.652Z</time>
      </trkpt>
      <trkpt lat="46.9205" lon="8.58604">
        <ele>777</ele>
        <time>2021-08-10T11:49:33.652Z</time>
      </trkpt>
      <trkpt lat="46.9205" lon="8.58604">
        <ele>777</ele>
        <time>2021-08-10T11:49:34.652Z</time>
      </trkpt>
      <trkpt lat="46.92049" lon="8.58604">
        <ele>778</ele>
        <time>2021-08-10T11:49:35.652Z</time>
      </trkpt>
      <trkpt lat="46.92048" lon="8.58603">
        <ele>778</ele>
        <time>2021-08-10T11:49:36.652Z</time>
      </trkpt>
      <trkpt lat="46.92047" lon="8.58603">
        <ele>779</ele>
        <time>2021-08-10T11:49:37.653Z</time>
      </trkpt>
      <trkpt lat="46.92046" lon="8.58604">
        <ele>779</ele>
        <time>2021-08-10T11:49:38.652Z</time>
      </trkpt>
      <trkpt lat="46.92045" lon="8.58603">
        <ele>779</ele>
        <time>2021-08-10T11:49:39.652Z</time>
      </trkpt>
      <trkpt lat="46.92044" lon="8.58603">
        <ele>779</ele>
        <time>2021-08-10T11:49:40.652Z</time>
      </trkpt>
      <trkpt lat="46.92042" lon="8.58602">
        <ele>780</ele>
        <time>2021-08-10T11:49:41.652Z</time>
      </trkpt>
      <trkpt lat="46.9204" lon="8.58601">
        <ele>780</ele>
        <time>2021-08-10T11:49:42.653Z</time>
      </trkpt>
      <trkpt lat="46.92039" lon="8.58601">
        <ele>780</ele>
        <time>2021-08-10T11:49:43.652Z</time>
      </trkpt>
      <trkpt lat="46.92038" lon="8.58601">
        <ele>780</ele>
        <time>2021-08-10T11:49:44.652Z</time>
      </trkpt>
      <trkpt lat="46.92037" lon="8.58602">
        <ele>780</ele>
        <time>2021-08-10T11:49:45.652Z</time>
      </trkpt>
      <trkpt lat="46.92036" lon="8.58603">
        <ele>780</ele>
        <time>2021-08-10T11:49:46.653Z</time>
      </trkpt>
      <trkpt lat="46.92036" lon="8.58602">
        <ele>780</ele>
        <time>2021-08-10T11:49:47.652Z</time>
      </trkpt>
      <trkpt lat="46.92035" lon="8.58602">
        <ele>780</ele>
        <time>2021-08-10T11:49:50.774Z</time>
      </trkpt>
      <trkpt lat="46.92035" lon="8.58602">
        <ele>780</ele>
        <time>2021-08-10T11:49:51.774Z</time>
      </trkpt>
      <trkpt lat="46.92034" lon="8.58603">
        <ele>780</ele>
        <time>2021-08-10T11:49:52.773Z</time>
      </trkpt>
      <trkpt lat="46.92033" lon="8.58603">
        <ele>780</ele>
        <time>2021-08-10T11:49:53.773Z</time>
      </trkpt>
      <trkpt lat="46.92032" lon="8.58603">
        <ele>780</ele>
        <time>2021-08-10T11:49:54.773Z</time>
      </trkpt>
      <trkpt lat="46.92032" lon="8.58603">
        <ele>780</ele>
        <time>2021-08-10T11:49:55.773Z</time>
      </trkpt>
      <trkpt lat="46.92032" lon="8.58603">
        <ele>780</ele>
        <time>2021-08-10T11:49:56.773Z</time>
      </trkpt>
      <trkpt lat="46.92031" lon="8.58603">
        <ele>779</ele>
        <time>2021-08-10T11:49:57.774Z</time>
      </trkpt>
      <trkpt lat="46.9203" lon="8.58603">
        <ele>779</ele>
        <time>2021-08-10T11:49:58.773Z</time>
      </trkpt>
      <trkpt lat="46.92029" lon="8.58603">
        <ele>779</ele>
        <time>2021-08-10T11:49:59.773Z</time>
      </trkpt>
      <trkpt lat="46.92028" lon="8.58602">
        <ele>779</ele>
        <time>2021-08-10T11:50:00.774Z</time>
      </trkpt>
      <trkpt lat="46.92028" lon="8.58602">
        <ele>779</ele>
        <time>2021-08-10T11:50:01.773Z</time>
      </trkpt>
      <trkpt lat="46.92028" lon="8.58602">
        <ele>779</ele>
        <time>2021-08-10T11:50:02.773Z</time>
      </trkpt>
      <trkpt lat="46.92027" lon="8.58602">
        <ele>779</ele>
        <time>2021-08-10T11:50:03.774Z</time>
      </trkpt>
      <trkpt lat="46.92027" lon="8.58602">
        <ele>779</ele>
        <time>2021-08-10T11:50:04.775Z</time>
      </trkpt>
      <trkpt lat="46.92027" lon="8.58602">
        <ele>779</ele>
        <time>2021-08-10T11:50:05.774Z</time>
      </trkpt>
      <trkpt lat="46.92027" lon="8.58602">
        <ele>779</ele>
        <time>2021-08-10T11:50:06.774Z</time>
      </trkpt>
      <trkpt lat="46.92027" lon="8.58602">
        <ele>779</ele>
        <time>2021-08-10T11:50:07.774Z</time>
      </trkpt>
      <trkpt lat="46.92032" lon="8.58607">
        <ele>782</ele>
        <time>2021-08-10T11:50:08.774Z</time>
      </trkpt>
      <trkpt lat="46.92032" lon="8.58607">
        <ele>781</ele>
        <time>2021-08-10T11:50:09.775Z</time>
      </trkpt>
      <trkpt lat="46.92034" lon="8.58607">
        <ele>781</ele>
        <time>2021-08-10T11:50:10.775Z</time>
      </trkpt>
      <trkpt lat="46.92034" lon="8.58607">
        <ele>781</ele>
        <time>2021-08-10T11:50:11.775Z</time>
      </trkpt>
      <trkpt lat="46.92034" lon="8.58608">
        <ele>781</ele>
        <time>2021-08-10T11:50:12.774Z</time>
      </trkpt>
      <trkpt lat="46.92034" lon="8.58607">
        <ele>781</ele>
        <time>2021-08-10T11:50:13.775Z</time>
      </trkpt>
      <trkpt lat="46.92034" lon="8.58606">
        <ele>781</ele>
        <time>2021-08-10T11:50:14.775Z</time>
      </trkpt>
      <trkpt lat="46.92034" lon="8.58605">
        <ele>781</ele>
        <time>2021-08-10T11:50:15.774Z</time>
      </trkpt>
      <trkpt lat="46.92033" lon="8.58606">
        <ele>781</ele>
        <time>2021-08-10T11:50:16.775Z</time>
      </trkpt>
      <trkpt lat="46.92033" lon="8.58606">
        <ele>781</ele>
        <time>2021-08-10T11:50:17.775Z</time>
      </trkpt>
      <trkpt lat="46.92032" lon="8.58605">
        <ele>781</ele>
        <time>2021-08-10T11:50:18.775Z</time>
      </trkpt>
      <trkpt lat="46.92031" lon="8.58604">
        <ele>781</ele>
        <time>2021-08-10T11:50:19.775Z</time>
      </trkpt>
      <trkpt lat="46.9203" lon="8.58604">
        <ele>781</ele>
        <time>2021-08-10T11:50:20.775Z</time>
      </trkpt>
      <trkpt lat="46.9203" lon="8.58604">
        <ele>781</ele>
        <time>2021-08-10T11:50:21.775Z</time>
      </trkpt>
      <trkpt lat="46.9203" lon="8.58604">
        <ele>781</ele>
        <time>2021-08-10T11:50:22.775Z</time>
      </trkpt>
      <trkpt lat="46.9203" lon="8.58603">
        <ele>781</ele>
        <time>2021-08-10T11:50:23.775Z</time>
      </trkpt>
      <trkpt lat="46.9203" lon="8.58602">
        <ele>781</ele>
        <time>2021-08-10T11:50:24.775Z</time>
      </trkpt>
      <trkpt lat="46.9203" lon="8.58602">
        <ele>781</ele>
        <time>2021-08-10T11:50:25.774Z</time>
      </trkpt>
      <trkpt lat="46.9203" lon="8.58602">
        <ele>781</ele>
        <time>2021-08-10T11:50:26.775Z</time>
      </trkpt>
      <trkpt lat="46.9203" lon="8.58603">
        <ele>782</ele>
        <time>2021-08-10T11:50:27.775Z</time>
      </trkpt>
      <trkpt lat="46.92031" lon="8.58603">
        <ele>783</ele>
        <time>2021-08-10T11:50:28.776Z</time>
      </trkpt>
      <trkpt lat="46.92031" lon="8.58603">
        <ele>783</ele>
        <time>2021-08-10T11:50:29.775Z</time>
      </trkpt>
      <trkpt lat="46.92031" lon="8.58603">
        <ele>783</ele>
        <time>2021-08-10T11:50:30.776Z</time>
      </trkpt>
      <trkpt lat="46.92031" lon="8.58604">
        <ele>784</ele>
        <time>2021-08-10T11:50:31.776Z</time>
      </trkpt>
      <trkpt lat="46.92032" lon="8.58605">
        <ele>784</ele>
        <time>2021-08-10T11:50:32.776Z</time>
      </trkpt>
      <trkpt lat="46.92031" lon="8.58606">
        <ele>784</ele>
        <time>2021-08-10T11:50:33.776Z</time>
      </trkpt>
      <trkpt lat="46.92031" lon="8.58607">
        <ele>784</ele>
        <time>2021-08-10T11:50:34.775Z</time>
      </trkpt>
      <trkpt lat="46.92032" lon="8.58608">
        <ele>785</ele>
        <time>2021-08-10T11:50:35.776Z</time>
      </trkpt>
      <trkpt lat="46.92032" lon="8.58608">
        <ele>785</ele>
        <time>2021-08-10T11:50:36.776Z</time>
      </trkpt>
      <trkpt lat="46.92033" lon="8.58608">
        <ele>785</ele>
        <time>2021-08-10T11:50:37.776Z</time>
      </trkpt>
      <trkpt lat="46.92033" lon="8.5861">
        <ele>786</ele>
        <time>2021-08-10T11:50:38.776Z</time>
      </trkpt>
      <trkpt lat="46.92033" lon="8.58612">
        <ele>786</ele>
        <time>2021-08-10T11:50:39.776Z</time>
      </trkpt>
      <trkpt lat="46.92034" lon="8.5861">
        <ele>786</ele>
        <time>2021-08-10T11:50:40.776Z</time>
      </trkpt>
      <trkpt lat="46.92035" lon="8.58608">
        <ele>786</ele>
        <time>2021-08-10T11:50:41.776Z</time>
      </trkpt>
      <trkpt lat="46.92034" lon="8.58607">
        <ele>786</ele>
        <time>2021-08-10T11:50:42.775Z</time>
      </trkpt>
      <trkpt lat="46.92034" lon="8.58605">
        <ele>786</ele>
        <time>2021-08-10T11:50:43.776Z</time>
      </trkpt>
      <trkpt lat="46.92034" lon="8.58603">
        <ele>786</ele>
        <time>2021-08-10T11:50:44.775Z</time>
      </trkpt>
      <trkpt lat="46.92034" lon="8.58601">
        <ele>786</ele>
        <time>2021-08-10T11:50:45.775Z</time>
      </trkpt>
      <trkpt lat="46.92034" lon="8.586">
        <ele>786</ele>
        <time>2021-08-10T11:50:46.775Z</time>
      </trkpt>
      <trkpt lat="46.92034" lon="8.58599">
        <ele>786</ele>
        <time>2021-08-10T11:50:47.776Z</time>
      </trkpt>
      <trkpt lat="46.92034" lon="8.58598">
        <ele>786</ele>
        <time>2021-08-10T11:50:48.776Z</time>
      </trkpt>
      <trkpt lat="46.92033" lon="8.58597">
        <ele>786</ele>
        <time>2021-08-10T11:50:49.776Z</time>
      </trkpt>
      <trkpt lat="46.92033" lon="8.58596">
        <ele>786</ele>
        <time>2021-08-10T11:50:50.775Z</time>
      </trkpt>
      <trkpt lat="46.92032" lon="8.58595">
        <ele>786</ele>
        <time>2021-08-10T11:50:51.775Z</time>
      </trkpt>
      <trkpt lat="46.92032" lon="8.58595">
        <ele>786</ele>
        <time>2021-08-10T11:50:52.776Z</time>
      </trkpt>
      <trkpt lat="46.92032" lon="8.58595">
        <ele>786</ele>
        <time>2021-08-10T11:50:53.775Z</time>
      </trkpt>
      <trkpt lat="46.92031" lon="8.58594">
        <ele>786</ele>
        <time>2021-08-10T11:50:54.776Z</time>
      </trkpt>
      <trkpt lat="46.92031" lon="8.58595">
        <ele>786</ele>
        <time>2021-08-10T11:50:55.776Z</time>
      </trkpt>
      <trkpt lat="46.92031" lon="8.58594">
        <ele>787</ele>
        <time>2021-08-10T11:50:56.776Z</time>
      </trkpt>
      <trkpt lat="46.92032" lon="8.58593">
        <ele>787</ele>
        <time>2021-08-10T11:50:57.776Z</time>
      </trkpt>
      <trkpt lat="46.92032" lon="8.58593">
        <ele>787</ele>
        <time>2021-08-10T11:50:58.775Z</time>
      </trkpt>
      <trkpt lat="46.92032" lon="8.58592">
        <ele>787</ele>
        <time>2021-08-10T11:50:59.775Z</time>
      </trkpt>
      <trkpt lat="46.92032" lon="8.58591">
        <ele>787</ele>
        <time>2021-08-10T11:51:00.776Z</time>
      </trkpt>
      <trkpt lat="46.92031" lon="8.5859">
        <ele>787</ele>
        <time>2021-08-10T11:51:01.776Z</time>
      </trkpt>
      <trkpt lat="46.9203" lon="8.58592">
        <ele>787</ele>
        <time>2021-08-10T11:51:02.776Z</time>
      </trkpt>
      <trkpt lat="46.92029" lon="8.58593">
        <ele>787</ele>
        <time>2021-08-10T11:51:03.776Z</time>
      </trkpt>
      <trkpt lat="46.92029" lon="8.58594">
        <ele>787</ele>
        <time>2021-08-10T11:51:04.775Z</time>
      </trkpt>
      <trkpt lat="46.92029" lon="8.58595">
        <ele>788</ele>
        <time>2021-08-10T11:51:05.776Z</time>
      </trkpt>
      <trkpt lat="46.92029" lon="8.58596">
        <ele>788</ele>
        <time>2021-08-10T11:51:06.776Z</time>
      </trkpt>
      <trkpt lat="46.92028" lon="8.58597">
        <ele>788</ele>
        <time>2021-08-10T11:51:07.776Z</time>
      </trkpt>
      <trkpt lat="46.92028" lon="8.58597">
        <ele>788</ele>
        <time>2021-08-10T11:51:08.775Z</time>
      </trkpt>
      <trkpt lat="46.92028" lon="8.58598">
        <ele>789</ele>
        <time>2021-08-10T11:51:09.775Z</time>
      </trkpt>
      <trkpt lat="46.92027" lon="8.58598">
        <ele>789</ele>
        <time>2021-08-10T11:51:10.776Z</time>
      </trkpt>
      <trkpt lat="46.92027" lon="8.58597">
        <ele>789</ele>
        <time>2021-08-10T11:51:11.775Z</time>
      </trkpt>
      <trkpt lat="46.92027" lon="8.58597">
        <ele>789</ele>
        <time>2021-08-10T11:51:12.775Z</time>
      </trkpt>
      <trkpt lat="46.92026" lon="8.58596">
        <ele>790</ele>
        <time>2021-08-10T11:51:13.776Z</time>
      </trkpt>
      <trkpt lat="46.92026" lon="8.58595">
        <ele>790</ele>
        <time>2021-08-10T11:51:14.776Z</time>
      </trkpt>
      <trkpt lat="46.92026" lon="8.58593">
        <ele>790</ele>
        <time>2021-08-10T11:51:15.775Z</time>
      </trkpt>
      <trkpt lat="46.92026" lon="8.58591">
        <ele>790</ele>
        <time>2021-08-10T11:51:16.775Z</time>
      </trkpt>
      <trkpt lat="46.92026" lon="8.5859">
        <ele>791</ele>
        <time>2021-08-10T11:51:17.775Z</time>
      </trkpt>
      <trkpt lat="46.92026" lon="8.58589">
        <ele>791</ele>
        <time>2021-08-10T11:51:18.775Z</time>
      </trkpt>
      <trkpt lat="46.92026" lon="8.58589">
        <ele>791</ele>
        <time>2021-08-10T11:51:19.775Z</time>
      </trkpt>
      <trkpt lat="46.92026" lon="8.58588">
        <ele>791</ele>
        <time>2021-08-10T11:51:20.775Z</time>
      </trkpt>
      <trkpt lat="46.92026" lon="8.58588">
        <ele>792</ele>
        <time>2021-08-10T11:51:21.776Z</time>
      </trkpt>
      <trkpt lat="46.92026" lon="8.58587">
        <ele>792</ele>
        <time>2021-08-10T11:51:22.775Z</time>
      </trkpt>
      <trkpt lat="46.92026" lon="8.58585">
        <ele>792</ele>
        <time>2021-08-10T11:51:23.775Z</time>
      </trkpt>
      <trkpt lat="46.92026" lon="8.58584">
        <ele>793</ele>
        <time>2021-08-10T11:51:24.776Z</time>
      </trkpt>
      <trkpt lat="46.92026" lon="8.58582">
        <ele>793</ele>
        <time>2021-08-10T11:51:25.775Z</time>
      </trkpt>
      <trkpt lat="46.92026" lon="8.58581">
        <ele>793</ele>
        <time>2021-08-10T11:51:26.775Z</time>
      </trkpt>
      <trkpt lat="46.92025" lon="8.58581">
        <ele>793</ele>
        <time>2021-08-10T11:51:27.775Z</time>
      </trkpt>
      <trkpt lat="46.92025" lon="8.5858">
        <ele>794</ele>
        <time>2021-08-10T11:51:28.775Z</time>
      </trkpt>
      <trkpt lat="46.92024" lon="8.58579">
        <ele>794</ele>
        <time>2021-08-10T11:51:29.776Z</time>
      </trkpt>
      <trkpt lat="46.92024" lon="8.58579">
        <ele>794</ele>
        <time>2021-08-10T11:51:30.776Z</time>
      </trkpt>
      <trkpt lat="46.92024" lon="8.58581">
        <ele>794</ele>
        <time>2021-08-10T11:51:31.776Z</time>
      </trkpt>
      <trkpt lat="46.92024" lon="8.58582">
        <ele>794</ele>
        <time>2021-08-10T11:51:32.775Z</time>
      </trkpt>
      <trkpt lat="46.92023" lon="8.58582">
        <ele>794</ele>
        <time>2021-08-10T11:51:34.906Z</time>
      </trkpt>
      <trkpt lat="46.92022" lon="8.58582">
        <ele>794</ele>
        <time>2021-08-10T11:51:35.907Z</time>
      </trkpt>
      <trkpt lat="46.92022" lon="8.58583">
        <ele>794</ele>
        <time>2021-08-10T11:51:36.907Z</time>
      </trkpt>
      <trkpt lat="46.92021" lon="8.58583">
        <ele>794</ele>
        <time>2021-08-10T11:51:37.906Z</time>
      </trkpt>
      <trkpt lat="46.92021" lon="8.58583">
        <ele>794</ele>
        <time>2021-08-10T11:51:38.907Z</time>
      </trkpt>
      <trkpt lat="46.9202" lon="8.58582">
        <ele>794</ele>
        <time>2021-08-10T11:51:39.906Z</time>
      </trkpt>
      <trkpt lat="46.9202" lon="8.58582">
        <ele>794</ele>
        <time>2021-08-10T11:51:40.906Z</time>
      </trkpt>
      <trkpt lat="46.9202" lon="8.58582">
        <ele>794</ele>
        <time>2021-08-10T11:51:41.907Z</time>
      </trkpt>
      <trkpt lat="46.9202" lon="8.58582">
        <ele>794</ele>
        <time>2021-08-10T11:51:42.906Z</time>
      </trkpt>
      <trkpt lat="46.92019" lon="8.58582">
        <ele>794</ele>
        <time>2021-08-10T11:51:43.907Z</time>
      </trkpt>
      <trkpt lat="46.92019" lon="8.58583">
        <ele>794</ele>
        <time>2021-08-10T11:51:44.907Z</time>
      </trkpt>
      <trkpt lat="46.92018" lon="8.58583">
        <ele>794</ele>
        <time>2021-08-10T11:51:45.906Z</time>
      </trkpt>
      <trkpt lat="46.92018" lon="8.58584">
        <ele>794</ele>
        <time>2021-08-10T11:51:46.907Z</time>
      </trkpt>
      <trkpt lat="46.92018" lon="8.58583">
        <ele>794</ele>
        <time>2021-08-10T11:51:47.907Z</time>
      </trkpt>
      <trkpt lat="46.92018" lon="8.58582">
        <ele>794</ele>
        <time>2021-08-10T11:51:48.907Z</time>
      </trkpt>
      <trkpt lat="46.92017" lon="8.58581">
        <ele>793</ele>
        <time>2021-08-10T11:51:49.907Z</time>
      </trkpt>
      <trkpt lat="46.92016" lon="8.58581">
        <ele>793</ele>
        <time>2021-08-10T11:51:50.907Z</time>
      </trkpt>
      <trkpt lat="46.92015" lon="8.58582">
        <ele>793</ele>
        <time>2021-08-10T11:51:51.907Z</time>
      </trkpt>
      <trkpt lat="46.92014" lon="8.58582">
        <ele>793</ele>
        <time>2021-08-10T11:51:52.907Z</time>
      </trkpt>
      <trkpt lat="46.92014" lon="8.58582">
        <ele>793</ele>
        <time>2021-08-10T11:51:53.907Z</time>
      </trkpt>
      <trkpt lat="46.92013" lon="8.58583">
        <ele>793</ele>
        <time>2021-08-10T11:51:54.907Z</time>
      </trkpt>
      <trkpt lat="46.92012" lon="8.58584">
        <ele>793</ele>
        <time>2021-08-10T11:51:55.906Z</time>
      </trkpt>
      <trkpt lat="46.92011" lon="8.58584">
        <ele>793</ele>
        <time>2021-08-10T11:51:56.907Z</time>
      </trkpt>
      <trkpt lat="46.92011" lon="8.58584">
        <ele>793</ele>
        <time>2021-08-10T11:51:57.907Z</time>
      </trkpt>
      <trkpt lat="46.9201" lon="8.58584">
        <ele>793</ele>
        <time>2021-08-10T11:51:58.907Z</time>
      </trkpt>
      <trkpt lat="46.92009" lon="8.58584">
        <ele>793</ele>
        <time>2021-08-10T11:51:59.907Z</time>
      </trkpt>
      <trkpt lat="46.92007" lon="8.58583">
        <ele>793</ele>
        <time>2021-08-10T11:52:00.908Z</time>
      </trkpt>
      <trkpt lat="46.92007" lon="8.58581">
        <ele>793</ele>
        <time>2021-08-10T11:52:01.907Z</time>
      </trkpt>
      <trkpt lat="46.92007" lon="8.5858">
        <ele>793</ele>
        <time>2021-08-10T11:52:02.907Z</time>
      </trkpt>
      <trkpt lat="46.92007" lon="8.58579">
        <ele>793</ele>
        <time>2021-08-10T11:52:03.907Z</time>
      </trkpt>
      <trkpt lat="46.92006" lon="8.58579">
        <ele>793</ele>
        <time>2021-08-10T11:52:04.907Z</time>
      </trkpt>
      <trkpt lat="46.92005" lon="8.5858">
        <ele>793</ele>
        <time>2021-08-10T11:52:05.907Z</time>
      </trkpt>
      <trkpt lat="46.92005" lon="8.5858">
        <ele>793</ele>
        <time>2021-08-10T11:52:06.908Z</time>
      </trkpt>
      <trkpt lat="46.92004" lon="8.58581">
        <ele>793</ele>
        <time>2021-08-10T11:52:07.907Z</time>
      </trkpt>
      <trkpt lat="46.92004" lon="8.58581">
        <ele>793</ele>
        <time>2021-08-10T11:52:08.907Z</time>
      </trkpt>
      <trkpt lat="46.92003" lon="8.58581">
        <ele>793</ele>
        <time>2021-08-10T11:52:09.907Z</time>
      </trkpt>
      <trkpt lat="46.92003" lon="8.58581">
        <ele>793</ele>
        <time>2021-08-10T11:52:10.908Z</time>
      </trkpt>
      <trkpt lat="46.92002" lon="8.58582">
        <ele>793</ele>
        <time>2021-08-10T11:52:11.908Z</time>
      </trkpt>
      <trkpt lat="46.92001" lon="8.58582">
        <ele>793</ele>
        <time>2021-08-10T11:52:12.907Z</time>
      </trkpt>
      <trkpt lat="46.92001" lon="8.58581">
        <ele>793</ele>
        <time>2021-08-10T11:52:13.907Z</time>
      </trkpt>
      <trkpt lat="46.92" lon="8.58582">
        <ele>794</ele>
        <time>2021-08-10T11:52:14.907Z</time>
      </trkpt>
      <trkpt lat="46.92" lon="8.58582">
        <ele>794</ele>
        <time>2021-08-10T11:52:15.908Z</time>
      </trkpt>
      <trkpt lat="46.92" lon="8.58582">
        <ele>794</ele>
        <time>2021-08-10T11:52:16.907Z</time>
      </trkpt>
      <trkpt lat="46.92" lon="8.58583">
        <ele>794</ele>
        <time>2021-08-10T11:52:17.907Z</time>
      </trkpt>
      <trkpt lat="46.92" lon="8.58583">
        <ele>795</ele>
        <time>2021-08-10T11:52:18.907Z</time>
      </trkpt>
      <trkpt lat="46.92" lon="8.58582">
        <ele>795</ele>
        <time>2021-08-10T11:52:19.907Z</time>
      </trkpt>
      <trkpt lat="46.92001" lon="8.58581">
        <ele>795</ele>
        <time>2021-08-10T11:52:20.907Z</time>
      </trkpt>
      <trkpt lat="46.92001" lon="8.5858">
        <ele>795</ele>
        <time>2021-08-10T11:52:21.908Z</time>
      </trkpt>
      <trkpt lat="46.92001" lon="8.58578">
        <ele>795</ele>
        <time>2021-08-10T11:52:22.907Z</time>
      </trkpt>
      <trkpt lat="46.92001" lon="8.58578">
        <ele>795</ele>
        <time>2021-08-10T11:52:23.907Z</time>
      </trkpt>
      <trkpt lat="46.92001" lon="8.58577">
        <ele>795</ele>
        <time>2021-08-10T11:52:24.907Z</time>
      </trkpt>
      <trkpt lat="46.92001" lon="8.58577">
        <ele>794</ele>
        <time>2021-08-10T11:52:25.908Z</time>
      </trkpt>
      <trkpt lat="46.92001" lon="8.58576">
        <ele>794</ele>
        <time>2021-08-10T11:52:26.907Z</time>
      </trkpt>
      <trkpt lat="46.92001" lon="8.58576">
        <ele>794</ele>
        <time>2021-08-10T11:52:27.907Z</time>
      </trkpt>
      <trkpt lat="46.92001" lon="8.58576">
        <ele>794</ele>
        <time>2021-08-10T11:52:28.907Z</time>
      </trkpt>
      <trkpt lat="46.92002" lon="8.58576">
        <ele>794</ele>
        <time>2021-08-10T11:52:29.907Z</time>
      </trkpt>
      <trkpt lat="46.92003" lon="8.58573">
        <ele>795</ele>
        <time>2021-08-10T11:52:30.909Z</time>
      </trkpt>
      <trkpt lat="46.92004" lon="8.58573">
        <ele>795</ele>
        <time>2021-08-10T11:52:31.909Z</time>
      </trkpt>
      <trkpt lat="46.92004" lon="8.58572">
        <ele>795</ele>
        <time>2021-08-10T11:52:32.909Z</time>
      </trkpt>
      <trkpt lat="46.92005" lon="8.58572">
        <ele>795</ele>
        <time>2021-08-10T11:52:33.908Z</time>
      </trkpt>
      <trkpt lat="46.92005" lon="8.58571">
        <ele>795</ele>
        <time>2021-08-10T11:52:34.908Z</time>
      </trkpt>
      <trkpt lat="46.92006" lon="8.5857">
        <ele>795</ele>
        <time>2021-08-10T11:52:35.908Z</time>
      </trkpt>
      <trkpt lat="46.92006" lon="8.5857">
        <ele>796</ele>
        <time>2021-08-10T11:52:36.909Z</time>
      </trkpt>
      <trkpt lat="46.92007" lon="8.58568">
        <ele>796</ele>
        <time>2021-08-10T11:52:37.909Z</time>
      </trkpt>
      <trkpt lat="46.92008" lon="8.58566">
        <ele>796</ele>
        <time>2021-08-10T11:52:38.908Z</time>
      </trkpt>
      <trkpt lat="46.92009" lon="8.58565">
        <ele>796</ele>
        <time>2021-08-10T11:52:39.908Z</time>
      </trkpt>
      <trkpt lat="46.9201" lon="8.58565">
        <ele>796</ele>
        <time>2021-08-10T11:52:40.909Z</time>
      </trkpt>
      <trkpt lat="46.9201" lon="8.58564">
        <ele>796</ele>
        <time>2021-08-10T11:52:41.909Z</time>
      </trkpt>
      <trkpt lat="46.9201" lon="8.58564">
        <ele>797</ele>
        <time>2021-08-10T11:52:42.908Z</time>
      </trkpt>
      <trkpt lat="46.92009" lon="8.58564">
        <ele>797</ele>
        <time>2021-08-10T11:52:43.908Z</time>
      </trkpt>
      <trkpt lat="46.92009" lon="8.58563">
        <ele>797</ele>
        <time>2021-08-10T11:52:44.908Z</time>
      </trkpt>
      <trkpt lat="46.92008" lon="8.58563">
        <ele>797</ele>
        <time>2021-08-10T11:52:45.909Z</time>
      </trkpt>
      <trkpt lat="46.92007" lon="8.58563">
        <ele>797</ele>
        <time>2021-08-10T11:52:46.908Z</time>
      </trkpt>
      <trkpt lat="46.92007" lon="8.58564">
        <ele>798</ele>
        <time>2021-08-10T11:52:47.910Z</time>
      </trkpt>
      <trkpt lat="46.92005" lon="8.58563">
        <ele>799</ele>
        <time>2021-08-10T11:52:48.910Z</time>
      </trkpt>
      <trkpt lat="46.92004" lon="8.58562">
        <ele>799</ele>
        <time>2021-08-10T11:52:49.910Z</time>
      </trkpt>
      <trkpt lat="46.92004" lon="8.58561">
        <ele>800</ele>
        <time>2021-08-10T11:52:50.909Z</time>
      </trkpt>
      <trkpt lat="46.92005" lon="8.58559">
        <ele>800</ele>
        <time>2021-08-10T11:52:51.910Z</time>
      </trkpt>
      <trkpt lat="46.92005" lon="8.58559">
        <ele>800</ele>
        <time>2021-08-10T11:52:52.909Z</time>
      </trkpt>
      <trkpt lat="46.92005" lon="8.58558">
        <ele>800</ele>
        <time>2021-08-10T11:52:53.910Z</time>
      </trkpt>
      <trkpt lat="46.92005" lon="8.58559">
        <ele>801</ele>
        <time>2021-08-10T11:52:54.910Z</time>
      </trkpt>
      <trkpt lat="46.92005" lon="8.5856">
        <ele>801</ele>
        <time>2021-08-10T11:52:55.909Z</time>
      </trkpt>
      <trkpt lat="46.92006" lon="8.58561">
        <ele>801</ele>
        <time>2021-08-10T11:52:56.910Z</time>
      </trkpt>
      <trkpt lat="46.92006" lon="8.5856">
        <ele>801</ele>
        <time>2021-08-10T11:52:57.910Z</time>
      </trkpt>
      <trkpt lat="46.92006" lon="8.58561">
        <ele>802</ele>
        <time>2021-08-10T11:52:58.910Z</time>
      </trkpt>
      <trkpt lat="46.92006" lon="8.58561">
        <ele>802</ele>
        <time>2021-08-10T11:52:59.910Z</time>
      </trkpt>
      <trkpt lat="46.92006" lon="8.5856">
        <ele>802</ele>
        <time>2021-08-10T11:53:00.909Z</time>
      </trkpt>
      <trkpt lat="46.92005" lon="8.58559">
        <ele>803</ele>
        <time>2021-08-10T11:53:01.910Z</time>
      </trkpt>
      <trkpt lat="46.92005" lon="8.58559">
        <ele>803</ele>
        <time>2021-08-10T11:53:02.910Z</time>
      </trkpt>
      <trkpt lat="46.92006" lon="8.58559">
        <ele>803</ele>
        <time>2021-08-10T11:53:03.910Z</time>
      </trkpt>
      <trkpt lat="46.92006" lon="8.58558">
        <ele>803</ele>
        <time>2021-08-10T11:53:04.910Z</time>
      </trkpt>
      <trkpt lat="46.92006" lon="8.58557">
        <ele>804</ele>
        <time>2021-08-10T11:53:05.910Z</time>
      </trkpt>
      <trkpt lat="46.92006" lon="8.58557">
        <ele>804</ele>
        <time>2021-08-10T11:53:06.909Z</time>
      </trkpt>
      <trkpt lat="46.92006" lon="8.58556">
        <ele>805</ele>
        <time>2021-08-10T11:53:07.910Z</time>
      </trkpt>
      <trkpt lat="46.92006" lon="8.58556">
        <ele>805</ele>
        <time>2021-08-10T11:53:08.909Z</time>
      </trkpt>
      <trkpt lat="46.92005" lon="8.58556">
        <ele>806</ele>
        <time>2021-08-10T11:53:09.909Z</time>
      </trkpt>
      <trkpt lat="46.92004" lon="8.58557">
        <ele>806</ele>
        <time>2021-08-10T11:53:10.909Z</time>
      </trkpt>
      <trkpt lat="46.92003" lon="8.58558">
        <ele>806</ele>
        <time>2021-08-10T11:53:11.909Z</time>
      </trkpt>
      <trkpt lat="46.92001" lon="8.58559">
        <ele>807</ele>
        <time>2021-08-10T11:53:12.910Z</time>
      </trkpt>
      <trkpt lat="46.92" lon="8.5856">
        <ele>807</ele>
        <time>2021-08-10T11:53:13.909Z</time>
      </trkpt>
      <trkpt lat="46.91999" lon="8.58561">
        <ele>807</ele>
        <time>2021-08-10T11:53:14.909Z</time>
      </trkpt>
      <trkpt lat="46.91999" lon="8.5856">
        <ele>807</ele>
        <time>2021-08-10T11:53:15.909Z</time>
      </trkpt>
      <trkpt lat="46.91998" lon="8.58559">
        <ele>807</ele>
        <time>2021-08-10T11:53:16.909Z</time>
      </trkpt>
      <trkpt lat="46.91998" lon="8.58559">
        <ele>807</ele>
        <time>2021-08-10T11:53:17.909Z</time>
      </trkpt>
      <trkpt lat="46.91999" lon="8.58559">
        <ele>807</ele>
        <time>2021-08-10T11:53:18.910Z</time>
      </trkpt>
      <trkpt lat="46.91999" lon="8.58557">
        <ele>807</ele>
        <time>2021-08-10T11:53:19.909Z</time>
      </trkpt>
      <trkpt lat="46.92" lon="8.58557">
        <ele>807</ele>
        <time>2021-08-10T11:53:20.909Z</time>
      </trkpt>
      <trkpt lat="46.92" lon="8.58556">
        <ele>808</ele>
        <time>2021-08-10T11:53:21.909Z</time>
      </trkpt>
      <trkpt lat="46.91999" lon="8.58557">
        <ele>808</ele>
        <time>2021-08-10T11:53:22.909Z</time>
      </trkpt>
      <trkpt lat="46.91998" lon="8.58557">
        <ele>808</ele>
        <time>2021-08-10T11:53:23.910Z</time>
      </trkpt>
      <trkpt lat="46.91997" lon="8.58557">
        <ele>808</ele>
        <time>2021-08-10T11:53:24.909Z</time>
      </trkpt>
      <trkpt lat="46.91996" lon="8.58557">
        <ele>809</ele>
        <time>2021-08-10T11:53:25.909Z</time>
      </trkpt>
      <trkpt lat="46.91996" lon="8.58558">
        <ele>809</ele>
        <time>2021-08-10T11:53:26.909Z</time>
      </trkpt>
      <trkpt lat="46.91996" lon="8.58559">
        <ele>809</ele>
        <time>2021-08-10T11:53:27.910Z</time>
      </trkpt>
      <trkpt lat="46.91997" lon="8.58559">
        <ele>809</ele>
        <time>2021-08-10T11:53:28.910Z</time>
      </trkpt>
      <trkpt lat="46.91997" lon="8.58559">
        <ele>810</ele>
        <time>2021-08-10T11:53:29.909Z</time>
      </trkpt>
      <trkpt lat="46.91997" lon="8.58559">
        <ele>810</ele>
        <time>2021-08-10T11:53:30.909Z</time>
      </trkpt>
      <trkpt lat="46.91996" lon="8.58559">
        <ele>810</ele>
        <time>2021-08-10T11:53:31.909Z</time>
      </trkpt>
      <trkpt lat="46.91996" lon="8.5856">
        <ele>811</ele>
        <time>2021-08-10T11:53:32.910Z</time>
      </trkpt>
      <trkpt lat="46.91995" lon="8.5856">
        <ele>811</ele>
        <time>2021-08-10T11:53:33.909Z</time>
      </trkpt>
      <trkpt lat="46.91995" lon="8.58559">
        <ele>811</ele>
        <time>2021-08-10T11:53:34.909Z</time>
      </trkpt>
      <trkpt lat="46.91995" lon="8.58559">
        <ele>811</ele>
        <time>2021-08-10T11:53:35.909Z</time>
      </trkpt>
      <trkpt lat="46.91995" lon="8.58558">
        <ele>811</ele>
        <time>2021-08-10T11:53:36.909Z</time>
      </trkpt>
      <trkpt lat="46.91995" lon="8.58557">
        <ele>812</ele>
        <time>2021-08-10T11:53:37.910Z</time>
      </trkpt>
      <trkpt lat="46.91995" lon="8.58557">
        <ele>812</ele>
        <time>2021-08-10T11:53:38.910Z</time>
      </trkpt>
      <trkpt lat="46.91995" lon="8.58557">
        <ele>812</ele>
        <time>2021-08-10T11:53:39.909Z</time>
      </trkpt>
      <trkpt lat="46.91995" lon="8.58558">
        <ele>812</ele>
        <time>2021-08-10T11:53:40.909Z</time>
      </trkpt>
      <trkpt lat="46.91995" lon="8.58558">
        <ele>812</ele>
        <time>2021-08-10T11:53:41.909Z</time>
      </trkpt>
      <trkpt lat="46.91995" lon="8.58558">
        <ele>812</ele>
        <time>2021-08-10T11:53:42.909Z</time>
      </trkpt>
      <trkpt lat="46.91992" lon="8.58561">
        <ele>812</ele>
        <time>2021-08-10T11:53:43.909Z</time>
      </trkpt>
      <trkpt lat="46.91991" lon="8.58562">
        <ele>812</ele>
        <time>2021-08-10T11:53:44.909Z</time>
      </trkpt>
      <trkpt lat="46.91991" lon="8.58562">
        <ele>812</ele>
        <time>2021-08-10T11:53:45.910Z</time>
      </trkpt>
      <trkpt lat="46.91991" lon="8.58562">
        <ele>813</ele>
        <time>2021-08-10T11:53:46.909Z</time>
      </trkpt>
      <trkpt lat="46.91988" lon="8.5856">
        <ele>814</ele>
        <time>2021-08-10T11:53:47.909Z</time>
      </trkpt>
      <trkpt lat="46.91987" lon="8.5856">
        <ele>814</ele>
        <time>2021-08-10T11:53:48.910Z</time>
      </trkpt>
      <trkpt lat="46.91988" lon="8.5856">
        <ele>814</ele>
        <time>2021-08-10T11:53:49.909Z</time>
      </trkpt>
      <trkpt lat="46.91987" lon="8.58562">
        <ele>815</ele>
        <time>2021-08-10T11:53:50.910Z</time>
      </trkpt>
      <trkpt lat="46.91987" lon="8.58563">
        <ele>815</ele>
        <time>2021-08-10T11:53:51.909Z</time>
      </trkpt>
      <trkpt lat="46.91986" lon="8.58563">
        <ele>816</ele>
        <time>2021-08-10T11:53:52.909Z</time>
      </trkpt>
      <trkpt lat="46.91986" lon="8.58564">
        <ele>816</ele>
        <time>2021-08-10T11:53:53.909Z</time>
      </trkpt>
      <trkpt lat="46.91986" lon="8.58565">
        <ele>816</ele>
        <time>2021-08-10T11:53:54.909Z</time>
      </trkpt>
      <trkpt lat="46.91986" lon="8.58567">
        <ele>817</ele>
        <time>2021-08-10T11:53:55.909Z</time>
      </trkpt>
      <trkpt lat="46.91986" lon="8.58566">
        <ele>817</ele>
        <time>2021-08-10T11:53:56.909Z</time>
      </trkpt>
      <trkpt lat="46.91986" lon="8.58565">
        <ele>817</ele>
        <time>2021-08-10T11:53:57.909Z</time>
      </trkpt>
      <trkpt lat="46.91986" lon="8.58565">
        <ele>818</ele>
        <time>2021-08-10T11:53:58.909Z</time>
      </trkpt>
      <trkpt lat="46.91985" lon="8.58565">
        <ele>818</ele>
        <time>2021-08-10T11:53:59.910Z</time>
      </trkpt>
      <trkpt lat="46.91985" lon="8.58564">
        <ele>818</ele>
        <time>2021-08-10T11:54:00.909Z</time>
      </trkpt>
      <trkpt lat="46.91985" lon="8.58565">
        <ele>818</ele>
        <time>2021-08-10T11:54:01.909Z</time>
      </trkpt>
      <trkpt lat="46.91985" lon="8.58565">
        <ele>819</ele>
        <time>2021-08-10T11:54:02.910Z</time>
      </trkpt>
      <trkpt lat="46.91986" lon="8.58565">
        <ele>819</ele>
        <time>2021-08-10T11:54:03.910Z</time>
      </trkpt>
      <trkpt lat="46.91986" lon="8.58565">
        <ele>819</ele>
        <time>2021-08-10T11:54:04.910Z</time>
      </trkpt>
      <trkpt lat="46.91987" lon="8.58564">
        <ele>819</ele>
        <time>2021-08-10T11:54:05.910Z</time>
      </trkpt>
      <trkpt lat="46.91987" lon="8.58563">
        <ele>820</ele>
        <time>2021-08-10T11:54:06.910Z</time>
      </trkpt>
      <trkpt lat="46.91989" lon="8.58561">
        <ele>822</ele>
        <time>2021-08-10T11:54:07.911Z</time>
      </trkpt>
      <trkpt lat="46.91989" lon="8.5856">
        <ele>822</ele>
        <time>2021-08-10T11:54:08.911Z</time>
      </trkpt>
      <trkpt lat="46.9199" lon="8.58558">
        <ele>823</ele>
        <time>2021-08-10T11:54:09.911Z</time>
      </trkpt>
      <trkpt lat="46.91992" lon="8.58556">
        <ele>823</ele>
        <time>2021-08-10T11:54:10.910Z</time>
      </trkpt>
      <trkpt lat="46.91992" lon="8.58557">
        <ele>823</ele>
        <time>2021-08-10T11:54:11.910Z</time>
      </trkpt>
      <trkpt lat="46.91992" lon="8.58558">
        <ele>823</ele>
        <time>2021-08-10T11:54:12.910Z</time>
      </trkpt>
      <trkpt lat="46.91992" lon="8.58559">
        <ele>824</ele>
        <time>2021-08-10T11:54:13.910Z</time>
      </trkpt>
      <trkpt lat="46.91991" lon="8.58558">
        <ele>824</ele>
        <time>2021-08-10T11:54:14.911Z</time>
      </trkpt>
      <trkpt lat="46.91989" lon="8.58558">
        <ele>824</ele>
        <time>2021-08-10T11:54:15.910Z</time>
      </trkpt>
      <trkpt lat="46.91989" lon="8.58557">
        <ele>824</ele>
        <time>2021-08-10T11:54:16.910Z</time>
      </trkpt>
      <trkpt lat="46.91989" lon="8.58557">
        <ele>824</ele>
        <time>2021-08-10T11:54:17.911Z</time>
      </trkpt>
      <trkpt lat="46.91989" lon="8.58557">
        <ele>824</ele>
        <time>2021-08-10T11:54:18.910Z</time>
      </trkpt>
      <trkpt lat="46.91989" lon="8.58558">
        <ele>823</ele>
        <time>2021-08-10T11:54:19.787Z</time>
      </trkpt>
      <trkpt lat="46.91994" lon="8.58553">
        <ele>818</ele>
        <time>2021-08-10T11:54:20.912Z</time>
      </trkpt>
      <trkpt lat="46.91995" lon="8.58552">
        <ele>819</ele>
        <time>2021-08-10T11:54:21.912Z</time>
      </trkpt>
      <trkpt lat="46.91996" lon="8.5855">
        <ele>819</ele>
        <time>2021-08-10T11:54:22.787Z</time>
      </trkpt>
      <trkpt lat="46.91996" lon="8.5855">
        <ele>819</ele>
        <time>2021-08-10T11:54:23.911Z</time>
      </trkpt>
      <trkpt lat="46.91997" lon="8.5855">
        <ele>820</ele>
        <time>2021-08-10T11:54:24.787Z</time>
      </trkpt>
      <trkpt lat="46.91998" lon="8.5855">
        <ele>820</ele>
        <time>2021-08-10T11:54:25.912Z</time>
      </trkpt>
      <trkpt lat="46.91998" lon="8.58552">
        <ele>821</ele>
        <time>2021-08-10T11:54:26.912Z</time>
      </trkpt>
      <trkpt lat="46.91998" lon="8.58552">
        <ele>821</ele>
        <time>2021-08-10T11:54:27.787Z</time>
      </trkpt>
      <trkpt lat="46.91994" lon="8.58553">
        <ele>825</ele>
        <time>2021-08-10T11:54:28.787Z</time>
      </trkpt>
      <trkpt lat="46.91993" lon="8.58552">
        <ele>826</ele>
        <time>2021-08-10T11:54:29.788Z</time>
      </trkpt>
      <trkpt lat="46.91992" lon="8.58553">
        <ele>827</ele>
        <time>2021-08-10T11:54:30.787Z</time>
      </trkpt>
      <trkpt lat="46.91991" lon="8.58553">
        <ele>828</ele>
        <time>2021-08-10T11:54:31.788Z</time>
      </trkpt>
      <trkpt lat="46.9199" lon="8.58552">
        <ele>828</ele>
        <time>2021-08-10T11:54:32.788Z</time>
      </trkpt>
      <trkpt lat="46.9199" lon="8.5855">
        <ele>829</ele>
        <time>2021-08-10T11:54:33.787Z</time>
      </trkpt>
      <trkpt lat="46.91989" lon="8.5855">
        <ele>830</ele>
        <time>2021-08-10T11:54:34.787Z</time>
      </trkpt>
      <trkpt lat="46.91989" lon="8.5855">
        <ele>831</ele>
        <time>2021-08-10T11:54:35.787Z</time>
      </trkpt>
      <trkpt lat="46.91988" lon="8.5855">
        <ele>832</ele>
        <time>2021-08-10T11:54:36.788Z</time>
      </trkpt>
      <trkpt lat="46.91988" lon="8.5855">
        <ele>833</ele>
        <time>2021-08-10T11:54:37.788Z</time>
      </trkpt>
      <trkpt lat="46.91988" lon="8.58549">
        <ele>833</ele>
        <time>2021-08-10T11:54:38.787Z</time>
      </trkpt>
      <trkpt lat="46.91987" lon="8.5855">
        <ele>834</ele>
        <time>2021-08-10T11:54:39.787Z</time>
      </trkpt>
      <trkpt lat="46.91986" lon="8.5855">
        <ele>835</ele>
        <time>2021-08-10T11:54:40.788Z</time>
      </trkpt>
      <trkpt lat="46.91985" lon="8.58549">
        <ele>836</ele>
        <time>2021-08-10T11:54:41.788Z</time>
      </trkpt>
      <trkpt lat="46.91984" lon="8.5855">
        <ele>837</ele>
        <time>2021-08-10T11:54:42.788Z</time>
      </trkpt>
      <trkpt lat="46.91984" lon="8.58549">
        <ele>837</ele>
        <time>2021-08-10T11:54:43.787Z</time>
      </trkpt>
      <trkpt lat="46.91983" lon="8.58549">
        <ele>838</ele>
        <time>2021-08-10T11:54:44.788Z</time>
      </trkpt>
      <trkpt lat="46.91982" lon="8.5855">
        <ele>838</ele>
        <time>2021-08-10T11:54:45.787Z</time>
      </trkpt>
      <trkpt lat="46.91982" lon="8.5855">
        <ele>839</ele>
        <time>2021-08-10T11:54:46.787Z</time>
      </trkpt>
      <trkpt lat="46.91982" lon="8.5855">
        <ele>839</ele>
        <time>2021-08-10T11:54:47.788Z</time>
      </trkpt>
      <trkpt lat="46.91982" lon="8.58551">
        <ele>840</ele>
        <time>2021-08-10T11:54:48.788Z</time>
      </trkpt>
      <trkpt lat="46.91981" lon="8.58553">
        <ele>840</ele>
        <time>2021-08-10T11:54:49.788Z</time>
      </trkpt>
      <trkpt lat="46.9198" lon="8.58554">
        <ele>841</ele>
        <time>2021-08-10T11:54:50.788Z</time>
      </trkpt>
      <trkpt lat="46.91979" lon="8.58555">
        <ele>841</ele>
        <time>2021-08-10T11:54:51.787Z</time>
      </trkpt>
      <trkpt lat="46.91978" lon="8.58554">
        <ele>842</ele>
        <time>2021-08-10T11:54:52.788Z</time>
      </trkpt>
      <trkpt lat="46.91977" lon="8.58553">
        <ele>842</ele>
        <time>2021-08-10T11:54:53.788Z</time>
      </trkpt>
      <trkpt lat="46.91976" lon="8.58551">
        <ele>843</ele>
        <time>2021-08-10T11:54:54.788Z</time>
      </trkpt>
      <trkpt lat="46.91976" lon="8.58551">
        <ele>844</ele>
        <time>2021-08-10T11:54:55.787Z</time>
      </trkpt>
      <trkpt lat="46.91976" lon="8.58549">
        <ele>844</ele>
        <time>2021-08-10T11:54:56.788Z</time>
      </trkpt>
      <trkpt lat="46.91976" lon="8.58548">
        <ele>845</ele>
        <time>2021-08-10T11:54:57.787Z</time>
      </trkpt>
      <trkpt lat="46.91976" lon="8.58548">
        <ele>846</ele>
        <time>2021-08-10T11:54:58.787Z</time>
      </trkpt>
      <trkpt lat="46.91976" lon="8.58548">
        <ele>847</ele>
        <time>2021-08-10T11:54:59.788Z</time>
      </trkpt>
      <trkpt lat="46.91977" lon="8.58548">
        <ele>848</ele>
        <time>2021-08-10T11:55:00.787Z</time>
      </trkpt>
      <trkpt lat="46.91978" lon="8.58548">
        <ele>849</ele>
        <time>2021-08-10T11:55:01.788Z</time>
      </trkpt>
      <trkpt lat="46.91978" lon="8.58548">
        <ele>850</ele>
        <time>2021-08-10T11:55:02.788Z</time>
      </trkpt>
      <trkpt lat="46.91978" lon="8.58548">
        <ele>850</ele>
        <time>2021-08-10T11:55:03.788Z</time>
      </trkpt>
      <trkpt lat="46.91978" lon="8.58549">
        <ele>851</ele>
        <time>2021-08-10T11:55:04.787Z</time>
      </trkpt>
      <trkpt lat="46.91978" lon="8.58549">
        <ele>851</ele>
        <time>2021-08-10T11:55:05.788Z</time>
      </trkpt>
      <trkpt lat="46.91979" lon="8.58549">
        <ele>852</ele>
        <time>2021-08-10T11:55:06.788Z</time>
      </trkpt>
      <trkpt lat="46.91979" lon="8.58548">
        <ele>852</ele>
        <time>2021-08-10T11:55:07.788Z</time>
      </trkpt>
      <trkpt lat="46.9198" lon="8.58547">
        <ele>853</ele>
        <time>2021-08-10T11:55:08.787Z</time>
      </trkpt>
      <trkpt lat="46.91981" lon="8.58545">
        <ele>854</ele>
        <time>2021-08-10T11:55:09.788Z</time>
      </trkpt>
      <trkpt lat="46.91981" lon="8.58544">
        <ele>854</ele>
        <time>2021-08-10T11:55:10.788Z</time>
      </trkpt>
      <trkpt lat="46.91982" lon="8.58544">
        <ele>855</ele>
        <time>2021-08-10T11:55:11.788Z</time>
      </trkpt>
      <trkpt lat="46.91982" lon="8.58544">
        <ele>855</ele>
        <time>2021-08-10T11:55:12.788Z</time>
      </trkpt>
      <trkpt lat="46.91982" lon="8.58544">
        <ele>855</ele>
        <time>2021-08-10T11:55:13.787Z</time>
      </trkpt>
      <trkpt lat="46.91983" lon="8.58544">
        <ele>856</ele>
        <time>2021-08-10T11:55:14.788Z</time>
      </trkpt>
      <trkpt lat="46.91983" lon="8.58544">
        <ele>856</ele>
        <time>2021-08-10T11:55:15.788Z</time>
      </trkpt>
      <trkpt lat="46.91984" lon="8.58544">
        <ele>856</ele>
        <time>2021-08-10T11:55:16.788Z</time>
      </trkpt>
      <trkpt lat="46.91984" lon="8.58544">
        <ele>857</ele>
        <time>2021-08-10T11:55:17.788Z</time>
      </trkpt>
      <trkpt lat="46.91985" lon="8.58543">
        <ele>857</ele>
        <time>2021-08-10T11:55:18.788Z</time>
      </trkpt>
      <trkpt lat="46.91985" lon="8.58543">
        <ele>857</ele>
        <time>2021-08-10T11:55:19.788Z</time>
      </trkpt>
      <trkpt lat="46.91986" lon="8.58542">
        <ele>858</ele>
        <time>2021-08-10T11:55:20.788Z</time>
      </trkpt>
      <trkpt lat="46.91986" lon="8.58541">
        <ele>858</ele>
        <time>2021-08-10T11:55:21.788Z</time>
      </trkpt>
      <trkpt lat="46.91986" lon="8.5854">
        <ele>859</ele>
        <time>2021-08-10T11:55:22.788Z</time>
      </trkpt>
      <trkpt lat="46.91987" lon="8.5854">
        <ele>860</ele>
        <time>2021-08-10T11:55:23.787Z</time>
      </trkpt>
      <trkpt lat="46.91986" lon="8.58541">
        <ele>860</ele>
        <time>2021-08-10T11:55:24.787Z</time>
      </trkpt>
      <trkpt lat="46.91985" lon="8.58541">
        <ele>861</ele>
        <time>2021-08-10T11:55:25.787Z</time>
      </trkpt>
      <trkpt lat="46.91984" lon="8.5854">
        <ele>861</ele>
        <time>2021-08-10T11:55:26.788Z</time>
      </trkpt>
      <trkpt lat="46.91983" lon="8.5854">
        <ele>861</ele>
        <time>2021-08-10T11:55:27.788Z</time>
      </trkpt>
      <trkpt lat="46.91981" lon="8.58541">
        <ele>862</ele>
        <time>2021-08-10T11:55:31.892Z</time>
      </trkpt>
      <trkpt lat="46.9198" lon="8.58542">
        <ele>862</ele>
        <time>2021-08-10T11:55:32.892Z</time>
      </trkpt>
      <trkpt lat="46.9198" lon="8.58543">
        <ele>862</ele>
        <time>2021-08-10T11:55:33.892Z</time>
      </trkpt>
      <trkpt lat="46.91979" lon="8.58544">
        <ele>862</ele>
        <time>2021-08-10T11:55:34.891Z</time>
      </trkpt>
      <trkpt lat="46.91979" lon="8.58544">
        <ele>862</ele>
        <time>2021-08-10T11:55:35.891Z</time>
      </trkpt>
      <trkpt lat="46.91978" lon="8.58545">
        <ele>862</ele>
        <time>2021-08-10T11:55:43.902Z</time>
      </trkpt>
      <trkpt lat="46.91977" lon="8.58544">
        <ele>863</ele>
        <time>2021-08-10T11:55:44.901Z</time>
      </trkpt>
      <trkpt lat="46.91977" lon="8.58544">
        <ele>863</ele>
        <time>2021-08-10T11:55:45.901Z</time>
      </trkpt>
      <trkpt lat="46.91977" lon="8.58544">
        <ele>863</ele>
        <time>2021-08-10T11:55:46.902Z</time>
      </trkpt>
      <trkpt lat="46.91978" lon="8.58543">
        <ele>864</ele>
        <time>2021-08-10T11:55:47.904Z</time>
      </trkpt>
      <trkpt lat="46.91978" lon="8.58542">
        <ele>864</ele>
        <time>2021-08-10T11:56:01.017Z</time>
      </trkpt>
      <trkpt lat="46.91978" lon="8.58542">
        <ele>864</ele>
        <time>2021-08-10T11:56:02.016Z</time>
      </trkpt>
      <trkpt lat="46.91979" lon="8.58542">
        <ele>865</ele>
        <time>2021-08-10T11:56:04.792Z</time>
      </trkpt>
      <trkpt lat="46.91979" lon="8.58542">
        <ele>865</ele>
        <time>2021-08-10T11:56:51.664Z</time>
      </trkpt>
      <trkpt lat="46.9198" lon="8.58541">
        <ele>866</ele>
        <time>2021-08-10T11:56:52.664Z</time>
      </trkpt>
      <trkpt lat="46.91981" lon="8.58541">
        <ele>866</ele>
        <time>2021-08-10T11:56:53.664Z</time>
      </trkpt>
      <trkpt lat="46.91983" lon="8.58538">
        <ele>865</ele>
        <time>2021-08-10T11:56:54.664Z</time>
      </trkpt>
      <trkpt lat="46.91984" lon="8.58536">
        <ele>864</ele>
        <time>2021-08-10T11:56:55.665Z</time>
      </trkpt>
      <trkpt lat="46.91986" lon="8.58534">
        <ele>864</ele>
        <time>2021-08-10T11:56:56.664Z</time>
      </trkpt>
      <trkpt lat="46.91988" lon="8.58532">
        <ele>863</ele>
        <time>2021-08-10T11:56:57.665Z</time>
      </trkpt>
      <trkpt lat="46.9199" lon="8.58531">
        <ele>863</ele>
        <time>2021-08-10T11:56:58.665Z</time>
      </trkpt>
      <trkpt lat="46.91991" lon="8.5853">
        <ele>863</ele>
        <time>2021-08-10T11:56:59.665Z</time>
      </trkpt>
      <trkpt lat="46.91992" lon="8.58529">
        <ele>863</ele>
        <time>2021-08-10T11:57:00.665Z</time>
      </trkpt>
      <trkpt lat="46.91992" lon="8.58528">
        <ele>863</ele>
        <time>2021-08-10T11:57:01.665Z</time>
      </trkpt>
      <trkpt lat="46.91993" lon="8.58527">
        <ele>863</ele>
        <time>2021-08-10T11:57:02.665Z</time>
      </trkpt>
      <trkpt lat="46.91993" lon="8.58526">
        <ele>864</ele>
        <time>2021-08-10T11:57:03.665Z</time>
      </trkpt>
      <trkpt lat="46.91994" lon="8.58525">
        <ele>864</ele>
        <time>2021-08-10T11:57:04.665Z</time>
      </trkpt>
      <trkpt lat="46.91994" lon="8.58525">
        <ele>864</ele>
        <time>2021-08-10T11:57:05.665Z</time>
      </trkpt>
      <trkpt lat="46.91994" lon="8.58524">
        <ele>864</ele>
        <time>2021-08-10T11:57:06.665Z</time>
      </trkpt>
      <trkpt lat="46.91994" lon="8.58524">
        <ele>865</ele>
        <time>2021-08-10T11:57:07.665Z</time>
      </trkpt>
      <trkpt lat="46.91995" lon="8.58523">
        <ele>865</ele>
        <time>2021-08-10T11:57:08.665Z</time>
      </trkpt>
      <trkpt lat="46.91995" lon="8.58523">
        <ele>865</ele>
        <time>2021-08-10T11:57:09.665Z</time>
      </trkpt>
      <trkpt lat="46.91995" lon="8.58523">
        <ele>866</ele>
        <time>2021-08-10T11:57:10.665Z</time>
      </trkpt>
      <trkpt lat="46.91995" lon="8.58523">
        <ele>866</ele>
        <time>2021-08-10T11:57:11.665Z</time>
      </trkpt>
      <trkpt lat="46.91995" lon="8.58524">
        <ele>866</ele>
        <time>2021-08-10T11:57:12.665Z</time>
      </trkpt>
      <trkpt lat="46.91994" lon="8.58524">
        <ele>867</ele>
        <time>2021-08-10T11:57:13.665Z</time>
      </trkpt>
      <trkpt lat="46.91995" lon="8.58523">
        <ele>867</ele>
        <time>2021-08-10T11:57:14.665Z</time>
      </trkpt>
      <trkpt lat="46.91996" lon="8.58529">
        <ele>869</ele>
        <time>2021-08-10T11:57:15.665Z</time>
      </trkpt>
      <trkpt lat="46.91996" lon="8.58529">
        <ele>869</ele>
        <time>2021-08-10T11:57:16.665Z</time>
      </trkpt>
      <trkpt lat="46.91996" lon="8.58529">
        <ele>869</ele>
        <time>2021-08-10T11:57:17.664Z</time>
      </trkpt>
      <trkpt lat="46.91997" lon="8.58529">
        <ele>870</ele>
        <time>2021-08-10T11:57:18.664Z</time>
      </trkpt>
      <trkpt lat="46.91997" lon="8.58529">
        <ele>871</ele>
        <time>2021-08-10T11:57:19.664Z</time>
      </trkpt>
      <trkpt lat="46.91997" lon="8.58528">
        <ele>871</ele>
        <time>2021-08-10T11:57:20.664Z</time>
      </trkpt>
      <trkpt lat="46.91997" lon="8.58528">
        <ele>871</ele>
        <time>2021-08-10T11:57:21.665Z</time>
      </trkpt>
      <trkpt lat="46.91997" lon="8.58529">
        <ele>872</ele>
        <time>2021-08-10T11:57:22.665Z</time>
      </trkpt>
      <trkpt lat="46.91996" lon="8.5853">
        <ele>872</ele>
        <time>2021-08-10T11:57:23.665Z</time>
      </trkpt>
      <trkpt lat="46.91997" lon="8.5853">
        <ele>872</ele>
        <time>2021-08-10T11:57:24.666Z</time>
      </trkpt>
      <trkpt lat="46.91997" lon="8.5853">
        <ele>872</ele>
        <time>2021-08-10T11:57:25.665Z</time>
      </trkpt>
      <trkpt lat="46.91996" lon="8.58528">
        <ele>873</ele>
        <time>2021-08-10T11:57:26.666Z</time>
      </trkpt>
      <trkpt lat="46.91996" lon="8.58528">
        <ele>874</ele>
        <time>2021-08-10T11:57:27.667Z</time>
      </trkpt>
      <trkpt lat="46.91995" lon="8.58528">
        <ele>874</ele>
        <time>2021-08-10T11:57:28.666Z</time>
      </trkpt>
      <trkpt lat="46.91995" lon="8.58528">
        <ele>874</ele>
        <time>2021-08-10T11:57:29.667Z</time>
      </trkpt>
      <trkpt lat="46.91995" lon="8.58527">
        <ele>875</ele>
        <time>2021-08-10T11:57:30.666Z</time>
      </trkpt>
      <trkpt lat="46.91995" lon="8.58526">
        <ele>875</ele>
        <time>2021-08-10T11:57:31.666Z</time>
      </trkpt>
      <trkpt lat="46.91994" lon="8.58525">
        <ele>876</ele>
        <time>2021-08-10T11:57:32.667Z</time>
      </trkpt>
      <trkpt lat="46.91994" lon="8.58524">
        <ele>876</ele>
        <time>2021-08-10T11:57:33.667Z</time>
      </trkpt>
      <trkpt lat="46.91993" lon="8.58523">
        <ele>877</ele>
        <time>2021-08-10T11:57:34.666Z</time>
      </trkpt>
      <trkpt lat="46.91992" lon="8.58522">
        <ele>877</ele>
        <time>2021-08-10T11:57:35.667Z</time>
      </trkpt>
      <trkpt lat="46.91992" lon="8.58521">
        <ele>878</ele>
        <time>2021-08-10T11:57:36.667Z</time>
      </trkpt>
      <trkpt lat="46.91991" lon="8.5852">
        <ele>878</ele>
        <time>2021-08-10T11:57:37.667Z</time>
      </trkpt>
      <trkpt lat="46.9199" lon="8.58519">
        <ele>879</ele>
        <time>2021-08-10T11:57:38.667Z</time>
      </trkpt>
      <trkpt lat="46.91989" lon="8.58519">
        <ele>879</ele>
        <time>2021-08-10T11:57:39.667Z</time>
      </trkpt>
      <trkpt lat="46.91989" lon="8.58519">
        <ele>880</ele>
        <time>2021-08-10T11:57:40.667Z</time>
      </trkpt>
      <trkpt lat="46.91989" lon="8.5852">
        <ele>881</ele>
        <time>2021-08-10T11:57:41.667Z</time>
      </trkpt>
      <trkpt lat="46.91989" lon="8.5852">
        <ele>881</ele>
        <time>2021-08-10T11:57:42.666Z</time>
      </trkpt>
      <trkpt lat="46.91989" lon="8.58519">
        <ele>881</ele>
        <time>2021-08-10T11:57:43.666Z</time>
      </trkpt>
      <trkpt lat="46.91989" lon="8.58518">
        <ele>882</ele>
        <time>2021-08-10T11:57:44.667Z</time>
      </trkpt>
      <trkpt lat="46.91988" lon="8.58518">
        <ele>882</ele>
        <time>2021-08-10T11:57:45.667Z</time>
      </trkpt>
      <trkpt lat="46.91987" lon="8.58517">
        <ele>882</ele>
        <time>2021-08-10T11:57:46.667Z</time>
      </trkpt>
      <trkpt lat="46.91986" lon="8.58516">
        <ele>883</ele>
        <time>2021-08-10T11:57:47.666Z</time>
      </trkpt>
      <trkpt lat="46.91985" lon="8.58515">
        <ele>883</ele>
        <time>2021-08-10T11:57:48.667Z</time>
      </trkpt>
      <trkpt lat="46.91985" lon="8.58515">
        <ele>883</ele>
        <time>2021-08-10T11:57:49.667Z</time>
      </trkpt>
      <trkpt lat="46.91984" lon="8.58513">
        <ele>884</ele>
        <time>2021-08-10T11:57:50.667Z</time>
      </trkpt>
      <trkpt lat="46.91983" lon="8.58512">
        <ele>884</ele>
        <time>2021-08-10T11:57:51.666Z</time>
      </trkpt>
      <trkpt lat="46.91983" lon="8.58512">
        <ele>884</ele>
        <time>2021-08-10T11:57:52.667Z</time>
      </trkpt>
      <trkpt lat="46.91983" lon="8.58511">
        <ele>884</ele>
        <time>2021-08-10T11:57:53.667Z</time>
      </trkpt>
      <trkpt lat="46.91982" lon="8.58509">
        <ele>884</ele>
        <time>2021-08-10T11:57:54.666Z</time>
      </trkpt>
      <trkpt lat="46.91981" lon="8.58508">
        <ele>884</ele>
        <time>2021-08-10T11:57:55.667Z</time>
      </trkpt>
      <trkpt lat="46.9198" lon="8.58506">
        <ele>884</ele>
        <time>2021-08-10T11:57:56.667Z</time>
      </trkpt>
      <trkpt lat="46.9198" lon="8.58506">
        <ele>885</ele>
        <time>2021-08-10T11:57:57.666Z</time>
      </trkpt>
      <trkpt lat="46.91978" lon="8.58505">
        <ele>885</ele>
        <time>2021-08-10T11:57:58.667Z</time>
      </trkpt>
      <trkpt lat="46.91977" lon="8.58505">
        <ele>885</ele>
        <time>2021-08-10T11:57:59.667Z</time>
      </trkpt>
      <trkpt lat="46.91976" lon="8.58505">
        <ele>885</ele>
        <time>2021-08-10T11:58:00.667Z</time>
      </trkpt>
      <trkpt lat="46.91975" lon="8.58504">
        <ele>885</ele>
        <time>2021-08-10T11:58:01.666Z</time>
      </trkpt>
      <trkpt lat="46.91974" lon="8.58504">
        <ele>886</ele>
        <time>2021-08-10T11:58:02.666Z</time>
      </trkpt>
      <trkpt lat="46.91973" lon="8.58504">
        <ele>886</ele>
        <time>2021-08-10T11:58:03.667Z</time>
      </trkpt>
      <trkpt lat="46.91973" lon="8.58505">
        <ele>887</ele>
        <time>2021-08-10T11:58:04.666Z</time>
      </trkpt>
      <trkpt lat="46.91972" lon="8.58507">
        <ele>887</ele>
        <time>2021-08-10T11:58:05.667Z</time>
      </trkpt>
      <trkpt lat="46.91972" lon="8.58508">
        <ele>887</ele>
        <time>2021-08-10T11:58:06.667Z</time>
      </trkpt>
      <trkpt lat="46.91971" lon="8.58508">
        <ele>887</ele>
        <time>2021-08-10T11:58:07.667Z</time>
      </trkpt>
      <trkpt lat="46.91971" lon="8.58509">
        <ele>887</ele>
        <time>2021-08-10T11:58:08.667Z</time>
      </trkpt>
      <trkpt lat="46.91971" lon="8.58509">
        <ele>887</ele>
        <time>2021-08-10T11:58:09.667Z</time>
      </trkpt>
      <trkpt lat="46.91971" lon="8.58509">
        <ele>887</ele>
        <time>2021-08-10T11:58:10.667Z</time>
      </trkpt>
      <trkpt lat="46.9197" lon="8.58508">
        <ele>888</ele>
        <time>2021-08-10T11:58:11.667Z</time>
      </trkpt>
      <trkpt lat="46.91969" lon="8.58507">
        <ele>888</ele>
        <time>2021-08-10T11:58:12.666Z</time>
      </trkpt>
      <trkpt lat="46.91969" lon="8.58507">
        <ele>888</ele>
        <time>2021-08-10T11:58:13.667Z</time>
      </trkpt>
      <trkpt lat="46.91968" lon="8.58506">
        <ele>888</ele>
        <time>2021-08-10T11:58:14.667Z</time>
      </trkpt>
      <trkpt lat="46.91967" lon="8.58506">
        <ele>888</ele>
        <time>2021-08-10T11:58:15.666Z</time>
      </trkpt>
      <trkpt lat="46.91966" lon="8.58507">
        <ele>888</ele>
        <time>2021-08-10T11:58:16.666Z</time>
      </trkpt>
      <trkpt lat="46.91966" lon="8.58507">
        <ele>888</ele>
        <time>2021-08-10T11:58:17.667Z</time>
      </trkpt>
      <trkpt lat="46.91965" lon="8.58507">
        <ele>888</ele>
        <time>2021-08-10T11:58:18.667Z</time>
      </trkpt>
      <trkpt lat="46.91965" lon="8.58508">
        <ele>888</ele>
        <time>2021-08-10T11:58:19.666Z</time>
      </trkpt>
      <trkpt lat="46.91964" lon="8.58508">
        <ele>888</ele>
        <time>2021-08-10T11:58:20.666Z</time>
      </trkpt>
      <trkpt lat="46.91964" lon="8.58508">
        <ele>888</ele>
        <time>2021-08-10T11:58:21.667Z</time>
      </trkpt>
      <trkpt lat="46.91963" lon="8.58508">
        <ele>888</ele>
        <time>2021-08-10T11:58:22.667Z</time>
      </trkpt>
      <trkpt lat="46.91962" lon="8.58508">
        <ele>888</ele>
        <time>2021-08-10T11:58:23.666Z</time>
      </trkpt>
      <trkpt lat="46.91962" lon="8.58508">
        <ele>888</ele>
        <time>2021-08-10T11:58:24.666Z</time>
      </trkpt>
      <trkpt lat="46.91961" lon="8.58508">
        <ele>889</ele>
        <time>2021-08-10T11:58:25.667Z</time>
      </trkpt>
      <trkpt lat="46.91961" lon="8.58507">
        <ele>889</ele>
        <time>2021-08-10T11:58:26.666Z</time>
      </trkpt>
      <trkpt lat="46.9196" lon="8.58507">
        <ele>889</ele>
        <time>2021-08-10T11:58:27.667Z</time>
      </trkpt>
      <trkpt lat="46.9196" lon="8.58508">
        <ele>889</ele>
        <time>2021-08-10T11:58:28.667Z</time>
      </trkpt>
      <trkpt lat="46.91959" lon="8.58508">
        <ele>888</ele>
        <time>2021-08-10T11:58:29.667Z</time>
      </trkpt>
      <trkpt lat="46.91958" lon="8.58508">
        <ele>887</ele>
        <time>2021-08-10T11:58:30.666Z</time>
      </trkpt>
      <trkpt lat="46.91957" lon="8.58508">
        <ele>887</ele>
        <time>2021-08-10T11:58:31.667Z</time>
      </trkpt>
      <trkpt lat="46.91957" lon="8.58508">
        <ele>886</ele>
        <time>2021-08-10T11:58:32.667Z</time>
      </trkpt>
      <trkpt lat="46.91956" lon="8.58508">
        <ele>885</ele>
        <time>2021-08-10T11:58:33.667Z</time>
      </trkpt>
      <trkpt lat="46.91956" lon="8.58508">
        <ele>885</ele>
        <time>2021-08-10T11:58:34.666Z</time>
      </trkpt>
      <trkpt lat="46.91955" lon="8.58507">
        <ele>884</ele>
        <time>2021-08-10T11:58:35.667Z</time>
      </trkpt>
      <trkpt lat="46.91954" lon="8.58506">
        <ele>882</ele>
        <time>2021-08-10T11:58:36.667Z</time>
      </trkpt>
      <trkpt lat="46.91954" lon="8.58505">
        <ele>882</ele>
        <time>2021-08-10T11:58:37.667Z</time>
      </trkpt>
      <trkpt lat="46.91953" lon="8.58504">
        <ele>881</ele>
        <time>2021-08-10T11:58:38.667Z</time>
      </trkpt>
      <trkpt lat="46.91953" lon="8.58503">
        <ele>880</ele>
        <time>2021-08-10T11:58:39.667Z</time>
      </trkpt>
      <trkpt lat="46.91952" lon="8.58502">
        <ele>879</ele>
        <time>2021-08-10T11:58:40.667Z</time>
      </trkpt>
      <trkpt lat="46.91952" lon="8.58502">
        <ele>878</ele>
        <time>2021-08-10T11:58:41.667Z</time>
      </trkpt>
      <trkpt lat="46.91951" lon="8.58503">
        <ele>878</ele>
        <time>2021-08-10T11:58:42.667Z</time>
      </trkpt>
      <trkpt lat="46.9195" lon="8.58503">
        <ele>877</ele>
        <time>2021-08-10T11:58:43.666Z</time>
      </trkpt>
      <trkpt lat="46.9195" lon="8.58503">
        <ele>877</ele>
        <time>2021-08-10T11:58:44.667Z</time>
      </trkpt>
      <trkpt lat="46.91949" lon="8.58503">
        <ele>876</ele>
        <time>2021-08-10T11:58:45.667Z</time>
      </trkpt>
      <trkpt lat="46.91948" lon="8.58504">
        <ele>876</ele>
        <time>2021-08-10T11:58:46.667Z</time>
      </trkpt>
      <trkpt lat="46.91948" lon="8.58504">
        <ele>875</ele>
        <time>2021-08-10T11:58:47.666Z</time>
      </trkpt>
      <trkpt lat="46.91947" lon="8.58504">
        <ele>874</ele>
        <time>2021-08-10T11:58:48.667Z</time>
      </trkpt>
      <trkpt lat="46.91947" lon="8.58504">
        <ele>874</ele>
        <time>2021-08-10T11:58:49.667Z</time>
      </trkpt>
      <trkpt lat="46.91946" lon="8.58504">
        <ele>873</ele>
        <time>2021-08-10T11:58:50.666Z</time>
      </trkpt>
      <trkpt lat="46.91945" lon="8.58505">
        <ele>873</ele>
        <time>2021-08-10T11:58:51.667Z</time>
      </trkpt>
      <trkpt lat="46.91944" lon="8.58505">
        <ele>873</ele>
        <time>2021-08-10T11:58:52.667Z</time>
      </trkpt>
      <trkpt lat="46.91944" lon="8.58505">
        <ele>874</ele>
        <time>2021-08-10T11:58:53.666Z</time>
      </trkpt>
      <trkpt lat="46.91943" lon="8.58504">
        <ele>874</ele>
        <time>2021-08-10T11:58:54.667Z</time>
      </trkpt>
      <trkpt lat="46.91942" lon="8.58504">
        <ele>875</ele>
        <time>2021-08-10T11:58:55.667Z</time>
      </trkpt>
      <trkpt lat="46.91941" lon="8.58504">
        <ele>875</ele>
        <time>2021-08-10T11:58:56.667Z</time>
      </trkpt>
      <trkpt lat="46.91941" lon="8.58504">
        <ele>875</ele>
        <time>2021-08-10T11:58:57.667Z</time>
      </trkpt>
      <trkpt lat="46.9194" lon="8.58504">
        <ele>874</ele>
        <time>2021-08-10T11:58:58.667Z</time>
      </trkpt>
      <trkpt lat="46.9194" lon="8.58505">
        <ele>874</ele>
        <time>2021-08-10T11:58:59.667Z</time>
      </trkpt>
      <trkpt lat="46.9194" lon="8.58505">
        <ele>874</ele>
        <time>2021-08-10T11:59:00.667Z</time>
      </trkpt>
      <trkpt lat="46.91939" lon="8.58505">
        <ele>874</ele>
        <time>2021-08-10T11:59:01.667Z</time>
      </trkpt>
      <trkpt lat="46.91938" lon="8.58506">
        <ele>874</ele>
        <time>2021-08-10T11:59:02.667Z</time>
      </trkpt>
      <trkpt lat="46.91938" lon="8.58505">
        <ele>874</ele>
        <time>2021-08-10T11:59:03.666Z</time>
      </trkpt>
      <trkpt lat="46.91937" lon="8.58505">
        <ele>874</ele>
        <time>2021-08-10T11:59:04.666Z</time>
      </trkpt>
      <trkpt lat="46.91936" lon="8.58505">
        <ele>874</ele>
        <time>2021-08-10T11:59:05.667Z</time>
      </trkpt>
      <trkpt lat="46.91936" lon="8.58505">
        <ele>874</ele>
        <time>2021-08-10T11:59:06.667Z</time>
      </trkpt>
      <trkpt lat="46.91936" lon="8.58505">
        <ele>874</ele>
        <time>2021-08-10T11:59:07.667Z</time>
      </trkpt>
      <trkpt lat="46.91936" lon="8.58505">
        <ele>874</ele>
        <time>2021-08-10T11:59:08.667Z</time>
      </trkpt>
      <trkpt lat="46.91935" lon="8.58504">
        <ele>874</ele>
        <time>2021-08-10T11:59:09.666Z</time>
      </trkpt>
      <trkpt lat="46.91936" lon="8.58504">
        <ele>874</ele>
        <time>2021-08-10T11:59:10.667Z</time>
      </trkpt>
      <trkpt lat="46.91936" lon="8.58504">
        <ele>875</ele>
        <time>2021-08-10T11:59:11.667Z</time>
      </trkpt>
      <trkpt lat="46.91935" lon="8.58505">
        <ele>875</ele>
        <time>2021-08-10T11:59:12.667Z</time>
      </trkpt>
      <trkpt lat="46.91935" lon="8.58505">
        <ele>874</ele>
        <time>2021-08-10T11:59:13.667Z</time>
      </trkpt>
      <trkpt lat="46.91934" lon="8.58505">
        <ele>874</ele>
        <time>2021-08-10T11:59:14.667Z</time>
      </trkpt>
      <trkpt lat="46.91934" lon="8.58506">
        <ele>874</ele>
        <time>2021-08-10T11:59:15.666Z</time>
      </trkpt>
      <trkpt lat="46.91933" lon="8.58506">
        <ele>873</ele>
        <time>2021-08-10T11:59:16.666Z</time>
      </trkpt>
      <trkpt lat="46.91933" lon="8.58506">
        <ele>873</ele>
        <time>2021-08-10T11:59:17.666Z</time>
      </trkpt>
      <trkpt lat="46.91932" lon="8.58507">
        <ele>873</ele>
        <time>2021-08-10T11:59:18.666Z</time>
      </trkpt>
      <trkpt lat="46.91931" lon="8.58507">
        <ele>873</ele>
        <time>2021-08-10T11:59:19.667Z</time>
      </trkpt>
      <trkpt lat="46.91931" lon="8.58508">
        <ele>873</ele>
        <time>2021-08-10T11:59:20.667Z</time>
      </trkpt>
      <trkpt lat="46.9193" lon="8.58508">
        <ele>874</ele>
        <time>2021-08-10T11:59:21.666Z</time>
      </trkpt>
      <trkpt lat="46.91929" lon="8.58509">
        <ele>874</ele>
        <time>2021-08-10T11:59:22.667Z</time>
      </trkpt>
      <trkpt lat="46.91929" lon="8.58509">
        <ele>874</ele>
        <time>2021-08-10T11:59:23.667Z</time>
      </trkpt>
      <trkpt lat="46.91928" lon="8.58509">
        <ele>875</ele>
        <time>2021-08-10T11:59:24.666Z</time>
      </trkpt>
      <trkpt lat="46.91928" lon="8.58509">
        <ele>875</ele>
        <time>2021-08-10T11:59:25.667Z</time>
      </trkpt>
      <trkpt lat="46.91928" lon="8.58509">
        <ele>875</ele>
        <time>2021-08-10T11:59:26.666Z</time>
      </trkpt>
      <trkpt lat="46.91926" lon="8.58512">
        <ele>876</ele>
        <time>2021-08-10T11:59:27.667Z</time>
      </trkpt>
      <trkpt lat="46.91925" lon="8.58513">
        <ele>877</ele>
        <time>2021-08-10T11:59:28.667Z</time>
      </trkpt>
      <trkpt lat="46.91923" lon="8.58514">
        <ele>877</ele>
        <time>2021-08-10T11:59:29.666Z</time>
      </trkpt>
      <trkpt lat="46.91922" lon="8.58514">
        <ele>878</ele>
        <time>2021-08-10T11:59:30.667Z</time>
      </trkpt>
      <trkpt lat="46.91922" lon="8.58513">
        <ele>878</ele>
        <time>2021-08-10T11:59:31.667Z</time>
      </trkpt>
      <trkpt lat="46.91922" lon="8.58513">
        <ele>878</ele>
        <time>2021-08-10T11:59:32.666Z</time>
      </trkpt>
      <trkpt lat="46.91921" lon="8.58514">
        <ele>878</ele>
        <time>2021-08-10T11:59:33.666Z</time>
      </trkpt>
      <trkpt lat="46.9192" lon="8.58514">
        <ele>877</ele>
        <time>2021-08-10T11:59:34.666Z</time>
      </trkpt>
      <trkpt lat="46.9192" lon="8.58515">
        <ele>877</ele>
        <time>2021-08-10T11:59:35.667Z</time>
      </trkpt>
      <trkpt lat="46.91919" lon="8.58515">
        <ele>877</ele>
        <time>2021-08-10T11:59:36.667Z</time>
      </trkpt>
      <trkpt lat="46.91918" lon="8.58515">
        <ele>877</ele>
        <time>2021-08-10T11:59:37.666Z</time>
      </trkpt>
      <trkpt lat="46.91918" lon="8.58515">
        <ele>876</ele>
        <time>2021-08-10T11:59:38.667Z</time>
      </trkpt>
      <trkpt lat="46.91917" lon="8.58516">
        <ele>876</ele>
        <time>2021-08-10T11:59:39.666Z</time>
      </trkpt>
      <trkpt lat="46.91917" lon="8.58516">
        <ele>875</ele>
        <time>2021-08-10T11:59:40.667Z</time>
      </trkpt>
      <trkpt lat="46.91916" lon="8.58517">
        <ele>875</ele>
        <time>2021-08-10T11:59:41.666Z</time>
      </trkpt>
      <trkpt lat="46.91916" lon="8.58517">
        <ele>875</ele>
        <time>2021-08-10T11:59:42.667Z</time>
      </trkpt>
      <trkpt lat="46.91915" lon="8.58517">
        <ele>875</ele>
        <time>2021-08-10T11:59:43.666Z</time>
      </trkpt>
      <trkpt lat="46.91914" lon="8.58517">
        <ele>876</ele>
        <time>2021-08-10T11:59:44.666Z</time>
      </trkpt>
      <trkpt lat="46.91913" lon="8.58517">
        <ele>876</ele>
        <time>2021-08-10T11:59:45.667Z</time>
      </trkpt>
      <trkpt lat="46.91913" lon="8.58517">
        <ele>876</ele>
        <time>2021-08-10T11:59:46.666Z</time>
      </trkpt>
      <trkpt lat="46.91912" lon="8.58518">
        <ele>876</ele>
        <time>2021-08-10T11:59:47.667Z</time>
      </trkpt>
      <trkpt lat="46.91912" lon="8.58518">
        <ele>876</ele>
        <time>2021-08-10T11:59:48.666Z</time>
      </trkpt>
      <trkpt lat="46.91911" lon="8.58518">
        <ele>876</ele>
        <time>2021-08-10T11:59:49.667Z</time>
      </trkpt>
      <trkpt lat="46.9191" lon="8.58518">
        <ele>876</ele>
        <time>2021-08-10T11:59:50.667Z</time>
      </trkpt>
      <trkpt lat="46.9191" lon="8.58519">
        <ele>876</ele>
        <time>2021-08-10T11:59:51.666Z</time>
      </trkpt>
      <trkpt lat="46.91909" lon="8.58519">
        <ele>876</ele>
        <time>2021-08-10T11:59:52.667Z</time>
      </trkpt>
      <trkpt lat="46.91908" lon="8.58519">
        <ele>876</ele>
        <time>2021-08-10T11:59:53.667Z</time>
      </trkpt>
      <trkpt lat="46.91907" lon="8.58519">
        <ele>876</ele>
        <time>2021-08-10T11:59:54.667Z</time>
      </trkpt>
      <trkpt lat="46.91906" lon="8.5852">
        <ele>876</ele>
        <time>2021-08-10T11:59:55.667Z</time>
      </trkpt>
      <trkpt lat="46.91906" lon="8.5852">
        <ele>877</ele>
        <time>2021-08-10T11:59:56.666Z</time>
      </trkpt>
      <trkpt lat="46.91905" lon="8.5852">
        <ele>877</ele>
        <time>2021-08-10T11:59:57.666Z</time>
      </trkpt>
      <trkpt lat="46.91904" lon="8.5852">
        <ele>877</ele>
        <time>2021-08-10T12:00:07.811Z</time>
      </trkpt>
      <trkpt lat="46.91904" lon="8.5852">
        <ele>878</ele>
        <time>2021-08-10T12:00:14.684Z</time>
      </trkpt>
      <trkpt lat="46.91903" lon="8.58521">
        <ele>878</ele>
        <time>2021-08-10T12:00:24.581Z</time>
      </trkpt>
      <trkpt lat="46.91903" lon="8.5852">
        <ele>878</ele>
        <time>2021-08-10T12:00:25.580Z</time>
      </trkpt>
      <trkpt lat="46.91902" lon="8.5852">
        <ele>878</ele>
        <time>2021-08-10T12:00:26.581Z</time>
      </trkpt>
      <trkpt lat="46.91901" lon="8.5852">
        <ele>878</ele>
        <time>2021-08-10T12:00:27.580Z</time>
      </trkpt>
      <trkpt lat="46.91901" lon="8.58521">
        <ele>878</ele>
        <time>2021-08-10T12:00:28.581Z</time>
      </trkpt>
      <trkpt lat="46.919" lon="8.5852">
        <ele>878</ele>
        <time>2021-08-10T12:00:30.659Z</time>
      </trkpt>
      <trkpt lat="46.91899" lon="8.5852">
        <ele>879</ele>
        <time>2021-08-10T12:00:31.659Z</time>
      </trkpt>
      <trkpt lat="46.91899" lon="8.58519">
        <ele>879</ele>
        <time>2021-08-10T12:00:32.660Z</time>
      </trkpt>
      <trkpt lat="46.91897" lon="8.58519">
        <ele>879</ele>
        <time>2021-08-10T12:00:33.659Z</time>
      </trkpt>
      <trkpt lat="46.91897" lon="8.58518">
        <ele>879</ele>
        <time>2021-08-10T12:00:34.659Z</time>
      </trkpt>
      <trkpt lat="46.91896" lon="8.58517">
        <ele>880</ele>
        <time>2021-08-10T12:00:35.660Z</time>
      </trkpt>
      <trkpt lat="46.91895" lon="8.58518">
        <ele>880</ele>
        <time>2021-08-10T12:00:36.660Z</time>
      </trkpt>
      <trkpt lat="46.91894" lon="8.58518">
        <ele>881</ele>
        <time>2021-08-10T12:00:37.660Z</time>
      </trkpt>
      <trkpt lat="46.91893" lon="8.58517">
        <ele>882</ele>
        <time>2021-08-10T12:00:38.660Z</time>
      </trkpt>
      <trkpt lat="46.91893" lon="8.58517">
        <ele>882</ele>
        <time>2021-08-10T12:00:39.660Z</time>
      </trkpt>
      <trkpt lat="46.91892" lon="8.58516">
        <ele>883</ele>
        <time>2021-08-10T12:00:40.660Z</time>
      </trkpt>
      <trkpt lat="46.91892" lon="8.58516">
        <ele>883</ele>
        <time>2021-08-10T12:00:41.660Z</time>
      </trkpt>
      <trkpt lat="46.91892" lon="8.58515">
        <ele>884</ele>
        <time>2021-08-10T12:00:42.660Z</time>
      </trkpt>
      <trkpt lat="46.91891" lon="8.58515">
        <ele>884</ele>
        <time>2021-08-10T12:00:43.660Z</time>
      </trkpt>
      <trkpt lat="46.9189" lon="8.58514">
        <ele>885</ele>
        <time>2021-08-10T12:00:44.660Z</time>
      </trkpt>
      <trkpt lat="46.91889" lon="8.58514">
        <ele>886</ele>
        <time>2021-08-10T12:00:45.660Z</time>
      </trkpt>
      <trkpt lat="46.91889" lon="8.58514">
        <ele>886</ele>
        <time>2021-08-10T12:00:46.660Z</time>
      </trkpt>
      <trkpt lat="46.91889" lon="8.58514">
        <ele>886</ele>
        <time>2021-08-10T12:00:47.660Z</time>
      </trkpt>
      <trkpt lat="46.91889" lon="8.58515">
        <ele>886</ele>
        <time>2021-08-10T12:00:48.660Z</time>
      </trkpt>
      <trkpt lat="46.91889" lon="8.58517">
        <ele>885</ele>
        <time>2021-08-10T12:00:49.660Z</time>
      </trkpt>
      <trkpt lat="46.91889" lon="8.58518">
        <ele>885</ele>
        <time>2021-08-10T12:00:50.661Z</time>
      </trkpt>
      <trkpt lat="46.91888" lon="8.58518">
        <ele>885</ele>
        <time>2021-08-10T12:00:51.660Z</time>
      </trkpt>
      <trkpt lat="46.91888" lon="8.58518">
        <ele>885</ele>
        <time>2021-08-10T12:00:54.622Z</time>
      </trkpt>
      <trkpt lat="46.91888" lon="8.58518">
        <ele>886</ele>
        <time>2021-08-10T12:00:55.622Z</time>
      </trkpt>
      <trkpt lat="46.91888" lon="8.58518">
        <ele>887</ele>
        <time>2021-08-10T12:00:56.621Z</time>
      </trkpt>
      <trkpt lat="46.91887" lon="8.58517">
        <ele>887</ele>
        <time>2021-08-10T12:00:57.621Z</time>
      </trkpt>
      <trkpt lat="46.91887" lon="8.58517">
        <ele>888</ele>
        <time>2021-08-10T12:00:58.622Z</time>
      </trkpt>
      <trkpt lat="46.91885" lon="8.58517">
        <ele>888</ele>
        <time>2021-08-10T12:00:59.622Z</time>
      </trkpt>
      <trkpt lat="46.91885" lon="8.58516">
        <ele>888</ele>
        <time>2021-08-10T12:01:00.622Z</time>
      </trkpt>
      <trkpt lat="46.91884" lon="8.58517">
        <ele>888</ele>
        <time>2021-08-10T12:01:01.622Z</time>
      </trkpt>
      <trkpt lat="46.91883" lon="8.58517">
        <ele>888</ele>
        <time>2021-08-10T12:01:02.622Z</time>
      </trkpt>
      <trkpt lat="46.91883" lon="8.58517">
        <ele>888</ele>
        <time>2021-08-10T12:01:03.622Z</time>
      </trkpt>
      <trkpt lat="46.91883" lon="8.58517">
        <ele>888</ele>
        <time>2021-08-10T12:01:04.622Z</time>
      </trkpt>
      <trkpt lat="46.91882" lon="8.58517">
        <ele>887</ele>
        <time>2021-08-10T12:01:05.621Z</time>
      </trkpt>
      <trkpt lat="46.91883" lon="8.58516">
        <ele>887</ele>
        <time>2021-08-10T12:01:06.622Z</time>
      </trkpt>
      <trkpt lat="46.91884" lon="8.58516">
        <ele>886</ele>
        <time>2021-08-10T12:01:07.622Z</time>
      </trkpt>
      <trkpt lat="46.91884" lon="8.58516">
        <ele>886</ele>
        <time>2021-08-10T12:01:08.623Z</time>
      </trkpt>
      <trkpt lat="46.91881" lon="8.58521">
        <ele>895</ele>
        <time>2021-08-10T12:01:09.623Z</time>
      </trkpt>
      <trkpt lat="46.91881" lon="8.58522">
        <ele>896</ele>
        <time>2021-08-10T12:01:10.624Z</time>
      </trkpt>
      <trkpt lat="46.91882" lon="8.58523">
        <ele>895</ele>
        <time>2021-08-10T12:01:11.623Z</time>
      </trkpt>
      <trkpt lat="46.91883" lon="8.58523">
        <ele>895</ele>
        <time>2021-08-10T12:01:12.624Z</time>
      </trkpt>
      <trkpt lat="46.91883" lon="8.58523">
        <ele>895</ele>
        <time>2021-08-10T12:01:13.624Z</time>
      </trkpt>
      <trkpt lat="46.91884" lon="8.58524">
        <ele>894</ele>
        <time>2021-08-10T12:01:14.624Z</time>
      </trkpt>
      <trkpt lat="46.91885" lon="8.58524">
        <ele>894</ele>
        <time>2021-08-10T12:01:15.623Z</time>
      </trkpt>
      <trkpt lat="46.91885" lon="8.58523">
        <ele>893</ele>
        <time>2021-08-10T12:01:16.624Z</time>
      </trkpt>
      <trkpt lat="46.91886" lon="8.58523">
        <ele>893</ele>
        <time>2021-08-10T12:01:17.623Z</time>
      </trkpt>
      <trkpt lat="46.91887" lon="8.58523">
        <ele>892</ele>
        <time>2021-08-10T12:01:18.623Z</time>
      </trkpt>
      <trkpt lat="46.91887" lon="8.58523">
        <ele>891</ele>
        <time>2021-08-10T12:01:19.624Z</time>
      </trkpt>
      <trkpt lat="46.91887" lon="8.58523">
        <ele>891</ele>
        <time>2021-08-10T12:01:20.624Z</time>
      </trkpt>
      <trkpt lat="46.91888" lon="8.58523">
        <ele>890</ele>
        <time>2021-08-10T12:01:21.623Z</time>
      </trkpt>
      <trkpt lat="46.91888" lon="8.58523">
        <ele>890</ele>
        <time>2021-08-10T12:01:22.624Z</time>
      </trkpt>
      <trkpt lat="46.91888" lon="8.58523">
        <ele>890</ele>
        <time>2021-08-10T12:01:23.623Z</time>
      </trkpt>
      <trkpt lat="46.91888" lon="8.58524">
        <ele>890</ele>
        <time>2021-08-10T12:01:24.624Z</time>
      </trkpt>
      <trkpt lat="46.91887" lon="8.58525">
        <ele>890</ele>
        <time>2021-08-10T12:01:25.624Z</time>
      </trkpt>
      <trkpt lat="46.91887" lon="8.58526">
        <ele>890</ele>
        <time>2021-08-10T12:01:26.624Z</time>
      </trkpt>
      <trkpt lat="46.91886" lon="8.58525">
        <ele>890</ele>
        <time>2021-08-10T12:01:27.624Z</time>
      </trkpt>
      <trkpt lat="46.91886" lon="8.58526">
        <ele>890</ele>
        <time>2021-08-10T12:01:28.624Z</time>
      </trkpt>
      <trkpt lat="46.91885" lon="8.58528">
        <ele>890</ele>
        <time>2021-08-10T12:01:29.624Z</time>
      </trkpt>
      <trkpt lat="46.91884" lon="8.58529">
        <ele>891</ele>
        <time>2021-08-10T12:01:30.624Z</time>
      </trkpt>
      <trkpt lat="46.91883" lon="8.58529">
        <ele>891</ele>
        <time>2021-08-10T12:01:31.624Z</time>
      </trkpt>
      <trkpt lat="46.91882" lon="8.58529">
        <ele>891</ele>
        <time>2021-08-10T12:01:32.623Z</time>
      </trkpt>
      <trkpt lat="46.91882" lon="8.5853">
        <ele>892</ele>
        <time>2021-08-10T12:01:33.624Z</time>
      </trkpt>
      <trkpt lat="46.91882" lon="8.5853">
        <ele>892</ele>
        <time>2021-08-10T12:01:34.624Z</time>
      </trkpt>
      <trkpt lat="46.91881" lon="8.5853">
        <ele>892</ele>
        <time>2021-08-10T12:01:35.624Z</time>
      </trkpt>
      <trkpt lat="46.91881" lon="8.5853">
        <ele>892</ele>
        <time>2021-08-10T12:01:36.624Z</time>
      </trkpt>
      <trkpt lat="46.91884" lon="8.58522">
        <ele>887</ele>
        <time>2021-08-10T12:01:37.623Z</time>
      </trkpt>
      <trkpt lat="46.91884" lon="8.58522">
        <ele>886</ele>
        <time>2021-08-10T12:01:38.623Z</time>
      </trkpt>
      <trkpt lat="46.91888" lon="8.58518">
        <ele>881</ele>
        <time>2021-08-10T12:01:39.624Z</time>
      </trkpt>
      <trkpt lat="46.9189" lon="8.58515">
        <ele>883</ele>
        <time>2021-08-10T12:01:40.623Z</time>
      </trkpt>
      <trkpt lat="46.9189" lon="8.58515">
        <ele>884</ele>
        <time>2021-08-10T12:01:41.623Z</time>
      </trkpt>
      <trkpt lat="46.9189" lon="8.58514">
        <ele>884</ele>
        <time>2021-08-10T12:01:42.623Z</time>
      </trkpt>
      <trkpt lat="46.9189" lon="8.58513">
        <ele>884</ele>
        <time>2021-08-10T12:01:43.624Z</time>
      </trkpt>
      <trkpt lat="46.9189" lon="8.58513">
        <ele>885</ele>
        <time>2021-08-10T12:01:44.623Z</time>
      </trkpt>
      <trkpt lat="46.9189" lon="8.58512">
        <ele>885</ele>
        <time>2021-08-10T12:01:45.624Z</time>
      </trkpt>
      <trkpt lat="46.9189" lon="8.58514">
        <ele>886</ele>
        <time>2021-08-10T12:01:46.624Z</time>
      </trkpt>
      <trkpt lat="46.91889" lon="8.58515">
        <ele>887</ele>
        <time>2021-08-10T12:01:47.625Z</time>
      </trkpt>
      <trkpt lat="46.91888" lon="8.58516">
        <ele>887</ele>
        <time>2021-08-10T12:01:48.625Z</time>
      </trkpt>
      <trkpt lat="46.91887" lon="8.58519">
        <ele>890</ele>
        <time>2021-08-10T12:01:49.625Z</time>
      </trkpt>
      <trkpt lat="46.91885" lon="8.5852">
        <ele>893</ele>
        <time>2021-08-10T12:01:50.626Z</time>
      </trkpt>
      <trkpt lat="46.91885" lon="8.5852">
        <ele>893</ele>
        <time>2021-08-10T12:01:51.626Z</time>
      </trkpt>
      <trkpt lat="46.91885" lon="8.5852">
        <ele>893</ele>
        <time>2021-08-10T12:01:52.625Z</time>
      </trkpt>
      <trkpt lat="46.91885" lon="8.58521">
        <ele>893</ele>
        <time>2021-08-10T12:01:53.625Z</time>
      </trkpt>
      <trkpt lat="46.91885" lon="8.5852">
        <ele>893</ele>
        <time>2021-08-10T12:01:54.626Z</time>
      </trkpt>
      <trkpt lat="46.91886" lon="8.58519">
        <ele>891</ele>
        <time>2021-08-10T12:01:55.627Z</time>
      </trkpt>
      <trkpt lat="46.91886" lon="8.58519">
        <ele>891</ele>
        <time>2021-08-10T12:01:56.627Z</time>
      </trkpt>
      <trkpt lat="46.91886" lon="8.58519">
        <ele>891</ele>
        <time>2021-08-10T12:01:57.627Z</time>
      </trkpt>
      <trkpt lat="46.91886" lon="8.58519">
        <ele>890</ele>
        <time>2021-08-10T12:01:58.626Z</time>
      </trkpt>
      <trkpt lat="46.91885" lon="8.58519">
        <ele>890</ele>
        <time>2021-08-10T12:01:59.626Z</time>
      </trkpt>
      <trkpt lat="46.91885" lon="8.5852">
        <ele>891</ele>
        <time>2021-08-10T12:02:00.626Z</time>
      </trkpt>
      <trkpt lat="46.91885" lon="8.5852">
        <ele>891</ele>
        <time>2021-08-10T12:02:01.627Z</time>
      </trkpt>
      <trkpt lat="46.91885" lon="8.58519">
        <ele>894</ele>
        <time>2021-08-10T12:02:02.628Z</time>
      </trkpt>
      <trkpt lat="46.91884" lon="8.58519">
        <ele>893</ele>
        <time>2021-08-10T12:02:03.627Z</time>
      </trkpt>
      <trkpt lat="46.91884" lon="8.58518">
        <ele>893</ele>
        <time>2021-08-10T12:02:04.628Z</time>
      </trkpt>
      <trkpt lat="46.91884" lon="8.58518">
        <ele>893</ele>
        <time>2021-08-10T12:02:05.628Z</time>
      </trkpt>
      <trkpt lat="46.91885" lon="8.58518">
        <ele>893</ele>
        <time>2021-08-10T12:02:06.627Z</time>
      </trkpt>
      <trkpt lat="46.91886" lon="8.5852">
        <ele>891</ele>
        <time>2021-08-10T12:02:07.628Z</time>
      </trkpt>
      <trkpt lat="46.91886" lon="8.58519">
        <ele>891</ele>
        <time>2021-08-10T12:02:08.629Z</time>
      </trkpt>
      <trkpt lat="46.91887" lon="8.58519">
        <ele>891</ele>
        <time>2021-08-10T12:02:09.629Z</time>
      </trkpt>
      <trkpt lat="46.91887" lon="8.58519">
        <ele>890</ele>
        <time>2021-08-10T12:02:10.629Z</time>
      </trkpt>
      <trkpt lat="46.91885" lon="8.5852">
        <ele>890</ele>
        <time>2021-08-10T12:02:11.629Z</time>
      </trkpt>
      <trkpt lat="46.91885" lon="8.5852">
        <ele>890</ele>
        <time>2021-08-10T12:02:12.630Z</time>
      </trkpt>
      <trkpt lat="46.91885" lon="8.5852">
        <ele>890</ele>
        <time>2021-08-10T12:02:13.629Z</time>
      </trkpt>
      <trkpt lat="46.91885" lon="8.5852">
        <ele>890</ele>
        <time>2021-08-10T12:02:14.630Z</time>
      </trkpt>
      <trkpt lat="46.91886" lon="8.5852">
        <ele>890</ele>
        <time>2021-08-10T12:02:15.629Z</time>
      </trkpt>
      <trkpt lat="46.91884" lon="8.58519">
        <ele>890</ele>
        <time>2021-08-10T12:02:16.630Z</time>
      </trkpt>
      <trkpt lat="46.91883" lon="8.58518">
        <ele>889</ele>
        <time>2021-08-10T12:02:17.630Z</time>
      </trkpt>
      <trkpt lat="46.91884" lon="8.58517">
        <ele>889</ele>
        <time>2021-08-10T12:02:18.629Z</time>
      </trkpt>
      <trkpt lat="46.91884" lon="8.58516">
        <ele>889</ele>
        <time>2021-08-10T12:02:19.629Z</time>
      </trkpt>
      <trkpt lat="46.91884" lon="8.58515">
        <ele>889</ele>
        <time>2021-08-10T12:02:20.629Z</time>
      </trkpt>
      <trkpt lat="46.91885" lon="8.58515">
        <ele>886</ele>
        <time>2021-08-10T12:02:21.630Z</time>
      </trkpt>
      <trkpt lat="46.91884" lon="8.58515">
        <ele>886</ele>
        <time>2021-08-10T12:02:23.633Z</time>
      </trkpt>
      <trkpt lat="46.91884" lon="8.58514">
        <ele>886</ele>
        <time>2021-08-10T12:02:24.633Z</time>
      </trkpt>
      <trkpt lat="46.91884" lon="8.58514">
        <ele>886</ele>
        <time>2021-08-10T12:02:25.633Z</time>
      </trkpt>
      <trkpt lat="46.91885" lon="8.58513">
        <ele>886</ele>
        <time>2021-08-10T12:02:26.632Z</time>
      </trkpt>
      <trkpt lat="46.91885" lon="8.58512">
        <ele>886</ele>
        <time>2021-08-10T12:02:27.633Z</time>
      </trkpt>
      <trkpt lat="46.91885" lon="8.58513">
        <ele>886</ele>
        <time>2021-08-10T12:02:28.633Z</time>
      </trkpt>
      <trkpt lat="46.91885" lon="8.58513">
        <ele>886</ele>
        <time>2021-08-10T12:02:29.632Z</time>
      </trkpt>
      <trkpt lat="46.91886" lon="8.58513">
        <ele>886</ele>
        <time>2021-08-10T12:02:30.633Z</time>
      </trkpt>
      <trkpt lat="46.91886" lon="8.58513">
        <ele>886</ele>
        <time>2021-08-10T12:02:31.633Z</time>
      </trkpt>
      <trkpt lat="46.91885" lon="8.58518">
        <ele>889</ele>
        <time>2021-08-10T12:02:32.632Z</time>
      </trkpt>
      <trkpt lat="46.91885" lon="8.58518">
        <ele>889</ele>
        <time>2021-08-10T12:02:33.632Z</time>
      </trkpt>
      <trkpt lat="46.91885" lon="8.58518">
        <ele>890</ele>
        <time>2021-08-10T12:02:34.632Z</time>
      </trkpt>
      <trkpt lat="46.91886" lon="8.58517">
        <ele>887</ele>
        <time>2021-08-10T12:02:35.633Z</time>
      </trkpt>
      <trkpt lat="46.91886" lon="8.58517">
        <ele>887</ele>
        <time>2021-08-10T12:02:36.633Z</time>
      </trkpt>
      <trkpt lat="46.91886" lon="8.58517">
        <ele>887</ele>
        <time>2021-08-10T12:02:37.633Z</time>
      </trkpt>
      <trkpt lat="46.91886" lon="8.58518">
        <ele>887</ele>
        <time>2021-08-10T12:02:38.632Z</time>
      </trkpt>
      <trkpt lat="46.91886" lon="8.58517">
        <ele>886</ele>
        <time>2021-08-10T12:02:39.632Z</time>
      </trkpt>
      <trkpt lat="46.91887" lon="8.58515">
        <ele>884</ele>
        <time>2021-08-10T12:02:40.633Z</time>
      </trkpt>
      <trkpt lat="46.91887" lon="8.58515">
        <ele>884</ele>
        <time>2021-08-10T12:02:41.633Z</time>
      </trkpt>
      <trkpt lat="46.91887" lon="8.58514">
        <ele>884</ele>
        <time>2021-08-10T12:02:42.632Z</time>
      </trkpt>
      <trkpt lat="46.91886" lon="8.58517">
        <ele>888</ele>
        <time>2021-08-10T12:02:43.633Z</time>
      </trkpt>
      <trkpt lat="46.91886" lon="8.58517">
        <ele>888</ele>
        <time>2021-08-10T12:02:44.634Z</time>
      </trkpt>
      <trkpt lat="46.91887" lon="8.58517">
        <ele>890</ele>
        <time>2021-08-10T12:02:45.635Z</time>
      </trkpt>
      <trkpt lat="46.91887" lon="8.58517">
        <ele>890</ele>
        <time>2021-08-10T12:02:46.635Z</time>
      </trkpt>
      <trkpt lat="46.91887" lon="8.58516">
        <ele>888</ele>
        <time>2021-08-10T12:02:47.635Z</time>
      </trkpt>
      <trkpt lat="46.91887" lon="8.58516">
        <ele>888</ele>
        <time>2021-08-10T12:02:48.635Z</time>
      </trkpt>
      <trkpt lat="46.91887" lon="8.58516">
        <ele>888</ele>
        <time>2021-08-10T12:02:49.634Z</time>
      </trkpt>
      <trkpt lat="46.91886" lon="8.58517">
        <ele>890</ele>
        <time>2021-08-10T12:02:50.635Z</time>
      </trkpt>
      <trkpt lat="46.91886" lon="8.58518">
        <ele>890</ele>
        <time>2021-08-10T12:02:51.635Z</time>
      </trkpt>
      <trkpt lat="46.91886" lon="8.58518">
        <ele>891</ele>
        <time>2021-08-10T12:02:52.634Z</time>
      </trkpt>
      <trkpt lat="46.91885" lon="8.58516">
        <ele>888</ele>
        <time>2021-08-10T12:02:53.635Z</time>
      </trkpt>
      <trkpt lat="46.91885" lon="8.58517">
        <ele>888</ele>
        <time>2021-08-10T12:02:54.635Z</time>
      </trkpt>
      <trkpt lat="46.91885" lon="8.58517">
        <ele>889</ele>
        <time>2021-08-10T12:02:55.635Z</time>
      </trkpt>
      <trkpt lat="46.91885" lon="8.58517">
        <ele>889</ele>
        <time>2021-08-10T12:02:56.634Z</time>
      </trkpt>
      <trkpt lat="46.91885" lon="8.58517">
        <ele>889</ele>
        <time>2021-08-10T12:02:57.634Z</time>
      </trkpt>
      <trkpt lat="46.91888" lon="8.58517">
        <ele>890</ele>
        <time>2021-08-10T12:03:01.635Z</time>
      </trkpt>
      <trkpt lat="46.91889" lon="8.58517">
        <ele>890</ele>
        <time>2021-08-10T12:03:02.635Z</time>
      </trkpt>
      <trkpt lat="46.91888" lon="8.58517">
        <ele>890</ele>
        <time>2021-08-10T12:03:03.635Z</time>
      </trkpt>
      <trkpt lat="46.91888" lon="8.58517">
        <ele>890</ele>
        <time>2021-08-10T12:03:04.635Z</time>
      </trkpt>
      <trkpt lat="46.91888" lon="8.58517">
        <ele>890</ele>
        <time>2021-08-10T12:03:05.634Z</time>
      </trkpt>
      <trkpt lat="46.91888" lon="8.58517">
        <ele>890</ele>
        <time>2021-08-10T12:03:06.635Z</time>
      </trkpt>
      <trkpt lat="46.91888" lon="8.58517">
        <ele>890</ele>
        <time>2021-08-10T12:03:07.635Z</time>
      </trkpt>
      <trkpt lat="46.91888" lon="8.58517">
        <ele>891</ele>
        <time>2021-08-10T12:03:08.634Z</time>
      </trkpt>
      <trkpt lat="46.91888" lon="8.58517">
        <ele>891</ele>
        <time>2021-08-10T12:03:09.634Z</time>
      </trkpt>
      <trkpt lat="46.91889" lon="8.58517">
        <ele>891</ele>
        <time>2021-08-10T12:03:10.635Z</time>
      </trkpt>
      <trkpt lat="46.9189" lon="8.58517">
        <ele>891</ele>
        <time>2021-08-10T12:03:11.635Z</time>
      </trkpt>
      <trkpt lat="46.91891" lon="8.58517">
        <ele>891</ele>
        <time>2021-08-10T12:03:12.635Z</time>
      </trkpt>
      <trkpt lat="46.91891" lon="8.58516">
        <ele>891</ele>
        <time>2021-08-10T12:03:13.634Z</time>
      </trkpt>
      <trkpt lat="46.91891" lon="8.58516">
        <ele>890</ele>
        <time>2021-08-10T12:03:14.635Z</time>
      </trkpt>
      <trkpt lat="46.91891" lon="8.58516">
        <ele>890</ele>
        <time>2021-08-10T12:03:15.634Z</time>
      </trkpt>
      <trkpt lat="46.9189" lon="8.58516">
        <ele>889</ele>
        <time>2021-08-10T12:03:16.637Z</time>
      </trkpt>
      <trkpt lat="46.9189" lon="8.58516">
        <ele>889</ele>
        <time>2021-08-10T12:03:17.637Z</time>
      </trkpt>
      <trkpt lat="46.91889" lon="8.58516">
        <ele>889</ele>
        <time>2021-08-10T12:03:18.636Z</time>
      </trkpt>
      <trkpt lat="46.91888" lon="8.58517">
        <ele>889</ele>
        <time>2021-08-10T12:03:19.637Z</time>
      </trkpt>
      <trkpt lat="46.91888" lon="8.58517">
        <ele>889</ele>
        <time>2021-08-10T12:03:20.636Z</time>
      </trkpt>
      <trkpt lat="46.91888" lon="8.58518">
        <ele>889</ele>
        <time>2021-08-10T12:03:21.637Z</time>
      </trkpt>
      <trkpt lat="46.91888" lon="8.58518">
        <ele>889</ele>
        <time>2021-08-10T12:03:22.637Z</time>
      </trkpt>
      <trkpt lat="46.91888" lon="8.5852">
        <ele>892</ele>
        <time>2021-08-10T12:03:23.638Z</time>
      </trkpt>
      <trkpt lat="46.91887" lon="8.58518">
        <ele>893</ele>
        <time>2021-08-10T12:03:24.638Z</time>
      </trkpt>
      <trkpt lat="46.91887" lon="8.58519">
        <ele>893</ele>
        <time>2021-08-10T12:03:25.638Z</time>
      </trkpt>
      <trkpt lat="46.91887" lon="8.58519">
        <ele>893</ele>
        <time>2021-08-10T12:03:26.637Z</time>
      </trkpt>
      <trkpt lat="46.91886" lon="8.58519">
        <ele>892</ele>
        <time>2021-08-10T12:03:27.638Z</time>
      </trkpt>
      <trkpt lat="46.91885" lon="8.5852">
        <ele>892</ele>
        <time>2021-08-10T12:03:28.638Z</time>
      </trkpt>
      <trkpt lat="46.91886" lon="8.5852">
        <ele>892</ele>
        <time>2021-08-10T12:03:29.637Z</time>
      </trkpt>
      <trkpt lat="46.91886" lon="8.5852">
        <ele>892</ele>
        <time>2021-08-10T12:03:30.638Z</time>
      </trkpt>
      <trkpt lat="46.91886" lon="8.5852">
        <ele>892</ele>
        <time>2021-08-10T12:03:31.637Z</time>
      </trkpt>
      <trkpt lat="46.91887" lon="8.58521">
        <ele>892</ele>
        <time>2021-08-10T12:03:32.637Z</time>
      </trkpt>
      <trkpt lat="46.91887" lon="8.5852">
        <ele>892</ele>
        <time>2021-08-10T12:03:33.637Z</time>
      </trkpt>
      <trkpt lat="46.91887" lon="8.58518">
        <ele>889</ele>
        <time>2021-08-10T12:03:34.639Z</time>
      </trkpt>
      <trkpt lat="46.91887" lon="8.58518">
        <ele>889</ele>
        <time>2021-08-10T12:03:35.640Z</time>
      </trkpt>
      <trkpt lat="46.91886" lon="8.58515">
        <ele>893</ele>
        <time>2021-08-10T12:03:36.640Z</time>
      </trkpt>
      <trkpt lat="46.91886" lon="8.58515">
        <ele>894</ele>
        <time>2021-08-10T12:03:37.639Z</time>
      </trkpt>
      <trkpt lat="46.91886" lon="8.58515">
        <ele>894</ele>
        <time>2021-08-10T12:03:38.640Z</time>
      </trkpt>
      <trkpt lat="46.91886" lon="8.58515">
        <ele>894</ele>
        <time>2021-08-10T12:03:39.639Z</time>
      </trkpt>
      <trkpt lat="46.91886" lon="8.58515">
        <ele>895</ele>
        <time>2021-08-10T12:03:40.639Z</time>
      </trkpt>
      <trkpt lat="46.91886" lon="8.58515">
        <ele>895</ele>
        <time>2021-08-10T12:03:41.639Z</time>
      </trkpt>
      <trkpt lat="46.91886" lon="8.58514">
        <ele>894</ele>
        <time>2021-08-10T12:03:42.640Z</time>
      </trkpt>
      <trkpt lat="46.91886" lon="8.58514">
        <ele>894</ele>
        <time>2021-08-10T12:03:43.639Z</time>
      </trkpt>
      <trkpt lat="46.91885" lon="8.58514">
        <ele>890</ele>
        <time>2021-08-10T12:03:44.641Z</time>
      </trkpt>
      <trkpt lat="46.91885" lon="8.58515">
        <ele>890</ele>
        <time>2021-08-10T12:03:45.641Z</time>
      </trkpt>
      <trkpt lat="46.91885" lon="8.58515">
        <ele>890</ele>
        <time>2021-08-10T12:03:46.640Z</time>
      </trkpt>
      <trkpt lat="46.91884" lon="8.58515">
        <ele>887</ele>
        <time>2021-08-10T12:03:47.640Z</time>
      </trkpt>
      <trkpt lat="46.91884" lon="8.58516">
        <ele>887</ele>
        <time>2021-08-10T12:03:48.640Z</time>
      </trkpt>
      <trkpt lat="46.91884" lon="8.58516">
        <ele>887</ele>
        <time>2021-08-10T12:03:49.640Z</time>
      </trkpt>
      <trkpt lat="46.91885" lon="8.58516">
        <ele>887</ele>
        <time>2021-08-10T12:03:50.640Z</time>
      </trkpt>
      <trkpt lat="46.91885" lon="8.58516">
        <ele>887</ele>
        <time>2021-08-10T12:03:51.640Z</time>
      </trkpt>
      <trkpt lat="46.91886" lon="8.58514">
        <ele>892</ele>
        <time>2021-08-10T12:03:52.640Z</time>
      </trkpt>
      <trkpt lat="46.91886" lon="8.58514">
        <ele>892</ele>
        <time>2021-08-10T12:03:53.640Z</time>
      </trkpt>
      <trkpt lat="46.91886" lon="8.58514">
        <ele>892</ele>
        <time>2021-08-10T12:03:54.641Z</time>
      </trkpt>
      <trkpt lat="46.91886" lon="8.58514">
        <ele>890</ele>
        <time>2021-08-10T12:03:55.642Z</time>
      </trkpt>
      <trkpt lat="46.91886" lon="8.58514">
        <ele>890</ele>
        <time>2021-08-10T12:03:56.642Z</time>
      </trkpt>
      <trkpt lat="46.91886" lon="8.58514">
        <ele>890</ele>
        <time>2021-08-10T12:03:57.641Z</time>
      </trkpt>
      <trkpt lat="46.91884" lon="8.58515">
        <ele>894</ele>
        <time>2021-08-10T12:03:58.642Z</time>
      </trkpt>
      <trkpt lat="46.91884" lon="8.58515">
        <ele>893</ele>
        <time>2021-08-10T12:03:59.641Z</time>
      </trkpt>
      <trkpt lat="46.91884" lon="8.58514">
        <ele>893</ele>
        <time>2021-08-10T12:04:00.642Z</time>
      </trkpt>
      <trkpt lat="46.91884" lon="8.58514">
        <ele>893</ele>
        <time>2021-08-10T12:04:01.643Z</time>
      </trkpt>
      <trkpt lat="46.91884" lon="8.58515">
        <ele>893</ele>
        <time>2021-08-10T12:04:02.644Z</time>
      </trkpt>
      <trkpt lat="46.91884" lon="8.58513">
        <ele>892</ele>
        <time>2021-08-10T12:04:03.645Z</time>
      </trkpt>
      <trkpt lat="46.91884" lon="8.58513">
        <ele>892</ele>
        <time>2021-08-10T12:04:04.644Z</time>
      </trkpt>
      <trkpt lat="46.91883" lon="8.58515">
        <ele>889</ele>
        <time>2021-08-10T12:04:05.645Z</time>
      </trkpt>
      <trkpt lat="46.91883" lon="8.58516">
        <ele>889</ele>
        <time>2021-08-10T12:04:06.644Z</time>
      </trkpt>
      <trkpt lat="46.91883" lon="8.58516">
        <ele>889</ele>
        <time>2021-08-10T12:04:07.644Z</time>
      </trkpt>
      <trkpt lat="46.91882" lon="8.58513">
        <ele>894</ele>
        <time>2021-08-10T12:04:08.644Z</time>
      </trkpt>
      <trkpt lat="46.91882" lon="8.58512">
        <ele>893</ele>
        <time>2021-08-10T12:04:09.644Z</time>
      </trkpt>
      <trkpt lat="46.91882" lon="8.58513">
        <ele>892</ele>
        <time>2021-08-10T12:04:10.645Z</time>
      </trkpt>
      <trkpt lat="46.91882" lon="8.58513">
        <ele>892</ele>
        <time>2021-08-10T12:04:11.645Z</time>
      </trkpt>
      <trkpt lat="46.91882" lon="8.58514">
        <ele>892</ele>
        <time>2021-08-10T12:04:12.645Z</time>
      </trkpt>
      <trkpt lat="46.91882" lon="8.58513">
        <ele>890</ele>
        <time>2021-08-10T12:04:13.647Z</time>
      </trkpt>
      <trkpt lat="46.91882" lon="8.58513">
        <ele>890</ele>
        <time>2021-08-10T12:04:14.646Z</time>
      </trkpt>
      <trkpt lat="46.91882" lon="8.58513">
        <ele>890</ele>
        <time>2021-08-10T12:04:15.647Z</time>
      </trkpt>
      <trkpt lat="46.91882" lon="8.58513">
        <ele>891</ele>
        <time>2021-08-10T12:04:16.646Z</time>
      </trkpt>
      <trkpt lat="46.91882" lon="8.58512">
        <ele>891</ele>
        <time>2021-08-10T12:04:17.647Z</time>
      </trkpt>
      <trkpt lat="46.91882" lon="8.58512">
        <ele>891</ele>
        <time>2021-08-10T12:04:18.646Z</time>
      </trkpt>
      <trkpt lat="46.91882" lon="8.58512">
        <ele>891</ele>
        <time>2021-08-10T12:04:19.646Z</time>
      </trkpt>
      <trkpt lat="46.91883" lon="8.58512">
        <ele>892</ele>
        <time>2021-08-10T12:04:20.646Z</time>
      </trkpt>
      <trkpt lat="46.91883" lon="8.58515">
        <ele>891</ele>
        <time>2021-08-10T12:04:21.646Z</time>
      </trkpt>
      <trkpt lat="46.91884" lon="8.58516">
        <ele>889</ele>
        <time>2021-08-10T12:04:22.647Z</time>
      </trkpt>
      <trkpt lat="46.91884" lon="8.58516">
        <ele>890</ele>
        <time>2021-08-10T12:04:23.647Z</time>
      </trkpt>
      <trkpt lat="46.91884" lon="8.58517">
        <ele>890</ele>
        <time>2021-08-10T12:04:24.646Z</time>
      </trkpt>
      <trkpt lat="46.91883" lon="8.58517">
        <ele>891</ele>
        <time>2021-08-10T12:04:25.647Z</time>
      </trkpt>
      <trkpt lat="46.91883" lon="8.58517">
        <ele>891</ele>
        <time>2021-08-10T12:04:26.648Z</time>
      </trkpt>
      <trkpt lat="46.91883" lon="8.58517">
        <ele>891</ele>
        <time>2021-08-10T12:04:27.648Z</time>
      </trkpt>
      <trkpt lat="46.91884" lon="8.58517">
        <ele>891</ele>
        <time>2021-08-10T12:04:28.647Z</time>
      </trkpt>
      <trkpt lat="46.91884" lon="8.58518">
        <ele>885</ele>
        <time>2021-08-10T12:04:29.647Z</time>
      </trkpt>
      <trkpt lat="46.91884" lon="8.58518">
        <ele>885</ele>
        <time>2021-08-10T12:04:30.647Z</time>
      </trkpt>
      <trkpt lat="46.91885" lon="8.58517">
        <ele>889</ele>
        <time>2021-08-10T12:04:31.647Z</time>
      </trkpt>
      <trkpt lat="46.91885" lon="8.58517">
        <ele>889</ele>
        <time>2021-08-10T12:04:32.648Z</time>
      </trkpt>
      <trkpt lat="46.91885" lon="8.58517">
        <ele>889</ele>
        <time>2021-08-10T12:04:33.648Z</time>
      </trkpt>
      <trkpt lat="46.91885" lon="8.58517">
        <ele>889</ele>
        <time>2021-08-10T12:04:34.648Z</time>
      </trkpt>
      <trkpt lat="46.91885" lon="8.58516">
        <ele>889</ele>
        <time>2021-08-10T12:04:35.648Z</time>
      </trkpt>
      <trkpt lat="46.91885" lon="8.58516">
        <ele>889</ele>
        <time>2021-08-10T12:04:36.647Z</time>
      </trkpt>
      <trkpt lat="46.91885" lon="8.58516">
        <ele>889</ele>
        <time>2021-08-10T12:04:37.649Z</time>
      </trkpt>
      <trkpt lat="46.91885" lon="8.58516">
        <ele>889</ele>
        <time>2021-08-10T12:04:38.648Z</time>
      </trkpt>
      <trkpt lat="46.91885" lon="8.58516">
        <ele>889</ele>
        <time>2021-08-10T12:04:39.648Z</time>
      </trkpt>
      <trkpt lat="46.91886" lon="8.58516">
        <ele>889</ele>
        <time>2021-08-10T12:04:40.648Z</time>
      </trkpt>
      <trkpt lat="46.91886" lon="8.58516">
        <ele>889</ele>
        <time>2021-08-10T12:04:41.649Z</time>
      </trkpt>
      <trkpt lat="46.91886" lon="8.58516">
        <ele>889</ele>
        <time>2021-08-10T12:04:42.648Z</time>
      </trkpt>
      <trkpt lat="46.91886" lon="8.58515">
        <ele>889</ele>
        <time>2021-08-10T12:04:43.648Z</time>
      </trkpt>
      <trkpt lat="46.91885" lon="8.58515">
        <ele>890</ele>
        <time>2021-08-10T12:04:44.649Z</time>
      </trkpt>
      <trkpt lat="46.91885" lon="8.58515">
        <ele>890</ele>
        <time>2021-08-10T12:04:45.648Z</time>
      </trkpt>
      <trkpt lat="46.91885" lon="8.58515">
        <ele>890</ele>
        <time>2021-08-10T12:04:46.648Z</time>
      </trkpt>
      <trkpt lat="46.91885" lon="8.58516">
        <ele>890</ele>
        <time>2021-08-10T12:04:47.648Z</time>
      </trkpt>
      <trkpt lat="46.91885" lon="8.58516">
        <ele>889</ele>
        <time>2021-08-10T12:04:48.649Z</time>
      </trkpt>
      <trkpt lat="46.91885" lon="8.58517">
        <ele>887</ele>
        <time>2021-08-10T12:04:49.650Z</time>
      </trkpt>
      <trkpt lat="46.91885" lon="8.58517">
        <ele>887</ele>
        <time>2021-08-10T12:04:50.649Z</time>
      </trkpt>
      <trkpt lat="46.91884" lon="8.58516">
        <ele>887</ele>
        <time>2021-08-10T12:04:51.651Z</time>
      </trkpt>
      <trkpt lat="46.91884" lon="8.58515">
        <ele>887</ele>
        <time>2021-08-10T12:04:52.650Z</time>
      </trkpt>
      <trkpt lat="46.91883" lon="8.58515">
        <ele>887</ele>
        <time>2021-08-10T12:04:53.651Z</time>
      </trkpt>
      <trkpt lat="46.91884" lon="8.58517">
        <ele>888</ele>
        <time>2021-08-10T12:04:54.651Z</time>
      </trkpt>
      <trkpt lat="46.91884" lon="8.58518">
        <ele>888</ele>
        <time>2021-08-10T12:04:55.650Z</time>
      </trkpt>
      <trkpt lat="46.91884" lon="8.58518">
        <ele>888</ele>
        <time>2021-08-10T12:04:56.650Z</time>
      </trkpt>
      <trkpt lat="46.91884" lon="8.58518">
        <ele>888</ele>
        <time>2021-08-10T12:04:57.651Z</time>
      </trkpt>
      <trkpt lat="46.91884" lon="8.58516">
        <ele>891</ele>
        <time>2021-08-10T12:04:58.652Z</time>
      </trkpt>
      <trkpt lat="46.91884" lon="8.58516">
        <ele>891</ele>
        <time>2021-08-10T12:04:59.651Z</time>
      </trkpt>
      <trkpt lat="46.91883" lon="8.58515">
        <ele>891</ele>
        <time>2021-08-10T12:05:00.652Z</time>
      </trkpt>
      <trkpt lat="46.91883" lon="8.58514">
        <ele>891</ele>
        <time>2021-08-10T12:05:01.652Z</time>
      </trkpt>
      <trkpt lat="46.91884" lon="8.58514">
        <ele>891</ele>
        <time>2021-08-10T12:05:02.652Z</time>
      </trkpt>
      <trkpt lat="46.91885" lon="8.58515">
        <ele>891</ele>
        <time>2021-08-10T12:05:03.652Z</time>
      </trkpt>
      <trkpt lat="46.91885" lon="8.58515">
        <ele>891</ele>
        <time>2021-08-10T12:05:04.653Z</time>
      </trkpt>
      <trkpt lat="46.91885" lon="8.58515">
        <ele>891</ele>
        <time>2021-08-10T12:05:05.652Z</time>
      </trkpt>
      <trkpt lat="46.91885" lon="8.58517">
        <ele>890</ele>
        <time>2021-08-10T12:05:06.653Z</time>
      </trkpt>
      <trkpt lat="46.91885" lon="8.58516">
        <ele>890</ele>
        <time>2021-08-10T12:05:07.653Z</time>
      </trkpt>
      <trkpt lat="46.91883" lon="8.58514">
        <ele>889</ele>
        <time>2021-08-10T12:05:08.652Z</time>
      </trkpt>
      <trkpt lat="46.91883" lon="8.58514">
        <ele>888</ele>
        <time>2021-08-10T12:05:09.653Z</time>
      </trkpt>
      <trkpt lat="46.91883" lon="8.58514">
        <ele>888</ele>
        <time>2021-08-10T12:05:10.652Z</time>
      </trkpt>
      <trkpt lat="46.91883" lon="8.58514">
        <ele>888</ele>
        <time>2021-08-10T12:05:11.653Z</time>
      </trkpt>
      <trkpt lat="46.91883" lon="8.58514">
        <ele>888</ele>
        <time>2021-08-10T12:05:12.653Z</time>
      </trkpt>
      <trkpt lat="46.91883" lon="8.58514">
        <ele>888</ele>
        <time>2021-08-10T12:05:13.652Z</time>
      </trkpt>
      <trkpt lat="46.91883" lon="8.58515">
        <ele>888</ele>
        <time>2021-08-10T12:05:14.652Z</time>
      </trkpt>
      <trkpt lat="46.91883" lon="8.58515">
        <ele>889</ele>
        <time>2021-08-10T12:05:15.652Z</time>
      </trkpt>
      <trkpt lat="46.91883" lon="8.58515">
        <ele>889</ele>
        <time>2021-08-10T12:05:16.653Z</time>
      </trkpt>
      <trkpt lat="46.91884" lon="8.58517">
        <ele>889</ele>
        <time>2021-08-10T12:05:17.654Z</time>
      </trkpt>
      <trkpt lat="46.91884" lon="8.58517">
        <ele>889</ele>
        <time>2021-08-10T12:05:18.654Z</time>
      </trkpt>
      <trkpt lat="46.91885" lon="8.58517">
        <ele>889</ele>
        <time>2021-08-10T12:05:19.653Z</time>
      </trkpt>
      <trkpt lat="46.91884" lon="8.58517">
        <ele>889</ele>
        <time>2021-08-10T12:05:20.654Z</time>
      </trkpt>
      <trkpt lat="46.91884" lon="8.58517">
        <ele>889</ele>
        <time>2021-08-10T12:05:21.653Z</time>
      </trkpt>
      <trkpt lat="46.91885" lon="8.58518">
        <ele>890</ele>
        <time>2021-08-10T12:05:22.654Z</time>
      </trkpt>
      <trkpt lat="46.91885" lon="8.58518">
        <ele>890</ele>
        <time>2021-08-10T12:05:23.654Z</time>
      </trkpt>
      <trkpt lat="46.91884" lon="8.58518">
        <ele>890</ele>
        <time>2021-08-10T12:05:24.654Z</time>
      </trkpt>
      <trkpt lat="46.91884" lon="8.58519">
        <ele>890</ele>
        <time>2021-08-10T12:05:25.654Z</time>
      </trkpt>
      <trkpt lat="46.91884" lon="8.58519">
        <ele>891</ele>
        <time>2021-08-10T12:05:26.655Z</time>
      </trkpt>
      <trkpt lat="46.91884" lon="8.58519">
        <ele>891</ele>
        <time>2021-08-10T12:05:27.654Z</time>
      </trkpt>
      <trkpt lat="46.91884" lon="8.58519">
        <ele>891</ele>
        <time>2021-08-10T12:05:28.655Z</time>
      </trkpt>
      <trkpt lat="46.91885" lon="8.58519">
        <ele>892</ele>
        <time>2021-08-10T12:05:29.655Z</time>
      </trkpt>
      <trkpt lat="46.91886" lon="8.58518">
        <ele>892</ele>
        <time>2021-08-10T12:05:30.656Z</time>
      </trkpt>
      <trkpt lat="46.91886" lon="8.58517">
        <ele>892</ele>
        <time>2021-08-10T12:05:33.692Z</time>
      </trkpt>
      <trkpt lat="46.91886" lon="8.58518">
        <ele>891</ele>
        <time>2021-08-10T12:05:34.694Z</time>
      </trkpt>
      <trkpt lat="46.91886" lon="8.58518">
        <ele>891</ele>
        <time>2021-08-10T12:05:35.694Z</time>
      </trkpt>
      <trkpt lat="46.91886" lon="8.58519">
        <ele>891</ele>
        <time>2021-08-10T12:05:36.694Z</time>
      </trkpt>
      <trkpt lat="46.91885" lon="8.58519">
        <ele>891</ele>
        <time>2021-08-10T12:05:40.711Z</time>
      </trkpt>
      <trkpt lat="46.91884" lon="8.58519">
        <ele>893</ele>
        <time>2021-08-10T12:05:41.712Z</time>
      </trkpt>
      <trkpt lat="46.91884" lon="8.58519">
        <ele>894</ele>
        <time>2021-08-10T12:05:42.711Z</time>
      </trkpt>
      <trkpt lat="46.91884" lon="8.58519">
        <ele>894</ele>
        <time>2021-08-10T12:05:48.800Z</time>
      </trkpt>
      <trkpt lat="46.91885" lon="8.58518">
        <ele>893</ele>
        <time>2021-08-10T12:05:49.801Z</time>
      </trkpt>
      <trkpt lat="46.91885" lon="8.58518">
        <ele>893</ele>
        <time>2021-08-10T12:05:59.736Z</time>
      </trkpt>
      <trkpt lat="46.91885" lon="8.58517">
        <ele>892</ele>
        <time>2021-08-10T12:06:00.735Z</time>
      </trkpt>
      <trkpt lat="46.91885" lon="8.58517">
        <ele>892</ele>
        <time>2021-08-10T12:06:13.564Z</time>
      </trkpt>
      <trkpt lat="46.91885" lon="8.58516">
        <ele>892</ele>
        <time>2021-08-10T12:06:14.563Z</time>
      </trkpt>
      <trkpt lat="46.91885" lon="8.58516">
        <ele>891</ele>
        <time>2021-08-10T12:06:15.564Z</time>
      </trkpt>
      <trkpt lat="46.91885" lon="8.58516">
        <ele>891</ele>
        <time>2021-08-10T12:06:16.563Z</time>
      </trkpt>
      <trkpt lat="46.91885" lon="8.58518">
        <ele>891</ele>
        <time>2021-08-10T12:06:17.563Z</time>
      </trkpt>
      <trkpt lat="46.91885" lon="8.58518">
        <ele>891</ele>
        <time>2021-08-10T12:06:18.563Z</time>
      </trkpt>
      <trkpt lat="46.91885" lon="8.58518">
        <ele>890</ele>
        <time>2021-08-10T12:06:19.563Z</time>
      </trkpt>
      <trkpt lat="46.91885" lon="8.58518">
        <ele>890</ele>
        <time>2021-08-10T12:06:25.673Z</time>
      </trkpt>
      <trkpt lat="46.91885" lon="8.58518">
        <ele>889</ele>
        <time>2021-08-10T12:06:26.673Z</time>
      </trkpt>
      <trkpt lat="46.91885" lon="8.58518">
        <ele>888</ele>
        <time>2021-08-10T12:06:36.440Z</time>
      </trkpt>
      <trkpt lat="46.91884" lon="8.58517">
        <ele>884</ele>
        <time>2021-08-10T12:06:37.441Z</time>
      </trkpt>
      <trkpt lat="46.91884" lon="8.58517">
        <ele>884</ele>
        <time>2021-08-10T12:06:38.441Z</time>
      </trkpt>
      <trkpt lat="46.91883" lon="8.58517">
        <ele>884</ele>
        <time>2021-08-10T12:06:39.440Z</time>
      </trkpt>
      <trkpt lat="46.91884" lon="8.58518">
        <ele>886</ele>
        <time>2021-08-10T12:06:40.441Z</time>
      </trkpt>
      <trkpt lat="46.91884" lon="8.58519">
        <ele>886</ele>
        <time>2021-08-10T12:06:41.441Z</time>
      </trkpt>
      <trkpt lat="46.91884" lon="8.58519">
        <ele>886</ele>
        <time>2021-08-10T12:06:42.440Z</time>
      </trkpt>
      <trkpt lat="46.91883" lon="8.5852">
        <ele>887</ele>
        <time>2021-08-10T12:06:43.440Z</time>
      </trkpt>
      <trkpt lat="46.91883" lon="8.5852">
        <ele>887</ele>
        <time>2021-08-10T12:06:44.440Z</time>
      </trkpt>
      <trkpt lat="46.91882" lon="8.5852">
        <ele>886</ele>
        <time>2021-08-10T12:06:49.587Z</time>
      </trkpt>
      <trkpt lat="46.91882" lon="8.5852">
        <ele>888</ele>
        <time>2021-08-10T12:06:50.588Z</time>
      </trkpt>
      <trkpt lat="46.91885" lon="8.58519">
        <ele>887</ele>
        <time>2021-08-10T12:06:51.588Z</time>
      </trkpt>
      <trkpt lat="46.91885" lon="8.58519">
        <ele>887</ele>
        <time>2021-08-10T12:06:52.588Z</time>
      </trkpt>
      <trkpt lat="46.91888" lon="8.58518">
        <ele>890</ele>
        <time>2021-08-10T12:06:53.590Z</time>
      </trkpt>
      <trkpt lat="46.91888" lon="8.58519">
        <ele>890</ele>
        <time>2021-08-10T12:06:54.590Z</time>
      </trkpt>
      <trkpt lat="46.91887" lon="8.58519">
        <ele>890</ele>
        <time>2021-08-10T12:06:55.589Z</time>
      </trkpt>
      <trkpt lat="46.91887" lon="8.58519">
        <ele>890</ele>
        <time>2021-08-10T12:06:56.590Z</time>
      </trkpt>
      <trkpt lat="46.91886" lon="8.5852">
        <ele>890</ele>
        <time>2021-08-10T12:06:57.590Z</time>
      </trkpt>
      <trkpt lat="46.91886" lon="8.58519">
        <ele>890</ele>
        <time>2021-08-10T12:06:58.590Z</time>
      </trkpt>
      <trkpt lat="46.91886" lon="8.58519">
        <ele>890</ele>
        <time>2021-08-10T12:06:59.590Z</time>
      </trkpt>
      <trkpt lat="46.91886" lon="8.58519">
        <ele>890</ele>
        <time>2021-08-10T12:07:00.590Z</time>
      </trkpt>
      <trkpt lat="46.91886" lon="8.58519">
        <ele>890</ele>
        <time>2021-08-10T12:07:01.591Z</time>
      </trkpt>
      <trkpt lat="46.91886" lon="8.58519">
        <ele>890</ele>
        <time>2021-08-10T12:07:02.590Z</time>
      </trkpt>
      <trkpt lat="46.91885" lon="8.5852">
        <ele>889</ele>
        <time>2021-08-10T12:07:03.590Z</time>
      </trkpt>
      <trkpt lat="46.91885" lon="8.58521">
        <ele>889</ele>
        <time>2021-08-10T12:07:04.591Z</time>
      </trkpt>
      <trkpt lat="46.91885" lon="8.58521">
        <ele>889</ele>
        <time>2021-08-10T12:07:05.590Z</time>
      </trkpt>
      <trkpt lat="46.91885" lon="8.58519">
        <ele>887</ele>
        <time>2021-08-10T12:07:06.591Z</time>
      </trkpt>
      <trkpt lat="46.91883" lon="8.58516">
        <ele>885</ele>
        <time>2021-08-10T12:07:07.590Z</time>
      </trkpt>
      <trkpt lat="46.91882" lon="8.58516">
        <ele>885</ele>
        <time>2021-08-10T12:07:08.591Z</time>
      </trkpt>
      <trkpt lat="46.91882" lon="8.58516">
        <ele>884</ele>
        <time>2021-08-10T12:07:09.590Z</time>
      </trkpt>
      <trkpt lat="46.91884" lon="8.58515">
        <ele>882</ele>
        <time>2021-08-10T12:07:10.591Z</time>
      </trkpt>
      <trkpt lat="46.91885" lon="8.58514">
        <ele>882</ele>
        <time>2021-08-10T12:07:11.592Z</time>
      </trkpt>
      <trkpt lat="46.91884" lon="8.58515">
        <ele>882</ele>
        <time>2021-08-10T12:07:12.591Z</time>
      </trkpt>
      <trkpt lat="46.91884" lon="8.58515">
        <ele>881</ele>
        <time>2021-08-10T12:07:13.591Z</time>
      </trkpt>
      <trkpt lat="46.91884" lon="8.58514">
        <ele>881</ele>
        <time>2021-08-10T12:07:14.592Z</time>
      </trkpt>
      <trkpt lat="46.91884" lon="8.58514">
        <ele>881</ele>
        <time>2021-08-10T12:07:15.592Z</time>
      </trkpt>
      <trkpt lat="46.91885" lon="8.58517">
        <ele>888</ele>
        <time>2021-08-10T12:07:16.593Z</time>
      </trkpt>
      <trkpt lat="46.91885" lon="8.58517">
        <ele>888</ele>
        <time>2021-08-10T12:07:17.593Z</time>
      </trkpt>
      <trkpt lat="46.91885" lon="8.58517">
        <ele>889</ele>
        <time>2021-08-10T12:07:18.592Z</time>
      </trkpt>
      <trkpt lat="46.91883" lon="8.5852">
        <ele>886</ele>
        <time>2021-08-10T12:07:19.594Z</time>
      </trkpt>
      <trkpt lat="46.91883" lon="8.58521">
        <ele>886</ele>
        <time>2021-08-10T12:07:20.594Z</time>
      </trkpt>
      <trkpt lat="46.91884" lon="8.5852">
        <ele>885</ele>
        <time>2021-08-10T12:07:21.593Z</time>
      </trkpt>
      <trkpt lat="46.91882" lon="8.58519">
        <ele>885</ele>
        <time>2021-08-10T12:07:22.594Z</time>
      </trkpt>
      <trkpt lat="46.91882" lon="8.58519">
        <ele>885</ele>
        <time>2021-08-10T12:07:23.594Z</time>
      </trkpt>
      <trkpt lat="46.91884" lon="8.58518">
        <ele>884</ele>
        <time>2021-08-10T12:07:24.593Z</time>
      </trkpt>
      <trkpt lat="46.91884" lon="8.58518">
        <ele>884</ele>
        <time>2021-08-10T12:07:25.594Z</time>
      </trkpt>
      <trkpt lat="46.91885" lon="8.58518">
        <ele>884</ele>
        <time>2021-08-10T12:07:26.593Z</time>
      </trkpt>
      <trkpt lat="46.91885" lon="8.58518">
        <ele>883</ele>
        <time>2021-08-10T12:07:27.593Z</time>
      </trkpt>
      <trkpt lat="46.91885" lon="8.58518">
        <ele>883</ele>
        <time>2021-08-10T12:07:29.696Z</time>
      </trkpt>
      <trkpt lat="46.91884" lon="8.58514">
        <ele>888</ele>
        <time>2021-08-10T12:07:30.696Z</time>
      </trkpt>
      <trkpt lat="46.91884" lon="8.58514">
        <ele>888</ele>
        <time>2021-08-10T12:07:31.695Z</time>
      </trkpt>
      <trkpt lat="46.91886" lon="8.58513">
        <ele>895</ele>
        <time>2021-08-10T12:07:32.697Z</time>
      </trkpt>
      <trkpt lat="46.91885" lon="8.58513">
        <ele>895</ele>
        <time>2021-08-10T12:07:33.696Z</time>
      </trkpt>
      <trkpt lat="46.91886" lon="8.58512">
        <ele>899</ele>
        <time>2021-08-10T12:07:34.697Z</time>
      </trkpt>
      <trkpt lat="46.91886" lon="8.58512">
        <ele>899</ele>
        <time>2021-08-10T12:07:35.696Z</time>
      </trkpt>
      <trkpt lat="46.91886" lon="8.58512">
        <ele>900</ele>
        <time>2021-08-10T12:07:36.696Z</time>
      </trkpt>
      <trkpt lat="46.91887" lon="8.58513">
        <ele>900</ele>
        <time>2021-08-10T12:07:37.696Z</time>
      </trkpt>
      <trkpt lat="46.91888" lon="8.58517">
        <ele>898</ele>
        <time>2021-08-10T12:07:38.696Z</time>
      </trkpt>
      <trkpt lat="46.91887" lon="8.58517">
        <ele>897</ele>
        <time>2021-08-10T12:07:39.697Z</time>
      </trkpt>
      <trkpt lat="46.91887" lon="8.58517">
        <ele>897</ele>
        <time>2021-08-10T12:07:40.697Z</time>
      </trkpt>
      <trkpt lat="46.91886" lon="8.58517">
        <ele>896</ele>
        <time>2021-08-10T12:07:41.697Z</time>
      </trkpt>
      <trkpt lat="46.91888" lon="8.58516">
        <ele>898</ele>
        <time>2021-08-10T12:07:42.698Z</time>
      </trkpt>
      <trkpt lat="46.91888" lon="8.58516">
        <ele>899</ele>
        <time>2021-08-10T12:07:43.697Z</time>
      </trkpt>
      <trkpt lat="46.91888" lon="8.58516">
        <ele>899</ele>
        <time>2021-08-10T12:07:44.697Z</time>
      </trkpt>
      <trkpt lat="46.91887" lon="8.58517">
        <ele>893</ele>
        <time>2021-08-10T12:07:45.698Z</time>
      </trkpt>
      <trkpt lat="46.91887" lon="8.58517">
        <ele>893</ele>
        <time>2021-08-10T12:07:46.699Z</time>
      </trkpt>
      <trkpt lat="46.91887" lon="8.5852">
        <ele>888</ele>
        <time>2021-08-10T12:07:47.700Z</time>
      </trkpt>
      <trkpt lat="46.91886" lon="8.5852">
        <ele>886</ele>
        <time>2021-08-10T12:07:48.700Z</time>
      </trkpt>
      <trkpt lat="46.91886" lon="8.58519">
        <ele>886</ele>
        <time>2021-08-10T12:07:49.701Z</time>
      </trkpt>
      <trkpt lat="46.91886" lon="8.58519">
        <ele>886</ele>
        <time>2021-08-10T12:07:50.700Z</time>
      </trkpt>
      <trkpt lat="46.91886" lon="8.58518">
        <ele>886</ele>
        <time>2021-08-10T12:07:51.701Z</time>
      </trkpt>
      <trkpt lat="46.91886" lon="8.58518">
        <ele>887</ele>
        <time>2021-08-10T12:07:52.700Z</time>
      </trkpt>
      <trkpt lat="46.91886" lon="8.58517">
        <ele>889</ele>
        <time>2021-08-10T12:07:53.702Z</time>
      </trkpt>
      <trkpt lat="46.91886" lon="8.58517">
        <ele>889</ele>
        <time>2021-08-10T12:07:54.701Z</time>
      </trkpt>
      <trkpt lat="46.91886" lon="8.58517">
        <ele>889</ele>
        <time>2021-08-10T12:07:55.701Z</time>
      </trkpt>
      <trkpt lat="46.91887" lon="8.58517">
        <ele>889</ele>
        <time>2021-08-10T12:07:57.848Z</time>
      </trkpt>
      <trkpt lat="46.91888" lon="8.58517">
        <ele>889</ele>
        <time>2021-08-10T12:07:58.849Z</time>
      </trkpt>
      <trkpt lat="46.91889" lon="8.58517">
        <ele>890</ele>
        <time>2021-08-10T12:07:59.848Z</time>
      </trkpt>
      <trkpt lat="46.91889" lon="8.58517">
        <ele>890</ele>
        <time>2021-08-10T12:08:00.848Z</time>
      </trkpt>
      <trkpt lat="46.91887" lon="8.58517">
        <ele>890</ele>
        <time>2021-08-10T12:08:01.851Z</time>
      </trkpt>
      <trkpt lat="46.91887" lon="8.58517">
        <ele>890</ele>
        <time>2021-08-10T12:08:02.850Z</time>
      </trkpt>
      <trkpt lat="46.91887" lon="8.58518">
        <ele>890</ele>
        <time>2021-08-10T12:08:03.850Z</time>
      </trkpt>
      <trkpt lat="46.91887" lon="8.58518">
        <ele>889</ele>
        <time>2021-08-10T12:08:04.850Z</time>
      </trkpt>
      <trkpt lat="46.91887" lon="8.58518">
        <ele>889</ele>
        <time>2021-08-10T12:08:05.850Z</time>
      </trkpt>
      <trkpt lat="46.91888" lon="8.58518">
        <ele>891</ele>
        <time>2021-08-10T12:08:06.851Z</time>
      </trkpt>
      <trkpt lat="46.91888" lon="8.58519">
        <ele>891</ele>
        <time>2021-08-10T12:08:07.851Z</time>
      </trkpt>
      <trkpt lat="46.91889" lon="8.58518">
        <ele>892</ele>
        <time>2021-08-10T12:08:08.851Z</time>
      </trkpt>
      <trkpt lat="46.91889" lon="8.58517">
        <ele>893</ele>
        <time>2021-08-10T12:08:09.851Z</time>
      </trkpt>
      <trkpt lat="46.91888" lon="8.58517">
        <ele>894</ele>
        <time>2021-08-10T12:08:10.850Z</time>
      </trkpt>
      <trkpt lat="46.91889" lon="8.58517">
        <ele>897</ele>
        <time>2021-08-10T12:08:11.851Z</time>
      </trkpt>
      <trkpt lat="46.91889" lon="8.58517">
        <ele>897</ele>
        <time>2021-08-10T12:08:12.850Z</time>
      </trkpt>
      <trkpt lat="46.91889" lon="8.58518">
        <ele>897</ele>
        <time>2021-08-10T12:08:13.850Z</time>
      </trkpt>
      <trkpt lat="46.91888" lon="8.58519">
        <ele>895</ele>
        <time>2021-08-10T12:08:14.851Z</time>
      </trkpt>
      <trkpt lat="46.91887" lon="8.58518">
        <ele>895</ele>
        <time>2021-08-10T12:08:15.851Z</time>
      </trkpt>
      <trkpt lat="46.91888" lon="8.58519">
        <ele>894</ele>
        <time>2021-08-10T12:08:16.851Z</time>
      </trkpt>
      <trkpt lat="46.91888" lon="8.5852">
        <ele>894</ele>
        <time>2021-08-10T12:08:42.951Z</time>
      </trkpt>
      <trkpt lat="46.91889" lon="8.5852">
        <ele>894</ele>
        <time>2021-08-10T12:08:43.950Z</time>
      </trkpt>
      <trkpt lat="46.91889" lon="8.5852">
        <ele>895</ele>
        <time>2021-08-10T12:08:44.950Z</time>
      </trkpt>
      <trkpt lat="46.9189" lon="8.58521">
        <ele>894</ele>
        <time>2021-08-10T12:08:45.951Z</time>
      </trkpt>
      <trkpt lat="46.91888" lon="8.58522">
        <ele>889</ele>
        <time>2021-08-10T12:08:46.953Z</time>
      </trkpt>
      <trkpt lat="46.91888" lon="8.58522">
        <ele>889</ele>
        <time>2021-08-10T12:08:47.952Z</time>
      </trkpt>
      <trkpt lat="46.91888" lon="8.58522">
        <ele>889</ele>
        <time>2021-08-10T12:08:48.952Z</time>
      </trkpt>
      <trkpt lat="46.91888" lon="8.58522">
        <ele>888</ele>
        <time>2021-08-10T12:08:49.952Z</time>
      </trkpt>
      <trkpt lat="46.91888" lon="8.58523">
        <ele>888</ele>
        <time>2021-08-10T12:08:50.952Z</time>
      </trkpt>
      <trkpt lat="46.91887" lon="8.58524">
        <ele>887</ele>
        <time>2021-08-10T12:08:51.952Z</time>
      </trkpt>
      <trkpt lat="46.91886" lon="8.58525">
        <ele>887</ele>
        <time>2021-08-10T12:08:52.952Z</time>
      </trkpt>
      <trkpt lat="46.91885" lon="8.58525">
        <ele>887</ele>
        <time>2021-08-10T12:08:53.953Z</time>
      </trkpt>
      <trkpt lat="46.91885" lon="8.58525">
        <ele>886</ele>
        <time>2021-08-10T12:08:54.952Z</time>
      </trkpt>
      <trkpt lat="46.91885" lon="8.58524">
        <ele>886</ele>
        <time>2021-08-10T12:08:55.952Z</time>
      </trkpt>
      <trkpt lat="46.91886" lon="8.58522">
        <ele>887</ele>
        <time>2021-08-10T12:08:56.952Z</time>
      </trkpt>
      <trkpt lat="46.91885" lon="8.58521">
        <ele>887</ele>
        <time>2021-08-10T12:08:57.952Z</time>
      </trkpt>
      <trkpt lat="46.91885" lon="8.5852">
        <ele>887</ele>
        <time>2021-08-10T12:08:58.953Z</time>
      </trkpt>
      <trkpt lat="46.91885" lon="8.58519">
        <ele>888</ele>
        <time>2021-08-10T12:08:59.952Z</time>
      </trkpt>
      <trkpt lat="46.91884" lon="8.58519">
        <ele>888</ele>
        <time>2021-08-10T12:09:00.952Z</time>
      </trkpt>
      <trkpt lat="46.91884" lon="8.58521">
        <ele>888</ele>
        <time>2021-08-10T12:09:01.952Z</time>
      </trkpt>
      <trkpt lat="46.91884" lon="8.58522">
        <ele>888</ele>
        <time>2021-08-10T12:09:02.952Z</time>
      </trkpt>
      <trkpt lat="46.91884" lon="8.58524">
        <ele>889</ele>
        <time>2021-08-10T12:09:03.952Z</time>
      </trkpt>
      <trkpt lat="46.91885" lon="8.58526">
        <ele>889</ele>
        <time>2021-08-10T12:09:04.952Z</time>
      </trkpt>
      <trkpt lat="46.91885" lon="8.58526">
        <ele>889</ele>
        <time>2021-08-10T12:09:05.952Z</time>
      </trkpt>
      <trkpt lat="46.91886" lon="8.58526">
        <ele>890</ele>
        <time>2021-08-10T12:09:06.952Z</time>
      </trkpt>
      <trkpt lat="46.91885" lon="8.58523">
        <ele>889</ele>
        <time>2021-08-10T12:09:07.952Z</time>
      </trkpt>
      <trkpt lat="46.91885" lon="8.58522">
        <ele>888</ele>
        <time>2021-08-10T12:09:08.952Z</time>
      </trkpt>
      <trkpt lat="46.91885" lon="8.58522">
        <ele>886</ele>
        <time>2021-08-10T12:09:09.954Z</time>
      </trkpt>
      <trkpt lat="46.91885" lon="8.58522">
        <ele>885</ele>
        <time>2021-08-10T12:09:10.954Z</time>
      </trkpt>
      <trkpt lat="46.91884" lon="8.58522">
        <ele>885</ele>
        <time>2021-08-10T12:09:11.953Z</time>
      </trkpt>
      <trkpt lat="46.91884" lon="8.58522">
        <ele>885</ele>
        <time>2021-08-10T12:09:12.954Z</time>
      </trkpt>
      <trkpt lat="46.91883" lon="8.58521">
        <ele>885</ele>
        <time>2021-08-10T12:09:13.953Z</time>
      </trkpt>
      <trkpt lat="46.91882" lon="8.5852">
        <ele>886</ele>
        <time>2021-08-10T12:09:14.953Z</time>
      </trkpt>
      <trkpt lat="46.91882" lon="8.58519">
        <ele>886</ele>
        <time>2021-08-10T12:09:15.954Z</time>
      </trkpt>
      <trkpt lat="46.91881" lon="8.58518">
        <ele>885</ele>
        <time>2021-08-10T12:09:16.954Z</time>
      </trkpt>
      <trkpt lat="46.9188" lon="8.58517">
        <ele>885</ele>
        <time>2021-08-10T12:09:17.953Z</time>
      </trkpt>
      <trkpt lat="46.9188" lon="8.58516">
        <ele>885</ele>
        <time>2021-08-10T12:09:18.953Z</time>
      </trkpt>
      <trkpt lat="46.91879" lon="8.58515">
        <ele>885</ele>
        <time>2021-08-10T12:09:19.954Z</time>
      </trkpt>
      <trkpt lat="46.91879" lon="8.58513">
        <ele>885</ele>
        <time>2021-08-10T12:09:20.954Z</time>
      </trkpt>
      <trkpt lat="46.91879" lon="8.58512">
        <ele>885</ele>
        <time>2021-08-10T12:09:21.954Z</time>
      </trkpt>
      <trkpt lat="46.91878" lon="8.58511">
        <ele>885</ele>
        <time>2021-08-10T12:09:22.953Z</time>
      </trkpt>
      <trkpt lat="46.91877" lon="8.58509">
        <ele>885</ele>
        <time>2021-08-10T12:09:23.954Z</time>
      </trkpt>
      <trkpt lat="46.91877" lon="8.58508">
        <ele>885</ele>
        <time>2021-08-10T12:09:24.954Z</time>
      </trkpt>
      <trkpt lat="46.91876" lon="8.58506">
        <ele>885</ele>
        <time>2021-08-10T12:09:25.953Z</time>
      </trkpt>
      <trkpt lat="46.91875" lon="8.58505">
        <ele>885</ele>
        <time>2021-08-10T12:09:26.954Z</time>
      </trkpt>
      <trkpt lat="46.91875" lon="8.58504">
        <ele>885</ele>
        <time>2021-08-10T12:09:27.954Z</time>
      </trkpt>
      <trkpt lat="46.91874" lon="8.58502">
        <ele>884</ele>
        <time>2021-08-10T12:09:28.954Z</time>
      </trkpt>
      <trkpt lat="46.91874" lon="8.58501">
        <ele>884</ele>
        <time>2021-08-10T12:09:29.953Z</time>
      </trkpt>
      <trkpt lat="46.91873" lon="8.585">
        <ele>884</ele>
        <time>2021-08-10T12:09:30.953Z</time>
      </trkpt>
      <trkpt lat="46.91873" lon="8.585">
        <ele>884</ele>
        <time>2021-08-10T12:09:31.954Z</time>
      </trkpt>
      <trkpt lat="46.91873" lon="8.58499">
        <ele>884</ele>
        <time>2021-08-10T12:09:32.953Z</time>
      </trkpt>
      <trkpt lat="46.91872" lon="8.58499">
        <ele>884</ele>
        <time>2021-08-10T12:09:33.954Z</time>
      </trkpt>
      <trkpt lat="46.91872" lon="8.58499">
        <ele>884</ele>
        <time>2021-08-10T12:09:34.954Z</time>
      </trkpt>
      <trkpt lat="46.91871" lon="8.58498">
        <ele>884</ele>
        <time>2021-08-10T12:09:35.953Z</time>
      </trkpt>
      <trkpt lat="46.91871" lon="8.58498">
        <ele>885</ele>
        <time>2021-08-10T12:09:36.954Z</time>
      </trkpt>
      <trkpt lat="46.91872" lon="8.58504">
        <ele>886</ele>
        <time>2021-08-10T12:09:37.955Z</time>
      </trkpt>
      <trkpt lat="46.91871" lon="8.58504">
        <ele>886</ele>
        <time>2021-08-10T12:09:38.955Z</time>
      </trkpt>
      <trkpt lat="46.91871" lon="8.58505">
        <ele>886</ele>
        <time>2021-08-10T12:09:39.954Z</time>
      </trkpt>
      <trkpt lat="46.91872" lon="8.58505">
        <ele>886</ele>
        <time>2021-08-10T12:09:40.954Z</time>
      </trkpt>
      <trkpt lat="46.91872" lon="8.58505">
        <ele>886</ele>
        <time>2021-08-10T12:09:41.954Z</time>
      </trkpt>
      <trkpt lat="46.91872" lon="8.58504">
        <ele>887</ele>
        <time>2021-08-10T12:09:42.954Z</time>
      </trkpt>
      <trkpt lat="46.91872" lon="8.58504">
        <ele>887</ele>
        <time>2021-08-10T12:09:43.955Z</time>
      </trkpt>
      <trkpt lat="46.91871" lon="8.58504">
        <ele>888</ele>
        <time>2021-08-10T12:09:44.954Z</time>
      </trkpt>
      <trkpt lat="46.91871" lon="8.58504">
        <ele>888</ele>
        <time>2021-08-10T12:09:45.954Z</time>
      </trkpt>
      <trkpt lat="46.9187" lon="8.58504">
        <ele>889</ele>
        <time>2021-08-10T12:09:46.954Z</time>
      </trkpt>
      <trkpt lat="46.9187" lon="8.58503">
        <ele>890</ele>
        <time>2021-08-10T12:09:47.954Z</time>
      </trkpt>
      <trkpt lat="46.91869" lon="8.58503">
        <ele>890</ele>
        <time>2021-08-10T12:09:48.954Z</time>
      </trkpt>
      <trkpt lat="46.91869" lon="8.58502">
        <ele>890</ele>
        <time>2021-08-10T12:09:49.954Z</time>
      </trkpt>
      <trkpt lat="46.91868" lon="8.58501">
        <ele>890</ele>
        <time>2021-08-10T12:09:50.954Z</time>
      </trkpt>
      <trkpt lat="46.91867" lon="8.585">
        <ele>891</ele>
        <time>2021-08-10T12:09:51.954Z</time>
      </trkpt>
      <trkpt lat="46.91866" lon="8.585">
        <ele>891</ele>
        <time>2021-08-10T12:09:52.954Z</time>
      </trkpt>
      <trkpt lat="46.91865" lon="8.585">
        <ele>891</ele>
        <time>2021-08-10T12:09:53.954Z</time>
      </trkpt>
      <trkpt lat="46.91864" lon="8.585">
        <ele>891</ele>
        <time>2021-08-10T12:09:54.954Z</time>
      </trkpt>
      <trkpt lat="46.91864" lon="8.58501">
        <ele>891</ele>
        <time>2021-08-10T12:09:55.954Z</time>
      </trkpt>
      <trkpt lat="46.91864" lon="8.58501">
        <ele>892</ele>
        <time>2021-08-10T12:09:56.954Z</time>
      </trkpt>
      <trkpt lat="46.91863" lon="8.58496">
        <ele>892</ele>
        <time>2021-08-10T12:09:57.955Z</time>
      </trkpt>
      <trkpt lat="46.91862" lon="8.58495">
        <ele>892</ele>
        <time>2021-08-10T12:09:58.956Z</time>
      </trkpt>
      <trkpt lat="46.91861" lon="8.58495">
        <ele>892</ele>
        <time>2021-08-10T12:09:59.956Z</time>
      </trkpt>
      <trkpt lat="46.9186" lon="8.58494">
        <ele>892</ele>
        <time>2021-08-10T12:10:00.955Z</time>
      </trkpt>
      <trkpt lat="46.9186" lon="8.58493">
        <ele>893</ele>
        <time>2021-08-10T12:10:01.956Z</time>
      </trkpt>
      <trkpt lat="46.9186" lon="8.58492">
        <ele>893</ele>
        <time>2021-08-10T12:10:02.956Z</time>
      </trkpt>
      <trkpt lat="46.9186" lon="8.58492">
        <ele>893</ele>
        <time>2021-08-10T12:10:03.956Z</time>
      </trkpt>
      <trkpt lat="46.9186" lon="8.58493">
        <ele>894</ele>
        <time>2021-08-10T12:10:04.956Z</time>
      </trkpt>
      <trkpt lat="46.9186" lon="8.58493">
        <ele>894</ele>
        <time>2021-08-10T12:10:05.956Z</time>
      </trkpt>
      <trkpt lat="46.9186" lon="8.58494">
        <ele>894</ele>
        <time>2021-08-10T12:10:06.955Z</time>
      </trkpt>
      <trkpt lat="46.9186" lon="8.58495">
        <ele>894</ele>
        <time>2021-08-10T12:10:07.956Z</time>
      </trkpt>
      <trkpt lat="46.91861" lon="8.58497">
        <ele>894</ele>
        <time>2021-08-10T12:10:08.956Z</time>
      </trkpt>
      <trkpt lat="46.91862" lon="8.58498">
        <ele>894</ele>
        <time>2021-08-10T12:10:09.957Z</time>
      </trkpt>
      <trkpt lat="46.91863" lon="8.58498">
        <ele>894</ele>
        <time>2021-08-10T12:10:10.956Z</time>
      </trkpt>
      <trkpt lat="46.91864" lon="8.58498">
        <ele>894</ele>
        <time>2021-08-10T12:10:11.957Z</time>
      </trkpt>
      <trkpt lat="46.91864" lon="8.58499">
        <ele>894</ele>
        <time>2021-08-10T12:10:12.956Z</time>
      </trkpt>
      <trkpt lat="46.91865" lon="8.58499">
        <ele>894</ele>
        <time>2021-08-10T12:10:13.957Z</time>
      </trkpt>
      <trkpt lat="46.91866" lon="8.58499">
        <ele>894</ele>
        <time>2021-08-10T12:10:14.956Z</time>
      </trkpt>
      <trkpt lat="46.91866" lon="8.58499">
        <ele>894</ele>
        <time>2021-08-10T12:10:15.957Z</time>
      </trkpt>
      <trkpt lat="46.91867" lon="8.58499">
        <ele>894</ele>
        <time>2021-08-10T12:10:16.957Z</time>
      </trkpt>
      <trkpt lat="46.91868" lon="8.58497">
        <ele>894</ele>
        <time>2021-08-10T12:10:17.957Z</time>
      </trkpt>
      <trkpt lat="46.91869" lon="8.58498">
        <ele>894</ele>
        <time>2021-08-10T12:10:25.102Z</time>
      </trkpt>
      <trkpt lat="46.91869" lon="8.58498">
        <ele>894</ele>
        <time>2021-08-10T12:10:26.102Z</time>
      </trkpt>
      <trkpt lat="46.91869" lon="8.58497">
        <ele>894</ele>
        <time>2021-08-10T12:10:27.103Z</time>
      </trkpt>
      <trkpt lat="46.91869" lon="8.58497">
        <ele>894</ele>
        <time>2021-08-10T12:10:28.102Z</time>
      </trkpt>
      <trkpt lat="46.9187" lon="8.58496">
        <ele>894</ele>
        <time>2021-08-10T12:10:29.102Z</time>
      </trkpt>
      <trkpt lat="46.91872" lon="8.58497">
        <ele>894</ele>
        <time>2021-08-10T12:10:30.102Z</time>
      </trkpt>
      <trkpt lat="46.91872" lon="8.58498">
        <ele>893</ele>
        <time>2021-08-10T12:10:31.103Z</time>
      </trkpt>
      <trkpt lat="46.91873" lon="8.58498">
        <ele>893</ele>
        <time>2021-08-10T12:10:32.102Z</time>
      </trkpt>
      <trkpt lat="46.91874" lon="8.58499">
        <ele>893</ele>
        <time>2021-08-10T12:10:33.102Z</time>
      </trkpt>
      <trkpt lat="46.91875" lon="8.58499">
        <ele>892</ele>
        <time>2021-08-10T12:10:34.102Z</time>
      </trkpt>
      <trkpt lat="46.91875" lon="8.58499">
        <ele>892</ele>
        <time>2021-08-10T12:10:35.103Z</time>
      </trkpt>
      <trkpt lat="46.91876" lon="8.58499">
        <ele>892</ele>
        <time>2021-08-10T12:10:36.102Z</time>
      </trkpt>
      <trkpt lat="46.91876" lon="8.58499">
        <ele>891</ele>
        <time>2021-08-10T12:10:37.103Z</time>
      </trkpt>
      <trkpt lat="46.91876" lon="8.58499">
        <ele>891</ele>
        <time>2021-08-10T12:10:38.102Z</time>
      </trkpt>
      <trkpt lat="46.91877" lon="8.58503">
        <ele>891</ele>
        <time>2021-08-10T12:10:39.103Z</time>
      </trkpt>
      <trkpt lat="46.91878" lon="8.58505">
        <ele>891</ele>
        <time>2021-08-10T12:10:40.102Z</time>
      </trkpt>
      <trkpt lat="46.91879" lon="8.58507">
        <ele>891</ele>
        <time>2021-08-10T12:10:41.103Z</time>
      </trkpt>
      <trkpt lat="46.9188" lon="8.58508">
        <ele>892</ele>
        <time>2021-08-10T12:10:42.102Z</time>
      </trkpt>
      <trkpt lat="46.91881" lon="8.58509">
        <ele>892</ele>
        <time>2021-08-10T12:10:43.103Z</time>
      </trkpt>
      <trkpt lat="46.9188" lon="8.5851">
        <ele>891</ele>
        <time>2021-08-10T12:10:44.102Z</time>
      </trkpt>
      <trkpt lat="46.9188" lon="8.58511">
        <ele>891</ele>
        <time>2021-08-10T12:10:45.102Z</time>
      </trkpt>
      <trkpt lat="46.9188" lon="8.58513">
        <ele>891</ele>
        <time>2021-08-10T12:10:46.103Z</time>
      </trkpt>
      <trkpt lat="46.91879" lon="8.58514">
        <ele>891</ele>
        <time>2021-08-10T12:10:56.223Z</time>
      </trkpt>
      <trkpt lat="46.91879" lon="8.58514">
        <ele>891</ele>
        <time>2021-08-10T12:10:57.224Z</time>
      </trkpt>
      <trkpt lat="46.91878" lon="8.58515">
        <ele>890</ele>
        <time>2021-08-10T12:10:58.224Z</time>
      </trkpt>
      <trkpt lat="46.91878" lon="8.58516">
        <ele>890</ele>
        <time>2021-08-10T12:10:59.223Z</time>
      </trkpt>
      <trkpt lat="46.91877" lon="8.58516">
        <ele>889</ele>
        <time>2021-08-10T12:11:00.223Z</time>
      </trkpt>
      <trkpt lat="46.91877" lon="8.58517">
        <ele>889</ele>
        <time>2021-08-10T12:11:01.223Z</time>
      </trkpt>
      <trkpt lat="46.91877" lon="8.58518">
        <ele>889</ele>
        <time>2021-08-10T12:11:02.223Z</time>
      </trkpt>
      <trkpt lat="46.91876" lon="8.58519">
        <ele>889</ele>
        <time>2021-08-10T12:11:03.224Z</time>
      </trkpt>
      <trkpt lat="46.91875" lon="8.58519">
        <ele>889</ele>
        <time>2021-08-10T12:11:04.224Z</time>
      </trkpt>
      <trkpt lat="46.91874" lon="8.58519">
        <ele>888</ele>
        <time>2021-08-10T12:11:05.224Z</time>
      </trkpt>
      <trkpt lat="46.91873" lon="8.5852">
        <ele>888</ele>
        <time>2021-08-10T12:11:06.223Z</time>
      </trkpt>
      <trkpt lat="46.91872" lon="8.5852">
        <ele>888</ele>
        <time>2021-08-10T12:11:07.224Z</time>
      </trkpt>
      <trkpt lat="46.91872" lon="8.58521">
        <ele>888</ele>
        <time>2021-08-10T12:11:08.223Z</time>
      </trkpt>
      <trkpt lat="46.91871" lon="8.58523">
        <ele>888</ele>
        <time>2021-08-10T12:11:09.224Z</time>
      </trkpt>
      <trkpt lat="46.9187" lon="8.58521">
        <ele>889</ele>
        <time>2021-08-10T12:11:10.224Z</time>
      </trkpt>
      <trkpt lat="46.91871" lon="8.5852">
        <ele>888</ele>
        <time>2021-08-10T12:11:11.224Z</time>
      </trkpt>
      <trkpt lat="46.91872" lon="8.58519">
        <ele>888</ele>
        <time>2021-08-10T12:11:12.224Z</time>
      </trkpt>
      <trkpt lat="46.91872" lon="8.58519">
        <ele>889</ele>
        <time>2021-08-10T12:11:13.224Z</time>
      </trkpt>
      <trkpt lat="46.91872" lon="8.58518">
        <ele>889</ele>
        <time>2021-08-10T12:11:19.349Z</time>
      </trkpt>
      <trkpt lat="46.91873" lon="8.58517">
        <ele>889</ele>
        <time>2021-08-10T12:11:20.349Z</time>
      </trkpt>
      <trkpt lat="46.91874" lon="8.58516">
        <ele>889</ele>
        <time>2021-08-10T12:11:21.348Z</time>
      </trkpt>
      <trkpt lat="46.91876" lon="8.58516">
        <ele>889</ele>
        <time>2021-08-10T12:11:22.348Z</time>
      </trkpt>
      <trkpt lat="46.91876" lon="8.58516">
        <ele>889</ele>
        <time>2021-08-10T12:11:23.349Z</time>
      </trkpt>
      <trkpt lat="46.91877" lon="8.58517">
        <ele>889</ele>
        <time>2021-08-10T12:11:24.349Z</time>
      </trkpt>
      <trkpt lat="46.91878" lon="8.58518">
        <ele>889</ele>
        <time>2021-08-10T12:11:25.349Z</time>
      </trkpt>
      <trkpt lat="46.91878" lon="8.58518">
        <ele>890</ele>
        <time>2021-08-10T12:11:26.349Z</time>
      </trkpt>
      <trkpt lat="46.91879" lon="8.58518">
        <ele>890</ele>
        <time>2021-08-10T12:11:27.349Z</time>
      </trkpt>
      <trkpt lat="46.91879" lon="8.58519">
        <ele>890</ele>
        <time>2021-08-10T12:11:28.349Z</time>
      </trkpt>
      <trkpt lat="46.91878" lon="8.5852">
        <ele>890</ele>
        <time>2021-08-10T12:11:29.349Z</time>
      </trkpt>
      <trkpt lat="46.91878" lon="8.5852">
        <ele>890</ele>
        <time>2021-08-10T12:11:30.349Z</time>
      </trkpt>
      <trkpt lat="46.9188" lon="8.58523">
        <ele>890</ele>
        <time>2021-08-10T12:11:31.351Z</time>
      </trkpt>
      <trkpt lat="46.9188" lon="8.58522">
        <ele>890</ele>
        <time>2021-08-10T12:11:32.350Z</time>
      </trkpt>
      <trkpt lat="46.9188" lon="8.5852">
        <ele>890</ele>
        <time>2021-08-10T12:11:33.351Z</time>
      </trkpt>
      <trkpt lat="46.9188" lon="8.5852">
        <ele>890</ele>
        <time>2021-08-10T12:11:34.351Z</time>
      </trkpt>
      <trkpt lat="46.91879" lon="8.5852">
        <ele>890</ele>
        <time>2021-08-10T12:11:35.350Z</time>
      </trkpt>
      <trkpt lat="46.91881" lon="8.5852">
        <ele>890</ele>
        <time>2021-08-10T12:11:36.352Z</time>
      </trkpt>
      <trkpt lat="46.91882" lon="8.58519">
        <ele>891</ele>
        <time>2021-08-10T12:11:37.351Z</time>
      </trkpt>
      <trkpt lat="46.91882" lon="8.58519">
        <ele>891</ele>
        <time>2021-08-10T12:11:38.351Z</time>
      </trkpt>
      <trkpt lat="46.91883" lon="8.58518">
        <ele>891</ele>
        <time>2021-08-10T12:11:39.351Z</time>
      </trkpt>
      <trkpt lat="46.91883" lon="8.58518">
        <ele>891</ele>
        <time>2021-08-10T12:11:40.352Z</time>
      </trkpt>
      <trkpt lat="46.91883" lon="8.58519">
        <ele>892</ele>
        <time>2021-08-10T12:11:41.353Z</time>
      </trkpt>
      <trkpt lat="46.91882" lon="8.58519">
        <ele>892</ele>
        <time>2021-08-10T12:11:42.353Z</time>
      </trkpt>
      <trkpt lat="46.91883" lon="8.58519">
        <ele>891</ele>
        <time>2021-08-10T12:11:43.353Z</time>
      </trkpt>
      <trkpt lat="46.91883" lon="8.58519">
        <ele>891</ele>
        <time>2021-08-10T12:11:44.352Z</time>
      </trkpt>
      <trkpt lat="46.91882" lon="8.58519">
        <ele>890</ele>
        <time>2021-08-10T12:11:45.353Z</time>
      </trkpt>
      <trkpt lat="46.91882" lon="8.5852">
        <ele>891</ele>
        <time>2021-08-10T12:11:46.353Z</time>
      </trkpt>
      <trkpt lat="46.91882" lon="8.5852">
        <ele>891</ele>
        <time>2021-08-10T12:11:47.352Z</time>
      </trkpt>
      <trkpt lat="46.91885" lon="8.58521">
        <ele>892</ele>
        <time>2021-08-10T12:11:48.354Z</time>
      </trkpt>
      <trkpt lat="46.91884" lon="8.58521">
        <ele>892</ele>
        <time>2021-08-10T12:11:49.354Z</time>
      </trkpt>
      <trkpt lat="46.91884" lon="8.58521">
        <ele>892</ele>
        <time>2021-08-10T12:11:50.353Z</time>
      </trkpt>
      <trkpt lat="46.91885" lon="8.58521">
        <ele>892</ele>
        <time>2021-08-10T12:11:51.353Z</time>
      </trkpt>
      <trkpt lat="46.91885" lon="8.58521">
        <ele>892</ele>
        <time>2021-08-10T12:11:52.353Z</time>
      </trkpt>
      <trkpt lat="46.91885" lon="8.58519">
        <ele>893</ele>
        <time>2021-08-10T12:11:53.354Z</time>
      </trkpt>
      <trkpt lat="46.91886" lon="8.58519">
        <ele>892</ele>
        <time>2021-08-10T12:11:54.353Z</time>
      </trkpt>
      <trkpt lat="46.91886" lon="8.58518">
        <ele>892</ele>
        <time>2021-08-10T12:11:55.353Z</time>
      </trkpt>
      <trkpt lat="46.91885" lon="8.5852">
        <ele>894</ele>
        <time>2021-08-10T12:11:56.354Z</time>
      </trkpt>
      <trkpt lat="46.91885" lon="8.58519">
        <ele>894</ele>
        <time>2021-08-10T12:11:57.353Z</time>
      </trkpt>
      <trkpt lat="46.91885" lon="8.58519">
        <ele>894</ele>
        <time>2021-08-10T12:11:58.353Z</time>
      </trkpt>
      <trkpt lat="46.91887" lon="8.58519">
        <ele>896</ele>
        <time>2021-08-10T12:11:59.354Z</time>
      </trkpt>
      <trkpt lat="46.91886" lon="8.58519">
        <ele>896</ele>
        <time>2021-08-10T12:12:00.355Z</time>
      </trkpt>
      <trkpt lat="46.91886" lon="8.58519">
        <ele>896</ele>
        <time>2021-08-10T12:12:01.354Z</time>
      </trkpt>
      <trkpt lat="46.91886" lon="8.58519">
        <ele>895</ele>
        <time>2021-08-10T12:12:02.354Z</time>
      </trkpt>
      <trkpt lat="46.91885" lon="8.58518">
        <ele>895</ele>
        <time>2021-08-10T12:12:03.355Z</time>
      </trkpt>
      <trkpt lat="46.91886" lon="8.58518">
        <ele>893</ele>
        <time>2021-08-10T12:12:04.354Z</time>
      </trkpt>
      <trkpt lat="46.91886" lon="8.58517">
        <ele>893</ele>
        <time>2021-08-10T12:12:05.355Z</time>
      </trkpt>
      <trkpt lat="46.91886" lon="8.58518">
        <ele>893</ele>
        <time>2021-08-10T12:12:06.354Z</time>
      </trkpt>
      <trkpt lat="46.91885" lon="8.58518">
        <ele>895</ele>
        <time>2021-08-10T12:12:07.355Z</time>
      </trkpt>
      <trkpt lat="46.91887" lon="8.58518">
        <ele>896</ele>
        <time>2021-08-10T12:12:08.355Z</time>
      </trkpt>
      <trkpt lat="46.91887" lon="8.58518">
        <ele>897</ele>
        <time>2021-08-10T12:12:09.354Z</time>
      </trkpt>
      <trkpt lat="46.91886" lon="8.58518">
        <ele>892</ele>
        <time>2021-08-10T12:12:10.355Z</time>
      </trkpt>
      <trkpt lat="46.91886" lon="8.58517">
        <ele>890</ele>
        <time>2021-08-10T12:12:11.355Z</time>
      </trkpt>
      <trkpt lat="46.91886" lon="8.58518">
        <ele>889</ele>
        <time>2021-08-10T12:12:12.355Z</time>
      </trkpt>
      <trkpt lat="46.91886" lon="8.58518">
        <ele>889</ele>
        <time>2021-08-10T12:12:13.354Z</time>
      </trkpt>
      <trkpt lat="46.91887" lon="8.58518">
        <ele>889</ele>
        <time>2021-08-10T12:12:14.355Z</time>
      </trkpt>
      <trkpt lat="46.91888" lon="8.58518">
        <ele>889</ele>
        <time>2021-08-10T12:12:15.355Z</time>
      </trkpt>
      <trkpt lat="46.91888" lon="8.58518">
        <ele>890</ele>
        <time>2021-08-10T12:12:16.354Z</time>
      </trkpt>
      <trkpt lat="46.91888" lon="8.58517">
        <ele>890</ele>
        <time>2021-08-10T12:12:17.355Z</time>
      </trkpt>
      <trkpt lat="46.91888" lon="8.58516">
        <ele>890</ele>
        <time>2021-08-10T12:12:18.354Z</time>
      </trkpt>
      <trkpt lat="46.91887" lon="8.58515">
        <ele>891</ele>
        <time>2021-08-10T12:12:19.354Z</time>
      </trkpt>
      <trkpt lat="46.91887" lon="8.58515">
        <ele>891</ele>
        <time>2021-08-10T12:12:20.355Z</time>
      </trkpt>
      <trkpt lat="46.91886" lon="8.58515">
        <ele>891</ele>
        <time>2021-08-10T12:12:21.355Z</time>
      </trkpt>
      <trkpt lat="46.91887" lon="8.58515">
        <ele>891</ele>
        <time>2021-08-10T12:12:22.355Z</time>
      </trkpt>
      <trkpt lat="46.91886" lon="8.58514">
        <ele>890</ele>
        <time>2021-08-10T12:12:23.355Z</time>
      </trkpt>
      <trkpt lat="46.91887" lon="8.58514">
        <ele>891</ele>
        <time>2021-08-10T12:12:24.355Z</time>
      </trkpt>
      <trkpt lat="46.91887" lon="8.58515">
        <ele>891</ele>
        <time>2021-08-10T12:12:25.355Z</time>
      </trkpt>
      <trkpt lat="46.91887" lon="8.58515">
        <ele>891</ele>
        <time>2021-08-10T12:12:26.355Z</time>
      </trkpt>
      <trkpt lat="46.91887" lon="8.58515">
        <ele>891</ele>
        <time>2021-08-10T12:12:27.354Z</time>
      </trkpt>
      <trkpt lat="46.91887" lon="8.58517">
        <ele>890</ele>
        <time>2021-08-10T12:12:28.355Z</time>
      </trkpt>
      <trkpt lat="46.91887" lon="8.58518">
        <ele>890</ele>
        <time>2021-08-10T12:12:29.354Z</time>
      </trkpt>
      <trkpt lat="46.91887" lon="8.58518">
        <ele>890</ele>
        <time>2021-08-10T12:12:30.354Z</time>
      </trkpt>
      <trkpt lat="46.91887" lon="8.58519">
        <ele>891</ele>
        <time>2021-08-10T12:12:31.354Z</time>
      </trkpt>
      <trkpt lat="46.91886" lon="8.58518">
        <ele>891</ele>
        <time>2021-08-10T12:12:32.354Z</time>
      </trkpt>
      <trkpt lat="46.91885" lon="8.58518">
        <ele>891</ele>
        <time>2021-08-10T12:12:33.355Z</time>
      </trkpt>
      <trkpt lat="46.91884" lon="8.58517">
        <ele>892</ele>
        <time>2021-08-10T12:12:34.355Z</time>
      </trkpt>
      <trkpt lat="46.91884" lon="8.58517">
        <ele>892</ele>
        <time>2021-08-10T12:12:35.354Z</time>
      </trkpt>
      <trkpt lat="46.91884" lon="8.58517">
        <ele>892</ele>
        <time>2021-08-10T12:12:36.355Z</time>
      </trkpt>
      <trkpt lat="46.91883" lon="8.58516">
        <ele>892</ele>
        <time>2021-08-10T12:12:37.354Z</time>
      </trkpt>
      <trkpt lat="46.91883" lon="8.58516">
        <ele>892</ele>
        <time>2021-08-10T12:12:38.355Z</time>
      </trkpt>
      <trkpt lat="46.91883" lon="8.58516">
        <ele>892</ele>
        <time>2021-08-10T12:12:39.354Z</time>
      </trkpt>
      <trkpt lat="46.91883" lon="8.58516">
        <ele>892</ele>
        <time>2021-08-10T12:12:40.354Z</time>
      </trkpt>
      <trkpt lat="46.91881" lon="8.58514">
        <ele>893</ele>
        <time>2021-08-10T12:12:41.355Z</time>
      </trkpt>
      <trkpt lat="46.91881" lon="8.58513">
        <ele>893</ele>
        <time>2021-08-10T12:12:42.355Z</time>
      </trkpt>
      <trkpt lat="46.91881" lon="8.58512">
        <ele>894</ele>
        <time>2021-08-10T12:12:43.355Z</time>
      </trkpt>
      <trkpt lat="46.9188" lon="8.58511">
        <ele>894</ele>
        <time>2021-08-10T12:12:44.355Z</time>
      </trkpt>
      <trkpt lat="46.91879" lon="8.58511">
        <ele>894</ele>
        <time>2021-08-10T12:12:45.356Z</time>
      </trkpt>
      <trkpt lat="46.91878" lon="8.58509">
        <ele>894</ele>
        <time>2021-08-10T12:12:46.356Z</time>
      </trkpt>
      <trkpt lat="46.91876" lon="8.58507">
        <ele>895</ele>
        <time>2021-08-10T12:12:47.356Z</time>
      </trkpt>
      <trkpt lat="46.91874" lon="8.58504">
        <ele>895</ele>
        <time>2021-08-10T12:12:48.356Z</time>
      </trkpt>
      <trkpt lat="46.91874" lon="8.58502">
        <ele>895</ele>
        <time>2021-08-10T12:12:49.356Z</time>
      </trkpt>
      <trkpt lat="46.91873" lon="8.58501">
        <ele>895</ele>
        <time>2021-08-10T12:12:50.355Z</time>
      </trkpt>
      <trkpt lat="46.91873" lon="8.58499">
        <ele>895</ele>
        <time>2021-08-10T12:12:51.355Z</time>
      </trkpt>
      <trkpt lat="46.91872" lon="8.58498">
        <ele>896</ele>
        <time>2021-08-10T12:12:52.355Z</time>
      </trkpt>
      <trkpt lat="46.91871" lon="8.58497">
        <ele>896</ele>
        <time>2021-08-10T12:12:53.356Z</time>
      </trkpt>
      <trkpt lat="46.91871" lon="8.58496">
        <ele>896</ele>
        <time>2021-08-10T12:12:54.356Z</time>
      </trkpt>
      <trkpt lat="46.9187" lon="8.58495">
        <ele>896</ele>
        <time>2021-08-10T12:12:55.355Z</time>
      </trkpt>
      <trkpt lat="46.91869" lon="8.58495">
        <ele>897</ele>
        <time>2021-08-10T12:12:56.355Z</time>
      </trkpt>
      <trkpt lat="46.91868" lon="8.58494">
        <ele>897</ele>
        <time>2021-08-10T12:12:57.356Z</time>
      </trkpt>
      <trkpt lat="46.91867" lon="8.58494">
        <ele>897</ele>
        <time>2021-08-10T12:12:58.356Z</time>
      </trkpt>
      <trkpt lat="46.91866" lon="8.58494">
        <ele>897</ele>
        <time>2021-08-10T12:12:59.356Z</time>
      </trkpt>
      <trkpt lat="46.91865" lon="8.58494">
        <ele>897</ele>
        <time>2021-08-10T12:13:00.356Z</time>
      </trkpt>
      <trkpt lat="46.91864" lon="8.58493">
        <ele>897</ele>
        <time>2021-08-10T12:13:01.356Z</time>
      </trkpt>
      <trkpt lat="46.91863" lon="8.58494">
        <ele>897</ele>
        <time>2021-08-10T12:13:02.355Z</time>
      </trkpt>
      <trkpt lat="46.91862" lon="8.58495">
        <ele>897</ele>
        <time>2021-08-10T12:13:03.356Z</time>
      </trkpt>
      <trkpt lat="46.91861" lon="8.58497">
        <ele>897</ele>
        <time>2021-08-10T12:13:04.356Z</time>
      </trkpt>
      <trkpt lat="46.9186" lon="8.58499">
        <ele>897</ele>
        <time>2021-08-10T12:13:05.356Z</time>
      </trkpt>
      <trkpt lat="46.91859" lon="8.585">
        <ele>897</ele>
        <time>2021-08-10T12:13:06.355Z</time>
      </trkpt>
      <trkpt lat="46.91859" lon="8.58502">
        <ele>896</ele>
        <time>2021-08-10T12:13:07.356Z</time>
      </trkpt>
      <trkpt lat="46.91858" lon="8.58504">
        <ele>896</ele>
        <time>2021-08-10T12:13:08.356Z</time>
      </trkpt>
      <trkpt lat="46.91858" lon="8.58505">
        <ele>896</ele>
        <time>2021-08-10T12:13:09.355Z</time>
      </trkpt>
      <trkpt lat="46.91857" lon="8.58506">
        <ele>897</ele>
        <time>2021-08-10T12:13:10.356Z</time>
      </trkpt>
      <trkpt lat="46.91857" lon="8.58507">
        <ele>897</ele>
        <time>2021-08-10T12:13:11.355Z</time>
      </trkpt>
      <trkpt lat="46.91856" lon="8.58508">
        <ele>898</ele>
        <time>2021-08-10T12:13:12.355Z</time>
      </trkpt>
      <trkpt lat="46.91856" lon="8.5851">
        <ele>898</ele>
        <time>2021-08-10T12:13:13.356Z</time>
      </trkpt>
      <trkpt lat="46.91855" lon="8.58511">
        <ele>899</ele>
        <time>2021-08-10T12:13:14.355Z</time>
      </trkpt>
      <trkpt lat="46.91855" lon="8.58513">
        <ele>900</ele>
        <time>2021-08-10T12:13:15.356Z</time>
      </trkpt>
      <trkpt lat="46.91855" lon="8.58515">
        <ele>900</ele>
        <time>2021-08-10T12:13:16.356Z</time>
      </trkpt>
      <trkpt lat="46.91856" lon="8.58517">
        <ele>900</ele>
        <time>2021-08-10T12:13:17.356Z</time>
      </trkpt>
      <trkpt lat="46.91856" lon="8.58519">
        <ele>899</ele>
        <time>2021-08-10T12:13:18.355Z</time>
      </trkpt>
      <trkpt lat="46.91856" lon="8.58523">
        <ele>899</ele>
        <time>2021-08-10T12:13:19.356Z</time>
      </trkpt>
      <trkpt lat="46.91856" lon="8.58525">
        <ele>899</ele>
        <time>2021-08-10T12:13:24.461Z</time>
      </trkpt>
      <trkpt lat="46.91858" lon="8.58527">
        <ele>899</ele>
        <time>2021-08-10T12:13:25.462Z</time>
      </trkpt>
      <trkpt lat="46.91858" lon="8.58528">
        <ele>899</ele>
        <time>2021-08-10T12:13:42.363Z</time>
      </trkpt>
      <trkpt lat="46.91859" lon="8.58529">
        <ele>898</ele>
        <time>2021-08-10T12:13:43.363Z</time>
      </trkpt>
      <trkpt lat="46.91859" lon="8.5853">
        <ele>898</ele>
        <time>2021-08-10T12:13:44.362Z</time>
      </trkpt>
      <trkpt lat="46.9186" lon="8.58531">
        <ele>898</ele>
        <time>2021-08-10T12:13:45.363Z</time>
      </trkpt>
      <trkpt lat="46.9186" lon="8.58532">
        <ele>898</ele>
        <time>2021-08-10T12:13:46.363Z</time>
      </trkpt>
      <trkpt lat="46.9186" lon="8.58533">
        <ele>898</ele>
        <time>2021-08-10T12:13:47.363Z</time>
      </trkpt>
      <trkpt lat="46.91861" lon="8.58533">
        <ele>898</ele>
        <time>2021-08-10T12:13:48.363Z</time>
      </trkpt>
      <trkpt lat="46.91862" lon="8.58534">
        <ele>898</ele>
        <time>2021-08-10T12:13:49.363Z</time>
      </trkpt>
      <trkpt lat="46.91862" lon="8.58534">
        <ele>898</ele>
        <time>2021-08-10T12:13:50.362Z</time>
      </trkpt>
      <trkpt lat="46.91862" lon="8.58535">
        <ele>898</ele>
        <time>2021-08-10T12:13:51.362Z</time>
      </trkpt>
      <trkpt lat="46.91862" lon="8.58536">
        <ele>898</ele>
        <time>2021-08-10T12:13:52.363Z</time>
      </trkpt>
      <trkpt lat="46.91862" lon="8.58537">
        <ele>898</ele>
        <time>2021-08-10T12:13:53.362Z</time>
      </trkpt>
      <trkpt lat="46.91861" lon="8.58537">
        <ele>897</ele>
        <time>2021-08-10T12:13:54.363Z</time>
      </trkpt>
      <trkpt lat="46.91861" lon="8.58537">
        <ele>897</ele>
        <time>2021-08-10T12:13:55.362Z</time>
      </trkpt>
      <trkpt lat="46.91861" lon="8.58536">
        <ele>896</ele>
        <time>2021-08-10T12:13:56.362Z</time>
      </trkpt>
      <trkpt lat="46.91862" lon="8.58535">
        <ele>896</ele>
        <time>2021-08-10T12:13:57.362Z</time>
      </trkpt>
      <trkpt lat="46.91863" lon="8.58535">
        <ele>895</ele>
        <time>2021-08-10T12:13:58.362Z</time>
      </trkpt>
      <trkpt lat="46.91864" lon="8.58533">
        <ele>895</ele>
        <time>2021-08-10T12:13:59.363Z</time>
      </trkpt>
      <trkpt lat="46.91866" lon="8.58533">
        <ele>894</ele>
        <time>2021-08-10T12:14:00.363Z</time>
      </trkpt>
      <trkpt lat="46.91866" lon="8.58532">
        <ele>894</ele>
        <time>2021-08-10T12:14:01.362Z</time>
      </trkpt>
      <trkpt lat="46.91867" lon="8.58531">
        <ele>894</ele>
        <time>2021-08-10T12:14:02.362Z</time>
      </trkpt>
      <trkpt lat="46.91867" lon="8.5853">
        <ele>893</ele>
        <time>2021-08-10T12:14:03.362Z</time>
      </trkpt>
      <trkpt lat="46.91867" lon="8.5853">
        <ele>893</ele>
        <time>2021-08-10T12:14:04.363Z</time>
      </trkpt>
      <trkpt lat="46.91867" lon="8.5853">
        <ele>892</ele>
        <time>2021-08-10T12:14:05.363Z</time>
      </trkpt>
      <trkpt lat="46.91868" lon="8.58528">
        <ele>889</ele>
        <time>2021-08-10T12:14:06.364Z</time>
      </trkpt>
      <trkpt lat="46.91868" lon="8.58528">
        <ele>889</ele>
        <time>2021-08-10T12:14:07.364Z</time>
      </trkpt>
      <trkpt lat="46.91866" lon="8.58528">
        <ele>886</ele>
        <time>2021-08-10T12:14:08.364Z</time>
      </trkpt>
      <trkpt lat="46.91865" lon="8.58528">
        <ele>886</ele>
        <time>2021-08-10T12:14:09.364Z</time>
      </trkpt>
      <trkpt lat="46.91864" lon="8.58529">
        <ele>885</ele>
        <time>2021-08-10T12:14:10.364Z</time>
      </trkpt>
      <trkpt lat="46.91864" lon="8.58529">
        <ele>884</ele>
        <time>2021-08-10T12:14:11.363Z</time>
      </trkpt>
      <trkpt lat="46.91864" lon="8.5853">
        <ele>884</ele>
        <time>2021-08-10T12:14:12.364Z</time>
      </trkpt>
      <trkpt lat="46.91864" lon="8.58531">
        <ele>884</ele>
        <time>2021-08-10T12:14:13.364Z</time>
      </trkpt>
      <trkpt lat="46.91865" lon="8.58531">
        <ele>884</ele>
        <time>2021-08-10T12:14:14.363Z</time>
      </trkpt>
      <trkpt lat="46.91865" lon="8.58531">
        <ele>884</ele>
        <time>2021-08-10T12:14:15.364Z</time>
      </trkpt>
      <trkpt lat="46.91865" lon="8.58531">
        <ele>883</ele>
        <time>2021-08-10T12:14:16.363Z</time>
      </trkpt>
      <trkpt lat="46.91864" lon="8.5853">
        <ele>883</ele>
        <time>2021-08-10T12:14:17.363Z</time>
      </trkpt>
      <trkpt lat="46.91864" lon="8.5853">
        <ele>883</ele>
        <time>2021-08-10T12:14:18.363Z</time>
      </trkpt>
      <trkpt lat="46.91863" lon="8.5853">
        <ele>882</ele>
        <time>2021-08-10T12:14:19.363Z</time>
      </trkpt>
      <trkpt lat="46.91863" lon="8.5853">
        <ele>882</ele>
        <time>2021-08-10T12:14:20.363Z</time>
      </trkpt>
      <trkpt lat="46.91862" lon="8.5853">
        <ele>882</ele>
        <time>2021-08-10T12:14:21.363Z</time>
      </trkpt>
      <trkpt lat="46.91862" lon="8.58529">
        <ele>882</ele>
        <time>2021-08-10T12:14:22.363Z</time>
      </trkpt>
      <trkpt lat="46.91862" lon="8.58529">
        <ele>882</ele>
        <time>2021-08-10T12:14:23.363Z</time>
      </trkpt>
      <trkpt lat="46.91861" lon="8.58528">
        <ele>882</ele>
        <time>2021-08-10T12:14:24.363Z</time>
      </trkpt>
      <trkpt lat="46.9186" lon="8.58528">
        <ele>883</ele>
        <time>2021-08-10T12:14:25.363Z</time>
      </trkpt>
      <trkpt lat="46.9186" lon="8.58528">
        <ele>883</ele>
        <time>2021-08-10T12:14:26.363Z</time>
      </trkpt>
      <trkpt lat="46.9186" lon="8.58526">
        <ele>883</ele>
        <time>2021-08-10T12:14:27.363Z</time>
      </trkpt>
      <trkpt lat="46.9186" lon="8.58526">
        <ele>883</ele>
        <time>2021-08-10T12:14:28.363Z</time>
      </trkpt>
      <trkpt lat="46.91859" lon="8.58525">
        <ele>884</ele>
        <time>2021-08-10T12:14:29.363Z</time>
      </trkpt>
      <trkpt lat="46.91859" lon="8.58524">
        <ele>884</ele>
        <time>2021-08-10T12:14:30.363Z</time>
      </trkpt>
      <trkpt lat="46.91858" lon="8.58523">
        <ele>884</ele>
        <time>2021-08-10T12:14:31.363Z</time>
      </trkpt>
      <trkpt lat="46.91858" lon="8.58522">
        <ele>884</ele>
        <time>2021-08-10T12:14:32.363Z</time>
      </trkpt>
      <trkpt lat="46.91857" lon="8.58521">
        <ele>885</ele>
        <time>2021-08-10T12:14:33.363Z</time>
      </trkpt>
      <trkpt lat="46.91857" lon="8.5852">
        <ele>885</ele>
        <time>2021-08-10T12:14:34.363Z</time>
      </trkpt>
      <trkpt lat="46.91857" lon="8.5852">
        <ele>885</ele>
        <time>2021-08-10T12:14:35.363Z</time>
      </trkpt>
      <trkpt lat="46.91856" lon="8.58519">
        <ele>886</ele>
        <time>2021-08-10T12:14:36.363Z</time>
      </trkpt>
      <trkpt lat="46.91856" lon="8.58518">
        <ele>886</ele>
        <time>2021-08-10T12:14:37.363Z</time>
      </trkpt>
      <trkpt lat="46.91857" lon="8.58518">
        <ele>886</ele>
        <time>2021-08-10T12:14:38.363Z</time>
      </trkpt>
      <trkpt lat="46.91857" lon="8.58516">
        <ele>886</ele>
        <time>2021-08-10T12:14:39.363Z</time>
      </trkpt>
      <trkpt lat="46.91857" lon="8.58515">
        <ele>886</ele>
        <time>2021-08-10T12:14:40.363Z</time>
      </trkpt>
      <trkpt lat="46.91859" lon="8.58516">
        <ele>887</ele>
        <time>2021-08-10T12:14:41.363Z</time>
      </trkpt>
      <trkpt lat="46.9186" lon="8.58515">
        <ele>887</ele>
        <time>2021-08-10T12:14:42.363Z</time>
      </trkpt>
      <trkpt lat="46.91862" lon="8.58515">
        <ele>887</ele>
        <time>2021-08-10T12:14:43.363Z</time>
      </trkpt>
      <trkpt lat="46.91863" lon="8.58513">
        <ele>887</ele>
        <time>2021-08-10T12:14:44.363Z</time>
      </trkpt>
      <trkpt lat="46.91864" lon="8.58512">
        <ele>887</ele>
        <time>2021-08-10T12:14:45.363Z</time>
      </trkpt>
      <trkpt lat="46.91865" lon="8.58511">
        <ele>887</ele>
        <time>2021-08-10T12:14:46.363Z</time>
      </trkpt>
      <trkpt lat="46.91865" lon="8.5851">
        <ele>886</ele>
        <time>2021-08-10T12:14:47.363Z</time>
      </trkpt>
      <trkpt lat="46.91866" lon="8.58509">
        <ele>886</ele>
        <time>2021-08-10T12:14:48.363Z</time>
      </trkpt>
      <trkpt lat="46.91866" lon="8.58507">
        <ele>886</ele>
        <time>2021-08-10T12:14:49.363Z</time>
      </trkpt>
      <trkpt lat="46.91867" lon="8.58506">
        <ele>886</ele>
        <time>2021-08-10T12:14:50.363Z</time>
      </trkpt>
      <trkpt lat="46.91868" lon="8.58505">
        <ele>886</ele>
        <time>2021-08-10T12:14:51.363Z</time>
      </trkpt>
      <trkpt lat="46.91868" lon="8.58505">
        <ele>886</ele>
        <time>2021-08-10T12:14:52.363Z</time>
      </trkpt>
      <trkpt lat="46.91868" lon="8.58507">
        <ele>886</ele>
        <time>2021-08-10T12:14:53.363Z</time>
      </trkpt>
      <trkpt lat="46.91868" lon="8.58507">
        <ele>886</ele>
        <time>2021-08-10T12:14:54.363Z</time>
      </trkpt>
      <trkpt lat="46.91869" lon="8.58508">
        <ele>886</ele>
        <time>2021-08-10T12:14:58.363Z</time>
      </trkpt>
      <trkpt lat="46.91868" lon="8.58506">
        <ele>886</ele>
        <time>2021-08-10T12:14:59.363Z</time>
      </trkpt>
      <trkpt lat="46.91867" lon="8.58506">
        <ele>886</ele>
        <time>2021-08-10T12:15:00.363Z</time>
      </trkpt>
      <trkpt lat="46.91866" lon="8.58506">
        <ele>887</ele>
        <time>2021-08-10T12:15:01.363Z</time>
      </trkpt>
      <trkpt lat="46.91866" lon="8.58505">
        <ele>887</ele>
        <time>2021-08-10T12:15:02.363Z</time>
      </trkpt>
      <trkpt lat="46.91865" lon="8.58504">
        <ele>887</ele>
        <time>2021-08-10T12:15:03.364Z</time>
      </trkpt>
      <trkpt lat="46.91865" lon="8.58504">
        <ele>887</ele>
        <time>2021-08-10T12:15:04.364Z</time>
      </trkpt>
      <trkpt lat="46.91865" lon="8.58504">
        <ele>887</ele>
        <time>2021-08-10T12:15:05.364Z</time>
      </trkpt>
      <trkpt lat="46.91864" lon="8.58503">
        <ele>888</ele>
        <time>2021-08-10T12:15:06.364Z</time>
      </trkpt>
      <trkpt lat="46.91864" lon="8.58502">
        <ele>888</ele>
        <time>2021-08-10T12:15:07.365Z</time>
      </trkpt>
      <trkpt lat="46.91864" lon="8.58502">
        <ele>888</ele>
        <time>2021-08-10T12:15:08.364Z</time>
      </trkpt>
      <trkpt lat="46.91864" lon="8.58503">
        <ele>889</ele>
        <time>2021-08-10T12:15:09.365Z</time>
      </trkpt>
      <trkpt lat="46.91864" lon="8.58503">
        <ele>889</ele>
        <time>2021-08-10T12:15:10.366Z</time>
      </trkpt>
      <trkpt lat="46.91864" lon="8.58503">
        <ele>890</ele>
        <time>2021-08-10T12:15:11.365Z</time>
      </trkpt>
      <trkpt lat="46.91865" lon="8.58504">
        <ele>890</ele>
        <time>2021-08-10T12:15:12.365Z</time>
      </trkpt>
      <trkpt lat="46.91865" lon="8.58505">
        <ele>891</ele>
        <time>2021-08-10T12:15:13.366Z</time>
      </trkpt>
      <trkpt lat="46.91865" lon="8.58505">
        <ele>891</ele>
        <time>2021-08-10T12:15:14.366Z</time>
      </trkpt>
      <trkpt lat="46.91865" lon="8.58505">
        <ele>891</ele>
        <time>2021-08-10T12:15:15.365Z</time>
      </trkpt>
      <trkpt lat="46.91864" lon="8.58505">
        <ele>892</ele>
        <time>2021-08-10T12:15:16.365Z</time>
      </trkpt>
      <trkpt lat="46.91864" lon="8.58504">
        <ele>892</ele>
        <time>2021-08-10T12:15:17.365Z</time>
      </trkpt>
      <trkpt lat="46.91864" lon="8.58503">
        <ele>892</ele>
        <time>2021-08-10T12:15:18.365Z</time>
      </trkpt>
      <trkpt lat="46.91865" lon="8.58503">
        <ele>892</ele>
        <time>2021-08-10T12:15:19.365Z</time>
      </trkpt>
      <trkpt lat="46.91866" lon="8.58503">
        <ele>892</ele>
        <time>2021-08-10T12:15:20.365Z</time>
      </trkpt>
      <trkpt lat="46.91866" lon="8.58503">
        <ele>892</ele>
        <time>2021-08-10T12:15:21.365Z</time>
      </trkpt>
      <trkpt lat="46.91866" lon="8.58504">
        <ele>892</ele>
        <time>2021-08-10T12:15:22.365Z</time>
      </trkpt>
      <trkpt lat="46.91866" lon="8.58504">
        <ele>892</ele>
        <time>2021-08-10T12:15:23.366Z</time>
      </trkpt>
      <trkpt lat="46.91866" lon="8.58506">
        <ele>892</ele>
        <time>2021-08-10T12:15:24.365Z</time>
      </trkpt>
      <trkpt lat="46.91867" lon="8.58507">
        <ele>893</ele>
        <time>2021-08-10T12:15:25.365Z</time>
      </trkpt>
      <trkpt lat="46.91866" lon="8.58507">
        <ele>893</ele>
        <time>2021-08-10T12:15:26.366Z</time>
      </trkpt>
      <trkpt lat="46.91865" lon="8.58507">
        <ele>893</ele>
        <time>2021-08-10T12:15:27.365Z</time>
      </trkpt>
      <trkpt lat="46.91864" lon="8.58508">
        <ele>893</ele>
        <time>2021-08-10T12:15:28.365Z</time>
      </trkpt>
      <trkpt lat="46.91864" lon="8.58509">
        <ele>893</ele>
        <time>2021-08-10T12:15:29.366Z</time>
      </trkpt>
      <trkpt lat="46.91866" lon="8.5851">
        <ele>893</ele>
        <time>2021-08-10T12:15:30.366Z</time>
      </trkpt>
      <trkpt lat="46.91867" lon="8.58511">
        <ele>894</ele>
        <time>2021-08-10T12:15:31.366Z</time>
      </trkpt>
      <trkpt lat="46.91868" lon="8.58511">
        <ele>894</ele>
        <time>2021-08-10T12:15:32.365Z</time>
      </trkpt>
      <trkpt lat="46.91869" lon="8.58512">
        <ele>894</ele>
        <time>2021-08-10T12:15:33.365Z</time>
      </trkpt>
      <trkpt lat="46.91869" lon="8.58512">
        <ele>895</ele>
        <time>2021-08-10T12:15:34.366Z</time>
      </trkpt>
      <trkpt lat="46.9187" lon="8.58512">
        <ele>895</ele>
        <time>2021-08-10T12:15:35.366Z</time>
      </trkpt>
      <trkpt lat="46.91871" lon="8.58512">
        <ele>895</ele>
        <time>2021-08-10T12:15:36.365Z</time>
      </trkpt>
      <trkpt lat="46.91872" lon="8.58514">
        <ele>896</ele>
        <time>2021-08-10T12:15:37.365Z</time>
      </trkpt>
      <trkpt lat="46.91873" lon="8.58516">
        <ele>896</ele>
        <time>2021-08-10T12:15:38.365Z</time>
      </trkpt>
      <trkpt lat="46.91874" lon="8.58518">
        <ele>896</ele>
        <time>2021-08-10T12:15:39.365Z</time>
      </trkpt>
      <trkpt lat="46.91874" lon="8.58518">
        <ele>896</ele>
        <time>2021-08-10T12:15:40.365Z</time>
      </trkpt>
      <trkpt lat="46.91874" lon="8.58519">
        <ele>896</ele>
        <time>2021-08-10T12:15:41.366Z</time>
      </trkpt>
      <trkpt lat="46.91874" lon="8.58519">
        <ele>896</ele>
        <time>2021-08-10T12:15:42.365Z</time>
      </trkpt>
      <trkpt lat="46.91873" lon="8.58519">
        <ele>896</ele>
        <time>2021-08-10T12:15:43.365Z</time>
      </trkpt>
      <trkpt lat="46.91873" lon="8.5852">
        <ele>895</ele>
        <time>2021-08-10T12:15:44.365Z</time>
      </trkpt>
      <trkpt lat="46.91873" lon="8.58522">
        <ele>895</ele>
        <time>2021-08-10T12:15:45.366Z</time>
      </trkpt>
      <trkpt lat="46.91873" lon="8.58523">
        <ele>895</ele>
        <time>2021-08-10T12:15:46.365Z</time>
      </trkpt>
      <trkpt lat="46.91872" lon="8.58523">
        <ele>895</ele>
        <time>2021-08-10T12:15:47.365Z</time>
      </trkpt>
      <trkpt lat="46.91873" lon="8.58524">
        <ele>895</ele>
        <time>2021-08-10T12:15:48.365Z</time>
      </trkpt>
      <trkpt lat="46.91874" lon="8.58525">
        <ele>895</ele>
        <time>2021-08-10T12:15:49.365Z</time>
      </trkpt>
      <trkpt lat="46.91876" lon="8.58526">
        <ele>894</ele>
        <time>2021-08-10T12:15:50.366Z</time>
      </trkpt>
      <trkpt lat="46.91876" lon="8.58524">
        <ele>894</ele>
        <time>2021-08-10T12:15:51.366Z</time>
      </trkpt>
      <trkpt lat="46.91876" lon="8.58523">
        <ele>894</ele>
        <time>2021-08-10T12:15:52.365Z</time>
      </trkpt>
      <trkpt lat="46.91876" lon="8.58522">
        <ele>894</ele>
        <time>2021-08-10T12:15:53.365Z</time>
      </trkpt>
      <trkpt lat="46.91875" lon="8.58521">
        <ele>894</ele>
        <time>2021-08-10T12:15:54.365Z</time>
      </trkpt>
      <trkpt lat="46.91875" lon="8.58521">
        <ele>894</ele>
        <time>2021-08-10T12:15:55.366Z</time>
      </trkpt>
      <trkpt lat="46.91875" lon="8.58519">
        <ele>894</ele>
        <time>2021-08-10T12:15:56.366Z</time>
      </trkpt>
      <trkpt lat="46.91875" lon="8.58517">
        <ele>894</ele>
        <time>2021-08-10T12:15:57.365Z</time>
      </trkpt>
      <trkpt lat="46.91876" lon="8.58515">
        <ele>894</ele>
        <time>2021-08-10T12:15:58.365Z</time>
      </trkpt>
      <trkpt lat="46.91877" lon="8.58514">
        <ele>894</ele>
        <time>2021-08-10T12:15:59.365Z</time>
      </trkpt>
      <trkpt lat="46.91876" lon="8.58512">
        <ele>894</ele>
        <time>2021-08-10T12:16:00.366Z</time>
      </trkpt>
      <trkpt lat="46.91876" lon="8.58511">
        <ele>895</ele>
        <time>2021-08-10T12:16:01.366Z</time>
      </trkpt>
      <trkpt lat="46.91875" lon="8.5851">
        <ele>895</ele>
        <time>2021-08-10T12:16:02.365Z</time>
      </trkpt>
      <trkpt lat="46.91871" lon="8.58509">
        <ele>896</ele>
        <time>2021-08-10T12:16:03.367Z</time>
      </trkpt>
      <trkpt lat="46.91869" lon="8.5851">
        <ele>895</ele>
        <time>2021-08-10T12:16:04.366Z</time>
      </trkpt>
      <trkpt lat="46.91868" lon="8.58511">
        <ele>895</ele>
        <time>2021-08-10T12:16:05.366Z</time>
      </trkpt>
      <trkpt lat="46.91867" lon="8.58511">
        <ele>895</ele>
        <time>2021-08-10T12:16:06.366Z</time>
      </trkpt>
      <trkpt lat="46.91866" lon="8.58512">
        <ele>894</ele>
        <time>2021-08-10T12:16:07.366Z</time>
      </trkpt>
      <trkpt lat="46.91866" lon="8.58512">
        <ele>894</ele>
        <time>2021-08-10T12:16:08.367Z</time>
      </trkpt>
      <trkpt lat="46.91866" lon="8.58512">
        <ele>893</ele>
        <time>2021-08-10T12:16:09.366Z</time>
      </trkpt>
      <trkpt lat="46.91866" lon="8.5851">
        <ele>892</ele>
        <time>2021-08-10T12:16:10.367Z</time>
      </trkpt>
      <trkpt lat="46.91865" lon="8.58509">
        <ele>892</ele>
        <time>2021-08-10T12:16:11.367Z</time>
      </trkpt>
      <trkpt lat="46.91864" lon="8.58508">
        <ele>891</ele>
        <time>2021-08-10T12:16:12.367Z</time>
      </trkpt>
      <trkpt lat="46.91864" lon="8.58508">
        <ele>891</ele>
        <time>2021-08-10T12:16:13.367Z</time>
      </trkpt>
      <trkpt lat="46.91864" lon="8.58507">
        <ele>891</ele>
        <time>2021-08-10T12:16:14.366Z</time>
      </trkpt>
      <trkpt lat="46.91865" lon="8.58507">
        <ele>891</ele>
        <time>2021-08-10T12:16:15.366Z</time>
      </trkpt>
      <trkpt lat="46.91864" lon="8.58508">
        <ele>891</ele>
        <time>2021-08-10T12:16:16.367Z</time>
      </trkpt>
      <trkpt lat="46.91865" lon="8.58508">
        <ele>891</ele>
        <time>2021-08-10T12:16:17.367Z</time>
      </trkpt>
      <trkpt lat="46.91865" lon="8.58508">
        <ele>891</ele>
        <time>2021-08-10T12:16:18.367Z</time>
      </trkpt>
      <trkpt lat="46.91865" lon="8.58509">
        <ele>891</ele>
        <time>2021-08-10T12:16:19.366Z</time>
      </trkpt>
      <trkpt lat="46.91865" lon="8.58507">
        <ele>891</ele>
        <time>2021-08-10T12:16:20.367Z</time>
      </trkpt>
      <trkpt lat="46.91865" lon="8.58505">
        <ele>891</ele>
        <time>2021-08-10T12:16:21.367Z</time>
      </trkpt>
      <trkpt lat="46.91866" lon="8.58503">
        <ele>891</ele>
        <time>2021-08-10T12:16:22.366Z</time>
      </trkpt>
      <trkpt lat="46.91866" lon="8.58503">
        <ele>891</ele>
        <time>2021-08-10T12:16:23.366Z</time>
      </trkpt>
      <trkpt lat="46.91866" lon="8.58505">
        <ele>892</ele>
        <time>2021-08-10T12:16:24.367Z</time>
      </trkpt>
      <trkpt lat="46.91866" lon="8.58505">
        <ele>892</ele>
        <time>2021-08-10T12:16:25.367Z</time>
      </trkpt>
      <trkpt lat="46.91866" lon="8.58505">
        <ele>892</ele>
        <time>2021-08-10T12:16:26.367Z</time>
      </trkpt>
      <trkpt lat="46.91866" lon="8.58504">
        <ele>892</ele>
        <time>2021-08-10T12:16:27.367Z</time>
      </trkpt>
      <trkpt lat="46.91865" lon="8.58504">
        <ele>892</ele>
        <time>2021-08-10T12:16:28.367Z</time>
      </trkpt>
      <trkpt lat="46.91864" lon="8.58502">
        <ele>893</ele>
        <time>2021-08-10T12:16:29.366Z</time>
      </trkpt>
      <trkpt lat="46.91863" lon="8.58501">
        <ele>893</ele>
        <time>2021-08-10T12:16:30.367Z</time>
      </trkpt>
      <trkpt lat="46.91862" lon="8.585">
        <ele>893</ele>
        <time>2021-08-10T12:16:31.367Z</time>
      </trkpt>
      <trkpt lat="46.91861" lon="8.58498">
        <ele>894</ele>
        <time>2021-08-10T12:16:32.367Z</time>
      </trkpt>
      <trkpt lat="46.91861" lon="8.58497">
        <ele>894</ele>
        <time>2021-08-10T12:16:33.367Z</time>
      </trkpt>
      <trkpt lat="46.9186" lon="8.58496">
        <ele>894</ele>
        <time>2021-08-10T12:16:34.367Z</time>
      </trkpt>
      <trkpt lat="46.9186" lon="8.58495">
        <ele>895</ele>
        <time>2021-08-10T12:16:35.366Z</time>
      </trkpt>
      <trkpt lat="46.91859" lon="8.58494">
        <ele>895</ele>
        <time>2021-08-10T12:16:36.367Z</time>
      </trkpt>
      <trkpt lat="46.91858" lon="8.58494">
        <ele>895</ele>
        <time>2021-08-10T12:16:37.366Z</time>
      </trkpt>
      <trkpt lat="46.91858" lon="8.58493">
        <ele>895</ele>
        <time>2021-08-10T12:16:38.366Z</time>
      </trkpt>
      <trkpt lat="46.91857" lon="8.58492">
        <ele>895</ele>
        <time>2021-08-10T12:16:39.367Z</time>
      </trkpt>
      <trkpt lat="46.91857" lon="8.5849">
        <ele>895</ele>
        <time>2021-08-10T12:16:40.367Z</time>
      </trkpt>
      <trkpt lat="46.91857" lon="8.58488">
        <ele>895</ele>
        <time>2021-08-10T12:16:41.367Z</time>
      </trkpt>
      <trkpt lat="46.91856" lon="8.58486">
        <ele>895</ele>
        <time>2021-08-10T12:16:42.367Z</time>
      </trkpt>
      <trkpt lat="46.91856" lon="8.58485">
        <ele>895</ele>
        <time>2021-08-10T12:16:43.366Z</time>
      </trkpt>
      <trkpt lat="46.91855" lon="8.58484">
        <ele>895</ele>
        <time>2021-08-10T12:16:44.367Z</time>
      </trkpt>
      <trkpt lat="46.91854" lon="8.58482">
        <ele>896</ele>
        <time>2021-08-10T12:16:45.367Z</time>
      </trkpt>
      <trkpt lat="46.91853" lon="8.58481">
        <ele>896</ele>
        <time>2021-08-10T12:16:46.367Z</time>
      </trkpt>
      <trkpt lat="46.91851" lon="8.5848">
        <ele>896</ele>
        <time>2021-08-10T12:16:47.367Z</time>
      </trkpt>
      <trkpt lat="46.91849" lon="8.58479">
        <ele>896</ele>
        <time>2021-08-10T12:16:48.367Z</time>
      </trkpt>
      <trkpt lat="46.91848" lon="8.58477">
        <ele>896</ele>
        <time>2021-08-10T12:16:49.367Z</time>
      </trkpt>
      <trkpt lat="46.91847" lon="8.58476">
        <ele>896</ele>
        <time>2021-08-10T12:16:50.366Z</time>
      </trkpt>
      <trkpt lat="46.91846" lon="8.58475">
        <ele>896</ele>
        <time>2021-08-10T12:16:51.366Z</time>
      </trkpt>
      <trkpt lat="46.91846" lon="8.58474">
        <ele>896</ele>
        <time>2021-08-10T12:16:52.367Z</time>
      </trkpt>
      <trkpt lat="46.91845" lon="8.58472">
        <ele>896</ele>
        <time>2021-08-10T12:16:53.367Z</time>
      </trkpt>
      <trkpt lat="46.91845" lon="8.58471">
        <ele>896</ele>
        <time>2021-08-10T12:16:54.366Z</time>
      </trkpt>
      <trkpt lat="46.91844" lon="8.58469">
        <ele>896</ele>
        <time>2021-08-10T12:16:55.366Z</time>
      </trkpt>
      <trkpt lat="46.91842" lon="8.58467">
        <ele>896</ele>
        <time>2021-08-10T12:16:56.367Z</time>
      </trkpt>
      <trkpt lat="46.91841" lon="8.58466">
        <ele>896</ele>
        <time>2021-08-10T12:16:57.366Z</time>
      </trkpt>
      <trkpt lat="46.91841" lon="8.58465">
        <ele>896</ele>
        <time>2021-08-10T12:16:58.367Z</time>
      </trkpt>
      <trkpt lat="46.91839" lon="8.58463">
        <ele>896</ele>
        <time>2021-08-10T12:16:59.366Z</time>
      </trkpt>
      <trkpt lat="46.91838" lon="8.58461">
        <ele>896</ele>
        <time>2021-08-10T12:17:00.367Z</time>
      </trkpt>
      <trkpt lat="46.91837" lon="8.5846">
        <ele>896</ele>
        <time>2021-08-10T12:17:01.367Z</time>
      </trkpt>
      <trkpt lat="46.91836" lon="8.58459">
        <ele>896</ele>
        <time>2021-08-10T12:17:02.366Z</time>
      </trkpt>
      <trkpt lat="46.91835" lon="8.58458">
        <ele>895</ele>
        <time>2021-08-10T12:17:03.366Z</time>
      </trkpt>
      <trkpt lat="46.91834" lon="8.58457">
        <ele>895</ele>
        <time>2021-08-10T12:17:04.367Z</time>
      </trkpt>
      <trkpt lat="46.91834" lon="8.58456">
        <ele>894</ele>
        <time>2021-08-10T12:17:05.366Z</time>
      </trkpt>
      <trkpt lat="46.91833" lon="8.58455">
        <ele>894</ele>
        <time>2021-08-10T12:17:06.366Z</time>
      </trkpt>
      <trkpt lat="46.91832" lon="8.58454">
        <ele>893</ele>
        <time>2021-08-10T12:17:07.366Z</time>
      </trkpt>
      <trkpt lat="46.91831" lon="8.58452">
        <ele>893</ele>
        <time>2021-08-10T12:17:08.366Z</time>
      </trkpt>
      <trkpt lat="46.9183" lon="8.58452">
        <ele>893</ele>
        <time>2021-08-10T12:17:09.366Z</time>
      </trkpt>
      <trkpt lat="46.9183" lon="8.58454">
        <ele>893</ele>
        <time>2021-08-10T12:17:10.366Z</time>
      </trkpt>
      <trkpt lat="46.91829" lon="8.58452">
        <ele>893</ele>
        <time>2021-08-10T12:17:11.366Z</time>
      </trkpt>
      <trkpt lat="46.91828" lon="8.58452">
        <ele>893</ele>
        <time>2021-08-10T12:17:12.366Z</time>
      </trkpt>
      <trkpt lat="46.91827" lon="8.58451">
        <ele>893</ele>
        <time>2021-08-10T12:17:13.366Z</time>
      </trkpt>
      <trkpt lat="46.91826" lon="8.58451">
        <ele>893</ele>
        <time>2021-08-10T12:17:14.366Z</time>
      </trkpt>
      <trkpt lat="46.91825" lon="8.5845">
        <ele>893</ele>
        <time>2021-08-10T12:17:15.366Z</time>
      </trkpt>
      <trkpt lat="46.91824" lon="8.58448">
        <ele>894</ele>
        <time>2021-08-10T12:17:16.367Z</time>
      </trkpt>
      <trkpt lat="46.91823" lon="8.58448">
        <ele>894</ele>
        <time>2021-08-10T12:17:17.366Z</time>
      </trkpt>
      <trkpt lat="46.91822" lon="8.58446">
        <ele>894</ele>
        <time>2021-08-10T12:17:18.366Z</time>
      </trkpt>
      <trkpt lat="46.91821" lon="8.58446">
        <ele>894</ele>
        <time>2021-08-10T12:17:19.367Z</time>
      </trkpt>
      <trkpt lat="46.91821" lon="8.58445">
        <ele>894</ele>
        <time>2021-08-10T12:17:20.366Z</time>
      </trkpt>
      <trkpt lat="46.9182" lon="8.58444">
        <ele>894</ele>
        <time>2021-08-10T12:17:21.367Z</time>
      </trkpt>
      <trkpt lat="46.91819" lon="8.58443">
        <ele>894</ele>
        <time>2021-08-10T12:17:22.367Z</time>
      </trkpt>
      <trkpt lat="46.91818" lon="8.58442">
        <ele>894</ele>
        <time>2021-08-10T12:17:23.366Z</time>
      </trkpt>
      <trkpt lat="46.91817" lon="8.58441">
        <ele>894</ele>
        <time>2021-08-10T12:17:24.367Z</time>
      </trkpt>
      <trkpt lat="46.91816" lon="8.5844">
        <ele>894</ele>
        <time>2021-08-10T12:17:25.366Z</time>
      </trkpt>
      <trkpt lat="46.91815" lon="8.58439">
        <ele>893</ele>
        <time>2021-08-10T12:17:26.366Z</time>
      </trkpt>
      <trkpt lat="46.91814" lon="8.58438">
        <ele>893</ele>
        <time>2021-08-10T12:17:27.366Z</time>
      </trkpt>
      <trkpt lat="46.91813" lon="8.58436">
        <ele>893</ele>
        <time>2021-08-10T12:17:28.366Z</time>
      </trkpt>
      <trkpt lat="46.91812" lon="8.58436">
        <ele>893</ele>
        <time>2021-08-10T12:17:29.366Z</time>
      </trkpt>
      <trkpt lat="46.91811" lon="8.58435">
        <ele>892</ele>
        <time>2021-08-10T12:17:30.367Z</time>
      </trkpt>
      <trkpt lat="46.9181" lon="8.58434">
        <ele>892</ele>
        <time>2021-08-10T12:17:31.366Z</time>
      </trkpt>
      <trkpt lat="46.91809" lon="8.58433">
        <ele>892</ele>
        <time>2021-08-10T12:17:32.367Z</time>
      </trkpt>
      <trkpt lat="46.91808" lon="8.58432">
        <ele>892</ele>
        <time>2021-08-10T12:17:33.367Z</time>
      </trkpt>
      <trkpt lat="46.91807" lon="8.58432">
        <ele>892</ele>
        <time>2021-08-10T12:17:34.366Z</time>
      </trkpt>
      <trkpt lat="46.91806" lon="8.58431">
        <ele>892</ele>
        <time>2021-08-10T12:17:35.366Z</time>
      </trkpt>
      <trkpt lat="46.91805" lon="8.5843">
        <ele>892</ele>
        <time>2021-08-10T12:17:36.366Z</time>
      </trkpt>
      <trkpt lat="46.91805" lon="8.5843">
        <ele>892</ele>
        <time>2021-08-10T12:17:37.367Z</time>
      </trkpt>
      <trkpt lat="46.91804" lon="8.58429">
        <ele>892</ele>
        <time>2021-08-10T12:17:38.367Z</time>
      </trkpt>
      <trkpt lat="46.91803" lon="8.58428">
        <ele>892</ele>
        <time>2021-08-10T12:17:39.366Z</time>
      </trkpt>
      <trkpt lat="46.91802" lon="8.58427">
        <ele>892</ele>
        <time>2021-08-10T12:17:40.367Z</time>
      </trkpt>
      <trkpt lat="46.91801" lon="8.58426">
        <ele>892</ele>
        <time>2021-08-10T12:17:41.367Z</time>
      </trkpt>
      <trkpt lat="46.91801" lon="8.58425">
        <ele>892</ele>
        <time>2021-08-10T12:17:42.367Z</time>
      </trkpt>
      <trkpt lat="46.918" lon="8.58424">
        <ele>892</ele>
        <time>2021-08-10T12:17:43.366Z</time>
      </trkpt>
      <trkpt lat="46.91799" lon="8.58423">
        <ele>892</ele>
        <time>2021-08-10T12:17:44.367Z</time>
      </trkpt>
      <trkpt lat="46.91798" lon="8.58422">
        <ele>892</ele>
        <time>2021-08-10T12:17:45.367Z</time>
      </trkpt>
      <trkpt lat="46.91798" lon="8.58421">
        <ele>892</ele>
        <time>2021-08-10T12:17:46.367Z</time>
      </trkpt>
      <trkpt lat="46.91797" lon="8.5842">
        <ele>892</ele>
        <time>2021-08-10T12:17:47.367Z</time>
      </trkpt>
      <trkpt lat="46.91796" lon="8.58419">
        <ele>892</ele>
        <time>2021-08-10T12:17:48.367Z</time>
      </trkpt>
      <trkpt lat="46.91795" lon="8.58418">
        <ele>892</ele>
        <time>2021-08-10T12:17:49.367Z</time>
      </trkpt>
      <trkpt lat="46.91794" lon="8.58417">
        <ele>892</ele>
        <time>2021-08-10T12:17:50.366Z</time>
      </trkpt>
      <trkpt lat="46.91793" lon="8.58416">
        <ele>893</ele>
        <time>2021-08-10T12:17:51.366Z</time>
      </trkpt>
      <trkpt lat="46.91792" lon="8.58415">
        <ele>893</ele>
        <time>2021-08-10T12:17:52.367Z</time>
      </trkpt>
      <trkpt lat="46.91791" lon="8.58414">
        <ele>893</ele>
        <time>2021-08-10T12:17:53.367Z</time>
      </trkpt>
      <trkpt lat="46.91791" lon="8.58413">
        <ele>893</ele>
        <time>2021-08-10T12:17:54.366Z</time>
      </trkpt>
      <trkpt lat="46.9179" lon="8.58412">
        <ele>893</ele>
        <time>2021-08-10T12:17:55.366Z</time>
      </trkpt>
      <trkpt lat="46.91789" lon="8.58411">
        <ele>893</ele>
        <time>2021-08-10T12:17:56.367Z</time>
      </trkpt>
      <trkpt lat="46.91788" lon="8.58409">
        <ele>893</ele>
        <time>2021-08-10T12:17:57.366Z</time>
      </trkpt>
      <trkpt lat="46.91787" lon="8.58409">
        <ele>893</ele>
        <time>2021-08-10T12:17:58.366Z</time>
      </trkpt>
      <trkpt lat="46.91787" lon="8.58408">
        <ele>892</ele>
        <time>2021-08-10T12:17:59.367Z</time>
      </trkpt>
      <trkpt lat="46.91786" lon="8.58407">
        <ele>892</ele>
        <time>2021-08-10T12:18:00.367Z</time>
      </trkpt>
      <trkpt lat="46.91785" lon="8.58406">
        <ele>892</ele>
        <time>2021-08-10T12:18:01.367Z</time>
      </trkpt>
      <trkpt lat="46.91785" lon="8.58405">
        <ele>891</ele>
        <time>2021-08-10T12:18:02.367Z</time>
      </trkpt>
      <trkpt lat="46.91784" lon="8.58404">
        <ele>891</ele>
        <time>2021-08-10T12:18:03.366Z</time>
      </trkpt>
      <trkpt lat="46.91783" lon="8.58403">
        <ele>891</ele>
        <time>2021-08-10T12:18:04.367Z</time>
      </trkpt>
      <trkpt lat="46.91783" lon="8.58402">
        <ele>890</ele>
        <time>2021-08-10T12:18:05.366Z</time>
      </trkpt>
      <trkpt lat="46.91782" lon="8.584">
        <ele>890</ele>
        <time>2021-08-10T12:18:06.366Z</time>
      </trkpt>
      <trkpt lat="46.91781" lon="8.58399">
        <ele>889</ele>
        <time>2021-08-10T12:18:07.367Z</time>
      </trkpt>
      <trkpt lat="46.9178" lon="8.58398">
        <ele>889</ele>
        <time>2021-08-10T12:18:08.367Z</time>
      </trkpt>
      <trkpt lat="46.91779" lon="8.58396">
        <ele>888</ele>
        <time>2021-08-10T12:18:09.366Z</time>
      </trkpt>
      <trkpt lat="46.91778" lon="8.58395">
        <ele>888</ele>
        <time>2021-08-10T12:18:10.367Z</time>
      </trkpt>
      <trkpt lat="46.91778" lon="8.58394">
        <ele>888</ele>
        <time>2021-08-10T12:18:11.366Z</time>
      </trkpt>
      <trkpt lat="46.91777" lon="8.58392">
        <ele>887</ele>
        <time>2021-08-10T12:18:12.367Z</time>
      </trkpt>
      <trkpt lat="46.91776" lon="8.5839">
        <ele>887</ele>
        <time>2021-08-10T12:18:13.366Z</time>
      </trkpt>
      <trkpt lat="46.91776" lon="8.58388">
        <ele>886</ele>
        <time>2021-08-10T12:18:14.366Z</time>
      </trkpt>
      <trkpt lat="46.91775" lon="8.58387">
        <ele>886</ele>
        <time>2021-08-10T12:18:15.367Z</time>
      </trkpt>
      <trkpt lat="46.91775" lon="8.58385">
        <ele>886</ele>
        <time>2021-08-10T12:18:16.367Z</time>
      </trkpt>
      <trkpt lat="46.91773" lon="8.58382">
        <ele>886</ele>
        <time>2021-08-10T12:18:17.367Z</time>
      </trkpt>
      <trkpt lat="46.91773" lon="8.58381">
        <ele>886</ele>
        <time>2021-08-10T12:18:18.367Z</time>
      </trkpt>
      <trkpt lat="46.91772" lon="8.58381">
        <ele>887</ele>
        <time>2021-08-10T12:18:19.367Z</time>
      </trkpt>
      <trkpt lat="46.91772" lon="8.58381">
        <ele>887</ele>
        <time>2021-08-10T12:18:20.367Z</time>
      </trkpt>
      <trkpt lat="46.91772" lon="8.58381">
        <ele>887</ele>
        <time>2021-08-10T12:18:21.366Z</time>
      </trkpt>
      <trkpt lat="46.91772" lon="8.58388">
        <ele>887</ele>
        <time>2021-08-10T12:18:22.367Z</time>
      </trkpt>
      <trkpt lat="46.91773" lon="8.5839">
        <ele>887</ele>
        <time>2021-08-10T12:18:23.367Z</time>
      </trkpt>
      <trkpt lat="46.91773" lon="8.58392">
        <ele>887</ele>
        <time>2021-08-10T12:18:24.367Z</time>
      </trkpt>
      <trkpt lat="46.91773" lon="8.58393">
        <ele>887</ele>
        <time>2021-08-10T12:18:25.367Z</time>
      </trkpt>
      <trkpt lat="46.91773" lon="8.58395">
        <ele>887</ele>
        <time>2021-08-10T12:18:26.367Z</time>
      </trkpt>
      <trkpt lat="46.91773" lon="8.58397">
        <ele>888</ele>
        <time>2021-08-10T12:18:28.464Z</time>
      </trkpt>
      <trkpt lat="46.9177" lon="8.58401">
        <ele>885</ele>
        <time>2021-08-10T12:18:29.466Z</time>
      </trkpt>
      <trkpt lat="46.91771" lon="8.584">
        <ele>886</ele>
        <time>2021-08-10T12:18:30.465Z</time>
      </trkpt>
      <trkpt lat="46.91771" lon="8.58399">
        <ele>886</ele>
        <time>2021-08-10T12:18:31.466Z</time>
      </trkpt>
      <trkpt lat="46.91771" lon="8.58398">
        <ele>887</ele>
        <time>2021-08-10T12:18:32.465Z</time>
      </trkpt>
      <trkpt lat="46.9177" lon="8.58395">
        <ele>892</ele>
        <time>2021-08-10T12:18:33.466Z</time>
      </trkpt>
      <trkpt lat="46.9177" lon="8.58394">
        <ele>892</ele>
        <time>2021-08-10T12:18:34.465Z</time>
      </trkpt>
      <trkpt lat="46.9177" lon="8.58392">
        <ele>892</ele>
        <time>2021-08-10T12:18:35.465Z</time>
      </trkpt>
      <trkpt lat="46.9177" lon="8.58391">
        <ele>891</ele>
        <time>2021-08-10T12:18:36.466Z</time>
      </trkpt>
      <trkpt lat="46.9177" lon="8.58389">
        <ele>891</ele>
        <time>2021-08-10T12:18:38.483Z</time>
      </trkpt>
      <trkpt lat="46.91769" lon="8.58388">
        <ele>891</ele>
        <time>2021-08-10T12:18:39.484Z</time>
      </trkpt>
      <trkpt lat="46.91769" lon="8.58387">
        <ele>890</ele>
        <time>2021-08-10T12:18:40.484Z</time>
      </trkpt>
      <trkpt lat="46.91769" lon="8.58388">
        <ele>890</ele>
        <time>2021-08-10T12:18:41.484Z</time>
      </trkpt>
      <trkpt lat="46.91768" lon="8.58388">
        <ele>889</ele>
        <time>2021-08-10T12:18:42.484Z</time>
      </trkpt>
      <trkpt lat="46.91768" lon="8.58386">
        <ele>889</ele>
        <time>2021-08-10T12:18:43.484Z</time>
      </trkpt>
      <trkpt lat="46.91767" lon="8.58385">
        <ele>889</ele>
        <time>2021-08-10T12:18:44.484Z</time>
      </trkpt>
      <trkpt lat="46.91767" lon="8.58384">
        <ele>889</ele>
        <time>2021-08-10T12:18:45.483Z</time>
      </trkpt>
      <trkpt lat="46.91766" lon="8.58383">
        <ele>889</ele>
        <time>2021-08-10T12:18:46.484Z</time>
      </trkpt>
      <trkpt lat="46.91766" lon="8.58382">
        <ele>889</ele>
        <time>2021-08-10T12:18:47.483Z</time>
      </trkpt>
      <trkpt lat="46.91765" lon="8.58381">
        <ele>888</ele>
        <time>2021-08-10T12:18:48.484Z</time>
      </trkpt>
      <trkpt lat="46.91765" lon="8.58379">
        <ele>888</ele>
        <time>2021-08-10T12:18:49.484Z</time>
      </trkpt>
      <trkpt lat="46.91764" lon="8.58377">
        <ele>888</ele>
        <time>2021-08-10T12:18:50.484Z</time>
      </trkpt>
      <trkpt lat="46.91764" lon="8.58376">
        <ele>888</ele>
        <time>2021-08-10T12:18:51.483Z</time>
      </trkpt>
      <trkpt lat="46.91763" lon="8.58374">
        <ele>888</ele>
        <time>2021-08-10T12:18:52.484Z</time>
      </trkpt>
      <trkpt lat="46.91762" lon="8.58372">
        <ele>888</ele>
        <time>2021-08-10T12:18:53.484Z</time>
      </trkpt>
      <trkpt lat="46.91761" lon="8.5837">
        <ele>889</ele>
        <time>2021-08-10T12:18:54.484Z</time>
      </trkpt>
      <trkpt lat="46.9176" lon="8.58368">
        <ele>888</ele>
        <time>2021-08-10T12:18:55.484Z</time>
      </trkpt>
      <trkpt lat="46.9176" lon="8.58367">
        <ele>888</ele>
        <time>2021-08-10T12:18:56.483Z</time>
      </trkpt>
      <trkpt lat="46.91759" lon="8.58367">
        <ele>888</ele>
        <time>2021-08-10T12:18:57.483Z</time>
      </trkpt>
      <trkpt lat="46.91758" lon="8.58365">
        <ele>888</ele>
        <time>2021-08-10T12:18:58.484Z</time>
      </trkpt>
      <trkpt lat="46.91757" lon="8.58363">
        <ele>889</ele>
        <time>2021-08-10T12:18:59.484Z</time>
      </trkpt>
      <trkpt lat="46.91756" lon="8.58361">
        <ele>890</ele>
        <time>2021-08-10T12:19:00.484Z</time>
      </trkpt>
      <trkpt lat="46.91756" lon="8.5836">
        <ele>890</ele>
        <time>2021-08-10T12:19:01.484Z</time>
      </trkpt>
      <trkpt lat="46.91755" lon="8.58358">
        <ele>890</ele>
        <time>2021-08-10T12:19:02.483Z</time>
      </trkpt>
      <trkpt lat="46.91753" lon="8.58357">
        <ele>891</ele>
        <time>2021-08-10T12:19:03.484Z</time>
      </trkpt>
      <trkpt lat="46.91753" lon="8.58356">
        <ele>891</ele>
        <time>2021-08-10T12:19:04.483Z</time>
      </trkpt>
      <trkpt lat="46.91752" lon="8.58354">
        <ele>891</ele>
        <time>2021-08-10T12:19:05.484Z</time>
      </trkpt>
      <trkpt lat="46.91752" lon="8.58353">
        <ele>891</ele>
        <time>2021-08-10T12:19:06.484Z</time>
      </trkpt>
      <trkpt lat="46.91751" lon="8.58352">
        <ele>891</ele>
        <time>2021-08-10T12:19:07.483Z</time>
      </trkpt>
      <trkpt lat="46.9175" lon="8.58351">
        <ele>891</ele>
        <time>2021-08-10T12:19:08.484Z</time>
      </trkpt>
      <trkpt lat="46.91749" lon="8.58349">
        <ele>890</ele>
        <time>2021-08-10T12:19:09.484Z</time>
      </trkpt>
      <trkpt lat="46.91748" lon="8.58348">
        <ele>890</ele>
        <time>2021-08-10T12:19:10.484Z</time>
      </trkpt>
      <trkpt lat="46.91747" lon="8.58347">
        <ele>890</ele>
        <time>2021-08-10T12:19:11.484Z</time>
      </trkpt>
      <trkpt lat="46.91746" lon="8.58346">
        <ele>890</ele>
        <time>2021-08-10T12:19:12.483Z</time>
      </trkpt>
      <trkpt lat="46.91745" lon="8.58345">
        <ele>890</ele>
        <time>2021-08-10T12:19:13.484Z</time>
      </trkpt>
      <trkpt lat="46.91744" lon="8.58343">
        <ele>890</ele>
        <time>2021-08-10T12:19:14.484Z</time>
      </trkpt>
      <trkpt lat="46.91744" lon="8.58341">
        <ele>890</ele>
        <time>2021-08-10T12:19:15.483Z</time>
      </trkpt>
      <trkpt lat="46.91743" lon="8.5834">
        <ele>891</ele>
        <time>2021-08-10T12:19:16.484Z</time>
      </trkpt>
      <trkpt lat="46.91742" lon="8.58338">
        <ele>891</ele>
        <time>2021-08-10T12:19:17.483Z</time>
      </trkpt>
      <trkpt lat="46.91741" lon="8.58337">
        <ele>891</ele>
        <time>2021-08-10T12:19:18.484Z</time>
      </trkpt>
      <trkpt lat="46.9174" lon="8.58336">
        <ele>892</ele>
        <time>2021-08-10T12:19:19.484Z</time>
      </trkpt>
      <trkpt lat="46.91739" lon="8.58335">
        <ele>892</ele>
        <time>2021-08-10T12:19:20.483Z</time>
      </trkpt>
      <trkpt lat="46.91739" lon="8.58334">
        <ele>892</ele>
        <time>2021-08-10T12:19:21.484Z</time>
      </trkpt>
      <trkpt lat="46.91738" lon="8.58333">
        <ele>892</ele>
        <time>2021-08-10T12:19:22.484Z</time>
      </trkpt>
      <trkpt lat="46.91737" lon="8.58332">
        <ele>893</ele>
        <time>2021-08-10T12:19:23.484Z</time>
      </trkpt>
      <trkpt lat="46.91736" lon="8.58331">
        <ele>893</ele>
        <time>2021-08-10T12:19:24.484Z</time>
      </trkpt>
      <trkpt lat="46.91736" lon="8.5833">
        <ele>893</ele>
        <time>2021-08-10T12:19:25.484Z</time>
      </trkpt>
      <trkpt lat="46.91734" lon="8.5833">
        <ele>893</ele>
        <time>2021-08-10T12:19:26.484Z</time>
      </trkpt>
      <trkpt lat="46.91734" lon="8.58329">
        <ele>893</ele>
        <time>2021-08-10T12:19:27.483Z</time>
      </trkpt>
      <trkpt lat="46.91732" lon="8.58326">
        <ele>893</ele>
        <time>2021-08-10T12:19:28.484Z</time>
      </trkpt>
      <trkpt lat="46.91731" lon="8.58324">
        <ele>893</ele>
        <time>2021-08-10T12:19:29.484Z</time>
      </trkpt>
      <trkpt lat="46.91731" lon="8.58325">
        <ele>893</ele>
        <time>2021-08-10T12:19:30.484Z</time>
      </trkpt>
      <trkpt lat="46.91731" lon="8.58324">
        <ele>894</ele>
        <time>2021-08-10T12:19:31.484Z</time>
      </trkpt>
      <trkpt lat="46.9173" lon="8.58323">
        <ele>894</ele>
        <time>2021-08-10T12:19:32.483Z</time>
      </trkpt>
      <trkpt lat="46.91729" lon="8.58323">
        <ele>894</ele>
        <time>2021-08-10T12:19:33.484Z</time>
      </trkpt>
      <trkpt lat="46.91728" lon="8.58321">
        <ele>895</ele>
        <time>2021-08-10T12:19:34.484Z</time>
      </trkpt>
      <trkpt lat="46.91728" lon="8.5832">
        <ele>895</ele>
        <time>2021-08-10T12:19:35.484Z</time>
      </trkpt>
      <trkpt lat="46.91727" lon="8.58318">
        <ele>895</ele>
        <time>2021-08-10T12:19:36.483Z</time>
      </trkpt>
      <trkpt lat="46.91726" lon="8.58316">
        <ele>896</ele>
        <time>2021-08-10T12:19:37.483Z</time>
      </trkpt>
      <trkpt lat="46.91725" lon="8.58315">
        <ele>896</ele>
        <time>2021-08-10T12:19:38.483Z</time>
      </trkpt>
      <trkpt lat="46.91725" lon="8.58315">
        <ele>896</ele>
        <time>2021-08-10T12:19:39.484Z</time>
      </trkpt>
      <trkpt lat="46.91724" lon="8.58314">
        <ele>896</ele>
        <time>2021-08-10T12:19:40.483Z</time>
      </trkpt>
      <trkpt lat="46.91723" lon="8.58313">
        <ele>896</ele>
        <time>2021-08-10T12:19:41.483Z</time>
      </trkpt>
      <trkpt lat="46.91723" lon="8.58312">
        <ele>896</ele>
        <time>2021-08-10T12:19:42.483Z</time>
      </trkpt>
      <trkpt lat="46.91723" lon="8.58311">
        <ele>896</ele>
        <time>2021-08-10T12:19:43.483Z</time>
      </trkpt>
      <trkpt lat="46.91722" lon="8.5831">
        <ele>896</ele>
        <time>2021-08-10T12:19:44.483Z</time>
      </trkpt>
      <trkpt lat="46.91721" lon="8.5831">
        <ele>896</ele>
        <time>2021-08-10T12:19:45.483Z</time>
      </trkpt>
      <trkpt lat="46.91721" lon="8.58309">
        <ele>896</ele>
        <time>2021-08-10T12:19:46.483Z</time>
      </trkpt>
      <trkpt lat="46.9172" lon="8.58308">
        <ele>896</ele>
        <time>2021-08-10T12:19:47.483Z</time>
      </trkpt>
      <trkpt lat="46.9172" lon="8.58308">
        <ele>896</ele>
        <time>2021-08-10T12:19:48.483Z</time>
      </trkpt>
      <trkpt lat="46.91719" lon="8.58307">
        <ele>896</ele>
        <time>2021-08-10T12:19:49.483Z</time>
      </trkpt>
      <trkpt lat="46.91719" lon="8.58306">
        <ele>896</ele>
        <time>2021-08-10T12:19:50.483Z</time>
      </trkpt>
      <trkpt lat="46.91718" lon="8.58305">
        <ele>896</ele>
        <time>2021-08-10T12:19:51.483Z</time>
      </trkpt>
      <trkpt lat="46.91718" lon="8.58304">
        <ele>897</ele>
        <time>2021-08-10T12:19:52.483Z</time>
      </trkpt>
      <trkpt lat="46.91717" lon="8.58303">
        <ele>897</ele>
        <time>2021-08-10T12:19:53.483Z</time>
      </trkpt>
      <trkpt lat="46.91717" lon="8.58301">
        <ele>897</ele>
        <time>2021-08-10T12:19:54.483Z</time>
      </trkpt>
      <trkpt lat="46.91716" lon="8.583">
        <ele>897</ele>
        <time>2021-08-10T12:19:55.483Z</time>
      </trkpt>
      <trkpt lat="46.91715" lon="8.58299">
        <ele>897</ele>
        <time>2021-08-10T12:19:56.483Z</time>
      </trkpt>
      <trkpt lat="46.91715" lon="8.58298">
        <ele>897</ele>
        <time>2021-08-10T12:19:57.484Z</time>
      </trkpt>
      <trkpt lat="46.91714" lon="8.58296">
        <ele>897</ele>
        <time>2021-08-10T12:19:58.483Z</time>
      </trkpt>
      <trkpt lat="46.91714" lon="8.58295">
        <ele>897</ele>
        <time>2021-08-10T12:19:59.484Z</time>
      </trkpt>
      <trkpt lat="46.91714" lon="8.58294">
        <ele>897</ele>
        <time>2021-08-10T12:20:00.484Z</time>
      </trkpt>
      <trkpt lat="46.91714" lon="8.58293">
        <ele>897</ele>
        <time>2021-08-10T12:20:01.484Z</time>
      </trkpt>
      <trkpt lat="46.91714" lon="8.58292">
        <ele>897</ele>
        <time>2021-08-10T12:20:02.484Z</time>
      </trkpt>
      <trkpt lat="46.91714" lon="8.58291">
        <ele>897</ele>
        <time>2021-08-10T12:20:03.484Z</time>
      </trkpt>
      <trkpt lat="46.91713" lon="8.58289">
        <ele>898</ele>
        <time>2021-08-10T12:20:04.484Z</time>
      </trkpt>
      <trkpt lat="46.91713" lon="8.58287">
        <ele>898</ele>
        <time>2021-08-10T12:20:05.484Z</time>
      </trkpt>
      <trkpt lat="46.91712" lon="8.58285">
        <ele>898</ele>
        <time>2021-08-10T12:20:06.483Z</time>
      </trkpt>
      <trkpt lat="46.91712" lon="8.58283">
        <ele>899</ele>
        <time>2021-08-10T12:20:07.483Z</time>
      </trkpt>
      <trkpt lat="46.91711" lon="8.58282">
        <ele>899</ele>
        <time>2021-08-10T12:20:08.484Z</time>
      </trkpt>
      <trkpt lat="46.91711" lon="8.58281">
        <ele>900</ele>
        <time>2021-08-10T12:20:09.484Z</time>
      </trkpt>
      <trkpt lat="46.91711" lon="8.5828">
        <ele>900</ele>
        <time>2021-08-10T12:20:10.484Z</time>
      </trkpt>
      <trkpt lat="46.9171" lon="8.58278">
        <ele>900</ele>
        <time>2021-08-10T12:20:11.483Z</time>
      </trkpt>
      <trkpt lat="46.91709" lon="8.58277">
        <ele>900</ele>
        <time>2021-08-10T12:20:12.484Z</time>
      </trkpt>
      <trkpt lat="46.91708" lon="8.58275">
        <ele>900</ele>
        <time>2021-08-10T12:20:13.483Z</time>
      </trkpt>
      <trkpt lat="46.91708" lon="8.58273">
        <ele>900</ele>
        <time>2021-08-10T12:20:14.483Z</time>
      </trkpt>
      <trkpt lat="46.91707" lon="8.58272">
        <ele>900</ele>
        <time>2021-08-10T12:20:15.484Z</time>
      </trkpt>
      <trkpt lat="46.91707" lon="8.5827">
        <ele>900</ele>
        <time>2021-08-10T12:20:16.484Z</time>
      </trkpt>
      <trkpt lat="46.91706" lon="8.58269">
        <ele>900</ele>
        <time>2021-08-10T12:20:17.484Z</time>
      </trkpt>
      <trkpt lat="46.91705" lon="8.58267">
        <ele>901</ele>
        <time>2021-08-10T12:20:18.483Z</time>
      </trkpt>
      <trkpt lat="46.91705" lon="8.58266">
        <ele>901</ele>
        <time>2021-08-10T12:20:19.484Z</time>
      </trkpt>
      <trkpt lat="46.91704" lon="8.58265">
        <ele>901</ele>
        <time>2021-08-10T12:20:20.483Z</time>
      </trkpt>
      <trkpt lat="46.91704" lon="8.58264">
        <ele>901</ele>
        <time>2021-08-10T12:20:21.484Z</time>
      </trkpt>
      <trkpt lat="46.91703" lon="8.58263">
        <ele>901</ele>
        <time>2021-08-10T12:20:22.484Z</time>
      </trkpt>
      <trkpt lat="46.91703" lon="8.58262">
        <ele>901</ele>
        <time>2021-08-10T12:20:23.483Z</time>
      </trkpt>
      <trkpt lat="46.91703" lon="8.58261">
        <ele>901</ele>
        <time>2021-08-10T12:20:24.483Z</time>
      </trkpt>
      <trkpt lat="46.91702" lon="8.58259">
        <ele>901</ele>
        <time>2021-08-10T12:20:25.484Z</time>
      </trkpt>
      <trkpt lat="46.91702" lon="8.58258">
        <ele>901</ele>
        <time>2021-08-10T12:20:26.483Z</time>
      </trkpt>
      <trkpt lat="46.91701" lon="8.58257">
        <ele>901</ele>
        <time>2021-08-10T12:20:27.484Z</time>
      </trkpt>
      <trkpt lat="46.91701" lon="8.58257">
        <ele>901</ele>
        <time>2021-08-10T12:20:28.484Z</time>
      </trkpt>
      <trkpt lat="46.917" lon="8.58256">
        <ele>902</ele>
        <time>2021-08-10T12:20:29.483Z</time>
      </trkpt>
      <trkpt lat="46.917" lon="8.58256">
        <ele>903</ele>
        <time>2021-08-10T12:20:30.483Z</time>
      </trkpt>
      <trkpt lat="46.91699" lon="8.58255">
        <ele>903</ele>
        <time>2021-08-10T12:20:31.483Z</time>
      </trkpt>
      <trkpt lat="46.91698" lon="8.58254">
        <ele>903</ele>
        <time>2021-08-10T12:20:32.484Z</time>
      </trkpt>
      <trkpt lat="46.91698" lon="8.58253">
        <ele>904</ele>
        <time>2021-08-10T12:20:33.484Z</time>
      </trkpt>
      <trkpt lat="46.91698" lon="8.58251">
        <ele>904</ele>
        <time>2021-08-10T12:20:34.484Z</time>
      </trkpt>
      <trkpt lat="46.91697" lon="8.5825">
        <ele>904</ele>
        <time>2021-08-10T12:20:35.483Z</time>
      </trkpt>
      <trkpt lat="46.91696" lon="8.58249">
        <ele>904</ele>
        <time>2021-08-10T12:20:36.483Z</time>
      </trkpt>
      <trkpt lat="46.91696" lon="8.58249">
        <ele>905</ele>
        <time>2021-08-10T12:20:37.483Z</time>
      </trkpt>
      <trkpt lat="46.91695" lon="8.58248">
        <ele>905</ele>
        <time>2021-08-10T12:20:38.483Z</time>
      </trkpt>
      <trkpt lat="46.91695" lon="8.58247">
        <ele>905</ele>
        <time>2021-08-10T12:20:39.484Z</time>
      </trkpt>
      <trkpt lat="46.91694" lon="8.58246">
        <ele>905</ele>
        <time>2021-08-10T12:20:40.484Z</time>
      </trkpt>
      <trkpt lat="46.91694" lon="8.58246">
        <ele>905</ele>
        <time>2021-08-10T12:20:41.484Z</time>
      </trkpt>
      <trkpt lat="46.91693" lon="8.58246">
        <ele>905</ele>
        <time>2021-08-10T12:20:42.483Z</time>
      </trkpt>
      <trkpt lat="46.91693" lon="8.58246">
        <ele>905</ele>
        <time>2021-08-10T12:20:43.484Z</time>
      </trkpt>
      <trkpt lat="46.91692" lon="8.58245">
        <ele>904</ele>
        <time>2021-08-10T12:20:44.483Z</time>
      </trkpt>
      <trkpt lat="46.91691" lon="8.58245">
        <ele>904</ele>
        <time>2021-08-10T12:20:45.483Z</time>
      </trkpt>
      <trkpt lat="46.9169" lon="8.58244">
        <ele>903</ele>
        <time>2021-08-10T12:20:46.483Z</time>
      </trkpt>
      <trkpt lat="46.91689" lon="8.58244">
        <ele>903</ele>
        <time>2021-08-10T12:20:47.483Z</time>
      </trkpt>
      <trkpt lat="46.91689" lon="8.58243">
        <ele>903</ele>
        <time>2021-08-10T12:20:48.484Z</time>
      </trkpt>
      <trkpt lat="46.91688" lon="8.58243">
        <ele>902</ele>
        <time>2021-08-10T12:20:49.483Z</time>
      </trkpt>
      <trkpt lat="46.91687" lon="8.58243">
        <ele>901</ele>
        <time>2021-08-10T12:20:50.484Z</time>
      </trkpt>
      <trkpt lat="46.91686" lon="8.58241">
        <ele>901</ele>
        <time>2021-08-10T12:20:51.484Z</time>
      </trkpt>
      <trkpt lat="46.91685" lon="8.58239">
        <ele>901</ele>
        <time>2021-08-10T12:20:52.484Z</time>
      </trkpt>
      <trkpt lat="46.91684" lon="8.58237">
        <ele>900</ele>
        <time>2021-08-10T12:20:53.484Z</time>
      </trkpt>
      <trkpt lat="46.91683" lon="8.58236">
        <ele>900</ele>
        <time>2021-08-10T12:20:54.484Z</time>
      </trkpt>
      <trkpt lat="46.91682" lon="8.58234">
        <ele>900</ele>
        <time>2021-08-10T12:20:55.484Z</time>
      </trkpt>
      <trkpt lat="46.91681" lon="8.58232">
        <ele>900</ele>
        <time>2021-08-10T12:20:56.483Z</time>
      </trkpt>
      <trkpt lat="46.91681" lon="8.58232">
        <ele>900</ele>
        <time>2021-08-10T12:20:57.484Z</time>
      </trkpt>
      <trkpt lat="46.9168" lon="8.58231">
        <ele>900</ele>
        <time>2021-08-10T12:20:58.483Z</time>
      </trkpt>
      <trkpt lat="46.9168" lon="8.5823">
        <ele>899</ele>
        <time>2021-08-10T12:20:59.484Z</time>
      </trkpt>
      <trkpt lat="46.9168" lon="8.58229">
        <ele>899</ele>
        <time>2021-08-10T12:21:00.484Z</time>
      </trkpt>
      <trkpt lat="46.91679" lon="8.58227">
        <ele>899</ele>
        <time>2021-08-10T12:21:01.484Z</time>
      </trkpt>
      <trkpt lat="46.91679" lon="8.58226">
        <ele>898</ele>
        <time>2021-08-10T12:21:02.484Z</time>
      </trkpt>
      <trkpt lat="46.91678" lon="8.58225">
        <ele>898</ele>
        <time>2021-08-10T12:21:03.483Z</time>
      </trkpt>
      <trkpt lat="46.91678" lon="8.58224">
        <ele>898</ele>
        <time>2021-08-10T12:21:04.484Z</time>
      </trkpt>
      <trkpt lat="46.91678" lon="8.58223">
        <ele>898</ele>
        <time>2021-08-10T12:21:05.484Z</time>
      </trkpt>
      <trkpt lat="46.91677" lon="8.58222">
        <ele>897</ele>
        <time>2021-08-10T12:21:06.483Z</time>
      </trkpt>
      <trkpt lat="46.91677" lon="8.58222">
        <ele>897</ele>
        <time>2021-08-10T12:21:07.484Z</time>
      </trkpt>
      <trkpt lat="46.91677" lon="8.58222">
        <ele>897</ele>
        <time>2021-08-10T12:21:08.484Z</time>
      </trkpt>
      <trkpt lat="46.91676" lon="8.58219">
        <ele>897</ele>
        <time>2021-08-10T12:21:09.484Z</time>
      </trkpt>
      <trkpt lat="46.91675" lon="8.58218">
        <ele>897</ele>
        <time>2021-08-10T12:21:10.484Z</time>
      </trkpt>
      <trkpt lat="46.91674" lon="8.58217">
        <ele>898</ele>
        <time>2021-08-10T12:21:11.484Z</time>
      </trkpt>
      <trkpt lat="46.91674" lon="8.58215">
        <ele>898</ele>
        <time>2021-08-10T12:21:12.484Z</time>
      </trkpt>
      <trkpt lat="46.91673" lon="8.58213">
        <ele>898</ele>
        <time>2021-08-10T12:21:13.483Z</time>
      </trkpt>
      <trkpt lat="46.91672" lon="8.58211">
        <ele>899</ele>
        <time>2021-08-10T12:21:14.484Z</time>
      </trkpt>
      <trkpt lat="46.91672" lon="8.58209">
        <ele>899</ele>
        <time>2021-08-10T12:21:15.484Z</time>
      </trkpt>
      <trkpt lat="46.91671" lon="8.58207">
        <ele>900</ele>
        <time>2021-08-10T12:21:16.484Z</time>
      </trkpt>
      <trkpt lat="46.9167" lon="8.58205">
        <ele>900</ele>
        <time>2021-08-10T12:21:17.483Z</time>
      </trkpt>
      <trkpt lat="46.9167" lon="8.58204">
        <ele>900</ele>
        <time>2021-08-10T12:21:18.484Z</time>
      </trkpt>
      <trkpt lat="46.9167" lon="8.58203">
        <ele>900</ele>
        <time>2021-08-10T12:21:19.483Z</time>
      </trkpt>
      <trkpt lat="46.91669" lon="8.58202">
        <ele>900</ele>
        <time>2021-08-10T12:21:20.483Z</time>
      </trkpt>
      <trkpt lat="46.91669" lon="8.58202">
        <ele>900</ele>
        <time>2021-08-10T12:21:21.484Z</time>
      </trkpt>
      <trkpt lat="46.91669" lon="8.58202">
        <ele>900</ele>
        <time>2021-08-10T12:21:22.483Z</time>
      </trkpt>
      <trkpt lat="46.91668" lon="8.58202">
        <ele>899</ele>
        <time>2021-08-10T12:21:23.484Z</time>
      </trkpt>
      <trkpt lat="46.91667" lon="8.58201">
        <ele>899</ele>
        <time>2021-08-10T12:21:24.484Z</time>
      </trkpt>
      <trkpt lat="46.91667" lon="8.582">
        <ele>899</ele>
        <time>2021-08-10T12:21:25.483Z</time>
      </trkpt>
      <trkpt lat="46.91667" lon="8.58199">
        <ele>899</ele>
        <time>2021-08-10T12:21:26.484Z</time>
      </trkpt>
      <trkpt lat="46.91666" lon="8.58198">
        <ele>899</ele>
        <time>2021-08-10T12:21:27.484Z</time>
      </trkpt>
      <trkpt lat="46.91666" lon="8.58197">
        <ele>899</ele>
        <time>2021-08-10T12:21:28.483Z</time>
      </trkpt>
      <trkpt lat="46.91665" lon="8.58196">
        <ele>899</ele>
        <time>2021-08-10T12:21:29.484Z</time>
      </trkpt>
      <trkpt lat="46.91664" lon="8.58194">
        <ele>900</ele>
        <time>2021-08-10T12:21:30.484Z</time>
      </trkpt>
      <trkpt lat="46.91663" lon="8.58193">
        <ele>900</ele>
        <time>2021-08-10T12:21:31.484Z</time>
      </trkpt>
      <trkpt lat="46.91663" lon="8.58192">
        <ele>901</ele>
        <time>2021-08-10T12:21:32.484Z</time>
      </trkpt>
      <trkpt lat="46.91663" lon="8.58192">
        <ele>901</ele>
        <time>2021-08-10T12:21:33.483Z</time>
      </trkpt>
      <trkpt lat="46.91663" lon="8.58191">
        <ele>902</ele>
        <time>2021-08-10T12:21:34.483Z</time>
      </trkpt>
      <trkpt lat="46.91662" lon="8.5819">
        <ele>902</ele>
        <time>2021-08-10T12:21:35.483Z</time>
      </trkpt>
      <trkpt lat="46.91662" lon="8.58188">
        <ele>903</ele>
        <time>2021-08-10T12:21:36.483Z</time>
      </trkpt>
      <trkpt lat="46.91661" lon="8.58187">
        <ele>903</ele>
        <time>2021-08-10T12:21:37.484Z</time>
      </trkpt>
      <trkpt lat="46.91661" lon="8.58186">
        <ele>904</ele>
        <time>2021-08-10T12:21:38.483Z</time>
      </trkpt>
      <trkpt lat="46.9166" lon="8.58184">
        <ele>905</ele>
        <time>2021-08-10T12:21:39.483Z</time>
      </trkpt>
      <trkpt lat="46.91659" lon="8.58182">
        <ele>906</ele>
        <time>2021-08-10T12:21:40.483Z</time>
      </trkpt>
      <trkpt lat="46.91658" lon="8.5818">
        <ele>907</ele>
        <time>2021-08-10T12:21:41.483Z</time>
      </trkpt>
      <trkpt lat="46.91657" lon="8.58179">
        <ele>907</ele>
        <time>2021-08-10T12:21:42.484Z</time>
      </trkpt>
      <trkpt lat="46.91656" lon="8.58177">
        <ele>908</ele>
        <time>2021-08-10T12:21:43.483Z</time>
      </trkpt>
      <trkpt lat="46.91656" lon="8.58175">
        <ele>908</ele>
        <time>2021-08-10T12:21:44.483Z</time>
      </trkpt>
      <trkpt lat="46.91655" lon="8.58172">
        <ele>908</ele>
        <time>2021-08-10T12:21:45.483Z</time>
      </trkpt>
      <trkpt lat="46.91653" lon="8.5817">
        <ele>908</ele>
        <time>2021-08-10T12:21:46.484Z</time>
      </trkpt>
      <trkpt lat="46.91653" lon="8.58169">
        <ele>909</ele>
        <time>2021-08-10T12:21:47.483Z</time>
      </trkpt>
      <trkpt lat="46.91652" lon="8.58167">
        <ele>910</ele>
        <time>2021-08-10T12:21:48.483Z</time>
      </trkpt>
      <trkpt lat="46.91651" lon="8.58166">
        <ele>910</ele>
        <time>2021-08-10T12:21:49.483Z</time>
      </trkpt>
      <trkpt lat="46.9165" lon="8.58165">
        <ele>910</ele>
        <time>2021-08-10T12:21:50.483Z</time>
      </trkpt>
      <trkpt lat="46.9165" lon="8.58163">
        <ele>911</ele>
        <time>2021-08-10T12:21:51.483Z</time>
      </trkpt>
      <trkpt lat="46.91649" lon="8.58162">
        <ele>911</ele>
        <time>2021-08-10T12:21:52.483Z</time>
      </trkpt>
      <trkpt lat="46.91649" lon="8.58161">
        <ele>911</ele>
        <time>2021-08-10T12:21:53.484Z</time>
      </trkpt>
      <trkpt lat="46.91649" lon="8.5816">
        <ele>911</ele>
        <time>2021-08-10T12:21:54.483Z</time>
      </trkpt>
      <trkpt lat="46.91649" lon="8.5816">
        <ele>911</ele>
        <time>2021-08-10T12:21:55.483Z</time>
      </trkpt>
      <trkpt lat="46.91649" lon="8.58159">
        <ele>911</ele>
        <time>2021-08-10T12:21:56.483Z</time>
      </trkpt>
      <trkpt lat="46.91648" lon="8.58158">
        <ele>911</ele>
        <time>2021-08-10T12:21:57.483Z</time>
      </trkpt>
      <trkpt lat="46.91648" lon="8.58156">
        <ele>911</ele>
        <time>2021-08-10T12:21:58.483Z</time>
      </trkpt>
      <trkpt lat="46.91648" lon="8.58155">
        <ele>911</ele>
        <time>2021-08-10T12:21:59.483Z</time>
      </trkpt>
      <trkpt lat="46.91647" lon="8.58155">
        <ele>911</ele>
        <time>2021-08-10T12:22:00.483Z</time>
      </trkpt>
      <trkpt lat="46.91647" lon="8.58155">
        <ele>911</ele>
        <time>2021-08-10T12:22:01.483Z</time>
      </trkpt>
      <trkpt lat="46.91647" lon="8.58154">
        <ele>911</ele>
        <time>2021-08-10T12:22:02.484Z</time>
      </trkpt>
      <trkpt lat="46.91647" lon="8.58154">
        <ele>910</ele>
        <time>2021-08-10T12:22:03.483Z</time>
      </trkpt>
      <trkpt lat="46.91646" lon="8.58153">
        <ele>910</ele>
        <time>2021-08-10T12:22:04.483Z</time>
      </trkpt>
      <trkpt lat="46.91645" lon="8.58152">
        <ele>910</ele>
        <time>2021-08-10T12:22:05.483Z</time>
      </trkpt>
      <trkpt lat="46.91645" lon="8.58151">
        <ele>910</ele>
        <time>2021-08-10T12:22:06.484Z</time>
      </trkpt>
      <trkpt lat="46.91644" lon="8.5815">
        <ele>910</ele>
        <time>2021-08-10T12:22:07.483Z</time>
      </trkpt>
      <trkpt lat="46.91644" lon="8.58148">
        <ele>910</ele>
        <time>2021-08-10T12:22:08.484Z</time>
      </trkpt>
      <trkpt lat="46.91644" lon="8.58146">
        <ele>910</ele>
        <time>2021-08-10T12:22:09.484Z</time>
      </trkpt>
      <trkpt lat="46.91643" lon="8.58143">
        <ele>910</ele>
        <time>2021-08-10T12:22:10.483Z</time>
      </trkpt>
      <trkpt lat="46.91642" lon="8.58142">
        <ele>909</ele>
        <time>2021-08-10T12:22:11.483Z</time>
      </trkpt>
      <trkpt lat="46.9164" lon="8.5814">
        <ele>909</ele>
        <time>2021-08-10T12:22:12.483Z</time>
      </trkpt>
      <trkpt lat="46.91638" lon="8.58138">
        <ele>909</ele>
        <time>2021-08-10T12:22:13.484Z</time>
      </trkpt>
      <trkpt lat="46.91638" lon="8.58135">
        <ele>909</ele>
        <time>2021-08-10T12:22:14.484Z</time>
      </trkpt>
      <trkpt lat="46.91638" lon="8.58135">
        <ele>908</ele>
        <time>2021-08-10T12:22:15.484Z</time>
      </trkpt>
      <trkpt lat="46.91638" lon="8.58134">
        <ele>908</ele>
        <time>2021-08-10T12:22:16.484Z</time>
      </trkpt>
      <trkpt lat="46.91638" lon="8.58133">
        <ele>908</ele>
        <time>2021-08-10T12:22:17.483Z</time>
      </trkpt>
      <trkpt lat="46.91638" lon="8.58131">
        <ele>908</ele>
        <time>2021-08-10T12:22:18.483Z</time>
      </trkpt>
      <trkpt lat="46.91638" lon="8.58129">
        <ele>908</ele>
        <time>2021-08-10T12:22:19.484Z</time>
      </trkpt>
      <trkpt lat="46.91637" lon="8.58127">
        <ele>908</ele>
        <time>2021-08-10T12:22:20.484Z</time>
      </trkpt>
      <trkpt lat="46.91637" lon="8.58125">
        <ele>908</ele>
        <time>2021-08-10T12:22:21.484Z</time>
      </trkpt>
      <trkpt lat="46.91636" lon="8.58123">
        <ele>908</ele>
        <time>2021-08-10T12:22:22.484Z</time>
      </trkpt>
      <trkpt lat="46.91636" lon="8.58121">
        <ele>908</ele>
        <time>2021-08-10T12:22:23.484Z</time>
      </trkpt>
      <trkpt lat="46.91636" lon="8.5812">
        <ele>909</ele>
        <time>2021-08-10T12:22:24.484Z</time>
      </trkpt>
      <trkpt lat="46.91635" lon="8.58118">
        <ele>909</ele>
        <time>2021-08-10T12:22:25.483Z</time>
      </trkpt>
      <trkpt lat="46.91635" lon="8.58117">
        <ele>909</ele>
        <time>2021-08-10T12:22:26.484Z</time>
      </trkpt>
      <trkpt lat="46.91636" lon="8.58115">
        <ele>909</ele>
        <time>2021-08-10T12:22:27.484Z</time>
      </trkpt>
      <trkpt lat="46.91636" lon="8.58114">
        <ele>909</ele>
        <time>2021-08-10T12:22:28.484Z</time>
      </trkpt>
      <trkpt lat="46.91637" lon="8.58114">
        <ele>909</ele>
        <time>2021-08-10T12:22:29.484Z</time>
      </trkpt>
      <trkpt lat="46.91637" lon="8.58113">
        <ele>909</ele>
        <time>2021-08-10T12:22:30.483Z</time>
      </trkpt>
      <trkpt lat="46.91637" lon="8.58113">
        <ele>909</ele>
        <time>2021-08-10T12:22:31.484Z</time>
      </trkpt>
      <trkpt lat="46.91636" lon="8.58111">
        <ele>909</ele>
        <time>2021-08-10T12:22:32.484Z</time>
      </trkpt>
      <trkpt lat="46.91635" lon="8.58109">
        <ele>910</ele>
        <time>2021-08-10T12:22:33.483Z</time>
      </trkpt>
      <trkpt lat="46.91634" lon="8.58107">
        <ele>910</ele>
        <time>2021-08-10T12:22:34.484Z</time>
      </trkpt>
      <trkpt lat="46.91634" lon="8.58106">
        <ele>910</ele>
        <time>2021-08-10T12:22:35.483Z</time>
      </trkpt>
      <trkpt lat="46.91633" lon="8.58105">
        <ele>910</ele>
        <time>2021-08-10T12:22:36.484Z</time>
      </trkpt>
      <trkpt lat="46.91633" lon="8.58104">
        <ele>911</ele>
        <time>2021-08-10T12:22:37.484Z</time>
      </trkpt>
      <trkpt lat="46.91632" lon="8.58102">
        <ele>911</ele>
        <time>2021-08-10T12:22:38.484Z</time>
      </trkpt>
      <trkpt lat="46.91632" lon="8.58101">
        <ele>911</ele>
        <time>2021-08-10T12:22:39.484Z</time>
      </trkpt>
      <trkpt lat="46.91631" lon="8.581">
        <ele>912</ele>
        <time>2021-08-10T12:22:40.483Z</time>
      </trkpt>
      <trkpt lat="46.91631" lon="8.58098">
        <ele>913</ele>
        <time>2021-08-10T12:22:41.484Z</time>
      </trkpt>
      <trkpt lat="46.9163" lon="8.58097">
        <ele>913</ele>
        <time>2021-08-10T12:22:42.484Z</time>
      </trkpt>
      <trkpt lat="46.9163" lon="8.58097">
        <ele>913</ele>
        <time>2021-08-10T12:22:43.484Z</time>
      </trkpt>
      <trkpt lat="46.91629" lon="8.58097">
        <ele>913</ele>
        <time>2021-08-10T12:22:44.484Z</time>
      </trkpt>
      <trkpt lat="46.91628" lon="8.58096">
        <ele>913</ele>
        <time>2021-08-10T12:22:45.484Z</time>
      </trkpt>
      <trkpt lat="46.91628" lon="8.58095">
        <ele>913</ele>
        <time>2021-08-10T12:22:46.483Z</time>
      </trkpt>
      <trkpt lat="46.91627" lon="8.58094">
        <ele>913</ele>
        <time>2021-08-10T12:22:47.483Z</time>
      </trkpt>
      <trkpt lat="46.91627" lon="8.58093">
        <ele>912</ele>
        <time>2021-08-10T12:22:48.484Z</time>
      </trkpt>
      <trkpt lat="46.91626" lon="8.58093">
        <ele>912</ele>
        <time>2021-08-10T12:22:49.484Z</time>
      </trkpt>
      <trkpt lat="46.91626" lon="8.58092">
        <ele>912</ele>
        <time>2021-08-10T12:22:50.484Z</time>
      </trkpt>
      <trkpt lat="46.91625" lon="8.58092">
        <ele>912</ele>
        <time>2021-08-10T12:22:51.484Z</time>
      </trkpt>
      <trkpt lat="46.91624" lon="8.58091">
        <ele>912</ele>
        <time>2021-08-10T12:22:52.483Z</time>
      </trkpt>
      <trkpt lat="46.91623" lon="8.5809">
        <ele>911</ele>
        <time>2021-08-10T12:22:53.484Z</time>
      </trkpt>
      <trkpt lat="46.91622" lon="8.58089">
        <ele>911</ele>
        <time>2021-08-10T12:22:54.483Z</time>
      </trkpt>
      <trkpt lat="46.91621" lon="8.58088">
        <ele>911</ele>
        <time>2021-08-10T12:22:55.484Z</time>
      </trkpt>
      <trkpt lat="46.9162" lon="8.58086">
        <ele>911</ele>
        <time>2021-08-10T12:22:56.484Z</time>
      </trkpt>
      <trkpt lat="46.91619" lon="8.58085">
        <ele>910</ele>
        <time>2021-08-10T12:22:57.483Z</time>
      </trkpt>
      <trkpt lat="46.91618" lon="8.58084">
        <ele>910</ele>
        <time>2021-08-10T12:22:58.483Z</time>
      </trkpt>
      <trkpt lat="46.91618" lon="8.58084">
        <ele>910</ele>
        <time>2021-08-10T12:22:59.483Z</time>
      </trkpt>
      <trkpt lat="46.91618" lon="8.58083">
        <ele>910</ele>
        <time>2021-08-10T12:23:00.484Z</time>
      </trkpt>
      <trkpt lat="46.91617" lon="8.58083">
        <ele>910</ele>
        <time>2021-08-10T12:23:01.484Z</time>
      </trkpt>
      <trkpt lat="46.91616" lon="8.58082">
        <ele>910</ele>
        <time>2021-08-10T12:23:02.483Z</time>
      </trkpt>
      <trkpt lat="46.91616" lon="8.58082">
        <ele>910</ele>
        <time>2021-08-10T12:23:03.484Z</time>
      </trkpt>
      <trkpt lat="46.91616" lon="8.58081">
        <ele>910</ele>
        <time>2021-08-10T12:23:04.484Z</time>
      </trkpt>
      <trkpt lat="46.91615" lon="8.5808">
        <ele>910</ele>
        <time>2021-08-10T12:23:05.484Z</time>
      </trkpt>
      <trkpt lat="46.91614" lon="8.58079">
        <ele>909</ele>
        <time>2021-08-10T12:23:06.483Z</time>
      </trkpt>
      <trkpt lat="46.91613" lon="8.58079">
        <ele>909</ele>
        <time>2021-08-10T12:23:07.483Z</time>
      </trkpt>
      <trkpt lat="46.91613" lon="8.58079">
        <ele>909</ele>
        <time>2021-08-10T12:23:08.484Z</time>
      </trkpt>
      <trkpt lat="46.91612" lon="8.58078">
        <ele>909</ele>
        <time>2021-08-10T12:23:09.484Z</time>
      </trkpt>
      <trkpt lat="46.91612" lon="8.58078">
        <ele>909</ele>
        <time>2021-08-10T12:23:10.483Z</time>
      </trkpt>
      <trkpt lat="46.91611" lon="8.58078">
        <ele>909</ele>
        <time>2021-08-10T12:23:11.484Z</time>
      </trkpt>
      <trkpt lat="46.9161" lon="8.58077">
        <ele>908</ele>
        <time>2021-08-10T12:23:12.484Z</time>
      </trkpt>
      <trkpt lat="46.91609" lon="8.58077">
        <ele>908</ele>
        <time>2021-08-10T12:23:13.483Z</time>
      </trkpt>
      <trkpt lat="46.91608" lon="8.58076">
        <ele>908</ele>
        <time>2021-08-10T12:23:14.484Z</time>
      </trkpt>
      <trkpt lat="46.91608" lon="8.58076">
        <ele>908</ele>
        <time>2021-08-10T12:23:15.484Z</time>
      </trkpt>
      <trkpt lat="46.91608" lon="8.58075">
        <ele>908</ele>
        <time>2021-08-10T12:23:16.483Z</time>
      </trkpt>
      <trkpt lat="46.91607" lon="8.58074">
        <ele>908</ele>
        <time>2021-08-10T12:23:17.484Z</time>
      </trkpt>
      <trkpt lat="46.91607" lon="8.58072">
        <ele>908</ele>
        <time>2021-08-10T12:23:18.484Z</time>
      </trkpt>
      <trkpt lat="46.91606" lon="8.58072">
        <ele>907</ele>
        <time>2021-08-10T12:23:19.484Z</time>
      </trkpt>
      <trkpt lat="46.91605" lon="8.58071">
        <ele>907</ele>
        <time>2021-08-10T12:23:20.483Z</time>
      </trkpt>
      <trkpt lat="46.91604" lon="8.58069">
        <ele>906</ele>
        <time>2021-08-10T12:23:21.484Z</time>
      </trkpt>
      <trkpt lat="46.91603" lon="8.58068">
        <ele>905</ele>
        <time>2021-08-10T12:23:22.484Z</time>
      </trkpt>
      <trkpt lat="46.91603" lon="8.58066">
        <ele>905</ele>
        <time>2021-08-10T12:23:23.484Z</time>
      </trkpt>
      <trkpt lat="46.91602" lon="8.58065">
        <ele>904</ele>
        <time>2021-08-10T12:23:24.484Z</time>
      </trkpt>
      <trkpt lat="46.91602" lon="8.58063">
        <ele>904</ele>
        <time>2021-08-10T12:23:25.484Z</time>
      </trkpt>
      <trkpt lat="46.91601" lon="8.58062">
        <ele>904</ele>
        <time>2021-08-10T12:23:26.484Z</time>
      </trkpt>
      <trkpt lat="46.916" lon="8.58061">
        <ele>904</ele>
        <time>2021-08-10T12:23:27.483Z</time>
      </trkpt>
      <trkpt lat="46.916" lon="8.58059">
        <ele>904</ele>
        <time>2021-08-10T12:23:28.484Z</time>
      </trkpt>
      <trkpt lat="46.916" lon="8.58057">
        <ele>903</ele>
        <time>2021-08-10T12:23:29.484Z</time>
      </trkpt>
      <trkpt lat="46.91599" lon="8.58057">
        <ele>903</ele>
        <time>2021-08-10T12:23:30.484Z</time>
      </trkpt>
      <trkpt lat="46.91599" lon="8.58057">
        <ele>903</ele>
        <time>2021-08-10T12:23:31.483Z</time>
      </trkpt>
      <trkpt lat="46.91599" lon="8.58056">
        <ele>902</ele>
        <time>2021-08-10T12:23:32.484Z</time>
      </trkpt>
      <trkpt lat="46.91599" lon="8.58055">
        <ele>902</ele>
        <time>2021-08-10T12:23:33.484Z</time>
      </trkpt>
      <trkpt lat="46.91598" lon="8.58053">
        <ele>902</ele>
        <time>2021-08-10T12:23:34.483Z</time>
      </trkpt>
      <trkpt lat="46.91597" lon="8.58052">
        <ele>903</ele>
        <time>2021-08-10T12:23:35.484Z</time>
      </trkpt>
      <trkpt lat="46.91596" lon="8.5805">
        <ele>903</ele>
        <time>2021-08-10T12:23:36.484Z</time>
      </trkpt>
      <trkpt lat="46.91595" lon="8.5805">
        <ele>903</ele>
        <time>2021-08-10T12:23:37.483Z</time>
      </trkpt>
      <trkpt lat="46.91595" lon="8.58048">
        <ele>903</ele>
        <time>2021-08-10T12:23:38.483Z</time>
      </trkpt>
      <trkpt lat="46.91594" lon="8.58048">
        <ele>902</ele>
        <time>2021-08-10T12:23:39.484Z</time>
      </trkpt>
      <trkpt lat="46.91594" lon="8.58047">
        <ele>901</ele>
        <time>2021-08-10T12:23:40.483Z</time>
      </trkpt>
      <trkpt lat="46.91594" lon="8.58045">
        <ele>901</ele>
        <time>2021-08-10T12:23:41.484Z</time>
      </trkpt>
      <trkpt lat="46.91593" lon="8.58045">
        <ele>900</ele>
        <time>2021-08-10T12:23:42.484Z</time>
      </trkpt>
      <trkpt lat="46.91593" lon="8.58044">
        <ele>899</ele>
        <time>2021-08-10T12:23:43.484Z</time>
      </trkpt>
      <trkpt lat="46.91592" lon="8.58042">
        <ele>898</ele>
        <time>2021-08-10T12:23:44.484Z</time>
      </trkpt>
      <trkpt lat="46.91591" lon="8.58041">
        <ele>898</ele>
        <time>2021-08-10T12:23:45.483Z</time>
      </trkpt>
      <trkpt lat="46.91591" lon="8.5804">
        <ele>897</ele>
        <time>2021-08-10T12:23:46.483Z</time>
      </trkpt>
      <trkpt lat="46.9159" lon="8.58039">
        <ele>896</ele>
        <time>2021-08-10T12:23:47.484Z</time>
      </trkpt>
      <trkpt lat="46.9159" lon="8.58039">
        <ele>896</ele>
        <time>2021-08-10T12:23:48.484Z</time>
      </trkpt>
      <trkpt lat="46.91589" lon="8.58038">
        <ele>895</ele>
        <time>2021-08-10T12:23:49.483Z</time>
      </trkpt>
      <trkpt lat="46.91589" lon="8.58037">
        <ele>894</ele>
        <time>2021-08-10T12:23:50.484Z</time>
      </trkpt>
      <trkpt lat="46.91588" lon="8.58037">
        <ele>894</ele>
        <time>2021-08-10T12:23:51.484Z</time>
      </trkpt>
      <trkpt lat="46.91588" lon="8.58037">
        <ele>893</ele>
        <time>2021-08-10T12:23:52.484Z</time>
      </trkpt>
      <trkpt lat="46.91586" lon="8.58042">
        <ele>895</ele>
        <time>2021-08-10T12:23:53.484Z</time>
      </trkpt>
      <trkpt lat="46.91586" lon="8.58042">
        <ele>895</ele>
        <time>2021-08-10T12:23:54.484Z</time>
      </trkpt>
      <trkpt lat="46.91579" lon="8.58059">
        <ele>894</ele>
        <time>2021-08-10T12:23:55.483Z</time>
      </trkpt>
      <trkpt lat="46.91579" lon="8.5806">
        <ele>894</ele>
        <time>2021-08-10T12:23:56.483Z</time>
      </trkpt>
      <trkpt lat="46.91579" lon="8.5806">
        <ele>894</ele>
        <time>2021-08-10T12:23:57.483Z</time>
      </trkpt>
      <trkpt lat="46.91577" lon="8.58064">
        <ele>887</ele>
        <time>2021-08-10T12:23:58.484Z</time>
      </trkpt>
      <trkpt lat="46.91577" lon="8.58063">
        <ele>887</ele>
        <time>2021-08-10T12:23:59.483Z</time>
      </trkpt>
      <trkpt lat="46.91577" lon="8.58061">
        <ele>887</ele>
        <time>2021-08-10T12:24:00.483Z</time>
      </trkpt>
      <trkpt lat="46.91577" lon="8.58059">
        <ele>888</ele>
        <time>2021-08-10T12:24:01.483Z</time>
      </trkpt>
      <trkpt lat="46.91577" lon="8.58057">
        <ele>888</ele>
        <time>2021-08-10T12:24:02.484Z</time>
      </trkpt>
      <trkpt lat="46.91577" lon="8.58055">
        <ele>889</ele>
        <time>2021-08-10T12:24:03.484Z</time>
      </trkpt>
      <trkpt lat="46.91577" lon="8.58054">
        <ele>890</ele>
        <time>2021-08-10T12:24:04.483Z</time>
      </trkpt>
      <trkpt lat="46.91576" lon="8.58052">
        <ele>891</ele>
        <time>2021-08-10T12:24:05.484Z</time>
      </trkpt>
      <trkpt lat="46.91576" lon="8.5805">
        <ele>892</ele>
        <time>2021-08-10T12:24:06.483Z</time>
      </trkpt>
      <trkpt lat="46.91575" lon="8.58048">
        <ele>893</ele>
        <time>2021-08-10T12:24:07.484Z</time>
      </trkpt>
      <trkpt lat="46.91575" lon="8.58047">
        <ele>894</ele>
        <time>2021-08-10T12:24:08.484Z</time>
      </trkpt>
      <trkpt lat="46.91574" lon="8.58045">
        <ele>895</ele>
        <time>2021-08-10T12:24:09.484Z</time>
      </trkpt>
      <trkpt lat="46.91574" lon="8.58044">
        <ele>895</ele>
        <time>2021-08-10T12:24:10.484Z</time>
      </trkpt>
      <trkpt lat="46.91573" lon="8.58042">
        <ele>896</ele>
        <time>2021-08-10T12:24:11.483Z</time>
      </trkpt>
      <trkpt lat="46.91573" lon="8.5804">
        <ele>897</ele>
        <time>2021-08-10T12:24:12.483Z</time>
      </trkpt>
      <trkpt lat="46.91572" lon="8.58037">
        <ele>897</ele>
        <time>2021-08-10T12:24:13.484Z</time>
      </trkpt>
      <trkpt lat="46.91573" lon="8.58035">
        <ele>898</ele>
        <time>2021-08-10T12:24:14.483Z</time>
      </trkpt>
      <trkpt lat="46.91574" lon="8.58033">
        <ele>898</ele>
        <time>2021-08-10T12:24:15.484Z</time>
      </trkpt>
      <trkpt lat="46.91574" lon="8.5803">
        <ele>898</ele>
        <time>2021-08-10T12:24:16.484Z</time>
      </trkpt>
      <trkpt lat="46.91575" lon="8.5803">
        <ele>898</ele>
        <time>2021-08-10T12:24:17.483Z</time>
      </trkpt>
      <trkpt lat="46.91576" lon="8.58029">
        <ele>898</ele>
        <time>2021-08-10T12:24:18.483Z</time>
      </trkpt>
      <trkpt lat="46.91577" lon="8.58024">
        <ele>895</ele>
        <time>2021-08-10T12:24:19.483Z</time>
      </trkpt>
      <trkpt lat="46.91577" lon="8.58023">
        <ele>895</ele>
        <time>2021-08-10T12:24:20.483Z</time>
      </trkpt>
      <trkpt lat="46.91576" lon="8.58022">
        <ele>896</ele>
        <time>2021-08-10T12:24:21.483Z</time>
      </trkpt>
      <trkpt lat="46.91575" lon="8.5802">
        <ele>896</ele>
        <time>2021-08-10T12:24:22.484Z</time>
      </trkpt>
      <trkpt lat="46.91574" lon="8.58018">
        <ele>897</ele>
        <time>2021-08-10T12:24:23.483Z</time>
      </trkpt>
      <trkpt lat="46.91573" lon="8.58017">
        <ele>898</ele>
        <time>2021-08-10T12:24:24.484Z</time>
      </trkpt>
      <trkpt lat="46.91572" lon="8.58014">
        <ele>898</ele>
        <time>2021-08-10T12:24:25.484Z</time>
      </trkpt>
      <trkpt lat="46.91571" lon="8.58012">
        <ele>899</ele>
        <time>2021-08-10T12:24:26.484Z</time>
      </trkpt>
      <trkpt lat="46.91571" lon="8.5801">
        <ele>900</ele>
        <time>2021-08-10T12:24:27.484Z</time>
      </trkpt>
      <trkpt lat="46.9157" lon="8.58008">
        <ele>900</ele>
        <time>2021-08-10T12:24:28.484Z</time>
      </trkpt>
      <trkpt lat="46.91569" lon="8.58006">
        <ele>901</ele>
        <time>2021-08-10T12:24:29.484Z</time>
      </trkpt>
      <trkpt lat="46.91568" lon="8.58004">
        <ele>901</ele>
        <time>2021-08-10T12:24:30.483Z</time>
      </trkpt>
      <trkpt lat="46.91568" lon="8.58002">
        <ele>901</ele>
        <time>2021-08-10T12:24:31.484Z</time>
      </trkpt>
      <trkpt lat="46.91567" lon="8.58001">
        <ele>902</ele>
        <time>2021-08-10T12:24:32.483Z</time>
      </trkpt>
      <trkpt lat="46.91567" lon="8.58">
        <ele>902</ele>
        <time>2021-08-10T12:24:33.484Z</time>
      </trkpt>
      <trkpt lat="46.91566" lon="8.57998">
        <ele>902</ele>
        <time>2021-08-10T12:24:34.483Z</time>
      </trkpt>
      <trkpt lat="46.91566" lon="8.57997">
        <ele>902</ele>
        <time>2021-08-10T12:24:35.483Z</time>
      </trkpt>
      <trkpt lat="46.91565" lon="8.57995">
        <ele>903</ele>
        <time>2021-08-10T12:24:36.484Z</time>
      </trkpt>
      <trkpt lat="46.91564" lon="8.57993">
        <ele>903</ele>
        <time>2021-08-10T12:24:37.483Z</time>
      </trkpt>
      <trkpt lat="46.91564" lon="8.5799">
        <ele>903</ele>
        <time>2021-08-10T12:24:38.483Z</time>
      </trkpt>
      <trkpt lat="46.91563" lon="8.57989">
        <ele>903</ele>
        <time>2021-08-10T12:24:39.483Z</time>
      </trkpt>
      <trkpt lat="46.91562" lon="8.57987">
        <ele>902</ele>
        <time>2021-08-10T12:24:40.483Z</time>
      </trkpt>
      <trkpt lat="46.91562" lon="8.57986">
        <ele>902</ele>
        <time>2021-08-10T12:24:41.484Z</time>
      </trkpt>
      <trkpt lat="46.91561" lon="8.57984">
        <ele>902</ele>
        <time>2021-08-10T12:24:42.483Z</time>
      </trkpt>
      <trkpt lat="46.91561" lon="8.57982">
        <ele>902</ele>
        <time>2021-08-10T12:24:43.483Z</time>
      </trkpt>
      <trkpt lat="46.9156" lon="8.57981">
        <ele>902</ele>
        <time>2021-08-10T12:24:44.484Z</time>
      </trkpt>
      <trkpt lat="46.91559" lon="8.5798">
        <ele>902</ele>
        <time>2021-08-10T12:24:45.484Z</time>
      </trkpt>
      <trkpt lat="46.91559" lon="8.57978">
        <ele>903</ele>
        <time>2021-08-10T12:24:46.483Z</time>
      </trkpt>
      <trkpt lat="46.91557" lon="8.57975">
        <ele>903</ele>
        <time>2021-08-10T12:24:47.484Z</time>
      </trkpt>
      <trkpt lat="46.91555" lon="8.57974">
        <ele>903</ele>
        <time>2021-08-10T12:24:48.483Z</time>
      </trkpt>
      <trkpt lat="46.91554" lon="8.57972">
        <ele>903</ele>
        <time>2021-08-10T12:24:49.484Z</time>
      </trkpt>
      <trkpt lat="46.91554" lon="8.57971">
        <ele>903</ele>
        <time>2021-08-10T12:24:50.484Z</time>
      </trkpt>
      <trkpt lat="46.91553" lon="8.5797">
        <ele>903</ele>
        <time>2021-08-10T12:24:51.484Z</time>
      </trkpt>
      <trkpt lat="46.91552" lon="8.57968">
        <ele>903</ele>
        <time>2021-08-10T12:24:52.483Z</time>
      </trkpt>
      <trkpt lat="46.91551" lon="8.57965">
        <ele>903</ele>
        <time>2021-08-10T12:24:53.484Z</time>
      </trkpt>
      <trkpt lat="46.91551" lon="8.57964">
        <ele>903</ele>
        <time>2021-08-10T12:24:54.484Z</time>
      </trkpt>
      <trkpt lat="46.9155" lon="8.57962">
        <ele>902</ele>
        <time>2021-08-10T12:24:55.484Z</time>
      </trkpt>
      <trkpt lat="46.91549" lon="8.57961">
        <ele>902</ele>
        <time>2021-08-10T12:24:56.484Z</time>
      </trkpt>
      <trkpt lat="46.91548" lon="8.57959">
        <ele>902</ele>
        <time>2021-08-10T12:24:57.484Z</time>
      </trkpt>
      <trkpt lat="46.91547" lon="8.57956">
        <ele>902</ele>
        <time>2021-08-10T12:24:58.484Z</time>
      </trkpt>
      <trkpt lat="46.91546" lon="8.57955">
        <ele>903</ele>
        <time>2021-08-10T12:24:59.483Z</time>
      </trkpt>
      <trkpt lat="46.91545" lon="8.57954">
        <ele>903</ele>
        <time>2021-08-10T12:25:00.483Z</time>
      </trkpt>
      <trkpt lat="46.91545" lon="8.57953">
        <ele>903</ele>
        <time>2021-08-10T12:25:01.484Z</time>
      </trkpt>
      <trkpt lat="46.91545" lon="8.57952">
        <ele>903</ele>
        <time>2021-08-10T12:25:02.484Z</time>
      </trkpt>
      <trkpt lat="46.91545" lon="8.57951">
        <ele>903</ele>
        <time>2021-08-10T12:25:03.483Z</time>
      </trkpt>
      <trkpt lat="46.91545" lon="8.5795">
        <ele>902</ele>
        <time>2021-08-10T12:25:04.483Z</time>
      </trkpt>
      <trkpt lat="46.91545" lon="8.5795">
        <ele>901</ele>
        <time>2021-08-10T12:25:05.484Z</time>
      </trkpt>
      <trkpt lat="46.91545" lon="8.5795">
        <ele>901</ele>
        <time>2021-08-10T12:25:06.484Z</time>
      </trkpt>
      <trkpt lat="46.91545" lon="8.57949">
        <ele>900</ele>
        <time>2021-08-10T12:25:07.484Z</time>
      </trkpt>
      <trkpt lat="46.91545" lon="8.57949">
        <ele>899</ele>
        <time>2021-08-10T12:25:08.483Z</time>
      </trkpt>
      <trkpt lat="46.91545" lon="8.57948">
        <ele>898</ele>
        <time>2021-08-10T12:25:09.483Z</time>
      </trkpt>
      <trkpt lat="46.91545" lon="8.57947">
        <ele>898</ele>
        <time>2021-08-10T12:25:10.484Z</time>
      </trkpt>
      <trkpt lat="46.91545" lon="8.57945">
        <ele>897</ele>
        <time>2021-08-10T12:25:11.484Z</time>
      </trkpt>
      <trkpt lat="46.91544" lon="8.57944">
        <ele>897</ele>
        <time>2021-08-10T12:25:12.484Z</time>
      </trkpt>
      <trkpt lat="46.91544" lon="8.57943">
        <ele>896</ele>
        <time>2021-08-10T12:25:13.483Z</time>
      </trkpt>
      <trkpt lat="46.91543" lon="8.57941">
        <ele>896</ele>
        <time>2021-08-10T12:25:14.483Z</time>
      </trkpt>
      <trkpt lat="46.91543" lon="8.5794">
        <ele>896</ele>
        <time>2021-08-10T12:25:15.484Z</time>
      </trkpt>
      <trkpt lat="46.91542" lon="8.57939">
        <ele>896</ele>
        <time>2021-08-10T12:25:16.483Z</time>
      </trkpt>
      <trkpt lat="46.91541" lon="8.57937">
        <ele>896</ele>
        <time>2021-08-10T12:25:17.484Z</time>
      </trkpt>
      <trkpt lat="46.91541" lon="8.57936">
        <ele>896</ele>
        <time>2021-08-10T12:25:18.483Z</time>
      </trkpt>
      <trkpt lat="46.9154" lon="8.57935">
        <ele>896</ele>
        <time>2021-08-10T12:25:19.484Z</time>
      </trkpt>
      <trkpt lat="46.9154" lon="8.57933">
        <ele>896</ele>
        <time>2021-08-10T12:25:20.484Z</time>
      </trkpt>
      <trkpt lat="46.91539" lon="8.57932">
        <ele>896</ele>
        <time>2021-08-10T12:25:21.483Z</time>
      </trkpt>
      <trkpt lat="46.91539" lon="8.5793">
        <ele>896</ele>
        <time>2021-08-10T12:25:22.484Z</time>
      </trkpt>
      <trkpt lat="46.91538" lon="8.57929">
        <ele>896</ele>
        <time>2021-08-10T12:25:23.483Z</time>
      </trkpt>
      <trkpt lat="46.91538" lon="8.57926">
        <ele>896</ele>
        <time>2021-08-10T12:25:24.483Z</time>
      </trkpt>
      <trkpt lat="46.91537" lon="8.57924">
        <ele>897</ele>
        <time>2021-08-10T12:25:25.483Z</time>
      </trkpt>
      <trkpt lat="46.91536" lon="8.57923">
        <ele>897</ele>
        <time>2021-08-10T12:25:26.484Z</time>
      </trkpt>
      <trkpt lat="46.91536" lon="8.57921">
        <ele>897</ele>
        <time>2021-08-10T12:25:27.484Z</time>
      </trkpt>
      <trkpt lat="46.91536" lon="8.57919">
        <ele>896</ele>
        <time>2021-08-10T12:25:28.484Z</time>
      </trkpt>
      <trkpt lat="46.91536" lon="8.57917">
        <ele>896</ele>
        <time>2021-08-10T12:25:29.484Z</time>
      </trkpt>
      <trkpt lat="46.91536" lon="8.57916">
        <ele>896</ele>
        <time>2021-08-10T12:25:30.483Z</time>
      </trkpt>
      <trkpt lat="46.91536" lon="8.57915">
        <ele>896</ele>
        <time>2021-08-10T12:25:31.483Z</time>
      </trkpt>
      <trkpt lat="46.91536" lon="8.57914">
        <ele>897</ele>
        <time>2021-08-10T12:25:32.484Z</time>
      </trkpt>
      <trkpt lat="46.91536" lon="8.57913">
        <ele>897</ele>
        <time>2021-08-10T12:25:33.483Z</time>
      </trkpt>
      <trkpt lat="46.91535" lon="8.57912">
        <ele>897</ele>
        <time>2021-08-10T12:25:34.484Z</time>
      </trkpt>
      <trkpt lat="46.91534" lon="8.5791">
        <ele>898</ele>
        <time>2021-08-10T12:25:35.484Z</time>
      </trkpt>
      <trkpt lat="46.91534" lon="8.57907">
        <ele>899</ele>
        <time>2021-08-10T12:25:36.484Z</time>
      </trkpt>
      <trkpt lat="46.91533" lon="8.57906">
        <ele>899</ele>
        <time>2021-08-10T12:25:37.484Z</time>
      </trkpt>
      <trkpt lat="46.91532" lon="8.57903">
        <ele>900</ele>
        <time>2021-08-10T12:25:38.484Z</time>
      </trkpt>
      <trkpt lat="46.91532" lon="8.57902">
        <ele>900</ele>
        <time>2021-08-10T12:25:39.484Z</time>
      </trkpt>
      <trkpt lat="46.91532" lon="8.57901">
        <ele>900</ele>
        <time>2021-08-10T12:25:40.484Z</time>
      </trkpt>
      <trkpt lat="46.91532" lon="8.579">
        <ele>901</ele>
        <time>2021-08-10T12:25:41.483Z</time>
      </trkpt>
      <trkpt lat="46.91532" lon="8.57898">
        <ele>901</ele>
        <time>2021-08-10T12:25:42.484Z</time>
      </trkpt>
      <trkpt lat="46.91532" lon="8.57896">
        <ele>902</ele>
        <time>2021-08-10T12:25:43.484Z</time>
      </trkpt>
      <trkpt lat="46.91531" lon="8.57895">
        <ele>902</ele>
        <time>2021-08-10T12:25:44.483Z</time>
      </trkpt>
      <trkpt lat="46.91531" lon="8.57893">
        <ele>903</ele>
        <time>2021-08-10T12:25:45.484Z</time>
      </trkpt>
      <trkpt lat="46.91531" lon="8.57891">
        <ele>903</ele>
        <time>2021-08-10T12:25:46.484Z</time>
      </trkpt>
      <trkpt lat="46.9153" lon="8.57889">
        <ele>903</ele>
        <time>2021-08-10T12:25:47.483Z</time>
      </trkpt>
      <trkpt lat="46.9153" lon="8.57887">
        <ele>903</ele>
        <time>2021-08-10T12:25:48.483Z</time>
      </trkpt>
      <trkpt lat="46.91529" lon="8.57885">
        <ele>903</ele>
        <time>2021-08-10T12:25:49.483Z</time>
      </trkpt>
      <trkpt lat="46.91529" lon="8.57883">
        <ele>903</ele>
        <time>2021-08-10T12:25:50.484Z</time>
      </trkpt>
      <trkpt lat="46.91529" lon="8.57881">
        <ele>903</ele>
        <time>2021-08-10T12:25:51.484Z</time>
      </trkpt>
      <trkpt lat="46.91529" lon="8.5788">
        <ele>903</ele>
        <time>2021-08-10T12:25:52.484Z</time>
      </trkpt>
      <trkpt lat="46.91528" lon="8.57879">
        <ele>902</ele>
        <time>2021-08-10T12:25:53.483Z</time>
      </trkpt>
      <trkpt lat="46.91528" lon="8.57879">
        <ele>902</ele>
        <time>2021-08-10T12:25:54.483Z</time>
      </trkpt>
      <trkpt lat="46.91528" lon="8.57878">
        <ele>902</ele>
        <time>2021-08-10T12:25:55.484Z</time>
      </trkpt>
      <trkpt lat="46.91527" lon="8.57876">
        <ele>902</ele>
        <time>2021-08-10T12:25:56.484Z</time>
      </trkpt>
      <trkpt lat="46.91526" lon="8.57875">
        <ele>902</ele>
        <time>2021-08-10T12:25:57.484Z</time>
      </trkpt>
      <trkpt lat="46.91525" lon="8.57874">
        <ele>902</ele>
        <time>2021-08-10T12:25:58.484Z</time>
      </trkpt>
      <trkpt lat="46.91526" lon="8.57872">
        <ele>901</ele>
        <time>2021-08-10T12:25:59.484Z</time>
      </trkpt>
      <trkpt lat="46.91525" lon="8.57871">
        <ele>901</ele>
        <time>2021-08-10T12:26:00.484Z</time>
      </trkpt>
      <trkpt lat="46.91524" lon="8.57869">
        <ele>900</ele>
        <time>2021-08-10T12:26:01.483Z</time>
      </trkpt>
      <trkpt lat="46.91524" lon="8.57867">
        <ele>900</ele>
        <time>2021-08-10T12:26:02.484Z</time>
      </trkpt>
      <trkpt lat="46.91523" lon="8.57866">
        <ele>900</ele>
        <time>2021-08-10T12:26:03.484Z</time>
      </trkpt>
      <trkpt lat="46.91523" lon="8.57864">
        <ele>899</ele>
        <time>2021-08-10T12:26:04.484Z</time>
      </trkpt>
      <trkpt lat="46.91522" lon="8.57863">
        <ele>899</ele>
        <time>2021-08-10T12:26:05.484Z</time>
      </trkpt>
      <trkpt lat="46.91522" lon="8.57863">
        <ele>898</ele>
        <time>2021-08-10T12:26:06.484Z</time>
      </trkpt>
      <trkpt lat="46.91521" lon="8.57862">
        <ele>898</ele>
        <time>2021-08-10T12:26:07.483Z</time>
      </trkpt>
      <trkpt lat="46.91521" lon="8.57861">
        <ele>897</ele>
        <time>2021-08-10T12:26:08.484Z</time>
      </trkpt>
      <trkpt lat="46.9152" lon="8.5786">
        <ele>897</ele>
        <time>2021-08-10T12:26:09.484Z</time>
      </trkpt>
      <trkpt lat="46.9152" lon="8.5786">
        <ele>897</ele>
        <time>2021-08-10T12:26:10.484Z</time>
      </trkpt>
      <trkpt lat="46.91519" lon="8.57859">
        <ele>896</ele>
        <time>2021-08-10T12:26:11.484Z</time>
      </trkpt>
      <trkpt lat="46.91518" lon="8.5786">
        <ele>896</ele>
        <time>2021-08-10T12:26:12.484Z</time>
      </trkpt>
      <trkpt lat="46.91518" lon="8.5786">
        <ele>896</ele>
        <time>2021-08-10T12:26:13.483Z</time>
      </trkpt>
      <trkpt lat="46.91518" lon="8.57859">
        <ele>895</ele>
        <time>2021-08-10T12:26:14.483Z</time>
      </trkpt>
      <trkpt lat="46.91517" lon="8.57857">
        <ele>895</ele>
        <time>2021-08-10T12:26:15.484Z</time>
      </trkpt>
      <trkpt lat="46.91517" lon="8.57855">
        <ele>894</ele>
        <time>2021-08-10T12:26:16.484Z</time>
      </trkpt>
      <trkpt lat="46.91514" lon="8.57854">
        <ele>892</ele>
        <time>2021-08-10T12:26:18.484Z</time>
      </trkpt>
      <trkpt lat="46.91514" lon="8.57854">
        <ele>892</ele>
        <time>2021-08-10T12:26:19.484Z</time>
      </trkpt>
      <trkpt lat="46.91514" lon="8.57853">
        <ele>891</ele>
        <time>2021-08-10T12:26:20.484Z</time>
      </trkpt>
      <trkpt lat="46.91514" lon="8.57853">
        <ele>891</ele>
        <time>2021-08-10T12:26:21.484Z</time>
      </trkpt>
      <trkpt lat="46.91514" lon="8.57853">
        <ele>891</ele>
        <time>2021-08-10T12:26:22.484Z</time>
      </trkpt>
      <trkpt lat="46.91514" lon="8.57852">
        <ele>890</ele>
        <time>2021-08-10T12:26:23.484Z</time>
      </trkpt>
      <trkpt lat="46.91514" lon="8.57852">
        <ele>890</ele>
        <time>2021-08-10T12:26:24.484Z</time>
      </trkpt>
      <trkpt lat="46.91514" lon="8.57851">
        <ele>889</ele>
        <time>2021-08-10T12:26:25.484Z</time>
      </trkpt>
      <trkpt lat="46.91513" lon="8.5785">
        <ele>889</ele>
        <time>2021-08-10T12:26:26.484Z</time>
      </trkpt>
      <trkpt lat="46.91513" lon="8.5785">
        <ele>888</ele>
        <time>2021-08-10T12:26:27.484Z</time>
      </trkpt>
      <trkpt lat="46.91512" lon="8.57849">
        <ele>888</ele>
        <time>2021-08-10T12:26:28.484Z</time>
      </trkpt>
      <trkpt lat="46.91512" lon="8.57848">
        <ele>887</ele>
        <time>2021-08-10T12:26:29.484Z</time>
      </trkpt>
      <trkpt lat="46.91511" lon="8.57846">
        <ele>887</ele>
        <time>2021-08-10T12:26:30.484Z</time>
      </trkpt>
      <trkpt lat="46.9151" lon="8.57845">
        <ele>887</ele>
        <time>2021-08-10T12:26:31.484Z</time>
      </trkpt>
      <trkpt lat="46.9151" lon="8.57843">
        <ele>887</ele>
        <time>2021-08-10T12:26:32.484Z</time>
      </trkpt>
      <trkpt lat="46.91509" lon="8.57841">
        <ele>887</ele>
        <time>2021-08-10T12:26:33.484Z</time>
      </trkpt>
      <trkpt lat="46.91509" lon="8.5784">
        <ele>886</ele>
        <time>2021-08-10T12:26:34.484Z</time>
      </trkpt>
      <trkpt lat="46.91509" lon="8.5784">
        <ele>887</ele>
        <time>2021-08-10T12:26:35.484Z</time>
      </trkpt>
      <trkpt lat="46.91508" lon="8.57838">
        <ele>887</ele>
        <time>2021-08-10T12:26:36.484Z</time>
      </trkpt>
      <trkpt lat="46.91507" lon="8.57838">
        <ele>886</ele>
        <time>2021-08-10T12:26:37.484Z</time>
      </trkpt>
      <trkpt lat="46.91507" lon="8.57837">
        <ele>886</ele>
        <time>2021-08-10T12:26:38.484Z</time>
      </trkpt>
      <trkpt lat="46.91506" lon="8.57836">
        <ele>887</ele>
        <time>2021-08-10T12:26:39.484Z</time>
      </trkpt>
      <trkpt lat="46.91505" lon="8.57834">
        <ele>887</ele>
        <time>2021-08-10T12:26:40.484Z</time>
      </trkpt>
      <trkpt lat="46.91504" lon="8.57832">
        <ele>887</ele>
        <time>2021-08-10T12:26:41.484Z</time>
      </trkpt>
      <trkpt lat="46.91504" lon="8.5783">
        <ele>888</ele>
        <time>2021-08-10T12:26:42.484Z</time>
      </trkpt>
      <trkpt lat="46.91503" lon="8.57828">
        <ele>888</ele>
        <time>2021-08-10T12:26:43.484Z</time>
      </trkpt>
      <trkpt lat="46.91503" lon="8.57826">
        <ele>889</ele>
        <time>2021-08-10T12:26:44.484Z</time>
      </trkpt>
      <trkpt lat="46.91503" lon="8.57824">
        <ele>889</ele>
        <time>2021-08-10T12:26:45.484Z</time>
      </trkpt>
      <trkpt lat="46.91502" lon="8.57823">
        <ele>889</ele>
        <time>2021-08-10T12:26:46.484Z</time>
      </trkpt>
      <trkpt lat="46.91502" lon="8.57821">
        <ele>889</ele>
        <time>2021-08-10T12:26:47.484Z</time>
      </trkpt>
      <trkpt lat="46.91501" lon="8.57819">
        <ele>889</ele>
        <time>2021-08-10T12:26:48.485Z</time>
      </trkpt>
      <trkpt lat="46.915" lon="8.57817">
        <ele>889</ele>
        <time>2021-08-10T12:26:49.484Z</time>
      </trkpt>
      <trkpt lat="46.915" lon="8.57815">
        <ele>889</ele>
        <time>2021-08-10T12:26:50.484Z</time>
      </trkpt>
      <trkpt lat="46.915" lon="8.57814">
        <ele>889</ele>
        <time>2021-08-10T12:26:51.484Z</time>
      </trkpt>
      <trkpt lat="46.91499" lon="8.57813">
        <ele>889</ele>
        <time>2021-08-10T12:26:52.485Z</time>
      </trkpt>
      <trkpt lat="46.91499" lon="8.57813">
        <ele>889</ele>
        <time>2021-08-10T12:26:53.485Z</time>
      </trkpt>
      <trkpt lat="46.91499" lon="8.57813">
        <ele>889</ele>
        <time>2021-08-10T12:26:54.484Z</time>
      </trkpt>
      <trkpt lat="46.91499" lon="8.57814">
        <ele>889</ele>
        <time>2021-08-10T12:26:55.485Z</time>
      </trkpt>
      <trkpt lat="46.91497" lon="8.57811">
        <ele>888</ele>
        <time>2021-08-10T12:26:56.486Z</time>
      </trkpt>
      <trkpt lat="46.91497" lon="8.57809">
        <ele>888</ele>
        <time>2021-08-10T12:26:57.485Z</time>
      </trkpt>
      <trkpt lat="46.91496" lon="8.57808">
        <ele>888</ele>
        <time>2021-08-10T12:26:58.485Z</time>
      </trkpt>
      <trkpt lat="46.91496" lon="8.57807">
        <ele>888</ele>
        <time>2021-08-10T12:26:59.486Z</time>
      </trkpt>
      <trkpt lat="46.91493" lon="8.57803">
        <ele>886</ele>
        <time>2021-08-10T12:27:00.486Z</time>
      </trkpt>
      <trkpt lat="46.91492" lon="8.57801">
        <ele>886</ele>
        <time>2021-08-10T12:27:01.485Z</time>
      </trkpt>
      <trkpt lat="46.91492" lon="8.578">
        <ele>886</ele>
        <time>2021-08-10T12:27:02.485Z</time>
      </trkpt>
      <trkpt lat="46.91491" lon="8.57798">
        <ele>886</ele>
        <time>2021-08-10T12:27:03.485Z</time>
      </trkpt>
      <trkpt lat="46.9149" lon="8.57797">
        <ele>885</ele>
        <time>2021-08-10T12:27:04.486Z</time>
      </trkpt>
      <trkpt lat="46.91488" lon="8.57796">
        <ele>885</ele>
        <time>2021-08-10T12:27:05.485Z</time>
      </trkpt>
      <trkpt lat="46.91486" lon="8.57796">
        <ele>885</ele>
        <time>2021-08-10T12:27:06.486Z</time>
      </trkpt>
      <trkpt lat="46.91484" lon="8.57795">
        <ele>885</ele>
        <time>2021-08-10T12:27:07.486Z</time>
      </trkpt>
      <trkpt lat="46.91483" lon="8.57795">
        <ele>885</ele>
        <time>2021-08-10T12:27:08.485Z</time>
      </trkpt>
      <trkpt lat="46.91482" lon="8.57793">
        <ele>885</ele>
        <time>2021-08-10T12:27:09.486Z</time>
      </trkpt>
      <trkpt lat="46.91481" lon="8.57792">
        <ele>885</ele>
        <time>2021-08-10T12:27:10.486Z</time>
      </trkpt>
      <trkpt lat="46.91481" lon="8.57791">
        <ele>885</ele>
        <time>2021-08-10T12:27:11.486Z</time>
      </trkpt>
      <trkpt lat="46.9148" lon="8.57789">
        <ele>886</ele>
        <time>2021-08-10T12:27:12.486Z</time>
      </trkpt>
      <trkpt lat="46.91479" lon="8.57787">
        <ele>886</ele>
        <time>2021-08-10T12:27:13.486Z</time>
      </trkpt>
      <trkpt lat="46.91479" lon="8.57786">
        <ele>886</ele>
        <time>2021-08-10T12:27:14.485Z</time>
      </trkpt>
      <trkpt lat="46.91478" lon="8.57785">
        <ele>885</ele>
        <time>2021-08-10T12:27:15.486Z</time>
      </trkpt>
      <trkpt lat="46.91477" lon="8.57784">
        <ele>885</ele>
        <time>2021-08-10T12:27:16.485Z</time>
      </trkpt>
      <trkpt lat="46.91476" lon="8.57782">
        <ele>885</ele>
        <time>2021-08-10T12:27:17.485Z</time>
      </trkpt>
      <trkpt lat="46.91475" lon="8.5778">
        <ele>885</ele>
        <time>2021-08-10T12:27:18.486Z</time>
      </trkpt>
      <trkpt lat="46.91474" lon="8.57779">
        <ele>885</ele>
        <time>2021-08-10T12:27:19.486Z</time>
      </trkpt>
      <trkpt lat="46.91473" lon="8.57777">
        <ele>885</ele>
        <time>2021-08-10T12:27:20.486Z</time>
      </trkpt>
      <trkpt lat="46.91472" lon="8.57776">
        <ele>885</ele>
        <time>2021-08-10T12:27:21.485Z</time>
      </trkpt>
      <trkpt lat="46.91471" lon="8.57775">
        <ele>885</ele>
        <time>2021-08-10T12:27:22.486Z</time>
      </trkpt>
      <trkpt lat="46.9147" lon="8.57773">
        <ele>885</ele>
        <time>2021-08-10T12:27:23.486Z</time>
      </trkpt>
      <trkpt lat="46.9147" lon="8.5777">
        <ele>885</ele>
        <time>2021-08-10T12:27:24.486Z</time>
      </trkpt>
      <trkpt lat="46.9147" lon="8.57767">
        <ele>885</ele>
        <time>2021-08-10T12:27:25.486Z</time>
      </trkpt>
      <trkpt lat="46.91469" lon="8.57763">
        <ele>885</ele>
        <time>2021-08-10T12:27:26.486Z</time>
      </trkpt>
      <trkpt lat="46.91469" lon="8.57761">
        <ele>884</ele>
        <time>2021-08-10T12:27:27.486Z</time>
      </trkpt>
      <trkpt lat="46.91469" lon="8.5776">
        <ele>884</ele>
        <time>2021-08-10T12:27:28.486Z</time>
      </trkpt>
      <trkpt lat="46.9147" lon="8.57758">
        <ele>884</ele>
        <time>2021-08-10T12:27:29.485Z</time>
      </trkpt>
      <trkpt lat="46.9147" lon="8.57756">
        <ele>884</ele>
        <time>2021-08-10T12:27:30.486Z</time>
      </trkpt>
      <trkpt lat="46.9147" lon="8.57754">
        <ele>883</ele>
        <time>2021-08-10T12:27:31.486Z</time>
      </trkpt>
      <trkpt lat="46.9147" lon="8.57753">
        <ele>883</ele>
        <time>2021-08-10T12:27:32.485Z</time>
      </trkpt>
      <trkpt lat="46.9147" lon="8.57751">
        <ele>882</ele>
        <time>2021-08-10T12:27:33.486Z</time>
      </trkpt>
      <trkpt lat="46.9147" lon="8.57751">
        <ele>882</ele>
        <time>2021-08-10T12:27:34.485Z</time>
      </trkpt>
      <trkpt lat="46.9147" lon="8.5775">
        <ele>881</ele>
        <time>2021-08-10T12:27:35.485Z</time>
      </trkpt>
      <trkpt lat="46.9147" lon="8.57748">
        <ele>881</ele>
        <time>2021-08-10T12:27:36.486Z</time>
      </trkpt>
      <trkpt lat="46.91469" lon="8.57746">
        <ele>881</ele>
        <time>2021-08-10T12:27:37.486Z</time>
      </trkpt>
      <trkpt lat="46.91468" lon="8.57745">
        <ele>880</ele>
        <time>2021-08-10T12:27:38.485Z</time>
      </trkpt>
      <trkpt lat="46.91468" lon="8.57743">
        <ele>880</ele>
        <time>2021-08-10T12:27:39.486Z</time>
      </trkpt>
      <trkpt lat="46.91467" lon="8.57741">
        <ele>880</ele>
        <time>2021-08-10T12:27:40.485Z</time>
      </trkpt>
      <trkpt lat="46.91467" lon="8.5774">
        <ele>880</ele>
        <time>2021-08-10T12:27:41.486Z</time>
      </trkpt>
      <trkpt lat="46.91466" lon="8.57738">
        <ele>880</ele>
        <time>2021-08-10T12:27:42.486Z</time>
      </trkpt>
      <trkpt lat="46.91465" lon="8.57737">
        <ele>880</ele>
        <time>2021-08-10T12:27:43.486Z</time>
      </trkpt>
      <trkpt lat="46.91464" lon="8.57736">
        <ele>880</ele>
        <time>2021-08-10T12:27:44.486Z</time>
      </trkpt>
      <trkpt lat="46.91463" lon="8.57736">
        <ele>880</ele>
        <time>2021-08-10T12:27:45.485Z</time>
      </trkpt>
      <trkpt lat="46.91462" lon="8.57736">
        <ele>879</ele>
        <time>2021-08-10T12:27:46.485Z</time>
      </trkpt>
      <trkpt lat="46.91462" lon="8.57737">
        <ele>879</ele>
        <time>2021-08-10T12:27:47.486Z</time>
      </trkpt>
      <trkpt lat="46.91461" lon="8.57739">
        <ele>879</ele>
        <time>2021-08-10T12:27:48.486Z</time>
      </trkpt>
      <trkpt lat="46.91461" lon="8.5774">
        <ele>879</ele>
        <time>2021-08-10T12:27:49.486Z</time>
      </trkpt>
      <trkpt lat="46.91461" lon="8.57741">
        <ele>879</ele>
        <time>2021-08-10T12:27:50.485Z</time>
      </trkpt>
      <trkpt lat="46.91461" lon="8.57742">
        <ele>879</ele>
        <time>2021-08-10T12:27:51.486Z</time>
      </trkpt>
      <trkpt lat="46.91461" lon="8.57743">
        <ele>879</ele>
        <time>2021-08-10T12:27:52.486Z</time>
      </trkpt>
      <trkpt lat="46.9146" lon="8.57744">
        <ele>878</ele>
        <time>2021-08-10T12:27:53.485Z</time>
      </trkpt>
      <trkpt lat="46.9146" lon="8.57746">
        <ele>878</ele>
        <time>2021-08-10T12:27:54.486Z</time>
      </trkpt>
      <trkpt lat="46.9146" lon="8.57746">
        <ele>878</ele>
        <time>2021-08-10T12:27:55.486Z</time>
      </trkpt>
      <trkpt lat="46.9146" lon="8.57748">
        <ele>878</ele>
        <time>2021-08-10T12:27:56.486Z</time>
      </trkpt>
      <trkpt lat="46.91459" lon="8.57749">
        <ele>878</ele>
        <time>2021-08-10T12:27:57.486Z</time>
      </trkpt>
      <trkpt lat="46.91458" lon="8.57749">
        <ele>878</ele>
        <time>2021-08-10T12:27:58.485Z</time>
      </trkpt>
      <trkpt lat="46.91457" lon="8.57748">
        <ele>878</ele>
        <time>2021-08-10T12:27:59.486Z</time>
      </trkpt>
      <trkpt lat="46.91456" lon="8.57747">
        <ele>878</ele>
        <time>2021-08-10T12:28:00.485Z</time>
      </trkpt>
      <trkpt lat="46.91455" lon="8.57747">
        <ele>878</ele>
        <time>2021-08-10T12:28:01.486Z</time>
      </trkpt>
      <trkpt lat="46.91454" lon="8.57745">
        <ele>878</ele>
        <time>2021-08-10T12:28:02.485Z</time>
      </trkpt>
      <trkpt lat="46.91453" lon="8.57744">
        <ele>878</ele>
        <time>2021-08-10T12:28:03.486Z</time>
      </trkpt>
      <trkpt lat="46.91452" lon="8.57742">
        <ele>878</ele>
        <time>2021-08-10T12:28:04.485Z</time>
      </trkpt>
      <trkpt lat="46.91452" lon="8.57741">
        <ele>878</ele>
        <time>2021-08-10T12:28:05.486Z</time>
      </trkpt>
      <trkpt lat="46.91451" lon="8.5774">
        <ele>878</ele>
        <time>2021-08-10T12:28:06.486Z</time>
      </trkpt>
      <trkpt lat="46.91452" lon="8.57737">
        <ele>877</ele>
        <time>2021-08-10T12:28:07.486Z</time>
      </trkpt>
      <trkpt lat="46.91452" lon="8.57737">
        <ele>876</ele>
        <time>2021-08-10T12:28:08.486Z</time>
      </trkpt>
      <trkpt lat="46.91452" lon="8.57736">
        <ele>876</ele>
        <time>2021-08-10T12:28:09.486Z</time>
      </trkpt>
      <trkpt lat="46.91452" lon="8.57735">
        <ele>875</ele>
        <time>2021-08-10T12:28:10.487Z</time>
      </trkpt>
      <trkpt lat="46.91451" lon="8.57734">
        <ele>875</ele>
        <time>2021-08-10T12:28:11.486Z</time>
      </trkpt>
      <trkpt lat="46.91451" lon="8.57733">
        <ele>875</ele>
        <time>2021-08-10T12:28:12.487Z</time>
      </trkpt>
      <trkpt lat="46.9145" lon="8.57732">
        <ele>874</ele>
        <time>2021-08-10T12:28:13.486Z</time>
      </trkpt>
      <trkpt lat="46.9145" lon="8.57732">
        <ele>874</ele>
        <time>2021-08-10T12:28:14.487Z</time>
      </trkpt>
      <trkpt lat="46.91449" lon="8.57731">
        <ele>874</ele>
        <time>2021-08-10T12:28:15.487Z</time>
      </trkpt>
      <trkpt lat="46.91449" lon="8.57731">
        <ele>874</ele>
        <time>2021-08-10T12:28:16.486Z</time>
      </trkpt>
      <trkpt lat="46.91449" lon="8.57729">
        <ele>873</ele>
        <time>2021-08-10T12:28:17.487Z</time>
      </trkpt>
      <trkpt lat="46.91449" lon="8.57728">
        <ele>873</ele>
        <time>2021-08-10T12:28:18.486Z</time>
      </trkpt>
      <trkpt lat="46.91449" lon="8.57727">
        <ele>873</ele>
        <time>2021-08-10T12:28:19.487Z</time>
      </trkpt>
      <trkpt lat="46.91448" lon="8.57725">
        <ele>873</ele>
        <time>2021-08-10T12:28:20.487Z</time>
      </trkpt>
      <trkpt lat="46.91448" lon="8.57724">
        <ele>873</ele>
        <time>2021-08-10T12:28:21.486Z</time>
      </trkpt>
      <trkpt lat="46.91446" lon="8.57723">
        <ele>872</ele>
        <time>2021-08-10T12:28:22.487Z</time>
      </trkpt>
      <trkpt lat="46.91445" lon="8.57722">
        <ele>872</ele>
        <time>2021-08-10T12:28:23.487Z</time>
      </trkpt>
      <trkpt lat="46.91445" lon="8.57722">
        <ele>872</ele>
        <time>2021-08-10T12:28:24.487Z</time>
      </trkpt>
      <trkpt lat="46.91445" lon="8.57721">
        <ele>872</ele>
        <time>2021-08-10T12:28:25.486Z</time>
      </trkpt>
      <trkpt lat="46.91445" lon="8.57721">
        <ele>872</ele>
        <time>2021-08-10T12:28:26.487Z</time>
      </trkpt>
      <trkpt lat="46.91444" lon="8.57721">
        <ele>872</ele>
        <time>2021-08-10T12:28:27.487Z</time>
      </trkpt>
      <trkpt lat="46.91444" lon="8.57721">
        <ele>872</ele>
        <time>2021-08-10T12:28:28.486Z</time>
      </trkpt>
      <trkpt lat="46.91443" lon="8.5772">
        <ele>872</ele>
        <time>2021-08-10T12:28:29.486Z</time>
      </trkpt>
      <trkpt lat="46.91442" lon="8.5772">
        <ele>872</ele>
        <time>2021-08-10T12:28:30.486Z</time>
      </trkpt>
      <trkpt lat="46.91442" lon="8.5772">
        <ele>872</ele>
        <time>2021-08-10T12:28:31.487Z</time>
      </trkpt>
      <trkpt lat="46.91441" lon="8.57719">
        <ele>871</ele>
        <time>2021-08-10T12:28:32.486Z</time>
      </trkpt>
      <trkpt lat="46.91442" lon="8.57718">
        <ele>870</ele>
        <time>2021-08-10T12:28:33.487Z</time>
      </trkpt>
      <trkpt lat="46.91441" lon="8.57717">
        <ele>870</ele>
        <time>2021-08-10T12:28:34.486Z</time>
      </trkpt>
      <trkpt lat="46.91441" lon="8.57715">
        <ele>869</ele>
        <time>2021-08-10T12:28:35.487Z</time>
      </trkpt>
      <trkpt lat="46.9144" lon="8.57712">
        <ele>869</ele>
        <time>2021-08-10T12:28:36.487Z</time>
      </trkpt>
      <trkpt lat="46.91439" lon="8.5771">
        <ele>869</ele>
        <time>2021-08-10T12:28:37.486Z</time>
      </trkpt>
      <trkpt lat="46.91438" lon="8.5771">
        <ele>868</ele>
        <time>2021-08-10T12:28:38.486Z</time>
      </trkpt>
      <trkpt lat="46.91438" lon="8.57709">
        <ele>868</ele>
        <time>2021-08-10T12:28:39.486Z</time>
      </trkpt>
      <trkpt lat="46.91438" lon="8.57708">
        <ele>868</ele>
        <time>2021-08-10T12:28:40.487Z</time>
      </trkpt>
      <trkpt lat="46.91438" lon="8.57708">
        <ele>867</ele>
        <time>2021-08-10T12:28:41.487Z</time>
      </trkpt>
      <trkpt lat="46.91438" lon="8.57708">
        <ele>867</ele>
        <time>2021-08-10T12:28:42.486Z</time>
      </trkpt>
      <trkpt lat="46.91438" lon="8.57707">
        <ele>867</ele>
        <time>2021-08-10T12:28:43.487Z</time>
      </trkpt>
      <trkpt lat="46.91438" lon="8.57706">
        <ele>866</ele>
        <time>2021-08-10T12:28:44.486Z</time>
      </trkpt>
      <trkpt lat="46.91438" lon="8.57704">
        <ele>865</ele>
        <time>2021-08-10T12:28:45.486Z</time>
      </trkpt>
      <trkpt lat="46.91438" lon="8.57703">
        <ele>864</ele>
        <time>2021-08-10T12:28:46.486Z</time>
      </trkpt>
      <trkpt lat="46.91438" lon="8.57703">
        <ele>863</ele>
        <time>2021-08-10T12:28:47.487Z</time>
      </trkpt>
      <trkpt lat="46.91437" lon="8.57703">
        <ele>863</ele>
        <time>2021-08-10T12:28:48.487Z</time>
      </trkpt>
      <trkpt lat="46.91437" lon="8.57702">
        <ele>862</ele>
        <time>2021-08-10T12:28:49.487Z</time>
      </trkpt>
      <trkpt lat="46.91436" lon="8.57701">
        <ele>861</ele>
        <time>2021-08-10T12:28:50.486Z</time>
      </trkpt>
      <trkpt lat="46.91436" lon="8.577">
        <ele>860</ele>
        <time>2021-08-10T12:28:51.487Z</time>
      </trkpt>
      <trkpt lat="46.91435" lon="8.57698">
        <ele>859</ele>
        <time>2021-08-10T12:28:52.487Z</time>
      </trkpt>
      <trkpt lat="46.91435" lon="8.57697">
        <ele>859</ele>
        <time>2021-08-10T12:28:53.487Z</time>
      </trkpt>
      <trkpt lat="46.91435" lon="8.57696">
        <ele>858</ele>
        <time>2021-08-10T12:28:54.487Z</time>
      </trkpt>
      <trkpt lat="46.91435" lon="8.57695">
        <ele>858</ele>
        <time>2021-08-10T12:28:55.486Z</time>
      </trkpt>
      <trkpt lat="46.91435" lon="8.57695">
        <ele>858</ele>
        <time>2021-08-10T12:28:56.486Z</time>
      </trkpt>
      <trkpt lat="46.91435" lon="8.57694">
        <ele>857</ele>
        <time>2021-08-10T12:28:57.487Z</time>
      </trkpt>
      <trkpt lat="46.91435" lon="8.57693">
        <ele>857</ele>
        <time>2021-08-10T12:28:58.487Z</time>
      </trkpt>
      <trkpt lat="46.91435" lon="8.57692">
        <ele>857</ele>
        <time>2021-08-10T12:28:59.486Z</time>
      </trkpt>
      <trkpt lat="46.91436" lon="8.57691">
        <ele>857</ele>
        <time>2021-08-10T12:29:00.486Z</time>
      </trkpt>
      <trkpt lat="46.91435" lon="8.5769">
        <ele>857</ele>
        <time>2021-08-10T12:29:01.487Z</time>
      </trkpt>
      <trkpt lat="46.91435" lon="8.57689">
        <ele>856</ele>
        <time>2021-08-10T12:29:02.487Z</time>
      </trkpt>
      <trkpt lat="46.91434" lon="8.57688">
        <ele>856</ele>
        <time>2021-08-10T12:29:03.487Z</time>
      </trkpt>
      <trkpt lat="46.91432" lon="8.57687">
        <ele>856</ele>
        <time>2021-08-10T12:29:04.486Z</time>
      </trkpt>
      <trkpt lat="46.91432" lon="8.57687">
        <ele>855</ele>
        <time>2021-08-10T12:29:05.487Z</time>
      </trkpt>
      <trkpt lat="46.91431" lon="8.57686">
        <ele>855</ele>
        <time>2021-08-10T12:29:17.513Z</time>
      </trkpt>
      <trkpt lat="46.9143" lon="8.57686">
        <ele>854</ele>
        <time>2021-08-10T12:29:18.514Z</time>
      </trkpt>
      <trkpt lat="46.9143" lon="8.57685">
        <ele>854</ele>
        <time>2021-08-10T12:29:19.514Z</time>
      </trkpt>
      <trkpt lat="46.9143" lon="8.57685">
        <ele>853</ele>
        <time>2021-08-10T12:29:20.514Z</time>
      </trkpt>
      <trkpt lat="46.9143" lon="8.57685">
        <ele>853</ele>
        <time>2021-08-10T12:29:21.514Z</time>
      </trkpt>
      <trkpt lat="46.9143" lon="8.57684">
        <ele>853</ele>
        <time>2021-08-10T12:29:22.514Z</time>
      </trkpt>
      <trkpt lat="46.91429" lon="8.57683">
        <ele>852</ele>
        <time>2021-08-10T12:29:24.446Z</time>
      </trkpt>
      <trkpt lat="46.91428" lon="8.57682">
        <ele>851</ele>
        <time>2021-08-10T12:29:25.445Z</time>
      </trkpt>
      <trkpt lat="46.91428" lon="8.57682">
        <ele>851</ele>
        <time>2021-08-10T12:29:57.242Z</time>
      </trkpt>
      <trkpt lat="46.91428" lon="8.57682">
        <ele>851</ele>
        <time>2021-08-10T12:29:58.242Z</time>
      </trkpt>
      <trkpt lat="46.91427" lon="8.57682">
        <ele>850</ele>
        <time>2021-08-10T12:29:59.243Z</time>
      </trkpt>
      <trkpt lat="46.91426" lon="8.57683">
        <ele>850</ele>
        <time>2021-08-10T12:30:00.243Z</time>
      </trkpt>
      <trkpt lat="46.91426" lon="8.57682">
        <ele>850</ele>
        <time>2021-08-10T12:30:09.268Z</time>
      </trkpt>
      <trkpt lat="46.91426" lon="8.57681">
        <ele>849</ele>
        <time>2021-08-10T12:30:10.268Z</time>
      </trkpt>
      <trkpt lat="46.91425" lon="8.57681">
        <ele>849</ele>
        <time>2021-08-10T12:30:11.268Z</time>
      </trkpt>
      <trkpt lat="46.91425" lon="8.57681">
        <ele>849</ele>
        <time>2021-08-10T12:30:12.268Z</time>
      </trkpt>
      <trkpt lat="46.91425" lon="8.5768">
        <ele>849</ele>
        <time>2021-08-10T12:30:13.268Z</time>
      </trkpt>
      <trkpt lat="46.91424" lon="8.57679">
        <ele>848</ele>
        <time>2021-08-10T12:30:14.270Z</time>
      </trkpt>
      <trkpt lat="46.91424" lon="8.57678">
        <ele>848</ele>
        <time>2021-08-10T12:30:15.270Z</time>
      </trkpt>
      <trkpt lat="46.91423" lon="8.57678">
        <ele>848</ele>
        <time>2021-08-10T12:30:16.269Z</time>
      </trkpt>
      <trkpt lat="46.91423" lon="8.57678">
        <ele>848</ele>
        <time>2021-08-10T12:30:17.269Z</time>
      </trkpt>
      <trkpt lat="46.91422" lon="8.57676">
        <ele>849</ele>
        <time>2021-08-10T12:30:18.269Z</time>
      </trkpt>
      <trkpt lat="46.91421" lon="8.57675">
        <ele>849</ele>
        <time>2021-08-10T12:30:19.270Z</time>
      </trkpt>
      <trkpt lat="46.9142" lon="8.57673">
        <ele>849</ele>
        <time>2021-08-10T12:30:25.373Z</time>
      </trkpt>
      <trkpt lat="46.91419" lon="8.57671">
        <ele>850</ele>
        <time>2021-08-10T12:30:26.372Z</time>
      </trkpt>
      <trkpt lat="46.91418" lon="8.57669">
        <ele>850</ele>
        <time>2021-08-10T12:30:27.373Z</time>
      </trkpt>
      <trkpt lat="46.91417" lon="8.57667">
        <ele>850</ele>
        <time>2021-08-10T12:30:28.373Z</time>
      </trkpt>
      <trkpt lat="46.91418" lon="8.57666">
        <ele>851</ele>
        <time>2021-08-10T12:30:29.373Z</time>
      </trkpt>
      <trkpt lat="46.91419" lon="8.57665">
        <ele>851</ele>
        <time>2021-08-10T12:30:30.372Z</time>
      </trkpt>
      <trkpt lat="46.91419" lon="8.57664">
        <ele>851</ele>
        <time>2021-08-10T12:30:31.373Z</time>
      </trkpt>
      <trkpt lat="46.91419" lon="8.57662">
        <ele>852</ele>
        <time>2021-08-10T12:30:32.373Z</time>
      </trkpt>
      <trkpt lat="46.91419" lon="8.5766">
        <ele>852</ele>
        <time>2021-08-10T12:30:33.372Z</time>
      </trkpt>
      <trkpt lat="46.91418" lon="8.57659">
        <ele>852</ele>
        <time>2021-08-10T12:30:34.373Z</time>
      </trkpt>
      <trkpt lat="46.91417" lon="8.57659">
        <ele>852</ele>
        <time>2021-08-10T12:30:35.372Z</time>
      </trkpt>
      <trkpt lat="46.91416" lon="8.57659">
        <ele>852</ele>
        <time>2021-08-10T12:30:36.372Z</time>
      </trkpt>
      <trkpt lat="46.91416" lon="8.57658">
        <ele>851</ele>
        <time>2021-08-10T12:30:37.372Z</time>
      </trkpt>
      <trkpt lat="46.91416" lon="8.57658">
        <ele>852</ele>
        <time>2021-08-10T12:30:38.372Z</time>
      </trkpt>
      <trkpt lat="46.91415" lon="8.57658">
        <ele>852</ele>
        <time>2021-08-10T12:30:39.373Z</time>
      </trkpt>
      <trkpt lat="46.91415" lon="8.57657">
        <ele>852</ele>
        <time>2021-08-10T12:30:40.372Z</time>
      </trkpt>
      <trkpt lat="46.91415" lon="8.57656">
        <ele>852</ele>
        <time>2021-08-10T12:30:41.372Z</time>
      </trkpt>
      <trkpt lat="46.91414" lon="8.57656">
        <ele>852</ele>
        <time>2021-08-10T12:30:42.372Z</time>
      </trkpt>
      <trkpt lat="46.91414" lon="8.57655">
        <ele>852</ele>
        <time>2021-08-10T12:30:43.372Z</time>
      </trkpt>
      <trkpt lat="46.91414" lon="8.57654">
        <ele>852</ele>
        <time>2021-08-10T12:30:44.372Z</time>
      </trkpt>
      <trkpt lat="46.91414" lon="8.57653">
        <ele>852</ele>
        <time>2021-08-10T12:30:45.372Z</time>
      </trkpt>
      <trkpt lat="46.91415" lon="8.57653">
        <ele>852</ele>
        <time>2021-08-10T12:30:46.372Z</time>
      </trkpt>
      <trkpt lat="46.91415" lon="8.57653">
        <ele>851</ele>
        <time>2021-08-10T12:30:47.372Z</time>
      </trkpt>
      <trkpt lat="46.91415" lon="8.57652">
        <ele>851</ele>
        <time>2021-08-10T12:30:48.372Z</time>
      </trkpt>
      <trkpt lat="46.91414" lon="8.57651">
        <ele>851</ele>
        <time>2021-08-10T12:30:49.372Z</time>
      </trkpt>
      <trkpt lat="46.91413" lon="8.5765">
        <ele>851</ele>
        <time>2021-08-10T12:30:50.372Z</time>
      </trkpt>
      <trkpt lat="46.91412" lon="8.57648">
        <ele>851</ele>
        <time>2021-08-10T12:30:51.372Z</time>
      </trkpt>
      <trkpt lat="46.91411" lon="8.57647">
        <ele>851</ele>
        <time>2021-08-10T12:30:52.372Z</time>
      </trkpt>
      <trkpt lat="46.91411" lon="8.57647">
        <ele>851</ele>
        <time>2021-08-10T12:30:53.372Z</time>
      </trkpt>
      <trkpt lat="46.91411" lon="8.57646">
        <ele>851</ele>
        <time>2021-08-10T12:30:54.372Z</time>
      </trkpt>
      <trkpt lat="46.91411" lon="8.57646">
        <ele>851</ele>
        <time>2021-08-10T12:30:55.372Z</time>
      </trkpt>
      <trkpt lat="46.9141" lon="8.57645">
        <ele>851</ele>
        <time>2021-08-10T12:30:56.372Z</time>
      </trkpt>
      <trkpt lat="46.91409" lon="8.57639">
        <ele>850</ele>
        <time>2021-08-10T12:30:57.374Z</time>
      </trkpt>
      <trkpt lat="46.91409" lon="8.57638">
        <ele>850</ele>
        <time>2021-08-10T12:30:58.374Z</time>
      </trkpt>
      <trkpt lat="46.91408" lon="8.57636">
        <ele>849</ele>
        <time>2021-08-10T12:30:59.373Z</time>
      </trkpt>
      <trkpt lat="46.91408" lon="8.57635">
        <ele>849</ele>
        <time>2021-08-10T12:31:00.373Z</time>
      </trkpt>
      <trkpt lat="46.91408" lon="8.57633">
        <ele>849</ele>
        <time>2021-08-10T12:31:01.373Z</time>
      </trkpt>
      <trkpt lat="46.91408" lon="8.57633">
        <ele>848</ele>
        <time>2021-08-10T12:31:02.373Z</time>
      </trkpt>
      <trkpt lat="46.91408" lon="8.57632">
        <ele>848</ele>
        <time>2021-08-10T12:31:03.374Z</time>
      </trkpt>
      <trkpt lat="46.91408" lon="8.57631">
        <ele>848</ele>
        <time>2021-08-10T12:31:04.374Z</time>
      </trkpt>
      <trkpt lat="46.91408" lon="8.5763">
        <ele>847</ele>
        <time>2021-08-10T12:31:05.374Z</time>
      </trkpt>
      <trkpt lat="46.91408" lon="8.57628">
        <ele>847</ele>
        <time>2021-08-10T12:31:06.373Z</time>
      </trkpt>
      <trkpt lat="46.91408" lon="8.57626">
        <ele>847</ele>
        <time>2021-08-10T12:31:07.373Z</time>
      </trkpt>
      <trkpt lat="46.91408" lon="8.57626">
        <ele>847</ele>
        <time>2021-08-10T12:31:08.373Z</time>
      </trkpt>
      <trkpt lat="46.91407" lon="8.57626">
        <ele>847</ele>
        <time>2021-08-10T12:31:09.373Z</time>
      </trkpt>
      <trkpt lat="46.91407" lon="8.57626">
        <ele>847</ele>
        <time>2021-08-10T12:31:10.373Z</time>
      </trkpt>
      <trkpt lat="46.91406" lon="8.57625">
        <ele>847</ele>
        <time>2021-08-10T12:31:11.373Z</time>
      </trkpt>
      <trkpt lat="46.91406" lon="8.57624">
        <ele>847</ele>
        <time>2021-08-10T12:31:12.373Z</time>
      </trkpt>
      <trkpt lat="46.91406" lon="8.57623">
        <ele>847</ele>
        <time>2021-08-10T12:31:13.373Z</time>
      </trkpt>
      <trkpt lat="46.91406" lon="8.57623">
        <ele>847</ele>
        <time>2021-08-10T12:31:14.374Z</time>
      </trkpt>
      <trkpt lat="46.91406" lon="8.57623">
        <ele>847</ele>
        <time>2021-08-10T12:31:15.374Z</time>
      </trkpt>
      <trkpt lat="46.91406" lon="8.57622">
        <ele>847</ele>
        <time>2021-08-10T12:31:16.374Z</time>
      </trkpt>
      <trkpt lat="46.91404" lon="8.5762">
        <ele>847</ele>
        <time>2021-08-10T12:31:17.374Z</time>
      </trkpt>
      <trkpt lat="46.91404" lon="8.5762">
        <ele>846</ele>
        <time>2021-08-10T12:31:18.374Z</time>
      </trkpt>
      <trkpt lat="46.91403" lon="8.57619">
        <ele>846</ele>
        <time>2021-08-10T12:31:19.374Z</time>
      </trkpt>
      <trkpt lat="46.91405" lon="8.57618">
        <ele>846</ele>
        <time>2021-08-10T12:31:20.375Z</time>
      </trkpt>
      <trkpt lat="46.91405" lon="8.57617">
        <ele>846</ele>
        <time>2021-08-10T12:31:21.375Z</time>
      </trkpt>
      <trkpt lat="46.91405" lon="8.57616">
        <ele>846</ele>
        <time>2021-08-10T12:31:22.375Z</time>
      </trkpt>
      <trkpt lat="46.91405" lon="8.57616">
        <ele>845</ele>
        <time>2021-08-10T12:31:23.375Z</time>
      </trkpt>
      <trkpt lat="46.91404" lon="8.57607">
        <ele>844</ele>
        <time>2021-08-10T12:31:24.376Z</time>
      </trkpt>
      <trkpt lat="46.91404" lon="8.57607">
        <ele>844</ele>
        <time>2021-08-10T12:31:25.375Z</time>
      </trkpt>
      <trkpt lat="46.91403" lon="8.57606">
        <ele>845</ele>
        <time>2021-08-10T12:31:26.375Z</time>
      </trkpt>
      <trkpt lat="46.91403" lon="8.57605">
        <ele>845</ele>
        <time>2021-08-10T12:31:27.375Z</time>
      </trkpt>
      <trkpt lat="46.91402" lon="8.57603">
        <ele>845</ele>
        <time>2021-08-10T12:31:28.375Z</time>
      </trkpt>
      <trkpt lat="46.91402" lon="8.57602">
        <ele>845</ele>
        <time>2021-08-10T12:31:29.375Z</time>
      </trkpt>
      <trkpt lat="46.91401" lon="8.57602">
        <ele>846</ele>
        <time>2021-08-10T12:31:30.376Z</time>
      </trkpt>
      <trkpt lat="46.91401" lon="8.57601">
        <ele>846</ele>
        <time>2021-08-10T12:31:31.376Z</time>
      </trkpt>
      <trkpt lat="46.91401" lon="8.576">
        <ele>846</ele>
        <time>2021-08-10T12:31:32.376Z</time>
      </trkpt>
      <trkpt lat="46.91401" lon="8.57599">
        <ele>846</ele>
        <time>2021-08-10T12:31:33.376Z</time>
      </trkpt>
      <trkpt lat="46.91401" lon="8.57598">
        <ele>846</ele>
        <time>2021-08-10T12:31:34.376Z</time>
      </trkpt>
      <trkpt lat="46.91401" lon="8.57597">
        <ele>846</ele>
        <time>2021-08-10T12:31:35.376Z</time>
      </trkpt>
      <trkpt lat="46.91401" lon="8.57596">
        <ele>846</ele>
        <time>2021-08-10T12:31:36.375Z</time>
      </trkpt>
      <trkpt lat="46.914" lon="8.57595">
        <ele>847</ele>
        <time>2021-08-10T12:31:37.376Z</time>
      </trkpt>
      <trkpt lat="46.914" lon="8.57594">
        <ele>847</ele>
        <time>2021-08-10T12:31:38.376Z</time>
      </trkpt>
      <trkpt lat="46.914" lon="8.57594">
        <ele>847</ele>
        <time>2021-08-10T12:31:39.376Z</time>
      </trkpt>
      <trkpt lat="46.914" lon="8.57594">
        <ele>848</ele>
        <time>2021-08-10T12:31:40.377Z</time>
      </trkpt>
      <trkpt lat="46.91399" lon="8.57593">
        <ele>848</ele>
        <time>2021-08-10T12:31:41.377Z</time>
      </trkpt>
      <trkpt lat="46.91399" lon="8.57592">
        <ele>848</ele>
        <time>2021-08-10T12:31:42.376Z</time>
      </trkpt>
      <trkpt lat="46.91398" lon="8.57591">
        <ele>848</ele>
        <time>2021-08-10T12:31:43.377Z</time>
      </trkpt>
      <trkpt lat="46.91398" lon="8.5759">
        <ele>848</ele>
        <time>2021-08-10T12:31:44.377Z</time>
      </trkpt>
      <trkpt lat="46.91398" lon="8.57589">
        <ele>847</ele>
        <time>2021-08-10T12:31:45.376Z</time>
      </trkpt>
      <trkpt lat="46.91397" lon="8.57588">
        <ele>847</ele>
        <time>2021-08-10T12:31:46.377Z</time>
      </trkpt>
      <trkpt lat="46.91396" lon="8.57588">
        <ele>847</ele>
        <time>2021-08-10T12:31:47.377Z</time>
      </trkpt>
      <trkpt lat="46.91395" lon="8.57587">
        <ele>847</ele>
        <time>2021-08-10T12:31:50.482Z</time>
      </trkpt>
      <trkpt lat="46.91395" lon="8.57587">
        <ele>847</ele>
        <time>2021-08-10T12:31:51.482Z</time>
      </trkpt>
      <trkpt lat="46.91395" lon="8.57587">
        <ele>847</ele>
        <time>2021-08-10T12:31:52.482Z</time>
      </trkpt>
      <trkpt lat="46.91395" lon="8.57587">
        <ele>847</ele>
        <time>2021-08-10T12:31:53.483Z</time>
      </trkpt>
      <trkpt lat="46.91394" lon="8.57586">
        <ele>847</ele>
        <time>2021-08-10T12:31:54.482Z</time>
      </trkpt>
      <trkpt lat="46.91394" lon="8.57586">
        <ele>847</ele>
        <time>2021-08-10T12:31:55.482Z</time>
      </trkpt>
      <trkpt lat="46.91394" lon="8.57584">
        <ele>847</ele>
        <time>2021-08-10T12:31:56.482Z</time>
      </trkpt>
      <trkpt lat="46.91394" lon="8.57584">
        <ele>847</ele>
        <time>2021-08-10T12:31:57.483Z</time>
      </trkpt>
      <trkpt lat="46.91393" lon="8.57584">
        <ele>847</ele>
        <time>2021-08-10T12:31:58.482Z</time>
      </trkpt>
      <trkpt lat="46.91393" lon="8.57583">
        <ele>848</ele>
        <time>2021-08-10T12:31:59.482Z</time>
      </trkpt>
      <trkpt lat="46.91392" lon="8.57582">
        <ele>848</ele>
        <time>2021-08-10T12:32:00.482Z</time>
      </trkpt>
      <trkpt lat="46.91392" lon="8.57582">
        <ele>848</ele>
        <time>2021-08-10T12:32:01.483Z</time>
      </trkpt>
      <trkpt lat="46.9139" lon="8.5758">
        <ele>848</ele>
        <time>2021-08-10T12:32:02.482Z</time>
      </trkpt>
      <trkpt lat="46.91388" lon="8.57578">
        <ele>848</ele>
        <time>2021-08-10T12:32:03.483Z</time>
      </trkpt>
      <trkpt lat="46.91387" lon="8.57577">
        <ele>849</ele>
        <time>2021-08-10T12:32:04.482Z</time>
      </trkpt>
      <trkpt lat="46.91386" lon="8.57576">
        <ele>849</ele>
        <time>2021-08-10T12:32:05.483Z</time>
      </trkpt>
      <trkpt lat="46.91386" lon="8.57575">
        <ele>849</ele>
        <time>2021-08-10T12:32:06.483Z</time>
      </trkpt>
      <trkpt lat="46.91385" lon="8.57573">
        <ele>850</ele>
        <time>2021-08-10T12:32:07.483Z</time>
      </trkpt>
      <trkpt lat="46.91385" lon="8.57573">
        <ele>851</ele>
        <time>2021-08-10T12:32:08.484Z</time>
      </trkpt>
      <trkpt lat="46.91385" lon="8.57572">
        <ele>851</ele>
        <time>2021-08-10T12:32:09.483Z</time>
      </trkpt>
      <trkpt lat="46.91385" lon="8.57571">
        <ele>851</ele>
        <time>2021-08-10T12:32:10.484Z</time>
      </trkpt>
      <trkpt lat="46.91384" lon="8.57571">
        <ele>852</ele>
        <time>2021-08-10T12:32:11.484Z</time>
      </trkpt>
      <trkpt lat="46.91386" lon="8.57571">
        <ele>852</ele>
        <time>2021-08-10T12:32:12.484Z</time>
      </trkpt>
      <trkpt lat="46.91386" lon="8.5757">
        <ele>852</ele>
        <time>2021-08-10T12:32:13.483Z</time>
      </trkpt>
      <trkpt lat="46.91387" lon="8.57569">
        <ele>852</ele>
        <time>2021-08-10T12:32:14.484Z</time>
      </trkpt>
      <trkpt lat="46.91387" lon="8.57569">
        <ele>853</ele>
        <time>2021-08-10T12:32:15.484Z</time>
      </trkpt>
      <trkpt lat="46.91387" lon="8.57567">
        <ele>853</ele>
        <time>2021-08-10T12:32:16.484Z</time>
      </trkpt>
      <trkpt lat="46.91386" lon="8.57568">
        <ele>853</ele>
        <time>2021-08-10T12:32:17.484Z</time>
      </trkpt>
      <trkpt lat="46.91384" lon="8.57567">
        <ele>853</ele>
        <time>2021-08-10T12:32:18.484Z</time>
      </trkpt>
      <trkpt lat="46.91383" lon="8.57567">
        <ele>853</ele>
        <time>2021-08-10T12:32:19.484Z</time>
      </trkpt>
      <trkpt lat="46.91383" lon="8.57566">
        <ele>853</ele>
        <time>2021-08-10T12:32:20.484Z</time>
      </trkpt>
      <trkpt lat="46.91384" lon="8.57567">
        <ele>853</ele>
        <time>2021-08-10T12:32:21.484Z</time>
      </trkpt>
      <trkpt lat="46.91384" lon="8.57568">
        <ele>853</ele>
        <time>2021-08-10T12:32:22.484Z</time>
      </trkpt>
      <trkpt lat="46.91385" lon="8.57568">
        <ele>853</ele>
        <time>2021-08-10T12:32:23.483Z</time>
      </trkpt>
      <trkpt lat="46.91386" lon="8.57567">
        <ele>853</ele>
        <time>2021-08-10T12:32:24.483Z</time>
      </trkpt>
      <trkpt lat="46.91386" lon="8.57567">
        <ele>853</ele>
        <time>2021-08-10T12:32:25.483Z</time>
      </trkpt>
      <trkpt lat="46.91385" lon="8.57567">
        <ele>853</ele>
        <time>2021-08-10T12:32:26.483Z</time>
      </trkpt>
      <trkpt lat="46.91385" lon="8.57566">
        <ele>852</ele>
        <time>2021-08-10T12:32:27.484Z</time>
      </trkpt>
      <trkpt lat="46.91384" lon="8.57564">
        <ele>852</ele>
        <time>2021-08-10T12:32:28.483Z</time>
      </trkpt>
      <trkpt lat="46.91383" lon="8.57563">
        <ele>851</ele>
        <time>2021-08-10T12:32:29.483Z</time>
      </trkpt>
      <trkpt lat="46.91382" lon="8.57562">
        <ele>851</ele>
        <time>2021-08-10T12:32:30.483Z</time>
      </trkpt>
      <trkpt lat="46.91381" lon="8.57561">
        <ele>850</ele>
        <time>2021-08-10T12:32:31.483Z</time>
      </trkpt>
      <trkpt lat="46.91379" lon="8.57562">
        <ele>849</ele>
        <time>2021-08-10T12:32:32.483Z</time>
      </trkpt>
      <trkpt lat="46.91379" lon="8.57562">
        <ele>849</ele>
        <time>2021-08-10T12:32:33.484Z</time>
      </trkpt>
      <trkpt lat="46.91379" lon="8.57562">
        <ele>848</ele>
        <time>2021-08-10T12:32:34.483Z</time>
      </trkpt>
      <trkpt lat="46.91379" lon="8.57561">
        <ele>848</ele>
        <time>2021-08-10T12:32:35.484Z</time>
      </trkpt>
      <trkpt lat="46.91378" lon="8.57561">
        <ele>848</ele>
        <time>2021-08-10T12:32:36.483Z</time>
      </trkpt>
      <trkpt lat="46.91378" lon="8.57562">
        <ele>847</ele>
        <time>2021-08-10T12:32:37.484Z</time>
      </trkpt>
      <trkpt lat="46.91377" lon="8.57562">
        <ele>847</ele>
        <time>2021-08-10T12:32:38.484Z</time>
      </trkpt>
      <trkpt lat="46.91377" lon="8.57562">
        <ele>846</ele>
        <time>2021-08-10T12:32:39.483Z</time>
      </trkpt>
      <trkpt lat="46.91377" lon="8.57562">
        <ele>846</ele>
        <time>2021-08-10T12:32:40.483Z</time>
      </trkpt>
      <trkpt lat="46.91375" lon="8.57561">
        <ele>845</ele>
        <time>2021-08-10T12:32:41.484Z</time>
      </trkpt>
      <trkpt lat="46.91374" lon="8.57561">
        <ele>844</ele>
        <time>2021-08-10T12:32:42.484Z</time>
      </trkpt>
      <trkpt lat="46.91374" lon="8.5756">
        <ele>844</ele>
        <time>2021-08-10T12:32:43.483Z</time>
      </trkpt>
      <trkpt lat="46.91374" lon="8.57559">
        <ele>844</ele>
        <time>2021-08-10T12:32:44.484Z</time>
      </trkpt>
      <trkpt lat="46.91373" lon="8.57558">
        <ele>844</ele>
        <time>2021-08-10T12:32:45.484Z</time>
      </trkpt>
      <trkpt lat="46.91373" lon="8.57556">
        <ele>843</ele>
        <time>2021-08-10T12:32:46.483Z</time>
      </trkpt>
      <trkpt lat="46.91373" lon="8.57554">
        <ele>843</ele>
        <time>2021-08-10T12:32:47.483Z</time>
      </trkpt>
      <trkpt lat="46.91372" lon="8.57551">
        <ele>842</ele>
        <time>2021-08-10T12:32:48.484Z</time>
      </trkpt>
      <trkpt lat="46.91372" lon="8.57549">
        <ele>842</ele>
        <time>2021-08-10T12:32:49.483Z</time>
      </trkpt>
      <trkpt lat="46.91372" lon="8.57548">
        <ele>842</ele>
        <time>2021-08-10T12:32:50.483Z</time>
      </trkpt>
      <trkpt lat="46.91372" lon="8.57547">
        <ele>842</ele>
        <time>2021-08-10T12:32:51.483Z</time>
      </trkpt>
      <trkpt lat="46.91373" lon="8.57546">
        <ele>842</ele>
        <time>2021-08-10T12:32:52.484Z</time>
      </trkpt>
      <trkpt lat="46.91372" lon="8.57545">
        <ele>842</ele>
        <time>2021-08-10T12:32:53.483Z</time>
      </trkpt>
      <trkpt lat="46.91372" lon="8.57544">
        <ele>842</ele>
        <time>2021-08-10T12:32:54.483Z</time>
      </trkpt>
      <trkpt lat="46.91371" lon="8.57543">
        <ele>841</ele>
        <time>2021-08-10T12:32:55.483Z</time>
      </trkpt>
      <trkpt lat="46.9137" lon="8.57541">
        <ele>841</ele>
        <time>2021-08-10T12:32:56.483Z</time>
      </trkpt>
      <trkpt lat="46.91369" lon="8.5754">
        <ele>840</ele>
        <time>2021-08-10T12:32:57.484Z</time>
      </trkpt>
      <trkpt lat="46.91369" lon="8.5754">
        <ele>840</ele>
        <time>2021-08-10T12:32:58.483Z</time>
      </trkpt>
      <trkpt lat="46.91369" lon="8.57539">
        <ele>840</ele>
        <time>2021-08-10T12:32:59.484Z</time>
      </trkpt>
      <trkpt lat="46.91368" lon="8.57538">
        <ele>840</ele>
        <time>2021-08-10T12:33:00.484Z</time>
      </trkpt>
      <trkpt lat="46.91368" lon="8.57537">
        <ele>840</ele>
        <time>2021-08-10T12:33:01.484Z</time>
      </trkpt>
      <trkpt lat="46.91368" lon="8.57537">
        <ele>840</ele>
        <time>2021-08-10T12:33:02.483Z</time>
      </trkpt>
      <trkpt lat="46.91368" lon="8.57537">
        <ele>839</ele>
        <time>2021-08-10T12:33:03.483Z</time>
      </trkpt>
      <trkpt lat="46.91368" lon="8.57536">
        <ele>839</ele>
        <time>2021-08-10T12:33:04.485Z</time>
      </trkpt>
      <trkpt lat="46.91368" lon="8.57536">
        <ele>839</ele>
        <time>2021-08-10T12:33:05.484Z</time>
      </trkpt>
      <trkpt lat="46.91368" lon="8.57537">
        <ele>839</ele>
        <time>2021-08-10T12:33:06.484Z</time>
      </trkpt>
      <trkpt lat="46.91368" lon="8.57536">
        <ele>839</ele>
        <time>2021-08-10T12:33:07.485Z</time>
      </trkpt>
      <trkpt lat="46.91368" lon="8.57536">
        <ele>839</ele>
        <time>2021-08-10T12:33:08.485Z</time>
      </trkpt>
      <trkpt lat="46.91368" lon="8.57536">
        <ele>839</ele>
        <time>2021-08-10T12:33:09.485Z</time>
      </trkpt>
      <trkpt lat="46.91371" lon="8.57536">
        <ele>837</ele>
        <time>2021-08-10T12:33:10.485Z</time>
      </trkpt>
      <trkpt lat="46.91371" lon="8.57536">
        <ele>837</ele>
        <time>2021-08-10T12:33:11.485Z</time>
      </trkpt>
      <trkpt lat="46.9137" lon="8.57535">
        <ele>836</ele>
        <time>2021-08-10T12:33:12.484Z</time>
      </trkpt>
      <trkpt lat="46.91369" lon="8.57534">
        <ele>835</ele>
        <time>2021-08-10T12:33:13.484Z</time>
      </trkpt>
      <trkpt lat="46.91369" lon="8.57534">
        <ele>834</ele>
        <time>2021-08-10T12:33:14.484Z</time>
      </trkpt>
      <trkpt lat="46.91369" lon="8.57533">
        <ele>834</ele>
        <time>2021-08-10T12:33:15.484Z</time>
      </trkpt>
      <trkpt lat="46.91368" lon="8.57532">
        <ele>833</ele>
        <time>2021-08-10T12:33:16.485Z</time>
      </trkpt>
      <trkpt lat="46.91368" lon="8.57532">
        <ele>833</ele>
        <time>2021-08-10T12:33:17.485Z</time>
      </trkpt>
      <trkpt lat="46.91368" lon="8.57531">
        <ele>832</ele>
        <time>2021-08-10T12:33:18.484Z</time>
      </trkpt>
      <trkpt lat="46.91368" lon="8.57531">
        <ele>832</ele>
        <time>2021-08-10T12:33:19.484Z</time>
      </trkpt>
      <trkpt lat="46.91367" lon="8.57531">
        <ele>831</ele>
        <time>2021-08-10T12:33:20.484Z</time>
      </trkpt>
      <trkpt lat="46.91367" lon="8.5753">
        <ele>831</ele>
        <time>2021-08-10T12:33:21.484Z</time>
      </trkpt>
      <trkpt lat="46.91366" lon="8.57529">
        <ele>831</ele>
        <time>2021-08-10T12:33:22.484Z</time>
      </trkpt>
      <trkpt lat="46.91366" lon="8.57529">
        <ele>831</ele>
        <time>2021-08-10T12:33:23.484Z</time>
      </trkpt>
      <trkpt lat="46.91365" lon="8.57529">
        <ele>831</ele>
        <time>2021-08-10T12:33:24.484Z</time>
      </trkpt>
      <trkpt lat="46.91365" lon="8.57528">
        <ele>831</ele>
        <time>2021-08-10T12:33:25.484Z</time>
      </trkpt>
      <trkpt lat="46.91365" lon="8.57528">
        <ele>830</ele>
        <time>2021-08-10T12:33:26.485Z</time>
      </trkpt>
      <trkpt lat="46.91364" lon="8.57527">
        <ele>830</ele>
        <time>2021-08-10T12:33:27.484Z</time>
      </trkpt>
      <trkpt lat="46.91364" lon="8.57526">
        <ele>829</ele>
        <time>2021-08-10T12:33:28.484Z</time>
      </trkpt>
      <trkpt lat="46.91363" lon="8.57525">
        <ele>829</ele>
        <time>2021-08-10T12:33:29.485Z</time>
      </trkpt>
      <trkpt lat="46.91362" lon="8.57525">
        <ele>828</ele>
        <time>2021-08-10T12:33:30.484Z</time>
      </trkpt>
      <trkpt lat="46.91362" lon="8.57525">
        <ele>828</ele>
        <time>2021-08-10T12:33:31.484Z</time>
      </trkpt>
      <trkpt lat="46.91361" lon="8.57524">
        <ele>827</ele>
        <time>2021-08-10T12:33:32.484Z</time>
      </trkpt>
      <trkpt lat="46.91361" lon="8.57523">
        <ele>827</ele>
        <time>2021-08-10T12:33:33.485Z</time>
      </trkpt>
      <trkpt lat="46.91361" lon="8.57522">
        <ele>826</ele>
        <time>2021-08-10T12:33:34.484Z</time>
      </trkpt>
      <trkpt lat="46.91361" lon="8.57523">
        <ele>826</ele>
        <time>2021-08-10T12:33:35.484Z</time>
      </trkpt>
      <trkpt lat="46.91361" lon="8.57523">
        <ele>825</ele>
        <time>2021-08-10T12:33:36.484Z</time>
      </trkpt>
      <trkpt lat="46.91362" lon="8.57521">
        <ele>825</ele>
        <time>2021-08-10T12:33:37.485Z</time>
      </trkpt>
      <trkpt lat="46.91361" lon="8.57519">
        <ele>825</ele>
        <time>2021-08-10T12:33:38.484Z</time>
      </trkpt>
      <trkpt lat="46.91361" lon="8.57516">
        <ele>825</ele>
        <time>2021-08-10T12:33:39.484Z</time>
      </trkpt>
      <trkpt lat="46.9136" lon="8.57514">
        <ele>825</ele>
        <time>2021-08-10T12:33:40.484Z</time>
      </trkpt>
      <trkpt lat="46.91359" lon="8.57512">
        <ele>825</ele>
        <time>2021-08-10T12:33:41.485Z</time>
      </trkpt>
      <trkpt lat="46.91359" lon="8.57511">
        <ele>825</ele>
        <time>2021-08-10T12:33:42.485Z</time>
      </trkpt>
      <trkpt lat="46.91359" lon="8.5751">
        <ele>825</ele>
        <time>2021-08-10T12:33:43.484Z</time>
      </trkpt>
      <trkpt lat="46.91359" lon="8.5751">
        <ele>825</ele>
        <time>2021-08-10T12:33:44.484Z</time>
      </trkpt>
      <trkpt lat="46.91359" lon="8.57509">
        <ele>825</ele>
        <time>2021-08-10T12:33:46.606Z</time>
      </trkpt>
      <trkpt lat="46.91359" lon="8.57508">
        <ele>824</ele>
        <time>2021-08-10T12:33:47.606Z</time>
      </trkpt>
      <trkpt lat="46.91358" lon="8.57507">
        <ele>824</ele>
        <time>2021-08-10T12:33:48.605Z</time>
      </trkpt>
      <trkpt lat="46.91358" lon="8.57507">
        <ele>824</ele>
        <time>2021-08-10T12:33:49.605Z</time>
      </trkpt>
      <trkpt lat="46.91357" lon="8.57506">
        <ele>824</ele>
        <time>2021-08-10T12:33:50.605Z</time>
      </trkpt>
      <trkpt lat="46.91357" lon="8.57505">
        <ele>824</ele>
        <time>2021-08-10T12:33:51.605Z</time>
      </trkpt>
      <trkpt lat="46.91357" lon="8.57504">
        <ele>824</ele>
        <time>2021-08-10T12:33:52.605Z</time>
      </trkpt>
      <trkpt lat="46.91357" lon="8.57503">
        <ele>824</ele>
        <time>2021-08-10T12:33:53.605Z</time>
      </trkpt>
      <trkpt lat="46.91356" lon="8.57502">
        <ele>823</ele>
        <time>2021-08-10T12:33:54.606Z</time>
      </trkpt>
      <trkpt lat="46.91356" lon="8.57501">
        <ele>823</ele>
        <time>2021-08-10T12:33:55.605Z</time>
      </trkpt>
      <trkpt lat="46.91356" lon="8.57501">
        <ele>823</ele>
        <time>2021-08-10T12:33:56.605Z</time>
      </trkpt>
      <trkpt lat="46.91357" lon="8.575">
        <ele>822</ele>
        <time>2021-08-10T12:33:58.731Z</time>
      </trkpt>
      <trkpt lat="46.91358" lon="8.57497">
        <ele>822</ele>
        <time>2021-08-10T12:33:59.731Z</time>
      </trkpt>
      <trkpt lat="46.91357" lon="8.57494">
        <ele>821</ele>
        <time>2021-08-10T12:34:00.731Z</time>
      </trkpt>
      <trkpt lat="46.91357" lon="8.57493">
        <ele>820</ele>
        <time>2021-08-10T12:34:01.731Z</time>
      </trkpt>
      <trkpt lat="46.91356" lon="8.57492">
        <ele>820</ele>
        <time>2021-08-10T12:34:02.731Z</time>
      </trkpt>
      <trkpt lat="46.91356" lon="8.57491">
        <ele>819</ele>
        <time>2021-08-10T12:34:03.731Z</time>
      </trkpt>
      <trkpt lat="46.91356" lon="8.57491">
        <ele>819</ele>
        <time>2021-08-10T12:34:04.731Z</time>
      </trkpt>
      <trkpt lat="46.91356" lon="8.57491">
        <ele>819</ele>
        <time>2021-08-10T12:34:05.731Z</time>
      </trkpt>
      <trkpt lat="46.91356" lon="8.57492">
        <ele>818</ele>
        <time>2021-08-10T12:34:06.731Z</time>
      </trkpt>
      <trkpt lat="46.91357" lon="8.57492">
        <ele>818</ele>
        <time>2021-08-10T12:34:07.731Z</time>
      </trkpt>
      <trkpt lat="46.91357" lon="8.57492">
        <ele>818</ele>
        <time>2021-08-10T12:34:08.731Z</time>
      </trkpt>
      <trkpt lat="46.91351" lon="8.57485">
        <ele>815</ele>
        <time>2021-08-10T12:34:09.733Z</time>
      </trkpt>
      <trkpt lat="46.91349" lon="8.57483">
        <ele>815</ele>
        <time>2021-08-10T12:34:10.734Z</time>
      </trkpt>
      <trkpt lat="46.91347" lon="8.57482">
        <ele>814</ele>
        <time>2021-08-10T12:34:11.733Z</time>
      </trkpt>
      <trkpt lat="46.91344" lon="8.57482">
        <ele>812</ele>
        <time>2021-08-10T12:34:12.734Z</time>
      </trkpt>
      <trkpt lat="46.91343" lon="8.57483">
        <ele>812</ele>
        <time>2021-08-10T12:34:13.733Z</time>
      </trkpt>
      <trkpt lat="46.91343" lon="8.57483">
        <ele>811</ele>
        <time>2021-08-10T12:34:14.734Z</time>
      </trkpt>
      <trkpt lat="46.91342" lon="8.57483">
        <ele>810</ele>
        <time>2021-08-10T12:34:15.733Z</time>
      </trkpt>
      <trkpt lat="46.91342" lon="8.57483">
        <ele>809</ele>
        <time>2021-08-10T12:34:16.733Z</time>
      </trkpt>
      <trkpt lat="46.91342" lon="8.57483">
        <ele>809</ele>
        <time>2021-08-10T12:34:17.733Z</time>
      </trkpt>
      <trkpt lat="46.91341" lon="8.57482">
        <ele>808</ele>
        <time>2021-08-10T12:34:18.733Z</time>
      </trkpt>
      <trkpt lat="46.91341" lon="8.57481">
        <ele>807</ele>
        <time>2021-08-10T12:34:19.733Z</time>
      </trkpt>
      <trkpt lat="46.9134" lon="8.5748">
        <ele>807</ele>
        <time>2021-08-10T12:34:20.733Z</time>
      </trkpt>
      <trkpt lat="46.91339" lon="8.57479">
        <ele>806</ele>
        <time>2021-08-10T12:34:21.734Z</time>
      </trkpt>
      <trkpt lat="46.91339" lon="8.57479">
        <ele>806</ele>
        <time>2021-08-10T12:34:22.733Z</time>
      </trkpt>
      <trkpt lat="46.91339" lon="8.57479">
        <ele>806</ele>
        <time>2021-08-10T12:34:23.733Z</time>
      </trkpt>
      <trkpt lat="46.91338" lon="8.57478">
        <ele>806</ele>
        <time>2021-08-10T12:34:24.734Z</time>
      </trkpt>
      <trkpt lat="46.91338" lon="8.57478">
        <ele>806</ele>
        <time>2021-08-10T12:34:25.733Z</time>
      </trkpt>
      <trkpt lat="46.91338" lon="8.57477">
        <ele>806</ele>
        <time>2021-08-10T12:34:26.733Z</time>
      </trkpt>
      <trkpt lat="46.91338" lon="8.57477">
        <ele>806</ele>
        <time>2021-08-10T12:34:27.733Z</time>
      </trkpt>
      <trkpt lat="46.91338" lon="8.57477">
        <ele>806</ele>
        <time>2021-08-10T12:34:28.733Z</time>
      </trkpt>
      <trkpt lat="46.91338" lon="8.57478">
        <ele>806</ele>
        <time>2021-08-10T12:34:29.733Z</time>
      </trkpt>
      <trkpt lat="46.91337" lon="8.57477">
        <ele>806</ele>
        <time>2021-08-10T12:34:30.733Z</time>
      </trkpt>
      <trkpt lat="46.91336" lon="8.57477">
        <ele>806</ele>
        <time>2021-08-10T12:34:31.733Z</time>
      </trkpt>
      <trkpt lat="46.91335" lon="8.57476">
        <ele>806</ele>
        <time>2021-08-10T12:34:32.733Z</time>
      </trkpt>
      <trkpt lat="46.91335" lon="8.57474">
        <ele>805</ele>
        <time>2021-08-10T12:34:33.733Z</time>
      </trkpt>
      <trkpt lat="46.91335" lon="8.57473">
        <ele>805</ele>
        <time>2021-08-10T12:34:34.734Z</time>
      </trkpt>
      <trkpt lat="46.91335" lon="8.57472">
        <ele>804</ele>
        <time>2021-08-10T12:34:35.733Z</time>
      </trkpt>
      <trkpt lat="46.91335" lon="8.57471">
        <ele>804</ele>
        <time>2021-08-10T12:34:36.733Z</time>
      </trkpt>
      <trkpt lat="46.91335" lon="8.5747">
        <ele>803</ele>
        <time>2021-08-10T12:34:38.754Z</time>
      </trkpt>
      <trkpt lat="46.91335" lon="8.5747">
        <ele>803</ele>
        <time>2021-08-10T12:34:39.754Z</time>
      </trkpt>
      <trkpt lat="46.91335" lon="8.5747">
        <ele>803</ele>
        <time>2021-08-10T12:34:40.754Z</time>
      </trkpt>
      <trkpt lat="46.91335" lon="8.57469">
        <ele>803</ele>
        <time>2021-08-10T12:34:41.754Z</time>
      </trkpt>
      <trkpt lat="46.91336" lon="8.57469">
        <ele>802</ele>
        <time>2021-08-10T12:34:42.754Z</time>
      </trkpt>
      <trkpt lat="46.91336" lon="8.57469">
        <ele>802</ele>
        <time>2021-08-10T12:34:43.754Z</time>
      </trkpt>
      <trkpt lat="46.91336" lon="8.57469">
        <ele>802</ele>
        <time>2021-08-10T12:34:44.754Z</time>
      </trkpt>
      <trkpt lat="46.91336" lon="8.57468">
        <ele>802</ele>
        <time>2021-08-10T12:34:45.756Z</time>
      </trkpt>
      <trkpt lat="46.91336" lon="8.57468">
        <ele>794</ele>
        <time>2021-08-10T12:34:46.756Z</time>
      </trkpt>
      <trkpt lat="46.91336" lon="8.57468">
        <ele>795</ele>
        <time>2021-08-10T12:34:47.756Z</time>
      </trkpt>
      <trkpt lat="46.91336" lon="8.57468">
        <ele>795</ele>
        <time>2021-08-10T12:34:48.755Z</time>
      </trkpt>
      <trkpt lat="46.91336" lon="8.5747">
        <ele>799</ele>
        <time>2021-08-10T12:34:49.755Z</time>
      </trkpt>
      <trkpt lat="46.91336" lon="8.5747">
        <ele>799</ele>
        <time>2021-08-10T12:34:50.756Z</time>
      </trkpt>
      <trkpt lat="46.91335" lon="8.57471">
        <ele>801</ele>
        <time>2021-08-10T12:34:51.757Z</time>
      </trkpt>
      <trkpt lat="46.91335" lon="8.57471">
        <ele>802</ele>
        <time>2021-08-10T12:34:52.757Z</time>
      </trkpt>
      <trkpt lat="46.91335" lon="8.5747">
        <ele>803</ele>
        <time>2021-08-10T12:34:53.756Z</time>
      </trkpt>
      <trkpt lat="46.9133" lon="8.57467">
        <ele>806</ele>
        <time>2021-08-10T12:34:54.757Z</time>
      </trkpt>
      <trkpt lat="46.91329" lon="8.57465">
        <ele>806</ele>
        <time>2021-08-10T12:34:55.756Z</time>
      </trkpt>
      <trkpt lat="46.91328" lon="8.57463">
        <ele>806</ele>
        <time>2021-08-10T12:34:56.756Z</time>
      </trkpt>
      <trkpt lat="46.91326" lon="8.57462">
        <ele>807</ele>
        <time>2021-08-10T12:35:05.889Z</time>
      </trkpt>
      <trkpt lat="46.91326" lon="8.57461">
        <ele>807</ele>
        <time>2021-08-10T12:35:06.889Z</time>
      </trkpt>
      <trkpt lat="46.91327" lon="8.5746">
        <ele>807</ele>
        <time>2021-08-10T12:35:07.890Z</time>
      </trkpt>
      <trkpt lat="46.91326" lon="8.57459">
        <ele>806</ele>
        <time>2021-08-10T12:35:14.030Z</time>
      </trkpt>
      <trkpt lat="46.91326" lon="8.57458">
        <ele>806</ele>
        <time>2021-08-10T12:35:15.030Z</time>
      </trkpt>
      <trkpt lat="46.91325" lon="8.57456">
        <ele>806</ele>
        <time>2021-08-10T12:35:23.898Z</time>
      </trkpt>
      <trkpt lat="46.91324" lon="8.57454">
        <ele>805</ele>
        <time>2021-08-10T12:35:24.898Z</time>
      </trkpt>
      <trkpt lat="46.91324" lon="8.57453">
        <ele>805</ele>
        <time>2021-08-10T12:35:25.898Z</time>
      </trkpt>
      <trkpt lat="46.91324" lon="8.57453">
        <ele>805</ele>
        <time>2021-08-10T12:35:39.985Z</time>
      </trkpt>
      <trkpt lat="46.91324" lon="8.57453">
        <ele>805</ele>
        <time>2021-08-10T12:35:51.858Z</time>
      </trkpt>
      <trkpt lat="46.91324" lon="8.57452">
        <ele>804</ele>
        <time>2021-08-10T12:35:52.858Z</time>
      </trkpt>
      <trkpt lat="46.91325" lon="8.57451">
        <ele>804</ele>
        <time>2021-08-10T12:35:53.858Z</time>
      </trkpt>
      <trkpt lat="46.91325" lon="8.57451">
        <ele>804</ele>
        <time>2021-08-10T12:35:54.857Z</time>
      </trkpt>
      <trkpt lat="46.91325" lon="8.5745">
        <ele>804</ele>
        <time>2021-08-10T12:35:55.857Z</time>
      </trkpt>
      <trkpt lat="46.91324" lon="8.5745">
        <ele>804</ele>
        <time>2021-08-10T12:35:56.858Z</time>
      </trkpt>
      <trkpt lat="46.91324" lon="8.5745">
        <ele>804</ele>
        <time>2021-08-10T12:36:11.002Z</time>
      </trkpt>
      <trkpt lat="46.91324" lon="8.57449">
        <ele>804</ele>
        <time>2021-08-10T12:36:12.003Z</time>
      </trkpt>
      <trkpt lat="46.91324" lon="8.57447">
        <ele>804</ele>
        <time>2021-08-10T12:36:13.717Z</time>
      </trkpt>
      <trkpt lat="46.91324" lon="8.57445">
        <ele>804</ele>
        <time>2021-08-10T12:36:14.716Z</time>
      </trkpt>
      <trkpt lat="46.91324" lon="8.57444">
        <ele>804</ele>
        <time>2021-08-10T12:36:15.716Z</time>
      </trkpt>
      <trkpt lat="46.91324" lon="8.57444">
        <ele>804</ele>
        <time>2021-08-10T12:36:18.742Z</time>
      </trkpt>
      <trkpt lat="46.91324" lon="8.57443">
        <ele>804</ele>
        <time>2021-08-10T12:36:19.742Z</time>
      </trkpt>
      <trkpt lat="46.91324" lon="8.57441">
        <ele>804</ele>
        <time>2021-08-10T12:36:20.741Z</time>
      </trkpt>
      <trkpt lat="46.91323" lon="8.57439">
        <ele>804</ele>
        <time>2021-08-10T12:36:21.742Z</time>
      </trkpt>
      <trkpt lat="46.91321" lon="8.57436">
        <ele>803</ele>
        <time>2021-08-10T12:36:22.741Z</time>
      </trkpt>
      <trkpt lat="46.91319" lon="8.57432">
        <ele>802</ele>
        <time>2021-08-10T12:36:25.867Z</time>
      </trkpt>
      <trkpt lat="46.91318" lon="8.57431">
        <ele>802</ele>
        <time>2021-08-10T12:36:26.867Z</time>
      </trkpt>
      <trkpt lat="46.91318" lon="8.5743">
        <ele>802</ele>
        <time>2021-08-10T12:36:27.866Z</time>
      </trkpt>
      <trkpt lat="46.91318" lon="8.57429">
        <ele>802</ele>
        <time>2021-08-10T12:36:28.867Z</time>
      </trkpt>
      <trkpt lat="46.91318" lon="8.57428">
        <ele>801</ele>
        <time>2021-08-10T12:36:29.866Z</time>
      </trkpt>
      <trkpt lat="46.91318" lon="8.57427">
        <ele>801</ele>
        <time>2021-08-10T12:36:30.866Z</time>
      </trkpt>
      <trkpt lat="46.91317" lon="8.57426">
        <ele>800</ele>
        <time>2021-08-10T12:36:31.867Z</time>
      </trkpt>
      <trkpt lat="46.91317" lon="8.57425">
        <ele>799</ele>
        <time>2021-08-10T12:36:32.867Z</time>
      </trkpt>
      <trkpt lat="46.91317" lon="8.57424">
        <ele>798</ele>
        <time>2021-08-10T12:36:33.867Z</time>
      </trkpt>
      <trkpt lat="46.91317" lon="8.57423">
        <ele>798</ele>
        <time>2021-08-10T12:36:34.866Z</time>
      </trkpt>
      <trkpt lat="46.91316" lon="8.57422">
        <ele>797</ele>
        <time>2021-08-10T12:36:35.866Z</time>
      </trkpt>
      <trkpt lat="46.91316" lon="8.57422">
        <ele>796</ele>
        <time>2021-08-10T12:36:36.867Z</time>
      </trkpt>
      <trkpt lat="46.91316" lon="8.57421">
        <ele>795</ele>
        <time>2021-08-10T12:36:37.867Z</time>
      </trkpt>
      <trkpt lat="46.91316" lon="8.57421">
        <ele>795</ele>
        <time>2021-08-10T12:36:41.981Z</time>
      </trkpt>
      <trkpt lat="46.91316" lon="8.5742">
        <ele>795</ele>
        <time>2021-08-10T12:36:42.981Z</time>
      </trkpt>
      <trkpt lat="46.91317" lon="8.5742">
        <ele>795</ele>
        <time>2021-08-10T12:36:43.981Z</time>
      </trkpt>
      <trkpt lat="46.91317" lon="8.57419">
        <ele>794</ele>
        <time>2021-08-10T12:37:01.143Z</time>
      </trkpt>
      <trkpt lat="46.91318" lon="8.57417">
        <ele>794</ele>
        <time>2021-08-10T12:37:02.143Z</time>
      </trkpt>
      <trkpt lat="46.91317" lon="8.57416">
        <ele>794</ele>
        <time>2021-08-10T12:37:09.002Z</time>
      </trkpt>
      <trkpt lat="46.91316" lon="8.57409">
        <ele>794</ele>
        <time>2021-08-10T12:37:10.002Z</time>
      </trkpt>
      <trkpt lat="46.91316" lon="8.57408">
        <ele>794</ele>
        <time>2021-08-10T12:37:11.002Z</time>
      </trkpt>
      <trkpt lat="46.91315" lon="8.57407">
        <ele>794</ele>
        <time>2021-08-10T12:37:22.113Z</time>
      </trkpt>
      <trkpt lat="46.91315" lon="8.57406">
        <ele>794</ele>
        <time>2021-08-10T12:37:23.114Z</time>
      </trkpt>
      <trkpt lat="46.91314" lon="8.57405">
        <ele>795</ele>
        <time>2021-08-10T12:37:24.113Z</time>
      </trkpt>
      <trkpt lat="46.91313" lon="8.57403">
        <ele>795</ele>
        <time>2021-08-10T12:37:25.114Z</time>
      </trkpt>
      <trkpt lat="46.91313" lon="8.57402">
        <ele>795</ele>
        <time>2021-08-10T12:37:39.230Z</time>
      </trkpt>
      <trkpt lat="46.91312" lon="8.57401">
        <ele>795</ele>
        <time>2021-08-10T12:37:40.230Z</time>
      </trkpt>
      <trkpt lat="46.91311" lon="8.574">
        <ele>795</ele>
        <time>2021-08-10T12:37:41.230Z</time>
      </trkpt>
      <trkpt lat="46.91311" lon="8.57399">
        <ele>795</ele>
        <time>2021-08-10T12:37:42.229Z</time>
      </trkpt>
      <trkpt lat="46.91311" lon="8.57398">
        <ele>795</ele>
        <time>2021-08-10T12:37:43.229Z</time>
      </trkpt>
      <trkpt lat="46.91312" lon="8.57397">
        <ele>795</ele>
        <time>2021-08-10T12:37:44.229Z</time>
      </trkpt>
      <trkpt lat="46.91311" lon="8.57395">
        <ele>795</ele>
        <time>2021-08-10T12:37:45.229Z</time>
      </trkpt>
      <trkpt lat="46.9131" lon="8.57394">
        <ele>794</ele>
        <time>2021-08-10T12:37:46.230Z</time>
      </trkpt>
      <trkpt lat="46.9131" lon="8.57393">
        <ele>794</ele>
        <time>2021-08-10T12:37:57.378Z</time>
      </trkpt>
      <trkpt lat="46.9131" lon="8.57392">
        <ele>794</ele>
        <time>2021-08-10T12:38:07.274Z</time>
      </trkpt>
      <trkpt lat="46.91309" lon="8.5739">
        <ele>794</ele>
        <time>2021-08-10T12:38:12.124Z</time>
      </trkpt>
      <trkpt lat="46.91308" lon="8.57389">
        <ele>794</ele>
        <time>2021-08-10T12:38:13.124Z</time>
      </trkpt>
      <trkpt lat="46.91307" lon="8.57388">
        <ele>794</ele>
        <time>2021-08-10T12:38:14.125Z</time>
      </trkpt>
      <trkpt lat="46.91307" lon="8.57387">
        <ele>794</ele>
        <time>2021-08-10T12:38:15.124Z</time>
      </trkpt>
      <trkpt lat="46.91306" lon="8.57386">
        <ele>794</ele>
        <time>2021-08-10T12:38:16.124Z</time>
      </trkpt>
      <trkpt lat="46.91305" lon="8.57384">
        <ele>794</ele>
        <time>2021-08-10T12:38:17.124Z</time>
      </trkpt>
      <trkpt lat="46.91305" lon="8.57382">
        <ele>794</ele>
        <time>2021-08-10T12:38:18.125Z</time>
      </trkpt>
      <trkpt lat="46.91305" lon="8.5738">
        <ele>793</ele>
        <time>2021-08-10T12:38:19.124Z</time>
      </trkpt>
      <trkpt lat="46.91304" lon="8.57377">
        <ele>793</ele>
        <time>2021-08-10T12:38:20.125Z</time>
      </trkpt>
      <trkpt lat="46.91302" lon="8.57375">
        <ele>793</ele>
        <time>2021-08-10T12:38:21.125Z</time>
      </trkpt>
      <trkpt lat="46.91301" lon="8.57373">
        <ele>792</ele>
        <time>2021-08-10T12:38:22.125Z</time>
      </trkpt>
      <trkpt lat="46.913" lon="8.57371">
        <ele>791</ele>
        <time>2021-08-10T12:38:23.125Z</time>
      </trkpt>
      <trkpt lat="46.913" lon="8.57368">
        <ele>791</ele>
        <time>2021-08-10T12:38:24.125Z</time>
      </trkpt>
      <trkpt lat="46.913" lon="8.57367">
        <ele>790</ele>
        <time>2021-08-10T12:38:25.125Z</time>
      </trkpt>
      <trkpt lat="46.913" lon="8.57366">
        <ele>790</ele>
        <time>2021-08-10T12:38:26.125Z</time>
      </trkpt>
      <trkpt lat="46.91299" lon="8.57365">
        <ele>790</ele>
        <time>2021-08-10T12:38:27.125Z</time>
      </trkpt>
      <trkpt lat="46.91298" lon="8.57364">
        <ele>790</ele>
        <time>2021-08-10T12:38:28.124Z</time>
      </trkpt>
      <trkpt lat="46.91297" lon="8.57363">
        <ele>790</ele>
        <time>2021-08-10T12:38:29.125Z</time>
      </trkpt>
      <trkpt lat="46.91297" lon="8.57361">
        <ele>790</ele>
        <time>2021-08-10T12:38:30.125Z</time>
      </trkpt>
      <trkpt lat="46.91296" lon="8.5736">
        <ele>789</ele>
        <time>2021-08-10T12:38:31.124Z</time>
      </trkpt>
      <trkpt lat="46.91295" lon="8.5736">
        <ele>789</ele>
        <time>2021-08-10T12:38:32.125Z</time>
      </trkpt>
      <trkpt lat="46.91295" lon="8.5736">
        <ele>789</ele>
        <time>2021-08-10T12:38:33.125Z</time>
      </trkpt>
      <trkpt lat="46.91294" lon="8.57358">
        <ele>789</ele>
        <time>2021-08-10T12:38:34.125Z</time>
      </trkpt>
      <trkpt lat="46.91294" lon="8.57354">
        <ele>789</ele>
        <time>2021-08-10T12:38:35.125Z</time>
      </trkpt>
      <trkpt lat="46.91294" lon="8.57353">
        <ele>789</ele>
        <time>2021-08-10T12:38:36.126Z</time>
      </trkpt>
      <trkpt lat="46.91293" lon="8.57351">
        <ele>789</ele>
        <time>2021-08-10T12:38:37.125Z</time>
      </trkpt>
      <trkpt lat="46.91292" lon="8.57349">
        <ele>789</ele>
        <time>2021-08-10T12:38:38.125Z</time>
      </trkpt>
      <trkpt lat="46.9129" lon="8.57346">
        <ele>790</ele>
        <time>2021-08-10T12:38:39.125Z</time>
      </trkpt>
      <trkpt lat="46.91289" lon="8.57343">
        <ele>790</ele>
        <time>2021-08-10T12:38:40.125Z</time>
      </trkpt>
      <trkpt lat="46.91288" lon="8.57341">
        <ele>791</ele>
        <time>2021-08-10T12:38:41.125Z</time>
      </trkpt>
      <trkpt lat="46.91287" lon="8.57339">
        <ele>791</ele>
        <time>2021-08-10T12:38:42.125Z</time>
      </trkpt>
      <trkpt lat="46.91287" lon="8.57338">
        <ele>791</ele>
        <time>2021-08-10T12:38:43.126Z</time>
      </trkpt>
      <trkpt lat="46.91287" lon="8.57337">
        <ele>791</ele>
        <time>2021-08-10T12:38:44.125Z</time>
      </trkpt>
      <trkpt lat="46.91287" lon="8.57336">
        <ele>791</ele>
        <time>2021-08-10T12:38:45.125Z</time>
      </trkpt>
      <trkpt lat="46.91286" lon="8.57335">
        <ele>791</ele>
        <time>2021-08-10T12:38:46.125Z</time>
      </trkpt>
      <trkpt lat="46.91285" lon="8.57333">
        <ele>791</ele>
        <time>2021-08-10T12:38:47.125Z</time>
      </trkpt>
      <trkpt lat="46.91285" lon="8.57332">
        <ele>790</ele>
        <time>2021-08-10T12:38:48.125Z</time>
      </trkpt>
      <trkpt lat="46.91284" lon="8.57331">
        <ele>790</ele>
        <time>2021-08-10T12:38:49.125Z</time>
      </trkpt>
      <trkpt lat="46.91284" lon="8.5733">
        <ele>789</ele>
        <time>2021-08-10T12:38:50.125Z</time>
      </trkpt>
      <trkpt lat="46.91284" lon="8.57329">
        <ele>789</ele>
        <time>2021-08-10T12:38:51.125Z</time>
      </trkpt>
      <trkpt lat="46.91283" lon="8.57328">
        <ele>789</ele>
        <time>2021-08-10T12:38:52.125Z</time>
      </trkpt>
      <trkpt lat="46.91283" lon="8.57327">
        <ele>788</ele>
        <time>2021-08-10T12:38:53.126Z</time>
      </trkpt>
      <trkpt lat="46.91283" lon="8.57326">
        <ele>788</ele>
        <time>2021-08-10T12:38:54.126Z</time>
      </trkpt>
      <trkpt lat="46.91283" lon="8.57325">
        <ele>788</ele>
        <time>2021-08-10T12:38:55.126Z</time>
      </trkpt>
      <trkpt lat="46.91283" lon="8.57324">
        <ele>788</ele>
        <time>2021-08-10T12:38:56.126Z</time>
      </trkpt>
      <trkpt lat="46.91283" lon="8.57322">
        <ele>787</ele>
        <time>2021-08-10T12:38:57.125Z</time>
      </trkpt>
      <trkpt lat="46.91282" lon="8.5732">
        <ele>787</ele>
        <time>2021-08-10T12:38:58.125Z</time>
      </trkpt>
      <trkpt lat="46.91282" lon="8.57318">
        <ele>787</ele>
        <time>2021-08-10T12:38:59.125Z</time>
      </trkpt>
      <trkpt lat="46.91282" lon="8.57317">
        <ele>786</ele>
        <time>2021-08-10T12:39:00.125Z</time>
      </trkpt>
      <trkpt lat="46.91281" lon="8.57315">
        <ele>786</ele>
        <time>2021-08-10T12:39:01.126Z</time>
      </trkpt>
      <trkpt lat="46.91281" lon="8.57314">
        <ele>785</ele>
        <time>2021-08-10T12:39:02.125Z</time>
      </trkpt>
      <trkpt lat="46.9128" lon="8.57313">
        <ele>785</ele>
        <time>2021-08-10T12:39:03.126Z</time>
      </trkpt>
      <trkpt lat="46.91279" lon="8.57311">
        <ele>785</ele>
        <time>2021-08-10T12:39:04.126Z</time>
      </trkpt>
      <trkpt lat="46.91279" lon="8.57308">
        <ele>785</ele>
        <time>2021-08-10T12:39:05.125Z</time>
      </trkpt>
      <trkpt lat="46.91278" lon="8.57307">
        <ele>785</ele>
        <time>2021-08-10T12:39:06.126Z</time>
      </trkpt>
      <trkpt lat="46.91277" lon="8.57305">
        <ele>785</ele>
        <time>2021-08-10T12:39:07.126Z</time>
      </trkpt>
      <trkpt lat="46.91277" lon="8.57305">
        <ele>785</ele>
        <time>2021-08-10T12:39:08.126Z</time>
      </trkpt>
      <trkpt lat="46.91277" lon="8.57303">
        <ele>785</ele>
        <time>2021-08-10T12:39:09.125Z</time>
      </trkpt>
      <trkpt lat="46.91277" lon="8.57301">
        <ele>785</ele>
        <time>2021-08-10T12:39:10.125Z</time>
      </trkpt>
      <trkpt lat="46.91277" lon="8.573">
        <ele>785</ele>
        <time>2021-08-10T12:39:11.126Z</time>
      </trkpt>
      <trkpt lat="46.91276" lon="8.57299">
        <ele>785</ele>
        <time>2021-08-10T12:39:12.126Z</time>
      </trkpt>
      <trkpt lat="46.91276" lon="8.57298">
        <ele>786</ele>
        <time>2021-08-10T12:39:13.126Z</time>
      </trkpt>
      <trkpt lat="46.91276" lon="8.57298">
        <ele>786</ele>
        <time>2021-08-10T12:39:14.126Z</time>
      </trkpt>
      <trkpt lat="46.91276" lon="8.57298">
        <ele>786</ele>
        <time>2021-08-10T12:39:15.126Z</time>
      </trkpt>
      <trkpt lat="46.91275" lon="8.57294">
        <ele>787</ele>
        <time>2021-08-10T12:39:16.127Z</time>
      </trkpt>
      <trkpt lat="46.91273" lon="8.57288">
        <ele>786</ele>
        <time>2021-08-10T12:39:17.127Z</time>
      </trkpt>
      <trkpt lat="46.91273" lon="8.57288">
        <ele>785</ele>
        <time>2021-08-10T12:39:18.128Z</time>
      </trkpt>
      <trkpt lat="46.91272" lon="8.57287">
        <ele>785</ele>
        <time>2021-08-10T12:39:19.127Z</time>
      </trkpt>
      <trkpt lat="46.91272" lon="8.57286">
        <ele>785</ele>
        <time>2021-08-10T12:39:20.128Z</time>
      </trkpt>
      <trkpt lat="46.91272" lon="8.57284">
        <ele>785</ele>
        <time>2021-08-10T12:39:21.128Z</time>
      </trkpt>
      <trkpt lat="46.91271" lon="8.57283">
        <ele>785</ele>
        <time>2021-08-10T12:39:22.128Z</time>
      </trkpt>
      <trkpt lat="46.9127" lon="8.57281">
        <ele>786</ele>
        <time>2021-08-10T12:39:23.128Z</time>
      </trkpt>
      <trkpt lat="46.91269" lon="8.5728">
        <ele>786</ele>
        <time>2021-08-10T12:39:24.128Z</time>
      </trkpt>
      <trkpt lat="46.91269" lon="8.57278">
        <ele>787</ele>
        <time>2021-08-10T12:39:25.127Z</time>
      </trkpt>
      <trkpt lat="46.91268" lon="8.57277">
        <ele>787</ele>
        <time>2021-08-10T12:39:26.128Z</time>
      </trkpt>
      <trkpt lat="46.91268" lon="8.57276">
        <ele>787</ele>
        <time>2021-08-10T12:39:27.128Z</time>
      </trkpt>
      <trkpt lat="46.91268" lon="8.57275">
        <ele>788</ele>
        <time>2021-08-10T12:39:28.128Z</time>
      </trkpt>
      <trkpt lat="46.91268" lon="8.57273">
        <ele>788</ele>
        <time>2021-08-10T12:39:29.128Z</time>
      </trkpt>
      <trkpt lat="46.91268" lon="8.57272">
        <ele>789</ele>
        <time>2021-08-10T12:39:30.128Z</time>
      </trkpt>
      <trkpt lat="46.91268" lon="8.5727">
        <ele>789</ele>
        <time>2021-08-10T12:39:31.127Z</time>
      </trkpt>
      <trkpt lat="46.91267" lon="8.57269">
        <ele>789</ele>
        <time>2021-08-10T12:39:32.127Z</time>
      </trkpt>
      <trkpt lat="46.91267" lon="8.57268">
        <ele>789</ele>
        <time>2021-08-10T12:39:33.127Z</time>
      </trkpt>
      <trkpt lat="46.91266" lon="8.57267">
        <ele>790</ele>
        <time>2021-08-10T12:39:34.127Z</time>
      </trkpt>
      <trkpt lat="46.91266" lon="8.57266">
        <ele>790</ele>
        <time>2021-08-10T12:39:35.128Z</time>
      </trkpt>
      <trkpt lat="46.91265" lon="8.57264">
        <ele>790</ele>
        <time>2021-08-10T12:39:36.127Z</time>
      </trkpt>
      <trkpt lat="46.91265" lon="8.57263">
        <ele>789</ele>
        <time>2021-08-10T12:39:37.128Z</time>
      </trkpt>
      <trkpt lat="46.91265" lon="8.57261">
        <ele>789</ele>
        <time>2021-08-10T12:39:38.128Z</time>
      </trkpt>
      <trkpt lat="46.91265" lon="8.5726">
        <ele>789</ele>
        <time>2021-08-10T12:39:39.128Z</time>
      </trkpt>
      <trkpt lat="46.91265" lon="8.57259">
        <ele>790</ele>
        <time>2021-08-10T12:39:40.128Z</time>
      </trkpt>
      <trkpt lat="46.91264" lon="8.57258">
        <ele>789</ele>
        <time>2021-08-10T12:39:41.128Z</time>
      </trkpt>
      <trkpt lat="46.91264" lon="8.57258">
        <ele>789</ele>
        <time>2021-08-10T12:39:42.127Z</time>
      </trkpt>
      <trkpt lat="46.91263" lon="8.57257">
        <ele>789</ele>
        <time>2021-08-10T12:39:43.128Z</time>
      </trkpt>
      <trkpt lat="46.91263" lon="8.57256">
        <ele>789</ele>
        <time>2021-08-10T12:39:44.127Z</time>
      </trkpt>
      <trkpt lat="46.91263" lon="8.57255">
        <ele>788</ele>
        <time>2021-08-10T12:39:45.128Z</time>
      </trkpt>
      <trkpt lat="46.91263" lon="8.57253">
        <ele>788</ele>
        <time>2021-08-10T12:39:46.127Z</time>
      </trkpt>
      <trkpt lat="46.91263" lon="8.57251">
        <ele>787</ele>
        <time>2021-08-10T12:39:47.127Z</time>
      </trkpt>
      <trkpt lat="46.91263" lon="8.57249">
        <ele>786</ele>
        <time>2021-08-10T12:39:48.128Z</time>
      </trkpt>
      <trkpt lat="46.91263" lon="8.57248">
        <ele>786</ele>
        <time>2021-08-10T12:39:49.128Z</time>
      </trkpt>
      <trkpt lat="46.91264" lon="8.57246">
        <ele>785</ele>
        <time>2021-08-10T12:39:50.127Z</time>
      </trkpt>
      <trkpt lat="46.91265" lon="8.57243">
        <ele>785</ele>
        <time>2021-08-10T12:39:51.127Z</time>
      </trkpt>
      <trkpt lat="46.91265" lon="8.57242">
        <ele>785</ele>
        <time>2021-08-10T12:39:52.127Z</time>
      </trkpt>
      <trkpt lat="46.91265" lon="8.57242">
        <ele>784</ele>
        <time>2021-08-10T12:39:53.127Z</time>
      </trkpt>
      <trkpt lat="46.91266" lon="8.57241">
        <ele>784</ele>
        <time>2021-08-10T12:39:54.127Z</time>
      </trkpt>
      <trkpt lat="46.91266" lon="8.5724">
        <ele>784</ele>
        <time>2021-08-10T12:39:55.128Z</time>
      </trkpt>
      <trkpt lat="46.91267" lon="8.5724">
        <ele>784</ele>
        <time>2021-08-10T12:39:56.127Z</time>
      </trkpt>
      <trkpt lat="46.91267" lon="8.57239">
        <ele>784</ele>
        <time>2021-08-10T12:39:57.127Z</time>
      </trkpt>
      <trkpt lat="46.91267" lon="8.57237">
        <ele>784</ele>
        <time>2021-08-10T12:39:58.127Z</time>
      </trkpt>
      <trkpt lat="46.91267" lon="8.57236">
        <ele>784</ele>
        <time>2021-08-10T12:39:59.128Z</time>
      </trkpt>
      <trkpt lat="46.91267" lon="8.57234">
        <ele>784</ele>
        <time>2021-08-10T12:40:00.128Z</time>
      </trkpt>
      <trkpt lat="46.91267" lon="8.57233">
        <ele>784</ele>
        <time>2021-08-10T12:40:01.128Z</time>
      </trkpt>
      <trkpt lat="46.91267" lon="8.57232">
        <ele>784</ele>
        <time>2021-08-10T12:40:02.128Z</time>
      </trkpt>
      <trkpt lat="46.91267" lon="8.57231">
        <ele>785</ele>
        <time>2021-08-10T12:40:03.128Z</time>
      </trkpt>
      <trkpt lat="46.91266" lon="8.5723">
        <ele>785</ele>
        <time>2021-08-10T12:40:04.128Z</time>
      </trkpt>
      <trkpt lat="46.91264" lon="8.57228">
        <ele>785</ele>
        <time>2021-08-10T12:40:05.128Z</time>
      </trkpt>
      <trkpt lat="46.91263" lon="8.57227">
        <ele>785</ele>
        <time>2021-08-10T12:40:06.128Z</time>
      </trkpt>
      <trkpt lat="46.91261" lon="8.57227">
        <ele>785</ele>
        <time>2021-08-10T12:40:07.128Z</time>
      </trkpt>
      <trkpt lat="46.9126" lon="8.57227">
        <ele>785</ele>
        <time>2021-08-10T12:40:08.128Z</time>
      </trkpt>
      <trkpt lat="46.9126" lon="8.57225">
        <ele>785</ele>
        <time>2021-08-10T12:40:09.128Z</time>
      </trkpt>
      <trkpt lat="46.9126" lon="8.57222">
        <ele>785</ele>
        <time>2021-08-10T12:40:10.127Z</time>
      </trkpt>
      <trkpt lat="46.9126" lon="8.57219">
        <ele>785</ele>
        <time>2021-08-10T12:40:11.128Z</time>
      </trkpt>
      <trkpt lat="46.9126" lon="8.57217">
        <ele>785</ele>
        <time>2021-08-10T12:40:12.128Z</time>
      </trkpt>
      <trkpt lat="46.9126" lon="8.57215">
        <ele>785</ele>
        <time>2021-08-10T12:40:13.128Z</time>
      </trkpt>
      <trkpt lat="46.9126" lon="8.57213">
        <ele>785</ele>
        <time>2021-08-10T12:40:14.127Z</time>
      </trkpt>
      <trkpt lat="46.91259" lon="8.57212">
        <ele>785</ele>
        <time>2021-08-10T12:40:15.128Z</time>
      </trkpt>
      <trkpt lat="46.91259" lon="8.57209">
        <ele>785</ele>
        <time>2021-08-10T12:40:16.128Z</time>
      </trkpt>
      <trkpt lat="46.91259" lon="8.57206">
        <ele>785</ele>
        <time>2021-08-10T12:40:17.127Z</time>
      </trkpt>
      <trkpt lat="46.91258" lon="8.57204">
        <ele>786</ele>
        <time>2021-08-10T12:40:18.128Z</time>
      </trkpt>
      <trkpt lat="46.91259" lon="8.57202">
        <ele>786</ele>
        <time>2021-08-10T12:40:19.128Z</time>
      </trkpt>
      <trkpt lat="46.91259" lon="8.572">
        <ele>786</ele>
        <time>2021-08-10T12:40:20.128Z</time>
      </trkpt>
      <trkpt lat="46.91259" lon="8.57199">
        <ele>786</ele>
        <time>2021-08-10T12:40:21.127Z</time>
      </trkpt>
      <trkpt lat="46.91259" lon="8.57198">
        <ele>787</ele>
        <time>2021-08-10T12:40:22.127Z</time>
      </trkpt>
      <trkpt lat="46.91259" lon="8.57195">
        <ele>787</ele>
        <time>2021-08-10T12:40:23.128Z</time>
      </trkpt>
      <trkpt lat="46.91258" lon="8.57193">
        <ele>787</ele>
        <time>2021-08-10T12:40:24.127Z</time>
      </trkpt>
      <trkpt lat="46.91257" lon="8.57191">
        <ele>787</ele>
        <time>2021-08-10T12:40:25.128Z</time>
      </trkpt>
      <trkpt lat="46.91256" lon="8.57188">
        <ele>788</ele>
        <time>2021-08-10T12:40:26.128Z</time>
      </trkpt>
      <trkpt lat="46.91256" lon="8.57185">
        <ele>788</ele>
        <time>2021-08-10T12:40:27.128Z</time>
      </trkpt>
      <trkpt lat="46.91256" lon="8.57183">
        <ele>788</ele>
        <time>2021-08-10T12:40:28.128Z</time>
      </trkpt>
      <trkpt lat="46.91256" lon="8.57181">
        <ele>789</ele>
        <time>2021-08-10T12:40:29.127Z</time>
      </trkpt>
      <trkpt lat="46.91255" lon="8.5718">
        <ele>789</ele>
        <time>2021-08-10T12:40:30.127Z</time>
      </trkpt>
      <trkpt lat="46.91254" lon="8.57179">
        <ele>789</ele>
        <time>2021-08-10T12:40:31.128Z</time>
      </trkpt>
      <trkpt lat="46.91254" lon="8.57177">
        <ele>790</ele>
        <time>2021-08-10T12:40:32.128Z</time>
      </trkpt>
      <trkpt lat="46.91252" lon="8.57175">
        <ele>790</ele>
        <time>2021-08-10T12:40:33.128Z</time>
      </trkpt>
      <trkpt lat="46.91252" lon="8.57173">
        <ele>791</ele>
        <time>2021-08-10T12:40:34.127Z</time>
      </trkpt>
      <trkpt lat="46.91251" lon="8.57172">
        <ele>791</ele>
        <time>2021-08-10T12:40:35.127Z</time>
      </trkpt>
      <trkpt lat="46.91251" lon="8.57171">
        <ele>792</ele>
        <time>2021-08-10T12:40:36.127Z</time>
      </trkpt>
      <trkpt lat="46.9125" lon="8.57169">
        <ele>792</ele>
        <time>2021-08-10T12:40:37.128Z</time>
      </trkpt>
      <trkpt lat="46.91249" lon="8.57168">
        <ele>793</ele>
        <time>2021-08-10T12:40:38.128Z</time>
      </trkpt>
      <trkpt lat="46.91248" lon="8.57166">
        <ele>793</ele>
        <time>2021-08-10T12:40:39.128Z</time>
      </trkpt>
      <trkpt lat="46.91247" lon="8.57165">
        <ele>794</ele>
        <time>2021-08-10T12:40:40.128Z</time>
      </trkpt>
      <trkpt lat="46.91247" lon="8.57163">
        <ele>794</ele>
        <time>2021-08-10T12:40:41.127Z</time>
      </trkpt>
      <trkpt lat="46.91248" lon="8.57162">
        <ele>794</ele>
        <time>2021-08-10T12:40:42.127Z</time>
      </trkpt>
      <trkpt lat="46.91248" lon="8.5716">
        <ele>794</ele>
        <time>2021-08-10T12:40:43.127Z</time>
      </trkpt>
      <trkpt lat="46.91248" lon="8.57159">
        <ele>795</ele>
        <time>2021-08-10T12:40:44.127Z</time>
      </trkpt>
      <trkpt lat="46.91248" lon="8.57158">
        <ele>795</ele>
        <time>2021-08-10T12:40:45.128Z</time>
      </trkpt>
      <trkpt lat="46.91248" lon="8.57157">
        <ele>795</ele>
        <time>2021-08-10T12:40:46.128Z</time>
      </trkpt>
      <trkpt lat="46.91248" lon="8.57157">
        <ele>795</ele>
        <time>2021-08-10T12:40:47.128Z</time>
      </trkpt>
      <trkpt lat="46.91248" lon="8.57156">
        <ele>795</ele>
        <time>2021-08-10T12:40:48.127Z</time>
      </trkpt>
      <trkpt lat="46.91248" lon="8.57155">
        <ele>795</ele>
        <time>2021-08-10T12:40:49.128Z</time>
      </trkpt>
      <trkpt lat="46.91248" lon="8.57154">
        <ele>795</ele>
        <time>2021-08-10T12:40:50.128Z</time>
      </trkpt>
      <trkpt lat="46.91248" lon="8.57153">
        <ele>795</ele>
        <time>2021-08-10T12:40:51.128Z</time>
      </trkpt>
      <trkpt lat="46.91248" lon="8.57151">
        <ele>794</ele>
        <time>2021-08-10T12:40:52.127Z</time>
      </trkpt>
      <trkpt lat="46.91248" lon="8.57149">
        <ele>794</ele>
        <time>2021-08-10T12:40:53.128Z</time>
      </trkpt>
      <trkpt lat="46.91247" lon="8.57148">
        <ele>794</ele>
        <time>2021-08-10T12:40:54.128Z</time>
      </trkpt>
      <trkpt lat="46.91247" lon="8.57146">
        <ele>794</ele>
        <time>2021-08-10T12:40:55.128Z</time>
      </trkpt>
      <trkpt lat="46.91246" lon="8.57144">
        <ele>794</ele>
        <time>2021-08-10T12:40:56.128Z</time>
      </trkpt>
      <trkpt lat="46.91246" lon="8.57142">
        <ele>794</ele>
        <time>2021-08-10T12:40:57.127Z</time>
      </trkpt>
      <trkpt lat="46.91245" lon="8.57141">
        <ele>794</ele>
        <time>2021-08-10T12:40:58.128Z</time>
      </trkpt>
      <trkpt lat="46.91244" lon="8.5714">
        <ele>794</ele>
        <time>2021-08-10T12:40:59.128Z</time>
      </trkpt>
      <trkpt lat="46.91244" lon="8.57139">
        <ele>793</ele>
        <time>2021-08-10T12:41:00.128Z</time>
      </trkpt>
      <trkpt lat="46.91243" lon="8.57137">
        <ele>793</ele>
        <time>2021-08-10T12:41:01.127Z</time>
      </trkpt>
      <trkpt lat="46.91243" lon="8.57135">
        <ele>793</ele>
        <time>2021-08-10T12:41:02.128Z</time>
      </trkpt>
      <trkpt lat="46.91242" lon="8.57134">
        <ele>793</ele>
        <time>2021-08-10T12:41:03.128Z</time>
      </trkpt>
      <trkpt lat="46.91242" lon="8.57132">
        <ele>792</ele>
        <time>2021-08-10T12:41:04.128Z</time>
      </trkpt>
      <trkpt lat="46.91242" lon="8.5713">
        <ele>792</ele>
        <time>2021-08-10T12:41:05.127Z</time>
      </trkpt>
      <trkpt lat="46.91242" lon="8.57129">
        <ele>792</ele>
        <time>2021-08-10T12:41:06.128Z</time>
      </trkpt>
      <trkpt lat="46.91241" lon="8.57127">
        <ele>792</ele>
        <time>2021-08-10T12:41:07.128Z</time>
      </trkpt>
      <trkpt lat="46.9124" lon="8.57124">
        <ele>791</ele>
        <time>2021-08-10T12:41:08.128Z</time>
      </trkpt>
      <trkpt lat="46.9124" lon="8.57122">
        <ele>791</ele>
        <time>2021-08-10T12:41:09.128Z</time>
      </trkpt>
      <trkpt lat="46.91239" lon="8.57121">
        <ele>791</ele>
        <time>2021-08-10T12:41:10.128Z</time>
      </trkpt>
      <trkpt lat="46.91238" lon="8.57118">
        <ele>791</ele>
        <time>2021-08-10T12:41:11.127Z</time>
      </trkpt>
      <trkpt lat="46.91237" lon="8.57116">
        <ele>790</ele>
        <time>2021-08-10T12:41:12.128Z</time>
      </trkpt>
      <trkpt lat="46.91237" lon="8.57115">
        <ele>790</ele>
        <time>2021-08-10T12:41:13.128Z</time>
      </trkpt>
      <trkpt lat="46.91236" lon="8.57114">
        <ele>790</ele>
        <time>2021-08-10T12:41:14.128Z</time>
      </trkpt>
      <trkpt lat="46.91236" lon="8.57113">
        <ele>789</ele>
        <time>2021-08-10T12:41:15.128Z</time>
      </trkpt>
      <trkpt lat="46.91235" lon="8.57113">
        <ele>789</ele>
        <time>2021-08-10T12:41:19.092Z</time>
      </trkpt>
      <trkpt lat="46.91235" lon="8.57112">
        <ele>789</ele>
        <time>2021-08-10T12:41:20.093Z</time>
      </trkpt>
      <trkpt lat="46.91235" lon="8.57111">
        <ele>788</ele>
        <time>2021-08-10T12:41:34.994Z</time>
      </trkpt>
      <trkpt lat="46.91234" lon="8.57109">
        <ele>788</ele>
        <time>2021-08-10T12:41:35.993Z</time>
      </trkpt>
      <trkpt lat="46.91234" lon="8.57106">
        <ele>788</ele>
        <time>2021-08-10T12:41:36.994Z</time>
      </trkpt>
      <trkpt lat="46.91235" lon="8.57105">
        <ele>787</ele>
        <time>2021-08-10T12:41:37.994Z</time>
      </trkpt>
      <trkpt lat="46.91236" lon="8.57103">
        <ele>786</ele>
        <time>2021-08-10T12:41:38.993Z</time>
      </trkpt>
      <trkpt lat="46.91236" lon="8.571">
        <ele>785</ele>
        <time>2021-08-10T12:41:41.111Z</time>
      </trkpt>
      <trkpt lat="46.91236" lon="8.57097">
        <ele>784</ele>
        <time>2021-08-10T12:41:42.111Z</time>
      </trkpt>
      <trkpt lat="46.91235" lon="8.57095">
        <ele>784</ele>
        <time>2021-08-10T12:41:43.110Z</time>
      </trkpt>
      <trkpt lat="46.91235" lon="8.57093">
        <ele>783</ele>
        <time>2021-08-10T12:41:44.111Z</time>
      </trkpt>
      <trkpt lat="46.91234" lon="8.57091">
        <ele>782</ele>
        <time>2021-08-10T12:41:45.111Z</time>
      </trkpt>
      <trkpt lat="46.91234" lon="8.57089">
        <ele>781</ele>
        <time>2021-08-10T12:41:46.111Z</time>
      </trkpt>
      <trkpt lat="46.91235" lon="8.57087">
        <ele>781</ele>
        <time>2021-08-10T12:41:47.110Z</time>
      </trkpt>
      <trkpt lat="46.91235" lon="8.57086">
        <ele>781</ele>
        <time>2021-08-10T12:41:48.111Z</time>
      </trkpt>
      <trkpt lat="46.91235" lon="8.57085">
        <ele>781</ele>
        <time>2021-08-10T12:41:49.111Z</time>
      </trkpt>
      <trkpt lat="46.91235" lon="8.57084">
        <ele>780</ele>
        <time>2021-08-10T12:41:50.111Z</time>
      </trkpt>
      <trkpt lat="46.91235" lon="8.57082">
        <ele>780</ele>
        <time>2021-08-10T12:41:51.111Z</time>
      </trkpt>
      <trkpt lat="46.91235" lon="8.57081">
        <ele>780</ele>
        <time>2021-08-10T12:41:52.110Z</time>
      </trkpt>
      <trkpt lat="46.91235" lon="8.5708">
        <ele>779</ele>
        <time>2021-08-10T12:41:53.111Z</time>
      </trkpt>
      <trkpt lat="46.91235" lon="8.57079">
        <ele>779</ele>
        <time>2021-08-10T12:41:54.110Z</time>
      </trkpt>
      <trkpt lat="46.91234" lon="8.57077">
        <ele>778</ele>
        <time>2021-08-10T12:41:55.111Z</time>
      </trkpt>
      <trkpt lat="46.91234" lon="8.57075">
        <ele>778</ele>
        <time>2021-08-10T12:41:56.111Z</time>
      </trkpt>
      <trkpt lat="46.91234" lon="8.57073">
        <ele>778</ele>
        <time>2021-08-10T12:41:57.110Z</time>
      </trkpt>
      <trkpt lat="46.91234" lon="8.57071">
        <ele>777</ele>
        <time>2021-08-10T12:41:58.110Z</time>
      </trkpt>
      <trkpt lat="46.91234" lon="8.57071">
        <ele>777</ele>
        <time>2021-08-10T12:41:59.110Z</time>
      </trkpt>
      <trkpt lat="46.91233" lon="8.57071">
        <ele>777</ele>
        <time>2021-08-10T12:42:00.110Z</time>
      </trkpt>
      <trkpt lat="46.91233" lon="8.5707">
        <ele>777</ele>
        <time>2021-08-10T12:42:01.111Z</time>
      </trkpt>
      <trkpt lat="46.91232" lon="8.57069">
        <ele>777</ele>
        <time>2021-08-10T12:42:02.110Z</time>
      </trkpt>
      <trkpt lat="46.91232" lon="8.57068">
        <ele>777</ele>
        <time>2021-08-10T12:42:03.110Z</time>
      </trkpt>
      <trkpt lat="46.91231" lon="8.57067">
        <ele>777</ele>
        <time>2021-08-10T12:42:04.110Z</time>
      </trkpt>
      <trkpt lat="46.91231" lon="8.57065">
        <ele>777</ele>
        <time>2021-08-10T12:42:05.111Z</time>
      </trkpt>
      <trkpt lat="46.91231" lon="8.57063">
        <ele>776</ele>
        <time>2021-08-10T12:42:10.230Z</time>
      </trkpt>
      <trkpt lat="46.91231" lon="8.57063">
        <ele>776</ele>
        <time>2021-08-10T12:42:11.231Z</time>
      </trkpt>
      <trkpt lat="46.91231" lon="8.57061">
        <ele>776</ele>
        <time>2021-08-10T12:42:12.231Z</time>
      </trkpt>
      <trkpt lat="46.9123" lon="8.57058">
        <ele>776</ele>
        <time>2021-08-10T12:42:13.231Z</time>
      </trkpt>
      <trkpt lat="46.91229" lon="8.57056">
        <ele>776</ele>
        <time>2021-08-10T12:42:14.231Z</time>
      </trkpt>
      <trkpt lat="46.91229" lon="8.57054">
        <ele>776</ele>
        <time>2021-08-10T12:42:15.231Z</time>
      </trkpt>
      <trkpt lat="46.91228" lon="8.57052">
        <ele>777</ele>
        <time>2021-08-10T12:42:16.231Z</time>
      </trkpt>
      <trkpt lat="46.91227" lon="8.57049">
        <ele>776</ele>
        <time>2021-08-10T12:42:17.231Z</time>
      </trkpt>
      <trkpt lat="46.91227" lon="8.57047">
        <ele>776</ele>
        <time>2021-08-10T12:42:18.231Z</time>
      </trkpt>
      <trkpt lat="46.91226" lon="8.57044">
        <ele>776</ele>
        <time>2021-08-10T12:42:19.231Z</time>
      </trkpt>
      <trkpt lat="46.91226" lon="8.5704">
        <ele>776</ele>
        <time>2021-08-10T12:42:20.231Z</time>
      </trkpt>
      <trkpt lat="46.91225" lon="8.57037">
        <ele>777</ele>
        <time>2021-08-10T12:42:21.231Z</time>
      </trkpt>
      <trkpt lat="46.91225" lon="8.57035">
        <ele>777</ele>
        <time>2021-08-10T12:42:22.231Z</time>
      </trkpt>
      <trkpt lat="46.91224" lon="8.57033">
        <ele>777</ele>
        <time>2021-08-10T12:42:23.231Z</time>
      </trkpt>
      <trkpt lat="46.91224" lon="8.57032">
        <ele>777</ele>
        <time>2021-08-10T12:42:24.231Z</time>
      </trkpt>
      <trkpt lat="46.91224" lon="8.5703">
        <ele>777</ele>
        <time>2021-08-10T12:42:25.231Z</time>
      </trkpt>
      <trkpt lat="46.91224" lon="8.57028">
        <ele>777</ele>
        <time>2021-08-10T12:42:26.230Z</time>
      </trkpt>
      <trkpt lat="46.91224" lon="8.57026">
        <ele>777</ele>
        <time>2021-08-10T12:42:27.231Z</time>
      </trkpt>
      <trkpt lat="46.91223" lon="8.57025">
        <ele>776</ele>
        <time>2021-08-10T12:42:28.230Z</time>
      </trkpt>
      <trkpt lat="46.91223" lon="8.57024">
        <ele>776</ele>
        <time>2021-08-10T12:42:29.231Z</time>
      </trkpt>
      <trkpt lat="46.91223" lon="8.57022">
        <ele>776</ele>
        <time>2021-08-10T12:42:30.230Z</time>
      </trkpt>
      <trkpt lat="46.91223" lon="8.57021">
        <ele>776</ele>
        <time>2021-08-10T12:42:31.231Z</time>
      </trkpt>
      <trkpt lat="46.91222" lon="8.57021">
        <ele>776</ele>
        <time>2021-08-10T12:42:32.230Z</time>
      </trkpt>
      <trkpt lat="46.91221" lon="8.57018">
        <ele>776</ele>
        <time>2021-08-10T12:42:33.231Z</time>
      </trkpt>
      <trkpt lat="46.91221" lon="8.57017">
        <ele>776</ele>
        <time>2021-08-10T12:42:34.231Z</time>
      </trkpt>
      <trkpt lat="46.91221" lon="8.57016">
        <ele>776</ele>
        <time>2021-08-10T12:42:35.230Z</time>
      </trkpt>
      <trkpt lat="46.9122" lon="8.57015">
        <ele>775</ele>
        <time>2021-08-10T12:42:36.230Z</time>
      </trkpt>
      <trkpt lat="46.9122" lon="8.57014">
        <ele>775</ele>
        <time>2021-08-10T12:42:37.231Z</time>
      </trkpt>
      <trkpt lat="46.9122" lon="8.57012">
        <ele>775</ele>
        <time>2021-08-10T12:42:38.230Z</time>
      </trkpt>
      <trkpt lat="46.91219" lon="8.5701">
        <ele>774</ele>
        <time>2021-08-10T12:42:39.230Z</time>
      </trkpt>
      <trkpt lat="46.91218" lon="8.57009">
        <ele>774</ele>
        <time>2021-08-10T12:42:40.231Z</time>
      </trkpt>
      <trkpt lat="46.91218" lon="8.57007">
        <ele>774</ele>
        <time>2021-08-10T12:42:41.231Z</time>
      </trkpt>
      <trkpt lat="46.91218" lon="8.57006">
        <ele>774</ele>
        <time>2021-08-10T12:42:42.230Z</time>
      </trkpt>
      <trkpt lat="46.91217" lon="8.57005">
        <ele>773</ele>
        <time>2021-08-10T12:42:43.230Z</time>
      </trkpt>
      <trkpt lat="46.91217" lon="8.57004">
        <ele>773</ele>
        <time>2021-08-10T12:42:44.231Z</time>
      </trkpt>
      <trkpt lat="46.91217" lon="8.57002">
        <ele>773</ele>
        <time>2021-08-10T12:42:45.231Z</time>
      </trkpt>
      <trkpt lat="46.91217" lon="8.56999">
        <ele>773</ele>
        <time>2021-08-10T12:42:46.231Z</time>
      </trkpt>
      <trkpt lat="46.91216" lon="8.56996">
        <ele>773</ele>
        <time>2021-08-10T12:42:47.231Z</time>
      </trkpt>
      <trkpt lat="46.91216" lon="8.56994">
        <ele>773</ele>
        <time>2021-08-10T12:42:48.231Z</time>
      </trkpt>
      <trkpt lat="46.91215" lon="8.56992">
        <ele>773</ele>
        <time>2021-08-10T12:42:49.231Z</time>
      </trkpt>
      <trkpt lat="46.91215" lon="8.56991">
        <ele>773</ele>
        <time>2021-08-10T12:42:50.230Z</time>
      </trkpt>
      <trkpt lat="46.91215" lon="8.5699">
        <ele>773</ele>
        <time>2021-08-10T12:42:51.230Z</time>
      </trkpt>
      <trkpt lat="46.91214" lon="8.56988">
        <ele>773</ele>
        <time>2021-08-10T12:42:52.231Z</time>
      </trkpt>
      <trkpt lat="46.91214" lon="8.56987">
        <ele>773</ele>
        <time>2021-08-10T12:42:53.230Z</time>
      </trkpt>
      <trkpt lat="46.91213" lon="8.56985">
        <ele>773</ele>
        <time>2021-08-10T12:42:54.230Z</time>
      </trkpt>
      <trkpt lat="46.91213" lon="8.56983">
        <ele>773</ele>
        <time>2021-08-10T12:42:55.231Z</time>
      </trkpt>
      <trkpt lat="46.91212" lon="8.56982">
        <ele>773</ele>
        <time>2021-08-10T12:42:56.231Z</time>
      </trkpt>
      <trkpt lat="46.91212" lon="8.56978">
        <ele>773</ele>
        <time>2021-08-10T12:42:57.230Z</time>
      </trkpt>
      <trkpt lat="46.91211" lon="8.56976">
        <ele>773</ele>
        <time>2021-08-10T12:42:58.231Z</time>
      </trkpt>
      <trkpt lat="46.91211" lon="8.56974">
        <ele>773</ele>
        <time>2021-08-10T12:42:59.231Z</time>
      </trkpt>
      <trkpt lat="46.9121" lon="8.56973">
        <ele>773</ele>
        <time>2021-08-10T12:43:00.230Z</time>
      </trkpt>
      <trkpt lat="46.9121" lon="8.56972">
        <ele>773</ele>
        <time>2021-08-10T12:43:01.231Z</time>
      </trkpt>
      <trkpt lat="46.91209" lon="8.5697">
        <ele>773</ele>
        <time>2021-08-10T12:43:02.231Z</time>
      </trkpt>
      <trkpt lat="46.91209" lon="8.56969">
        <ele>773</ele>
        <time>2021-08-10T12:43:03.231Z</time>
      </trkpt>
      <trkpt lat="46.91208" lon="8.56967">
        <ele>774</ele>
        <time>2021-08-10T12:43:04.231Z</time>
      </trkpt>
      <trkpt lat="46.91208" lon="8.56966">
        <ele>774</ele>
        <time>2021-08-10T12:43:05.230Z</time>
      </trkpt>
      <trkpt lat="46.91207" lon="8.56965">
        <ele>774</ele>
        <time>2021-08-10T12:43:06.230Z</time>
      </trkpt>
      <trkpt lat="46.91207" lon="8.56963">
        <ele>774</ele>
        <time>2021-08-10T12:43:07.231Z</time>
      </trkpt>
      <trkpt lat="46.91206" lon="8.56962">
        <ele>775</ele>
        <time>2021-08-10T12:43:08.230Z</time>
      </trkpt>
      <trkpt lat="46.91205" lon="8.56961">
        <ele>775</ele>
        <time>2021-08-10T12:43:09.230Z</time>
      </trkpt>
      <trkpt lat="46.91204" lon="8.56959">
        <ele>775</ele>
        <time>2021-08-10T12:43:10.231Z</time>
      </trkpt>
      <trkpt lat="46.91202" lon="8.56957">
        <ele>775</ele>
        <time>2021-08-10T12:43:11.231Z</time>
      </trkpt>
      <trkpt lat="46.91202" lon="8.56954">
        <ele>775</ele>
        <time>2021-08-10T12:43:12.230Z</time>
      </trkpt>
      <trkpt lat="46.912" lon="8.56951">
        <ele>775</ele>
        <time>2021-08-10T12:43:13.231Z</time>
      </trkpt>
      <trkpt lat="46.91199" lon="8.56948">
        <ele>775</ele>
        <time>2021-08-10T12:43:14.231Z</time>
      </trkpt>
      <trkpt lat="46.91197" lon="8.56946">
        <ele>775</ele>
        <time>2021-08-10T12:43:15.230Z</time>
      </trkpt>
      <trkpt lat="46.91197" lon="8.56945">
        <ele>775</ele>
        <time>2021-08-10T12:43:19.353Z</time>
      </trkpt>
      <trkpt lat="46.91196" lon="8.56944">
        <ele>775</ele>
        <time>2021-08-10T12:43:20.354Z</time>
      </trkpt>
      <trkpt lat="46.91195" lon="8.56943">
        <ele>774</ele>
        <time>2021-08-10T12:43:21.354Z</time>
      </trkpt>
      <trkpt lat="46.91194" lon="8.56942">
        <ele>774</ele>
        <time>2021-08-10T12:43:22.354Z</time>
      </trkpt>
      <trkpt lat="46.91194" lon="8.56941">
        <ele>774</ele>
        <time>2021-08-10T12:43:23.354Z</time>
      </trkpt>
      <trkpt lat="46.91193" lon="8.5694">
        <ele>773</ele>
        <time>2021-08-10T12:43:24.354Z</time>
      </trkpt>
      <trkpt lat="46.91193" lon="8.5694">
        <ele>773</ele>
        <time>2021-08-10T12:43:25.354Z</time>
      </trkpt>
      <trkpt lat="46.91192" lon="8.56938">
        <ele>773</ele>
        <time>2021-08-10T12:43:26.354Z</time>
      </trkpt>
      <trkpt lat="46.91191" lon="8.56937">
        <ele>773</ele>
        <time>2021-08-10T12:43:27.354Z</time>
      </trkpt>
      <trkpt lat="46.91191" lon="8.56936">
        <ele>772</ele>
        <time>2021-08-10T12:43:28.353Z</time>
      </trkpt>
      <trkpt lat="46.9119" lon="8.56935">
        <ele>772</ele>
        <time>2021-08-10T12:43:29.354Z</time>
      </trkpt>
      <trkpt lat="46.9119" lon="8.56935">
        <ele>772</ele>
        <time>2021-08-10T12:43:30.354Z</time>
      </trkpt>
      <trkpt lat="46.9119" lon="8.56934">
        <ele>772</ele>
        <time>2021-08-10T12:43:31.354Z</time>
      </trkpt>
      <trkpt lat="46.9119" lon="8.56933">
        <ele>772</ele>
        <time>2021-08-10T12:43:32.354Z</time>
      </trkpt>
      <trkpt lat="46.9119" lon="8.56932">
        <ele>771</ele>
        <time>2021-08-10T12:43:33.353Z</time>
      </trkpt>
      <trkpt lat="46.9119" lon="8.56932">
        <ele>771</ele>
        <time>2021-08-10T12:43:34.354Z</time>
      </trkpt>
      <trkpt lat="46.9119" lon="8.56932">
        <ele>771</ele>
        <time>2021-08-10T12:43:35.354Z</time>
      </trkpt>
      <trkpt lat="46.91188" lon="8.56929">
        <ele>766</ele>
        <time>2021-08-10T12:43:36.355Z</time>
      </trkpt>
      <trkpt lat="46.91187" lon="8.56929">
        <ele>766</ele>
        <time>2021-08-10T12:43:37.355Z</time>
      </trkpt>
      <trkpt lat="46.91188" lon="8.56929">
        <ele>767</ele>
        <time>2021-08-10T12:43:38.355Z</time>
      </trkpt>
      <trkpt lat="46.91188" lon="8.56928">
        <ele>767</ele>
        <time>2021-08-10T12:43:39.355Z</time>
      </trkpt>
      <trkpt lat="46.91188" lon="8.56928">
        <ele>767</ele>
        <time>2021-08-10T12:43:40.354Z</time>
      </trkpt>
      <trkpt lat="46.91188" lon="8.56925">
        <ele>768</ele>
        <time>2021-08-10T12:43:41.355Z</time>
      </trkpt>
      <trkpt lat="46.91188" lon="8.56924">
        <ele>768</ele>
        <time>2021-08-10T12:43:42.355Z</time>
      </trkpt>
      <trkpt lat="46.91188" lon="8.56923">
        <ele>768</ele>
        <time>2021-08-10T12:43:43.355Z</time>
      </trkpt>
      <trkpt lat="46.91188" lon="8.56922">
        <ele>768</ele>
        <time>2021-08-10T12:43:44.355Z</time>
      </trkpt>
      <trkpt lat="46.91187" lon="8.56923">
        <ele>770</ele>
        <time>2021-08-10T12:43:45.355Z</time>
      </trkpt>
      <trkpt lat="46.91187" lon="8.56921">
        <ele>770</ele>
        <time>2021-08-10T12:43:46.355Z</time>
      </trkpt>
      <trkpt lat="46.91187" lon="8.5692">
        <ele>770</ele>
        <time>2021-08-10T12:43:51.359Z</time>
      </trkpt>
      <trkpt lat="46.91187" lon="8.56919">
        <ele>770</ele>
        <time>2021-08-10T12:43:52.358Z</time>
      </trkpt>
      <trkpt lat="46.91187" lon="8.56918">
        <ele>769</ele>
        <time>2021-08-10T12:43:53.358Z</time>
      </trkpt>
      <trkpt lat="46.91187" lon="8.56918">
        <ele>769</ele>
        <time>2021-08-10T12:43:54.359Z</time>
      </trkpt>
      <trkpt lat="46.91187" lon="8.56917">
        <ele>767</ele>
        <time>2021-08-10T12:43:55.358Z</time>
      </trkpt>
      <trkpt lat="46.91187" lon="8.56917">
        <ele>767</ele>
        <time>2021-08-10T12:43:56.359Z</time>
      </trkpt>
      <trkpt lat="46.91187" lon="8.56916">
        <ele>767</ele>
        <time>2021-08-10T12:43:57.358Z</time>
      </trkpt>
      <trkpt lat="46.91187" lon="8.56915">
        <ele>767</ele>
        <time>2021-08-10T12:43:58.359Z</time>
      </trkpt>
      <trkpt lat="46.91187" lon="8.56915">
        <ele>767</ele>
        <time>2021-08-10T12:43:59.359Z</time>
      </trkpt>
      <trkpt lat="46.91187" lon="8.56914">
        <ele>766</ele>
        <time>2021-08-10T12:44:00.358Z</time>
      </trkpt>
      <trkpt lat="46.91188" lon="8.56913">
        <ele>766</ele>
        <time>2021-08-10T12:44:01.359Z</time>
      </trkpt>
      <trkpt lat="46.91189" lon="8.56912">
        <ele>766</ele>
        <time>2021-08-10T12:44:02.359Z</time>
      </trkpt>
      <trkpt lat="46.91189" lon="8.5691">
        <ele>766</ele>
        <time>2021-08-10T12:44:03.358Z</time>
      </trkpt>
      <trkpt lat="46.9119" lon="8.56909">
        <ele>766</ele>
        <time>2021-08-10T12:44:04.358Z</time>
      </trkpt>
      <trkpt lat="46.9119" lon="8.56907">
        <ele>766</ele>
        <time>2021-08-10T12:44:05.358Z</time>
      </trkpt>
      <trkpt lat="46.9119" lon="8.56906">
        <ele>767</ele>
        <time>2021-08-10T12:44:06.359Z</time>
      </trkpt>
      <trkpt lat="46.91189" lon="8.56904">
        <ele>767</ele>
        <time>2021-08-10T12:44:07.359Z</time>
      </trkpt>
      <trkpt lat="46.9119" lon="8.56903">
        <ele>767</ele>
        <time>2021-08-10T12:44:08.359Z</time>
      </trkpt>
      <trkpt lat="46.9119" lon="8.56902">
        <ele>767</ele>
        <time>2021-08-10T12:44:09.359Z</time>
      </trkpt>
      <trkpt lat="46.9119" lon="8.56901">
        <ele>767</ele>
        <time>2021-08-10T12:44:10.359Z</time>
      </trkpt>
      <trkpt lat="46.91191" lon="8.569">
        <ele>767</ele>
        <time>2021-08-10T12:44:11.358Z</time>
      </trkpt>
      <trkpt lat="46.91191" lon="8.569">
        <ele>767</ele>
        <time>2021-08-10T12:44:12.358Z</time>
      </trkpt>
      <trkpt lat="46.91191" lon="8.56899">
        <ele>767</ele>
        <time>2021-08-10T12:44:13.359Z</time>
      </trkpt>
      <trkpt lat="46.91191" lon="8.56898">
        <ele>767</ele>
        <time>2021-08-10T12:44:14.359Z</time>
      </trkpt>
      <trkpt lat="46.91191" lon="8.56896">
        <ele>768</ele>
        <time>2021-08-10T12:44:15.359Z</time>
      </trkpt>
      <trkpt lat="46.91192" lon="8.56896">
        <ele>768</ele>
        <time>2021-08-10T12:44:16.359Z</time>
      </trkpt>
      <trkpt lat="46.91192" lon="8.56895">
        <ele>768</ele>
        <time>2021-08-10T12:44:17.359Z</time>
      </trkpt>
      <trkpt lat="46.91193" lon="8.56894">
        <ele>768</ele>
        <time>2021-08-10T12:44:18.358Z</time>
      </trkpt>
      <trkpt lat="46.91193" lon="8.56893">
        <ele>769</ele>
        <time>2021-08-10T12:44:19.358Z</time>
      </trkpt>
      <trkpt lat="46.91193" lon="8.56891">
        <ele>769</ele>
        <time>2021-08-10T12:44:20.359Z</time>
      </trkpt>
      <trkpt lat="46.91194" lon="8.5689">
        <ele>768</ele>
        <time>2021-08-10T12:44:21.359Z</time>
      </trkpt>
      <trkpt lat="46.91194" lon="8.56888">
        <ele>768</ele>
        <time>2021-08-10T12:44:22.359Z</time>
      </trkpt>
      <trkpt lat="46.91194" lon="8.56888">
        <ele>768</ele>
        <time>2021-08-10T12:44:23.358Z</time>
      </trkpt>
      <trkpt lat="46.91195" lon="8.56887">
        <ele>768</ele>
        <time>2021-08-10T12:44:24.359Z</time>
      </trkpt>
      <trkpt lat="46.91196" lon="8.56887">
        <ele>768</ele>
        <time>2021-08-10T12:44:25.359Z</time>
      </trkpt>
      <trkpt lat="46.91196" lon="8.56887">
        <ele>768</ele>
        <time>2021-08-10T12:44:26.358Z</time>
      </trkpt>
      <trkpt lat="46.91197" lon="8.56887">
        <ele>768</ele>
        <time>2021-08-10T12:44:27.358Z</time>
      </trkpt>
      <trkpt lat="46.91199" lon="8.56887">
        <ele>768</ele>
        <time>2021-08-10T12:44:28.359Z</time>
      </trkpt>
      <trkpt lat="46.91199" lon="8.56886">
        <ele>769</ele>
        <time>2021-08-10T12:44:29.359Z</time>
      </trkpt>
      <trkpt lat="46.912" lon="8.56885">
        <ele>769</ele>
        <time>2021-08-10T12:44:30.358Z</time>
      </trkpt>
      <trkpt lat="46.91201" lon="8.56883">
        <ele>769</ele>
        <time>2021-08-10T12:44:31.359Z</time>
      </trkpt>
      <trkpt lat="46.91201" lon="8.56881">
        <ele>770</ele>
        <time>2021-08-10T12:44:32.359Z</time>
      </trkpt>
      <trkpt lat="46.91201" lon="8.5688">
        <ele>770</ele>
        <time>2021-08-10T12:44:33.359Z</time>
      </trkpt>
      <trkpt lat="46.91201" lon="8.56878">
        <ele>770</ele>
        <time>2021-08-10T12:44:34.358Z</time>
      </trkpt>
      <trkpt lat="46.91201" lon="8.56877">
        <ele>771</ele>
        <time>2021-08-10T12:44:35.359Z</time>
      </trkpt>
      <trkpt lat="46.912" lon="8.56876">
        <ele>772</ele>
        <time>2021-08-10T12:44:36.358Z</time>
      </trkpt>
      <trkpt lat="46.91199" lon="8.56875">
        <ele>772</ele>
        <time>2021-08-10T12:44:37.359Z</time>
      </trkpt>
      <trkpt lat="46.91199" lon="8.56873">
        <ele>772</ele>
        <time>2021-08-10T12:44:38.359Z</time>
      </trkpt>
      <trkpt lat="46.91198" lon="8.56872">
        <ele>773</ele>
        <time>2021-08-10T12:44:39.358Z</time>
      </trkpt>
      <trkpt lat="46.91198" lon="8.56871">
        <ele>773</ele>
        <time>2021-08-10T12:44:40.359Z</time>
      </trkpt>
      <trkpt lat="46.91198" lon="8.56869">
        <ele>774</ele>
        <time>2021-08-10T12:44:41.359Z</time>
      </trkpt>
      <trkpt lat="46.91199" lon="8.56868">
        <ele>774</ele>
        <time>2021-08-10T12:44:42.359Z</time>
      </trkpt>
      <trkpt lat="46.91199" lon="8.56866">
        <ele>775</ele>
        <time>2021-08-10T12:44:43.358Z</time>
      </trkpt>
      <trkpt lat="46.91198" lon="8.56864">
        <ele>775</ele>
        <time>2021-08-10T12:44:44.359Z</time>
      </trkpt>
      <trkpt lat="46.91197" lon="8.56862">
        <ele>775</ele>
        <time>2021-08-10T12:44:45.359Z</time>
      </trkpt>
      <trkpt lat="46.91197" lon="8.56861">
        <ele>776</ele>
        <time>2021-08-10T12:44:46.359Z</time>
      </trkpt>
      <trkpt lat="46.91196" lon="8.56859">
        <ele>776</ele>
        <time>2021-08-10T12:44:47.359Z</time>
      </trkpt>
      <trkpt lat="46.91196" lon="8.56857">
        <ele>776</ele>
        <time>2021-08-10T12:44:48.359Z</time>
      </trkpt>
      <trkpt lat="46.91195" lon="8.56856">
        <ele>776</ele>
        <time>2021-08-10T12:44:49.359Z</time>
      </trkpt>
      <trkpt lat="46.91195" lon="8.56854">
        <ele>777</ele>
        <time>2021-08-10T12:44:50.359Z</time>
      </trkpt>
      <trkpt lat="46.91195" lon="8.56853">
        <ele>777</ele>
        <time>2021-08-10T12:44:51.358Z</time>
      </trkpt>
      <trkpt lat="46.91195" lon="8.56851">
        <ele>777</ele>
        <time>2021-08-10T12:44:52.359Z</time>
      </trkpt>
      <trkpt lat="46.91195" lon="8.5685">
        <ele>777</ele>
        <time>2021-08-10T12:44:53.359Z</time>
      </trkpt>
      <trkpt lat="46.91195" lon="8.56848">
        <ele>777</ele>
        <time>2021-08-10T12:44:54.359Z</time>
      </trkpt>
      <trkpt lat="46.91195" lon="8.56847">
        <ele>778</ele>
        <time>2021-08-10T12:44:55.359Z</time>
      </trkpt>
      <trkpt lat="46.91195" lon="8.56846">
        <ele>778</ele>
        <time>2021-08-10T12:44:56.359Z</time>
      </trkpt>
      <trkpt lat="46.91195" lon="8.56845">
        <ele>778</ele>
        <time>2021-08-10T12:44:57.358Z</time>
      </trkpt>
      <trkpt lat="46.91196" lon="8.56843">
        <ele>778</ele>
        <time>2021-08-10T12:44:58.358Z</time>
      </trkpt>
      <trkpt lat="46.91197" lon="8.56842">
        <ele>778</ele>
        <time>2021-08-10T12:44:59.358Z</time>
      </trkpt>
      <trkpt lat="46.91198" lon="8.56841">
        <ele>778</ele>
        <time>2021-08-10T12:45:00.359Z</time>
      </trkpt>
      <trkpt lat="46.91198" lon="8.56839">
        <ele>778</ele>
        <time>2021-08-10T12:45:01.358Z</time>
      </trkpt>
      <trkpt lat="46.91197" lon="8.56838">
        <ele>778</ele>
        <time>2021-08-10T12:45:02.359Z</time>
      </trkpt>
      <trkpt lat="46.91197" lon="8.56836">
        <ele>778</ele>
        <time>2021-08-10T12:45:03.359Z</time>
      </trkpt>
      <trkpt lat="46.91196" lon="8.56834">
        <ele>778</ele>
        <time>2021-08-10T12:45:04.359Z</time>
      </trkpt>
      <trkpt lat="46.91195" lon="8.56833">
        <ele>778</ele>
        <time>2021-08-10T12:45:05.359Z</time>
      </trkpt>
      <trkpt lat="46.91194" lon="8.56831">
        <ele>778</ele>
        <time>2021-08-10T12:45:06.359Z</time>
      </trkpt>
      <trkpt lat="46.91194" lon="8.5683">
        <ele>778</ele>
        <time>2021-08-10T12:45:07.358Z</time>
      </trkpt>
      <trkpt lat="46.91193" lon="8.56828">
        <ele>777</ele>
        <time>2021-08-10T12:45:08.359Z</time>
      </trkpt>
      <trkpt lat="46.91192" lon="8.56827">
        <ele>777</ele>
        <time>2021-08-10T12:45:09.359Z</time>
      </trkpt>
      <trkpt lat="46.91192" lon="8.56826">
        <ele>778</ele>
        <time>2021-08-10T12:45:10.359Z</time>
      </trkpt>
      <trkpt lat="46.91191" lon="8.56825">
        <ele>778</ele>
        <time>2021-08-10T12:45:11.358Z</time>
      </trkpt>
      <trkpt lat="46.91191" lon="8.56824">
        <ele>778</ele>
        <time>2021-08-10T12:45:12.358Z</time>
      </trkpt>
      <trkpt lat="46.91191" lon="8.56823">
        <ele>778</ele>
        <time>2021-08-10T12:45:13.359Z</time>
      </trkpt>
      <trkpt lat="46.9119" lon="8.56821">
        <ele>779</ele>
        <time>2021-08-10T12:45:14.359Z</time>
      </trkpt>
      <trkpt lat="46.9119" lon="8.5682">
        <ele>779</ele>
        <time>2021-08-10T12:45:15.359Z</time>
      </trkpt>
      <trkpt lat="46.91191" lon="8.56819">
        <ele>779</ele>
        <time>2021-08-10T12:45:16.359Z</time>
      </trkpt>
      <trkpt lat="46.91191" lon="8.56817">
        <ele>780</ele>
        <time>2021-08-10T12:45:17.359Z</time>
      </trkpt>
      <trkpt lat="46.91191" lon="8.56815">
        <ele>780</ele>
        <time>2021-08-10T12:45:18.359Z</time>
      </trkpt>
      <trkpt lat="46.91191" lon="8.56814">
        <ele>780</ele>
        <time>2021-08-10T12:45:19.359Z</time>
      </trkpt>
      <trkpt lat="46.9119" lon="8.56813">
        <ele>781</ele>
        <time>2021-08-10T12:45:20.359Z</time>
      </trkpt>
      <trkpt lat="46.9119" lon="8.56811">
        <ele>781</ele>
        <time>2021-08-10T12:45:21.358Z</time>
      </trkpt>
      <trkpt lat="46.91191" lon="8.5681">
        <ele>782</ele>
        <time>2021-08-10T12:45:22.359Z</time>
      </trkpt>
      <trkpt lat="46.91192" lon="8.56809">
        <ele>782</ele>
        <time>2021-08-10T12:45:23.359Z</time>
      </trkpt>
      <trkpt lat="46.91192" lon="8.56808">
        <ele>783</ele>
        <time>2021-08-10T12:45:24.359Z</time>
      </trkpt>
      <trkpt lat="46.91192" lon="8.56806">
        <ele>783</ele>
        <time>2021-08-10T12:45:25.359Z</time>
      </trkpt>
      <trkpt lat="46.91192" lon="8.56806">
        <ele>783</ele>
        <time>2021-08-10T12:45:26.359Z</time>
      </trkpt>
      <trkpt lat="46.91192" lon="8.56805">
        <ele>783</ele>
        <time>2021-08-10T12:45:27.358Z</time>
      </trkpt>
      <trkpt lat="46.91193" lon="8.56804">
        <ele>783</ele>
        <time>2021-08-10T12:45:28.359Z</time>
      </trkpt>
      <trkpt lat="46.91193" lon="8.56803">
        <ele>783</ele>
        <time>2021-08-10T12:45:29.358Z</time>
      </trkpt>
      <trkpt lat="46.91192" lon="8.56802">
        <ele>784</ele>
        <time>2021-08-10T12:45:30.359Z</time>
      </trkpt>
      <trkpt lat="46.91192" lon="8.56801">
        <ele>784</ele>
        <time>2021-08-10T12:45:31.359Z</time>
      </trkpt>
      <trkpt lat="46.91192" lon="8.56801">
        <ele>784</ele>
        <time>2021-08-10T12:45:32.359Z</time>
      </trkpt>
      <trkpt lat="46.91192" lon="8.568">
        <ele>784</ele>
        <time>2021-08-10T12:45:33.358Z</time>
      </trkpt>
      <trkpt lat="46.91192" lon="8.56798">
        <ele>784</ele>
        <time>2021-08-10T12:45:40.378Z</time>
      </trkpt>
      <trkpt lat="46.91191" lon="8.56796">
        <ele>784</ele>
        <time>2021-08-10T12:45:41.378Z</time>
      </trkpt>
      <trkpt lat="46.91191" lon="8.56795">
        <ele>784</ele>
        <time>2021-08-10T12:45:42.378Z</time>
      </trkpt>
      <trkpt lat="46.9119" lon="8.56794">
        <ele>783</ele>
        <time>2021-08-10T12:45:43.377Z</time>
      </trkpt>
      <trkpt lat="46.91189" lon="8.56793">
        <ele>783</ele>
        <time>2021-08-10T12:45:44.377Z</time>
      </trkpt>
      <trkpt lat="46.91189" lon="8.56792">
        <ele>783</ele>
        <time>2021-08-10T12:45:45.378Z</time>
      </trkpt>
      <trkpt lat="46.91188" lon="8.56791">
        <ele>782</ele>
        <time>2021-08-10T12:45:46.377Z</time>
      </trkpt>
      <trkpt lat="46.91188" lon="8.5679">
        <ele>782</ele>
        <time>2021-08-10T12:45:54.494Z</time>
      </trkpt>
      <trkpt lat="46.91187" lon="8.56787">
        <ele>782</ele>
        <time>2021-08-10T12:45:55.494Z</time>
      </trkpt>
      <trkpt lat="46.91187" lon="8.56786">
        <ele>782</ele>
        <time>2021-08-10T12:45:56.494Z</time>
      </trkpt>
      <trkpt lat="46.91187" lon="8.56784">
        <ele>783</ele>
        <time>2021-08-10T12:45:57.493Z</time>
      </trkpt>
      <trkpt lat="46.91187" lon="8.56783">
        <ele>783</ele>
        <time>2021-08-10T12:45:58.494Z</time>
      </trkpt>
      <trkpt lat="46.91187" lon="8.56782">
        <ele>783</ele>
        <time>2021-08-10T12:45:59.494Z</time>
      </trkpt>
      <trkpt lat="46.91186" lon="8.5678">
        <ele>783</ele>
        <time>2021-08-10T12:46:00.494Z</time>
      </trkpt>
      <trkpt lat="46.91186" lon="8.56779">
        <ele>782</ele>
        <time>2021-08-10T12:46:01.494Z</time>
      </trkpt>
      <trkpt lat="46.91186" lon="8.56778">
        <ele>782</ele>
        <time>2021-08-10T12:46:02.494Z</time>
      </trkpt>
      <trkpt lat="46.91186" lon="8.56776">
        <ele>782</ele>
        <time>2021-08-10T12:46:03.494Z</time>
      </trkpt>
      <trkpt lat="46.91185" lon="8.56774">
        <ele>782</ele>
        <time>2021-08-10T12:46:04.494Z</time>
      </trkpt>
      <trkpt lat="46.91184" lon="8.56773">
        <ele>782</ele>
        <time>2021-08-10T12:46:05.493Z</time>
      </trkpt>
      <trkpt lat="46.91183" lon="8.56772">
        <ele>782</ele>
        <time>2021-08-10T12:46:06.493Z</time>
      </trkpt>
      <trkpt lat="46.91183" lon="8.56771">
        <ele>782</ele>
        <time>2021-08-10T12:46:07.493Z</time>
      </trkpt>
      <trkpt lat="46.91183" lon="8.56769">
        <ele>783</ele>
        <time>2021-08-10T12:46:08.493Z</time>
      </trkpt>
      <trkpt lat="46.91183" lon="8.56768">
        <ele>783</ele>
        <time>2021-08-10T12:46:09.494Z</time>
      </trkpt>
      <trkpt lat="46.91182" lon="8.56767">
        <ele>783</ele>
        <time>2021-08-10T12:46:10.493Z</time>
      </trkpt>
      <trkpt lat="46.91181" lon="8.56766">
        <ele>783</ele>
        <time>2021-08-10T12:46:11.494Z</time>
      </trkpt>
      <trkpt lat="46.91179" lon="8.56764">
        <ele>783</ele>
        <time>2021-08-10T12:46:12.493Z</time>
      </trkpt>
      <trkpt lat="46.91178" lon="8.56763">
        <ele>783</ele>
        <time>2021-08-10T12:46:13.494Z</time>
      </trkpt>
      <trkpt lat="46.91177" lon="8.56761">
        <ele>783</ele>
        <time>2021-08-10T12:46:14.494Z</time>
      </trkpt>
      <trkpt lat="46.91176" lon="8.56761">
        <ele>783</ele>
        <time>2021-08-10T12:46:15.494Z</time>
      </trkpt>
      <trkpt lat="46.91175" lon="8.5676">
        <ele>783</ele>
        <time>2021-08-10T12:46:16.494Z</time>
      </trkpt>
      <trkpt lat="46.91174" lon="8.56759">
        <ele>783</ele>
        <time>2021-08-10T12:46:17.494Z</time>
      </trkpt>
      <trkpt lat="46.91173" lon="8.56758">
        <ele>783</ele>
        <time>2021-08-10T12:46:18.494Z</time>
      </trkpt>
      <trkpt lat="46.91172" lon="8.56757">
        <ele>784</ele>
        <time>2021-08-10T12:46:19.494Z</time>
      </trkpt>
      <trkpt lat="46.91171" lon="8.56756">
        <ele>784</ele>
        <time>2021-08-10T12:46:20.493Z</time>
      </trkpt>
      <trkpt lat="46.9117" lon="8.56754">
        <ele>783</ele>
        <time>2021-08-10T12:46:21.494Z</time>
      </trkpt>
      <trkpt lat="46.91169" lon="8.56752">
        <ele>783</ele>
        <time>2021-08-10T12:46:22.494Z</time>
      </trkpt>
      <trkpt lat="46.91168" lon="8.5675">
        <ele>783</ele>
        <time>2021-08-10T12:46:23.494Z</time>
      </trkpt>
      <trkpt lat="46.91167" lon="8.56748">
        <ele>783</ele>
        <time>2021-08-10T12:46:24.493Z</time>
      </trkpt>
      <trkpt lat="46.91166" lon="8.56746">
        <ele>783</ele>
        <time>2021-08-10T12:46:25.494Z</time>
      </trkpt>
      <trkpt lat="46.91164" lon="8.56745">
        <ele>783</ele>
        <time>2021-08-10T12:46:26.494Z</time>
      </trkpt>
      <trkpt lat="46.91164" lon="8.56745">
        <ele>782</ele>
        <time>2021-08-10T12:46:27.494Z</time>
      </trkpt>
      <trkpt lat="46.91163" lon="8.56744">
        <ele>782</ele>
        <time>2021-08-10T12:46:29.583Z</time>
      </trkpt>
      <trkpt lat="46.91162" lon="8.56743">
        <ele>782</ele>
        <time>2021-08-10T12:46:30.584Z</time>
      </trkpt>
      <trkpt lat="46.9116" lon="8.56742">
        <ele>782</ele>
        <time>2021-08-10T12:46:31.584Z</time>
      </trkpt>
      <trkpt lat="46.9116" lon="8.56741">
        <ele>782</ele>
        <time>2021-08-10T12:46:32.584Z</time>
      </trkpt>
      <trkpt lat="46.91159" lon="8.5674">
        <ele>783</ele>
        <time>2021-08-10T12:46:33.584Z</time>
      </trkpt>
      <trkpt lat="46.91158" lon="8.56738">
        <ele>783</ele>
        <time>2021-08-10T12:46:34.584Z</time>
      </trkpt>
      <trkpt lat="46.91157" lon="8.56736">
        <ele>783</ele>
        <time>2021-08-10T12:46:35.583Z</time>
      </trkpt>
      <trkpt lat="46.91157" lon="8.56735">
        <ele>783</ele>
        <time>2021-08-10T12:46:36.583Z</time>
      </trkpt>
      <trkpt lat="46.91157" lon="8.56734">
        <ele>783</ele>
        <time>2021-08-10T12:46:37.583Z</time>
      </trkpt>
      <trkpt lat="46.91157" lon="8.56732">
        <ele>784</ele>
        <time>2021-08-10T12:46:38.584Z</time>
      </trkpt>
      <trkpt lat="46.91157" lon="8.56731">
        <ele>785</ele>
        <time>2021-08-10T12:46:39.583Z</time>
      </trkpt>
      <trkpt lat="46.91156" lon="8.56729">
        <ele>785</ele>
        <time>2021-08-10T12:46:40.583Z</time>
      </trkpt>
      <trkpt lat="46.91156" lon="8.56728">
        <ele>786</ele>
        <time>2021-08-10T12:46:41.583Z</time>
      </trkpt>
      <trkpt lat="46.91156" lon="8.56726">
        <ele>786</ele>
        <time>2021-08-10T12:46:42.583Z</time>
      </trkpt>
      <trkpt lat="46.91156" lon="8.56725">
        <ele>786</ele>
        <time>2021-08-10T12:46:43.584Z</time>
      </trkpt>
      <trkpt lat="46.91156" lon="8.56724">
        <ele>787</ele>
        <time>2021-08-10T12:46:44.584Z</time>
      </trkpt>
      <trkpt lat="46.91155" lon="8.56723">
        <ele>787</ele>
        <time>2021-08-10T12:46:45.584Z</time>
      </trkpt>
      <trkpt lat="46.91155" lon="8.56722">
        <ele>787</ele>
        <time>2021-08-10T12:46:46.583Z</time>
      </trkpt>
      <trkpt lat="46.91154" lon="8.5672">
        <ele>787</ele>
        <time>2021-08-10T12:46:47.584Z</time>
      </trkpt>
      <trkpt lat="46.91153" lon="8.56719">
        <ele>787</ele>
        <time>2021-08-10T12:46:48.583Z</time>
      </trkpt>
      <trkpt lat="46.91152" lon="8.56718">
        <ele>787</ele>
        <time>2021-08-10T12:46:49.584Z</time>
      </trkpt>
      <trkpt lat="46.91152" lon="8.56716">
        <ele>788</ele>
        <time>2021-08-10T12:46:50.584Z</time>
      </trkpt>
      <trkpt lat="46.91151" lon="8.56715">
        <ele>788</ele>
        <time>2021-08-10T12:46:51.584Z</time>
      </trkpt>
      <trkpt lat="46.91151" lon="8.56714">
        <ele>787</ele>
        <time>2021-08-10T12:46:52.583Z</time>
      </trkpt>
      <trkpt lat="46.9115" lon="8.56713">
        <ele>787</ele>
        <time>2021-08-10T12:46:53.584Z</time>
      </trkpt>
      <trkpt lat="46.9115" lon="8.56712">
        <ele>788</ele>
        <time>2021-08-10T12:46:54.583Z</time>
      </trkpt>
      <trkpt lat="46.9115" lon="8.5671">
        <ele>788</ele>
        <time>2021-08-10T12:46:55.583Z</time>
      </trkpt>
      <trkpt lat="46.91149" lon="8.56709">
        <ele>788</ele>
        <time>2021-08-10T12:46:56.583Z</time>
      </trkpt>
      <trkpt lat="46.91149" lon="8.56708">
        <ele>787</ele>
        <time>2021-08-10T12:46:57.584Z</time>
      </trkpt>
      <trkpt lat="46.91149" lon="8.56707">
        <ele>787</ele>
        <time>2021-08-10T12:46:58.584Z</time>
      </trkpt>
      <trkpt lat="46.91148" lon="8.56705">
        <ele>788</ele>
        <time>2021-08-10T12:46:59.584Z</time>
      </trkpt>
      <trkpt lat="46.91148" lon="8.56703">
        <ele>788</ele>
        <time>2021-08-10T12:47:00.584Z</time>
      </trkpt>
      <trkpt lat="46.91147" lon="8.56702">
        <ele>788</ele>
        <time>2021-08-10T12:47:01.584Z</time>
      </trkpt>
      <trkpt lat="46.91147" lon="8.567">
        <ele>789</ele>
        <time>2021-08-10T12:47:02.584Z</time>
      </trkpt>
      <trkpt lat="46.91146" lon="8.56698">
        <ele>789</ele>
        <time>2021-08-10T12:47:03.584Z</time>
      </trkpt>
      <trkpt lat="46.91146" lon="8.56697">
        <ele>790</ele>
        <time>2021-08-10T12:47:04.584Z</time>
      </trkpt>
      <trkpt lat="46.91145" lon="8.56695">
        <ele>790</ele>
        <time>2021-08-10T12:47:05.584Z</time>
      </trkpt>
      <trkpt lat="46.91144" lon="8.56693">
        <ele>790</ele>
        <time>2021-08-10T12:47:06.584Z</time>
      </trkpt>
      <trkpt lat="46.91143" lon="8.56691">
        <ele>790</ele>
        <time>2021-08-10T12:47:07.584Z</time>
      </trkpt>
      <trkpt lat="46.91142" lon="8.56689">
        <ele>790</ele>
        <time>2021-08-10T12:47:08.584Z</time>
      </trkpt>
      <trkpt lat="46.91141" lon="8.56688">
        <ele>790</ele>
        <time>2021-08-10T12:47:09.583Z</time>
      </trkpt>
      <trkpt lat="46.91141" lon="8.56686">
        <ele>789</ele>
        <time>2021-08-10T12:47:11.710Z</time>
      </trkpt>
      <trkpt lat="46.9114" lon="8.56684">
        <ele>789</ele>
        <time>2021-08-10T12:47:12.709Z</time>
      </trkpt>
      <trkpt lat="46.91139" lon="8.56683">
        <ele>789</ele>
        <time>2021-08-10T12:47:13.710Z</time>
      </trkpt>
      <trkpt lat="46.91139" lon="8.56682">
        <ele>788</ele>
        <time>2021-08-10T12:47:14.710Z</time>
      </trkpt>
      <trkpt lat="46.91138" lon="8.56681">
        <ele>788</ele>
        <time>2021-08-10T12:47:15.709Z</time>
      </trkpt>
      <trkpt lat="46.91138" lon="8.56681">
        <ele>787</ele>
        <time>2021-08-10T12:47:16.710Z</time>
      </trkpt>
      <trkpt lat="46.91137" lon="8.5668">
        <ele>787</ele>
        <time>2021-08-10T12:47:17.710Z</time>
      </trkpt>
      <trkpt lat="46.91136" lon="8.56679">
        <ele>787</ele>
        <time>2021-08-10T12:47:18.710Z</time>
      </trkpt>
      <trkpt lat="46.91135" lon="8.56678">
        <ele>786</ele>
        <time>2021-08-10T12:47:19.710Z</time>
      </trkpt>
      <trkpt lat="46.91135" lon="8.56677">
        <ele>786</ele>
        <time>2021-08-10T12:47:20.710Z</time>
      </trkpt>
      <trkpt lat="46.91134" lon="8.56676">
        <ele>786</ele>
        <time>2021-08-10T12:47:21.709Z</time>
      </trkpt>
      <trkpt lat="46.91134" lon="8.56675">
        <ele>786</ele>
        <time>2021-08-10T12:47:22.710Z</time>
      </trkpt>
      <trkpt lat="46.91134" lon="8.56674">
        <ele>786</ele>
        <time>2021-08-10T12:47:23.710Z</time>
      </trkpt>
      <trkpt lat="46.91134" lon="8.56673">
        <ele>785</ele>
        <time>2021-08-10T12:47:24.710Z</time>
      </trkpt>
      <trkpt lat="46.91133" lon="8.56672">
        <ele>785</ele>
        <time>2021-08-10T12:47:25.710Z</time>
      </trkpt>
      <trkpt lat="46.91133" lon="8.56671">
        <ele>785</ele>
        <time>2021-08-10T12:47:26.710Z</time>
      </trkpt>
      <trkpt lat="46.91132" lon="8.5667">
        <ele>785</ele>
        <time>2021-08-10T12:47:30.874Z</time>
      </trkpt>
      <trkpt lat="46.91131" lon="8.56668">
        <ele>785</ele>
        <time>2021-08-10T12:47:31.873Z</time>
      </trkpt>
      <trkpt lat="46.91131" lon="8.56667">
        <ele>784</ele>
        <time>2021-08-10T12:47:32.874Z</time>
      </trkpt>
      <trkpt lat="46.91131" lon="8.56665">
        <ele>784</ele>
        <time>2021-08-10T12:47:33.874Z</time>
      </trkpt>
      <trkpt lat="46.91131" lon="8.56663">
        <ele>784</ele>
        <time>2021-08-10T12:47:34.874Z</time>
      </trkpt>
      <trkpt lat="46.91131" lon="8.56662">
        <ele>784</ele>
        <time>2021-08-10T12:47:35.874Z</time>
      </trkpt>
      <trkpt lat="46.9113" lon="8.56661">
        <ele>783</ele>
        <time>2021-08-10T12:47:36.873Z</time>
      </trkpt>
      <trkpt lat="46.9113" lon="8.56659">
        <ele>783</ele>
        <time>2021-08-10T12:47:37.874Z</time>
      </trkpt>
      <trkpt lat="46.91129" lon="8.56657">
        <ele>782</ele>
        <time>2021-08-10T12:47:38.874Z</time>
      </trkpt>
      <trkpt lat="46.91129" lon="8.56655">
        <ele>782</ele>
        <time>2021-08-10T12:47:39.874Z</time>
      </trkpt>
      <trkpt lat="46.91128" lon="8.56657">
        <ele>782</ele>
        <time>2021-08-10T12:47:40.874Z</time>
      </trkpt>
      <trkpt lat="46.91128" lon="8.56659">
        <ele>781</ele>
        <time>2021-08-10T12:47:41.874Z</time>
      </trkpt>
      <trkpt lat="46.91128" lon="8.56661">
        <ele>781</ele>
        <time>2021-08-10T12:47:42.874Z</time>
      </trkpt>
      <trkpt lat="46.91128" lon="8.56659">
        <ele>779</ele>
        <time>2021-08-10T12:47:43.874Z</time>
      </trkpt>
      <trkpt lat="46.91128" lon="8.56658">
        <ele>779</ele>
        <time>2021-08-10T12:47:44.874Z</time>
      </trkpt>
      <trkpt lat="46.91128" lon="8.56657">
        <ele>779</ele>
        <time>2021-08-10T12:47:45.873Z</time>
      </trkpt>
      <trkpt lat="46.91127" lon="8.56655">
        <ele>778</ele>
        <time>2021-08-10T12:47:46.873Z</time>
      </trkpt>
      <trkpt lat="46.91127" lon="8.56654">
        <ele>778</ele>
        <time>2021-08-10T12:47:47.873Z</time>
      </trkpt>
      <trkpt lat="46.91127" lon="8.56652">
        <ele>778</ele>
        <time>2021-08-10T12:47:48.874Z</time>
      </trkpt>
      <trkpt lat="46.91127" lon="8.56651">
        <ele>778</ele>
        <time>2021-08-10T12:47:49.874Z</time>
      </trkpt>
      <trkpt lat="46.91126" lon="8.5665">
        <ele>778</ele>
        <time>2021-08-10T12:47:50.873Z</time>
      </trkpt>
      <trkpt lat="46.91127" lon="8.56648">
        <ele>778</ele>
        <time>2021-08-10T12:47:55.980Z</time>
      </trkpt>
      <trkpt lat="46.91126" lon="8.56647">
        <ele>778</ele>
        <time>2021-08-10T12:47:56.979Z</time>
      </trkpt>
      <trkpt lat="46.91125" lon="8.56645">
        <ele>778</ele>
        <time>2021-08-10T12:47:57.980Z</time>
      </trkpt>
      <trkpt lat="46.91124" lon="8.56643">
        <ele>778</ele>
        <time>2021-08-10T12:47:58.980Z</time>
      </trkpt>
      <trkpt lat="46.91124" lon="8.56641">
        <ele>779</ele>
        <time>2021-08-10T12:47:59.979Z</time>
      </trkpt>
      <trkpt lat="46.91123" lon="8.5664">
        <ele>779</ele>
        <time>2021-08-10T12:48:00.979Z</time>
      </trkpt>
      <trkpt lat="46.91123" lon="8.56638">
        <ele>779</ele>
        <time>2021-08-10T12:48:01.980Z</time>
      </trkpt>
      <trkpt lat="46.91123" lon="8.56637">
        <ele>779</ele>
        <time>2021-08-10T12:48:02.979Z</time>
      </trkpt>
      <trkpt lat="46.91123" lon="8.56637">
        <ele>778</ele>
        <time>2021-08-10T12:48:03.980Z</time>
      </trkpt>
      <trkpt lat="46.91123" lon="8.56636">
        <ele>778</ele>
        <time>2021-08-10T12:48:04.980Z</time>
      </trkpt>
      <trkpt lat="46.91123" lon="8.56635">
        <ele>778</ele>
        <time>2021-08-10T12:48:05.980Z</time>
      </trkpt>
      <trkpt lat="46.91123" lon="8.56633">
        <ele>777</ele>
        <time>2021-08-10T12:48:06.979Z</time>
      </trkpt>
      <trkpt lat="46.91123" lon="8.56632">
        <ele>777</ele>
        <time>2021-08-10T12:48:07.979Z</time>
      </trkpt>
      <trkpt lat="46.91123" lon="8.5663">
        <ele>777</ele>
        <time>2021-08-10T12:48:08.979Z</time>
      </trkpt>
      <trkpt lat="46.91124" lon="8.56629">
        <ele>776</ele>
        <time>2021-08-10T12:48:09.979Z</time>
      </trkpt>
      <trkpt lat="46.91123" lon="8.56627">
        <ele>776</ele>
        <time>2021-08-10T12:48:10.979Z</time>
      </trkpt>
      <trkpt lat="46.91123" lon="8.56625">
        <ele>775</ele>
        <time>2021-08-10T12:48:11.980Z</time>
      </trkpt>
      <trkpt lat="46.91123" lon="8.56624">
        <ele>775</ele>
        <time>2021-08-10T12:48:12.979Z</time>
      </trkpt>
      <trkpt lat="46.91123" lon="8.56623">
        <ele>775</ele>
        <time>2021-08-10T12:48:13.980Z</time>
      </trkpt>
      <trkpt lat="46.91123" lon="8.56621">
        <ele>775</ele>
        <time>2021-08-10T12:48:14.979Z</time>
      </trkpt>
      <trkpt lat="46.91122" lon="8.56619">
        <ele>774</ele>
        <time>2021-08-10T12:48:15.980Z</time>
      </trkpt>
      <trkpt lat="46.91122" lon="8.56617">
        <ele>773</ele>
        <time>2021-08-10T12:48:16.980Z</time>
      </trkpt>
      <trkpt lat="46.91121" lon="8.56615">
        <ele>773</ele>
        <time>2021-08-10T12:48:17.979Z</time>
      </trkpt>
      <trkpt lat="46.91121" lon="8.56613">
        <ele>772</ele>
        <time>2021-08-10T12:48:18.980Z</time>
      </trkpt>
      <trkpt lat="46.91121" lon="8.56612">
        <ele>771</ele>
        <time>2021-08-10T12:48:19.980Z</time>
      </trkpt>
      <trkpt lat="46.91121" lon="8.56611">
        <ele>770</ele>
        <time>2021-08-10T12:48:20.980Z</time>
      </trkpt>
      <trkpt lat="46.91121" lon="8.5661">
        <ele>769</ele>
        <time>2021-08-10T12:48:21.980Z</time>
      </trkpt>
      <trkpt lat="46.91121" lon="8.56609">
        <ele>768</ele>
        <time>2021-08-10T12:48:22.980Z</time>
      </trkpt>
      <trkpt lat="46.91121" lon="8.56609">
        <ele>767</ele>
        <time>2021-08-10T12:48:23.979Z</time>
      </trkpt>
      <trkpt lat="46.91122" lon="8.56608">
        <ele>766</ele>
        <time>2021-08-10T12:48:24.979Z</time>
      </trkpt>
      <trkpt lat="46.91122" lon="8.56607">
        <ele>765</ele>
        <time>2021-08-10T12:48:27.104Z</time>
      </trkpt>
      <trkpt lat="46.91121" lon="8.56606">
        <ele>765</ele>
        <time>2021-08-10T12:48:28.831Z</time>
      </trkpt>
      <trkpt lat="46.91121" lon="8.56605">
        <ele>765</ele>
        <time>2021-08-10T12:48:29.832Z</time>
      </trkpt>
      <trkpt lat="46.91121" lon="8.56604">
        <ele>765</ele>
        <time>2021-08-10T12:48:30.832Z</time>
      </trkpt>
      <trkpt lat="46.91121" lon="8.56604">
        <ele>766</ele>
        <time>2021-08-10T12:48:31.832Z</time>
      </trkpt>
      <trkpt lat="46.91121" lon="8.56603">
        <ele>766</ele>
        <time>2021-08-10T12:48:32.831Z</time>
      </trkpt>
      <trkpt lat="46.9112" lon="8.56602">
        <ele>766</ele>
        <time>2021-08-10T12:48:33.831Z</time>
      </trkpt>
      <trkpt lat="46.91119" lon="8.566">
        <ele>767</ele>
        <time>2021-08-10T12:48:34.832Z</time>
      </trkpt>
      <trkpt lat="46.91119" lon="8.56597">
        <ele>767</ele>
        <time>2021-08-10T12:48:35.832Z</time>
      </trkpt>
      <trkpt lat="46.91118" lon="8.56596">
        <ele>768</ele>
        <time>2021-08-10T12:48:36.831Z</time>
      </trkpt>
      <trkpt lat="46.91117" lon="8.56595">
        <ele>768</ele>
        <time>2021-08-10T12:48:37.832Z</time>
      </trkpt>
      <trkpt lat="46.91117" lon="8.56593">
        <ele>768</ele>
        <time>2021-08-10T12:48:38.832Z</time>
      </trkpt>
      <trkpt lat="46.91117" lon="8.56591">
        <ele>769</ele>
        <time>2021-08-10T12:48:39.832Z</time>
      </trkpt>
      <trkpt lat="46.91117" lon="8.5659">
        <ele>769</ele>
        <time>2021-08-10T12:48:40.832Z</time>
      </trkpt>
      <trkpt lat="46.91116" lon="8.56589">
        <ele>770</ele>
        <time>2021-08-10T12:48:41.831Z</time>
      </trkpt>
      <trkpt lat="46.91116" lon="8.56587">
        <ele>771</ele>
        <time>2021-08-10T12:48:42.832Z</time>
      </trkpt>
      <trkpt lat="46.91116" lon="8.56586">
        <ele>771</ele>
        <time>2021-08-10T12:48:43.832Z</time>
      </trkpt>
      <trkpt lat="46.91116" lon="8.56583">
        <ele>771</ele>
        <time>2021-08-10T12:48:44.831Z</time>
      </trkpt>
      <trkpt lat="46.91116" lon="8.56581">
        <ele>772</ele>
        <time>2021-08-10T12:48:45.831Z</time>
      </trkpt>
      <trkpt lat="46.91115" lon="8.56579">
        <ele>772</ele>
        <time>2021-08-10T12:48:46.831Z</time>
      </trkpt>
      <trkpt lat="46.91114" lon="8.56577">
        <ele>772</ele>
        <time>2021-08-10T12:48:47.831Z</time>
      </trkpt>
      <trkpt lat="46.91113" lon="8.56575">
        <ele>772</ele>
        <time>2021-08-10T12:48:48.832Z</time>
      </trkpt>
      <trkpt lat="46.91113" lon="8.56574">
        <ele>773</ele>
        <time>2021-08-10T12:48:49.831Z</time>
      </trkpt>
      <trkpt lat="46.91113" lon="8.56572">
        <ele>773</ele>
        <time>2021-08-10T12:48:50.832Z</time>
      </trkpt>
      <trkpt lat="46.91113" lon="8.56571">
        <ele>773</ele>
        <time>2021-08-10T12:48:51.832Z</time>
      </trkpt>
      <trkpt lat="46.91114" lon="8.56569">
        <ele>774</ele>
        <time>2021-08-10T12:48:52.832Z</time>
      </trkpt>
      <trkpt lat="46.91114" lon="8.56569">
        <ele>774</ele>
        <time>2021-08-10T12:48:53.831Z</time>
      </trkpt>
      <trkpt lat="46.91114" lon="8.56568">
        <ele>774</ele>
        <time>2021-08-10T12:48:54.832Z</time>
      </trkpt>
      <trkpt lat="46.91114" lon="8.56567">
        <ele>775</ele>
        <time>2021-08-10T12:48:55.831Z</time>
      </trkpt>
      <trkpt lat="46.91113" lon="8.56566">
        <ele>775</ele>
        <time>2021-08-10T12:48:56.832Z</time>
      </trkpt>
      <trkpt lat="46.91113" lon="8.56565">
        <ele>775</ele>
        <time>2021-08-10T12:48:57.831Z</time>
      </trkpt>
      <trkpt lat="46.91112" lon="8.56563">
        <ele>775</ele>
        <time>2021-08-10T12:48:58.832Z</time>
      </trkpt>
      <trkpt lat="46.91112" lon="8.56562">
        <ele>775</ele>
        <time>2021-08-10T12:48:59.832Z</time>
      </trkpt>
      <trkpt lat="46.91112" lon="8.56561">
        <ele>774</ele>
        <time>2021-08-10T12:49:00.831Z</time>
      </trkpt>
      <trkpt lat="46.91111" lon="8.56559">
        <ele>774</ele>
        <time>2021-08-10T12:49:01.832Z</time>
      </trkpt>
      <trkpt lat="46.91111" lon="8.56558">
        <ele>774</ele>
        <time>2021-08-10T12:49:02.832Z</time>
      </trkpt>
      <trkpt lat="46.9111" lon="8.56556">
        <ele>774</ele>
        <time>2021-08-10T12:49:03.831Z</time>
      </trkpt>
      <trkpt lat="46.91109" lon="8.56555">
        <ele>774</ele>
        <time>2021-08-10T12:49:04.832Z</time>
      </trkpt>
      <trkpt lat="46.91108" lon="8.56554">
        <ele>774</ele>
        <time>2021-08-10T12:49:05.831Z</time>
      </trkpt>
      <trkpt lat="46.91107" lon="8.56552">
        <ele>774</ele>
        <time>2021-08-10T12:49:06.831Z</time>
      </trkpt>
      <trkpt lat="46.91107" lon="8.56551">
        <ele>774</ele>
        <time>2021-08-10T12:49:07.832Z</time>
      </trkpt>
      <trkpt lat="46.91106" lon="8.5655">
        <ele>774</ele>
        <time>2021-08-10T12:49:08.832Z</time>
      </trkpt>
      <trkpt lat="46.91106" lon="8.56548">
        <ele>774</ele>
        <time>2021-08-10T12:49:09.831Z</time>
      </trkpt>
      <trkpt lat="46.91106" lon="8.56547">
        <ele>774</ele>
        <time>2021-08-10T12:49:10.832Z</time>
      </trkpt>
      <trkpt lat="46.91105" lon="8.56546">
        <ele>773</ele>
        <time>2021-08-10T12:49:11.831Z</time>
      </trkpt>
      <trkpt lat="46.91105" lon="8.56546">
        <ele>773</ele>
        <time>2021-08-10T12:49:19.854Z</time>
      </trkpt>
      <trkpt lat="46.91104" lon="8.56545">
        <ele>772</ele>
        <time>2021-08-10T12:49:20.853Z</time>
      </trkpt>
      <trkpt lat="46.91104" lon="8.56543">
        <ele>772</ele>
        <time>2021-08-10T12:49:21.854Z</time>
      </trkpt>
      <trkpt lat="46.91103" lon="8.56541">
        <ele>771</ele>
        <time>2021-08-10T12:49:22.854Z</time>
      </trkpt>
      <trkpt lat="46.91101" lon="8.56539">
        <ele>770</ele>
        <time>2021-08-10T12:49:23.854Z</time>
      </trkpt>
      <trkpt lat="46.911" lon="8.56537">
        <ele>770</ele>
        <time>2021-08-10T12:49:24.853Z</time>
      </trkpt>
      <trkpt lat="46.91099" lon="8.56536">
        <ele>769</ele>
        <time>2021-08-10T12:49:25.854Z</time>
      </trkpt>
      <trkpt lat="46.91099" lon="8.56535">
        <ele>769</ele>
        <time>2021-08-10T12:49:26.853Z</time>
      </trkpt>
      <trkpt lat="46.91099" lon="8.56535">
        <ele>768</ele>
        <time>2021-08-10T12:49:27.854Z</time>
      </trkpt>
      <trkpt lat="46.91099" lon="8.56533">
        <ele>767</ele>
        <time>2021-08-10T12:49:28.854Z</time>
      </trkpt>
      <trkpt lat="46.91099" lon="8.56532">
        <ele>766</ele>
        <time>2021-08-10T12:49:29.853Z</time>
      </trkpt>
      <trkpt lat="46.91099" lon="8.56531">
        <ele>766</ele>
        <time>2021-08-10T12:49:30.853Z</time>
      </trkpt>
      <trkpt lat="46.91099" lon="8.5653">
        <ele>765</ele>
        <time>2021-08-10T12:49:31.853Z</time>
      </trkpt>
      <trkpt lat="46.91099" lon="8.56529">
        <ele>765</ele>
        <time>2021-08-10T12:49:32.854Z</time>
      </trkpt>
      <trkpt lat="46.91098" lon="8.56528">
        <ele>765</ele>
        <time>2021-08-10T12:49:33.853Z</time>
      </trkpt>
      <trkpt lat="46.91098" lon="8.56526">
        <ele>765</ele>
        <time>2021-08-10T12:49:34.853Z</time>
      </trkpt>
      <trkpt lat="46.91098" lon="8.56525">
        <ele>765</ele>
        <time>2021-08-10T12:49:35.854Z</time>
      </trkpt>
      <trkpt lat="46.91097" lon="8.56524">
        <ele>765</ele>
        <time>2021-08-10T12:49:36.854Z</time>
      </trkpt>
      <trkpt lat="46.91097" lon="8.56522">
        <ele>765</ele>
        <time>2021-08-10T12:49:37.853Z</time>
      </trkpt>
      <trkpt lat="46.91097" lon="8.5652">
        <ele>764</ele>
        <time>2021-08-10T12:49:38.854Z</time>
      </trkpt>
      <trkpt lat="46.91097" lon="8.56518">
        <ele>764</ele>
        <time>2021-08-10T12:49:39.853Z</time>
      </trkpt>
      <trkpt lat="46.91096" lon="8.56517">
        <ele>764</ele>
        <time>2021-08-10T12:49:40.854Z</time>
      </trkpt>
      <trkpt lat="46.91095" lon="8.56516">
        <ele>764</ele>
        <time>2021-08-10T12:49:41.853Z</time>
      </trkpt>
      <trkpt lat="46.91094" lon="8.56514">
        <ele>764</ele>
        <time>2021-08-10T12:49:42.853Z</time>
      </trkpt>
      <trkpt lat="46.91093" lon="8.56514">
        <ele>764</ele>
        <time>2021-08-10T12:49:43.854Z</time>
      </trkpt>
      <trkpt lat="46.91094" lon="8.56513">
        <ele>763</ele>
        <time>2021-08-10T12:49:44.854Z</time>
      </trkpt>
      <trkpt lat="46.91094" lon="8.56513">
        <ele>764</ele>
        <time>2021-08-10T12:49:57.845Z</time>
      </trkpt>
      <trkpt lat="46.91094" lon="8.56511">
        <ele>763</ele>
        <time>2021-08-10T12:49:58.845Z</time>
      </trkpt>
      <trkpt lat="46.91094" lon="8.5651">
        <ele>763</ele>
        <time>2021-08-10T12:49:59.845Z</time>
      </trkpt>
      <trkpt lat="46.91094" lon="8.56508">
        <ele>763</ele>
        <time>2021-08-10T12:50:00.845Z</time>
      </trkpt>
      <trkpt lat="46.91094" lon="8.56507">
        <ele>763</ele>
        <time>2021-08-10T12:50:01.845Z</time>
      </trkpt>
      <trkpt lat="46.91093" lon="8.56506">
        <ele>763</ele>
        <time>2021-08-10T12:50:02.845Z</time>
      </trkpt>
      <trkpt lat="46.91093" lon="8.56505">
        <ele>763</ele>
        <time>2021-08-10T12:50:03.845Z</time>
      </trkpt>
      <trkpt lat="46.91093" lon="8.56504">
        <ele>763</ele>
        <time>2021-08-10T12:50:04.845Z</time>
      </trkpt>
      <trkpt lat="46.91093" lon="8.56502">
        <ele>763</ele>
        <time>2021-08-10T12:50:05.845Z</time>
      </trkpt>
      <trkpt lat="46.91092" lon="8.56501">
        <ele>763</ele>
        <time>2021-08-10T12:50:06.845Z</time>
      </trkpt>
      <trkpt lat="46.91092" lon="8.56499">
        <ele>763</ele>
        <time>2021-08-10T12:50:07.845Z</time>
      </trkpt>
      <trkpt lat="46.91092" lon="8.56498">
        <ele>763</ele>
        <time>2021-08-10T12:50:08.846Z</time>
      </trkpt>
      <trkpt lat="46.91091" lon="8.56496">
        <ele>764</ele>
        <time>2021-08-10T12:50:09.846Z</time>
      </trkpt>
      <trkpt lat="46.91091" lon="8.56495">
        <ele>764</ele>
        <time>2021-08-10T12:50:10.846Z</time>
      </trkpt>
      <trkpt lat="46.91091" lon="8.56493">
        <ele>765</ele>
        <time>2021-08-10T12:50:11.846Z</time>
      </trkpt>
      <trkpt lat="46.9109" lon="8.56492">
        <ele>765</ele>
        <time>2021-08-10T12:50:12.846Z</time>
      </trkpt>
      <trkpt lat="46.9109" lon="8.5649">
        <ele>766</ele>
        <time>2021-08-10T12:50:13.846Z</time>
      </trkpt>
      <trkpt lat="46.9109" lon="8.56489">
        <ele>766</ele>
        <time>2021-08-10T12:50:14.846Z</time>
      </trkpt>
      <trkpt lat="46.9109" lon="8.56488">
        <ele>767</ele>
        <time>2021-08-10T12:50:15.846Z</time>
      </trkpt>
      <trkpt lat="46.9109" lon="8.56487">
        <ele>768</ele>
        <time>2021-08-10T12:50:16.846Z</time>
      </trkpt>
      <trkpt lat="46.9109" lon="8.56485">
        <ele>768</ele>
        <time>2021-08-10T12:50:17.846Z</time>
      </trkpt>
      <trkpt lat="46.91089" lon="8.56484">
        <ele>769</ele>
        <time>2021-08-10T12:50:18.846Z</time>
      </trkpt>
      <trkpt lat="46.91088" lon="8.56483">
        <ele>769</ele>
        <time>2021-08-10T12:50:19.846Z</time>
      </trkpt>
      <trkpt lat="46.91087" lon="8.56481">
        <ele>770</ele>
        <time>2021-08-10T12:50:20.845Z</time>
      </trkpt>
      <trkpt lat="46.91086" lon="8.5648">
        <ele>770</ele>
        <time>2021-08-10T12:50:21.846Z</time>
      </trkpt>
      <trkpt lat="46.91086" lon="8.56479">
        <ele>770</ele>
        <time>2021-08-10T12:50:22.846Z</time>
      </trkpt>
      <trkpt lat="46.91086" lon="8.56477">
        <ele>771</ele>
        <time>2021-08-10T12:50:23.846Z</time>
      </trkpt>
      <trkpt lat="46.91086" lon="8.56476">
        <ele>771</ele>
        <time>2021-08-10T12:50:24.846Z</time>
      </trkpt>
      <trkpt lat="46.91086" lon="8.56475">
        <ele>771</ele>
        <time>2021-08-10T12:50:25.845Z</time>
      </trkpt>
      <trkpt lat="46.91086" lon="8.56473">
        <ele>772</ele>
        <time>2021-08-10T12:50:26.846Z</time>
      </trkpt>
      <trkpt lat="46.91086" lon="8.56472">
        <ele>773</ele>
        <time>2021-08-10T12:50:27.846Z</time>
      </trkpt>
      <trkpt lat="46.91085" lon="8.5647">
        <ele>773</ele>
        <time>2021-08-10T12:50:28.846Z</time>
      </trkpt>
      <trkpt lat="46.91085" lon="8.56468">
        <ele>773</ele>
        <time>2021-08-10T12:50:29.846Z</time>
      </trkpt>
      <trkpt lat="46.91085" lon="8.56467">
        <ele>773</ele>
        <time>2021-08-10T12:50:30.846Z</time>
      </trkpt>
      <trkpt lat="46.91085" lon="8.56466">
        <ele>773</ele>
        <time>2021-08-10T12:50:31.846Z</time>
      </trkpt>
      <trkpt lat="46.91084" lon="8.56465">
        <ele>773</ele>
        <time>2021-08-10T12:50:32.846Z</time>
      </trkpt>
      <trkpt lat="46.91084" lon="8.56464">
        <ele>772</ele>
        <time>2021-08-10T12:50:33.846Z</time>
      </trkpt>
      <trkpt lat="46.91084" lon="8.56463">
        <ele>772</ele>
        <time>2021-08-10T12:50:34.845Z</time>
      </trkpt>
      <trkpt lat="46.91084" lon="8.56462">
        <ele>772</ele>
        <time>2021-08-10T12:50:35.846Z</time>
      </trkpt>
      <trkpt lat="46.91084" lon="8.5646">
        <ele>772</ele>
        <time>2021-08-10T12:50:36.846Z</time>
      </trkpt>
      <trkpt lat="46.91083" lon="8.56458">
        <ele>773</ele>
        <time>2021-08-10T12:50:37.845Z</time>
      </trkpt>
      <trkpt lat="46.91082" lon="8.56456">
        <ele>773</ele>
        <time>2021-08-10T12:50:38.846Z</time>
      </trkpt>
      <trkpt lat="46.91082" lon="8.56454">
        <ele>773</ele>
        <time>2021-08-10T12:50:39.846Z</time>
      </trkpt>
      <trkpt lat="46.91081" lon="8.56453">
        <ele>773</ele>
        <time>2021-08-10T12:50:40.845Z</time>
      </trkpt>
      <trkpt lat="46.91081" lon="8.56451">
        <ele>774</ele>
        <time>2021-08-10T12:50:41.846Z</time>
      </trkpt>
      <trkpt lat="46.9108" lon="8.5645">
        <ele>774</ele>
        <time>2021-08-10T12:50:42.845Z</time>
      </trkpt>
      <trkpt lat="46.91079" lon="8.56448">
        <ele>774</ele>
        <time>2021-08-10T12:50:43.846Z</time>
      </trkpt>
      <trkpt lat="46.91079" lon="8.56446">
        <ele>774</ele>
        <time>2021-08-10T12:50:44.846Z</time>
      </trkpt>
      <trkpt lat="46.91079" lon="8.56444">
        <ele>775</ele>
        <time>2021-08-10T12:50:45.846Z</time>
      </trkpt>
      <trkpt lat="46.91078" lon="8.56443">
        <ele>774</ele>
        <time>2021-08-10T12:50:46.846Z</time>
      </trkpt>
      <trkpt lat="46.91078" lon="8.56441">
        <ele>774</ele>
        <time>2021-08-10T12:50:47.846Z</time>
      </trkpt>
      <trkpt lat="46.91078" lon="8.5644">
        <ele>774</ele>
        <time>2021-08-10T12:50:48.845Z</time>
      </trkpt>
      <trkpt lat="46.91078" lon="8.56438">
        <ele>774</ele>
        <time>2021-08-10T12:50:49.846Z</time>
      </trkpt>
      <trkpt lat="46.91077" lon="8.56437">
        <ele>774</ele>
        <time>2021-08-10T12:50:50.845Z</time>
      </trkpt>
      <trkpt lat="46.91077" lon="8.56436">
        <ele>774</ele>
        <time>2021-08-10T12:50:51.845Z</time>
      </trkpt>
      <trkpt lat="46.91077" lon="8.56433">
        <ele>774</ele>
        <time>2021-08-10T12:50:52.846Z</time>
      </trkpt>
      <trkpt lat="46.91078" lon="8.56432">
        <ele>774</ele>
        <time>2021-08-10T12:50:53.846Z</time>
      </trkpt>
      <trkpt lat="46.91077" lon="8.5643">
        <ele>774</ele>
        <time>2021-08-10T12:50:54.846Z</time>
      </trkpt>
      <trkpt lat="46.91077" lon="8.56428">
        <ele>774</ele>
        <time>2021-08-10T12:50:55.845Z</time>
      </trkpt>
      <trkpt lat="46.91077" lon="8.56427">
        <ele>774</ele>
        <time>2021-08-10T12:50:56.846Z</time>
      </trkpt>
      <trkpt lat="46.91077" lon="8.56425">
        <ele>773</ele>
        <time>2021-08-10T12:50:57.846Z</time>
      </trkpt>
      <trkpt lat="46.91077" lon="8.56425">
        <ele>773</ele>
        <time>2021-08-10T12:50:58.846Z</time>
      </trkpt>
      <trkpt lat="46.91078" lon="8.56423">
        <ele>773</ele>
        <time>2021-08-10T12:50:59.846Z</time>
      </trkpt>
      <trkpt lat="46.91079" lon="8.56422">
        <ele>774</ele>
        <time>2021-08-10T12:51:00.846Z</time>
      </trkpt>
      <trkpt lat="46.91079" lon="8.5642">
        <ele>774</ele>
        <time>2021-08-10T12:51:01.846Z</time>
      </trkpt>
      <trkpt lat="46.9108" lon="8.56418">
        <ele>774</ele>
        <time>2021-08-10T12:51:02.845Z</time>
      </trkpt>
      <trkpt lat="46.9108" lon="8.56416">
        <ele>774</ele>
        <time>2021-08-10T12:51:03.845Z</time>
      </trkpt>
      <trkpt lat="46.91081" lon="8.56414">
        <ele>774</ele>
        <time>2021-08-10T12:51:04.845Z</time>
      </trkpt>
      <trkpt lat="46.91082" lon="8.56413">
        <ele>774</ele>
        <time>2021-08-10T12:51:06.959Z</time>
      </trkpt>
      <trkpt lat="46.91081" lon="8.56411">
        <ele>775</ele>
        <time>2021-08-10T12:51:07.959Z</time>
      </trkpt>
      <trkpt lat="46.91081" lon="8.5641">
        <ele>775</ele>
        <time>2021-08-10T12:51:08.958Z</time>
      </trkpt>
      <trkpt lat="46.91081" lon="8.56408">
        <ele>774</ele>
        <time>2021-08-10T12:51:09.958Z</time>
      </trkpt>
      <trkpt lat="46.9108" lon="8.56407">
        <ele>774</ele>
        <time>2021-08-10T12:51:10.959Z</time>
      </trkpt>
      <trkpt lat="46.9108" lon="8.56405">
        <ele>774</ele>
        <time>2021-08-10T12:51:11.959Z</time>
      </trkpt>
      <trkpt lat="46.9108" lon="8.56404">
        <ele>773</ele>
        <time>2021-08-10T12:51:12.958Z</time>
      </trkpt>
      <trkpt lat="46.9108" lon="8.56403">
        <ele>773</ele>
        <time>2021-08-10T12:51:13.958Z</time>
      </trkpt>
      <trkpt lat="46.9108" lon="8.56401">
        <ele>773</ele>
        <time>2021-08-10T12:51:14.959Z</time>
      </trkpt>
      <trkpt lat="46.9108" lon="8.56399">
        <ele>772</ele>
        <time>2021-08-10T12:51:15.958Z</time>
      </trkpt>
      <trkpt lat="46.9108" lon="8.56397">
        <ele>772</ele>
        <time>2021-08-10T12:51:16.959Z</time>
      </trkpt>
      <trkpt lat="46.9108" lon="8.56396">
        <ele>772</ele>
        <time>2021-08-10T12:51:17.959Z</time>
      </trkpt>
      <trkpt lat="46.9108" lon="8.56394">
        <ele>772</ele>
        <time>2021-08-10T12:51:18.959Z</time>
      </trkpt>
      <trkpt lat="46.91081" lon="8.56392">
        <ele>772</ele>
        <time>2021-08-10T12:51:19.959Z</time>
      </trkpt>
      <trkpt lat="46.91081" lon="8.56391">
        <ele>772</ele>
        <time>2021-08-10T12:51:20.958Z</time>
      </trkpt>
      <trkpt lat="46.91082" lon="8.56389">
        <ele>773</ele>
        <time>2021-08-10T12:51:21.959Z</time>
      </trkpt>
      <trkpt lat="46.91083" lon="8.56386">
        <ele>773</ele>
        <time>2021-08-10T12:51:22.959Z</time>
      </trkpt>
      <trkpt lat="46.91083" lon="8.56384">
        <ele>773</ele>
        <time>2021-08-10T12:51:23.958Z</time>
      </trkpt>
      <trkpt lat="46.91083" lon="8.56382">
        <ele>773</ele>
        <time>2021-08-10T12:51:24.958Z</time>
      </trkpt>
      <trkpt lat="46.91083" lon="8.56381">
        <ele>774</ele>
        <time>2021-08-10T12:51:25.958Z</time>
      </trkpt>
      <trkpt lat="46.91082" lon="8.56379">
        <ele>774</ele>
        <time>2021-08-10T12:51:26.958Z</time>
      </trkpt>
      <trkpt lat="46.91082" lon="8.56378">
        <ele>774</ele>
        <time>2021-08-10T12:51:27.958Z</time>
      </trkpt>
      <trkpt lat="46.91081" lon="8.56377">
        <ele>774</ele>
        <time>2021-08-10T12:51:28.959Z</time>
      </trkpt>
      <trkpt lat="46.91082" lon="8.56376">
        <ele>774</ele>
        <time>2021-08-10T12:51:29.959Z</time>
      </trkpt>
      <trkpt lat="46.91082" lon="8.56375">
        <ele>773</ele>
        <time>2021-08-10T12:51:30.959Z</time>
      </trkpt>
      <trkpt lat="46.91082" lon="8.56373">
        <ele>773</ele>
        <time>2021-08-10T12:51:31.959Z</time>
      </trkpt>
      <trkpt lat="46.91082" lon="8.56371">
        <ele>772</ele>
        <time>2021-08-10T12:51:32.959Z</time>
      </trkpt>
      <trkpt lat="46.91081" lon="8.56369">
        <ele>771</ele>
        <time>2021-08-10T12:51:33.958Z</time>
      </trkpt>
      <trkpt lat="46.9108" lon="8.56367">
        <ele>771</ele>
        <time>2021-08-10T12:51:34.958Z</time>
      </trkpt>
      <trkpt lat="46.9108" lon="8.56366">
        <ele>771</ele>
        <time>2021-08-10T12:51:35.958Z</time>
      </trkpt>
      <trkpt lat="46.9108" lon="8.56364">
        <ele>770</ele>
        <time>2021-08-10T12:51:36.959Z</time>
      </trkpt>
      <trkpt lat="46.9108" lon="8.56363">
        <ele>770</ele>
        <time>2021-08-10T12:51:37.959Z</time>
      </trkpt>
      <trkpt lat="46.9108" lon="8.56361">
        <ele>770</ele>
        <time>2021-08-10T12:51:38.959Z</time>
      </trkpt>
      <trkpt lat="46.9108" lon="8.56359">
        <ele>770</ele>
        <time>2021-08-10T12:51:39.958Z</time>
      </trkpt>
      <trkpt lat="46.9108" lon="8.56357">
        <ele>770</ele>
        <time>2021-08-10T12:51:40.958Z</time>
      </trkpt>
      <trkpt lat="46.9108" lon="8.56355">
        <ele>770</ele>
        <time>2021-08-10T12:51:41.959Z</time>
      </trkpt>
      <trkpt lat="46.91079" lon="8.56354">
        <ele>770</ele>
        <time>2021-08-10T12:51:42.958Z</time>
      </trkpt>
      <trkpt lat="46.91079" lon="8.56352">
        <ele>770</ele>
        <time>2021-08-10T12:51:43.959Z</time>
      </trkpt>
      <trkpt lat="46.9108" lon="8.56351">
        <ele>770</ele>
        <time>2021-08-10T12:51:44.959Z</time>
      </trkpt>
      <trkpt lat="46.9108" lon="8.5635">
        <ele>771</ele>
        <time>2021-08-10T12:51:45.959Z</time>
      </trkpt>
      <trkpt lat="46.91079" lon="8.56348">
        <ele>771</ele>
        <time>2021-08-10T12:51:46.958Z</time>
      </trkpt>
      <trkpt lat="46.91078" lon="8.56347">
        <ele>771</ele>
        <time>2021-08-10T12:51:47.959Z</time>
      </trkpt>
      <trkpt lat="46.91078" lon="8.56345">
        <ele>770</ele>
        <time>2021-08-10T12:51:48.958Z</time>
      </trkpt>
      <trkpt lat="46.91077" lon="8.56342">
        <ele>770</ele>
        <time>2021-08-10T12:51:49.959Z</time>
      </trkpt>
      <trkpt lat="46.91077" lon="8.5634">
        <ele>770</ele>
        <time>2021-08-10T12:51:50.958Z</time>
      </trkpt>
      <trkpt lat="46.91077" lon="8.56338">
        <ele>770</ele>
        <time>2021-08-10T12:51:51.958Z</time>
      </trkpt>
      <trkpt lat="46.91077" lon="8.56338">
        <ele>770</ele>
        <time>2021-08-10T12:51:52.959Z</time>
      </trkpt>
      <trkpt lat="46.91078" lon="8.56337">
        <ele>771</ele>
        <time>2021-08-10T12:51:53.959Z</time>
      </trkpt>
      <trkpt lat="46.91079" lon="8.56336">
        <ele>771</ele>
        <time>2021-08-10T12:51:54.959Z</time>
      </trkpt>
      <trkpt lat="46.91079" lon="8.56335">
        <ele>772</ele>
        <time>2021-08-10T12:51:55.958Z</time>
      </trkpt>
      <trkpt lat="46.9108" lon="8.56334">
        <ele>772</ele>
        <time>2021-08-10T12:51:56.958Z</time>
      </trkpt>
      <trkpt lat="46.9108" lon="8.56333">
        <ele>772</ele>
        <time>2021-08-10T12:51:57.959Z</time>
      </trkpt>
      <trkpt lat="46.9108" lon="8.56331">
        <ele>772</ele>
        <time>2021-08-10T12:51:58.958Z</time>
      </trkpt>
      <trkpt lat="46.91081" lon="8.56329">
        <ele>773</ele>
        <time>2021-08-10T12:51:59.958Z</time>
      </trkpt>
      <trkpt lat="46.9108" lon="8.56327">
        <ele>773</ele>
        <time>2021-08-10T12:52:00.958Z</time>
      </trkpt>
      <trkpt lat="46.9108" lon="8.56326">
        <ele>774</ele>
        <time>2021-08-10T12:52:01.959Z</time>
      </trkpt>
      <trkpt lat="46.9108" lon="8.56324">
        <ele>775</ele>
        <time>2021-08-10T12:52:02.958Z</time>
      </trkpt>
      <trkpt lat="46.9108" lon="8.56323">
        <ele>776</ele>
        <time>2021-08-10T12:52:03.958Z</time>
      </trkpt>
      <trkpt lat="46.9108" lon="8.56321">
        <ele>776</ele>
        <time>2021-08-10T12:52:04.959Z</time>
      </trkpt>
      <trkpt lat="46.91081" lon="8.56319">
        <ele>777</ele>
        <time>2021-08-10T12:52:05.958Z</time>
      </trkpt>
      <trkpt lat="46.91081" lon="8.56318">
        <ele>777</ele>
        <time>2021-08-10T12:52:06.959Z</time>
      </trkpt>
      <trkpt lat="46.91081" lon="8.56316">
        <ele>777</ele>
        <time>2021-08-10T12:52:07.959Z</time>
      </trkpt>
      <trkpt lat="46.91081" lon="8.56315">
        <ele>778</ele>
        <time>2021-08-10T12:52:08.958Z</time>
      </trkpt>
      <trkpt lat="46.9108" lon="8.56312">
        <ele>778</ele>
        <time>2021-08-10T12:52:09.959Z</time>
      </trkpt>
      <trkpt lat="46.9108" lon="8.56311">
        <ele>778</ele>
        <time>2021-08-10T12:52:10.959Z</time>
      </trkpt>
      <trkpt lat="46.9108" lon="8.56309">
        <ele>777</ele>
        <time>2021-08-10T12:52:12.977Z</time>
      </trkpt>
      <trkpt lat="46.9108" lon="8.56308">
        <ele>777</ele>
        <time>2021-08-10T12:52:13.978Z</time>
      </trkpt>
      <trkpt lat="46.9108" lon="8.56306">
        <ele>777</ele>
        <time>2021-08-10T12:52:14.978Z</time>
      </trkpt>
      <trkpt lat="46.9108" lon="8.56305">
        <ele>777</ele>
        <time>2021-08-10T12:52:15.977Z</time>
      </trkpt>
      <trkpt lat="46.91081" lon="8.56304">
        <ele>777</ele>
        <time>2021-08-10T12:52:16.977Z</time>
      </trkpt>
      <trkpt lat="46.91081" lon="8.56301">
        <ele>778</ele>
        <time>2021-08-10T12:52:17.977Z</time>
      </trkpt>
      <trkpt lat="46.91081" lon="8.56298">
        <ele>778</ele>
        <time>2021-08-10T12:52:18.977Z</time>
      </trkpt>
      <trkpt lat="46.91081" lon="8.56295">
        <ele>779</ele>
        <time>2021-08-10T12:52:19.977Z</time>
      </trkpt>
      <trkpt lat="46.91081" lon="8.56291">
        <ele>779</ele>
        <time>2021-08-10T12:52:20.977Z</time>
      </trkpt>
      <trkpt lat="46.91081" lon="8.56289">
        <ele>779</ele>
        <time>2021-08-10T12:52:21.977Z</time>
      </trkpt>
      <trkpt lat="46.91081" lon="8.56287">
        <ele>780</ele>
        <time>2021-08-10T12:52:22.977Z</time>
      </trkpt>
      <trkpt lat="46.91081" lon="8.56286">
        <ele>780</ele>
        <time>2021-08-10T12:52:23.977Z</time>
      </trkpt>
      <trkpt lat="46.91081" lon="8.56284">
        <ele>781</ele>
        <time>2021-08-10T12:52:24.977Z</time>
      </trkpt>
      <trkpt lat="46.9108" lon="8.56283">
        <ele>781</ele>
        <time>2021-08-10T12:52:25.978Z</time>
      </trkpt>
      <trkpt lat="46.9108" lon="8.56282">
        <ele>781</ele>
        <time>2021-08-10T12:52:26.977Z</time>
      </trkpt>
      <trkpt lat="46.91079" lon="8.56282">
        <ele>781</ele>
        <time>2021-08-10T12:52:30.105Z</time>
      </trkpt>
      <trkpt lat="46.91079" lon="8.56281">
        <ele>780</ele>
        <time>2021-08-10T12:52:31.104Z</time>
      </trkpt>
      <trkpt lat="46.91079" lon="8.56281">
        <ele>780</ele>
        <time>2021-08-10T12:52:32.104Z</time>
      </trkpt>
      <trkpt lat="46.91078" lon="8.5628">
        <ele>780</ele>
        <time>2021-08-10T12:52:33.104Z</time>
      </trkpt>
      <trkpt lat="46.91078" lon="8.56279">
        <ele>780</ele>
        <time>2021-08-10T12:52:34.104Z</time>
      </trkpt>
      <trkpt lat="46.91078" lon="8.56278">
        <ele>779</ele>
        <time>2021-08-10T12:52:35.105Z</time>
      </trkpt>
      <trkpt lat="46.91077" lon="8.56276">
        <ele>779</ele>
        <time>2021-08-10T12:52:36.105Z</time>
      </trkpt>
      <trkpt lat="46.91077" lon="8.56275">
        <ele>779</ele>
        <time>2021-08-10T12:52:37.105Z</time>
      </trkpt>
      <trkpt lat="46.91076" lon="8.56274">
        <ele>779</ele>
        <time>2021-08-10T12:52:38.105Z</time>
      </trkpt>
      <trkpt lat="46.91076" lon="8.56272">
        <ele>779</ele>
        <time>2021-08-10T12:52:39.105Z</time>
      </trkpt>
      <trkpt lat="46.91076" lon="8.56271">
        <ele>779</ele>
        <time>2021-08-10T12:52:40.104Z</time>
      </trkpt>
      <trkpt lat="46.91076" lon="8.5627">
        <ele>780</ele>
        <time>2021-08-10T12:52:41.104Z</time>
      </trkpt>
      <trkpt lat="46.91075" lon="8.56268">
        <ele>780</ele>
        <time>2021-08-10T12:52:42.105Z</time>
      </trkpt>
      <trkpt lat="46.91075" lon="8.56266">
        <ele>780</ele>
        <time>2021-08-10T12:52:43.105Z</time>
      </trkpt>
      <trkpt lat="46.91075" lon="8.56265">
        <ele>781</ele>
        <time>2021-08-10T12:52:44.105Z</time>
      </trkpt>
      <trkpt lat="46.91075" lon="8.56263">
        <ele>781</ele>
        <time>2021-08-10T12:52:46.229Z</time>
      </trkpt>
      <trkpt lat="46.91075" lon="8.56262">
        <ele>782</ele>
        <time>2021-08-10T12:52:47.229Z</time>
      </trkpt>
      <trkpt lat="46.91075" lon="8.56261">
        <ele>783</ele>
        <time>2021-08-10T12:52:48.228Z</time>
      </trkpt>
      <trkpt lat="46.91075" lon="8.5626">
        <ele>783</ele>
        <time>2021-08-10T12:52:49.228Z</time>
      </trkpt>
      <trkpt lat="46.91074" lon="8.56258">
        <ele>784</ele>
        <time>2021-08-10T12:52:50.228Z</time>
      </trkpt>
      <trkpt lat="46.91073" lon="8.56256">
        <ele>784</ele>
        <time>2021-08-10T12:52:51.229Z</time>
      </trkpt>
      <trkpt lat="46.91072" lon="8.56254">
        <ele>785</ele>
        <time>2021-08-10T12:52:52.229Z</time>
      </trkpt>
      <trkpt lat="46.91071" lon="8.56252">
        <ele>785</ele>
        <time>2021-08-10T12:52:53.228Z</time>
      </trkpt>
      <trkpt lat="46.9107" lon="8.56249">
        <ele>785</ele>
        <time>2021-08-10T12:52:54.229Z</time>
      </trkpt>
      <trkpt lat="46.9107" lon="8.56248">
        <ele>786</ele>
        <time>2021-08-10T12:52:55.229Z</time>
      </trkpt>
      <trkpt lat="46.91069" lon="8.56246">
        <ele>786</ele>
        <time>2021-08-10T12:52:56.229Z</time>
      </trkpt>
      <trkpt lat="46.91069" lon="8.56245">
        <ele>787</ele>
        <time>2021-08-10T12:52:57.229Z</time>
      </trkpt>
      <trkpt lat="46.9107" lon="8.56244">
        <ele>787</ele>
        <time>2021-08-10T12:52:58.228Z</time>
      </trkpt>
      <trkpt lat="46.9107" lon="8.56243">
        <ele>787</ele>
        <time>2021-08-10T12:52:59.229Z</time>
      </trkpt>
      <trkpt lat="46.9107" lon="8.56241">
        <ele>787</ele>
        <time>2021-08-10T12:53:00.229Z</time>
      </trkpt>
      <trkpt lat="46.91069" lon="8.56239">
        <ele>787</ele>
        <time>2021-08-10T12:53:01.229Z</time>
      </trkpt>
      <trkpt lat="46.91069" lon="8.56238">
        <ele>788</ele>
        <time>2021-08-10T12:53:02.228Z</time>
      </trkpt>
      <trkpt lat="46.91069" lon="8.56236">
        <ele>788</ele>
        <time>2021-08-10T12:53:03.228Z</time>
      </trkpt>
      <trkpt lat="46.91069" lon="8.56235">
        <ele>788</ele>
        <time>2021-08-10T12:53:06.204Z</time>
      </trkpt>
      <trkpt lat="46.91069" lon="8.56234">
        <ele>789</ele>
        <time>2021-08-10T12:53:07.203Z</time>
      </trkpt>
      <trkpt lat="46.91069" lon="8.56233">
        <ele>790</ele>
        <time>2021-08-10T12:53:08.203Z</time>
      </trkpt>
      <trkpt lat="46.91069" lon="8.56231">
        <ele>790</ele>
        <time>2021-08-10T12:53:09.204Z</time>
      </trkpt>
      <trkpt lat="46.91068" lon="8.5623">
        <ele>791</ele>
        <time>2021-08-10T12:53:10.204Z</time>
      </trkpt>
      <trkpt lat="46.91069" lon="8.56228">
        <ele>791</ele>
        <time>2021-08-10T12:53:11.204Z</time>
      </trkpt>
      <trkpt lat="46.91068" lon="8.56226">
        <ele>792</ele>
        <time>2021-08-10T12:53:12.204Z</time>
      </trkpt>
      <trkpt lat="46.91068" lon="8.56224">
        <ele>792</ele>
        <time>2021-08-10T12:53:13.203Z</time>
      </trkpt>
      <trkpt lat="46.91067" lon="8.56223">
        <ele>792</ele>
        <time>2021-08-10T12:53:14.204Z</time>
      </trkpt>
      <trkpt lat="46.91066" lon="8.56223">
        <ele>792</ele>
        <time>2021-08-10T12:53:15.203Z</time>
      </trkpt>
      <trkpt lat="46.91064" lon="8.56223">
        <ele>793</ele>
        <time>2021-08-10T12:53:16.204Z</time>
      </trkpt>
      <trkpt lat="46.91063" lon="8.56223">
        <ele>793</ele>
        <time>2021-08-10T12:53:17.204Z</time>
      </trkpt>
      <trkpt lat="46.91063" lon="8.56223">
        <ele>793</ele>
        <time>2021-08-10T12:53:18.203Z</time>
      </trkpt>
      <trkpt lat="46.91062" lon="8.56224">
        <ele>793</ele>
        <time>2021-08-10T12:53:19.204Z</time>
      </trkpt>
      <trkpt lat="46.91062" lon="8.56224">
        <ele>793</ele>
        <time>2021-08-10T12:53:20.204Z</time>
      </trkpt>
      <trkpt lat="46.91062" lon="8.56225">
        <ele>793</ele>
        <time>2021-08-10T12:53:21.204Z</time>
      </trkpt>
      <trkpt lat="46.91063" lon="8.56225">
        <ele>793</ele>
        <time>2021-08-10T12:53:22.203Z</time>
      </trkpt>
      <trkpt lat="46.91064" lon="8.56226">
        <ele>793</ele>
        <time>2021-08-10T12:53:23.204Z</time>
      </trkpt>
      <trkpt lat="46.91064" lon="8.56227">
        <ele>793</ele>
        <time>2021-08-10T12:53:24.204Z</time>
      </trkpt>
      <trkpt lat="46.91064" lon="8.56227">
        <ele>793</ele>
        <time>2021-08-10T12:53:25.204Z</time>
      </trkpt>
      <trkpt lat="46.91064" lon="8.56227">
        <ele>792</ele>
        <time>2021-08-10T12:53:26.204Z</time>
      </trkpt>
      <trkpt lat="46.91064" lon="8.56227">
        <ele>791</ele>
        <time>2021-08-10T12:53:27.203Z</time>
      </trkpt>
      <trkpt lat="46.91062" lon="8.56223">
        <ele>782</ele>
        <time>2021-08-10T12:53:28.204Z</time>
      </trkpt>
      <trkpt lat="46.91062" lon="8.56222">
        <ele>781</ele>
        <time>2021-08-10T12:53:29.204Z</time>
      </trkpt>
      <trkpt lat="46.91062" lon="8.56223">
        <ele>781</ele>
        <time>2021-08-10T12:53:30.203Z</time>
      </trkpt>
      <trkpt lat="46.91062" lon="8.56223">
        <ele>780</ele>
        <time>2021-08-10T12:53:31.204Z</time>
      </trkpt>
      <trkpt lat="46.91062" lon="8.56223">
        <ele>779</ele>
        <time>2021-08-10T12:53:32.204Z</time>
      </trkpt>
      <trkpt lat="46.91062" lon="8.56224">
        <ele>776</ele>
        <time>2021-08-10T12:53:33.204Z</time>
      </trkpt>
      <trkpt lat="46.91059" lon="8.56223">
        <ele>768</ele>
        <time>2021-08-10T12:53:34.204Z</time>
      </trkpt>
      <trkpt lat="46.91058" lon="8.56222">
        <ele>768</ele>
        <time>2021-08-10T12:53:35.204Z</time>
      </trkpt>
      <trkpt lat="46.91058" lon="8.56222">
        <ele>767</ele>
        <time>2021-08-10T12:53:36.203Z</time>
      </trkpt>
      <trkpt lat="46.91057" lon="8.56223">
        <ele>768</ele>
        <time>2021-08-10T12:53:37.204Z</time>
      </trkpt>
      <trkpt lat="46.91057" lon="8.56222">
        <ele>769</ele>
        <time>2021-08-10T12:53:38.204Z</time>
      </trkpt>
      <trkpt lat="46.91056" lon="8.56221">
        <ele>769</ele>
        <time>2021-08-10T12:53:39.204Z</time>
      </trkpt>
      <trkpt lat="46.91055" lon="8.5622">
        <ele>769</ele>
        <time>2021-08-10T12:53:40.204Z</time>
      </trkpt>
      <trkpt lat="46.91055" lon="8.5622">
        <ele>769</ele>
        <time>2021-08-10T12:53:41.204Z</time>
      </trkpt>
      <trkpt lat="46.91055" lon="8.56222">
        <ele>769</ele>
        <time>2021-08-10T12:53:48.370Z</time>
      </trkpt>
      <trkpt lat="46.91055" lon="8.56223">
        <ele>770</ele>
        <time>2021-08-10T12:53:52.245Z</time>
      </trkpt>
      <trkpt lat="46.91055" lon="8.56222">
        <ele>771</ele>
        <time>2021-08-10T12:53:53.245Z</time>
      </trkpt>
      <trkpt lat="46.91055" lon="8.56222">
        <ele>772</ele>
        <time>2021-08-10T12:53:54.245Z</time>
      </trkpt>
      <trkpt lat="46.91056" lon="8.56222">
        <ele>773</ele>
        <time>2021-08-10T12:53:55.245Z</time>
      </trkpt>
      <trkpt lat="46.91057" lon="8.56222">
        <ele>774</ele>
        <time>2021-08-10T12:53:56.245Z</time>
      </trkpt>
      <trkpt lat="46.91058" lon="8.56222">
        <ele>775</ele>
        <time>2021-08-10T12:53:57.245Z</time>
      </trkpt>
      <trkpt lat="46.91059" lon="8.56222">
        <ele>777</ele>
        <time>2021-08-10T12:53:58.245Z</time>
      </trkpt>
      <trkpt lat="46.9106" lon="8.56223">
        <ele>778</ele>
        <time>2021-08-10T12:54:00.347Z</time>
      </trkpt>
      <trkpt lat="46.91061" lon="8.56225">
        <ele>781</ele>
        <time>2021-08-10T12:54:01.348Z</time>
      </trkpt>
      <trkpt lat="46.91062" lon="8.56227">
        <ele>781</ele>
        <time>2021-08-10T12:54:02.347Z</time>
      </trkpt>
      <trkpt lat="46.91062" lon="8.56229">
        <ele>782</ele>
        <time>2021-08-10T12:54:03.347Z</time>
      </trkpt>
      <trkpt lat="46.91063" lon="8.56231">
        <ele>782</ele>
        <time>2021-08-10T12:54:04.347Z</time>
      </trkpt>
      <trkpt lat="46.91064" lon="8.56233">
        <ele>782</ele>
        <time>2021-08-10T12:54:05.347Z</time>
      </trkpt>
      <trkpt lat="46.91065" lon="8.56234">
        <ele>782</ele>
        <time>2021-08-10T12:54:06.347Z</time>
      </trkpt>
      <trkpt lat="46.91065" lon="8.56236">
        <ele>781</ele>
        <time>2021-08-10T12:54:07.347Z</time>
      </trkpt>
      <trkpt lat="46.91065" lon="8.56238">
        <ele>781</ele>
        <time>2021-08-10T12:54:08.347Z</time>
      </trkpt>
      <trkpt lat="46.91066" lon="8.56239">
        <ele>781</ele>
        <time>2021-08-10T12:54:09.347Z</time>
      </trkpt>
      <trkpt lat="46.91067" lon="8.56241">
        <ele>781</ele>
        <time>2021-08-10T12:54:10.347Z</time>
      </trkpt>
      <trkpt lat="46.91067" lon="8.56243">
        <ele>780</ele>
        <time>2021-08-10T12:54:11.347Z</time>
      </trkpt>
      <trkpt lat="46.91066" lon="8.56245">
        <ele>780</ele>
        <time>2021-08-10T12:54:12.348Z</time>
      </trkpt>
      <trkpt lat="46.91066" lon="8.56247">
        <ele>779</ele>
        <time>2021-08-10T12:54:13.347Z</time>
      </trkpt>
      <trkpt lat="46.91067" lon="8.56249">
        <ele>779</ele>
        <time>2021-08-10T12:54:14.348Z</time>
      </trkpt>
      <trkpt lat="46.91067" lon="8.56251">
        <ele>778</ele>
        <time>2021-08-10T12:54:15.348Z</time>
      </trkpt>
      <trkpt lat="46.91067" lon="8.56252">
        <ele>778</ele>
        <time>2021-08-10T12:54:16.347Z</time>
      </trkpt>
      <trkpt lat="46.91067" lon="8.56254">
        <ele>778</ele>
        <time>2021-08-10T12:54:17.348Z</time>
      </trkpt>
      <trkpt lat="46.91067" lon="8.56255">
        <ele>777</ele>
        <time>2021-08-10T12:54:18.347Z</time>
      </trkpt>
      <trkpt lat="46.91066" lon="8.56256">
        <ele>777</ele>
        <time>2021-08-10T12:54:20.472Z</time>
      </trkpt>
      <trkpt lat="46.91066" lon="8.56258">
        <ele>776</ele>
        <time>2021-08-10T12:54:21.473Z</time>
      </trkpt>
      <trkpt lat="46.91065" lon="8.56259">
        <ele>776</ele>
        <time>2021-08-10T12:54:22.472Z</time>
      </trkpt>
      <trkpt lat="46.91065" lon="8.5626">
        <ele>776</ele>
        <time>2021-08-10T12:54:24.467Z</time>
      </trkpt>
      <trkpt lat="46.91064" lon="8.56261">
        <ele>776</ele>
        <time>2021-08-10T12:54:25.467Z</time>
      </trkpt>
      <trkpt lat="46.91063" lon="8.56262">
        <ele>776</ele>
        <time>2021-08-10T12:54:26.468Z</time>
      </trkpt>
      <trkpt lat="46.91062" lon="8.56263">
        <ele>776</ele>
        <time>2021-08-10T12:54:28.577Z</time>
      </trkpt>
      <trkpt lat="46.91062" lon="8.56262">
        <ele>776</ele>
        <time>2021-08-10T12:54:29.577Z</time>
      </trkpt>
      <trkpt lat="46.91062" lon="8.56263">
        <ele>776</ele>
        <time>2021-08-10T12:54:30.577Z</time>
      </trkpt>
      <trkpt lat="46.91063" lon="8.56263">
        <ele>776</ele>
        <time>2021-08-10T12:54:31.577Z</time>
      </trkpt>
      <trkpt lat="46.91064" lon="8.56263">
        <ele>776</ele>
        <time>2021-08-10T12:54:32.577Z</time>
      </trkpt>
      <trkpt lat="46.91066" lon="8.56263">
        <ele>777</ele>
        <time>2021-08-10T12:54:33.577Z</time>
      </trkpt>
      <trkpt lat="46.91066" lon="8.56263">
        <ele>777</ele>
        <time>2021-08-10T12:54:34.577Z</time>
      </trkpt>
      <trkpt lat="46.91064" lon="8.56263">
        <ele>778</ele>
        <time>2021-08-10T12:54:35.577Z</time>
      </trkpt>
      <trkpt lat="46.91063" lon="8.56263">
        <ele>778</ele>
        <time>2021-08-10T12:54:36.577Z</time>
      </trkpt>
      <trkpt lat="46.91063" lon="8.56264">
        <ele>779</ele>
        <time>2021-08-10T12:54:37.577Z</time>
      </trkpt>
      <trkpt lat="46.91063" lon="8.56264">
        <ele>779</ele>
        <time>2021-08-10T12:54:38.577Z</time>
      </trkpt>
      <trkpt lat="46.91064" lon="8.56265">
        <ele>779</ele>
        <time>2021-08-10T12:54:39.577Z</time>
      </trkpt>
      <trkpt lat="46.91065" lon="8.56265">
        <ele>779</ele>
        <time>2021-08-10T12:54:40.578Z</time>
      </trkpt>
      <trkpt lat="46.91066" lon="8.56266">
        <ele>779</ele>
        <time>2021-08-10T12:54:41.578Z</time>
      </trkpt>
      <trkpt lat="46.91066" lon="8.56266">
        <ele>780</ele>
        <time>2021-08-10T12:54:42.577Z</time>
      </trkpt>
      <trkpt lat="46.91068" lon="8.56266">
        <ele>780</ele>
        <time>2021-08-10T12:54:43.578Z</time>
      </trkpt>
      <trkpt lat="46.91069" lon="8.56266">
        <ele>780</ele>
        <time>2021-08-10T12:54:44.577Z</time>
      </trkpt>
      <trkpt lat="46.9107" lon="8.56264">
        <ele>781</ele>
        <time>2021-08-10T12:54:45.577Z</time>
      </trkpt>
      <trkpt lat="46.91071" lon="8.56263">
        <ele>781</ele>
        <time>2021-08-10T12:54:46.577Z</time>
      </trkpt>
      <trkpt lat="46.91071" lon="8.5626">
        <ele>781</ele>
        <time>2021-08-10T12:54:47.578Z</time>
      </trkpt>
      <trkpt lat="46.91071" lon="8.56259">
        <ele>781</ele>
        <time>2021-08-10T12:54:48.578Z</time>
      </trkpt>
      <trkpt lat="46.91071" lon="8.56259">
        <ele>781</ele>
        <time>2021-08-10T12:54:49.578Z</time>
      </trkpt>
      <trkpt lat="46.91071" lon="8.56259">
        <ele>782</ele>
        <time>2021-08-10T12:54:50.577Z</time>
      </trkpt>
      <trkpt lat="46.91072" lon="8.5626">
        <ele>782</ele>
        <time>2021-08-10T12:54:51.577Z</time>
      </trkpt>
      <trkpt lat="46.91072" lon="8.5626">
        <ele>782</ele>
        <time>2021-08-10T12:54:52.577Z</time>
      </trkpt>
      <trkpt lat="46.91072" lon="8.5626">
        <ele>782</ele>
        <time>2021-08-10T12:54:53.577Z</time>
      </trkpt>
      <trkpt lat="46.91072" lon="8.56261">
        <ele>782</ele>
        <time>2021-08-10T12:54:54.578Z</time>
      </trkpt>
      <trkpt lat="46.91072" lon="8.56262">
        <ele>781</ele>
        <time>2021-08-10T12:54:55.578Z</time>
      </trkpt>
      <trkpt lat="46.91071" lon="8.56263">
        <ele>781</ele>
        <time>2021-08-10T12:54:56.577Z</time>
      </trkpt>
      <trkpt lat="46.9107" lon="8.56264">
        <ele>781</ele>
        <time>2021-08-10T12:54:57.578Z</time>
      </trkpt>
      <trkpt lat="46.91069" lon="8.56264">
        <ele>781</ele>
        <time>2021-08-10T12:55:05.596Z</time>
      </trkpt>
      <trkpt lat="46.91068" lon="8.56264">
        <ele>781</ele>
        <time>2021-08-10T12:55:06.596Z</time>
      </trkpt>
      <trkpt lat="46.91066" lon="8.56264">
        <ele>781</ele>
        <time>2021-08-10T12:55:07.596Z</time>
      </trkpt>
      <trkpt lat="46.91066" lon="8.56265">
        <ele>780</ele>
        <time>2021-08-10T12:55:08.596Z</time>
      </trkpt>
      <trkpt lat="46.91065" lon="8.56265">
        <ele>780</ele>
        <time>2021-08-10T12:55:09.596Z</time>
      </trkpt>
      <trkpt lat="46.91064" lon="8.56265">
        <ele>779</ele>
        <time>2021-08-10T12:55:10.597Z</time>
      </trkpt>
      <trkpt lat="46.91063" lon="8.56266">
        <ele>779</ele>
        <time>2021-08-10T12:55:11.596Z</time>
      </trkpt>
      <trkpt lat="46.91062" lon="8.56266">
        <ele>778</ele>
        <time>2021-08-10T12:55:12.597Z</time>
      </trkpt>
      <trkpt lat="46.9106" lon="8.56266">
        <ele>777</ele>
        <time>2021-08-10T12:55:13.597Z</time>
      </trkpt>
      <trkpt lat="46.91058" lon="8.56266">
        <ele>777</ele>
        <time>2021-08-10T12:55:14.596Z</time>
      </trkpt>
      <trkpt lat="46.91057" lon="8.56266">
        <ele>776</ele>
        <time>2021-08-10T12:55:15.597Z</time>
      </trkpt>
      <trkpt lat="46.91056" lon="8.56265">
        <ele>776</ele>
        <time>2021-08-10T12:55:16.596Z</time>
      </trkpt>
      <trkpt lat="46.91055" lon="8.56264">
        <ele>776</ele>
        <time>2021-08-10T12:55:17.596Z</time>
      </trkpt>
      <trkpt lat="46.91054" lon="8.56263">
        <ele>775</ele>
        <time>2021-08-10T12:55:18.596Z</time>
      </trkpt>
      <trkpt lat="46.91053" lon="8.56262">
        <ele>775</ele>
        <time>2021-08-10T12:55:19.597Z</time>
      </trkpt>
      <trkpt lat="46.91053" lon="8.5626">
        <ele>776</ele>
        <time>2021-08-10T12:55:20.597Z</time>
      </trkpt>
      <trkpt lat="46.91052" lon="8.56258">
        <ele>776</ele>
        <time>2021-08-10T12:55:21.597Z</time>
      </trkpt>
      <trkpt lat="46.91051" lon="8.56257">
        <ele>777</ele>
        <time>2021-08-10T12:55:22.597Z</time>
      </trkpt>
      <trkpt lat="46.91051" lon="8.56255">
        <ele>777</ele>
        <time>2021-08-10T12:55:23.596Z</time>
      </trkpt>
      <trkpt lat="46.9105" lon="8.56254">
        <ele>778</ele>
        <time>2021-08-10T12:55:24.597Z</time>
      </trkpt>
      <trkpt lat="46.9105" lon="8.56253">
        <ele>779</ele>
        <time>2021-08-10T12:55:25.597Z</time>
      </trkpt>
      <trkpt lat="46.9105" lon="8.56253">
        <ele>779</ele>
        <time>2021-08-10T12:55:26.597Z</time>
      </trkpt>
      <trkpt lat="46.91058" lon="8.56225">
        <ele>782</ele>
        <time>2021-08-10T12:56:37.858Z</time>
      </trkpt>
      <trkpt lat="46.9105" lon="8.5624">
        <ele>784</ele>
        <time>2021-08-10T12:56:38.858Z</time>
      </trkpt>
      <trkpt lat="46.91044" lon="8.56246">
        <ele>785</ele>
        <time>2021-08-10T12:56:39.858Z</time>
      </trkpt>
      <trkpt lat="46.91042" lon="8.56249">
        <ele>787</ele>
        <time>2021-08-10T12:56:40.857Z</time>
      </trkpt>
      <trkpt lat="46.91044" lon="8.56246">
        <ele>788</ele>
        <time>2021-08-10T12:56:41.858Z</time>
      </trkpt>
      <trkpt lat="46.91042" lon="8.56248">
        <ele>789</ele>
        <time>2021-08-10T12:56:42.858Z</time>
      </trkpt>
      <trkpt lat="46.91042" lon="8.56247">
        <ele>790</ele>
        <time>2021-08-10T12:56:43.857Z</time>
      </trkpt>
      <trkpt lat="46.91043" lon="8.56247">
        <ele>791</ele>
        <time>2021-08-10T12:56:44.858Z</time>
      </trkpt>
      <trkpt lat="46.91042" lon="8.56247">
        <ele>792</ele>
        <time>2021-08-10T12:56:45.858Z</time>
      </trkpt>
      <trkpt lat="46.91041" lon="8.56248">
        <ele>793</ele>
        <time>2021-08-10T12:56:46.858Z</time>
      </trkpt>
      <trkpt lat="46.91041" lon="8.56249">
        <ele>793</ele>
        <time>2021-08-10T12:56:47.858Z</time>
      </trkpt>
      <trkpt lat="46.91042" lon="8.56248">
        <ele>793</ele>
        <time>2021-08-10T12:56:48.857Z</time>
      </trkpt>
      <trkpt lat="46.91043" lon="8.56247">
        <ele>794</ele>
        <time>2021-08-10T12:56:49.857Z</time>
      </trkpt>
      <trkpt lat="46.90967" lon="8.56362">
        <ele>794</ele>
        <time>2021-08-10T12:59:44.972Z</time>
      </trkpt>
      <trkpt lat="46.9098" lon="8.5635">
        <ele>794</ele>
        <time>2021-08-10T12:59:45.971Z</time>
      </trkpt>
      <trkpt lat="46.90961" lon="8.56345">
        <ele>795</ele>
        <time>2021-08-10T12:59:46.972Z</time>
      </trkpt>
      <trkpt lat="46.90957" lon="8.56342">
        <ele>795</ele>
        <time>2021-08-10T12:59:47.972Z</time>
      </trkpt>
      <trkpt lat="46.9095" lon="8.5635">
        <ele>795</ele>
        <time>2021-08-10T12:59:48.972Z</time>
      </trkpt>
      <trkpt lat="46.90933" lon="8.56335">
        <ele>796</ele>
        <time>2021-08-10T12:59:49.972Z</time>
      </trkpt>
      <trkpt lat="46.90941" lon="8.56309">
        <ele>796</ele>
        <time>2021-08-10T12:59:51.972Z</time>
      </trkpt>
      <trkpt lat="46.90965" lon="8.56303">
        <ele>796</ele>
        <time>2021-08-10T12:59:52.972Z</time>
      </trkpt>
      <trkpt lat="46.90974" lon="8.56313">
        <ele>797</ele>
        <time>2021-08-10T12:59:53.972Z</time>
      </trkpt>
      <trkpt lat="46.90984" lon="8.56309">
        <ele>797</ele>
        <time>2021-08-10T12:59:54.972Z</time>
      </trkpt>
      <trkpt lat="46.9099" lon="8.56305">
        <ele>798</ele>
        <time>2021-08-10T12:59:55.972Z</time>
      </trkpt>
      <trkpt lat="46.90999" lon="8.56299">
        <ele>798</ele>
        <time>2021-08-10T12:59:56.971Z</time>
      </trkpt>
      <trkpt lat="46.91007" lon="8.56289">
        <ele>798</ele>
        <time>2021-08-10T12:59:57.972Z</time>
      </trkpt>
      <trkpt lat="46.91013" lon="8.56284">
        <ele>799</ele>
        <time>2021-08-10T12:59:58.971Z</time>
      </trkpt>
      <trkpt lat="46.91016" lon="8.56281">
        <ele>799</ele>
        <time>2021-08-10T12:59:59.972Z</time>
      </trkpt>
      <trkpt lat="46.91018" lon="8.56278">
        <ele>799</ele>
        <time>2021-08-10T13:00:00.972Z</time>
      </trkpt>
      <trkpt lat="46.91021" lon="8.56277">
        <ele>800</ele>
        <time>2021-08-10T13:00:01.971Z</time>
      </trkpt>
      <trkpt lat="46.91019" lon="8.56273">
        <ele>800</ele>
        <time>2021-08-10T13:00:02.972Z</time>
      </trkpt>
      <trkpt lat="46.91016" lon="8.56271">
        <ele>800</ele>
        <time>2021-08-10T13:00:03.972Z</time>
      </trkpt>
      <trkpt lat="46.91017" lon="8.56271">
        <ele>800</ele>
        <time>2021-08-10T13:00:04.972Z</time>
      </trkpt>
      <trkpt lat="46.91019" lon="8.56271">
        <ele>801</ele>
        <time>2021-08-10T13:00:05.972Z</time>
      </trkpt>
      <trkpt lat="46.91026" lon="8.56267">
        <ele>801</ele>
        <time>2021-08-10T13:00:07.972Z</time>
      </trkpt>
      <trkpt lat="46.91028" lon="8.56266">
        <ele>800</ele>
        <time>2021-08-10T13:00:08.972Z</time>
      </trkpt>
      <trkpt lat="46.91034" lon="8.56263">
        <ele>799</ele>
        <time>2021-08-10T13:00:09.972Z</time>
      </trkpt>
      <trkpt lat="46.91035" lon="8.56263">
        <ele>798</ele>
        <time>2021-08-10T13:00:10.971Z</time>
      </trkpt>
      <trkpt lat="46.91036" lon="8.56263">
        <ele>796</ele>
        <time>2021-08-10T13:00:11.972Z</time>
      </trkpt>
      <trkpt lat="46.91037" lon="8.56262">
        <ele>792</ele>
        <time>2021-08-10T13:00:12.974Z</time>
      </trkpt>
      <trkpt lat="46.91038" lon="8.56262">
        <ele>792</ele>
        <time>2021-08-10T13:00:13.973Z</time>
      </trkpt>
      <trkpt lat="46.91041" lon="8.56261">
        <ele>789</ele>
        <time>2021-08-10T13:00:14.974Z</time>
      </trkpt>
      <trkpt lat="46.91042" lon="8.5626">
        <ele>788</ele>
        <time>2021-08-10T13:00:15.974Z</time>
      </trkpt>
      <trkpt lat="46.91044" lon="8.56259">
        <ele>788</ele>
        <time>2021-08-10T13:00:16.973Z</time>
      </trkpt>
      <trkpt lat="46.91045" lon="8.5626">
        <ele>788</ele>
        <time>2021-08-10T13:00:17.973Z</time>
      </trkpt>
      <trkpt lat="46.91046" lon="8.56259">
        <ele>788</ele>
        <time>2021-08-10T13:00:18.973Z</time>
      </trkpt>
      <trkpt lat="46.91047" lon="8.5626">
        <ele>787</ele>
        <time>2021-08-10T13:00:19.973Z</time>
      </trkpt>
      <trkpt lat="46.91047" lon="8.5626">
        <ele>787</ele>
        <time>2021-08-10T13:00:20.974Z</time>
      </trkpt>
      <trkpt lat="46.91046" lon="8.56259">
        <ele>787</ele>
        <time>2021-08-10T13:00:21.974Z</time>
      </trkpt>
      <trkpt lat="46.91047" lon="8.56258">
        <ele>787</ele>
        <time>2021-08-10T13:00:22.974Z</time>
      </trkpt>
      <trkpt lat="46.91048" lon="8.56258">
        <ele>786</ele>
        <time>2021-08-10T13:00:23.973Z</time>
      </trkpt>
      <trkpt lat="46.91048" lon="8.56259">
        <ele>786</ele>
        <time>2021-08-10T13:00:24.974Z</time>
      </trkpt>
      <trkpt lat="46.91049" lon="8.56259">
        <ele>786</ele>
        <time>2021-08-10T13:00:25.973Z</time>
      </trkpt>
      <trkpt lat="46.9105" lon="8.56259">
        <ele>786</ele>
        <time>2021-08-10T13:00:26.974Z</time>
      </trkpt>
      <trkpt lat="46.9105" lon="8.56259">
        <ele>786</ele>
        <time>2021-08-10T13:00:27.973Z</time>
      </trkpt>
      <trkpt lat="46.9105" lon="8.56258">
        <ele>785</ele>
        <time>2021-08-10T13:00:28.974Z</time>
      </trkpt>
      <trkpt lat="46.91052" lon="8.56258">
        <ele>785</ele>
        <time>2021-08-10T13:00:29.974Z</time>
      </trkpt>
      <trkpt lat="46.91052" lon="8.56257">
        <ele>785</ele>
        <time>2021-08-10T13:00:30.974Z</time>
      </trkpt>
      <trkpt lat="46.91053" lon="8.56255">
        <ele>785</ele>
        <time>2021-08-10T13:00:32.995Z</time>
      </trkpt>
      <trkpt lat="46.91053" lon="8.56254">
        <ele>785</ele>
        <time>2021-08-10T13:00:33.996Z</time>
      </trkpt>
      <trkpt lat="46.91053" lon="8.56254">
        <ele>785</ele>
        <time>2021-08-10T13:00:36.845Z</time>
      </trkpt>
      <trkpt lat="46.91053" lon="8.56253">
        <ele>785</ele>
        <time>2021-08-10T13:00:37.845Z</time>
      </trkpt>
      <trkpt lat="46.91053" lon="8.56253">
        <ele>784</ele>
        <time>2021-08-10T13:00:38.845Z</time>
      </trkpt>
      <trkpt lat="46.91053" lon="8.56253">
        <ele>784</ele>
        <time>2021-08-10T13:00:53.605Z</time>
      </trkpt>
      <trkpt lat="46.91054" lon="8.56253">
        <ele>784</ele>
        <time>2021-08-10T13:00:54.606Z</time>
      </trkpt>
      <trkpt lat="46.91054" lon="8.56253">
        <ele>784</ele>
        <time>2021-08-10T13:00:55.605Z</time>
      </trkpt>
      <trkpt lat="46.91054" lon="8.56253">
        <ele>783</ele>
        <time>2021-08-10T13:00:56.605Z</time>
      </trkpt>
      <trkpt lat="46.91054" lon="8.56254">
        <ele>783</ele>
        <time>2021-08-10T13:00:57.605Z</time>
      </trkpt>
      <trkpt lat="46.91055" lon="8.56253">
        <ele>783</ele>
        <time>2021-08-10T13:00:58.606Z</time>
      </trkpt>
      <trkpt lat="46.91055" lon="8.56253">
        <ele>783</ele>
        <time>2021-08-10T13:00:59.605Z</time>
      </trkpt>
      <trkpt lat="46.91054" lon="8.56252">
        <ele>783</ele>
        <time>2021-08-10T13:01:00.606Z</time>
      </trkpt>
      <trkpt lat="46.91054" lon="8.56252">
        <ele>783</ele>
        <time>2021-08-10T13:01:01.605Z</time>
      </trkpt>
      <trkpt lat="46.91055" lon="8.56251">
        <ele>783</ele>
        <time>2021-08-10T13:01:05.627Z</time>
      </trkpt>
      <trkpt lat="46.91055" lon="8.56251">
        <ele>783</ele>
        <time>2021-08-10T13:01:06.627Z</time>
      </trkpt>
      <trkpt lat="46.91056" lon="8.5625">
        <ele>783</ele>
        <time>2021-08-10T13:01:07.627Z</time>
      </trkpt>
      <trkpt lat="46.91057" lon="8.5625">
        <ele>783</ele>
        <time>2021-08-10T13:01:08.627Z</time>
      </trkpt>
      <trkpt lat="46.91056" lon="8.5625">
        <ele>783</ele>
        <time>2021-08-10T13:01:09.627Z</time>
      </trkpt>
      <trkpt lat="46.91056" lon="8.56249">
        <ele>783</ele>
        <time>2021-08-10T13:01:10.628Z</time>
      </trkpt>
      <trkpt lat="46.91053" lon="8.56247">
        <ele>784</ele>
        <time>2021-08-10T13:01:11.628Z</time>
      </trkpt>
      <trkpt lat="46.91051" lon="8.56247">
        <ele>784</ele>
        <time>2021-08-10T13:01:12.628Z</time>
      </trkpt>
      <trkpt lat="46.91051" lon="8.56247">
        <ele>784</ele>
        <time>2021-08-10T13:01:13.628Z</time>
      </trkpt>
      <trkpt lat="46.91051" lon="8.56246">
        <ele>784</ele>
        <time>2021-08-10T13:01:14.627Z</time>
      </trkpt>
      <trkpt lat="46.9105" lon="8.56246">
        <ele>784</ele>
        <time>2021-08-10T13:01:15.628Z</time>
      </trkpt>
      <trkpt lat="46.91049" lon="8.56248">
        <ele>785</ele>
        <time>2021-08-10T13:01:16.628Z</time>
      </trkpt>
      <trkpt lat="46.91049" lon="8.56248">
        <ele>786</ele>
        <time>2021-08-10T13:01:17.628Z</time>
      </trkpt>
      <trkpt lat="46.91049" lon="8.56248">
        <ele>786</ele>
        <time>2021-08-10T13:01:18.627Z</time>
      </trkpt>
      <trkpt lat="46.9105" lon="8.56247">
        <ele>786</ele>
        <time>2021-08-10T13:01:19.628Z</time>
      </trkpt>
      <trkpt lat="46.9105" lon="8.56247">
        <ele>786</ele>
        <time>2021-08-10T13:01:20.627Z</time>
      </trkpt>
      <trkpt lat="46.91049" lon="8.56248">
        <ele>784</ele>
        <time>2021-08-10T13:01:21.629Z</time>
      </trkpt>
      <trkpt lat="46.91046" lon="8.56249">
        <ele>781</ele>
        <time>2021-08-10T13:01:22.629Z</time>
      </trkpt>
      <trkpt lat="46.91045" lon="8.56248">
        <ele>780</ele>
        <time>2021-08-10T13:01:23.629Z</time>
      </trkpt>
      <trkpt lat="46.91045" lon="8.56247">
        <ele>779</ele>
        <time>2021-08-10T13:01:24.628Z</time>
      </trkpt>
      <trkpt lat="46.91045" lon="8.56246">
        <ele>779</ele>
        <time>2021-08-10T13:01:25.629Z</time>
      </trkpt>
      <trkpt lat="46.91044" lon="8.56246">
        <ele>778</ele>
        <time>2021-08-10T13:01:26.628Z</time>
      </trkpt>
      <trkpt lat="46.91043" lon="8.56245">
        <ele>777</ele>
        <time>2021-08-10T13:01:27.628Z</time>
      </trkpt>
      <trkpt lat="46.91042" lon="8.56245">
        <ele>776</ele>
        <time>2021-08-10T13:01:28.628Z</time>
      </trkpt>
      <trkpt lat="46.91041" lon="8.56246">
        <ele>775</ele>
        <time>2021-08-10T13:01:29.628Z</time>
      </trkpt>
      <trkpt lat="46.9104" lon="8.56246">
        <ele>774</ele>
        <time>2021-08-10T13:01:30.628Z</time>
      </trkpt>
      <trkpt lat="46.91039" lon="8.56246">
        <ele>773</ele>
        <time>2021-08-10T13:01:31.628Z</time>
      </trkpt>
      <trkpt lat="46.91038" lon="8.56246">
        <ele>772</ele>
        <time>2021-08-10T13:01:36.727Z</time>
      </trkpt>
      <trkpt lat="46.91037" lon="8.56247">
        <ele>772</ele>
        <time>2021-08-10T13:01:37.727Z</time>
      </trkpt>
      <trkpt lat="46.91036" lon="8.56247">
        <ele>771</ele>
        <time>2021-08-10T13:01:38.728Z</time>
      </trkpt>
      <trkpt lat="46.91035" lon="8.56248">
        <ele>770</ele>
        <time>2021-08-10T13:01:39.727Z</time>
      </trkpt>
      <trkpt lat="46.91035" lon="8.56248">
        <ele>769</ele>
        <time>2021-08-10T13:01:40.728Z</time>
      </trkpt>
      <trkpt lat="46.91034" lon="8.56249">
        <ele>768</ele>
        <time>2021-08-10T13:01:41.727Z</time>
      </trkpt>
      <trkpt lat="46.91034" lon="8.5625">
        <ele>767</ele>
        <time>2021-08-10T13:01:42.727Z</time>
      </trkpt>
      <trkpt lat="46.91033" lon="8.56251">
        <ele>766</ele>
        <time>2021-08-10T13:01:44.830Z</time>
      </trkpt>
      <trkpt lat="46.91032" lon="8.56252">
        <ele>766</ele>
        <time>2021-08-10T13:01:45.830Z</time>
      </trkpt>
      <trkpt lat="46.91031" lon="8.56253">
        <ele>766</ele>
        <time>2021-08-10T13:01:49.685Z</time>
      </trkpt>
      <trkpt lat="46.91029" lon="8.56254">
        <ele>766</ele>
        <time>2021-08-10T13:01:50.685Z</time>
      </trkpt>
      <trkpt lat="46.91028" lon="8.56255">
        <ele>766</ele>
        <time>2021-08-10T13:01:51.685Z</time>
      </trkpt>
      <trkpt lat="46.91027" lon="8.56257">
        <ele>766</ele>
        <time>2021-08-10T13:01:52.685Z</time>
      </trkpt>
      <trkpt lat="46.91026" lon="8.56258">
        <ele>766</ele>
        <time>2021-08-10T13:01:53.684Z</time>
      </trkpt>
      <trkpt lat="46.91025" lon="8.56258">
        <ele>766</ele>
        <time>2021-08-10T13:01:54.684Z</time>
      </trkpt>
      <trkpt lat="46.91024" lon="8.56259">
        <ele>766</ele>
        <time>2021-08-10T13:01:55.685Z</time>
      </trkpt>
      <trkpt lat="46.91023" lon="8.56259">
        <ele>765</ele>
        <time>2021-08-10T13:01:56.684Z</time>
      </trkpt>
      <trkpt lat="46.91022" lon="8.56259">
        <ele>764</ele>
        <time>2021-08-10T13:01:57.685Z</time>
      </trkpt>
      <trkpt lat="46.9102" lon="8.5626">
        <ele>764</ele>
        <time>2021-08-10T13:01:58.685Z</time>
      </trkpt>
      <trkpt lat="46.91019" lon="8.56261">
        <ele>763</ele>
        <time>2021-08-10T13:01:59.685Z</time>
      </trkpt>
      <trkpt lat="46.91018" lon="8.56261">
        <ele>762</ele>
        <time>2021-08-10T13:02:00.685Z</time>
      </trkpt>
      <trkpt lat="46.91017" lon="8.56262">
        <ele>762</ele>
        <time>2021-08-10T13:02:01.685Z</time>
      </trkpt>
      <trkpt lat="46.91015" lon="8.56262">
        <ele>761</ele>
        <time>2021-08-10T13:02:02.685Z</time>
      </trkpt>
      <trkpt lat="46.91015" lon="8.56263">
        <ele>760</ele>
        <time>2021-08-10T13:02:03.685Z</time>
      </trkpt>
      <trkpt lat="46.91014" lon="8.56263">
        <ele>759</ele>
        <time>2021-08-10T13:02:04.685Z</time>
      </trkpt>
      <trkpt lat="46.91013" lon="8.56264">
        <ele>758</ele>
        <time>2021-08-10T13:02:05.684Z</time>
      </trkpt>
      <trkpt lat="46.91012" lon="8.56264">
        <ele>758</ele>
        <time>2021-08-10T13:02:06.684Z</time>
      </trkpt>
      <trkpt lat="46.9101" lon="8.56265">
        <ele>758</ele>
        <time>2021-08-10T13:02:07.685Z</time>
      </trkpt>
      <trkpt lat="46.91008" lon="8.56266">
        <ele>758</ele>
        <time>2021-08-10T13:02:08.685Z</time>
      </trkpt>
      <trkpt lat="46.91007" lon="8.56265">
        <ele>759</ele>
        <time>2021-08-10T13:02:09.685Z</time>
      </trkpt>
      <trkpt lat="46.91006" lon="8.56266">
        <ele>759</ele>
        <time>2021-08-10T13:02:10.685Z</time>
      </trkpt>
      <trkpt lat="46.91005" lon="8.56266">
        <ele>760</ele>
        <time>2021-08-10T13:02:11.685Z</time>
      </trkpt>
      <trkpt lat="46.91004" lon="8.56267">
        <ele>760</ele>
        <time>2021-08-10T13:02:12.684Z</time>
      </trkpt>
      <trkpt lat="46.91003" lon="8.56268">
        <ele>761</ele>
        <time>2021-08-10T13:02:13.685Z</time>
      </trkpt>
      <trkpt lat="46.91001" lon="8.56268">
        <ele>762</ele>
        <time>2021-08-10T13:02:14.685Z</time>
      </trkpt>
      <trkpt lat="46.91" lon="8.56269">
        <ele>762</ele>
        <time>2021-08-10T13:02:15.685Z</time>
      </trkpt>
      <trkpt lat="46.90999" lon="8.56269">
        <ele>763</ele>
        <time>2021-08-10T13:02:16.685Z</time>
      </trkpt>
      <trkpt lat="46.90998" lon="8.56269">
        <ele>763</ele>
        <time>2021-08-10T13:02:17.685Z</time>
      </trkpt>
      <trkpt lat="46.90997" lon="8.5627">
        <ele>764</ele>
        <time>2021-08-10T13:02:18.685Z</time>
      </trkpt>
      <trkpt lat="46.90996" lon="8.5627">
        <ele>764</ele>
        <time>2021-08-10T13:02:19.685Z</time>
      </trkpt>
      <trkpt lat="46.90996" lon="8.5627">
        <ele>765</ele>
        <time>2021-08-10T13:02:20.684Z</time>
      </trkpt>
      <trkpt lat="46.90995" lon="8.5627">
        <ele>765</ele>
        <time>2021-08-10T13:02:21.685Z</time>
      </trkpt>
      <trkpt lat="46.90995" lon="8.56269">
        <ele>766</ele>
        <time>2021-08-10T13:02:22.685Z</time>
      </trkpt>
      <trkpt lat="46.90994" lon="8.56269">
        <ele>766</ele>
        <time>2021-08-10T13:02:23.685Z</time>
      </trkpt>
      <trkpt lat="46.90994" lon="8.56268">
        <ele>767</ele>
        <time>2021-08-10T13:02:24.685Z</time>
      </trkpt>
      <trkpt lat="46.90993" lon="8.56266">
        <ele>767</ele>
        <time>2021-08-10T13:02:25.685Z</time>
      </trkpt>
      <trkpt lat="46.90992" lon="8.56264">
        <ele>768</ele>
        <time>2021-08-10T13:02:26.685Z</time>
      </trkpt>
      <trkpt lat="46.90992" lon="8.56262">
        <ele>769</ele>
        <time>2021-08-10T13:02:27.684Z</time>
      </trkpt>
      <trkpt lat="46.90991" lon="8.56261">
        <ele>769</ele>
        <time>2021-08-10T13:02:28.685Z</time>
      </trkpt>
      <trkpt lat="46.9099" lon="8.56261">
        <ele>770</ele>
        <time>2021-08-10T13:02:29.685Z</time>
      </trkpt>
      <trkpt lat="46.90989" lon="8.56262">
        <ele>770</ele>
        <time>2021-08-10T13:02:30.685Z</time>
      </trkpt>
      <trkpt lat="46.90989" lon="8.56262">
        <ele>769</ele>
        <time>2021-08-10T13:02:31.684Z</time>
      </trkpt>
      <trkpt lat="46.90989" lon="8.56261">
        <ele>769</ele>
        <time>2021-08-10T13:02:32.685Z</time>
      </trkpt>
      <trkpt lat="46.90988" lon="8.5626">
        <ele>769</ele>
        <time>2021-08-10T13:02:33.685Z</time>
      </trkpt>
      <trkpt lat="46.90987" lon="8.56257">
        <ele>768</ele>
        <time>2021-08-10T13:02:34.684Z</time>
      </trkpt>
      <trkpt lat="46.90986" lon="8.56255">
        <ele>768</ele>
        <time>2021-08-10T13:02:35.685Z</time>
      </trkpt>
      <trkpt lat="46.90986" lon="8.56253">
        <ele>767</ele>
        <time>2021-08-10T13:02:36.685Z</time>
      </trkpt>
      <trkpt lat="46.90985" lon="8.56252">
        <ele>767</ele>
        <time>2021-08-10T13:02:37.685Z</time>
      </trkpt>
      <trkpt lat="46.90985" lon="8.56251">
        <ele>767</ele>
        <time>2021-08-10T13:02:38.684Z</time>
      </trkpt>
      <trkpt lat="46.90984" lon="8.5625">
        <ele>767</ele>
        <time>2021-08-10T13:02:39.684Z</time>
      </trkpt>
      <trkpt lat="46.90983" lon="8.56249">
        <ele>767</ele>
        <time>2021-08-10T13:02:40.685Z</time>
      </trkpt>
      <trkpt lat="46.90982" lon="8.56248">
        <ele>767</ele>
        <time>2021-08-10T13:02:41.685Z</time>
      </trkpt>
      <trkpt lat="46.90981" lon="8.56247">
        <ele>768</ele>
        <time>2021-08-10T13:02:42.684Z</time>
      </trkpt>
      <trkpt lat="46.90981" lon="8.56246">
        <ele>768</ele>
        <time>2021-08-10T13:02:43.685Z</time>
      </trkpt>
      <trkpt lat="46.90981" lon="8.56247">
        <ele>769</ele>
        <time>2021-08-10T13:02:44.685Z</time>
      </trkpt>
      <trkpt lat="46.90981" lon="8.56248">
        <ele>769</ele>
        <time>2021-08-10T13:02:45.684Z</time>
      </trkpt>
      <trkpt lat="46.9098" lon="8.56249">
        <ele>768</ele>
        <time>2021-08-10T13:02:46.684Z</time>
      </trkpt>
      <trkpt lat="46.90979" lon="8.56249">
        <ele>768</ele>
        <time>2021-08-10T13:02:47.685Z</time>
      </trkpt>
      <trkpt lat="46.90978" lon="8.56247">
        <ele>769</ele>
        <time>2021-08-10T13:02:48.684Z</time>
      </trkpt>
      <trkpt lat="46.90977" lon="8.56247">
        <ele>770</ele>
        <time>2021-08-10T13:02:49.684Z</time>
      </trkpt>
      <trkpt lat="46.90977" lon="8.56247">
        <ele>771</ele>
        <time>2021-08-10T13:02:50.684Z</time>
      </trkpt>
      <trkpt lat="46.90977" lon="8.56247">
        <ele>772</ele>
        <time>2021-08-10T13:02:51.684Z</time>
      </trkpt>
      <trkpt lat="46.90976" lon="8.56247">
        <ele>772</ele>
        <time>2021-08-10T13:02:52.685Z</time>
      </trkpt>
      <trkpt lat="46.90976" lon="8.56247">
        <ele>773</ele>
        <time>2021-08-10T13:02:53.684Z</time>
      </trkpt>
      <trkpt lat="46.90975" lon="8.56248">
        <ele>774</ele>
        <time>2021-08-10T13:02:54.685Z</time>
      </trkpt>
      <trkpt lat="46.90974" lon="8.56248">
        <ele>774</ele>
        <time>2021-08-10T13:02:55.685Z</time>
      </trkpt>
      <trkpt lat="46.90974" lon="8.56248">
        <ele>774</ele>
        <time>2021-08-10T13:02:56.684Z</time>
      </trkpt>
      <trkpt lat="46.90973" lon="8.56247">
        <ele>774</ele>
        <time>2021-08-10T13:02:57.685Z</time>
      </trkpt>
      <trkpt lat="46.90972" lon="8.56247">
        <ele>774</ele>
        <time>2021-08-10T13:02:58.684Z</time>
      </trkpt>
      <trkpt lat="46.90971" lon="8.56246">
        <ele>775</ele>
        <time>2021-08-10T13:02:59.685Z</time>
      </trkpt>
      <trkpt lat="46.9097" lon="8.56245">
        <ele>775</ele>
        <time>2021-08-10T13:03:00.684Z</time>
      </trkpt>
      <trkpt lat="46.90969" lon="8.56245">
        <ele>775</ele>
        <time>2021-08-10T13:03:01.685Z</time>
      </trkpt>
      <trkpt lat="46.90968" lon="8.56244">
        <ele>775</ele>
        <time>2021-08-10T13:03:02.685Z</time>
      </trkpt>
      <trkpt lat="46.90967" lon="8.56245">
        <ele>775</ele>
        <time>2021-08-10T13:03:03.685Z</time>
      </trkpt>
      <trkpt lat="46.90967" lon="8.56245">
        <ele>776</ele>
        <time>2021-08-10T13:03:04.684Z</time>
      </trkpt>
      <trkpt lat="46.90966" lon="8.56245">
        <ele>776</ele>
        <time>2021-08-10T13:03:05.684Z</time>
      </trkpt>
      <trkpt lat="46.90965" lon="8.56244">
        <ele>776</ele>
        <time>2021-08-10T13:03:12.745Z</time>
      </trkpt>
      <trkpt lat="46.90965" lon="8.56244">
        <ele>776</ele>
        <time>2021-08-10T13:03:13.745Z</time>
      </trkpt>
      <trkpt lat="46.90964" lon="8.56243">
        <ele>776</ele>
        <time>2021-08-10T13:03:14.745Z</time>
      </trkpt>
      <trkpt lat="46.90963" lon="8.56242">
        <ele>776</ele>
        <time>2021-08-10T13:03:15.744Z</time>
      </trkpt>
      <trkpt lat="46.90962" lon="8.56242">
        <ele>776</ele>
        <time>2021-08-10T13:03:16.745Z</time>
      </trkpt>
      <trkpt lat="46.90961" lon="8.56242">
        <ele>776</ele>
        <time>2021-08-10T13:03:17.745Z</time>
      </trkpt>
      <trkpt lat="46.90961" lon="8.56243">
        <ele>775</ele>
        <time>2021-08-10T13:03:18.745Z</time>
      </trkpt>
      <trkpt lat="46.9096" lon="8.56243">
        <ele>775</ele>
        <time>2021-08-10T13:03:19.744Z</time>
      </trkpt>
      <trkpt lat="46.90959" lon="8.56244">
        <ele>775</ele>
        <time>2021-08-10T13:03:20.745Z</time>
      </trkpt>
      <trkpt lat="46.90959" lon="8.56244">
        <ele>775</ele>
        <time>2021-08-10T13:03:21.745Z</time>
      </trkpt>
      <trkpt lat="46.90958" lon="8.56243">
        <ele>775</ele>
        <time>2021-08-10T13:03:22.745Z</time>
      </trkpt>
      <trkpt lat="46.90957" lon="8.56243">
        <ele>775</ele>
        <time>2021-08-10T13:03:23.745Z</time>
      </trkpt>
      <trkpt lat="46.90956" lon="8.56242">
        <ele>775</ele>
        <time>2021-08-10T13:03:24.745Z</time>
      </trkpt>
      <trkpt lat="46.90955" lon="8.56243">
        <ele>775</ele>
        <time>2021-08-10T13:03:25.745Z</time>
      </trkpt>
      <trkpt lat="46.90954" lon="8.56243">
        <ele>775</ele>
        <time>2021-08-10T13:03:26.744Z</time>
      </trkpt>
      <trkpt lat="46.90953" lon="8.56244">
        <ele>776</ele>
        <time>2021-08-10T13:03:27.745Z</time>
      </trkpt>
      <trkpt lat="46.90952" lon="8.56245">
        <ele>776</ele>
        <time>2021-08-10T13:03:28.745Z</time>
      </trkpt>
      <trkpt lat="46.90952" lon="8.56245">
        <ele>777</ele>
        <time>2021-08-10T13:03:29.745Z</time>
      </trkpt>
      <trkpt lat="46.90951" lon="8.56245">
        <ele>777</ele>
        <time>2021-08-10T13:03:30.745Z</time>
      </trkpt>
      <trkpt lat="46.90951" lon="8.56244">
        <ele>777</ele>
        <time>2021-08-10T13:03:31.745Z</time>
      </trkpt>
      <trkpt lat="46.9095" lon="8.56243">
        <ele>777</ele>
        <time>2021-08-10T13:03:32.745Z</time>
      </trkpt>
      <trkpt lat="46.9095" lon="8.56243">
        <ele>778</ele>
        <time>2021-08-10T13:03:33.744Z</time>
      </trkpt>
      <trkpt lat="46.90949" lon="8.56243">
        <ele>778</ele>
        <time>2021-08-10T13:03:34.745Z</time>
      </trkpt>
      <trkpt lat="46.90949" lon="8.56243">
        <ele>778</ele>
        <time>2021-08-10T13:03:35.744Z</time>
      </trkpt>
      <trkpt lat="46.90949" lon="8.56242">
        <ele>778</ele>
        <time>2021-08-10T13:03:36.745Z</time>
      </trkpt>
      <trkpt lat="46.90948" lon="8.56242">
        <ele>778</ele>
        <time>2021-08-10T13:03:37.745Z</time>
      </trkpt>
      <trkpt lat="46.90947" lon="8.56242">
        <ele>778</ele>
        <time>2021-08-10T13:03:38.744Z</time>
      </trkpt>
      <trkpt lat="46.90947" lon="8.56242">
        <ele>777</ele>
        <time>2021-08-10T13:03:39.744Z</time>
      </trkpt>
      <trkpt lat="46.90947" lon="8.56242">
        <ele>777</ele>
        <time>2021-08-10T13:03:40.745Z</time>
      </trkpt>
      <trkpt lat="46.90947" lon="8.56241">
        <ele>776</ele>
        <time>2021-08-10T13:03:41.745Z</time>
      </trkpt>
      <trkpt lat="46.90946" lon="8.5624">
        <ele>776</ele>
        <time>2021-08-10T13:03:42.744Z</time>
      </trkpt>
      <trkpt lat="46.90946" lon="8.5624">
        <ele>776</ele>
        <time>2021-08-10T13:03:43.744Z</time>
      </trkpt>
      <trkpt lat="46.90945" lon="8.56239">
        <ele>775</ele>
        <time>2021-08-10T13:03:44.745Z</time>
      </trkpt>
      <trkpt lat="46.90944" lon="8.56239">
        <ele>775</ele>
        <time>2021-08-10T13:03:45.744Z</time>
      </trkpt>
      <trkpt lat="46.90944" lon="8.56238">
        <ele>775</ele>
        <time>2021-08-10T13:03:46.744Z</time>
      </trkpt>
      <trkpt lat="46.90943" lon="8.56238">
        <ele>775</ele>
        <time>2021-08-10T13:03:47.745Z</time>
      </trkpt>
      <trkpt lat="46.90944" lon="8.56239">
        <ele>775</ele>
        <time>2021-08-10T13:03:48.745Z</time>
      </trkpt>
      <trkpt lat="46.90944" lon="8.5624">
        <ele>774</ele>
        <time>2021-08-10T13:03:49.745Z</time>
      </trkpt>
      <trkpt lat="46.90944" lon="8.5624">
        <ele>774</ele>
        <time>2021-08-10T13:03:50.745Z</time>
      </trkpt>
      <trkpt lat="46.90944" lon="8.56239">
        <ele>774</ele>
        <time>2021-08-10T13:03:51.745Z</time>
      </trkpt>
      <trkpt lat="46.90943" lon="8.56239">
        <ele>774</ele>
        <time>2021-08-10T13:03:52.745Z</time>
      </trkpt>
      <trkpt lat="46.90942" lon="8.56237">
        <ele>774</ele>
        <time>2021-08-10T13:03:53.745Z</time>
      </trkpt>
      <trkpt lat="46.90942" lon="8.56235">
        <ele>774</ele>
        <time>2021-08-10T13:03:55.814Z</time>
      </trkpt>
      <trkpt lat="46.9094" lon="8.56234">
        <ele>774</ele>
        <time>2021-08-10T13:03:56.814Z</time>
      </trkpt>
      <trkpt lat="46.90939" lon="8.56234">
        <ele>774</ele>
        <time>2021-08-10T13:03:57.813Z</time>
      </trkpt>
      <trkpt lat="46.90938" lon="8.56235">
        <ele>773</ele>
        <time>2021-08-10T13:03:58.814Z</time>
      </trkpt>
      <trkpt lat="46.90937" lon="8.56235">
        <ele>774</ele>
        <time>2021-08-10T13:03:59.813Z</time>
      </trkpt>
      <trkpt lat="46.90936" lon="8.56234">
        <ele>774</ele>
        <time>2021-08-10T13:04:00.814Z</time>
      </trkpt>
      <trkpt lat="46.90936" lon="8.56233">
        <ele>774</ele>
        <time>2021-08-10T13:04:01.814Z</time>
      </trkpt>
      <trkpt lat="46.90936" lon="8.56232">
        <ele>774</ele>
        <time>2021-08-10T13:04:02.814Z</time>
      </trkpt>
      <trkpt lat="46.90936" lon="8.5623">
        <ele>773</ele>
        <time>2021-08-10T13:04:03.814Z</time>
      </trkpt>
      <trkpt lat="46.90936" lon="8.56229">
        <ele>773</ele>
        <time>2021-08-10T13:04:04.814Z</time>
      </trkpt>
      <trkpt lat="46.90936" lon="8.56228">
        <ele>773</ele>
        <time>2021-08-10T13:04:05.814Z</time>
      </trkpt>
      <trkpt lat="46.90935" lon="8.56225">
        <ele>773</ele>
        <time>2021-08-10T13:04:06.814Z</time>
      </trkpt>
      <trkpt lat="46.90934" lon="8.56223">
        <ele>773</ele>
        <time>2021-08-10T13:04:07.813Z</time>
      </trkpt>
      <trkpt lat="46.90934" lon="8.56222">
        <ele>773</ele>
        <time>2021-08-10T13:04:08.814Z</time>
      </trkpt>
      <trkpt lat="46.90933" lon="8.5622">
        <ele>773</ele>
        <time>2021-08-10T13:04:09.814Z</time>
      </trkpt>
      <trkpt lat="46.90932" lon="8.56219">
        <ele>773</ele>
        <time>2021-08-10T13:04:10.813Z</time>
      </trkpt>
      <trkpt lat="46.90931" lon="8.56218">
        <ele>774</ele>
        <time>2021-08-10T13:04:11.814Z</time>
      </trkpt>
      <trkpt lat="46.9093" lon="8.56218">
        <ele>775</ele>
        <time>2021-08-10T13:04:12.814Z</time>
      </trkpt>
      <trkpt lat="46.9093" lon="8.56218">
        <ele>776</ele>
        <time>2021-08-10T13:04:13.814Z</time>
      </trkpt>
      <trkpt lat="46.90929" lon="8.56219">
        <ele>777</ele>
        <time>2021-08-10T13:04:14.814Z</time>
      </trkpt>
      <trkpt lat="46.90929" lon="8.56218">
        <ele>777</ele>
        <time>2021-08-10T13:04:15.814Z</time>
      </trkpt>
      <trkpt lat="46.90928" lon="8.56218">
        <ele>777</ele>
        <time>2021-08-10T13:04:16.814Z</time>
      </trkpt>
      <trkpt lat="46.90929" lon="8.56218">
        <ele>777</ele>
        <time>2021-08-10T13:04:17.814Z</time>
      </trkpt>
      <trkpt lat="46.90929" lon="8.56218">
        <ele>777</ele>
        <time>2021-08-10T13:04:18.814Z</time>
      </trkpt>
      <trkpt lat="46.90928" lon="8.56218">
        <ele>777</ele>
        <time>2021-08-10T13:04:19.814Z</time>
      </trkpt>
      <trkpt lat="46.90928" lon="8.56217">
        <ele>778</ele>
        <time>2021-08-10T13:04:20.815Z</time>
      </trkpt>
      <trkpt lat="46.90927" lon="8.56217">
        <ele>779</ele>
        <time>2021-08-10T13:04:21.814Z</time>
      </trkpt>
      <trkpt lat="46.90927" lon="8.56216">
        <ele>779</ele>
        <time>2021-08-10T13:04:22.815Z</time>
      </trkpt>
      <trkpt lat="46.90926" lon="8.56215">
        <ele>779</ele>
        <time>2021-08-10T13:04:23.815Z</time>
      </trkpt>
      <trkpt lat="46.90926" lon="8.56213">
        <ele>780</ele>
        <time>2021-08-10T13:04:24.815Z</time>
      </trkpt>
      <trkpt lat="46.90925" lon="8.56212">
        <ele>780</ele>
        <time>2021-08-10T13:04:25.815Z</time>
      </trkpt>
      <trkpt lat="46.90925" lon="8.56211">
        <ele>781</ele>
        <time>2021-08-10T13:04:26.815Z</time>
      </trkpt>
      <trkpt lat="46.90925" lon="8.5621">
        <ele>782</ele>
        <time>2021-08-10T13:04:27.815Z</time>
      </trkpt>
      <trkpt lat="46.90925" lon="8.5621">
        <ele>782</ele>
        <time>2021-08-10T13:04:31.998Z</time>
      </trkpt>
      <trkpt lat="46.90925" lon="8.5621">
        <ele>782</ele>
        <time>2021-08-10T13:04:32.998Z</time>
      </trkpt>
      <trkpt lat="46.90925" lon="8.56209">
        <ele>783</ele>
        <time>2021-08-10T13:04:33.998Z</time>
      </trkpt>
      <trkpt lat="46.90925" lon="8.56208">
        <ele>783</ele>
        <time>2021-08-10T13:04:34.998Z</time>
      </trkpt>
      <trkpt lat="46.90925" lon="8.56208">
        <ele>783</ele>
        <time>2021-08-10T13:04:35.998Z</time>
      </trkpt>
      <trkpt lat="46.90924" lon="8.56207">
        <ele>783</ele>
        <time>2021-08-10T13:04:36.998Z</time>
      </trkpt>
      <trkpt lat="46.90924" lon="8.56207">
        <ele>783</ele>
        <time>2021-08-10T13:04:37.998Z</time>
      </trkpt>
      <trkpt lat="46.90923" lon="8.56206">
        <ele>784</ele>
        <time>2021-08-10T13:04:38.998Z</time>
      </trkpt>
      <trkpt lat="46.90923" lon="8.56205">
        <ele>785</ele>
        <time>2021-08-10T13:04:39.997Z</time>
      </trkpt>
      <trkpt lat="46.90922" lon="8.56205">
        <ele>785</ele>
        <time>2021-08-10T13:04:40.998Z</time>
      </trkpt>
      <trkpt lat="46.90922" lon="8.56205">
        <ele>786</ele>
        <time>2021-08-10T13:04:41.997Z</time>
      </trkpt>
      <trkpt lat="46.90922" lon="8.56204">
        <ele>786</ele>
        <time>2021-08-10T13:04:42.998Z</time>
      </trkpt>
      <trkpt lat="46.90921" lon="8.56204">
        <ele>786</ele>
        <time>2021-08-10T13:04:43.997Z</time>
      </trkpt>
      <trkpt lat="46.9092" lon="8.56204">
        <ele>786</ele>
        <time>2021-08-10T13:04:44.997Z</time>
      </trkpt>
      <trkpt lat="46.9092" lon="8.56204">
        <ele>786</ele>
        <time>2021-08-10T13:04:45.998Z</time>
      </trkpt>
      <trkpt lat="46.9092" lon="8.56204">
        <ele>785</ele>
        <time>2021-08-10T13:04:46.998Z</time>
      </trkpt>
      <trkpt lat="46.90919" lon="8.56204">
        <ele>785</ele>
        <time>2021-08-10T13:04:47.998Z</time>
      </trkpt>
      <trkpt lat="46.90919" lon="8.56203">
        <ele>786</ele>
        <time>2021-08-10T13:04:48.998Z</time>
      </trkpt>
      <trkpt lat="46.90919" lon="8.56202">
        <ele>786</ele>
        <time>2021-08-10T13:04:49.997Z</time>
      </trkpt>
      <trkpt lat="46.90919" lon="8.56201">
        <ele>787</ele>
        <time>2021-08-10T13:04:50.997Z</time>
      </trkpt>
      <trkpt lat="46.90919" lon="8.562">
        <ele>788</ele>
        <time>2021-08-10T13:04:51.997Z</time>
      </trkpt>
      <trkpt lat="46.90918" lon="8.56199">
        <ele>788</ele>
        <time>2021-08-10T13:04:52.997Z</time>
      </trkpt>
      <trkpt lat="46.90918" lon="8.56198">
        <ele>789</ele>
        <time>2021-08-10T13:04:53.997Z</time>
      </trkpt>
      <trkpt lat="46.90918" lon="8.56197">
        <ele>789</ele>
        <time>2021-08-10T13:04:54.998Z</time>
      </trkpt>
      <trkpt lat="46.90917" lon="8.56197">
        <ele>789</ele>
        <time>2021-08-10T13:04:55.998Z</time>
      </trkpt>
      <trkpt lat="46.90917" lon="8.56196">
        <ele>790</ele>
        <time>2021-08-10T13:04:56.998Z</time>
      </trkpt>
      <trkpt lat="46.90916" lon="8.56195">
        <ele>790</ele>
        <time>2021-08-10T13:04:57.998Z</time>
      </trkpt>
      <trkpt lat="46.90915" lon="8.56194">
        <ele>791</ele>
        <time>2021-08-10T13:04:58.998Z</time>
      </trkpt>
      <trkpt lat="46.90915" lon="8.56194">
        <ele>791</ele>
        <time>2021-08-10T13:04:59.998Z</time>
      </trkpt>
      <trkpt lat="46.90914" lon="8.56193">
        <ele>791</ele>
        <time>2021-08-10T13:05:00.998Z</time>
      </trkpt>
      <trkpt lat="46.90914" lon="8.56193">
        <ele>791</ele>
        <time>2021-08-10T13:05:01.997Z</time>
      </trkpt>
      <trkpt lat="46.90914" lon="8.56193">
        <ele>792</ele>
        <time>2021-08-10T13:05:02.998Z</time>
      </trkpt>
      <trkpt lat="46.90913" lon="8.56192">
        <ele>792</ele>
        <time>2021-08-10T13:05:10.120Z</time>
      </trkpt>
      <trkpt lat="46.90913" lon="8.56192">
        <ele>794</ele>
        <time>2021-08-10T13:05:11.120Z</time>
      </trkpt>
      <trkpt lat="46.90912" lon="8.56191">
        <ele>795</ele>
        <time>2021-08-10T13:05:12.120Z</time>
      </trkpt>
      <trkpt lat="46.90912" lon="8.5619">
        <ele>795</ele>
        <time>2021-08-10T13:05:13.120Z</time>
      </trkpt>
      <trkpt lat="46.90911" lon="8.56189">
        <ele>796</ele>
        <time>2021-08-10T13:05:14.120Z</time>
      </trkpt>
      <trkpt lat="46.9091" lon="8.56188">
        <ele>797</ele>
        <time>2021-08-10T13:05:15.119Z</time>
      </trkpt>
      <trkpt lat="46.9091" lon="8.56187">
        <ele>797</ele>
        <time>2021-08-10T13:05:16.120Z</time>
      </trkpt>
      <trkpt lat="46.90909" lon="8.56187">
        <ele>798</ele>
        <time>2021-08-10T13:05:17.120Z</time>
      </trkpt>
      <trkpt lat="46.90909" lon="8.56188">
        <ele>798</ele>
        <time>2021-08-10T13:05:18.119Z</time>
      </trkpt>
      <trkpt lat="46.90909" lon="8.56188">
        <ele>798</ele>
        <time>2021-08-10T13:05:19.120Z</time>
      </trkpt>
      <trkpt lat="46.90908" lon="8.56187">
        <ele>798</ele>
        <time>2021-08-10T13:05:20.119Z</time>
      </trkpt>
      <trkpt lat="46.90908" lon="8.56186">
        <ele>798</ele>
        <time>2021-08-10T13:05:21.119Z</time>
      </trkpt>
      <trkpt lat="46.90906" lon="8.56186">
        <ele>798</ele>
        <time>2021-08-10T13:05:22.120Z</time>
      </trkpt>
      <trkpt lat="46.90905" lon="8.56184">
        <ele>798</ele>
        <time>2021-08-10T13:05:23.120Z</time>
      </trkpt>
      <trkpt lat="46.90904" lon="8.56184">
        <ele>798</ele>
        <time>2021-08-10T13:05:24.120Z</time>
      </trkpt>
      <trkpt lat="46.90904" lon="8.56183">
        <ele>798</ele>
        <time>2021-08-10T13:05:25.119Z</time>
      </trkpt>
      <trkpt lat="46.90903" lon="8.56182">
        <ele>799</ele>
        <time>2021-08-10T13:05:26.119Z</time>
      </trkpt>
      <trkpt lat="46.90903" lon="8.56181">
        <ele>799</ele>
        <time>2021-08-10T13:05:27.120Z</time>
      </trkpt>
      <trkpt lat="46.90902" lon="8.56181">
        <ele>799</ele>
        <time>2021-08-10T13:05:28.119Z</time>
      </trkpt>
      <trkpt lat="46.90902" lon="8.5618">
        <ele>799</ele>
        <time>2021-08-10T13:05:29.120Z</time>
      </trkpt>
      <trkpt lat="46.90902" lon="8.5618">
        <ele>799</ele>
        <time>2021-08-10T13:05:30.119Z</time>
      </trkpt>
      <trkpt lat="46.90901" lon="8.5618">
        <ele>800</ele>
        <time>2021-08-10T13:05:31.120Z</time>
      </trkpt>
      <trkpt lat="46.90901" lon="8.56179">
        <ele>800</ele>
        <time>2021-08-10T13:05:32.120Z</time>
      </trkpt>
      <trkpt lat="46.909" lon="8.56178">
        <ele>800</ele>
        <time>2021-08-10T13:05:33.119Z</time>
      </trkpt>
      <trkpt lat="46.90899" lon="8.56177">
        <ele>800</ele>
        <time>2021-08-10T13:05:34.120Z</time>
      </trkpt>
      <trkpt lat="46.90899" lon="8.56177">
        <ele>800</ele>
        <time>2021-08-10T13:05:35.120Z</time>
      </trkpt>
      <trkpt lat="46.90898" lon="8.56176">
        <ele>800</ele>
        <time>2021-08-10T13:05:36.120Z</time>
      </trkpt>
      <trkpt lat="46.90898" lon="8.56176">
        <ele>800</ele>
        <time>2021-08-10T13:05:37.120Z</time>
      </trkpt>
      <trkpt lat="46.90897" lon="8.56175">
        <ele>800</ele>
        <time>2021-08-10T13:05:38.120Z</time>
      </trkpt>
      <trkpt lat="46.90897" lon="8.56175">
        <ele>800</ele>
        <time>2021-08-10T13:05:39.120Z</time>
      </trkpt>
      <trkpt lat="46.90896" lon="8.56174">
        <ele>800</ele>
        <time>2021-08-10T13:05:40.120Z</time>
      </trkpt>
      <trkpt lat="46.90896" lon="8.56174">
        <ele>800</ele>
        <time>2021-08-10T13:05:41.119Z</time>
      </trkpt>
      <trkpt lat="46.90895" lon="8.56173">
        <ele>799</ele>
        <time>2021-08-10T13:05:42.120Z</time>
      </trkpt>
      <trkpt lat="46.90895" lon="8.56173">
        <ele>799</ele>
        <time>2021-08-10T13:05:43.119Z</time>
      </trkpt>
      <trkpt lat="46.90894" lon="8.56172">
        <ele>799</ele>
        <time>2021-08-10T13:05:44.120Z</time>
      </trkpt>
      <trkpt lat="46.90893" lon="8.56172">
        <ele>799</ele>
        <time>2021-08-10T13:05:45.120Z</time>
      </trkpt>
      <trkpt lat="46.90893" lon="8.56171">
        <ele>799</ele>
        <time>2021-08-10T13:05:46.119Z</time>
      </trkpt>
      <trkpt lat="46.90892" lon="8.5617">
        <ele>800</ele>
        <time>2021-08-10T13:05:47.120Z</time>
      </trkpt>
      <trkpt lat="46.90891" lon="8.5617">
        <ele>800</ele>
        <time>2021-08-10T13:05:48.120Z</time>
      </trkpt>
      <trkpt lat="46.9089" lon="8.56169">
        <ele>801</ele>
        <time>2021-08-10T13:05:49.119Z</time>
      </trkpt>
      <trkpt lat="46.90889" lon="8.56168">
        <ele>801</ele>
        <time>2021-08-10T13:05:50.120Z</time>
      </trkpt>
      <trkpt lat="46.90888" lon="8.56167">
        <ele>801</ele>
        <time>2021-08-10T13:05:51.120Z</time>
      </trkpt>
      <trkpt lat="46.90887" lon="8.56166">
        <ele>801</ele>
        <time>2021-08-10T13:05:52.119Z</time>
      </trkpt>
      <trkpt lat="46.90886" lon="8.56165">
        <ele>802</ele>
        <time>2021-08-10T13:05:53.119Z</time>
      </trkpt>
      <trkpt lat="46.90886" lon="8.56165">
        <ele>802</ele>
        <time>2021-08-10T13:05:54.119Z</time>
      </trkpt>
      <trkpt lat="46.90885" lon="8.56164">
        <ele>802</ele>
        <time>2021-08-10T13:05:55.120Z</time>
      </trkpt>
      <trkpt lat="46.90883" lon="8.56163">
        <ele>802</ele>
        <time>2021-08-10T13:05:56.120Z</time>
      </trkpt>
      <trkpt lat="46.90882" lon="8.56162">
        <ele>803</ele>
        <time>2021-08-10T13:05:57.119Z</time>
      </trkpt>
      <trkpt lat="46.90882" lon="8.56161">
        <ele>803</ele>
        <time>2021-08-10T13:05:58.120Z</time>
      </trkpt>
      <trkpt lat="46.90881" lon="8.56161">
        <ele>804</ele>
        <time>2021-08-10T13:05:59.119Z</time>
      </trkpt>
      <trkpt lat="46.90881" lon="8.56161">
        <ele>805</ele>
        <time>2021-08-10T13:06:00.120Z</time>
      </trkpt>
      <trkpt lat="46.9088" lon="8.56161">
        <ele>805</ele>
        <time>2021-08-10T13:06:01.119Z</time>
      </trkpt>
      <trkpt lat="46.9088" lon="8.56162">
        <ele>805</ele>
        <time>2021-08-10T13:06:02.120Z</time>
      </trkpt>
      <trkpt lat="46.90879" lon="8.56162">
        <ele>804</ele>
        <time>2021-08-10T13:06:03.119Z</time>
      </trkpt>
      <trkpt lat="46.90878" lon="8.56162">
        <ele>804</ele>
        <time>2021-08-10T13:06:04.120Z</time>
      </trkpt>
      <trkpt lat="46.90877" lon="8.56162">
        <ele>803</ele>
        <time>2021-08-10T13:06:05.119Z</time>
      </trkpt>
      <trkpt lat="46.90876" lon="8.56162">
        <ele>803</ele>
        <time>2021-08-10T13:06:06.120Z</time>
      </trkpt>
      <trkpt lat="46.90876" lon="8.56161">
        <ele>802</ele>
        <time>2021-08-10T13:06:07.119Z</time>
      </trkpt>
      <trkpt lat="46.90875" lon="8.56161">
        <ele>803</ele>
        <time>2021-08-10T13:06:08.119Z</time>
      </trkpt>
      <trkpt lat="46.90874" lon="8.5616">
        <ele>803</ele>
        <time>2021-08-10T13:06:09.120Z</time>
      </trkpt>
      <trkpt lat="46.90873" lon="8.5616">
        <ele>804</ele>
        <time>2021-08-10T13:06:10.119Z</time>
      </trkpt>
      <trkpt lat="46.90872" lon="8.56159">
        <ele>804</ele>
        <time>2021-08-10T13:06:11.120Z</time>
      </trkpt>
      <trkpt lat="46.90872" lon="8.56159">
        <ele>804</ele>
        <time>2021-08-10T13:06:12.119Z</time>
      </trkpt>
      <trkpt lat="46.90871" lon="8.56159">
        <ele>804</ele>
        <time>2021-08-10T13:06:13.119Z</time>
      </trkpt>
      <trkpt lat="46.9087" lon="8.56159">
        <ele>803</ele>
        <time>2021-08-10T13:06:14.119Z</time>
      </trkpt>
      <trkpt lat="46.9087" lon="8.56159">
        <ele>803</ele>
        <time>2021-08-10T13:06:15.119Z</time>
      </trkpt>
      <trkpt lat="46.90869" lon="8.56158">
        <ele>804</ele>
        <time>2021-08-10T13:06:16.120Z</time>
      </trkpt>
      <trkpt lat="46.90869" lon="8.56158">
        <ele>804</ele>
        <time>2021-08-10T13:06:17.120Z</time>
      </trkpt>
      <trkpt lat="46.90868" lon="8.56158">
        <ele>805</ele>
        <time>2021-08-10T13:06:18.120Z</time>
      </trkpt>
      <trkpt lat="46.90867" lon="8.56158">
        <ele>805</ele>
        <time>2021-08-10T13:06:19.120Z</time>
      </trkpt>
      <trkpt lat="46.90866" lon="8.56158">
        <ele>806</ele>
        <time>2021-08-10T13:06:20.119Z</time>
      </trkpt>
      <trkpt lat="46.90865" lon="8.56158">
        <ele>806</ele>
        <time>2021-08-10T13:06:21.120Z</time>
      </trkpt>
      <trkpt lat="46.90864" lon="8.56158">
        <ele>807</ele>
        <time>2021-08-10T13:06:22.120Z</time>
      </trkpt>
      <trkpt lat="46.90864" lon="8.56158">
        <ele>807</ele>
        <time>2021-08-10T13:06:23.120Z</time>
      </trkpt>
      <trkpt lat="46.90864" lon="8.56158">
        <ele>808</ele>
        <time>2021-08-10T13:06:24.120Z</time>
      </trkpt>
      <trkpt lat="46.90863" lon="8.56157">
        <ele>808</ele>
        <time>2021-08-10T13:06:25.120Z</time>
      </trkpt>
      <trkpt lat="46.90863" lon="8.56157">
        <ele>808</ele>
        <time>2021-08-10T13:06:26.120Z</time>
      </trkpt>
      <trkpt lat="46.90862" lon="8.56157">
        <ele>808</ele>
        <time>2021-08-10T13:06:27.119Z</time>
      </trkpt>
      <trkpt lat="46.90862" lon="8.56157">
        <ele>808</ele>
        <time>2021-08-10T13:06:28.120Z</time>
      </trkpt>
      <trkpt lat="46.90861" lon="8.56157">
        <ele>808</ele>
        <time>2021-08-10T13:06:29.120Z</time>
      </trkpt>
      <trkpt lat="46.9086" lon="8.56157">
        <ele>808</ele>
        <time>2021-08-10T13:06:30.120Z</time>
      </trkpt>
      <trkpt lat="46.90859" lon="8.56157">
        <ele>807</ele>
        <time>2021-08-10T13:06:31.120Z</time>
      </trkpt>
      <trkpt lat="46.90858" lon="8.56156">
        <ele>806</ele>
        <time>2021-08-10T13:06:32.120Z</time>
      </trkpt>
      <trkpt lat="46.90857" lon="8.56155">
        <ele>805</ele>
        <time>2021-08-10T13:06:33.120Z</time>
      </trkpt>
      <trkpt lat="46.90856" lon="8.56155">
        <ele>804</ele>
        <time>2021-08-10T13:06:34.119Z</time>
      </trkpt>
      <trkpt lat="46.90855" lon="8.56155">
        <ele>804</ele>
        <time>2021-08-10T13:06:35.120Z</time>
      </trkpt>
      <trkpt lat="46.90854" lon="8.56155">
        <ele>803</ele>
        <time>2021-08-10T13:06:36.119Z</time>
      </trkpt>
      <trkpt lat="46.90854" lon="8.56156">
        <ele>803</ele>
        <time>2021-08-10T13:06:37.120Z</time>
      </trkpt>
      <trkpt lat="46.90853" lon="8.56156">
        <ele>802</ele>
        <time>2021-08-10T13:06:38.120Z</time>
      </trkpt>
      <trkpt lat="46.90853" lon="8.56155">
        <ele>801</ele>
        <time>2021-08-10T13:06:39.120Z</time>
      </trkpt>
      <trkpt lat="46.90852" lon="8.56155">
        <ele>801</ele>
        <time>2021-08-10T13:06:40.119Z</time>
      </trkpt>
      <trkpt lat="46.90851" lon="8.56154">
        <ele>801</ele>
        <time>2021-08-10T13:06:41.120Z</time>
      </trkpt>
      <trkpt lat="46.90851" lon="8.56153">
        <ele>801</ele>
        <time>2021-08-10T13:06:42.120Z</time>
      </trkpt>
      <trkpt lat="46.90851" lon="8.56153">
        <ele>802</ele>
        <time>2021-08-10T13:06:43.120Z</time>
      </trkpt>
      <trkpt lat="46.9085" lon="8.56153">
        <ele>802</ele>
        <time>2021-08-10T13:06:44.119Z</time>
      </trkpt>
      <trkpt lat="46.90849" lon="8.56153">
        <ele>802</ele>
        <time>2021-08-10T13:06:45.119Z</time>
      </trkpt>
      <trkpt lat="46.90848" lon="8.56152">
        <ele>802</ele>
        <time>2021-08-10T13:06:46.119Z</time>
      </trkpt>
      <trkpt lat="46.90847" lon="8.56152">
        <ele>803</ele>
        <time>2021-08-10T13:06:47.120Z</time>
      </trkpt>
      <trkpt lat="46.90847" lon="8.56151">
        <ele>803</ele>
        <time>2021-08-10T13:06:48.119Z</time>
      </trkpt>
      <trkpt lat="46.90846" lon="8.56151">
        <ele>803</ele>
        <time>2021-08-10T13:06:49.120Z</time>
      </trkpt>
      <trkpt lat="46.90846" lon="8.5615">
        <ele>803</ele>
        <time>2021-08-10T13:06:50.120Z</time>
      </trkpt>
      <trkpt lat="46.90845" lon="8.5615">
        <ele>803</ele>
        <time>2021-08-10T13:06:51.120Z</time>
      </trkpt>
      <trkpt lat="46.90844" lon="8.5615">
        <ele>804</ele>
        <time>2021-08-10T13:06:52.120Z</time>
      </trkpt>
      <trkpt lat="46.90843" lon="8.5615">
        <ele>804</ele>
        <time>2021-08-10T13:06:53.120Z</time>
      </trkpt>
      <trkpt lat="46.90843" lon="8.56149">
        <ele>804</ele>
        <time>2021-08-10T13:06:54.120Z</time>
      </trkpt>
      <trkpt lat="46.90842" lon="8.56149">
        <ele>804</ele>
        <time>2021-08-10T13:06:55.120Z</time>
      </trkpt>
      <trkpt lat="46.90841" lon="8.56149">
        <ele>805</ele>
        <time>2021-08-10T13:06:56.120Z</time>
      </trkpt>
      <trkpt lat="46.90841" lon="8.56149">
        <ele>806</ele>
        <time>2021-08-10T13:06:57.120Z</time>
      </trkpt>
      <trkpt lat="46.9084" lon="8.56149">
        <ele>806</ele>
        <time>2021-08-10T13:06:58.119Z</time>
      </trkpt>
      <trkpt lat="46.9084" lon="8.5615">
        <ele>807</ele>
        <time>2021-08-10T13:06:59.120Z</time>
      </trkpt>
      <trkpt lat="46.9084" lon="8.56151">
        <ele>808</ele>
        <time>2021-08-10T13:07:00.120Z</time>
      </trkpt>
      <trkpt lat="46.9084" lon="8.56152">
        <ele>808</ele>
        <time>2021-08-10T13:07:01.120Z</time>
      </trkpt>
      <trkpt lat="46.90839" lon="8.56152">
        <ele>809</ele>
        <time>2021-08-10T13:07:02.119Z</time>
      </trkpt>
      <trkpt lat="46.90838" lon="8.56152">
        <ele>809</ele>
        <time>2021-08-10T13:07:03.119Z</time>
      </trkpt>
      <trkpt lat="46.90838" lon="8.56152">
        <ele>810</ele>
        <time>2021-08-10T13:07:04.119Z</time>
      </trkpt>
      <trkpt lat="46.90837" lon="8.56151">
        <ele>810</ele>
        <time>2021-08-10T13:07:05.120Z</time>
      </trkpt>
      <trkpt lat="46.90836" lon="8.56151">
        <ele>811</ele>
        <time>2021-08-10T13:07:06.120Z</time>
      </trkpt>
      <trkpt lat="46.90836" lon="8.5615">
        <ele>811</ele>
        <time>2021-08-10T13:07:07.120Z</time>
      </trkpt>
      <trkpt lat="46.90835" lon="8.56149">
        <ele>812</ele>
        <time>2021-08-10T13:07:08.119Z</time>
      </trkpt>
      <trkpt lat="46.90834" lon="8.56148">
        <ele>812</ele>
        <time>2021-08-10T13:07:09.120Z</time>
      </trkpt>
      <trkpt lat="46.90833" lon="8.56147">
        <ele>812</ele>
        <time>2021-08-10T13:07:10.120Z</time>
      </trkpt>
      <trkpt lat="46.90833" lon="8.56147">
        <ele>813</ele>
        <time>2021-08-10T13:07:11.119Z</time>
      </trkpt>
      <trkpt lat="46.90832" lon="8.56147">
        <ele>813</ele>
        <time>2021-08-10T13:07:12.120Z</time>
      </trkpt>
      <trkpt lat="46.90831" lon="8.56146">
        <ele>813</ele>
        <time>2021-08-10T13:07:13.119Z</time>
      </trkpt>
      <trkpt lat="46.9083" lon="8.56146">
        <ele>813</ele>
        <time>2021-08-10T13:07:14.119Z</time>
      </trkpt>
      <trkpt lat="46.9083" lon="8.56145">
        <ele>814</ele>
        <time>2021-08-10T13:07:15.120Z</time>
      </trkpt>
      <trkpt lat="46.90829" lon="8.56144">
        <ele>815</ele>
        <time>2021-08-10T13:07:16.120Z</time>
      </trkpt>
      <trkpt lat="46.90829" lon="8.56143">
        <ele>815</ele>
        <time>2021-08-10T13:07:17.119Z</time>
      </trkpt>
      <trkpt lat="46.90828" lon="8.56142">
        <ele>815</ele>
        <time>2021-08-10T13:07:18.120Z</time>
      </trkpt>
      <trkpt lat="46.90828" lon="8.5614">
        <ele>816</ele>
        <time>2021-08-10T13:07:19.119Z</time>
      </trkpt>
      <trkpt lat="46.90827" lon="8.5614">
        <ele>816</ele>
        <time>2021-08-10T13:07:20.120Z</time>
      </trkpt>
      <trkpt lat="46.90826" lon="8.56139">
        <ele>816</ele>
        <time>2021-08-10T13:07:21.120Z</time>
      </trkpt>
      <trkpt lat="46.90825" lon="8.56139">
        <ele>816</ele>
        <time>2021-08-10T13:07:22.120Z</time>
      </trkpt>
      <trkpt lat="46.90825" lon="8.56139">
        <ele>817</ele>
        <time>2021-08-10T13:07:23.120Z</time>
      </trkpt>
      <trkpt lat="46.90824" lon="8.56138">
        <ele>817</ele>
        <time>2021-08-10T13:07:24.120Z</time>
      </trkpt>
      <trkpt lat="46.90823" lon="8.56136">
        <ele>817</ele>
        <time>2021-08-10T13:07:25.120Z</time>
      </trkpt>
      <trkpt lat="46.90823" lon="8.56136">
        <ele>817</ele>
        <time>2021-08-10T13:07:26.120Z</time>
      </trkpt>
      <trkpt lat="46.90822" lon="8.56136">
        <ele>818</ele>
        <time>2021-08-10T13:07:27.120Z</time>
      </trkpt>
      <trkpt lat="46.90821" lon="8.56135">
        <ele>818</ele>
        <time>2021-08-10T13:07:28.119Z</time>
      </trkpt>
      <trkpt lat="46.90821" lon="8.56135">
        <ele>818</ele>
        <time>2021-08-10T13:07:29.120Z</time>
      </trkpt>
      <trkpt lat="46.9082" lon="8.56135">
        <ele>819</ele>
        <time>2021-08-10T13:07:30.120Z</time>
      </trkpt>
      <trkpt lat="46.9082" lon="8.56134">
        <ele>819</ele>
        <time>2021-08-10T13:07:31.120Z</time>
      </trkpt>
      <trkpt lat="46.90819" lon="8.56132">
        <ele>819</ele>
        <time>2021-08-10T13:07:32.120Z</time>
      </trkpt>
      <trkpt lat="46.90818" lon="8.5613">
        <ele>819</ele>
        <time>2021-08-10T13:07:33.119Z</time>
      </trkpt>
      <trkpt lat="46.90817" lon="8.56129">
        <ele>819</ele>
        <time>2021-08-10T13:07:34.120Z</time>
      </trkpt>
      <trkpt lat="46.90816" lon="8.56128">
        <ele>819</ele>
        <time>2021-08-10T13:07:35.119Z</time>
      </trkpt>
      <trkpt lat="46.90816" lon="8.56128">
        <ele>819</ele>
        <time>2021-08-10T13:07:36.120Z</time>
      </trkpt>
      <trkpt lat="46.90815" lon="8.56128">
        <ele>820</ele>
        <time>2021-08-10T13:07:37.120Z</time>
      </trkpt>
      <trkpt lat="46.90816" lon="8.56129">
        <ele>820</ele>
        <time>2021-08-10T13:07:38.120Z</time>
      </trkpt>
      <trkpt lat="46.90816" lon="8.56129">
        <ele>820</ele>
        <time>2021-08-10T13:07:39.120Z</time>
      </trkpt>
      <trkpt lat="46.90816" lon="8.56128">
        <ele>821</ele>
        <time>2021-08-10T13:07:40.119Z</time>
      </trkpt>
      <trkpt lat="46.90815" lon="8.56128">
        <ele>821</ele>
        <time>2021-08-10T13:07:41.120Z</time>
      </trkpt>
      <trkpt lat="46.90815" lon="8.56128">
        <ele>821</ele>
        <time>2021-08-10T13:07:42.120Z</time>
      </trkpt>
      <trkpt lat="46.90814" lon="8.56128">
        <ele>822</ele>
        <time>2021-08-10T13:07:43.119Z</time>
      </trkpt>
      <trkpt lat="46.90814" lon="8.56128">
        <ele>822</ele>
        <time>2021-08-10T13:07:44.120Z</time>
      </trkpt>
      <trkpt lat="46.90813" lon="8.56127">
        <ele>822</ele>
        <time>2021-08-10T13:07:45.120Z</time>
      </trkpt>
      <trkpt lat="46.90813" lon="8.56127">
        <ele>823</ele>
        <time>2021-08-10T13:07:46.119Z</time>
      </trkpt>
      <trkpt lat="46.90812" lon="8.56127">
        <ele>823</ele>
        <time>2021-08-10T13:07:47.119Z</time>
      </trkpt>
      <trkpt lat="46.90812" lon="8.56127">
        <ele>824</ele>
        <time>2021-08-10T13:07:48.119Z</time>
      </trkpt>
      <trkpt lat="46.90811" lon="8.56127">
        <ele>824</ele>
        <time>2021-08-10T13:07:49.120Z</time>
      </trkpt>
      <trkpt lat="46.9081" lon="8.56126">
        <ele>824</ele>
        <time>2021-08-10T13:07:50.119Z</time>
      </trkpt>
      <trkpt lat="46.9081" lon="8.56126">
        <ele>824</ele>
        <time>2021-08-10T13:07:51.120Z</time>
      </trkpt>
      <trkpt lat="46.90809" lon="8.56126">
        <ele>824</ele>
        <time>2021-08-10T13:07:52.119Z</time>
      </trkpt>
      <trkpt lat="46.90808" lon="8.56125">
        <ele>824</ele>
        <time>2021-08-10T13:07:53.119Z</time>
      </trkpt>
      <trkpt lat="46.90807" lon="8.56124">
        <ele>824</ele>
        <time>2021-08-10T13:07:54.119Z</time>
      </trkpt>
      <trkpt lat="46.90806" lon="8.56123">
        <ele>823</ele>
        <time>2021-08-10T13:07:55.120Z</time>
      </trkpt>
      <trkpt lat="46.90806" lon="8.56123">
        <ele>823</ele>
        <time>2021-08-10T13:07:56.120Z</time>
      </trkpt>
      <trkpt lat="46.90805" lon="8.56123">
        <ele>822</ele>
        <time>2021-08-10T13:07:57.120Z</time>
      </trkpt>
      <trkpt lat="46.90804" lon="8.56123">
        <ele>822</ele>
        <time>2021-08-10T13:07:58.119Z</time>
      </trkpt>
      <trkpt lat="46.90804" lon="8.56123">
        <ele>822</ele>
        <time>2021-08-10T13:07:59.120Z</time>
      </trkpt>
      <trkpt lat="46.90803" lon="8.56122">
        <ele>821</ele>
        <time>2021-08-10T13:08:56.245Z</time>
      </trkpt>
      <trkpt lat="46.90802" lon="8.56121">
        <ele>821</ele>
        <time>2021-08-10T13:08:57.245Z</time>
      </trkpt>
      <trkpt lat="46.90802" lon="8.5612">
        <ele>821</ele>
        <time>2021-08-10T13:08:58.245Z</time>
      </trkpt>
      <trkpt lat="46.90801" lon="8.5612">
        <ele>821</ele>
        <time>2021-08-10T13:08:59.245Z</time>
      </trkpt>
      <trkpt lat="46.90801" lon="8.5612">
        <ele>820</ele>
        <time>2021-08-10T13:09:11.346Z</time>
      </trkpt>
      <trkpt lat="46.908" lon="8.56119">
        <ele>820</ele>
        <time>2021-08-10T13:09:12.346Z</time>
      </trkpt>
      <trkpt lat="46.90799" lon="8.56119">
        <ele>820</ele>
        <time>2021-08-10T13:09:13.346Z</time>
      </trkpt>
      <trkpt lat="46.90798" lon="8.56119">
        <ele>819</ele>
        <time>2021-08-10T13:09:14.346Z</time>
      </trkpt>
      <trkpt lat="46.90797" lon="8.56119">
        <ele>819</ele>
        <time>2021-08-10T13:09:19.342Z</time>
      </trkpt>
      <trkpt lat="46.90795" lon="8.56118">
        <ele>819</ele>
        <time>2021-08-10T13:09:20.342Z</time>
      </trkpt>
      <trkpt lat="46.90794" lon="8.56117">
        <ele>819</ele>
        <time>2021-08-10T13:09:21.343Z</time>
      </trkpt>
      <trkpt lat="46.90793" lon="8.56116">
        <ele>819</ele>
        <time>2021-08-10T13:09:22.343Z</time>
      </trkpt>
      <trkpt lat="46.90793" lon="8.56116">
        <ele>819</ele>
        <time>2021-08-10T13:09:23.342Z</time>
      </trkpt>
      <trkpt lat="46.90793" lon="8.56115">
        <ele>819</ele>
        <time>2021-08-10T13:09:24.343Z</time>
      </trkpt>
      <trkpt lat="46.90793" lon="8.56114">
        <ele>819</ele>
        <time>2021-08-10T13:09:25.342Z</time>
      </trkpt>
      <trkpt lat="46.90792" lon="8.56114">
        <ele>820</ele>
        <time>2021-08-10T13:09:26.342Z</time>
      </trkpt>
      <trkpt lat="46.90792" lon="8.56113">
        <ele>820</ele>
        <time>2021-08-10T13:09:27.342Z</time>
      </trkpt>
      <trkpt lat="46.90791" lon="8.56114">
        <ele>821</ele>
        <time>2021-08-10T13:09:28.342Z</time>
      </trkpt>
      <trkpt lat="46.9079" lon="8.56114">
        <ele>822</ele>
        <time>2021-08-10T13:09:29.343Z</time>
      </trkpt>
      <trkpt lat="46.90789" lon="8.56114">
        <ele>822</ele>
        <time>2021-08-10T13:09:30.343Z</time>
      </trkpt>
      <trkpt lat="46.90788" lon="8.56113">
        <ele>822</ele>
        <time>2021-08-10T13:09:31.342Z</time>
      </trkpt>
      <trkpt lat="46.90788" lon="8.56113">
        <ele>823</ele>
        <time>2021-08-10T13:09:32.342Z</time>
      </trkpt>
      <trkpt lat="46.90787" lon="8.56112">
        <ele>823</ele>
        <time>2021-08-10T13:09:33.342Z</time>
      </trkpt>
      <trkpt lat="46.90786" lon="8.56112">
        <ele>823</ele>
        <time>2021-08-10T13:09:34.342Z</time>
      </trkpt>
      <trkpt lat="46.90785" lon="8.56112">
        <ele>823</ele>
        <time>2021-08-10T13:09:35.342Z</time>
      </trkpt>
      <trkpt lat="46.90784" lon="8.56111">
        <ele>823</ele>
        <time>2021-08-10T13:09:36.342Z</time>
      </trkpt>
      <trkpt lat="46.90783" lon="8.56111">
        <ele>823</ele>
        <time>2021-08-10T13:09:37.342Z</time>
      </trkpt>
      <trkpt lat="46.90782" lon="8.56109">
        <ele>823</ele>
        <time>2021-08-10T13:09:38.342Z</time>
      </trkpt>
      <trkpt lat="46.90781" lon="8.56109">
        <ele>823</ele>
        <time>2021-08-10T13:09:39.342Z</time>
      </trkpt>
      <trkpt lat="46.9078" lon="8.56108">
        <ele>824</ele>
        <time>2021-08-10T13:09:40.342Z</time>
      </trkpt>
      <trkpt lat="46.90779" lon="8.56107">
        <ele>824</ele>
        <time>2021-08-10T13:09:41.342Z</time>
      </trkpt>
      <trkpt lat="46.90778" lon="8.56106">
        <ele>824</ele>
        <time>2021-08-10T13:09:42.342Z</time>
      </trkpt>
      <trkpt lat="46.90777" lon="8.56106">
        <ele>824</ele>
        <time>2021-08-10T13:09:43.342Z</time>
      </trkpt>
      <trkpt lat="46.90775" lon="8.56105">
        <ele>824</ele>
        <time>2021-08-10T13:09:44.342Z</time>
      </trkpt>
      <trkpt lat="46.90775" lon="8.56104">
        <ele>824</ele>
        <time>2021-08-10T13:09:45.342Z</time>
      </trkpt>
      <trkpt lat="46.90774" lon="8.56103">
        <ele>824</ele>
        <time>2021-08-10T13:09:46.343Z</time>
      </trkpt>
      <trkpt lat="46.90773" lon="8.56103">
        <ele>825</ele>
        <time>2021-08-10T13:09:47.342Z</time>
      </trkpt>
      <trkpt lat="46.90772" lon="8.56102">
        <ele>825</ele>
        <time>2021-08-10T13:09:48.342Z</time>
      </trkpt>
      <trkpt lat="46.90771" lon="8.56102">
        <ele>826</ele>
        <time>2021-08-10T13:09:49.342Z</time>
      </trkpt>
      <trkpt lat="46.9077" lon="8.56101">
        <ele>826</ele>
        <time>2021-08-10T13:09:50.342Z</time>
      </trkpt>
      <trkpt lat="46.90768" lon="8.561">
        <ele>827</ele>
        <time>2021-08-10T13:09:51.342Z</time>
      </trkpt>
      <trkpt lat="46.90767" lon="8.56099">
        <ele>827</ele>
        <time>2021-08-10T13:09:52.343Z</time>
      </trkpt>
      <trkpt lat="46.90766" lon="8.56099">
        <ele>827</ele>
        <time>2021-08-10T13:09:53.343Z</time>
      </trkpt>
      <trkpt lat="46.90765" lon="8.56099">
        <ele>828</ele>
        <time>2021-08-10T13:09:54.342Z</time>
      </trkpt>
      <trkpt lat="46.90764" lon="8.56099">
        <ele>828</ele>
        <time>2021-08-10T13:09:55.342Z</time>
      </trkpt>
      <trkpt lat="46.90763" lon="8.561">
        <ele>828</ele>
        <time>2021-08-10T13:09:56.342Z</time>
      </trkpt>
      <trkpt lat="46.90762" lon="8.561">
        <ele>828</ele>
        <time>2021-08-10T13:09:57.343Z</time>
      </trkpt>
      <trkpt lat="46.90761" lon="8.56099">
        <ele>829</ele>
        <time>2021-08-10T13:09:58.342Z</time>
      </trkpt>
      <trkpt lat="46.90761" lon="8.56099">
        <ele>829</ele>
        <time>2021-08-10T13:09:59.342Z</time>
      </trkpt>
      <trkpt lat="46.90761" lon="8.56099">
        <ele>829</ele>
        <time>2021-08-10T13:10:00.342Z</time>
      </trkpt>
      <trkpt lat="46.90761" lon="8.56099">
        <ele>829</ele>
        <time>2021-08-10T13:10:01.343Z</time>
      </trkpt>
      <trkpt lat="46.9076" lon="8.56099">
        <ele>828</ele>
        <time>2021-08-10T13:10:02.343Z</time>
      </trkpt>
      <trkpt lat="46.90759" lon="8.56098">
        <ele>828</ele>
        <time>2021-08-10T13:10:03.342Z</time>
      </trkpt>
      <trkpt lat="46.90758" lon="8.56097">
        <ele>828</ele>
        <time>2021-08-10T13:10:04.343Z</time>
      </trkpt>
      <trkpt lat="46.90757" lon="8.56097">
        <ele>828</ele>
        <time>2021-08-10T13:10:05.343Z</time>
      </trkpt>
      <trkpt lat="46.90756" lon="8.56098">
        <ele>827</ele>
        <time>2021-08-10T13:10:06.343Z</time>
      </trkpt>
      <trkpt lat="46.90755" lon="8.56098">
        <ele>827</ele>
        <time>2021-08-10T13:10:07.343Z</time>
      </trkpt>
      <trkpt lat="46.90754" lon="8.56097">
        <ele>827</ele>
        <time>2021-08-10T13:10:08.343Z</time>
      </trkpt>
      <trkpt lat="46.90753" lon="8.56096">
        <ele>827</ele>
        <time>2021-08-10T13:10:09.343Z</time>
      </trkpt>
      <trkpt lat="46.90752" lon="8.56096">
        <ele>827</ele>
        <time>2021-08-10T13:10:10.343Z</time>
      </trkpt>
      <trkpt lat="46.90751" lon="8.56096">
        <ele>827</ele>
        <time>2021-08-10T13:10:11.343Z</time>
      </trkpt>
      <trkpt lat="46.9075" lon="8.56095">
        <ele>827</ele>
        <time>2021-08-10T13:10:12.343Z</time>
      </trkpt>
      <trkpt lat="46.90749" lon="8.56095">
        <ele>827</ele>
        <time>2021-08-10T13:10:13.343Z</time>
      </trkpt>
      <trkpt lat="46.90748" lon="8.56095">
        <ele>827</ele>
        <time>2021-08-10T13:10:14.342Z</time>
      </trkpt>
      <trkpt lat="46.90747" lon="8.56096">
        <ele>827</ele>
        <time>2021-08-10T13:10:15.342Z</time>
      </trkpt>
      <trkpt lat="46.90746" lon="8.56097">
        <ele>828</ele>
        <time>2021-08-10T13:10:16.342Z</time>
      </trkpt>
      <trkpt lat="46.90745" lon="8.56098">
        <ele>828</ele>
        <time>2021-08-10T13:10:17.342Z</time>
      </trkpt>
      <trkpt lat="46.90744" lon="8.56098">
        <ele>828</ele>
        <time>2021-08-10T13:10:18.343Z</time>
      </trkpt>
      <trkpt lat="46.90743" lon="8.56098">
        <ele>828</ele>
        <time>2021-08-10T13:10:19.342Z</time>
      </trkpt>
      <trkpt lat="46.90742" lon="8.56097">
        <ele>829</ele>
        <time>2021-08-10T13:10:20.342Z</time>
      </trkpt>
      <trkpt lat="46.90741" lon="8.56097">
        <ele>829</ele>
        <time>2021-08-10T13:10:21.343Z</time>
      </trkpt>
      <trkpt lat="46.9074" lon="8.56096">
        <ele>829</ele>
        <time>2021-08-10T13:10:22.342Z</time>
      </trkpt>
      <trkpt lat="46.90739" lon="8.56095">
        <ele>830</ele>
        <time>2021-08-10T13:10:23.342Z</time>
      </trkpt>
      <trkpt lat="46.90739" lon="8.56095">
        <ele>830</ele>
        <time>2021-08-10T13:10:24.343Z</time>
      </trkpt>
      <trkpt lat="46.90739" lon="8.56095">
        <ele>830</ele>
        <time>2021-08-10T13:10:25.342Z</time>
      </trkpt>
      <trkpt lat="46.90739" lon="8.56095">
        <ele>831</ele>
        <time>2021-08-10T13:10:26.343Z</time>
      </trkpt>
      <trkpt lat="46.9074" lon="8.56096">
        <ele>831</ele>
        <time>2021-08-10T13:10:27.343Z</time>
      </trkpt>
      <trkpt lat="46.9074" lon="8.56096">
        <ele>832</ele>
        <time>2021-08-10T13:10:28.343Z</time>
      </trkpt>
      <trkpt lat="46.90739" lon="8.56096">
        <ele>832</ele>
        <time>2021-08-10T13:10:29.343Z</time>
      </trkpt>
      <trkpt lat="46.90739" lon="8.56096">
        <ele>833</ele>
        <time>2021-08-10T13:10:30.343Z</time>
      </trkpt>
      <trkpt lat="46.90738" lon="8.56096">
        <ele>833</ele>
        <time>2021-08-10T13:10:31.343Z</time>
      </trkpt>
      <trkpt lat="46.90737" lon="8.56095">
        <ele>833</ele>
        <time>2021-08-10T13:10:32.343Z</time>
      </trkpt>
      <trkpt lat="46.90736" lon="8.56095">
        <ele>834</ele>
        <time>2021-08-10T13:10:33.343Z</time>
      </trkpt>
      <trkpt lat="46.90735" lon="8.56094">
        <ele>834</ele>
        <time>2021-08-10T13:10:34.343Z</time>
      </trkpt>
      <trkpt lat="46.90735" lon="8.56094">
        <ele>834</ele>
        <time>2021-08-10T13:10:35.343Z</time>
      </trkpt>
      <trkpt lat="46.90734" lon="8.56094">
        <ele>835</ele>
        <time>2021-08-10T13:10:36.342Z</time>
      </trkpt>
      <trkpt lat="46.90733" lon="8.56095">
        <ele>835</ele>
        <time>2021-08-10T13:10:37.343Z</time>
      </trkpt>
      <trkpt lat="46.90732" lon="8.56094">
        <ele>835</ele>
        <time>2021-08-10T13:10:38.343Z</time>
      </trkpt>
      <trkpt lat="46.90731" lon="8.56094">
        <ele>835</ele>
        <time>2021-08-10T13:10:39.343Z</time>
      </trkpt>
      <trkpt lat="46.9073" lon="8.56093">
        <ele>835</ele>
        <time>2021-08-10T13:10:40.343Z</time>
      </trkpt>
      <trkpt lat="46.9073" lon="8.56093">
        <ele>835</ele>
        <time>2021-08-10T13:10:41.343Z</time>
      </trkpt>
      <trkpt lat="46.90729" lon="8.56092">
        <ele>835</ele>
        <time>2021-08-10T13:10:42.342Z</time>
      </trkpt>
      <trkpt lat="46.90728" lon="8.56091">
        <ele>835</ele>
        <time>2021-08-10T13:10:43.343Z</time>
      </trkpt>
      <trkpt lat="46.90727" lon="8.5609">
        <ele>835</ele>
        <time>2021-08-10T13:10:44.343Z</time>
      </trkpt>
      <trkpt lat="46.90726" lon="8.56088">
        <ele>835</ele>
        <time>2021-08-10T13:10:45.343Z</time>
      </trkpt>
      <trkpt lat="46.90725" lon="8.56088">
        <ele>836</ele>
        <time>2021-08-10T13:10:46.343Z</time>
      </trkpt>
      <trkpt lat="46.90725" lon="8.56087">
        <ele>836</ele>
        <time>2021-08-10T13:10:47.343Z</time>
      </trkpt>
      <trkpt lat="46.90726" lon="8.56087">
        <ele>836</ele>
        <time>2021-08-10T13:10:48.343Z</time>
      </trkpt>
      <trkpt lat="46.90725" lon="8.56086">
        <ele>837</ele>
        <time>2021-08-10T13:10:49.343Z</time>
      </trkpt>
      <trkpt lat="46.90724" lon="8.56085">
        <ele>837</ele>
        <time>2021-08-10T13:10:50.343Z</time>
      </trkpt>
      <trkpt lat="46.90724" lon="8.56084">
        <ele>837</ele>
        <time>2021-08-10T13:10:51.342Z</time>
      </trkpt>
      <trkpt lat="46.90723" lon="8.56083">
        <ele>837</ele>
        <time>2021-08-10T13:10:52.343Z</time>
      </trkpt>
      <trkpt lat="46.90722" lon="8.56083">
        <ele>838</ele>
        <time>2021-08-10T13:10:53.342Z</time>
      </trkpt>
      <trkpt lat="46.90721" lon="8.56082">
        <ele>838</ele>
        <time>2021-08-10T13:10:54.342Z</time>
      </trkpt>
      <trkpt lat="46.9072" lon="8.56082">
        <ele>838</ele>
        <time>2021-08-10T13:10:55.343Z</time>
      </trkpt>
      <trkpt lat="46.9072" lon="8.56081">
        <ele>839</ele>
        <time>2021-08-10T13:10:56.343Z</time>
      </trkpt>
      <trkpt lat="46.90719" lon="8.56081">
        <ele>839</ele>
        <time>2021-08-10T13:10:57.342Z</time>
      </trkpt>
      <trkpt lat="46.90718" lon="8.5608">
        <ele>838</ele>
        <time>2021-08-10T13:10:58.343Z</time>
      </trkpt>
      <trkpt lat="46.90717" lon="8.56079">
        <ele>838</ele>
        <time>2021-08-10T13:10:59.343Z</time>
      </trkpt>
      <trkpt lat="46.90717" lon="8.56078">
        <ele>837</ele>
        <time>2021-08-10T13:11:00.342Z</time>
      </trkpt>
      <trkpt lat="46.90716" lon="8.56078">
        <ele>837</ele>
        <time>2021-08-10T13:11:01.343Z</time>
      </trkpt>
      <trkpt lat="46.90715" lon="8.56078">
        <ele>837</ele>
        <time>2021-08-10T13:11:02.343Z</time>
      </trkpt>
      <trkpt lat="46.90715" lon="8.56077">
        <ele>836</ele>
        <time>2021-08-10T13:11:03.343Z</time>
      </trkpt>
      <trkpt lat="46.90715" lon="8.56076">
        <ele>835</ele>
        <time>2021-08-10T13:11:04.343Z</time>
      </trkpt>
      <trkpt lat="46.90714" lon="8.56076">
        <ele>835</ele>
        <time>2021-08-10T13:11:05.343Z</time>
      </trkpt>
      <trkpt lat="46.90713" lon="8.56076">
        <ele>834</ele>
        <time>2021-08-10T13:11:06.343Z</time>
      </trkpt>
      <trkpt lat="46.90713" lon="8.56076">
        <ele>834</ele>
        <time>2021-08-10T13:11:07.342Z</time>
      </trkpt>
      <trkpt lat="46.90712" lon="8.56076">
        <ele>833</ele>
        <time>2021-08-10T13:11:08.343Z</time>
      </trkpt>
      <trkpt lat="46.90711" lon="8.56076">
        <ele>833</ele>
        <time>2021-08-10T13:11:09.343Z</time>
      </trkpt>
      <trkpt lat="46.9071" lon="8.56075">
        <ele>833</ele>
        <time>2021-08-10T13:11:10.343Z</time>
      </trkpt>
      <trkpt lat="46.90709" lon="8.56074">
        <ele>833</ele>
        <time>2021-08-10T13:11:11.343Z</time>
      </trkpt>
      <trkpt lat="46.90709" lon="8.56073">
        <ele>833</ele>
        <time>2021-08-10T13:11:12.343Z</time>
      </trkpt>
      <trkpt lat="46.90709" lon="8.56072">
        <ele>832</ele>
        <time>2021-08-10T13:11:13.343Z</time>
      </trkpt>
      <trkpt lat="46.90707" lon="8.56071">
        <ele>832</ele>
        <time>2021-08-10T13:11:14.343Z</time>
      </trkpt>
      <trkpt lat="46.90706" lon="8.5607">
        <ele>832</ele>
        <time>2021-08-10T13:11:15.343Z</time>
      </trkpt>
      <trkpt lat="46.90705" lon="8.56069">
        <ele>832</ele>
        <time>2021-08-10T13:11:16.343Z</time>
      </trkpt>
      <trkpt lat="46.90704" lon="8.56069">
        <ele>831</ele>
        <time>2021-08-10T13:11:17.343Z</time>
      </trkpt>
      <trkpt lat="46.90703" lon="8.56068">
        <ele>831</ele>
        <time>2021-08-10T13:11:18.343Z</time>
      </trkpt>
      <trkpt lat="46.90702" lon="8.56068">
        <ele>831</ele>
        <time>2021-08-10T13:11:19.342Z</time>
      </trkpt>
      <trkpt lat="46.90701" lon="8.56067">
        <ele>832</ele>
        <time>2021-08-10T13:11:20.343Z</time>
      </trkpt>
      <trkpt lat="46.907" lon="8.56066">
        <ele>832</ele>
        <time>2021-08-10T13:11:21.343Z</time>
      </trkpt>
      <trkpt lat="46.90698" lon="8.56066">
        <ele>832</ele>
        <time>2021-08-10T13:11:22.343Z</time>
      </trkpt>
      <trkpt lat="46.90698" lon="8.56066">
        <ele>833</ele>
        <time>2021-08-10T13:11:23.343Z</time>
      </trkpt>
      <trkpt lat="46.90697" lon="8.56065">
        <ele>833</ele>
        <time>2021-08-10T13:11:24.343Z</time>
      </trkpt>
      <trkpt lat="46.90696" lon="8.56064">
        <ele>834</ele>
        <time>2021-08-10T13:11:25.342Z</time>
      </trkpt>
      <trkpt lat="46.90696" lon="8.56064">
        <ele>834</ele>
        <time>2021-08-10T13:11:26.343Z</time>
      </trkpt>
      <trkpt lat="46.90695" lon="8.56063">
        <ele>834</ele>
        <time>2021-08-10T13:11:27.342Z</time>
      </trkpt>
      <trkpt lat="46.90695" lon="8.56062">
        <ele>834</ele>
        <time>2021-08-10T13:11:28.343Z</time>
      </trkpt>
      <trkpt lat="46.90695" lon="8.56061">
        <ele>834</ele>
        <time>2021-08-10T13:11:29.342Z</time>
      </trkpt>
      <trkpt lat="46.90695" lon="8.5606">
        <ele>834</ele>
        <time>2021-08-10T13:11:30.343Z</time>
      </trkpt>
      <trkpt lat="46.90694" lon="8.56059">
        <ele>834</ele>
        <time>2021-08-10T13:11:31.342Z</time>
      </trkpt>
      <trkpt lat="46.90693" lon="8.56058">
        <ele>834</ele>
        <time>2021-08-10T13:11:32.343Z</time>
      </trkpt>
      <trkpt lat="46.90693" lon="8.56057">
        <ele>834</ele>
        <time>2021-08-10T13:11:33.343Z</time>
      </trkpt>
      <trkpt lat="46.90692" lon="8.56056">
        <ele>834</ele>
        <time>2021-08-10T13:11:34.343Z</time>
      </trkpt>
      <trkpt lat="46.90692" lon="8.56055">
        <ele>835</ele>
        <time>2021-08-10T13:11:35.343Z</time>
      </trkpt>
      <trkpt lat="46.90692" lon="8.56054">
        <ele>835</ele>
        <time>2021-08-10T13:11:36.343Z</time>
      </trkpt>
      <trkpt lat="46.90692" lon="8.56054">
        <ele>835</ele>
        <time>2021-08-10T13:11:37.342Z</time>
      </trkpt>
      <trkpt lat="46.90691" lon="8.56053">
        <ele>836</ele>
        <time>2021-08-10T13:11:38.342Z</time>
      </trkpt>
      <trkpt lat="46.9069" lon="8.56052">
        <ele>836</ele>
        <time>2021-08-10T13:11:39.342Z</time>
      </trkpt>
      <trkpt lat="46.90689" lon="8.56051">
        <ele>836</ele>
        <time>2021-08-10T13:11:40.343Z</time>
      </trkpt>
      <trkpt lat="46.90689" lon="8.5605">
        <ele>837</ele>
        <time>2021-08-10T13:11:41.342Z</time>
      </trkpt>
      <trkpt lat="46.90688" lon="8.56049">
        <ele>837</ele>
        <time>2021-08-10T13:11:42.343Z</time>
      </trkpt>
      <trkpt lat="46.90688" lon="8.56048">
        <ele>838</ele>
        <time>2021-08-10T13:11:43.343Z</time>
      </trkpt>
      <trkpt lat="46.90687" lon="8.56047">
        <ele>838</ele>
        <time>2021-08-10T13:11:44.342Z</time>
      </trkpt>
      <trkpt lat="46.90686" lon="8.56046">
        <ele>839</ele>
        <time>2021-08-10T13:11:45.343Z</time>
      </trkpt>
      <trkpt lat="46.90686" lon="8.56046">
        <ele>839</ele>
        <time>2021-08-10T13:11:46.342Z</time>
      </trkpt>
      <trkpt lat="46.90685" lon="8.56045">
        <ele>840</ele>
        <time>2021-08-10T13:11:47.343Z</time>
      </trkpt>
      <trkpt lat="46.90685" lon="8.56044">
        <ele>840</ele>
        <time>2021-08-10T13:11:48.343Z</time>
      </trkpt>
      <trkpt lat="46.90685" lon="8.56043">
        <ele>840</ele>
        <time>2021-08-10T13:11:49.343Z</time>
      </trkpt>
      <trkpt lat="46.90684" lon="8.56043">
        <ele>839</ele>
        <time>2021-08-10T13:11:50.343Z</time>
      </trkpt>
      <trkpt lat="46.90684" lon="8.56041">
        <ele>839</ele>
        <time>2021-08-10T13:11:51.342Z</time>
      </trkpt>
      <trkpt lat="46.90684" lon="8.5604">
        <ele>838</ele>
        <time>2021-08-10T13:11:52.343Z</time>
      </trkpt>
      <trkpt lat="46.90684" lon="8.56039">
        <ele>838</ele>
        <time>2021-08-10T13:11:53.343Z</time>
      </trkpt>
      <trkpt lat="46.90683" lon="8.56037">
        <ele>838</ele>
        <time>2021-08-10T13:11:54.343Z</time>
      </trkpt>
      <trkpt lat="46.90683" lon="8.56036">
        <ele>837</ele>
        <time>2021-08-10T13:11:55.343Z</time>
      </trkpt>
      <trkpt lat="46.90681" lon="8.56035">
        <ele>837</ele>
        <time>2021-08-10T13:11:56.342Z</time>
      </trkpt>
      <trkpt lat="46.9068" lon="8.56035">
        <ele>837</ele>
        <time>2021-08-10T13:11:57.342Z</time>
      </trkpt>
      <trkpt lat="46.90679" lon="8.56035">
        <ele>837</ele>
        <time>2021-08-10T13:11:58.342Z</time>
      </trkpt>
      <trkpt lat="46.90678" lon="8.56034">
        <ele>837</ele>
        <time>2021-08-10T13:11:59.343Z</time>
      </trkpt>
      <trkpt lat="46.90677" lon="8.56033">
        <ele>837</ele>
        <time>2021-08-10T13:12:00.342Z</time>
      </trkpt>
      <trkpt lat="46.90677" lon="8.56032">
        <ele>837</ele>
        <time>2021-08-10T13:12:01.343Z</time>
      </trkpt>
      <trkpt lat="46.90676" lon="8.56031">
        <ele>837</ele>
        <time>2021-08-10T13:12:02.343Z</time>
      </trkpt>
      <trkpt lat="46.90675" lon="8.5603">
        <ele>838</ele>
        <time>2021-08-10T13:12:03.343Z</time>
      </trkpt>
      <trkpt lat="46.90675" lon="8.56029">
        <ele>838</ele>
        <time>2021-08-10T13:12:04.343Z</time>
      </trkpt>
      <trkpt lat="46.90674" lon="8.56028">
        <ele>838</ele>
        <time>2021-08-10T13:12:05.342Z</time>
      </trkpt>
      <trkpt lat="46.90673" lon="8.56027">
        <ele>838</ele>
        <time>2021-08-10T13:12:06.342Z</time>
      </trkpt>
      <trkpt lat="46.90673" lon="8.56025">
        <ele>839</ele>
        <time>2021-08-10T13:12:07.343Z</time>
      </trkpt>
      <trkpt lat="46.90672" lon="8.56024">
        <ele>839</ele>
        <time>2021-08-10T13:12:08.343Z</time>
      </trkpt>
      <trkpt lat="46.90671" lon="8.56024">
        <ele>838</ele>
        <time>2021-08-10T13:12:09.342Z</time>
      </trkpt>
      <trkpt lat="46.9067" lon="8.56023">
        <ele>838</ele>
        <time>2021-08-10T13:12:10.343Z</time>
      </trkpt>
      <trkpt lat="46.9067" lon="8.56021">
        <ele>838</ele>
        <time>2021-08-10T13:12:11.343Z</time>
      </trkpt>
      <trkpt lat="46.90671" lon="8.56019">
        <ele>838</ele>
        <time>2021-08-10T13:12:12.342Z</time>
      </trkpt>
      <trkpt lat="46.90671" lon="8.56017">
        <ele>837</ele>
        <time>2021-08-10T13:12:13.343Z</time>
      </trkpt>
      <trkpt lat="46.90672" lon="8.56016">
        <ele>837</ele>
        <time>2021-08-10T13:12:14.343Z</time>
      </trkpt>
      <trkpt lat="46.90672" lon="8.56015">
        <ele>837</ele>
        <time>2021-08-10T13:12:15.343Z</time>
      </trkpt>
      <trkpt lat="46.9067" lon="8.56014">
        <ele>837</ele>
        <time>2021-08-10T13:12:16.343Z</time>
      </trkpt>
      <trkpt lat="46.9067" lon="8.56013">
        <ele>838</ele>
        <time>2021-08-10T13:12:17.342Z</time>
      </trkpt>
      <trkpt lat="46.90669" lon="8.56012">
        <ele>838</ele>
        <time>2021-08-10T13:12:18.343Z</time>
      </trkpt>
      <trkpt lat="46.90667" lon="8.56011">
        <ele>838</ele>
        <time>2021-08-10T13:12:19.343Z</time>
      </trkpt>
      <trkpt lat="46.90666" lon="8.56011">
        <ele>838</ele>
        <time>2021-08-10T13:12:20.343Z</time>
      </trkpt>
      <trkpt lat="46.90666" lon="8.5601">
        <ele>838</ele>
        <time>2021-08-10T13:12:21.343Z</time>
      </trkpt>
      <trkpt lat="46.90665" lon="8.56009">
        <ele>838</ele>
        <time>2021-08-10T13:12:22.343Z</time>
      </trkpt>
      <trkpt lat="46.90665" lon="8.56008">
        <ele>837</ele>
        <time>2021-08-10T13:12:23.342Z</time>
      </trkpt>
      <trkpt lat="46.90665" lon="8.56007">
        <ele>837</ele>
        <time>2021-08-10T13:12:24.343Z</time>
      </trkpt>
      <trkpt lat="46.90665" lon="8.56006">
        <ele>837</ele>
        <time>2021-08-10T13:12:25.343Z</time>
      </trkpt>
      <trkpt lat="46.90664" lon="8.56004">
        <ele>837</ele>
        <time>2021-08-10T13:12:26.343Z</time>
      </trkpt>
      <trkpt lat="46.90664" lon="8.56003">
        <ele>837</ele>
        <time>2021-08-10T13:12:27.342Z</time>
      </trkpt>
      <trkpt lat="46.90663" lon="8.56002">
        <ele>837</ele>
        <time>2021-08-10T13:12:28.342Z</time>
      </trkpt>
      <trkpt lat="46.90663" lon="8.56001">
        <ele>837</ele>
        <time>2021-08-10T13:12:29.343Z</time>
      </trkpt>
      <trkpt lat="46.90662" lon="8.56001">
        <ele>837</ele>
        <time>2021-08-10T13:12:30.343Z</time>
      </trkpt>
      <trkpt lat="46.90661" lon="8.56001">
        <ele>837</ele>
        <time>2021-08-10T13:12:31.343Z</time>
      </trkpt>
      <trkpt lat="46.90661" lon="8.56001">
        <ele>837</ele>
        <time>2021-08-10T13:12:32.343Z</time>
      </trkpt>
      <trkpt lat="46.9066" lon="8.56002">
        <ele>837</ele>
        <time>2021-08-10T13:12:33.343Z</time>
      </trkpt>
      <trkpt lat="46.90659" lon="8.56002">
        <ele>838</ele>
        <time>2021-08-10T13:12:34.343Z</time>
      </trkpt>
      <trkpt lat="46.90658" lon="8.56002">
        <ele>838</ele>
        <time>2021-08-10T13:12:35.343Z</time>
      </trkpt>
      <trkpt lat="46.90657" lon="8.56002">
        <ele>838</ele>
        <time>2021-08-10T13:12:36.343Z</time>
      </trkpt>
      <trkpt lat="46.90656" lon="8.56001">
        <ele>838</ele>
        <time>2021-08-10T13:12:37.343Z</time>
      </trkpt>
      <trkpt lat="46.90656" lon="8.56">
        <ele>838</ele>
        <time>2021-08-10T13:12:38.342Z</time>
      </trkpt>
      <trkpt lat="46.90656" lon="8.55999">
        <ele>838</ele>
        <time>2021-08-10T13:12:39.342Z</time>
      </trkpt>
      <trkpt lat="46.90655" lon="8.55999">
        <ele>838</ele>
        <time>2021-08-10T13:12:40.343Z</time>
      </trkpt>
      <trkpt lat="46.90656" lon="8.55997">
        <ele>838</ele>
        <time>2021-08-10T13:12:41.343Z</time>
      </trkpt>
      <trkpt lat="46.90656" lon="8.55996">
        <ele>838</ele>
        <time>2021-08-10T13:12:42.343Z</time>
      </trkpt>
      <trkpt lat="46.90655" lon="8.55994">
        <ele>838</ele>
        <time>2021-08-10T13:12:43.343Z</time>
      </trkpt>
      <trkpt lat="46.90655" lon="8.55993">
        <ele>837</ele>
        <time>2021-08-10T13:12:44.343Z</time>
      </trkpt>
      <trkpt lat="46.90654" lon="8.55992">
        <ele>837</ele>
        <time>2021-08-10T13:12:45.343Z</time>
      </trkpt>
      <trkpt lat="46.90654" lon="8.55991">
        <ele>837</ele>
        <time>2021-08-10T13:12:46.342Z</time>
      </trkpt>
      <trkpt lat="46.90653" lon="8.55991">
        <ele>837</ele>
        <time>2021-08-10T13:12:47.343Z</time>
      </trkpt>
      <trkpt lat="46.90653" lon="8.55991">
        <ele>837</ele>
        <time>2021-08-10T13:12:48.342Z</time>
      </trkpt>
      <trkpt lat="46.90652" lon="8.5599">
        <ele>837</ele>
        <time>2021-08-10T13:12:49.342Z</time>
      </trkpt>
      <trkpt lat="46.9065" lon="8.5599">
        <ele>837</ele>
        <time>2021-08-10T13:12:50.342Z</time>
      </trkpt>
      <trkpt lat="46.90648" lon="8.55991">
        <ele>837</ele>
        <time>2021-08-10T13:12:51.343Z</time>
      </trkpt>
      <trkpt lat="46.90647" lon="8.55992">
        <ele>837</ele>
        <time>2021-08-10T13:12:52.343Z</time>
      </trkpt>
      <trkpt lat="46.90645" lon="8.5599">
        <ele>837</ele>
        <time>2021-08-10T13:12:53.343Z</time>
      </trkpt>
      <trkpt lat="46.90644" lon="8.55989">
        <ele>837</ele>
        <time>2021-08-10T13:12:54.343Z</time>
      </trkpt>
      <trkpt lat="46.90643" lon="8.55988">
        <ele>837</ele>
        <time>2021-08-10T13:12:55.343Z</time>
      </trkpt>
      <trkpt lat="46.90642" lon="8.55987">
        <ele>837</ele>
        <time>2021-08-10T13:12:56.343Z</time>
      </trkpt>
      <trkpt lat="46.90641" lon="8.55986">
        <ele>837</ele>
        <time>2021-08-10T13:12:57.343Z</time>
      </trkpt>
      <trkpt lat="46.9064" lon="8.55986">
        <ele>837</ele>
        <time>2021-08-10T13:12:58.343Z</time>
      </trkpt>
      <trkpt lat="46.90638" lon="8.55986">
        <ele>837</ele>
        <time>2021-08-10T13:12:59.342Z</time>
      </trkpt>
      <trkpt lat="46.90637" lon="8.55985">
        <ele>837</ele>
        <time>2021-08-10T13:13:00.342Z</time>
      </trkpt>
      <trkpt lat="46.90637" lon="8.55985">
        <ele>837</ele>
        <time>2021-08-10T13:13:01.343Z</time>
      </trkpt>
      <trkpt lat="46.90636" lon="8.55984">
        <ele>837</ele>
        <time>2021-08-10T13:13:02.343Z</time>
      </trkpt>
      <trkpt lat="46.90636" lon="8.55983">
        <ele>837</ele>
        <time>2021-08-10T13:13:03.343Z</time>
      </trkpt>
      <trkpt lat="46.90636" lon="8.5598">
        <ele>837</ele>
        <time>2021-08-10T13:13:04.343Z</time>
      </trkpt>
      <trkpt lat="46.90637" lon="8.55978">
        <ele>836</ele>
        <time>2021-08-10T13:13:05.342Z</time>
      </trkpt>
      <trkpt lat="46.90636" lon="8.55977">
        <ele>836</ele>
        <time>2021-08-10T13:13:06.342Z</time>
      </trkpt>
      <trkpt lat="46.90635" lon="8.55978">
        <ele>835</ele>
        <time>2021-08-10T13:13:07.342Z</time>
      </trkpt>
      <trkpt lat="46.90634" lon="8.55978">
        <ele>835</ele>
        <time>2021-08-10T13:13:08.343Z</time>
      </trkpt>
      <trkpt lat="46.90634" lon="8.55979">
        <ele>835</ele>
        <time>2021-08-10T13:13:09.343Z</time>
      </trkpt>
      <trkpt lat="46.90633" lon="8.5598">
        <ele>836</ele>
        <time>2021-08-10T13:13:10.342Z</time>
      </trkpt>
      <trkpt lat="46.90634" lon="8.5598">
        <ele>836</ele>
        <time>2021-08-10T13:13:11.343Z</time>
      </trkpt>
      <trkpt lat="46.90635" lon="8.5598">
        <ele>836</ele>
        <time>2021-08-10T13:13:12.342Z</time>
      </trkpt>
      <trkpt lat="46.90637" lon="8.55981">
        <ele>836</ele>
        <time>2021-08-10T13:13:13.342Z</time>
      </trkpt>
      <trkpt lat="46.90638" lon="8.55981">
        <ele>836</ele>
        <time>2021-08-10T13:13:14.342Z</time>
      </trkpt>
      <trkpt lat="46.90639" lon="8.55982">
        <ele>835</ele>
        <time>2021-08-10T13:13:15.343Z</time>
      </trkpt>
      <trkpt lat="46.90639" lon="8.55982">
        <ele>835</ele>
        <time>2021-08-10T13:13:16.343Z</time>
      </trkpt>
      <trkpt lat="46.90639" lon="8.55982">
        <ele>835</ele>
        <time>2021-08-10T13:13:17.343Z</time>
      </trkpt>
      <trkpt lat="46.90637" lon="8.55984">
        <ele>835</ele>
        <time>2021-08-10T13:13:18.343Z</time>
      </trkpt>
      <trkpt lat="46.90636" lon="8.55985">
        <ele>835</ele>
        <time>2021-08-10T13:13:19.343Z</time>
      </trkpt>
      <trkpt lat="46.90636" lon="8.55985">
        <ele>836</ele>
        <time>2021-08-10T13:13:20.343Z</time>
      </trkpt>
      <trkpt lat="46.90636" lon="8.55984">
        <ele>836</ele>
        <time>2021-08-10T13:13:21.343Z</time>
      </trkpt>
      <trkpt lat="46.90636" lon="8.55982">
        <ele>837</ele>
        <time>2021-08-10T13:13:22.342Z</time>
      </trkpt>
      <trkpt lat="46.90636" lon="8.55981">
        <ele>837</ele>
        <time>2021-08-10T13:13:23.343Z</time>
      </trkpt>
      <trkpt lat="46.90635" lon="8.5598">
        <ele>837</ele>
        <time>2021-08-10T13:13:24.343Z</time>
      </trkpt>
      <trkpt lat="46.90634" lon="8.55977">
        <ele>838</ele>
        <time>2021-08-10T13:13:25.343Z</time>
      </trkpt>
      <trkpt lat="46.90634" lon="8.55976">
        <ele>838</ele>
        <time>2021-08-10T13:13:26.343Z</time>
      </trkpt>
      <trkpt lat="46.90634" lon="8.55974">
        <ele>838</ele>
        <time>2021-08-10T13:13:27.343Z</time>
      </trkpt>
      <trkpt lat="46.90633" lon="8.55973">
        <ele>838</ele>
        <time>2021-08-10T13:13:28.343Z</time>
      </trkpt>
      <trkpt lat="46.90633" lon="8.55972">
        <ele>838</ele>
        <time>2021-08-10T13:13:29.342Z</time>
      </trkpt>
      <trkpt lat="46.90633" lon="8.55971">
        <ele>839</ele>
        <time>2021-08-10T13:13:30.343Z</time>
      </trkpt>
      <trkpt lat="46.90633" lon="8.55971">
        <ele>839</ele>
        <time>2021-08-10T13:13:31.342Z</time>
      </trkpt>
      <trkpt lat="46.90633" lon="8.55971">
        <ele>839</ele>
        <time>2021-08-10T13:13:32.342Z</time>
      </trkpt>
      <trkpt lat="46.90632" lon="8.55971">
        <ele>839</ele>
        <time>2021-08-10T13:13:33.343Z</time>
      </trkpt>
      <trkpt lat="46.90632" lon="8.55972">
        <ele>840</ele>
        <time>2021-08-10T13:13:34.342Z</time>
      </trkpt>
      <trkpt lat="46.90632" lon="8.55972">
        <ele>840</ele>
        <time>2021-08-10T13:13:35.342Z</time>
      </trkpt>
      <trkpt lat="46.90632" lon="8.55971">
        <ele>840</ele>
        <time>2021-08-10T13:13:36.343Z</time>
      </trkpt>
      <trkpt lat="46.90632" lon="8.5597">
        <ele>841</ele>
        <time>2021-08-10T13:13:37.342Z</time>
      </trkpt>
      <trkpt lat="46.90633" lon="8.5597">
        <ele>841</ele>
        <time>2021-08-10T13:13:38.342Z</time>
      </trkpt>
      <trkpt lat="46.90633" lon="8.5597">
        <ele>841</ele>
        <time>2021-08-10T13:13:39.343Z</time>
      </trkpt>
      <trkpt lat="46.90633" lon="8.5597">
        <ele>841</ele>
        <time>2021-08-10T13:13:40.342Z</time>
      </trkpt>
      <trkpt lat="46.90633" lon="8.55971">
        <ele>841</ele>
        <time>2021-08-10T13:13:41.343Z</time>
      </trkpt>
      <trkpt lat="46.90633" lon="8.55971">
        <ele>841</ele>
        <time>2021-08-10T13:13:42.343Z</time>
      </trkpt>
      <trkpt lat="46.90632" lon="8.55971">
        <ele>842</ele>
        <time>2021-08-10T13:13:43.344Z</time>
      </trkpt>
      <trkpt lat="46.90632" lon="8.55972">
        <ele>842</ele>
        <time>2021-08-10T13:13:44.344Z</time>
      </trkpt>
      <trkpt lat="46.90632" lon="8.55972">
        <ele>843</ele>
        <time>2021-08-10T13:13:45.343Z</time>
      </trkpt>
      <trkpt lat="46.90631" lon="8.55973">
        <ele>843</ele>
        <time>2021-08-10T13:13:46.344Z</time>
      </trkpt>
      <trkpt lat="46.90631" lon="8.55972">
        <ele>843</ele>
        <time>2021-08-10T13:13:47.344Z</time>
      </trkpt>
      <trkpt lat="46.90631" lon="8.55971">
        <ele>844</ele>
        <time>2021-08-10T13:13:48.344Z</time>
      </trkpt>
      <trkpt lat="46.90631" lon="8.55971">
        <ele>844</ele>
        <time>2021-08-10T13:13:49.344Z</time>
      </trkpt>
      <trkpt lat="46.90631" lon="8.55972">
        <ele>844</ele>
        <time>2021-08-10T13:13:50.344Z</time>
      </trkpt>
      <trkpt lat="46.90631" lon="8.55972">
        <ele>844</ele>
        <time>2021-08-10T13:13:51.344Z</time>
      </trkpt>
      <trkpt lat="46.9063" lon="8.55972">
        <ele>845</ele>
        <time>2021-08-10T13:13:52.344Z</time>
      </trkpt>
      <trkpt lat="46.9063" lon="8.55972">
        <ele>845</ele>
        <time>2021-08-10T13:13:53.344Z</time>
      </trkpt>
      <trkpt lat="46.9063" lon="8.55972">
        <ele>845</ele>
        <time>2021-08-10T13:13:54.344Z</time>
      </trkpt>
      <trkpt lat="46.90629" lon="8.55973">
        <ele>845</ele>
        <time>2021-08-10T13:13:55.344Z</time>
      </trkpt>
      <trkpt lat="46.9063" lon="8.55974">
        <ele>845</ele>
        <time>2021-08-10T13:13:56.344Z</time>
      </trkpt>
      <trkpt lat="46.9063" lon="8.55982">
        <ele>846</ele>
        <time>2021-08-10T13:13:57.345Z</time>
      </trkpt>
      <trkpt lat="46.9063" lon="8.55982">
        <ele>846</ele>
        <time>2021-08-10T13:13:58.344Z</time>
      </trkpt>
      <trkpt lat="46.9063" lon="8.55982">
        <ele>845</ele>
        <time>2021-08-10T13:13:59.344Z</time>
      </trkpt>
      <trkpt lat="46.90629" lon="8.55984">
        <ele>845</ele>
        <time>2021-08-10T13:14:00.345Z</time>
      </trkpt>
      <trkpt lat="46.90629" lon="8.55986">
        <ele>845</ele>
        <time>2021-08-10T13:14:01.344Z</time>
      </trkpt>
      <trkpt lat="46.90629" lon="8.55988">
        <ele>844</ele>
        <time>2021-08-10T13:14:02.345Z</time>
      </trkpt>
      <trkpt lat="46.90628" lon="8.5599">
        <ele>844</ele>
        <time>2021-08-10T13:14:03.345Z</time>
      </trkpt>
      <trkpt lat="46.90628" lon="8.55992">
        <ele>843</ele>
        <time>2021-08-10T13:14:04.345Z</time>
      </trkpt>
      <trkpt lat="46.90628" lon="8.55993">
        <ele>843</ele>
        <time>2021-08-10T13:14:05.345Z</time>
      </trkpt>
      <trkpt lat="46.90627" lon="8.55993">
        <ele>842</ele>
        <time>2021-08-10T13:14:06.345Z</time>
      </trkpt>
      <trkpt lat="46.90627" lon="8.55993">
        <ele>842</ele>
        <time>2021-08-10T13:14:07.345Z</time>
      </trkpt>
      <trkpt lat="46.90627" lon="8.55994">
        <ele>842</ele>
        <time>2021-08-10T13:14:08.345Z</time>
      </trkpt>
      <trkpt lat="46.90626" lon="8.55995">
        <ele>842</ele>
        <time>2021-08-10T13:14:09.345Z</time>
      </trkpt>
      <trkpt lat="46.90631" lon="8.55996">
        <ele>842</ele>
        <time>2021-08-10T13:14:10.347Z</time>
      </trkpt>
      <trkpt lat="46.90631" lon="8.55995">
        <ele>842</ele>
        <time>2021-08-10T13:14:11.347Z</time>
      </trkpt>
      <trkpt lat="46.90632" lon="8.55993">
        <ele>843</ele>
        <time>2021-08-10T13:14:12.346Z</time>
      </trkpt>
      <trkpt lat="46.90632" lon="8.5599">
        <ele>843</ele>
        <time>2021-08-10T13:14:13.347Z</time>
      </trkpt>
      <trkpt lat="46.90632" lon="8.55988">
        <ele>843</ele>
        <time>2021-08-10T13:14:14.347Z</time>
      </trkpt>
      <trkpt lat="46.90633" lon="8.55987">
        <ele>843</ele>
        <time>2021-08-10T13:14:15.346Z</time>
      </trkpt>
      <trkpt lat="46.90634" lon="8.55987">
        <ele>843</ele>
        <time>2021-08-10T13:14:16.347Z</time>
      </trkpt>
      <trkpt lat="46.90633" lon="8.55987">
        <ele>842</ele>
        <time>2021-08-10T13:14:17.347Z</time>
      </trkpt>
      <trkpt lat="46.90632" lon="8.55989">
        <ele>842</ele>
        <time>2021-08-10T13:14:31.477Z</time>
      </trkpt>
      <trkpt lat="46.90631" lon="8.5599">
        <ele>842</ele>
        <time>2021-08-10T13:14:32.477Z</time>
      </trkpt>
      <trkpt lat="46.9063" lon="8.55991">
        <ele>841</ele>
        <time>2021-08-10T13:14:46.347Z</time>
      </trkpt>
      <trkpt lat="46.9063" lon="8.55992">
        <ele>841</ele>
        <time>2021-08-10T13:14:50.244Z</time>
      </trkpt>
      <trkpt lat="46.90629" lon="8.55994">
        <ele>840</ele>
        <time>2021-08-10T13:14:51.245Z</time>
      </trkpt>
      <trkpt lat="46.90629" lon="8.55995">
        <ele>839</ele>
        <time>2021-08-10T13:14:52.245Z</time>
      </trkpt>
      <trkpt lat="46.9063" lon="8.55996">
        <ele>839</ele>
        <time>2021-08-10T13:14:53.245Z</time>
      </trkpt>
      <trkpt lat="46.9063" lon="8.55997">
        <ele>838</ele>
        <time>2021-08-10T13:14:54.245Z</time>
      </trkpt>
      <trkpt lat="46.90629" lon="8.55998">
        <ele>838</ele>
        <time>2021-08-10T13:14:55.245Z</time>
      </trkpt>
      <trkpt lat="46.90629" lon="8.56">
        <ele>837</ele>
        <time>2021-08-10T13:15:04.357Z</time>
      </trkpt>
      <trkpt lat="46.90628" lon="8.56001">
        <ele>837</ele>
        <time>2021-08-10T13:15:05.356Z</time>
      </trkpt>
      <trkpt lat="46.90621" lon="8.5601">
        <ele>835</ele>
        <time>2021-08-10T13:15:09.458Z</time>
      </trkpt>
      <trkpt lat="46.90621" lon="8.56008">
        <ele>835</ele>
        <time>2021-08-10T13:15:10.459Z</time>
      </trkpt>
      <trkpt lat="46.90621" lon="8.56006">
        <ele>835</ele>
        <time>2021-08-10T13:15:11.458Z</time>
      </trkpt>
      <trkpt lat="46.90621" lon="8.56004">
        <ele>834</ele>
        <time>2021-08-10T13:15:12.458Z</time>
      </trkpt>
      <trkpt lat="46.9062" lon="8.56003">
        <ele>835</ele>
        <time>2021-08-10T13:15:13.458Z</time>
      </trkpt>
      <trkpt lat="46.90621" lon="8.56001">
        <ele>835</ele>
        <time>2021-08-10T13:15:14.459Z</time>
      </trkpt>
      <trkpt lat="46.90621" lon="8.56001">
        <ele>835</ele>
        <time>2021-08-10T13:15:15.459Z</time>
      </trkpt>
      <trkpt lat="46.90622" lon="8.56001">
        <ele>835</ele>
        <time>2021-08-10T13:15:17.589Z</time>
      </trkpt>
      <trkpt lat="46.90622" lon="8.56002">
        <ele>835</ele>
        <time>2021-08-10T13:15:18.588Z</time>
      </trkpt>
      <trkpt lat="46.90622" lon="8.56003">
        <ele>835</ele>
        <time>2021-08-10T13:15:19.588Z</time>
      </trkpt>
      <trkpt lat="46.90622" lon="8.56004">
        <ele>835</ele>
        <time>2021-08-10T13:15:20.588Z</time>
      </trkpt>
      <trkpt lat="46.90622" lon="8.56005">
        <ele>835</ele>
        <time>2021-08-10T13:15:21.589Z</time>
      </trkpt>
      <trkpt lat="46.90621" lon="8.56006">
        <ele>834</ele>
        <time>2021-08-10T13:15:22.588Z</time>
      </trkpt>
      <trkpt lat="46.90621" lon="8.56005">
        <ele>834</ele>
        <time>2021-08-10T13:15:23.588Z</time>
      </trkpt>
      <trkpt lat="46.9062" lon="8.56">
        <ele>834</ele>
        <time>2021-08-10T13:15:24.588Z</time>
      </trkpt>
      <trkpt lat="46.90619" lon="8.55995">
        <ele>833</ele>
        <time>2021-08-10T13:15:25.588Z</time>
      </trkpt>
      <trkpt lat="46.90618" lon="8.55993">
        <ele>833</ele>
        <time>2021-08-10T13:15:26.588Z</time>
      </trkpt>
      <trkpt lat="46.90619" lon="8.55992">
        <ele>833</ele>
        <time>2021-08-10T13:15:27.589Z</time>
      </trkpt>
      <trkpt lat="46.90618" lon="8.55991">
        <ele>833</ele>
        <time>2021-08-10T13:15:28.588Z</time>
      </trkpt>
      <trkpt lat="46.90619" lon="8.5599">
        <ele>833</ele>
        <time>2021-08-10T13:15:29.588Z</time>
      </trkpt>
      <trkpt lat="46.9062" lon="8.5599">
        <ele>833</ele>
        <time>2021-08-10T13:15:30.588Z</time>
      </trkpt>
      <trkpt lat="46.90621" lon="8.5599">
        <ele>833</ele>
        <time>2021-08-10T13:15:31.589Z</time>
      </trkpt>
      <trkpt lat="46.90621" lon="8.55989">
        <ele>833</ele>
        <time>2021-08-10T13:15:32.588Z</time>
      </trkpt>
      <trkpt lat="46.90622" lon="8.55988">
        <ele>833</ele>
        <time>2021-08-10T13:15:33.589Z</time>
      </trkpt>
      <trkpt lat="46.90623" lon="8.55987">
        <ele>833</ele>
        <time>2021-08-10T13:15:34.589Z</time>
      </trkpt>
      <trkpt lat="46.90624" lon="8.55985">
        <ele>833</ele>
        <time>2021-08-10T13:15:35.588Z</time>
      </trkpt>
      <trkpt lat="46.90625" lon="8.55984">
        <ele>834</ele>
        <time>2021-08-10T13:15:36.588Z</time>
      </trkpt>
      <trkpt lat="46.90627" lon="8.55982">
        <ele>834</ele>
        <time>2021-08-10T13:15:37.588Z</time>
      </trkpt>
      <trkpt lat="46.90628" lon="8.55981">
        <ele>834</ele>
        <time>2021-08-10T13:15:38.588Z</time>
      </trkpt>
      <trkpt lat="46.90629" lon="8.55981">
        <ele>834</ele>
        <time>2021-08-10T13:15:39.588Z</time>
      </trkpt>
      <trkpt lat="46.90629" lon="8.5598">
        <ele>834</ele>
        <time>2021-08-10T13:15:40.588Z</time>
      </trkpt>
      <trkpt lat="46.90628" lon="8.55979">
        <ele>835</ele>
        <time>2021-08-10T13:15:41.588Z</time>
      </trkpt>
      <trkpt lat="46.90627" lon="8.55979">
        <ele>835</ele>
        <time>2021-08-10T13:15:42.588Z</time>
      </trkpt>
      <trkpt lat="46.90626" lon="8.55979">
        <ele>835</ele>
        <time>2021-08-10T13:15:43.588Z</time>
      </trkpt>
      <trkpt lat="46.90625" lon="8.5598">
        <ele>835</ele>
        <time>2021-08-10T13:15:44.588Z</time>
      </trkpt>
      <trkpt lat="46.90625" lon="8.5598">
        <ele>836</ele>
        <time>2021-08-10T13:15:45.589Z</time>
      </trkpt>
      <trkpt lat="46.90625" lon="8.5598">
        <ele>836</ele>
        <time>2021-08-10T13:15:46.588Z</time>
      </trkpt>
      <trkpt lat="46.90626" lon="8.55979">
        <ele>837</ele>
        <time>2021-08-10T13:15:47.588Z</time>
      </trkpt>
      <trkpt lat="46.90626" lon="8.55978">
        <ele>837</ele>
        <time>2021-08-10T13:15:48.590Z</time>
      </trkpt>
      <trkpt lat="46.90627" lon="8.55978">
        <ele>837</ele>
        <time>2021-08-10T13:15:49.590Z</time>
      </trkpt>
      <trkpt lat="46.90627" lon="8.55977">
        <ele>838</ele>
        <time>2021-08-10T13:15:50.589Z</time>
      </trkpt>
      <trkpt lat="46.90627" lon="8.55977">
        <ele>838</ele>
        <time>2021-08-10T13:15:51.590Z</time>
      </trkpt>
      <trkpt lat="46.90628" lon="8.55976">
        <ele>838</ele>
        <time>2021-08-10T13:15:52.590Z</time>
      </trkpt>
      <trkpt lat="46.90634" lon="8.55973">
        <ele>840</ele>
        <time>2021-08-10T13:15:53.590Z</time>
      </trkpt>
      <trkpt lat="46.90636" lon="8.55972">
        <ele>841</ele>
        <time>2021-08-10T13:15:54.590Z</time>
      </trkpt>
      <trkpt lat="46.90637" lon="8.55971">
        <ele>841</ele>
        <time>2021-08-10T13:15:55.590Z</time>
      </trkpt>
      <trkpt lat="46.90638" lon="8.5597">
        <ele>841</ele>
        <time>2021-08-10T13:15:56.590Z</time>
      </trkpt>
      <trkpt lat="46.90638" lon="8.55969">
        <ele>842</ele>
        <time>2021-08-10T13:15:57.589Z</time>
      </trkpt>
      <trkpt lat="46.90638" lon="8.55968">
        <ele>842</ele>
        <time>2021-08-10T13:15:58.589Z</time>
      </trkpt>
      <trkpt lat="46.90638" lon="8.55968">
        <ele>842</ele>
        <time>2021-08-10T13:15:59.590Z</time>
      </trkpt>
      <trkpt lat="46.90638" lon="8.55967">
        <ele>843</ele>
        <time>2021-08-10T13:16:00.589Z</time>
      </trkpt>
      <trkpt lat="46.90638" lon="8.55966">
        <ele>843</ele>
        <time>2021-08-10T13:16:01.590Z</time>
      </trkpt>
      <trkpt lat="46.90637" lon="8.55965">
        <ele>844</ele>
        <time>2021-08-10T13:16:02.590Z</time>
      </trkpt>
      <trkpt lat="46.90637" lon="8.55965">
        <ele>845</ele>
        <time>2021-08-10T13:16:03.590Z</time>
      </trkpt>
      <trkpt lat="46.90637" lon="8.55964">
        <ele>846</ele>
        <time>2021-08-10T13:16:04.590Z</time>
      </trkpt>
      <trkpt lat="46.90638" lon="8.55964">
        <ele>847</ele>
        <time>2021-08-10T13:16:05.590Z</time>
      </trkpt>
      <trkpt lat="46.90638" lon="8.55963">
        <ele>848</ele>
        <time>2021-08-10T13:16:06.590Z</time>
      </trkpt>
      <trkpt lat="46.90638" lon="8.55963">
        <ele>849</ele>
        <time>2021-08-10T13:16:07.589Z</time>
      </trkpt>
      <trkpt lat="46.90638" lon="8.55963">
        <ele>850</ele>
        <time>2021-08-10T13:16:08.589Z</time>
      </trkpt>
      <trkpt lat="46.90638" lon="8.55962">
        <ele>851</ele>
        <time>2021-08-10T13:16:09.592Z</time>
      </trkpt>
      <trkpt lat="46.90638" lon="8.55961">
        <ele>852</ele>
        <time>2021-08-10T13:16:10.592Z</time>
      </trkpt>
      <trkpt lat="46.90637" lon="8.5596">
        <ele>852</ele>
        <time>2021-08-10T13:16:11.591Z</time>
      </trkpt>
      <trkpt lat="46.90636" lon="8.5596">
        <ele>852</ele>
        <time>2021-08-10T13:16:12.592Z</time>
      </trkpt>
      <trkpt lat="46.90636" lon="8.55959">
        <ele>853</ele>
        <time>2021-08-10T13:16:13.592Z</time>
      </trkpt>
      <trkpt lat="46.90636" lon="8.55959">
        <ele>852</ele>
        <time>2021-08-10T13:16:14.591Z</time>
      </trkpt>
      <trkpt lat="46.90635" lon="8.55959">
        <ele>852</ele>
        <time>2021-08-10T13:16:15.591Z</time>
      </trkpt>
      <trkpt lat="46.90635" lon="8.55959">
        <ele>851</ele>
        <time>2021-08-10T13:16:16.591Z</time>
      </trkpt>
      <trkpt lat="46.90634" lon="8.55958">
        <ele>851</ele>
        <time>2021-08-10T13:16:17.591Z</time>
      </trkpt>
      <trkpt lat="46.90634" lon="8.55958">
        <ele>850</ele>
        <time>2021-08-10T13:16:18.592Z</time>
      </trkpt>
      <trkpt lat="46.90634" lon="8.55957">
        <ele>850</ele>
        <time>2021-08-10T13:16:19.592Z</time>
      </trkpt>
      <trkpt lat="46.90633" lon="8.55957">
        <ele>850</ele>
        <time>2021-08-10T13:16:20.591Z</time>
      </trkpt>
      <trkpt lat="46.90632" lon="8.55956">
        <ele>850</ele>
        <time>2021-08-10T13:16:21.592Z</time>
      </trkpt>
      <trkpt lat="46.90631" lon="8.55957">
        <ele>850</ele>
        <time>2021-08-10T13:16:22.591Z</time>
      </trkpt>
      <trkpt lat="46.9063" lon="8.55957">
        <ele>850</ele>
        <time>2021-08-10T13:16:23.592Z</time>
      </trkpt>
      <trkpt lat="46.90628" lon="8.55957">
        <ele>850</ele>
        <time>2021-08-10T13:16:24.592Z</time>
      </trkpt>
      <trkpt lat="46.90627" lon="8.55956">
        <ele>850</ele>
        <time>2021-08-10T13:16:25.592Z</time>
      </trkpt>
      <trkpt lat="46.90626" lon="8.55956">
        <ele>850</ele>
        <time>2021-08-10T13:16:26.592Z</time>
      </trkpt>
      <trkpt lat="46.90626" lon="8.55955">
        <ele>850</ele>
        <time>2021-08-10T13:16:27.592Z</time>
      </trkpt>
      <trkpt lat="46.90625" lon="8.55955">
        <ele>851</ele>
        <time>2021-08-10T13:16:28.592Z</time>
      </trkpt>
      <trkpt lat="46.90624" lon="8.55954">
        <ele>851</ele>
        <time>2021-08-10T13:16:29.592Z</time>
      </trkpt>
      <trkpt lat="46.90623" lon="8.55954">
        <ele>852</ele>
        <time>2021-08-10T13:16:30.591Z</time>
      </trkpt>
      <trkpt lat="46.90622" lon="8.55954">
        <ele>852</ele>
        <time>2021-08-10T13:16:31.592Z</time>
      </trkpt>
      <trkpt lat="46.90621" lon="8.55953">
        <ele>853</ele>
        <time>2021-08-10T13:16:32.592Z</time>
      </trkpt>
      <trkpt lat="46.90619" lon="8.55953">
        <ele>853</ele>
        <time>2021-08-10T13:16:33.592Z</time>
      </trkpt>
      <trkpt lat="46.90618" lon="8.55953">
        <ele>854</ele>
        <time>2021-08-10T13:16:34.592Z</time>
      </trkpt>
      <trkpt lat="46.90618" lon="8.55953">
        <ele>854</ele>
        <time>2021-08-10T13:16:35.592Z</time>
      </trkpt>
      <trkpt lat="46.90616" lon="8.55953">
        <ele>855</ele>
        <time>2021-08-10T13:16:36.592Z</time>
      </trkpt>
      <trkpt lat="46.90615" lon="8.55952">
        <ele>855</ele>
        <time>2021-08-10T13:16:37.592Z</time>
      </trkpt>
      <trkpt lat="46.90613" lon="8.55952">
        <ele>856</ele>
        <time>2021-08-10T13:16:38.592Z</time>
      </trkpt>
      <trkpt lat="46.90612" lon="8.55952">
        <ele>856</ele>
        <time>2021-08-10T13:16:39.591Z</time>
      </trkpt>
      <trkpt lat="46.90611" lon="8.55951">
        <ele>857</ele>
        <time>2021-08-10T13:16:40.592Z</time>
      </trkpt>
      <trkpt lat="46.90609" lon="8.55953">
        <ele>857</ele>
        <time>2021-08-10T13:16:41.592Z</time>
      </trkpt>
      <trkpt lat="46.90609" lon="8.55952">
        <ele>858</ele>
        <time>2021-08-10T13:16:42.592Z</time>
      </trkpt>
      <trkpt lat="46.90608" lon="8.55952">
        <ele>858</ele>
        <time>2021-08-10T13:16:43.592Z</time>
      </trkpt>
      <trkpt lat="46.90607" lon="8.55952">
        <ele>858</ele>
        <time>2021-08-10T13:16:44.592Z</time>
      </trkpt>
      <trkpt lat="46.90606" lon="8.55951">
        <ele>859</ele>
        <time>2021-08-10T13:16:45.592Z</time>
      </trkpt>
      <trkpt lat="46.90606" lon="8.55951">
        <ele>859</ele>
        <time>2021-08-10T13:16:46.592Z</time>
      </trkpt>
      <trkpt lat="46.90605" lon="8.5595">
        <ele>859</ele>
        <time>2021-08-10T13:16:47.591Z</time>
      </trkpt>
      <trkpt lat="46.90605" lon="8.55949">
        <ele>860</ele>
        <time>2021-08-10T13:16:48.592Z</time>
      </trkpt>
      <trkpt lat="46.90605" lon="8.55949">
        <ele>860</ele>
        <time>2021-08-10T13:16:49.591Z</time>
      </trkpt>
      <trkpt lat="46.90605" lon="8.55948">
        <ele>860</ele>
        <time>2021-08-10T13:16:50.591Z</time>
      </trkpt>
      <trkpt lat="46.90604" lon="8.55947">
        <ele>861</ele>
        <time>2021-08-10T13:16:51.592Z</time>
      </trkpt>
      <trkpt lat="46.90604" lon="8.55946">
        <ele>861</ele>
        <time>2021-08-10T13:16:52.592Z</time>
      </trkpt>
      <trkpt lat="46.90603" lon="8.55946">
        <ele>861</ele>
        <time>2021-08-10T13:16:53.591Z</time>
      </trkpt>
      <trkpt lat="46.90602" lon="8.55947">
        <ele>862</ele>
        <time>2021-08-10T13:16:54.592Z</time>
      </trkpt>
      <trkpt lat="46.906" lon="8.55949">
        <ele>862</ele>
        <time>2021-08-10T13:16:55.592Z</time>
      </trkpt>
      <trkpt lat="46.90599" lon="8.5595">
        <ele>863</ele>
        <time>2021-08-10T13:16:56.592Z</time>
      </trkpt>
      <trkpt lat="46.90598" lon="8.5595">
        <ele>863</ele>
        <time>2021-08-10T13:16:57.592Z</time>
      </trkpt>
      <trkpt lat="46.90597" lon="8.55949">
        <ele>864</ele>
        <time>2021-08-10T13:16:58.592Z</time>
      </trkpt>
      <trkpt lat="46.90596" lon="8.5595">
        <ele>864</ele>
        <time>2021-08-10T13:16:59.592Z</time>
      </trkpt>
      <trkpt lat="46.90595" lon="8.5595">
        <ele>865</ele>
        <time>2021-08-10T13:17:00.592Z</time>
      </trkpt>
      <trkpt lat="46.90594" lon="8.5595">
        <ele>866</ele>
        <time>2021-08-10T13:17:01.592Z</time>
      </trkpt>
      <trkpt lat="46.90593" lon="8.5595">
        <ele>866</ele>
        <time>2021-08-10T13:17:02.592Z</time>
      </trkpt>
      <trkpt lat="46.90592" lon="8.55949">
        <ele>867</ele>
        <time>2021-08-10T13:17:03.592Z</time>
      </trkpt>
      <trkpt lat="46.90591" lon="8.55949">
        <ele>867</ele>
        <time>2021-08-10T13:17:04.591Z</time>
      </trkpt>
      <trkpt lat="46.90591" lon="8.55949">
        <ele>868</ele>
        <time>2021-08-10T13:17:05.591Z</time>
      </trkpt>
      <trkpt lat="46.90591" lon="8.55949">
        <ele>868</ele>
        <time>2021-08-10T13:17:06.592Z</time>
      </trkpt>
      <trkpt lat="46.9059" lon="8.55949">
        <ele>869</ele>
        <time>2021-08-10T13:17:07.592Z</time>
      </trkpt>
      <trkpt lat="46.9059" lon="8.55947">
        <ele>869</ele>
        <time>2021-08-10T13:17:08.592Z</time>
      </trkpt>
      <trkpt lat="46.9059" lon="8.55946">
        <ele>870</ele>
        <time>2021-08-10T13:17:09.592Z</time>
      </trkpt>
      <trkpt lat="46.9059" lon="8.55945">
        <ele>870</ele>
        <time>2021-08-10T13:17:10.592Z</time>
      </trkpt>
      <trkpt lat="46.90589" lon="8.55944">
        <ele>870</ele>
        <time>2021-08-10T13:17:11.592Z</time>
      </trkpt>
      <trkpt lat="46.90588" lon="8.55943">
        <ele>870</ele>
        <time>2021-08-10T13:17:12.592Z</time>
      </trkpt>
      <trkpt lat="46.90587" lon="8.55944">
        <ele>871</ele>
        <time>2021-08-10T13:17:13.592Z</time>
      </trkpt>
      <trkpt lat="46.90586" lon="8.55943">
        <ele>871</ele>
        <time>2021-08-10T13:17:14.591Z</time>
      </trkpt>
      <trkpt lat="46.90586" lon="8.55943">
        <ele>871</ele>
        <time>2021-08-10T13:17:15.592Z</time>
      </trkpt>
      <trkpt lat="46.90586" lon="8.55941">
        <ele>871</ele>
        <time>2021-08-10T13:17:16.591Z</time>
      </trkpt>
      <trkpt lat="46.90585" lon="8.55941">
        <ele>872</ele>
        <time>2021-08-10T13:17:17.591Z</time>
      </trkpt>
      <trkpt lat="46.90585" lon="8.55941">
        <ele>872</ele>
        <time>2021-08-10T13:17:18.592Z</time>
      </trkpt>
      <trkpt lat="46.90584" lon="8.55941">
        <ele>872</ele>
        <time>2021-08-10T13:17:19.592Z</time>
      </trkpt>
      <trkpt lat="46.90583" lon="8.5594">
        <ele>873</ele>
        <time>2021-08-10T13:17:20.591Z</time>
      </trkpt>
      <trkpt lat="46.90582" lon="8.55939">
        <ele>873</ele>
        <time>2021-08-10T13:17:21.591Z</time>
      </trkpt>
      <trkpt lat="46.90581" lon="8.55938">
        <ele>873</ele>
        <time>2021-08-10T13:17:22.592Z</time>
      </trkpt>
      <trkpt lat="46.9058" lon="8.55938">
        <ele>873</ele>
        <time>2021-08-10T13:17:23.591Z</time>
      </trkpt>
      <trkpt lat="46.90579" lon="8.55939">
        <ele>874</ele>
        <time>2021-08-10T13:17:24.592Z</time>
      </trkpt>
      <trkpt lat="46.90578" lon="8.5594">
        <ele>874</ele>
        <time>2021-08-10T13:17:25.592Z</time>
      </trkpt>
      <trkpt lat="46.90578" lon="8.55941">
        <ele>875</ele>
        <time>2021-08-10T13:17:26.592Z</time>
      </trkpt>
      <trkpt lat="46.90578" lon="8.5594">
        <ele>875</ele>
        <time>2021-08-10T13:17:27.592Z</time>
      </trkpt>
      <trkpt lat="46.90577" lon="8.55939">
        <ele>875</ele>
        <time>2021-08-10T13:17:28.592Z</time>
      </trkpt>
      <trkpt lat="46.90576" lon="8.55939">
        <ele>875</ele>
        <time>2021-08-10T13:17:29.592Z</time>
      </trkpt>
      <trkpt lat="46.90576" lon="8.55939">
        <ele>875</ele>
        <time>2021-08-10T13:17:30.591Z</time>
      </trkpt>
      <trkpt lat="46.90575" lon="8.55939">
        <ele>875</ele>
        <time>2021-08-10T13:17:31.591Z</time>
      </trkpt>
      <trkpt lat="46.90574" lon="8.55939">
        <ele>875</ele>
        <time>2021-08-10T13:17:32.592Z</time>
      </trkpt>
      <trkpt lat="46.90574" lon="8.55938">
        <ele>875</ele>
        <time>2021-08-10T13:17:33.592Z</time>
      </trkpt>
      <trkpt lat="46.90573" lon="8.55937">
        <ele>875</ele>
        <time>2021-08-10T13:17:34.592Z</time>
      </trkpt>
      <trkpt lat="46.90573" lon="8.55938">
        <ele>875</ele>
        <time>2021-08-10T13:17:35.591Z</time>
      </trkpt>
      <trkpt lat="46.90572" lon="8.55937">
        <ele>875</ele>
        <time>2021-08-10T13:17:36.592Z</time>
      </trkpt>
      <trkpt lat="46.90571" lon="8.55937">
        <ele>875</ele>
        <time>2021-08-10T13:17:37.592Z</time>
      </trkpt>
      <trkpt lat="46.90571" lon="8.55937">
        <ele>875</ele>
        <time>2021-08-10T13:17:38.591Z</time>
      </trkpt>
      <trkpt lat="46.9057" lon="8.55936">
        <ele>875</ele>
        <time>2021-08-10T13:17:39.592Z</time>
      </trkpt>
      <trkpt lat="46.90569" lon="8.55936">
        <ele>874</ele>
        <time>2021-08-10T13:17:40.591Z</time>
      </trkpt>
      <trkpt lat="46.90569" lon="8.55936">
        <ele>874</ele>
        <time>2021-08-10T13:17:41.592Z</time>
      </trkpt>
      <trkpt lat="46.90568" lon="8.55935">
        <ele>874</ele>
        <time>2021-08-10T13:17:42.592Z</time>
      </trkpt>
      <trkpt lat="46.90567" lon="8.55935">
        <ele>874</ele>
        <time>2021-08-10T13:17:43.592Z</time>
      </trkpt>
      <trkpt lat="46.90566" lon="8.55934">
        <ele>874</ele>
        <time>2021-08-10T13:17:44.592Z</time>
      </trkpt>
      <trkpt lat="46.90567" lon="8.55933">
        <ele>874</ele>
        <time>2021-08-10T13:17:45.592Z</time>
      </trkpt>
      <trkpt lat="46.90567" lon="8.55932">
        <ele>874</ele>
        <time>2021-08-10T13:17:46.592Z</time>
      </trkpt>
      <trkpt lat="46.90567" lon="8.55931">
        <ele>874</ele>
        <time>2021-08-10T13:17:47.591Z</time>
      </trkpt>
      <trkpt lat="46.90566" lon="8.55931">
        <ele>874</ele>
        <time>2021-08-10T13:17:48.592Z</time>
      </trkpt>
      <trkpt lat="46.90566" lon="8.55931">
        <ele>874</ele>
        <time>2021-08-10T13:17:49.591Z</time>
      </trkpt>
      <trkpt lat="46.90565" lon="8.55932">
        <ele>874</ele>
        <time>2021-08-10T13:17:50.592Z</time>
      </trkpt>
      <trkpt lat="46.90564" lon="8.55932">
        <ele>874</ele>
        <time>2021-08-10T13:17:51.592Z</time>
      </trkpt>
      <trkpt lat="46.90564" lon="8.55933">
        <ele>874</ele>
        <time>2021-08-10T13:17:52.592Z</time>
      </trkpt>
      <trkpt lat="46.90563" lon="8.55933">
        <ele>875</ele>
        <time>2021-08-10T13:17:53.592Z</time>
      </trkpt>
      <trkpt lat="46.90563" lon="8.55933">
        <ele>875</ele>
        <time>2021-08-10T13:17:54.591Z</time>
      </trkpt>
      <trkpt lat="46.90562" lon="8.55932">
        <ele>875</ele>
        <time>2021-08-10T13:17:55.592Z</time>
      </trkpt>
      <trkpt lat="46.90562" lon="8.55932">
        <ele>875</ele>
        <time>2021-08-10T13:17:56.592Z</time>
      </trkpt>
      <trkpt lat="46.90561" lon="8.55932">
        <ele>876</ele>
        <time>2021-08-10T13:17:57.592Z</time>
      </trkpt>
      <trkpt lat="46.90561" lon="8.55932">
        <ele>876</ele>
        <time>2021-08-10T13:17:58.592Z</time>
      </trkpt>
      <trkpt lat="46.9056" lon="8.55932">
        <ele>876</ele>
        <time>2021-08-10T13:17:59.592Z</time>
      </trkpt>
      <trkpt lat="46.9056" lon="8.55933">
        <ele>876</ele>
        <time>2021-08-10T13:18:00.591Z</time>
      </trkpt>
      <trkpt lat="46.90559" lon="8.55933">
        <ele>876</ele>
        <time>2021-08-10T13:18:01.592Z</time>
      </trkpt>
      <trkpt lat="46.90559" lon="8.55932">
        <ele>876</ele>
        <time>2021-08-10T13:18:02.591Z</time>
      </trkpt>
      <trkpt lat="46.90558" lon="8.55931">
        <ele>876</ele>
        <time>2021-08-10T13:18:03.592Z</time>
      </trkpt>
      <trkpt lat="46.90558" lon="8.5593">
        <ele>876</ele>
        <time>2021-08-10T13:18:04.592Z</time>
      </trkpt>
      <trkpt lat="46.90557" lon="8.5593">
        <ele>876</ele>
        <time>2021-08-10T13:18:05.592Z</time>
      </trkpt>
      <trkpt lat="46.90557" lon="8.55929">
        <ele>876</ele>
        <time>2021-08-10T13:18:06.592Z</time>
      </trkpt>
      <trkpt lat="46.90557" lon="8.55928">
        <ele>876</ele>
        <time>2021-08-10T13:18:07.591Z</time>
      </trkpt>
      <trkpt lat="46.90556" lon="8.55927">
        <ele>876</ele>
        <time>2021-08-10T13:18:08.592Z</time>
      </trkpt>
      <trkpt lat="46.90556" lon="8.55926">
        <ele>876</ele>
        <time>2021-08-10T13:18:09.592Z</time>
      </trkpt>
      <trkpt lat="46.90555" lon="8.55925">
        <ele>876</ele>
        <time>2021-08-10T13:18:10.591Z</time>
      </trkpt>
      <trkpt lat="46.90555" lon="8.55924">
        <ele>876</ele>
        <time>2021-08-10T13:18:11.592Z</time>
      </trkpt>
      <trkpt lat="46.90554" lon="8.55924">
        <ele>876</ele>
        <time>2021-08-10T13:18:12.592Z</time>
      </trkpt>
      <trkpt lat="46.90553" lon="8.55923">
        <ele>875</ele>
        <time>2021-08-10T13:18:13.592Z</time>
      </trkpt>
      <trkpt lat="46.90552" lon="8.55923">
        <ele>875</ele>
        <time>2021-08-10T13:18:14.591Z</time>
      </trkpt>
      <trkpt lat="46.90551" lon="8.55923">
        <ele>875</ele>
        <time>2021-08-10T13:18:15.592Z</time>
      </trkpt>
      <trkpt lat="46.9055" lon="8.55923">
        <ele>875</ele>
        <time>2021-08-10T13:18:16.592Z</time>
      </trkpt>
      <trkpt lat="46.90549" lon="8.55925">
        <ele>875</ele>
        <time>2021-08-10T13:18:17.592Z</time>
      </trkpt>
      <trkpt lat="46.90548" lon="8.55925">
        <ele>874</ele>
        <time>2021-08-10T13:18:18.591Z</time>
      </trkpt>
      <trkpt lat="46.90547" lon="8.55925">
        <ele>874</ele>
        <time>2021-08-10T13:18:19.592Z</time>
      </trkpt>
      <trkpt lat="46.90547" lon="8.55924">
        <ele>874</ele>
        <time>2021-08-10T13:18:20.592Z</time>
      </trkpt>
      <trkpt lat="46.90546" lon="8.55924">
        <ele>874</ele>
        <time>2021-08-10T13:18:21.591Z</time>
      </trkpt>
      <trkpt lat="46.90545" lon="8.55923">
        <ele>874</ele>
        <time>2021-08-10T13:18:22.592Z</time>
      </trkpt>
      <trkpt lat="46.90545" lon="8.55922">
        <ele>874</ele>
        <time>2021-08-10T13:18:23.592Z</time>
      </trkpt>
      <trkpt lat="46.90544" lon="8.55922">
        <ele>874</ele>
        <time>2021-08-10T13:18:24.591Z</time>
      </trkpt>
      <trkpt lat="46.90544" lon="8.55921">
        <ele>874</ele>
        <time>2021-08-10T13:18:25.591Z</time>
      </trkpt>
      <trkpt lat="46.90543" lon="8.5592">
        <ele>874</ele>
        <time>2021-08-10T13:18:26.591Z</time>
      </trkpt>
      <trkpt lat="46.90543" lon="8.55919">
        <ele>874</ele>
        <time>2021-08-10T13:18:27.592Z</time>
      </trkpt>
      <trkpt lat="46.90543" lon="8.55918">
        <ele>874</ele>
        <time>2021-08-10T13:18:28.591Z</time>
      </trkpt>
      <trkpt lat="46.90542" lon="8.55916">
        <ele>875</ele>
        <time>2021-08-10T13:18:29.592Z</time>
      </trkpt>
      <trkpt lat="46.90543" lon="8.55914">
        <ele>875</ele>
        <time>2021-08-10T13:18:30.592Z</time>
      </trkpt>
      <trkpt lat="46.90543" lon="8.55912">
        <ele>875</ele>
        <time>2021-08-10T13:18:31.592Z</time>
      </trkpt>
      <trkpt lat="46.90544" lon="8.55908">
        <ele>875</ele>
        <time>2021-08-10T13:18:32.592Z</time>
      </trkpt>
      <trkpt lat="46.90544" lon="8.55906">
        <ele>876</ele>
        <time>2021-08-10T13:18:33.592Z</time>
      </trkpt>
      <trkpt lat="46.90543" lon="8.55905">
        <ele>876</ele>
        <time>2021-08-10T13:18:34.592Z</time>
      </trkpt>
      <trkpt lat="46.90543" lon="8.55904">
        <ele>876</ele>
        <time>2021-08-10T13:18:35.592Z</time>
      </trkpt>
      <trkpt lat="46.90542" lon="8.55903">
        <ele>876</ele>
        <time>2021-08-10T13:18:36.592Z</time>
      </trkpt>
      <trkpt lat="46.90541" lon="8.55903">
        <ele>877</ele>
        <time>2021-08-10T13:18:37.592Z</time>
      </trkpt>
      <trkpt lat="46.90541" lon="8.55903">
        <ele>877</ele>
        <time>2021-08-10T13:18:38.591Z</time>
      </trkpt>
      <trkpt lat="46.9054" lon="8.55902">
        <ele>878</ele>
        <time>2021-08-10T13:18:39.591Z</time>
      </trkpt>
      <trkpt lat="46.90539" lon="8.55902">
        <ele>878</ele>
        <time>2021-08-10T13:18:40.591Z</time>
      </trkpt>
      <trkpt lat="46.90539" lon="8.55901">
        <ele>878</ele>
        <time>2021-08-10T13:18:41.592Z</time>
      </trkpt>
      <trkpt lat="46.90539" lon="8.55899">
        <ele>879</ele>
        <time>2021-08-10T13:18:42.592Z</time>
      </trkpt>
      <trkpt lat="46.90539" lon="8.55897">
        <ele>879</ele>
        <time>2021-08-10T13:18:43.592Z</time>
      </trkpt>
      <trkpt lat="46.90538" lon="8.55896">
        <ele>879</ele>
        <time>2021-08-10T13:18:44.591Z</time>
      </trkpt>
      <trkpt lat="46.90538" lon="8.55895">
        <ele>880</ele>
        <time>2021-08-10T13:18:45.592Z</time>
      </trkpt>
      <trkpt lat="46.90537" lon="8.55894">
        <ele>880</ele>
        <time>2021-08-10T13:18:46.592Z</time>
      </trkpt>
      <trkpt lat="46.90537" lon="8.55893">
        <ele>880</ele>
        <time>2021-08-10T13:18:47.592Z</time>
      </trkpt>
      <trkpt lat="46.90536" lon="8.55893">
        <ele>880</ele>
        <time>2021-08-10T13:18:48.592Z</time>
      </trkpt>
      <trkpt lat="46.90535" lon="8.55893">
        <ele>880</ele>
        <time>2021-08-10T13:18:49.592Z</time>
      </trkpt>
      <trkpt lat="46.90534" lon="8.55893">
        <ele>881</ele>
        <time>2021-08-10T13:18:50.592Z</time>
      </trkpt>
      <trkpt lat="46.90533" lon="8.55892">
        <ele>881</ele>
        <time>2021-08-10T13:18:51.592Z</time>
      </trkpt>
      <trkpt lat="46.90531" lon="8.55893">
        <ele>881</ele>
        <time>2021-08-10T13:18:52.592Z</time>
      </trkpt>
      <trkpt lat="46.9053" lon="8.55894">
        <ele>881</ele>
        <time>2021-08-10T13:18:53.591Z</time>
      </trkpt>
      <trkpt lat="46.90529" lon="8.55895">
        <ele>881</ele>
        <time>2021-08-10T13:18:54.592Z</time>
      </trkpt>
      <trkpt lat="46.90529" lon="8.55895">
        <ele>882</ele>
        <time>2021-08-10T13:18:55.592Z</time>
      </trkpt>
      <trkpt lat="46.90528" lon="8.55895">
        <ele>882</ele>
        <time>2021-08-10T13:18:56.592Z</time>
      </trkpt>
      <trkpt lat="46.90528" lon="8.55894">
        <ele>882</ele>
        <time>2021-08-10T13:18:57.591Z</time>
      </trkpt>
      <trkpt lat="46.90525" lon="8.55897">
        <ele>882</ele>
        <time>2021-08-10T13:18:58.591Z</time>
      </trkpt>
      <trkpt lat="46.90525" lon="8.55897">
        <ele>883</ele>
        <time>2021-08-10T13:18:59.592Z</time>
      </trkpt>
      <trkpt lat="46.90525" lon="8.55896">
        <ele>883</ele>
        <time>2021-08-10T13:19:00.592Z</time>
      </trkpt>
      <trkpt lat="46.90525" lon="8.55895">
        <ele>883</ele>
        <time>2021-08-10T13:19:01.591Z</time>
      </trkpt>
      <trkpt lat="46.90524" lon="8.55895">
        <ele>884</ele>
        <time>2021-08-10T13:19:02.592Z</time>
      </trkpt>
      <trkpt lat="46.90523" lon="8.55894">
        <ele>884</ele>
        <time>2021-08-10T13:19:03.592Z</time>
      </trkpt>
      <trkpt lat="46.90521" lon="8.55894">
        <ele>884</ele>
        <time>2021-08-10T13:19:04.591Z</time>
      </trkpt>
      <trkpt lat="46.9052" lon="8.55895">
        <ele>884</ele>
        <time>2021-08-10T13:19:05.592Z</time>
      </trkpt>
      <trkpt lat="46.90519" lon="8.55894">
        <ele>885</ele>
        <time>2021-08-10T13:19:06.591Z</time>
      </trkpt>
      <trkpt lat="46.90518" lon="8.55894">
        <ele>885</ele>
        <time>2021-08-10T13:19:07.592Z</time>
      </trkpt>
      <trkpt lat="46.90517" lon="8.55894">
        <ele>885</ele>
        <time>2021-08-10T13:19:08.592Z</time>
      </trkpt>
      <trkpt lat="46.90517" lon="8.55893">
        <ele>885</ele>
        <time>2021-08-10T13:19:09.591Z</time>
      </trkpt>
      <trkpt lat="46.90516" lon="8.55892">
        <ele>885</ele>
        <time>2021-08-10T13:19:10.592Z</time>
      </trkpt>
      <trkpt lat="46.90515" lon="8.55891">
        <ele>885</ele>
        <time>2021-08-10T13:19:11.592Z</time>
      </trkpt>
      <trkpt lat="46.90514" lon="8.55891">
        <ele>885</ele>
        <time>2021-08-10T13:19:12.592Z</time>
      </trkpt>
      <trkpt lat="46.90513" lon="8.55892">
        <ele>885</ele>
        <time>2021-08-10T13:19:13.592Z</time>
      </trkpt>
      <trkpt lat="46.90513" lon="8.55893">
        <ele>885</ele>
        <time>2021-08-10T13:19:14.592Z</time>
      </trkpt>
      <trkpt lat="46.90512" lon="8.55893">
        <ele>885</ele>
        <time>2021-08-10T13:19:15.592Z</time>
      </trkpt>
      <trkpt lat="46.90511" lon="8.55893">
        <ele>885</ele>
        <time>2021-08-10T13:19:16.592Z</time>
      </trkpt>
      <trkpt lat="46.90511" lon="8.55891">
        <ele>885</ele>
        <time>2021-08-10T13:19:17.592Z</time>
      </trkpt>
      <trkpt lat="46.9051" lon="8.55891">
        <ele>885</ele>
        <time>2021-08-10T13:19:20.729Z</time>
      </trkpt>
      <trkpt lat="46.9051" lon="8.5589">
        <ele>885</ele>
        <time>2021-08-10T13:19:21.728Z</time>
      </trkpt>
      <trkpt lat="46.90509" lon="8.5589">
        <ele>885</ele>
        <time>2021-08-10T13:19:22.729Z</time>
      </trkpt>
      <trkpt lat="46.90508" lon="8.55891">
        <ele>885</ele>
        <time>2021-08-10T13:19:23.728Z</time>
      </trkpt>
      <trkpt lat="46.90508" lon="8.55891">
        <ele>886</ele>
        <time>2021-08-10T13:19:24.728Z</time>
      </trkpt>
      <trkpt lat="46.90507" lon="8.55892">
        <ele>886</ele>
        <time>2021-08-10T13:19:25.728Z</time>
      </trkpt>
      <trkpt lat="46.90506" lon="8.55893">
        <ele>886</ele>
        <time>2021-08-10T13:19:26.729Z</time>
      </trkpt>
      <trkpt lat="46.90505" lon="8.55893">
        <ele>886</ele>
        <time>2021-08-10T13:19:27.728Z</time>
      </trkpt>
      <trkpt lat="46.90504" lon="8.55894">
        <ele>886</ele>
        <time>2021-08-10T13:19:28.728Z</time>
      </trkpt>
      <trkpt lat="46.90504" lon="8.55893">
        <ele>886</ele>
        <time>2021-08-10T13:19:29.729Z</time>
      </trkpt>
      <trkpt lat="46.90504" lon="8.55891">
        <ele>886</ele>
        <time>2021-08-10T13:19:30.729Z</time>
      </trkpt>
      <trkpt lat="46.90504" lon="8.5589">
        <ele>886</ele>
        <time>2021-08-10T13:19:31.728Z</time>
      </trkpt>
      <trkpt lat="46.90504" lon="8.5589">
        <ele>886</ele>
        <time>2021-08-10T13:19:32.728Z</time>
      </trkpt>
      <trkpt lat="46.90502" lon="8.55893">
        <ele>886</ele>
        <time>2021-08-10T13:19:33.728Z</time>
      </trkpt>
      <trkpt lat="46.905" lon="8.55895">
        <ele>886</ele>
        <time>2021-08-10T13:19:34.729Z</time>
      </trkpt>
      <trkpt lat="46.90499" lon="8.55896">
        <ele>886</ele>
        <time>2021-08-10T13:19:35.728Z</time>
      </trkpt>
      <trkpt lat="46.90498" lon="8.55896">
        <ele>886</ele>
        <time>2021-08-10T13:19:36.728Z</time>
      </trkpt>
      <trkpt lat="46.90497" lon="8.55894">
        <ele>886</ele>
        <time>2021-08-10T13:19:37.728Z</time>
      </trkpt>
      <trkpt lat="46.90497" lon="8.55893">
        <ele>886</ele>
        <time>2021-08-10T13:19:38.728Z</time>
      </trkpt>
      <trkpt lat="46.90497" lon="8.55893">
        <ele>885</ele>
        <time>2021-08-10T13:19:39.728Z</time>
      </trkpt>
      <trkpt lat="46.90496" lon="8.55893">
        <ele>885</ele>
        <time>2021-08-10T13:19:40.728Z</time>
      </trkpt>
      <trkpt lat="46.90496" lon="8.55893">
        <ele>884</ele>
        <time>2021-08-10T13:19:41.728Z</time>
      </trkpt>
      <trkpt lat="46.90495" lon="8.55894">
        <ele>884</ele>
        <time>2021-08-10T13:19:42.728Z</time>
      </trkpt>
      <trkpt lat="46.90494" lon="8.55893">
        <ele>884</ele>
        <time>2021-08-10T13:19:43.728Z</time>
      </trkpt>
      <trkpt lat="46.90493" lon="8.55892">
        <ele>884</ele>
        <time>2021-08-10T13:19:44.728Z</time>
      </trkpt>
      <trkpt lat="46.90492" lon="8.55893">
        <ele>884</ele>
        <time>2021-08-10T13:19:45.728Z</time>
      </trkpt>
      <trkpt lat="46.90491" lon="8.55894">
        <ele>884</ele>
        <time>2021-08-10T13:19:46.728Z</time>
      </trkpt>
      <trkpt lat="46.9049" lon="8.55894">
        <ele>884</ele>
        <time>2021-08-10T13:19:47.728Z</time>
      </trkpt>
      <trkpt lat="46.9049" lon="8.55894">
        <ele>884</ele>
        <time>2021-08-10T13:19:48.728Z</time>
      </trkpt>
      <trkpt lat="46.90489" lon="8.55893">
        <ele>884</ele>
        <time>2021-08-10T13:19:49.728Z</time>
      </trkpt>
      <trkpt lat="46.90489" lon="8.55892">
        <ele>885</ele>
        <time>2021-08-10T13:19:50.729Z</time>
      </trkpt>
      <trkpt lat="46.90488" lon="8.55891">
        <ele>885</ele>
        <time>2021-08-10T13:19:54.866Z</time>
      </trkpt>
      <trkpt lat="46.90488" lon="8.55891">
        <ele>886</ele>
        <time>2021-08-10T13:19:55.866Z</time>
      </trkpt>
      <trkpt lat="46.90487" lon="8.5589">
        <ele>887</ele>
        <time>2021-08-10T13:19:56.866Z</time>
      </trkpt>
      <trkpt lat="46.90486" lon="8.55891">
        <ele>887</ele>
        <time>2021-08-10T13:19:57.867Z</time>
      </trkpt>
      <trkpt lat="46.90486" lon="8.55892">
        <ele>888</ele>
        <time>2021-08-10T13:19:58.866Z</time>
      </trkpt>
      <trkpt lat="46.90486" lon="8.55893">
        <ele>888</ele>
        <time>2021-08-10T13:19:59.867Z</time>
      </trkpt>
      <trkpt lat="46.90485" lon="8.55894">
        <ele>888</ele>
        <time>2021-08-10T13:20:00.866Z</time>
      </trkpt>
      <trkpt lat="46.90484" lon="8.55895">
        <ele>888</ele>
        <time>2021-08-10T13:20:01.866Z</time>
      </trkpt>
      <trkpt lat="46.90482" lon="8.55895">
        <ele>888</ele>
        <time>2021-08-10T13:20:02.867Z</time>
      </trkpt>
      <trkpt lat="46.90482" lon="8.55895">
        <ele>888</ele>
        <time>2021-08-10T13:20:03.866Z</time>
      </trkpt>
      <trkpt lat="46.90481" lon="8.55895">
        <ele>887</ele>
        <time>2021-08-10T13:20:04.867Z</time>
      </trkpt>
      <trkpt lat="46.9048" lon="8.55895">
        <ele>887</ele>
        <time>2021-08-10T13:20:05.866Z</time>
      </trkpt>
      <trkpt lat="46.9048" lon="8.55895">
        <ele>887</ele>
        <time>2021-08-10T13:20:06.867Z</time>
      </trkpt>
      <trkpt lat="46.90479" lon="8.55895">
        <ele>887</ele>
        <time>2021-08-10T13:20:07.867Z</time>
      </trkpt>
      <trkpt lat="46.90478" lon="8.55894">
        <ele>887</ele>
        <time>2021-08-10T13:20:08.866Z</time>
      </trkpt>
      <trkpt lat="46.90477" lon="8.55894">
        <ele>888</ele>
        <time>2021-08-10T13:20:09.867Z</time>
      </trkpt>
      <trkpt lat="46.90477" lon="8.55894">
        <ele>888</ele>
        <time>2021-08-10T13:20:10.866Z</time>
      </trkpt>
      <trkpt lat="46.90477" lon="8.55895">
        <ele>888</ele>
        <time>2021-08-10T13:20:11.866Z</time>
      </trkpt>
      <trkpt lat="46.90476" lon="8.55895">
        <ele>888</ele>
        <time>2021-08-10T13:20:12.867Z</time>
      </trkpt>
      <trkpt lat="46.90475" lon="8.55896">
        <ele>888</ele>
        <time>2021-08-10T13:20:13.867Z</time>
      </trkpt>
      <trkpt lat="46.90474" lon="8.55895">
        <ele>888</ele>
        <time>2021-08-10T13:20:14.866Z</time>
      </trkpt>
      <trkpt lat="46.90473" lon="8.55896">
        <ele>888</ele>
        <time>2021-08-10T13:20:15.867Z</time>
      </trkpt>
      <trkpt lat="46.90472" lon="8.55896">
        <ele>888</ele>
        <time>2021-08-10T13:20:16.867Z</time>
      </trkpt>
      <trkpt lat="46.90472" lon="8.55896">
        <ele>888</ele>
        <time>2021-08-10T13:20:17.867Z</time>
      </trkpt>
      <trkpt lat="46.90471" lon="8.55896">
        <ele>887</ele>
        <time>2021-08-10T13:20:18.867Z</time>
      </trkpt>
      <trkpt lat="46.90471" lon="8.55896">
        <ele>887</ele>
        <time>2021-08-10T13:20:19.866Z</time>
      </trkpt>
      <trkpt lat="46.9047" lon="8.55895">
        <ele>887</ele>
        <time>2021-08-10T13:20:20.867Z</time>
      </trkpt>
      <trkpt lat="46.90469" lon="8.55895">
        <ele>887</ele>
        <time>2021-08-10T13:20:21.867Z</time>
      </trkpt>
      <trkpt lat="46.90469" lon="8.55895">
        <ele>886</ele>
        <time>2021-08-10T13:20:22.867Z</time>
      </trkpt>
      <trkpt lat="46.90468" lon="8.55895">
        <ele>886</ele>
        <time>2021-08-10T13:20:23.867Z</time>
      </trkpt>
      <trkpt lat="46.90467" lon="8.55895">
        <ele>886</ele>
        <time>2021-08-10T13:20:24.867Z</time>
      </trkpt>
      <trkpt lat="46.90467" lon="8.55897">
        <ele>885</ele>
        <time>2021-08-10T13:20:25.867Z</time>
      </trkpt>
      <trkpt lat="46.90466" lon="8.55897">
        <ele>885</ele>
        <time>2021-08-10T13:20:26.867Z</time>
      </trkpt>
      <trkpt lat="46.90465" lon="8.55897">
        <ele>885</ele>
        <time>2021-08-10T13:20:27.866Z</time>
      </trkpt>
      <trkpt lat="46.90464" lon="8.55898">
        <ele>884</ele>
        <time>2021-08-10T13:20:28.866Z</time>
      </trkpt>
      <trkpt lat="46.90464" lon="8.55898">
        <ele>884</ele>
        <time>2021-08-10T13:20:29.867Z</time>
      </trkpt>
      <trkpt lat="46.90463" lon="8.55898">
        <ele>884</ele>
        <time>2021-08-10T13:20:30.867Z</time>
      </trkpt>
      <trkpt lat="46.90462" lon="8.55897">
        <ele>884</ele>
        <time>2021-08-10T13:20:31.867Z</time>
      </trkpt>
      <trkpt lat="46.90461" lon="8.55897">
        <ele>884</ele>
        <time>2021-08-10T13:20:32.867Z</time>
      </trkpt>
      <trkpt lat="46.90461" lon="8.55897">
        <ele>884</ele>
        <time>2021-08-10T13:20:33.867Z</time>
      </trkpt>
      <trkpt lat="46.9046" lon="8.55897">
        <ele>884</ele>
        <time>2021-08-10T13:20:34.867Z</time>
      </trkpt>
      <trkpt lat="46.90459" lon="8.55898">
        <ele>884</ele>
        <time>2021-08-10T13:20:35.867Z</time>
      </trkpt>
      <trkpt lat="46.90459" lon="8.55898">
        <ele>884</ele>
        <time>2021-08-10T13:20:36.866Z</time>
      </trkpt>
      <trkpt lat="46.90458" lon="8.55898">
        <ele>884</ele>
        <time>2021-08-10T13:20:37.866Z</time>
      </trkpt>
      <trkpt lat="46.90457" lon="8.55898">
        <ele>884</ele>
        <time>2021-08-10T13:20:38.867Z</time>
      </trkpt>
      <trkpt lat="46.90457" lon="8.55898">
        <ele>884</ele>
        <time>2021-08-10T13:20:39.866Z</time>
      </trkpt>
      <trkpt lat="46.90456" lon="8.55898">
        <ele>884</ele>
        <time>2021-08-10T13:20:40.866Z</time>
      </trkpt>
      <trkpt lat="46.90456" lon="8.55898">
        <ele>885</ele>
        <time>2021-08-10T13:20:41.866Z</time>
      </trkpt>
      <trkpt lat="46.90455" lon="8.55898">
        <ele>885</ele>
        <time>2021-08-10T13:20:42.867Z</time>
      </trkpt>
      <trkpt lat="46.90454" lon="8.55898">
        <ele>885</ele>
        <time>2021-08-10T13:20:43.867Z</time>
      </trkpt>
      <trkpt lat="46.90453" lon="8.55898">
        <ele>886</ele>
        <time>2021-08-10T13:20:44.867Z</time>
      </trkpt>
      <trkpt lat="46.90453" lon="8.55897">
        <ele>886</ele>
        <time>2021-08-10T13:20:45.867Z</time>
      </trkpt>
      <trkpt lat="46.90452" lon="8.55897">
        <ele>886</ele>
        <time>2021-08-10T13:20:46.867Z</time>
      </trkpt>
      <trkpt lat="46.90451" lon="8.55898">
        <ele>886</ele>
        <time>2021-08-10T13:20:47.866Z</time>
      </trkpt>
      <trkpt lat="46.90451" lon="8.55898">
        <ele>886</ele>
        <time>2021-08-10T13:20:49.942Z</time>
      </trkpt>
      <trkpt lat="46.9045" lon="8.55898">
        <ele>886</ele>
        <time>2021-08-10T13:20:50.942Z</time>
      </trkpt>
      <trkpt lat="46.9045" lon="8.55898">
        <ele>886</ele>
        <time>2021-08-10T13:20:51.941Z</time>
      </trkpt>
      <trkpt lat="46.9045" lon="8.55899">
        <ele>886</ele>
        <time>2021-08-10T13:20:52.942Z</time>
      </trkpt>
      <trkpt lat="46.9045" lon="8.55899">
        <ele>886</ele>
        <time>2021-08-10T13:20:53.941Z</time>
      </trkpt>
      <trkpt lat="46.90448" lon="8.55898">
        <ele>886</ele>
        <time>2021-08-10T13:20:54.942Z</time>
      </trkpt>
      <trkpt lat="46.90447" lon="8.55898">
        <ele>887</ele>
        <time>2021-08-10T13:20:55.942Z</time>
      </trkpt>
      <trkpt lat="46.90446" lon="8.55897">
        <ele>887</ele>
        <time>2021-08-10T13:20:56.941Z</time>
      </trkpt>
      <trkpt lat="46.90445" lon="8.55897">
        <ele>888</ele>
        <time>2021-08-10T13:20:57.942Z</time>
      </trkpt>
      <trkpt lat="46.90445" lon="8.55897">
        <ele>888</ele>
        <time>2021-08-10T13:20:58.941Z</time>
      </trkpt>
      <trkpt lat="46.90444" lon="8.55897">
        <ele>889</ele>
        <time>2021-08-10T13:20:59.941Z</time>
      </trkpt>
      <trkpt lat="46.90444" lon="8.55897">
        <ele>889</ele>
        <time>2021-08-10T13:21:07.001Z</time>
      </trkpt>
      <trkpt lat="46.90444" lon="8.55897">
        <ele>889</ele>
        <time>2021-08-10T13:21:08.000Z</time>
      </trkpt>
      <trkpt lat="46.90443" lon="8.55896">
        <ele>890</ele>
        <time>2021-08-10T13:21:09.002Z</time>
      </trkpt>
      <trkpt lat="46.90442" lon="8.55896">
        <ele>890</ele>
        <time>2021-08-10T13:21:10.002Z</time>
      </trkpt>
      <trkpt lat="46.90441" lon="8.55895">
        <ele>891</ele>
        <time>2021-08-10T13:21:11.002Z</time>
      </trkpt>
      <trkpt lat="46.9044" lon="8.55895">
        <ele>891</ele>
        <time>2021-08-10T13:21:12.002Z</time>
      </trkpt>
      <trkpt lat="46.90439" lon="8.55895">
        <ele>891</ele>
        <time>2021-08-10T13:21:13.002Z</time>
      </trkpt>
      <trkpt lat="46.90438" lon="8.55895">
        <ele>891</ele>
        <time>2021-08-10T13:21:14.002Z</time>
      </trkpt>
      <trkpt lat="46.90437" lon="8.55895">
        <ele>891</ele>
        <time>2021-08-10T13:21:15.002Z</time>
      </trkpt>
      <trkpt lat="46.90436" lon="8.55895">
        <ele>891</ele>
        <time>2021-08-10T13:21:16.001Z</time>
      </trkpt>
      <trkpt lat="46.90436" lon="8.55895">
        <ele>891</ele>
        <time>2021-08-10T13:21:17.002Z</time>
      </trkpt>
      <trkpt lat="46.90435" lon="8.55895">
        <ele>891</ele>
        <time>2021-08-10T13:21:18.001Z</time>
      </trkpt>
      <trkpt lat="46.90435" lon="8.55895">
        <ele>891</ele>
        <time>2021-08-10T13:21:19.002Z</time>
      </trkpt>
      <trkpt lat="46.90434" lon="8.55895">
        <ele>891</ele>
        <time>2021-08-10T13:21:23.089Z</time>
      </trkpt>
      <trkpt lat="46.90433" lon="8.55894">
        <ele>891</ele>
        <time>2021-08-10T13:21:24.090Z</time>
      </trkpt>
      <trkpt lat="46.90433" lon="8.55894">
        <ele>891</ele>
        <time>2021-08-10T13:21:25.089Z</time>
      </trkpt>
      <trkpt lat="46.90432" lon="8.55894">
        <ele>891</ele>
        <time>2021-08-10T13:21:26.089Z</time>
      </trkpt>
      <trkpt lat="46.90432" lon="8.55894">
        <ele>891</ele>
        <time>2021-08-10T13:21:27.090Z</time>
      </trkpt>
      <trkpt lat="46.90431" lon="8.55894">
        <ele>891</ele>
        <time>2021-08-10T13:21:28.089Z</time>
      </trkpt>
      <trkpt lat="46.9043" lon="8.55894">
        <ele>891</ele>
        <time>2021-08-10T13:21:29.090Z</time>
      </trkpt>
      <trkpt lat="46.9043" lon="8.55894">
        <ele>891</ele>
        <time>2021-08-10T13:21:30.090Z</time>
      </trkpt>
      <trkpt lat="46.90429" lon="8.55893">
        <ele>891</ele>
        <time>2021-08-10T13:21:31.090Z</time>
      </trkpt>
      <trkpt lat="46.90428" lon="8.55893">
        <ele>891</ele>
        <time>2021-08-10T13:21:32.089Z</time>
      </trkpt>
      <trkpt lat="46.90427" lon="8.55892">
        <ele>891</ele>
        <time>2021-08-10T13:21:33.090Z</time>
      </trkpt>
      <trkpt lat="46.90426" lon="8.55892">
        <ele>892</ele>
        <time>2021-08-10T13:21:34.090Z</time>
      </trkpt>
      <trkpt lat="46.90425" lon="8.55892">
        <ele>892</ele>
        <time>2021-08-10T13:21:35.090Z</time>
      </trkpt>
      <trkpt lat="46.90424" lon="8.55891">
        <ele>892</ele>
        <time>2021-08-10T13:21:36.090Z</time>
      </trkpt>
      <trkpt lat="46.90423" lon="8.55891">
        <ele>892</ele>
        <time>2021-08-10T13:21:37.090Z</time>
      </trkpt>
      <trkpt lat="46.90422" lon="8.55891">
        <ele>893</ele>
        <time>2021-08-10T13:21:38.090Z</time>
      </trkpt>
      <trkpt lat="46.90422" lon="8.55891">
        <ele>893</ele>
        <time>2021-08-10T13:21:39.089Z</time>
      </trkpt>
      <trkpt lat="46.90421" lon="8.55891">
        <ele>893</ele>
        <time>2021-08-10T13:21:40.089Z</time>
      </trkpt>
      <trkpt lat="46.9042" lon="8.55892">
        <ele>894</ele>
        <time>2021-08-10T13:21:41.090Z</time>
      </trkpt>
      <trkpt lat="46.9042" lon="8.55892">
        <ele>894</ele>
        <time>2021-08-10T13:21:42.089Z</time>
      </trkpt>
      <trkpt lat="46.90419" lon="8.55893">
        <ele>894</ele>
        <time>2021-08-10T13:21:43.090Z</time>
      </trkpt>
      <trkpt lat="46.90419" lon="8.55893">
        <ele>895</ele>
        <time>2021-08-10T13:21:44.090Z</time>
      </trkpt>
      <trkpt lat="46.90418" lon="8.55894">
        <ele>895</ele>
        <time>2021-08-10T13:21:45.090Z</time>
      </trkpt>
      <trkpt lat="46.90418" lon="8.55894">
        <ele>894</ele>
        <time>2021-08-10T13:21:46.090Z</time>
      </trkpt>
      <trkpt lat="46.90418" lon="8.55894">
        <ele>894</ele>
        <time>2021-08-10T13:21:47.090Z</time>
      </trkpt>
      <trkpt lat="46.90417" lon="8.55894">
        <ele>894</ele>
        <time>2021-08-10T13:21:48.090Z</time>
      </trkpt>
      <trkpt lat="46.90416" lon="8.55894">
        <ele>894</ele>
        <time>2021-08-10T13:21:49.089Z</time>
      </trkpt>
      <trkpt lat="46.90415" lon="8.55894">
        <ele>895</ele>
        <time>2021-08-10T13:21:50.090Z</time>
      </trkpt>
      <trkpt lat="46.90415" lon="8.55894">
        <ele>895</ele>
        <time>2021-08-10T13:21:51.089Z</time>
      </trkpt>
      <trkpt lat="46.90413" lon="8.55894">
        <ele>895</ele>
        <time>2021-08-10T13:21:52.089Z</time>
      </trkpt>
      <trkpt lat="46.90412" lon="8.55895">
        <ele>895</ele>
        <time>2021-08-10T13:21:53.090Z</time>
      </trkpt>
      <trkpt lat="46.9041" lon="8.55895">
        <ele>896</ele>
        <time>2021-08-10T13:21:54.090Z</time>
      </trkpt>
      <trkpt lat="46.9041" lon="8.55894">
        <ele>896</ele>
        <time>2021-08-10T13:21:55.090Z</time>
      </trkpt>
      <trkpt lat="46.90409" lon="8.55894">
        <ele>896</ele>
        <time>2021-08-10T13:21:56.090Z</time>
      </trkpt>
      <trkpt lat="46.90409" lon="8.55894">
        <ele>896</ele>
        <time>2021-08-10T13:21:57.090Z</time>
      </trkpt>
      <trkpt lat="46.90408" lon="8.55894">
        <ele>897</ele>
        <time>2021-08-10T13:21:58.089Z</time>
      </trkpt>
      <trkpt lat="46.90407" lon="8.55894">
        <ele>897</ele>
        <time>2021-08-10T13:21:59.089Z</time>
      </trkpt>
      <trkpt lat="46.90406" lon="8.55894">
        <ele>897</ele>
        <time>2021-08-10T13:22:00.089Z</time>
      </trkpt>
      <trkpt lat="46.90406" lon="8.55894">
        <ele>897</ele>
        <time>2021-08-10T13:22:01.089Z</time>
      </trkpt>
      <trkpt lat="46.90406" lon="8.55894">
        <ele>898</ele>
        <time>2021-08-10T13:22:02.089Z</time>
      </trkpt>
      <trkpt lat="46.90406" lon="8.55895">
        <ele>898</ele>
        <time>2021-08-10T13:22:03.089Z</time>
      </trkpt>
      <trkpt lat="46.90406" lon="8.55895">
        <ele>898</ele>
        <time>2021-08-10T13:22:04.089Z</time>
      </trkpt>
      <trkpt lat="46.90405" lon="8.55895">
        <ele>898</ele>
        <time>2021-08-10T13:22:05.089Z</time>
      </trkpt>
      <trkpt lat="46.90405" lon="8.55895">
        <ele>897</ele>
        <time>2021-08-10T13:22:08.227Z</time>
      </trkpt>
      <trkpt lat="46.90404" lon="8.55894">
        <ele>897</ele>
        <time>2021-08-10T13:22:09.228Z</time>
      </trkpt>
      <trkpt lat="46.90403" lon="8.55895">
        <ele>897</ele>
        <time>2021-08-10T13:22:10.228Z</time>
      </trkpt>
      <trkpt lat="46.90403" lon="8.55895">
        <ele>898</ele>
        <time>2021-08-10T13:22:11.228Z</time>
      </trkpt>
      <trkpt lat="46.90402" lon="8.55895">
        <ele>898</ele>
        <time>2021-08-10T13:22:12.228Z</time>
      </trkpt>
      <trkpt lat="46.90402" lon="8.55895">
        <ele>898</ele>
        <time>2021-08-10T13:22:13.228Z</time>
      </trkpt>
      <trkpt lat="46.90401" lon="8.55895">
        <ele>898</ele>
        <time>2021-08-10T13:22:14.228Z</time>
      </trkpt>
      <trkpt lat="46.904" lon="8.55895">
        <ele>898</ele>
        <time>2021-08-10T13:22:15.228Z</time>
      </trkpt>
      <trkpt lat="46.90399" lon="8.55895">
        <ele>897</ele>
        <time>2021-08-10T13:22:16.228Z</time>
      </trkpt>
      <trkpt lat="46.90398" lon="8.55895">
        <ele>897</ele>
        <time>2021-08-10T13:22:17.228Z</time>
      </trkpt>
      <trkpt lat="46.90398" lon="8.55895">
        <ele>897</ele>
        <time>2021-08-10T13:22:18.227Z</time>
      </trkpt>
      <trkpt lat="46.90397" lon="8.55894">
        <ele>897</ele>
        <time>2021-08-10T13:22:19.228Z</time>
      </trkpt>
      <trkpt lat="46.90397" lon="8.55894">
        <ele>897</ele>
        <time>2021-08-10T13:22:20.228Z</time>
      </trkpt>
      <trkpt lat="46.90396" lon="8.55894">
        <ele>897</ele>
        <time>2021-08-10T13:22:21.228Z</time>
      </trkpt>
      <trkpt lat="46.90395" lon="8.55894">
        <ele>897</ele>
        <time>2021-08-10T13:22:22.228Z</time>
      </trkpt>
      <trkpt lat="46.90395" lon="8.55894">
        <ele>896</ele>
        <time>2021-08-10T13:22:23.228Z</time>
      </trkpt>
      <trkpt lat="46.90394" lon="8.55895">
        <ele>896</ele>
        <time>2021-08-10T13:22:24.228Z</time>
      </trkpt>
      <trkpt lat="46.90393" lon="8.55895">
        <ele>896</ele>
        <time>2021-08-10T13:22:25.228Z</time>
      </trkpt>
      <trkpt lat="46.90393" lon="8.55895">
        <ele>896</ele>
        <time>2021-08-10T13:22:26.228Z</time>
      </trkpt>
      <trkpt lat="46.90392" lon="8.55894">
        <ele>896</ele>
        <time>2021-08-10T13:22:27.228Z</time>
      </trkpt>
      <trkpt lat="46.90391" lon="8.55894">
        <ele>895</ele>
        <time>2021-08-10T13:22:28.228Z</time>
      </trkpt>
      <trkpt lat="46.90391" lon="8.55894">
        <ele>895</ele>
        <time>2021-08-10T13:22:29.227Z</time>
      </trkpt>
      <trkpt lat="46.9039" lon="8.55894">
        <ele>896</ele>
        <time>2021-08-10T13:22:30.228Z</time>
      </trkpt>
      <trkpt lat="46.9039" lon="8.55894">
        <ele>896</ele>
        <time>2021-08-10T13:22:31.227Z</time>
      </trkpt>
      <trkpt lat="46.90389" lon="8.55894">
        <ele>896</ele>
        <time>2021-08-10T13:22:32.228Z</time>
      </trkpt>
      <trkpt lat="46.90389" lon="8.55893">
        <ele>896</ele>
        <time>2021-08-10T13:22:33.228Z</time>
      </trkpt>
      <trkpt lat="46.90389" lon="8.55893">
        <ele>897</ele>
        <time>2021-08-10T13:22:34.227Z</time>
      </trkpt>
      <trkpt lat="46.90389" lon="8.55893">
        <ele>898</ele>
        <time>2021-08-10T13:22:35.227Z</time>
      </trkpt>
      <trkpt lat="46.90388" lon="8.55893">
        <ele>899</ele>
        <time>2021-08-10T13:22:36.228Z</time>
      </trkpt>
      <trkpt lat="46.90387" lon="8.55893">
        <ele>899</ele>
        <time>2021-08-10T13:22:37.228Z</time>
      </trkpt>
      <trkpt lat="46.90387" lon="8.55893">
        <ele>900</ele>
        <time>2021-08-10T13:22:38.227Z</time>
      </trkpt>
      <trkpt lat="46.90386" lon="8.55893">
        <ele>900</ele>
        <time>2021-08-10T13:22:39.228Z</time>
      </trkpt>
      <trkpt lat="46.90385" lon="8.55893">
        <ele>900</ele>
        <time>2021-08-10T13:22:40.228Z</time>
      </trkpt>
      <trkpt lat="46.90385" lon="8.55893">
        <ele>901</ele>
        <time>2021-08-10T13:22:41.227Z</time>
      </trkpt>
      <trkpt lat="46.90385" lon="8.55893">
        <ele>901</ele>
        <time>2021-08-10T13:22:42.228Z</time>
      </trkpt>
      <trkpt lat="46.90384" lon="8.55893">
        <ele>902</ele>
        <time>2021-08-10T13:22:43.228Z</time>
      </trkpt>
      <trkpt lat="46.90383" lon="8.55893">
        <ele>902</ele>
        <time>2021-08-10T13:22:44.228Z</time>
      </trkpt>
      <trkpt lat="46.90381" lon="8.55893">
        <ele>903</ele>
        <time>2021-08-10T13:22:45.228Z</time>
      </trkpt>
      <trkpt lat="46.9038" lon="8.55893">
        <ele>903</ele>
        <time>2021-08-10T13:22:46.228Z</time>
      </trkpt>
      <trkpt lat="46.9038" lon="8.55893">
        <ele>903</ele>
        <time>2021-08-10T13:22:47.228Z</time>
      </trkpt>
      <trkpt lat="46.9038" lon="8.55892">
        <ele>904</ele>
        <time>2021-08-10T13:22:48.228Z</time>
      </trkpt>
      <trkpt lat="46.90379" lon="8.55892">
        <ele>904</ele>
        <time>2021-08-10T13:22:49.228Z</time>
      </trkpt>
      <trkpt lat="46.90379" lon="8.55892">
        <ele>904</ele>
        <time>2021-08-10T13:22:50.227Z</time>
      </trkpt>
      <trkpt lat="46.90378" lon="8.55892">
        <ele>905</ele>
        <time>2021-08-10T13:22:51.228Z</time>
      </trkpt>
      <trkpt lat="46.90377" lon="8.55892">
        <ele>905</ele>
        <time>2021-08-10T13:22:52.228Z</time>
      </trkpt>
      <trkpt lat="46.90376" lon="8.55891">
        <ele>905</ele>
        <time>2021-08-10T13:22:53.228Z</time>
      </trkpt>
      <trkpt lat="46.90376" lon="8.5589">
        <ele>905</ele>
        <time>2021-08-10T13:22:54.227Z</time>
      </trkpt>
      <trkpt lat="46.90375" lon="8.5589">
        <ele>905</ele>
        <time>2021-08-10T13:22:55.228Z</time>
      </trkpt>
      <trkpt lat="46.90375" lon="8.5589">
        <ele>905</ele>
        <time>2021-08-10T13:22:56.228Z</time>
      </trkpt>
      <trkpt lat="46.90374" lon="8.5589">
        <ele>905</ele>
        <time>2021-08-10T13:22:57.228Z</time>
      </trkpt>
      <trkpt lat="46.90374" lon="8.55889">
        <ele>905</ele>
        <time>2021-08-10T13:22:58.227Z</time>
      </trkpt>
      <trkpt lat="46.90373" lon="8.55889">
        <ele>905</ele>
        <time>2021-08-10T13:23:01.330Z</time>
      </trkpt>
      <trkpt lat="46.90373" lon="8.55889">
        <ele>905</ele>
        <time>2021-08-10T13:23:02.329Z</time>
      </trkpt>
      <trkpt lat="46.90372" lon="8.55889">
        <ele>905</ele>
        <time>2021-08-10T13:23:03.330Z</time>
      </trkpt>
      <trkpt lat="46.90372" lon="8.55888">
        <ele>906</ele>
        <time>2021-08-10T13:23:04.330Z</time>
      </trkpt>
      <trkpt lat="46.90371" lon="8.55887">
        <ele>906</ele>
        <time>2021-08-10T13:23:05.329Z</time>
      </trkpt>
      <trkpt lat="46.90369" lon="8.55886">
        <ele>906</ele>
        <time>2021-08-10T13:23:06.330Z</time>
      </trkpt>
      <trkpt lat="46.90368" lon="8.55885">
        <ele>907</ele>
        <time>2021-08-10T13:23:07.329Z</time>
      </trkpt>
      <trkpt lat="46.90367" lon="8.55884">
        <ele>907</ele>
        <time>2021-08-10T13:23:08.330Z</time>
      </trkpt>
      <trkpt lat="46.90367" lon="8.55883">
        <ele>907</ele>
        <time>2021-08-10T13:23:09.329Z</time>
      </trkpt>
      <trkpt lat="46.90367" lon="8.55882">
        <ele>908</ele>
        <time>2021-08-10T13:23:10.330Z</time>
      </trkpt>
      <trkpt lat="46.90366" lon="8.55882">
        <ele>908</ele>
        <time>2021-08-10T13:23:11.329Z</time>
      </trkpt>
      <trkpt lat="46.90365" lon="8.55882">
        <ele>908</ele>
        <time>2021-08-10T13:23:12.330Z</time>
      </trkpt>
      <trkpt lat="46.90364" lon="8.55882">
        <ele>908</ele>
        <time>2021-08-10T13:23:13.330Z</time>
      </trkpt>
      <trkpt lat="46.90364" lon="8.55881">
        <ele>908</ele>
        <time>2021-08-10T13:23:14.329Z</time>
      </trkpt>
      <trkpt lat="46.90363" lon="8.55881">
        <ele>908</ele>
        <time>2021-08-10T13:23:18.345Z</time>
      </trkpt>
      <trkpt lat="46.90362" lon="8.5588">
        <ele>908</ele>
        <time>2021-08-10T13:23:19.345Z</time>
      </trkpt>
      <trkpt lat="46.90362" lon="8.5588">
        <ele>908</ele>
        <time>2021-08-10T13:23:20.345Z</time>
      </trkpt>
      <trkpt lat="46.90361" lon="8.55879">
        <ele>908</ele>
        <time>2021-08-10T13:23:21.344Z</time>
      </trkpt>
      <trkpt lat="46.90361" lon="8.55879">
        <ele>908</ele>
        <time>2021-08-10T13:23:22.344Z</time>
      </trkpt>
      <trkpt lat="46.90361" lon="8.55879">
        <ele>908</ele>
        <time>2021-08-10T13:23:23.345Z</time>
      </trkpt>
      <trkpt lat="46.90361" lon="8.55879">
        <ele>909</ele>
        <time>2021-08-10T13:23:27.367Z</time>
      </trkpt>
      <trkpt lat="46.9036" lon="8.55878">
        <ele>909</ele>
        <time>2021-08-10T13:23:28.368Z</time>
      </trkpt>
      <trkpt lat="46.90359" lon="8.55878">
        <ele>910</ele>
        <time>2021-08-10T13:23:29.367Z</time>
      </trkpt>
      <trkpt lat="46.90358" lon="8.55878">
        <ele>910</ele>
        <time>2021-08-10T13:23:30.368Z</time>
      </trkpt>
      <trkpt lat="46.90357" lon="8.55878">
        <ele>910</ele>
        <time>2021-08-10T13:23:31.368Z</time>
      </trkpt>
      <trkpt lat="46.90357" lon="8.55878">
        <ele>910</ele>
        <time>2021-08-10T13:23:32.367Z</time>
      </trkpt>
      <trkpt lat="46.90357" lon="8.55878">
        <ele>910</ele>
        <time>2021-08-10T13:23:33.368Z</time>
      </trkpt>
      <trkpt lat="46.90356" lon="8.55878">
        <ele>911</ele>
        <time>2021-08-10T13:23:34.368Z</time>
      </trkpt>
      <trkpt lat="46.90356" lon="8.55878">
        <ele>911</ele>
        <time>2021-08-10T13:23:35.367Z</time>
      </trkpt>
      <trkpt lat="46.90355" lon="8.55878">
        <ele>912</ele>
        <time>2021-08-10T13:23:36.367Z</time>
      </trkpt>
      <trkpt lat="46.90355" lon="8.55878">
        <ele>912</ele>
        <time>2021-08-10T13:23:37.368Z</time>
      </trkpt>
      <trkpt lat="46.90354" lon="8.55878">
        <ele>913</ele>
        <time>2021-08-10T13:23:38.368Z</time>
      </trkpt>
      <trkpt lat="46.90353" lon="8.55878">
        <ele>913</ele>
        <time>2021-08-10T13:23:39.368Z</time>
      </trkpt>
      <trkpt lat="46.90353" lon="8.55877">
        <ele>913</ele>
        <time>2021-08-10T13:23:40.368Z</time>
      </trkpt>
      <trkpt lat="46.90352" lon="8.55877">
        <ele>913</ele>
        <time>2021-08-10T13:23:41.367Z</time>
      </trkpt>
      <trkpt lat="46.90351" lon="8.55876">
        <ele>913</ele>
        <time>2021-08-10T13:23:42.368Z</time>
      </trkpt>
      <trkpt lat="46.9035" lon="8.55876">
        <ele>913</ele>
        <time>2021-08-10T13:23:43.367Z</time>
      </trkpt>
      <trkpt lat="46.9035" lon="8.55877">
        <ele>913</ele>
        <time>2021-08-10T13:23:44.368Z</time>
      </trkpt>
      <trkpt lat="46.90349" lon="8.55876">
        <ele>913</ele>
        <time>2021-08-10T13:23:45.368Z</time>
      </trkpt>
      <trkpt lat="46.90349" lon="8.55875">
        <ele>913</ele>
        <time>2021-08-10T13:23:46.367Z</time>
      </trkpt>
      <trkpt lat="46.90349" lon="8.55875">
        <ele>913</ele>
        <time>2021-08-10T13:23:47.367Z</time>
      </trkpt>
      <trkpt lat="46.90348" lon="8.55874">
        <ele>913</ele>
        <time>2021-08-10T13:23:50.459Z</time>
      </trkpt>
      <trkpt lat="46.90349" lon="8.55874">
        <ele>913</ele>
        <time>2021-08-10T13:23:51.459Z</time>
      </trkpt>
      <trkpt lat="46.90347" lon="8.55873">
        <ele>915</ele>
        <time>2021-08-10T13:23:52.460Z</time>
      </trkpt>
      <trkpt lat="46.90347" lon="8.55872">
        <ele>915</ele>
        <time>2021-08-10T13:23:53.459Z</time>
      </trkpt>
      <trkpt lat="46.90346" lon="8.55872">
        <ele>915</ele>
        <time>2021-08-10T13:23:54.460Z</time>
      </trkpt>
      <trkpt lat="46.90345" lon="8.55871">
        <ele>916</ele>
        <time>2021-08-10T13:23:55.460Z</time>
      </trkpt>
      <trkpt lat="46.90343" lon="8.55871">
        <ele>916</ele>
        <time>2021-08-10T13:23:56.460Z</time>
      </trkpt>
      <trkpt lat="46.90342" lon="8.55871">
        <ele>916</ele>
        <time>2021-08-10T13:23:57.460Z</time>
      </trkpt>
      <trkpt lat="46.9034" lon="8.55871">
        <ele>916</ele>
        <time>2021-08-10T13:23:58.460Z</time>
      </trkpt>
      <trkpt lat="46.90339" lon="8.55872">
        <ele>916</ele>
        <time>2021-08-10T13:23:59.459Z</time>
      </trkpt>
      <trkpt lat="46.90338" lon="8.55873">
        <ele>916</ele>
        <time>2021-08-10T13:24:00.460Z</time>
      </trkpt>
      <trkpt lat="46.90337" lon="8.55873">
        <ele>916</ele>
        <time>2021-08-10T13:24:01.459Z</time>
      </trkpt>
      <trkpt lat="46.90336" lon="8.55874">
        <ele>916</ele>
        <time>2021-08-10T13:24:02.460Z</time>
      </trkpt>
      <trkpt lat="46.90337" lon="8.55874">
        <ele>916</ele>
        <time>2021-08-10T13:24:03.460Z</time>
      </trkpt>
      <trkpt lat="46.90337" lon="8.55874">
        <ele>915</ele>
        <time>2021-08-10T13:24:04.460Z</time>
      </trkpt>
      <trkpt lat="46.90336" lon="8.55874">
        <ele>915</ele>
        <time>2021-08-10T13:24:05.460Z</time>
      </trkpt>
      <trkpt lat="46.90335" lon="8.55873">
        <ele>915</ele>
        <time>2021-08-10T13:24:06.459Z</time>
      </trkpt>
      <trkpt lat="46.90334" lon="8.55873">
        <ele>915</ele>
        <time>2021-08-10T13:24:07.460Z</time>
      </trkpt>
      <trkpt lat="46.90333" lon="8.55873">
        <ele>915</ele>
        <time>2021-08-10T13:24:08.460Z</time>
      </trkpt>
      <trkpt lat="46.90333" lon="8.55874">
        <ele>915</ele>
        <time>2021-08-10T13:24:09.460Z</time>
      </trkpt>
      <trkpt lat="46.90332" lon="8.55874">
        <ele>915</ele>
        <time>2021-08-10T13:24:10.460Z</time>
      </trkpt>
      <trkpt lat="46.90331" lon="8.55874">
        <ele>915</ele>
        <time>2021-08-10T13:24:11.460Z</time>
      </trkpt>
      <trkpt lat="46.90331" lon="8.55874">
        <ele>915</ele>
        <time>2021-08-10T13:24:12.459Z</time>
      </trkpt>
      <trkpt lat="46.9033" lon="8.55874">
        <ele>914</ele>
        <time>2021-08-10T13:24:13.460Z</time>
      </trkpt>
      <trkpt lat="46.9033" lon="8.55874">
        <ele>914</ele>
        <time>2021-08-10T13:24:14.460Z</time>
      </trkpt>
      <trkpt lat="46.90329" lon="8.55874">
        <ele>914</ele>
        <time>2021-08-10T13:24:15.459Z</time>
      </trkpt>
      <trkpt lat="46.90328" lon="8.55874">
        <ele>914</ele>
        <time>2021-08-10T13:24:16.460Z</time>
      </trkpt>
      <trkpt lat="46.90327" lon="8.55874">
        <ele>914</ele>
        <time>2021-08-10T13:24:20.492Z</time>
      </trkpt>
      <trkpt lat="46.90326" lon="8.55873">
        <ele>914</ele>
        <time>2021-08-10T13:24:21.492Z</time>
      </trkpt>
      <trkpt lat="46.90325" lon="8.55872">
        <ele>914</ele>
        <time>2021-08-10T13:24:22.491Z</time>
      </trkpt>
      <trkpt lat="46.90325" lon="8.55872">
        <ele>913</ele>
        <time>2021-08-10T13:24:23.492Z</time>
      </trkpt>
      <trkpt lat="46.90324" lon="8.55871">
        <ele>913</ele>
        <time>2021-08-10T13:24:24.491Z</time>
      </trkpt>
      <trkpt lat="46.90324" lon="8.55871">
        <ele>913</ele>
        <time>2021-08-10T13:24:25.491Z</time>
      </trkpt>
      <trkpt lat="46.90324" lon="8.5587">
        <ele>913</ele>
        <time>2021-08-10T13:24:26.492Z</time>
      </trkpt>
      <trkpt lat="46.90324" lon="8.55869">
        <ele>913</ele>
        <time>2021-08-10T13:24:27.491Z</time>
      </trkpt>
      <trkpt lat="46.90323" lon="8.55868">
        <ele>913</ele>
        <time>2021-08-10T13:24:28.492Z</time>
      </trkpt>
      <trkpt lat="46.90323" lon="8.55867">
        <ele>913</ele>
        <time>2021-08-10T13:24:29.492Z</time>
      </trkpt>
      <trkpt lat="46.90322" lon="8.55866">
        <ele>913</ele>
        <time>2021-08-10T13:24:30.491Z</time>
      </trkpt>
      <trkpt lat="46.90322" lon="8.55866">
        <ele>913</ele>
        <time>2021-08-10T13:24:31.492Z</time>
      </trkpt>
      <trkpt lat="46.90321" lon="8.55865">
        <ele>913</ele>
        <time>2021-08-10T13:24:32.492Z</time>
      </trkpt>
      <trkpt lat="46.90321" lon="8.55864">
        <ele>913</ele>
        <time>2021-08-10T13:24:33.491Z</time>
      </trkpt>
      <trkpt lat="46.90322" lon="8.55863">
        <ele>913</ele>
        <time>2021-08-10T13:24:34.492Z</time>
      </trkpt>
      <trkpt lat="46.90322" lon="8.55862">
        <ele>913</ele>
        <time>2021-08-10T13:24:35.492Z</time>
      </trkpt>
      <trkpt lat="46.90322" lon="8.55861">
        <ele>913</ele>
        <time>2021-08-10T13:24:36.491Z</time>
      </trkpt>
      <trkpt lat="46.90322" lon="8.5586">
        <ele>913</ele>
        <time>2021-08-10T13:24:41.605Z</time>
      </trkpt>
      <trkpt lat="46.90322" lon="8.55859">
        <ele>913</ele>
        <time>2021-08-10T13:24:43.475Z</time>
      </trkpt>
      <trkpt lat="46.90322" lon="8.55858">
        <ele>912</ele>
        <time>2021-08-10T13:24:44.474Z</time>
      </trkpt>
      <trkpt lat="46.90322" lon="8.55858">
        <ele>912</ele>
        <time>2021-08-10T13:24:45.474Z</time>
      </trkpt>
      <trkpt lat="46.90323" lon="8.55858">
        <ele>912</ele>
        <time>2021-08-10T13:24:46.474Z</time>
      </trkpt>
      <trkpt lat="46.90324" lon="8.55858">
        <ele>912</ele>
        <time>2021-08-10T13:24:47.474Z</time>
      </trkpt>
      <trkpt lat="46.90324" lon="8.55858">
        <ele>912</ele>
        <time>2021-08-10T13:24:48.475Z</time>
      </trkpt>
      <trkpt lat="46.90325" lon="8.55861">
        <ele>912</ele>
        <time>2021-08-10T13:24:49.474Z</time>
      </trkpt>
      <trkpt lat="46.90325" lon="8.55862">
        <ele>912</ele>
        <time>2021-08-10T13:24:53.609Z</time>
      </trkpt>
      <trkpt lat="46.90324" lon="8.55863">
        <ele>912</ele>
        <time>2021-08-10T13:24:54.610Z</time>
      </trkpt>
      <trkpt lat="46.90324" lon="8.55862">
        <ele>910</ele>
        <time>2021-08-10T13:24:55.610Z</time>
      </trkpt>
      <trkpt lat="46.90323" lon="8.55863">
        <ele>910</ele>
        <time>2021-08-10T13:24:56.611Z</time>
      </trkpt>
      <trkpt lat="46.90323" lon="8.55864">
        <ele>909</ele>
        <time>2021-08-10T13:24:57.611Z</time>
      </trkpt>
      <trkpt lat="46.90323" lon="8.55865">
        <ele>909</ele>
        <time>2021-08-10T13:24:58.611Z</time>
      </trkpt>
      <trkpt lat="46.90322" lon="8.55866">
        <ele>909</ele>
        <time>2021-08-10T13:24:59.611Z</time>
      </trkpt>
      <trkpt lat="46.90322" lon="8.55867">
        <ele>909</ele>
        <time>2021-08-10T13:25:00.610Z</time>
      </trkpt>
      <trkpt lat="46.90322" lon="8.55868">
        <ele>909</ele>
        <time>2021-08-10T13:25:01.611Z</time>
      </trkpt>
      <trkpt lat="46.90322" lon="8.55869">
        <ele>909</ele>
        <time>2021-08-10T13:25:02.611Z</time>
      </trkpt>
      <trkpt lat="46.90323" lon="8.5587">
        <ele>908</ele>
        <time>2021-08-10T13:25:03.610Z</time>
      </trkpt>
      <trkpt lat="46.90324" lon="8.55871">
        <ele>908</ele>
        <time>2021-08-10T13:25:04.611Z</time>
      </trkpt>
      <trkpt lat="46.90324" lon="8.55872">
        <ele>909</ele>
        <time>2021-08-10T13:25:06.724Z</time>
      </trkpt>
      <trkpt lat="46.90324" lon="8.55872">
        <ele>909</ele>
        <time>2021-08-10T13:25:07.724Z</time>
      </trkpt>
      <trkpt lat="46.90323" lon="8.55871">
        <ele>910</ele>
        <time>2021-08-10T13:25:08.723Z</time>
      </trkpt>
      <trkpt lat="46.90323" lon="8.55871">
        <ele>910</ele>
        <time>2021-08-10T13:25:09.723Z</time>
      </trkpt>
      <trkpt lat="46.90322" lon="8.5587">
        <ele>910</ele>
        <time>2021-08-10T13:25:10.723Z</time>
      </trkpt>
      <trkpt lat="46.90321" lon="8.5587">
        <ele>911</ele>
        <time>2021-08-10T13:25:11.723Z</time>
      </trkpt>
      <trkpt lat="46.9032" lon="8.5587">
        <ele>911</ele>
        <time>2021-08-10T13:25:12.723Z</time>
      </trkpt>
      <trkpt lat="46.90319" lon="8.55867">
        <ele>910</ele>
        <time>2021-08-10T13:25:13.724Z</time>
      </trkpt>
      <trkpt lat="46.90318" lon="8.55866">
        <ele>909</ele>
        <time>2021-08-10T13:25:14.725Z</time>
      </trkpt>
      <trkpt lat="46.90318" lon="8.55866">
        <ele>909</ele>
        <time>2021-08-10T13:25:15.725Z</time>
      </trkpt>
      <trkpt lat="46.90319" lon="8.55865">
        <ele>915</ele>
        <time>2021-08-10T13:25:16.724Z</time>
      </trkpt>
      <trkpt lat="46.9032" lon="8.55864">
        <ele>916</ele>
        <time>2021-08-10T13:25:17.725Z</time>
      </trkpt>
      <trkpt lat="46.9032" lon="8.55865">
        <ele>917</ele>
        <time>2021-08-10T13:25:18.724Z</time>
      </trkpt>
      <trkpt lat="46.9032" lon="8.55865">
        <ele>917</ele>
        <time>2021-08-10T13:25:19.725Z</time>
      </trkpt>
      <trkpt lat="46.9032" lon="8.55865">
        <ele>917</ele>
        <time>2021-08-10T13:25:20.725Z</time>
      </trkpt>
      <trkpt lat="46.90319" lon="8.55865">
        <ele>918</ele>
        <time>2021-08-10T13:25:21.725Z</time>
      </trkpt>
      <trkpt lat="46.90318" lon="8.55865">
        <ele>918</ele>
        <time>2021-08-10T13:25:22.724Z</time>
      </trkpt>
      <trkpt lat="46.90318" lon="8.55865">
        <ele>918</ele>
        <time>2021-08-10T13:25:23.724Z</time>
      </trkpt>
      <trkpt lat="46.90319" lon="8.55864">
        <ele>919</ele>
        <time>2021-08-10T13:25:24.725Z</time>
      </trkpt>
      <trkpt lat="46.9032" lon="8.55864">
        <ele>919</ele>
        <time>2021-08-10T13:25:25.725Z</time>
      </trkpt>
      <trkpt lat="46.9032" lon="8.55865">
        <ele>920</ele>
        <time>2021-08-10T13:25:26.725Z</time>
      </trkpt>
      <trkpt lat="46.90319" lon="8.55865">
        <ele>920</ele>
        <time>2021-08-10T13:25:27.725Z</time>
      </trkpt>
      <trkpt lat="46.90316" lon="8.55864">
        <ele>920</ele>
        <time>2021-08-10T13:25:28.726Z</time>
      </trkpt>
      <trkpt lat="46.90316" lon="8.55863">
        <ele>920</ele>
        <time>2021-08-10T13:25:29.727Z</time>
      </trkpt>
      <trkpt lat="46.90317" lon="8.55863">
        <ele>920</ele>
        <time>2021-08-10T13:25:30.726Z</time>
      </trkpt>
      <trkpt lat="46.90317" lon="8.55862">
        <ele>920</ele>
        <time>2021-08-10T13:25:31.726Z</time>
      </trkpt>
      <trkpt lat="46.90317" lon="8.55862">
        <ele>920</ele>
        <time>2021-08-10T13:25:32.727Z</time>
      </trkpt>
      <trkpt lat="46.90317" lon="8.55861">
        <ele>920</ele>
        <time>2021-08-10T13:25:33.726Z</time>
      </trkpt>
      <trkpt lat="46.90317" lon="8.55861">
        <ele>920</ele>
        <time>2021-08-10T13:25:34.727Z</time>
      </trkpt>
      <trkpt lat="46.90317" lon="8.5586">
        <ele>920</ele>
        <time>2021-08-10T13:25:39.767Z</time>
      </trkpt>
      <trkpt lat="46.90316" lon="8.55861">
        <ele>921</ele>
        <time>2021-08-10T13:25:40.766Z</time>
      </trkpt>
      <trkpt lat="46.90315" lon="8.55861">
        <ele>921</ele>
        <time>2021-08-10T13:25:41.766Z</time>
      </trkpt>
      <trkpt lat="46.90314" lon="8.55863">
        <ele>921</ele>
        <time>2021-08-10T13:25:42.766Z</time>
      </trkpt>
      <trkpt lat="46.90313" lon="8.55864">
        <ele>921</ele>
        <time>2021-08-10T13:25:45.857Z</time>
      </trkpt>
      <trkpt lat="46.90313" lon="8.55861">
        <ele>922</ele>
        <time>2021-08-10T13:25:46.857Z</time>
      </trkpt>
      <trkpt lat="46.90313" lon="8.55858">
        <ele>922</ele>
        <time>2021-08-10T13:25:47.858Z</time>
      </trkpt>
      <trkpt lat="46.90313" lon="8.55859">
        <ele>922</ele>
        <time>2021-08-10T13:25:48.858Z</time>
      </trkpt>
      <trkpt lat="46.90313" lon="8.5586">
        <ele>922</ele>
        <time>2021-08-10T13:25:49.858Z</time>
      </trkpt>
      <trkpt lat="46.90311" lon="8.55861">
        <ele>923</ele>
        <time>2021-08-10T13:25:50.858Z</time>
      </trkpt>
      <trkpt lat="46.90309" lon="8.55864">
        <ele>923</ele>
        <time>2021-08-10T13:25:51.858Z</time>
      </trkpt>
      <trkpt lat="46.90308" lon="8.55866">
        <ele>924</ele>
        <time>2021-08-10T13:25:52.858Z</time>
      </trkpt>
      <trkpt lat="46.90307" lon="8.55868">
        <ele>927</ele>
        <time>2021-08-10T13:25:53.857Z</time>
      </trkpt>
      <trkpt lat="46.90307" lon="8.55867">
        <ele>928</ele>
        <time>2021-08-10T13:25:54.858Z</time>
      </trkpt>
      <trkpt lat="46.90307" lon="8.55867">
        <ele>928</ele>
        <time>2021-08-10T13:25:55.857Z</time>
      </trkpt>
      <trkpt lat="46.90307" lon="8.55869">
        <ele>930</ele>
        <time>2021-08-10T13:25:57.966Z</time>
      </trkpt>
      <trkpt lat="46.90306" lon="8.55871">
        <ele>930</ele>
        <time>2021-08-10T13:25:58.966Z</time>
      </trkpt>
      <trkpt lat="46.90305" lon="8.55872">
        <ele>931</ele>
        <time>2021-08-10T13:25:59.965Z</time>
      </trkpt>
      <trkpt lat="46.90306" lon="8.55875">
        <ele>931</ele>
        <time>2021-08-10T13:26:00.966Z</time>
      </trkpt>
      <trkpt lat="46.90305" lon="8.55879">
        <ele>932</ele>
        <time>2021-08-10T13:26:01.965Z</time>
      </trkpt>
      <trkpt lat="46.90305" lon="8.55878">
        <ele>932</ele>
        <time>2021-08-10T13:26:02.965Z</time>
      </trkpt>
      <trkpt lat="46.90305" lon="8.55877">
        <ele>933</ele>
        <time>2021-08-10T13:26:03.966Z</time>
      </trkpt>
      <trkpt lat="46.90304" lon="8.55876">
        <ele>933</ele>
        <time>2021-08-10T13:26:04.965Z</time>
      </trkpt>
      <trkpt lat="46.90304" lon="8.55876">
        <ele>933</ele>
        <time>2021-08-10T13:26:05.965Z</time>
      </trkpt>
      <trkpt lat="46.90304" lon="8.55877">
        <ele>934</ele>
        <time>2021-08-10T13:26:06.965Z</time>
      </trkpt>
      <trkpt lat="46.90304" lon="8.55877">
        <ele>934</ele>
        <time>2021-08-10T13:26:07.965Z</time>
      </trkpt>
      <trkpt lat="46.90304" lon="8.55877">
        <ele>934</ele>
        <time>2021-08-10T13:26:08.965Z</time>
      </trkpt>
      <trkpt lat="46.90308" lon="8.55873">
        <ele>935</ele>
        <time>2021-08-10T13:26:09.965Z</time>
      </trkpt>
      <trkpt lat="46.90308" lon="8.55872">
        <ele>935</ele>
        <time>2021-08-10T13:26:10.965Z</time>
      </trkpt>
      <trkpt lat="46.90308" lon="8.55872">
        <ele>935</ele>
        <time>2021-08-10T13:26:11.966Z</time>
      </trkpt>
      <trkpt lat="46.90307" lon="8.55871">
        <ele>936</ele>
        <time>2021-08-10T13:26:12.965Z</time>
      </trkpt>
      <trkpt lat="46.90306" lon="8.55871">
        <ele>936</ele>
        <time>2021-08-10T13:26:13.966Z</time>
      </trkpt>
      <trkpt lat="46.90306" lon="8.5587">
        <ele>936</ele>
        <time>2021-08-10T13:26:14.965Z</time>
      </trkpt>
      <trkpt lat="46.90306" lon="8.5587">
        <ele>937</ele>
        <time>2021-08-10T13:26:26.113Z</time>
      </trkpt>
      <trkpt lat="46.90306" lon="8.55871">
        <ele>937</ele>
        <time>2021-08-10T13:26:27.113Z</time>
      </trkpt>
      <trkpt lat="46.90306" lon="8.55871">
        <ele>937</ele>
        <time>2021-08-10T13:26:28.112Z</time>
      </trkpt>
      <trkpt lat="46.90306" lon="8.5587">
        <ele>937</ele>
        <time>2021-08-10T13:26:29.112Z</time>
      </trkpt>
      <trkpt lat="46.90306" lon="8.55869">
        <ele>937</ele>
        <time>2021-08-10T13:26:30.113Z</time>
      </trkpt>
      <trkpt lat="46.90305" lon="8.55869">
        <ele>937</ele>
        <time>2021-08-10T13:26:31.112Z</time>
      </trkpt>
      <trkpt lat="46.90306" lon="8.55868">
        <ele>936</ele>
        <time>2021-08-10T13:26:32.112Z</time>
      </trkpt>
      <trkpt lat="46.90307" lon="8.55867">
        <ele>936</ele>
        <time>2021-08-10T13:26:50.253Z</time>
      </trkpt>
      <trkpt lat="46.90308" lon="8.55867">
        <ele>935</ele>
        <time>2021-08-10T13:26:51.254Z</time>
      </trkpt>
      <trkpt lat="46.9031" lon="8.55866">
        <ele>934</ele>
        <time>2021-08-10T13:26:52.253Z</time>
      </trkpt>
      <trkpt lat="46.9031" lon="8.55866">
        <ele>934</ele>
        <time>2021-08-10T13:26:53.253Z</time>
      </trkpt>
      <trkpt lat="46.90309" lon="8.55867">
        <ele>933</ele>
        <time>2021-08-10T13:26:54.253Z</time>
      </trkpt>
      <trkpt lat="46.9031" lon="8.55867">
        <ele>933</ele>
        <time>2021-08-10T13:26:55.254Z</time>
      </trkpt>
      <trkpt lat="46.90312" lon="8.55867">
        <ele>933</ele>
        <time>2021-08-10T13:26:56.255Z</time>
      </trkpt>
      <trkpt lat="46.90312" lon="8.55866">
        <ele>932</ele>
        <time>2021-08-10T13:26:57.254Z</time>
      </trkpt>
      <trkpt lat="46.90312" lon="8.55866">
        <ele>932</ele>
        <time>2021-08-10T13:26:58.254Z</time>
      </trkpt>
      <trkpt lat="46.90311" lon="8.55867">
        <ele>932</ele>
        <time>2021-08-10T13:26:59.255Z</time>
      </trkpt>
      <trkpt lat="46.9031" lon="8.55867">
        <ele>932</ele>
        <time>2021-08-10T13:27:00.254Z</time>
      </trkpt>
      <trkpt lat="46.9031" lon="8.55867">
        <ele>932</ele>
        <time>2021-08-10T13:27:01.255Z</time>
      </trkpt>
      <trkpt lat="46.9031" lon="8.55866">
        <ele>931</ele>
        <time>2021-08-10T13:27:02.255Z</time>
      </trkpt>
      <trkpt lat="46.9031" lon="8.55865">
        <ele>931</ele>
        <time>2021-08-10T13:27:03.255Z</time>
      </trkpt>
      <trkpt lat="46.90309" lon="8.55866">
        <ele>930</ele>
        <time>2021-08-10T13:27:04.255Z</time>
      </trkpt>
      <trkpt lat="46.90309" lon="8.55865">
        <ele>929</ele>
        <time>2021-08-10T13:27:05.254Z</time>
      </trkpt>
      <trkpt lat="46.9031" lon="8.55864">
        <ele>928</ele>
        <time>2021-08-10T13:27:06.255Z</time>
      </trkpt>
      <trkpt lat="46.90309" lon="8.55864">
        <ele>928</ele>
        <time>2021-08-10T13:27:07.254Z</time>
      </trkpt>
      <trkpt lat="46.90309" lon="8.55865">
        <ele>928</ele>
        <time>2021-08-10T13:27:08.254Z</time>
      </trkpt>
      <trkpt lat="46.90308" lon="8.55866">
        <ele>928</ele>
        <time>2021-08-10T13:27:09.255Z</time>
      </trkpt>
      <trkpt lat="46.90307" lon="8.55866">
        <ele>928</ele>
        <time>2021-08-10T13:27:10.255Z</time>
      </trkpt>
      <trkpt lat="46.90306" lon="8.55867">
        <ele>928</ele>
        <time>2021-08-10T13:27:11.254Z</time>
      </trkpt>
      <trkpt lat="46.90305" lon="8.55868">
        <ele>929</ele>
        <time>2021-08-10T13:27:12.254Z</time>
      </trkpt>
      <trkpt lat="46.90304" lon="8.5587">
        <ele>929</ele>
        <time>2021-08-10T13:27:13.255Z</time>
      </trkpt>
      <trkpt lat="46.90303" lon="8.5587">
        <ele>929</ele>
        <time>2021-08-10T13:27:14.255Z</time>
      </trkpt>
      <trkpt lat="46.90303" lon="8.5587">
        <ele>929</ele>
        <time>2021-08-10T13:27:15.254Z</time>
      </trkpt>
      <trkpt lat="46.90302" lon="8.5587">
        <ele>929</ele>
        <time>2021-08-10T13:27:16.255Z</time>
      </trkpt>
      <trkpt lat="46.90302" lon="8.55871">
        <ele>929</ele>
        <time>2021-08-10T13:27:17.254Z</time>
      </trkpt>
      <trkpt lat="46.90302" lon="8.55871">
        <ele>929</ele>
        <time>2021-08-10T13:27:18.254Z</time>
      </trkpt>
      <trkpt lat="46.90301" lon="8.55872">
        <ele>930</ele>
        <time>2021-08-10T13:27:19.255Z</time>
      </trkpt>
      <trkpt lat="46.90301" lon="8.55872">
        <ele>930</ele>
        <time>2021-08-10T13:27:20.255Z</time>
      </trkpt>
      <trkpt lat="46.90301" lon="8.55873">
        <ele>930</ele>
        <time>2021-08-10T13:27:21.255Z</time>
      </trkpt>
      <trkpt lat="46.903" lon="8.55873">
        <ele>931</ele>
        <time>2021-08-10T13:27:22.254Z</time>
      </trkpt>
      <trkpt lat="46.903" lon="8.55873">
        <ele>932</ele>
        <time>2021-08-10T13:27:23.255Z</time>
      </trkpt>
      <trkpt lat="46.903" lon="8.55875">
        <ele>933</ele>
        <time>2021-08-10T13:27:24.257Z</time>
      </trkpt>
      <trkpt lat="46.90301" lon="8.55875">
        <ele>934</ele>
        <time>2021-08-10T13:27:25.257Z</time>
      </trkpt>
      <trkpt lat="46.90301" lon="8.55876">
        <ele>934</ele>
        <time>2021-08-10T13:27:26.257Z</time>
      </trkpt>
      <trkpt lat="46.90302" lon="8.55876">
        <ele>934</ele>
        <time>2021-08-10T13:27:27.256Z</time>
      </trkpt>
      <trkpt lat="46.90303" lon="8.55875">
        <ele>934</ele>
        <time>2021-08-10T13:27:28.257Z</time>
      </trkpt>
      <trkpt lat="46.90304" lon="8.55874">
        <ele>934</ele>
        <time>2021-08-10T13:27:29.257Z</time>
      </trkpt>
      <trkpt lat="46.90306" lon="8.55875">
        <ele>933</ele>
        <time>2021-08-10T13:27:30.257Z</time>
      </trkpt>
      <trkpt lat="46.90306" lon="8.55876">
        <ele>933</ele>
        <time>2021-08-10T13:27:31.257Z</time>
      </trkpt>
      <trkpt lat="46.90306" lon="8.55877">
        <ele>933</ele>
        <time>2021-08-10T13:27:33.363Z</time>
      </trkpt>
      <trkpt lat="46.90306" lon="8.55879">
        <ele>933</ele>
        <time>2021-08-10T13:27:34.362Z</time>
      </trkpt>
      <trkpt lat="46.90305" lon="8.55881">
        <ele>933</ele>
        <time>2021-08-10T13:27:36.094Z</time>
      </trkpt>
      <trkpt lat="46.90306" lon="8.55882">
        <ele>933</ele>
        <time>2021-08-10T13:27:37.093Z</time>
      </trkpt>
      <trkpt lat="46.90306" lon="8.55882">
        <ele>934</ele>
        <time>2021-08-10T13:27:38.094Z</time>
      </trkpt>
      <trkpt lat="46.90306" lon="8.55882">
        <ele>934</ele>
        <time>2021-08-10T13:27:44.115Z</time>
      </trkpt>
      <trkpt lat="46.90306" lon="8.55879">
        <ele>934</ele>
        <time>2021-08-10T13:27:45.116Z</time>
      </trkpt>
      <trkpt lat="46.90306" lon="8.55878">
        <ele>934</ele>
        <time>2021-08-10T13:27:49.000Z</time>
      </trkpt>
      <trkpt lat="46.90305" lon="8.55877">
        <ele>934</ele>
        <time>2021-08-10T13:27:50.000Z</time>
      </trkpt>
      <trkpt lat="46.90304" lon="8.55877">
        <ele>934</ele>
        <time>2021-08-10T13:27:51.001Z</time>
      </trkpt>
      <trkpt lat="46.90304" lon="8.5588">
        <ele>933</ele>
        <time>2021-08-10T13:27:52.001Z</time>
      </trkpt>
      <trkpt lat="46.90304" lon="8.55881">
        <ele>933</ele>
        <time>2021-08-10T13:27:53.000Z</time>
      </trkpt>
      <trkpt lat="46.90303" lon="8.55882">
        <ele>933</ele>
        <time>2021-08-10T13:27:54.000Z</time>
      </trkpt>
      <trkpt lat="46.90304" lon="8.55882">
        <ele>932</ele>
        <time>2021-08-10T13:27:55.000Z</time>
      </trkpt>
      <trkpt lat="46.90304" lon="8.55882">
        <ele>932</ele>
        <time>2021-08-10T13:27:56.000Z</time>
      </trkpt>
      <trkpt lat="46.90304" lon="8.55882">
        <ele>932</ele>
        <time>2021-08-10T13:27:57.001Z</time>
      </trkpt>
      <trkpt lat="46.90305" lon="8.55882">
        <ele>932</ele>
        <time>2021-08-10T13:27:58.001Z</time>
      </trkpt>
      <trkpt lat="46.90305" lon="8.55881">
        <ele>931</ele>
        <time>2021-08-10T13:27:59.000Z</time>
      </trkpt>
      <trkpt lat="46.90304" lon="8.55882">
        <ele>932</ele>
        <time>2021-08-10T13:28:00.000Z</time>
      </trkpt>
      <trkpt lat="46.90304" lon="8.55883">
        <ele>932</ele>
        <time>2021-08-10T13:28:01.001Z</time>
      </trkpt>
      <trkpt lat="46.90305" lon="8.55883">
        <ele>933</ele>
        <time>2021-08-10T13:28:02.001Z</time>
      </trkpt>
      <trkpt lat="46.90305" lon="8.55883">
        <ele>933</ele>
        <time>2021-08-10T13:28:03.001Z</time>
      </trkpt>
      <trkpt lat="46.90307" lon="8.55882">
        <ele>934</ele>
        <time>2021-08-10T13:28:04.001Z</time>
      </trkpt>
      <trkpt lat="46.90307" lon="8.55882">
        <ele>934</ele>
        <time>2021-08-10T13:28:05.001Z</time>
      </trkpt>
      <trkpt lat="46.90307" lon="8.55882">
        <ele>935</ele>
        <time>2021-08-10T13:28:06.001Z</time>
      </trkpt>
      <trkpt lat="46.90308" lon="8.55882">
        <ele>936</ele>
        <time>2021-08-10T13:28:07.001Z</time>
      </trkpt>
      <trkpt lat="46.90308" lon="8.55881">
        <ele>936</ele>
        <time>2021-08-10T13:28:08.000Z</time>
      </trkpt>
      <trkpt lat="46.90309" lon="8.55882">
        <ele>937</ele>
        <time>2021-08-10T13:28:09.000Z</time>
      </trkpt>
      <trkpt lat="46.90309" lon="8.55883">
        <ele>937</ele>
        <time>2021-08-10T13:28:10.000Z</time>
      </trkpt>
      <trkpt lat="46.90308" lon="8.55885">
        <ele>937</ele>
        <time>2021-08-10T13:28:11.001Z</time>
      </trkpt>
      <trkpt lat="46.90308" lon="8.55886">
        <ele>938</ele>
        <time>2021-08-10T13:28:12.000Z</time>
      </trkpt>
      <trkpt lat="46.90308" lon="8.55886">
        <ele>938</ele>
        <time>2021-08-10T13:28:13.000Z</time>
      </trkpt>
      <trkpt lat="46.90308" lon="8.55887">
        <ele>938</ele>
        <time>2021-08-10T13:28:14.001Z</time>
      </trkpt>
      <trkpt lat="46.90308" lon="8.55887">
        <ele>938</ele>
        <time>2021-08-10T13:28:15.000Z</time>
      </trkpt>
      <trkpt lat="46.90308" lon="8.55892">
        <ele>937</ele>
        <time>2021-08-10T13:28:16.001Z</time>
      </trkpt>
      <trkpt lat="46.90308" lon="8.55892">
        <ele>936</ele>
        <time>2021-08-10T13:28:17.000Z</time>
      </trkpt>
      <trkpt lat="46.90309" lon="8.55892">
        <ele>936</ele>
        <time>2021-08-10T13:28:18.001Z</time>
      </trkpt>
      <trkpt lat="46.90309" lon="8.55893">
        <ele>936</ele>
        <time>2021-08-10T13:28:21.123Z</time>
      </trkpt>
      <trkpt lat="46.90309" lon="8.55893">
        <ele>937</ele>
        <time>2021-08-10T13:28:22.122Z</time>
      </trkpt>
      <trkpt lat="46.90309" lon="8.55893">
        <ele>937</ele>
        <time>2021-08-10T13:28:23.123Z</time>
      </trkpt>
      <trkpt lat="46.9031" lon="8.55893">
        <ele>938</ele>
        <time>2021-08-10T13:28:24.124Z</time>
      </trkpt>
      <trkpt lat="46.9031" lon="8.55892">
        <ele>938</ele>
        <time>2021-08-10T13:28:25.124Z</time>
      </trkpt>
      <trkpt lat="46.9031" lon="8.55891">
        <ele>939</ele>
        <time>2021-08-10T13:28:26.124Z</time>
      </trkpt>
      <trkpt lat="46.9031" lon="8.55891">
        <ele>940</ele>
        <time>2021-08-10T13:28:27.124Z</time>
      </trkpt>
      <trkpt lat="46.90309" lon="8.5589">
        <ele>940</ele>
        <time>2021-08-10T13:28:28.123Z</time>
      </trkpt>
      <trkpt lat="46.90309" lon="8.5589">
        <ele>940</ele>
        <time>2021-08-10T13:28:29.124Z</time>
      </trkpt>
      <trkpt lat="46.90308" lon="8.5589">
        <ele>941</ele>
        <time>2021-08-10T13:28:30.123Z</time>
      </trkpt>
      <trkpt lat="46.90306" lon="8.5589">
        <ele>941</ele>
        <time>2021-08-10T13:28:31.123Z</time>
      </trkpt>
      <trkpt lat="46.90305" lon="8.5589">
        <ele>941</ele>
        <time>2021-08-10T13:28:32.124Z</time>
      </trkpt>
      <trkpt lat="46.90304" lon="8.5589">
        <ele>941</ele>
        <time>2021-08-10T13:28:33.124Z</time>
      </trkpt>
      <trkpt lat="46.90304" lon="8.55891">
        <ele>941</ele>
        <time>2021-08-10T13:28:34.124Z</time>
      </trkpt>
      <trkpt lat="46.90303" lon="8.55892">
        <ele>940</ele>
        <time>2021-08-10T13:28:35.123Z</time>
      </trkpt>
      <trkpt lat="46.90303" lon="8.55892">
        <ele>940</ele>
        <time>2021-08-10T13:28:36.123Z</time>
      </trkpt>
      <trkpt lat="46.90306" lon="8.55894">
        <ele>942</ele>
        <time>2021-08-10T13:28:37.123Z</time>
      </trkpt>
      <trkpt lat="46.90307" lon="8.55894">
        <ele>942</ele>
        <time>2021-08-10T13:28:38.124Z</time>
      </trkpt>
      <trkpt lat="46.90307" lon="8.55894">
        <ele>942</ele>
        <time>2021-08-10T13:28:39.124Z</time>
      </trkpt>
      <trkpt lat="46.90307" lon="8.55894">
        <ele>942</ele>
        <time>2021-08-10T13:28:40.123Z</time>
      </trkpt>
      <trkpt lat="46.90304" lon="8.55895">
        <ele>942</ele>
        <time>2021-08-10T13:28:41.124Z</time>
      </trkpt>
      <trkpt lat="46.90303" lon="8.55894">
        <ele>942</ele>
        <time>2021-08-10T13:28:42.123Z</time>
      </trkpt>
      <trkpt lat="46.90302" lon="8.55894">
        <ele>942</ele>
        <time>2021-08-10T13:28:43.124Z</time>
      </trkpt>
      <trkpt lat="46.90301" lon="8.55894">
        <ele>942</ele>
        <time>2021-08-10T13:28:44.124Z</time>
      </trkpt>
      <trkpt lat="46.90301" lon="8.55894">
        <ele>942</ele>
        <time>2021-08-10T13:28:45.124Z</time>
      </trkpt>
      <trkpt lat="46.903" lon="8.55894">
        <ele>942</ele>
        <time>2021-08-10T13:28:46.124Z</time>
      </trkpt>
      <trkpt lat="46.90299" lon="8.55893">
        <ele>942</ele>
        <time>2021-08-10T13:28:47.124Z</time>
      </trkpt>
      <trkpt lat="46.90299" lon="8.55893">
        <ele>943</ele>
        <time>2021-08-10T13:28:48.124Z</time>
      </trkpt>
      <trkpt lat="46.90298" lon="8.55892">
        <ele>944</ele>
        <time>2021-08-10T13:28:49.124Z</time>
      </trkpt>
      <trkpt lat="46.90297" lon="8.55893">
        <ele>944</ele>
        <time>2021-08-10T13:28:50.123Z</time>
      </trkpt>
      <trkpt lat="46.90297" lon="8.55894">
        <ele>945</ele>
        <time>2021-08-10T13:28:51.124Z</time>
      </trkpt>
      <trkpt lat="46.90297" lon="8.55896">
        <ele>945</ele>
        <time>2021-08-10T13:28:52.124Z</time>
      </trkpt>
      <trkpt lat="46.90297" lon="8.55898">
        <ele>946</ele>
        <time>2021-08-10T13:28:53.124Z</time>
      </trkpt>
      <trkpt lat="46.90298" lon="8.55899">
        <ele>946</ele>
        <time>2021-08-10T13:28:54.123Z</time>
      </trkpt>
      <trkpt lat="46.90299" lon="8.559">
        <ele>946</ele>
        <time>2021-08-10T13:28:55.124Z</time>
      </trkpt>
      <trkpt lat="46.90299" lon="8.55901">
        <ele>947</ele>
        <time>2021-08-10T13:28:56.124Z</time>
      </trkpt>
      <trkpt lat="46.90299" lon="8.55901">
        <ele>947</ele>
        <time>2021-08-10T13:28:57.124Z</time>
      </trkpt>
      <trkpt lat="46.903" lon="8.55902">
        <ele>947</ele>
        <time>2021-08-10T13:28:58.124Z</time>
      </trkpt>
      <trkpt lat="46.90301" lon="8.55902">
        <ele>947</ele>
        <time>2021-08-10T13:28:59.123Z</time>
      </trkpt>
      <trkpt lat="46.90301" lon="8.55903">
        <ele>947</ele>
        <time>2021-08-10T13:29:00.123Z</time>
      </trkpt>
      <trkpt lat="46.90302" lon="8.55903">
        <ele>948</ele>
        <time>2021-08-10T13:29:01.123Z</time>
      </trkpt>
      <trkpt lat="46.90302" lon="8.55904">
        <ele>948</ele>
        <time>2021-08-10T13:29:02.124Z</time>
      </trkpt>
      <trkpt lat="46.90303" lon="8.55904">
        <ele>948</ele>
        <time>2021-08-10T13:29:03.124Z</time>
      </trkpt>
      <trkpt lat="46.90303" lon="8.55905">
        <ele>948</ele>
        <time>2021-08-10T13:29:04.123Z</time>
      </trkpt>
      <trkpt lat="46.90303" lon="8.55906">
        <ele>948</ele>
        <time>2021-08-10T13:29:05.124Z</time>
      </trkpt>
      <trkpt lat="46.90303" lon="8.55907">
        <ele>948</ele>
        <time>2021-08-10T13:29:06.123Z</time>
      </trkpt>
      <trkpt lat="46.90304" lon="8.55906">
        <ele>948</ele>
        <time>2021-08-10T13:29:07.124Z</time>
      </trkpt>
      <trkpt lat="46.90304" lon="8.55906">
        <ele>948</ele>
        <time>2021-08-10T13:29:08.123Z</time>
      </trkpt>
      <trkpt lat="46.90303" lon="8.55906">
        <ele>948</ele>
        <time>2021-08-10T13:29:09.124Z</time>
      </trkpt>
      <trkpt lat="46.90301" lon="8.55903">
        <ele>948</ele>
        <time>2021-08-10T13:29:10.123Z</time>
      </trkpt>
      <trkpt lat="46.90299" lon="8.55901">
        <ele>948</ele>
        <time>2021-08-10T13:29:11.123Z</time>
      </trkpt>
      <trkpt lat="46.90298" lon="8.559">
        <ele>949</ele>
        <time>2021-08-10T13:29:12.123Z</time>
      </trkpt>
      <trkpt lat="46.90297" lon="8.55899">
        <ele>949</ele>
        <time>2021-08-10T13:29:18.235Z</time>
      </trkpt>
      <trkpt lat="46.90295" lon="8.55899">
        <ele>951</ele>
        <time>2021-08-10T13:29:19.236Z</time>
      </trkpt>
      <trkpt lat="46.90294" lon="8.55899">
        <ele>952</ele>
        <time>2021-08-10T13:29:22.978Z</time>
      </trkpt>
      <trkpt lat="46.90294" lon="8.55899">
        <ele>953</ele>
        <time>2021-08-10T13:29:23.978Z</time>
      </trkpt>
      <trkpt lat="46.90294" lon="8.55899">
        <ele>955</ele>
        <time>2021-08-10T13:29:24.978Z</time>
      </trkpt>
      <trkpt lat="46.90294" lon="8.55899">
        <ele>956</ele>
        <time>2021-08-10T13:29:25.978Z</time>
      </trkpt>
      <trkpt lat="46.90294" lon="8.55899">
        <ele>957</ele>
        <time>2021-08-10T13:29:26.978Z</time>
      </trkpt>
      <trkpt lat="46.90293" lon="8.55899">
        <ele>959</ele>
        <time>2021-08-10T13:29:27.979Z</time>
      </trkpt>
      <trkpt lat="46.90293" lon="8.55898">
        <ele>960</ele>
        <time>2021-08-10T13:29:28.979Z</time>
      </trkpt>
      <trkpt lat="46.90292" lon="8.55898">
        <ele>961</ele>
        <time>2021-08-10T13:29:29.978Z</time>
      </trkpt>
      <trkpt lat="46.90291" lon="8.55897">
        <ele>962</ele>
        <time>2021-08-10T13:29:30.979Z</time>
      </trkpt>
      <trkpt lat="46.9029" lon="8.55897">
        <ele>964</ele>
        <time>2021-08-10T13:29:31.979Z</time>
      </trkpt>
      <trkpt lat="46.90289" lon="8.55895">
        <ele>965</ele>
        <time>2021-08-10T13:29:32.979Z</time>
      </trkpt>
      <trkpt lat="46.90288" lon="8.55895">
        <ele>966</ele>
        <time>2021-08-10T13:29:33.978Z</time>
      </trkpt>
      <trkpt lat="46.90289" lon="8.55893">
        <ele>967</ele>
        <time>2021-08-10T13:29:34.979Z</time>
      </trkpt>
      <trkpt lat="46.9029" lon="8.55892">
        <ele>968</ele>
        <time>2021-08-10T13:29:38.106Z</time>
      </trkpt>
      <trkpt lat="46.9029" lon="8.55891">
        <ele>969</ele>
        <time>2021-08-10T13:29:39.106Z</time>
      </trkpt>
      <trkpt lat="46.9029" lon="8.5589">
        <ele>970</ele>
        <time>2021-08-10T13:29:40.106Z</time>
      </trkpt>
      <trkpt lat="46.9029" lon="8.55889">
        <ele>971</ele>
        <time>2021-08-10T13:29:41.105Z</time>
      </trkpt>
      <trkpt lat="46.9029" lon="8.55888">
        <ele>973</ele>
        <time>2021-08-10T13:29:42.105Z</time>
      </trkpt>
      <trkpt lat="46.90289" lon="8.55887">
        <ele>974</ele>
        <time>2021-08-10T13:29:43.106Z</time>
      </trkpt>
      <trkpt lat="46.90288" lon="8.55887">
        <ele>975</ele>
        <time>2021-08-10T13:29:44.106Z</time>
      </trkpt>
      <trkpt lat="46.90288" lon="8.55887">
        <ele>977</ele>
        <time>2021-08-10T13:29:45.106Z</time>
      </trkpt>
      <trkpt lat="46.90287" lon="8.55887">
        <ele>979</ele>
        <time>2021-08-10T13:29:46.106Z</time>
      </trkpt>
      <trkpt lat="46.90287" lon="8.55887">
        <ele>980</ele>
        <time>2021-08-10T13:29:47.105Z</time>
      </trkpt>
      <trkpt lat="46.90285" lon="8.55887">
        <ele>982</ele>
        <time>2021-08-10T13:29:48.106Z</time>
      </trkpt>
      <trkpt lat="46.90284" lon="8.55887">
        <ele>983</ele>
        <time>2021-08-10T13:29:49.106Z</time>
      </trkpt>
      <trkpt lat="46.90284" lon="8.55886">
        <ele>985</ele>
        <time>2021-08-10T13:29:50.106Z</time>
      </trkpt>
      <trkpt lat="46.90283" lon="8.55886">
        <ele>986</ele>
        <time>2021-08-10T13:29:57.211Z</time>
      </trkpt>
      <trkpt lat="46.90283" lon="8.55886">
        <ele>987</ele>
        <time>2021-08-10T13:29:58.211Z</time>
      </trkpt>
      <trkpt lat="46.90283" lon="8.55885">
        <ele>987</ele>
        <time>2021-08-10T13:29:59.211Z</time>
      </trkpt>
      <trkpt lat="46.90282" lon="8.55884">
        <ele>988</ele>
        <time>2021-08-10T13:30:00.211Z</time>
      </trkpt>
      <trkpt lat="46.90282" lon="8.55883">
        <ele>989</ele>
        <time>2021-08-10T13:30:01.211Z</time>
      </trkpt>
      <trkpt lat="46.90282" lon="8.55882">
        <ele>990</ele>
        <time>2021-08-10T13:30:06.379Z</time>
      </trkpt>
      <trkpt lat="46.90281" lon="8.55881">
        <ele>991</ele>
        <time>2021-08-10T13:30:07.378Z</time>
      </trkpt>
      <trkpt lat="46.90281" lon="8.5588">
        <ele>992</ele>
        <time>2021-08-10T13:30:08.379Z</time>
      </trkpt>
      <trkpt lat="46.90281" lon="8.55879">
        <ele>993</ele>
        <time>2021-08-10T13:30:09.379Z</time>
      </trkpt>
      <trkpt lat="46.90281" lon="8.5588">
        <ele>993</ele>
        <time>2021-08-10T13:30:14.498Z</time>
      </trkpt>
      <trkpt lat="46.90281" lon="8.5588">
        <ele>994</ele>
        <time>2021-08-10T13:30:15.498Z</time>
      </trkpt>
      <trkpt lat="46.90281" lon="8.5588">
        <ele>995</ele>
        <time>2021-08-10T13:30:16.497Z</time>
      </trkpt>
      <trkpt lat="46.90281" lon="8.55879">
        <ele>995</ele>
        <time>2021-08-10T13:30:17.497Z</time>
      </trkpt>
      <trkpt lat="46.9028" lon="8.55878">
        <ele>995</ele>
        <time>2021-08-10T13:30:18.498Z</time>
      </trkpt>
      <trkpt lat="46.9028" lon="8.55878">
        <ele>995</ele>
        <time>2021-08-10T13:30:19.497Z</time>
      </trkpt>
      <trkpt lat="46.90279" lon="8.55877">
        <ele>995</ele>
        <time>2021-08-10T13:30:20.497Z</time>
      </trkpt>
      <trkpt lat="46.90279" lon="8.55877">
        <ele>995</ele>
        <time>2021-08-10T13:30:21.498Z</time>
      </trkpt>
      <trkpt lat="46.90278" lon="8.55876">
        <ele>996</ele>
        <time>2021-08-10T13:30:22.497Z</time>
      </trkpt>
      <trkpt lat="46.90277" lon="8.55876">
        <ele>996</ele>
        <time>2021-08-10T13:30:23.498Z</time>
      </trkpt>
      <trkpt lat="46.90277" lon="8.55876">
        <ele>996</ele>
        <time>2021-08-10T13:30:24.498Z</time>
      </trkpt>
      <trkpt lat="46.90277" lon="8.55876">
        <ele>996</ele>
        <time>2021-08-10T13:30:25.497Z</time>
      </trkpt>
      <trkpt lat="46.90276" lon="8.55876">
        <ele>995</ele>
        <time>2021-08-10T13:30:30.622Z</time>
      </trkpt>
      <trkpt lat="46.90276" lon="8.55877">
        <ele>995</ele>
        <time>2021-08-10T13:30:31.622Z</time>
      </trkpt>
      <trkpt lat="46.90275" lon="8.55878">
        <ele>994</ele>
        <time>2021-08-10T13:30:37.472Z</time>
      </trkpt>
      <trkpt lat="46.90275" lon="8.55879">
        <ele>994</ele>
        <time>2021-08-10T13:30:38.473Z</time>
      </trkpt>
      <trkpt lat="46.90275" lon="8.55879">
        <ele>993</ele>
        <time>2021-08-10T13:30:39.472Z</time>
      </trkpt>
      <trkpt lat="46.90274" lon="8.55879">
        <ele>993</ele>
        <time>2021-08-10T13:30:40.473Z</time>
      </trkpt>
      <trkpt lat="46.90274" lon="8.55879">
        <ele>992</ele>
        <time>2021-08-10T13:30:41.472Z</time>
      </trkpt>
      <trkpt lat="46.90274" lon="8.55879">
        <ele>992</ele>
        <time>2021-08-10T13:30:49.603Z</time>
      </trkpt>
      <trkpt lat="46.90274" lon="8.55878">
        <ele>992</ele>
        <time>2021-08-10T13:31:05.369Z</time>
      </trkpt>
      <trkpt lat="46.90275" lon="8.55879">
        <ele>993</ele>
        <time>2021-08-10T13:31:06.368Z</time>
      </trkpt>
      <trkpt lat="46.90278" lon="8.55881">
        <ele>992</ele>
        <time>2021-08-10T13:31:07.369Z</time>
      </trkpt>
      <trkpt lat="46.90278" lon="8.55882">
        <ele>992</ele>
        <time>2021-08-10T13:31:08.368Z</time>
      </trkpt>
      <trkpt lat="46.90279" lon="8.55882">
        <ele>991</ele>
        <time>2021-08-10T13:31:21.479Z</time>
      </trkpt>
      <trkpt lat="46.90279" lon="8.55883">
        <ele>991</ele>
        <time>2021-08-10T13:31:22.479Z</time>
      </trkpt>
      <trkpt lat="46.90279" lon="8.55884">
        <ele>990</ele>
        <time>2021-08-10T13:31:25.360Z</time>
      </trkpt>
      <trkpt lat="46.90279" lon="8.55885">
        <ele>990</ele>
        <time>2021-08-10T13:31:29.116Z</time>
      </trkpt>
      <trkpt lat="46.9028" lon="8.55885">
        <ele>989</ele>
        <time>2021-08-10T13:31:30.115Z</time>
      </trkpt>
      <trkpt lat="46.9028" lon="8.55885">
        <ele>989</ele>
        <time>2021-08-10T13:31:31.115Z</time>
      </trkpt>
      <trkpt lat="46.9028" lon="8.55884">
        <ele>988</ele>
        <time>2021-08-10T13:31:36.232Z</time>
      </trkpt>
      <trkpt lat="46.90281" lon="8.55885">
        <ele>988</ele>
        <time>2021-08-10T13:31:37.231Z</time>
      </trkpt>
      <trkpt lat="46.90282" lon="8.55885">
        <ele>988</ele>
        <time>2021-08-10T13:31:39.963Z</time>
      </trkpt>
      <trkpt lat="46.90283" lon="8.55885">
        <ele>987</ele>
        <time>2021-08-10T13:31:40.963Z</time>
      </trkpt>
      <trkpt lat="46.90282" lon="8.55884">
        <ele>987</ele>
        <time>2021-08-10T13:31:41.964Z</time>
      </trkpt>
      <trkpt lat="46.90282" lon="8.55883">
        <ele>987</ele>
        <time>2021-08-10T13:31:42.963Z</time>
      </trkpt>
      <trkpt lat="46.90282" lon="8.55882">
        <ele>986</ele>
        <time>2021-08-10T13:31:43.963Z</time>
      </trkpt>
      <trkpt lat="46.90281" lon="8.55882">
        <ele>986</ele>
        <time>2021-08-10T13:31:44.964Z</time>
      </trkpt>
      <trkpt lat="46.9028" lon="8.55881">
        <ele>985</ele>
        <time>2021-08-10T13:31:45.963Z</time>
      </trkpt>
      <trkpt lat="46.9028" lon="8.55881">
        <ele>985</ele>
        <time>2021-08-10T13:31:46.964Z</time>
      </trkpt>
      <trkpt lat="46.9028" lon="8.55882">
        <ele>985</ele>
        <time>2021-08-10T13:31:47.963Z</time>
      </trkpt>
      <trkpt lat="46.9028" lon="8.55883">
        <ele>985</ele>
        <time>2021-08-10T13:31:48.963Z</time>
      </trkpt>
      <trkpt lat="46.90281" lon="8.55884">
        <ele>985</ele>
        <time>2021-08-10T13:31:49.963Z</time>
      </trkpt>
      <trkpt lat="46.90281" lon="8.55886">
        <ele>984</ele>
        <time>2021-08-10T13:31:50.964Z</time>
      </trkpt>
      <trkpt lat="46.90281" lon="8.55887">
        <ele>983</ele>
        <time>2021-08-10T13:31:51.964Z</time>
      </trkpt>
      <trkpt lat="46.90282" lon="8.55888">
        <ele>983</ele>
        <time>2021-08-10T13:31:52.963Z</time>
      </trkpt>
      <trkpt lat="46.90282" lon="8.55889">
        <ele>982</ele>
        <time>2021-08-10T13:31:53.964Z</time>
      </trkpt>
      <trkpt lat="46.90282" lon="8.55891">
        <ele>981</ele>
        <time>2021-08-10T13:31:54.963Z</time>
      </trkpt>
      <trkpt lat="46.90282" lon="8.55893">
        <ele>981</ele>
        <time>2021-08-10T13:31:55.963Z</time>
      </trkpt>
      <trkpt lat="46.90283" lon="8.55894">
        <ele>980</ele>
        <time>2021-08-10T13:31:56.964Z</time>
      </trkpt>
      <trkpt lat="46.90283" lon="8.55896">
        <ele>979</ele>
        <time>2021-08-10T13:31:57.963Z</time>
      </trkpt>
      <trkpt lat="46.90284" lon="8.55897">
        <ele>979</ele>
        <time>2021-08-10T13:31:58.964Z</time>
      </trkpt>
      <trkpt lat="46.90284" lon="8.55898">
        <ele>978</ele>
        <time>2021-08-10T13:31:59.963Z</time>
      </trkpt>
      <trkpt lat="46.90284" lon="8.55899">
        <ele>977</ele>
        <time>2021-08-10T13:32:00.964Z</time>
      </trkpt>
      <trkpt lat="46.90283" lon="8.55898">
        <ele>976</ele>
        <time>2021-08-10T13:32:01.963Z</time>
      </trkpt>
      <trkpt lat="46.90281" lon="8.55896">
        <ele>975</ele>
        <time>2021-08-10T13:32:02.963Z</time>
      </trkpt>
      <trkpt lat="46.9028" lon="8.55893">
        <ele>975</ele>
        <time>2021-08-10T13:32:03.964Z</time>
      </trkpt>
      <trkpt lat="46.90279" lon="8.55892">
        <ele>974</ele>
        <time>2021-08-10T13:32:04.964Z</time>
      </trkpt>
      <trkpt lat="46.90278" lon="8.55891">
        <ele>973</ele>
        <time>2021-08-10T13:32:05.964Z</time>
      </trkpt>
      <trkpt lat="46.90278" lon="8.55891">
        <ele>972</ele>
        <time>2021-08-10T13:32:06.964Z</time>
      </trkpt>
      <trkpt lat="46.90277" lon="8.55891">
        <ele>972</ele>
        <time>2021-08-10T13:32:07.964Z</time>
      </trkpt>
      <trkpt lat="46.90277" lon="8.55891">
        <ele>971</ele>
        <time>2021-08-10T13:32:08.964Z</time>
      </trkpt>
      <trkpt lat="46.90276" lon="8.55891">
        <ele>970</ele>
        <time>2021-08-10T13:32:09.963Z</time>
      </trkpt>
      <trkpt lat="46.90274" lon="8.55891">
        <ele>970</ele>
        <time>2021-08-10T13:32:10.963Z</time>
      </trkpt>
      <trkpt lat="46.90273" lon="8.55892">
        <ele>970</ele>
        <time>2021-08-10T13:32:11.963Z</time>
      </trkpt>
      <trkpt lat="46.90273" lon="8.55892">
        <ele>969</ele>
        <time>2021-08-10T13:32:12.963Z</time>
      </trkpt>
      <trkpt lat="46.90272" lon="8.55893">
        <ele>969</ele>
        <time>2021-08-10T13:32:13.963Z</time>
      </trkpt>
      <trkpt lat="46.90271" lon="8.55894">
        <ele>968</ele>
        <time>2021-08-10T13:32:14.963Z</time>
      </trkpt>
      <trkpt lat="46.9027" lon="8.55895">
        <ele>967</ele>
        <time>2021-08-10T13:32:15.964Z</time>
      </trkpt>
      <trkpt lat="46.90269" lon="8.55896">
        <ele>966</ele>
        <time>2021-08-10T13:32:16.964Z</time>
      </trkpt>
      <trkpt lat="46.90269" lon="8.55897">
        <ele>966</ele>
        <time>2021-08-10T13:32:17.963Z</time>
      </trkpt>
      <trkpt lat="46.90268" lon="8.55897">
        <ele>964</ele>
        <time>2021-08-10T13:32:18.965Z</time>
      </trkpt>
      <trkpt lat="46.90268" lon="8.55897">
        <ele>964</ele>
        <time>2021-08-10T13:32:19.840Z</time>
      </trkpt>
      <trkpt lat="46.90269" lon="8.55902">
        <ele>963</ele>
        <time>2021-08-10T13:32:20.964Z</time>
      </trkpt>
      <trkpt lat="46.90269" lon="8.55904">
        <ele>962</ele>
        <time>2021-08-10T13:32:21.840Z</time>
      </trkpt>
      <trkpt lat="46.9027" lon="8.55904">
        <ele>962</ele>
        <time>2021-08-10T13:32:22.840Z</time>
      </trkpt>
      <trkpt lat="46.9027" lon="8.55905">
        <ele>962</ele>
        <time>2021-08-10T13:32:23.964Z</time>
      </trkpt>
      <trkpt lat="46.9027" lon="8.55906">
        <ele>962</ele>
        <time>2021-08-10T13:32:24.840Z</time>
      </trkpt>
      <trkpt lat="46.90271" lon="8.55906">
        <ele>962</ele>
        <time>2021-08-10T13:32:25.840Z</time>
      </trkpt>
      <trkpt lat="46.90271" lon="8.55906">
        <ele>963</ele>
        <time>2021-08-10T13:32:26.964Z</time>
      </trkpt>
      <trkpt lat="46.90271" lon="8.55907">
        <ele>963</ele>
        <time>2021-08-10T13:32:27.840Z</time>
      </trkpt>
      <trkpt lat="46.90271" lon="8.55909">
        <ele>963</ele>
        <time>2021-08-10T13:32:28.840Z</time>
      </trkpt>
      <trkpt lat="46.9027" lon="8.55909">
        <ele>963</ele>
        <time>2021-08-10T13:32:29.840Z</time>
      </trkpt>
      <trkpt lat="46.90267" lon="8.55913">
        <ele>964</ele>
        <time>2021-08-10T13:32:33.964Z</time>
      </trkpt>
      <trkpt lat="46.90267" lon="8.55913">
        <ele>964</ele>
        <time>2021-08-10T13:32:34.840Z</time>
      </trkpt>
      <trkpt lat="46.90267" lon="8.55913">
        <ele>964</ele>
        <time>2021-08-10T13:32:35.840Z</time>
      </trkpt>
      <trkpt lat="46.90266" lon="8.55913">
        <ele>964</ele>
        <time>2021-08-10T13:32:36.840Z</time>
      </trkpt>
      <trkpt lat="46.90265" lon="8.55913">
        <ele>964</ele>
        <time>2021-08-10T13:32:42.983Z</time>
      </trkpt>
      <trkpt lat="46.90264" lon="8.55914">
        <ele>964</ele>
        <time>2021-08-10T13:32:43.983Z</time>
      </trkpt>
      <trkpt lat="46.90263" lon="8.55914">
        <ele>964</ele>
        <time>2021-08-10T13:32:44.983Z</time>
      </trkpt>
      <trkpt lat="46.90263" lon="8.55914">
        <ele>963</ele>
        <time>2021-08-10T13:32:45.983Z</time>
      </trkpt>
      <trkpt lat="46.90262" lon="8.55914">
        <ele>963</ele>
        <time>2021-08-10T13:32:46.983Z</time>
      </trkpt>
      <trkpt lat="46.90262" lon="8.55918">
        <ele>962</ele>
        <time>2021-08-10T13:32:48.108Z</time>
      </trkpt>
      <trkpt lat="46.90262" lon="8.55918">
        <ele>962</ele>
        <time>2021-08-10T13:32:48.983Z</time>
      </trkpt>
      <trkpt lat="46.90263" lon="8.55922">
        <ele>962</ele>
        <time>2021-08-10T13:32:49.983Z</time>
      </trkpt>
      <trkpt lat="46.90264" lon="8.55925">
        <ele>962</ele>
        <time>2021-08-10T13:32:50.983Z</time>
      </trkpt>
      <trkpt lat="46.90265" lon="8.55927">
        <ele>961</ele>
        <time>2021-08-10T13:32:51.983Z</time>
      </trkpt>
      <trkpt lat="46.90265" lon="8.55929">
        <ele>961</ele>
        <time>2021-08-10T13:32:52.983Z</time>
      </trkpt>
      <trkpt lat="46.90266" lon="8.55931">
        <ele>962</ele>
        <time>2021-08-10T13:32:53.983Z</time>
      </trkpt>
      <trkpt lat="46.90266" lon="8.55933">
        <ele>962</ele>
        <time>2021-08-10T13:32:54.983Z</time>
      </trkpt>
      <trkpt lat="46.90267" lon="8.55934">
        <ele>962</ele>
        <time>2021-08-10T13:32:55.983Z</time>
      </trkpt>
      <trkpt lat="46.90267" lon="8.55936">
        <ele>962</ele>
        <time>2021-08-10T13:32:57.108Z</time>
      </trkpt>
      <trkpt lat="46.90268" lon="8.55937">
        <ele>963</ele>
        <time>2021-08-10T13:32:58.107Z</time>
      </trkpt>
      <trkpt lat="46.90268" lon="8.55937">
        <ele>963</ele>
        <time>2021-08-10T13:32:58.983Z</time>
      </trkpt>
      <trkpt lat="46.90268" lon="8.55938">
        <ele>963</ele>
        <time>2021-08-10T13:32:59.983Z</time>
      </trkpt>
      <trkpt lat="46.90269" lon="8.55939">
        <ele>963</ele>
        <time>2021-08-10T13:33:00.983Z</time>
      </trkpt>
      <trkpt lat="46.9027" lon="8.55939">
        <ele>964</ele>
        <time>2021-08-10T13:33:01.983Z</time>
      </trkpt>
      <trkpt lat="46.9027" lon="8.5594">
        <ele>965</ele>
        <time>2021-08-10T13:33:02.983Z</time>
      </trkpt>
      <trkpt lat="46.9027" lon="8.55941">
        <ele>965</ele>
        <time>2021-08-10T13:33:03.983Z</time>
      </trkpt>
      <trkpt lat="46.90271" lon="8.55942">
        <ele>966</ele>
        <time>2021-08-10T13:33:04.983Z</time>
      </trkpt>
      <trkpt lat="46.90271" lon="8.55943">
        <ele>967</ele>
        <time>2021-08-10T13:33:05.983Z</time>
      </trkpt>
      <trkpt lat="46.90269" lon="8.55942">
        <ele>968</ele>
        <time>2021-08-10T13:33:07.108Z</time>
      </trkpt>
      <trkpt lat="46.90269" lon="8.55942">
        <ele>968</ele>
        <time>2021-08-10T13:33:07.983Z</time>
      </trkpt>
      <trkpt lat="46.90266" lon="8.55941">
        <ele>970</ele>
        <time>2021-08-10T13:33:09.108Z</time>
      </trkpt>
      <trkpt lat="46.90266" lon="8.55941">
        <ele>970</ele>
        <time>2021-08-10T13:33:09.983Z</time>
      </trkpt>
      <trkpt lat="46.90265" lon="8.5594">
        <ele>970</ele>
        <time>2021-08-10T13:33:10.983Z</time>
      </trkpt>
      <trkpt lat="46.90264" lon="8.55938">
        <ele>971</ele>
        <time>2021-08-10T13:33:11.983Z</time>
      </trkpt>
      <trkpt lat="46.90263" lon="8.55937">
        <ele>971</ele>
        <time>2021-08-10T13:33:12.983Z</time>
      </trkpt>
      <trkpt lat="46.90263" lon="8.55936">
        <ele>972</ele>
        <time>2021-08-10T13:33:14.107Z</time>
      </trkpt>
      <trkpt lat="46.90263" lon="8.55936">
        <ele>972</ele>
        <time>2021-08-10T13:33:14.983Z</time>
      </trkpt>
      <trkpt lat="46.90261" lon="8.55936">
        <ele>973</ele>
        <time>2021-08-10T13:33:16.108Z</time>
      </trkpt>
      <trkpt lat="46.90261" lon="8.55936">
        <ele>973</ele>
        <time>2021-08-10T13:33:16.983Z</time>
      </trkpt>
      <trkpt lat="46.90261" lon="8.55935">
        <ele>973</ele>
        <time>2021-08-10T13:33:17.983Z</time>
      </trkpt>
      <trkpt lat="46.9026" lon="8.55935">
        <ele>973</ele>
        <time>2021-08-10T13:33:19.108Z</time>
      </trkpt>
      <trkpt lat="46.9026" lon="8.55935">
        <ele>973</ele>
        <time>2021-08-10T13:33:19.983Z</time>
      </trkpt>
      <trkpt lat="46.9026" lon="8.55935">
        <ele>973</ele>
        <time>2021-08-10T13:33:20.983Z</time>
      </trkpt>
      <trkpt lat="46.90259" lon="8.55935">
        <ele>974</ele>
        <time>2021-08-10T13:33:22.107Z</time>
      </trkpt>
      <trkpt lat="46.90259" lon="8.55935">
        <ele>974</ele>
        <time>2021-08-10T13:33:22.983Z</time>
      </trkpt>
      <trkpt lat="46.90259" lon="8.55934">
        <ele>974</ele>
        <time>2021-08-10T13:33:23.983Z</time>
      </trkpt>
      <trkpt lat="46.90258" lon="8.55934">
        <ele>974</ele>
        <time>2021-08-10T13:33:24.983Z</time>
      </trkpt>
      <trkpt lat="46.90258" lon="8.55934">
        <ele>974</ele>
        <time>2021-08-10T13:33:25.983Z</time>
      </trkpt>
      <trkpt lat="46.90257" lon="8.55934">
        <ele>974</ele>
        <time>2021-08-10T13:33:26.983Z</time>
      </trkpt>
      <trkpt lat="46.90257" lon="8.55933">
        <ele>974</ele>
        <time>2021-08-10T13:33:27.983Z</time>
      </trkpt>
      <trkpt lat="46.90255" lon="8.55932">
        <ele>974</ele>
        <time>2021-08-10T13:33:28.983Z</time>
      </trkpt>
      <trkpt lat="46.90254" lon="8.55932">
        <ele>974</ele>
        <time>2021-08-10T13:33:29.983Z</time>
      </trkpt>
      <trkpt lat="46.90254" lon="8.55932">
        <ele>974</ele>
        <time>2021-08-10T13:33:30.983Z</time>
      </trkpt>
      <trkpt lat="46.90254" lon="8.55932">
        <ele>974</ele>
        <time>2021-08-10T13:33:31.983Z</time>
      </trkpt>
      <trkpt lat="46.90253" lon="8.55931">
        <ele>974</ele>
        <time>2021-08-10T13:33:33.108Z</time>
      </trkpt>
      <trkpt lat="46.90252" lon="8.55931">
        <ele>973</ele>
        <time>2021-08-10T13:33:34.107Z</time>
      </trkpt>
      <trkpt lat="46.90252" lon="8.55931">
        <ele>973</ele>
        <time>2021-08-10T13:33:36.104Z</time>
      </trkpt>
      <trkpt lat="46.90251" lon="8.55931">
        <ele>973</ele>
        <time>2021-08-10T13:33:37.104Z</time>
      </trkpt>
      <trkpt lat="46.9025" lon="8.55931">
        <ele>973</ele>
        <time>2021-08-10T13:33:38.104Z</time>
      </trkpt>
      <trkpt lat="46.90249" lon="8.5593">
        <ele>974</ele>
        <time>2021-08-10T13:33:39.228Z</time>
      </trkpt>
      <trkpt lat="46.90249" lon="8.5593">
        <ele>974</ele>
        <time>2021-08-10T13:33:40.104Z</time>
      </trkpt>
      <trkpt lat="46.90248" lon="8.5593">
        <ele>975</ele>
        <time>2021-08-10T13:33:41.104Z</time>
      </trkpt>
      <trkpt lat="46.90247" lon="8.5593">
        <ele>975</ele>
        <time>2021-08-10T13:33:42.104Z</time>
      </trkpt>
      <trkpt lat="46.90246" lon="8.5593">
        <ele>976</ele>
        <time>2021-08-10T13:33:43.104Z</time>
      </trkpt>
      <trkpt lat="46.90245" lon="8.55931">
        <ele>977</ele>
        <time>2021-08-10T13:33:44.104Z</time>
      </trkpt>
      <trkpt lat="46.90244" lon="8.55931">
        <ele>977</ele>
        <time>2021-08-10T13:33:45.104Z</time>
      </trkpt>
      <trkpt lat="46.90242" lon="8.55931">
        <ele>978</ele>
        <time>2021-08-10T13:33:46.228Z</time>
      </trkpt>
      <trkpt lat="46.90241" lon="8.55932">
        <ele>979</ele>
        <time>2021-08-10T13:33:47.229Z</time>
      </trkpt>
      <trkpt lat="46.90241" lon="8.55932">
        <ele>979</ele>
        <time>2021-08-10T13:33:48.104Z</time>
      </trkpt>
      <trkpt lat="46.90239" lon="8.55932">
        <ele>979</ele>
        <time>2021-08-10T13:33:49.104Z</time>
      </trkpt>
      <trkpt lat="46.90238" lon="8.55932">
        <ele>980</ele>
        <time>2021-08-10T13:33:50.228Z</time>
      </trkpt>
      <trkpt lat="46.90238" lon="8.55932">
        <ele>980</ele>
        <time>2021-08-10T13:33:51.104Z</time>
      </trkpt>
      <trkpt lat="46.90237" lon="8.55932">
        <ele>981</ele>
        <time>2021-08-10T13:33:52.104Z</time>
      </trkpt>
      <trkpt lat="46.90236" lon="8.55932">
        <ele>981</ele>
        <time>2021-08-10T13:33:53.104Z</time>
      </trkpt>
      <trkpt lat="46.90235" lon="8.55933">
        <ele>982</ele>
        <time>2021-08-10T13:33:54.229Z</time>
      </trkpt>
      <trkpt lat="46.90235" lon="8.55933">
        <ele>982</ele>
        <time>2021-08-10T13:33:55.104Z</time>
      </trkpt>
      <trkpt lat="46.90235" lon="8.55933">
        <ele>982</ele>
        <time>2021-08-10T13:33:56.104Z</time>
      </trkpt>
      <trkpt lat="46.90234" lon="8.55933">
        <ele>982</ele>
        <time>2021-08-10T13:33:57.228Z</time>
      </trkpt>
      <trkpt lat="46.90233" lon="8.55934">
        <ele>982</ele>
        <time>2021-08-10T13:33:58.229Z</time>
      </trkpt>
      <trkpt lat="46.90232" lon="8.55934">
        <ele>982</ele>
        <time>2021-08-10T13:33:59.229Z</time>
      </trkpt>
      <trkpt lat="46.90232" lon="8.55935">
        <ele>982</ele>
        <time>2021-08-10T13:34:00.229Z</time>
      </trkpt>
      <trkpt lat="46.90231" lon="8.55936">
        <ele>982</ele>
        <time>2021-08-10T13:34:01.229Z</time>
      </trkpt>
      <trkpt lat="46.9023" lon="8.55935">
        <ele>982</ele>
        <time>2021-08-10T13:34:02.228Z</time>
      </trkpt>
      <trkpt lat="46.9023" lon="8.55935">
        <ele>982</ele>
        <time>2021-08-10T13:34:03.104Z</time>
      </trkpt>
      <trkpt lat="46.90229" lon="8.55936">
        <ele>982</ele>
        <time>2021-08-10T13:34:04.104Z</time>
      </trkpt>
      <trkpt lat="46.90228" lon="8.55936">
        <ele>982</ele>
        <time>2021-08-10T13:34:05.104Z</time>
      </trkpt>
      <trkpt lat="46.90227" lon="8.55936">
        <ele>983</ele>
        <time>2021-08-10T13:34:06.104Z</time>
      </trkpt>
      <trkpt lat="46.90226" lon="8.55935">
        <ele>983</ele>
        <time>2021-08-10T13:34:07.229Z</time>
      </trkpt>
      <trkpt lat="46.90226" lon="8.55935">
        <ele>983</ele>
        <time>2021-08-10T13:34:08.104Z</time>
      </trkpt>
      <trkpt lat="46.90226" lon="8.55935">
        <ele>984</ele>
        <time>2021-08-10T13:34:09.104Z</time>
      </trkpt>
      <trkpt lat="46.90225" lon="8.55934">
        <ele>984</ele>
        <time>2021-08-10T13:34:10.104Z</time>
      </trkpt>
      <trkpt lat="46.90224" lon="8.55934">
        <ele>983</ele>
        <time>2021-08-10T13:34:11.228Z</time>
      </trkpt>
      <trkpt lat="46.90224" lon="8.55934">
        <ele>983</ele>
        <time>2021-08-10T13:34:12.104Z</time>
      </trkpt>
      <trkpt lat="46.90224" lon="8.55933">
        <ele>982</ele>
        <time>2021-08-10T13:34:13.104Z</time>
      </trkpt>
      <trkpt lat="46.90223" lon="8.55932">
        <ele>981</ele>
        <time>2021-08-10T13:34:14.104Z</time>
      </trkpt>
      <trkpt lat="46.90223" lon="8.55932">
        <ele>981</ele>
        <time>2021-08-10T13:34:15.104Z</time>
      </trkpt>
      <trkpt lat="46.90222" lon="8.55931">
        <ele>981</ele>
        <time>2021-08-10T13:34:16.104Z</time>
      </trkpt>
      <trkpt lat="46.90222" lon="8.55931">
        <ele>981</ele>
        <time>2021-08-10T13:34:17.104Z</time>
      </trkpt>
      <trkpt lat="46.90222" lon="8.5593">
        <ele>981</ele>
        <time>2021-08-10T13:34:18.104Z</time>
      </trkpt>
      <trkpt lat="46.90222" lon="8.55933">
        <ele>980</ele>
        <time>2021-08-10T13:34:19.104Z</time>
      </trkpt>
      <trkpt lat="46.90221" lon="8.55933">
        <ele>980</ele>
        <time>2021-08-10T13:34:20.104Z</time>
      </trkpt>
      <trkpt lat="46.90219" lon="8.55935">
        <ele>980</ele>
        <time>2021-08-10T13:34:21.104Z</time>
      </trkpt>
      <trkpt lat="46.90219" lon="8.55936">
        <ele>980</ele>
        <time>2021-08-10T13:34:22.104Z</time>
      </trkpt>
      <trkpt lat="46.90216" lon="8.55931">
        <ele>976</ele>
        <time>2021-08-10T13:34:23.104Z</time>
      </trkpt>
      <trkpt lat="46.90215" lon="8.55931">
        <ele>976</ele>
        <time>2021-08-10T13:34:24.104Z</time>
      </trkpt>
      <trkpt lat="46.90215" lon="8.55931">
        <ele>975</ele>
        <time>2021-08-10T13:34:25.105Z</time>
      </trkpt>
      <trkpt lat="46.90215" lon="8.55931">
        <ele>974</ele>
        <time>2021-08-10T13:34:26.105Z</time>
      </trkpt>
      <trkpt lat="46.90214" lon="8.5593">
        <ele>974</ele>
        <time>2021-08-10T13:34:27.104Z</time>
      </trkpt>
      <trkpt lat="46.90213" lon="8.55932">
        <ele>972</ele>
        <time>2021-08-10T13:34:28.106Z</time>
      </trkpt>
      <trkpt lat="46.90213" lon="8.55932">
        <ele>971</ele>
        <time>2021-08-10T13:34:29.106Z</time>
      </trkpt>
      <trkpt lat="46.90213" lon="8.55932">
        <ele>970</ele>
        <time>2021-08-10T13:34:30.105Z</time>
      </trkpt>
      <trkpt lat="46.90212" lon="8.55935">
        <ele>968</ele>
        <time>2021-08-10T13:34:31.107Z</time>
      </trkpt>
      <trkpt lat="46.90212" lon="8.55935">
        <ele>969</ele>
        <time>2021-08-10T13:34:32.106Z</time>
      </trkpt>
      <trkpt lat="46.90211" lon="8.55928">
        <ele>969</ele>
        <time>2021-08-10T13:34:33.108Z</time>
      </trkpt>
      <trkpt lat="46.9021" lon="8.55926">
        <ele>970</ele>
        <time>2021-08-10T13:34:34.108Z</time>
      </trkpt>
      <trkpt lat="46.90211" lon="8.55925">
        <ele>970</ele>
        <time>2021-08-10T13:34:35.107Z</time>
      </trkpt>
      <trkpt lat="46.90211" lon="8.55924">
        <ele>971</ele>
        <time>2021-08-10T13:34:36.108Z</time>
      </trkpt>
      <trkpt lat="46.90211" lon="8.55923">
        <ele>971</ele>
        <time>2021-08-10T13:34:37.107Z</time>
      </trkpt>
      <trkpt lat="46.90212" lon="8.55921">
        <ele>972</ele>
        <time>2021-08-10T13:34:38.107Z</time>
      </trkpt>
      <trkpt lat="46.90212" lon="8.55924">
        <ele>977</ele>
        <time>2021-08-10T13:34:39.107Z</time>
      </trkpt>
      <trkpt lat="46.90211" lon="8.55924">
        <ele>994</ele>
        <time>2021-08-10T13:34:40.108Z</time>
      </trkpt>
      <trkpt lat="46.90212" lon="8.55925">
        <ele>995</ele>
        <time>2021-08-10T13:34:41.108Z</time>
      </trkpt>
      <trkpt lat="46.90212" lon="8.55925">
        <ele>997</ele>
        <time>2021-08-10T13:34:42.107Z</time>
      </trkpt>
      <trkpt lat="46.90211" lon="8.55925">
        <ele>1001</ele>
        <time>2021-08-10T13:34:43.107Z</time>
      </trkpt>
      <trkpt lat="46.90209" lon="8.55923">
        <ele>1001</ele>
        <time>2021-08-10T13:34:44.107Z</time>
      </trkpt>
      <trkpt lat="46.90208" lon="8.55922">
        <ele>1001</ele>
        <time>2021-08-10T13:34:45.107Z</time>
      </trkpt>
      <trkpt lat="46.90207" lon="8.5592">
        <ele>1000</ele>
        <time>2021-08-10T13:34:46.108Z</time>
      </trkpt>
      <trkpt lat="46.90206" lon="8.5592">
        <ele>999</ele>
        <time>2021-08-10T13:34:47.107Z</time>
      </trkpt>
      <trkpt lat="46.90206" lon="8.5592">
        <ele>998</ele>
        <time>2021-08-10T13:34:48.107Z</time>
      </trkpt>
      <trkpt lat="46.90205" lon="8.55921">
        <ele>998</ele>
        <time>2021-08-10T13:34:49.108Z</time>
      </trkpt>
      <trkpt lat="46.90205" lon="8.55921">
        <ele>997</ele>
        <time>2021-08-10T13:34:50.108Z</time>
      </trkpt>
      <trkpt lat="46.90204" lon="8.55921">
        <ele>996</ele>
        <time>2021-08-10T13:34:51.108Z</time>
      </trkpt>
      <trkpt lat="46.90203" lon="8.5592">
        <ele>995</ele>
        <time>2021-08-10T13:34:52.107Z</time>
      </trkpt>
      <trkpt lat="46.90203" lon="8.5592">
        <ele>994</ele>
        <time>2021-08-10T13:34:53.108Z</time>
      </trkpt>
      <trkpt lat="46.90201" lon="8.55919">
        <ele>993</ele>
        <time>2021-08-10T13:34:54.107Z</time>
      </trkpt>
      <trkpt lat="46.902" lon="8.55919">
        <ele>992</ele>
        <time>2021-08-10T13:34:55.108Z</time>
      </trkpt>
      <trkpt lat="46.902" lon="8.55919">
        <ele>991</ele>
        <time>2021-08-10T13:34:56.108Z</time>
      </trkpt>
      <trkpt lat="46.902" lon="8.55919">
        <ele>990</ele>
        <time>2021-08-10T13:34:57.108Z</time>
      </trkpt>
      <trkpt lat="46.90199" lon="8.5592">
        <ele>989</ele>
        <time>2021-08-10T13:34:58.108Z</time>
      </trkpt>
      <trkpt lat="46.90198" lon="8.55921">
        <ele>988</ele>
        <time>2021-08-10T13:34:59.108Z</time>
      </trkpt>
      <trkpt lat="46.90197" lon="8.55922">
        <ele>987</ele>
        <time>2021-08-10T13:35:00.108Z</time>
      </trkpt>
      <trkpt lat="46.90197" lon="8.55923">
        <ele>987</ele>
        <time>2021-08-10T13:35:01.107Z</time>
      </trkpt>
      <trkpt lat="46.90197" lon="8.55923">
        <ele>986</ele>
        <time>2021-08-10T13:35:02.108Z</time>
      </trkpt>
      <trkpt lat="46.90198" lon="8.55924">
        <ele>985</ele>
        <time>2021-08-10T13:35:03.108Z</time>
      </trkpt>
      <trkpt lat="46.90198" lon="8.55925">
        <ele>984</ele>
        <time>2021-08-10T13:35:04.108Z</time>
      </trkpt>
      <trkpt lat="46.90198" lon="8.55928">
        <ele>981</ele>
        <time>2021-08-10T13:35:05.108Z</time>
      </trkpt>
      <trkpt lat="46.90197" lon="8.55928">
        <ele>981</ele>
        <time>2021-08-10T13:35:06.107Z</time>
      </trkpt>
      <trkpt lat="46.90197" lon="8.55928">
        <ele>981</ele>
        <time>2021-08-10T13:35:07.107Z</time>
      </trkpt>
      <trkpt lat="46.90196" lon="8.55929">
        <ele>980</ele>
        <time>2021-08-10T13:35:08.108Z</time>
      </trkpt>
      <trkpt lat="46.90196" lon="8.55929">
        <ele>980</ele>
        <time>2021-08-10T13:35:09.108Z</time>
      </trkpt>
      <trkpt lat="46.90195" lon="8.55929">
        <ele>980</ele>
        <time>2021-08-10T13:35:10.107Z</time>
      </trkpt>
      <trkpt lat="46.90195" lon="8.5593">
        <ele>980</ele>
        <time>2021-08-10T13:35:11.108Z</time>
      </trkpt>
      <trkpt lat="46.90194" lon="8.5593">
        <ele>980</ele>
        <time>2021-08-10T13:35:12.108Z</time>
      </trkpt>
      <trkpt lat="46.90194" lon="8.55931">
        <ele>980</ele>
        <time>2021-08-10T13:35:13.107Z</time>
      </trkpt>
      <trkpt lat="46.90193" lon="8.55931">
        <ele>980</ele>
        <time>2021-08-10T13:35:14.107Z</time>
      </trkpt>
      <trkpt lat="46.90193" lon="8.55932">
        <ele>980</ele>
        <time>2021-08-10T13:35:15.107Z</time>
      </trkpt>
      <trkpt lat="46.90192" lon="8.55932">
        <ele>981</ele>
        <time>2021-08-10T13:35:16.108Z</time>
      </trkpt>
      <trkpt lat="46.90192" lon="8.55933">
        <ele>982</ele>
        <time>2021-08-10T13:35:17.108Z</time>
      </trkpt>
      <trkpt lat="46.90191" lon="8.55935">
        <ele>982</ele>
        <time>2021-08-10T13:35:18.108Z</time>
      </trkpt>
      <trkpt lat="46.9019" lon="8.55936">
        <ele>983</ele>
        <time>2021-08-10T13:35:19.107Z</time>
      </trkpt>
      <trkpt lat="46.90188" lon="8.55936">
        <ele>983</ele>
        <time>2021-08-10T13:35:20.107Z</time>
      </trkpt>
      <trkpt lat="46.90187" lon="8.55936">
        <ele>983</ele>
        <time>2021-08-10T13:35:21.108Z</time>
      </trkpt>
      <trkpt lat="46.90185" lon="8.55936">
        <ele>984</ele>
        <time>2021-08-10T13:35:22.108Z</time>
      </trkpt>
      <trkpt lat="46.90183" lon="8.55936">
        <ele>984</ele>
        <time>2021-08-10T13:35:23.108Z</time>
      </trkpt>
      <trkpt lat="46.90183" lon="8.55935">
        <ele>984</ele>
        <time>2021-08-10T13:35:24.107Z</time>
      </trkpt>
      <trkpt lat="46.90182" lon="8.55934">
        <ele>985</ele>
        <time>2021-08-10T13:35:25.108Z</time>
      </trkpt>
      <trkpt lat="46.90181" lon="8.55934">
        <ele>985</ele>
        <time>2021-08-10T13:35:26.107Z</time>
      </trkpt>
      <trkpt lat="46.90181" lon="8.55935">
        <ele>985</ele>
        <time>2021-08-10T13:35:27.108Z</time>
      </trkpt>
      <trkpt lat="46.90181" lon="8.55936">
        <ele>986</ele>
        <time>2021-08-10T13:35:28.107Z</time>
      </trkpt>
      <trkpt lat="46.9018" lon="8.55937">
        <ele>986</ele>
        <time>2021-08-10T13:35:29.107Z</time>
      </trkpt>
      <trkpt lat="46.9018" lon="8.55937">
        <ele>986</ele>
        <time>2021-08-10T13:35:30.108Z</time>
      </trkpt>
      <trkpt lat="46.9018" lon="8.55938">
        <ele>985</ele>
        <time>2021-08-10T13:35:31.108Z</time>
      </trkpt>
      <trkpt lat="46.90179" lon="8.55938">
        <ele>985</ele>
        <time>2021-08-10T13:35:32.108Z</time>
      </trkpt>
      <trkpt lat="46.90179" lon="8.55939">
        <ele>985</ele>
        <time>2021-08-10T13:35:33.107Z</time>
      </trkpt>
      <trkpt lat="46.90178" lon="8.55939">
        <ele>985</ele>
        <time>2021-08-10T13:35:34.107Z</time>
      </trkpt>
      <trkpt lat="46.90177" lon="8.55939">
        <ele>984</ele>
        <time>2021-08-10T13:35:35.107Z</time>
      </trkpt>
      <trkpt lat="46.90177" lon="8.55939">
        <ele>984</ele>
        <time>2021-08-10T13:35:36.108Z</time>
      </trkpt>
      <trkpt lat="46.90176" lon="8.55939">
        <ele>984</ele>
        <time>2021-08-10T13:35:37.108Z</time>
      </trkpt>
      <trkpt lat="46.90175" lon="8.55939">
        <ele>984</ele>
        <time>2021-08-10T13:35:38.108Z</time>
      </trkpt>
      <trkpt lat="46.90174" lon="8.55939">
        <ele>984</ele>
        <time>2021-08-10T13:35:39.108Z</time>
      </trkpt>
      <trkpt lat="46.90174" lon="8.55938">
        <ele>984</ele>
        <time>2021-08-10T13:35:40.108Z</time>
      </trkpt>
      <trkpt lat="46.90173" lon="8.55937">
        <ele>984</ele>
        <time>2021-08-10T13:35:41.107Z</time>
      </trkpt>
      <trkpt lat="46.90173" lon="8.55936">
        <ele>984</ele>
        <time>2021-08-10T13:35:42.107Z</time>
      </trkpt>
      <trkpt lat="46.90172" lon="8.55934">
        <ele>984</ele>
        <time>2021-08-10T13:35:43.107Z</time>
      </trkpt>
      <trkpt lat="46.90171" lon="8.55932">
        <ele>984</ele>
        <time>2021-08-10T13:35:44.108Z</time>
      </trkpt>
      <trkpt lat="46.9017" lon="8.5593">
        <ele>984</ele>
        <time>2021-08-10T13:35:45.107Z</time>
      </trkpt>
      <trkpt lat="46.90168" lon="8.55928">
        <ele>984</ele>
        <time>2021-08-10T13:35:48.191Z</time>
      </trkpt>
      <trkpt lat="46.90167" lon="8.55926">
        <ele>984</ele>
        <time>2021-08-10T13:35:49.192Z</time>
      </trkpt>
      <trkpt lat="46.90166" lon="8.55923">
        <ele>984</ele>
        <time>2021-08-10T13:35:50.192Z</time>
      </trkpt>
      <trkpt lat="46.90166" lon="8.5592">
        <ele>985</ele>
        <time>2021-08-10T13:35:51.191Z</time>
      </trkpt>
      <trkpt lat="46.90165" lon="8.55918">
        <ele>985</ele>
        <time>2021-08-10T13:35:52.192Z</time>
      </trkpt>
      <trkpt lat="46.90164" lon="8.55915">
        <ele>985</ele>
        <time>2021-08-10T13:35:53.192Z</time>
      </trkpt>
      <trkpt lat="46.90163" lon="8.55911">
        <ele>985</ele>
        <time>2021-08-10T13:35:54.192Z</time>
      </trkpt>
      <trkpt lat="46.90162" lon="8.55909">
        <ele>985</ele>
        <time>2021-08-10T13:35:55.191Z</time>
      </trkpt>
      <trkpt lat="46.90161" lon="8.55909">
        <ele>985</ele>
        <time>2021-08-10T13:35:56.192Z</time>
      </trkpt>
      <trkpt lat="46.9016" lon="8.55907">
        <ele>985</ele>
        <time>2021-08-10T13:35:57.192Z</time>
      </trkpt>
      <trkpt lat="46.9016" lon="8.55907">
        <ele>984</ele>
        <time>2021-08-10T13:35:58.192Z</time>
      </trkpt>
      <trkpt lat="46.90159" lon="8.55906">
        <ele>985</ele>
        <time>2021-08-10T13:35:59.192Z</time>
      </trkpt>
      <trkpt lat="46.90159" lon="8.55905">
        <ele>985</ele>
        <time>2021-08-10T13:36:00.192Z</time>
      </trkpt>
      <trkpt lat="46.9016" lon="8.55903">
        <ele>985</ele>
        <time>2021-08-10T13:36:01.191Z</time>
      </trkpt>
      <trkpt lat="46.90161" lon="8.55907">
        <ele>986</ele>
        <time>2021-08-10T13:36:02.191Z</time>
      </trkpt>
      <trkpt lat="46.90161" lon="8.55907">
        <ele>987</ele>
        <time>2021-08-10T13:36:03.191Z</time>
      </trkpt>
      <trkpt lat="46.90161" lon="8.55907">
        <ele>988</ele>
        <time>2021-08-10T13:36:04.192Z</time>
      </trkpt>
      <trkpt lat="46.90162" lon="8.55907">
        <ele>989</ele>
        <time>2021-08-10T13:36:05.192Z</time>
      </trkpt>
      <trkpt lat="46.90164" lon="8.55908">
        <ele>990</ele>
        <time>2021-08-10T13:36:06.191Z</time>
      </trkpt>
      <trkpt lat="46.90165" lon="8.55908">
        <ele>991</ele>
        <time>2021-08-10T13:36:07.191Z</time>
      </trkpt>
      <trkpt lat="46.90165" lon="8.55907">
        <ele>992</ele>
        <time>2021-08-10T13:36:08.192Z</time>
      </trkpt>
      <trkpt lat="46.90166" lon="8.55907">
        <ele>993</ele>
        <time>2021-08-10T13:36:09.192Z</time>
      </trkpt>
      <trkpt lat="46.90166" lon="8.55906">
        <ele>994</ele>
        <time>2021-08-10T13:36:10.191Z</time>
      </trkpt>
      <trkpt lat="46.90167" lon="8.55905">
        <ele>995</ele>
        <time>2021-08-10T13:36:11.192Z</time>
      </trkpt>
      <trkpt lat="46.90168" lon="8.55904">
        <ele>996</ele>
        <time>2021-08-10T13:36:12.191Z</time>
      </trkpt>
      <trkpt lat="46.90168" lon="8.55903">
        <ele>996</ele>
        <time>2021-08-10T13:36:13.192Z</time>
      </trkpt>
      <trkpt lat="46.90168" lon="8.55903">
        <ele>997</ele>
        <time>2021-08-10T13:36:14.192Z</time>
      </trkpt>
      <trkpt lat="46.90168" lon="8.55903">
        <ele>997</ele>
        <time>2021-08-10T13:36:15.192Z</time>
      </trkpt>
      <trkpt lat="46.90167" lon="8.55902">
        <ele>997</ele>
        <time>2021-08-10T13:36:16.192Z</time>
      </trkpt>
      <trkpt lat="46.90167" lon="8.55901">
        <ele>996</ele>
        <time>2021-08-10T13:36:17.191Z</time>
      </trkpt>
      <trkpt lat="46.90167" lon="8.559">
        <ele>996</ele>
        <time>2021-08-10T13:36:18.191Z</time>
      </trkpt>
      <trkpt lat="46.90167" lon="8.55899">
        <ele>996</ele>
        <time>2021-08-10T13:36:19.191Z</time>
      </trkpt>
      <trkpt lat="46.90167" lon="8.55898">
        <ele>995</ele>
        <time>2021-08-10T13:36:20.191Z</time>
      </trkpt>
      <trkpt lat="46.90167" lon="8.55897">
        <ele>994</ele>
        <time>2021-08-10T13:36:21.192Z</time>
      </trkpt>
      <trkpt lat="46.90166" lon="8.55896">
        <ele>994</ele>
        <time>2021-08-10T13:36:22.191Z</time>
      </trkpt>
      <trkpt lat="46.90166" lon="8.55895">
        <ele>993</ele>
        <time>2021-08-10T13:36:23.192Z</time>
      </trkpt>
      <trkpt lat="46.90165" lon="8.55895">
        <ele>992</ele>
        <time>2021-08-10T13:36:24.192Z</time>
      </trkpt>
      <trkpt lat="46.90164" lon="8.55894">
        <ele>991</ele>
        <time>2021-08-10T13:36:25.192Z</time>
      </trkpt>
      <trkpt lat="46.90164" lon="8.55893">
        <ele>991</ele>
        <time>2021-08-10T13:36:26.191Z</time>
      </trkpt>
      <trkpt lat="46.90163" lon="8.55893">
        <ele>991</ele>
        <time>2021-08-10T13:36:27.192Z</time>
      </trkpt>
      <trkpt lat="46.90163" lon="8.55892">
        <ele>991</ele>
        <time>2021-08-10T13:36:28.191Z</time>
      </trkpt>
      <trkpt lat="46.90162" lon="8.55892">
        <ele>991</ele>
        <time>2021-08-10T13:36:29.191Z</time>
      </trkpt>
      <trkpt lat="46.90162" lon="8.55892">
        <ele>991</ele>
        <time>2021-08-10T13:36:30.192Z</time>
      </trkpt>
      <trkpt lat="46.90161" lon="8.55892">
        <ele>991</ele>
        <time>2021-08-10T13:36:31.192Z</time>
      </trkpt>
      <trkpt lat="46.9016" lon="8.55892">
        <ele>990</ele>
        <time>2021-08-10T13:36:32.191Z</time>
      </trkpt>
      <trkpt lat="46.90159" lon="8.55892">
        <ele>990</ele>
        <time>2021-08-10T13:36:33.191Z</time>
      </trkpt>
      <trkpt lat="46.90158" lon="8.55892">
        <ele>989</ele>
        <time>2021-08-10T13:36:34.192Z</time>
      </trkpt>
      <trkpt lat="46.90157" lon="8.55892">
        <ele>989</ele>
        <time>2021-08-10T13:36:35.191Z</time>
      </trkpt>
      <trkpt lat="46.90156" lon="8.55891">
        <ele>989</ele>
        <time>2021-08-10T13:36:36.192Z</time>
      </trkpt>
      <trkpt lat="46.90154" lon="8.55891">
        <ele>988</ele>
        <time>2021-08-10T13:36:37.191Z</time>
      </trkpt>
      <trkpt lat="46.90153" lon="8.5589">
        <ele>988</ele>
        <time>2021-08-10T13:36:38.191Z</time>
      </trkpt>
      <trkpt lat="46.90153" lon="8.5589">
        <ele>988</ele>
        <time>2021-08-10T13:36:39.191Z</time>
      </trkpt>
      <trkpt lat="46.90152" lon="8.5589">
        <ele>988</ele>
        <time>2021-08-10T13:36:40.191Z</time>
      </trkpt>
      <trkpt lat="46.90151" lon="8.5589">
        <ele>988</ele>
        <time>2021-08-10T13:36:41.191Z</time>
      </trkpt>
      <trkpt lat="46.90151" lon="8.5589">
        <ele>987</ele>
        <time>2021-08-10T13:36:42.191Z</time>
      </trkpt>
      <trkpt lat="46.9015" lon="8.55889">
        <ele>987</ele>
        <time>2021-08-10T13:36:43.191Z</time>
      </trkpt>
      <trkpt lat="46.90149" lon="8.55889">
        <ele>986</ele>
        <time>2021-08-10T13:36:44.191Z</time>
      </trkpt>
      <trkpt lat="46.90148" lon="8.55889">
        <ele>986</ele>
        <time>2021-08-10T13:36:45.192Z</time>
      </trkpt>
      <trkpt lat="46.90147" lon="8.55888">
        <ele>985</ele>
        <time>2021-08-10T13:36:46.191Z</time>
      </trkpt>
      <trkpt lat="46.90147" lon="8.55886">
        <ele>985</ele>
        <time>2021-08-10T13:36:47.191Z</time>
      </trkpt>
      <trkpt lat="46.90147" lon="8.55884">
        <ele>985</ele>
        <time>2021-08-10T13:36:48.191Z</time>
      </trkpt>
      <trkpt lat="46.90146" lon="8.55883">
        <ele>985</ele>
        <time>2021-08-10T13:36:49.191Z</time>
      </trkpt>
      <trkpt lat="46.90144" lon="8.55882">
        <ele>985</ele>
        <time>2021-08-10T13:36:50.191Z</time>
      </trkpt>
      <trkpt lat="46.90143" lon="8.55881">
        <ele>985</ele>
        <time>2021-08-10T13:36:51.191Z</time>
      </trkpt>
      <trkpt lat="46.90143" lon="8.5588">
        <ele>985</ele>
        <time>2021-08-10T13:36:52.191Z</time>
      </trkpt>
      <trkpt lat="46.90143" lon="8.55878">
        <ele>985</ele>
        <time>2021-08-10T13:36:53.191Z</time>
      </trkpt>
      <trkpt lat="46.90143" lon="8.55877">
        <ele>985</ele>
        <time>2021-08-10T13:36:54.191Z</time>
      </trkpt>
      <trkpt lat="46.90143" lon="8.55876">
        <ele>985</ele>
        <time>2021-08-10T13:36:55.192Z</time>
      </trkpt>
      <trkpt lat="46.90142" lon="8.55874">
        <ele>984</ele>
        <time>2021-08-10T13:36:56.191Z</time>
      </trkpt>
      <trkpt lat="46.90142" lon="8.55873">
        <ele>984</ele>
        <time>2021-08-10T13:36:57.191Z</time>
      </trkpt>
      <trkpt lat="46.90142" lon="8.55872">
        <ele>984</ele>
        <time>2021-08-10T13:36:58.191Z</time>
      </trkpt>
      <trkpt lat="46.90142" lon="8.5587">
        <ele>984</ele>
        <time>2021-08-10T13:36:59.192Z</time>
      </trkpt>
      <trkpt lat="46.90142" lon="8.55869">
        <ele>984</ele>
        <time>2021-08-10T13:37:00.191Z</time>
      </trkpt>
      <trkpt lat="46.90141" lon="8.55867">
        <ele>984</ele>
        <time>2021-08-10T13:37:01.191Z</time>
      </trkpt>
      <trkpt lat="46.90141" lon="8.55866">
        <ele>984</ele>
        <time>2021-08-10T13:37:02.191Z</time>
      </trkpt>
      <trkpt lat="46.9014" lon="8.55865">
        <ele>984</ele>
        <time>2021-08-10T13:37:03.191Z</time>
      </trkpt>
      <trkpt lat="46.9014" lon="8.55864">
        <ele>984</ele>
        <time>2021-08-10T13:37:04.191Z</time>
      </trkpt>
      <trkpt lat="46.9014" lon="8.55862">
        <ele>984</ele>
        <time>2021-08-10T13:37:05.191Z</time>
      </trkpt>
      <trkpt lat="46.90139" lon="8.55861">
        <ele>984</ele>
        <time>2021-08-10T13:37:06.192Z</time>
      </trkpt>
      <trkpt lat="46.90138" lon="8.5586">
        <ele>984</ele>
        <time>2021-08-10T13:37:07.192Z</time>
      </trkpt>
      <trkpt lat="46.90137" lon="8.5586">
        <ele>984</ele>
        <time>2021-08-10T13:37:08.191Z</time>
      </trkpt>
      <trkpt lat="46.90137" lon="8.55859">
        <ele>984</ele>
        <time>2021-08-10T13:37:09.192Z</time>
      </trkpt>
      <trkpt lat="46.90136" lon="8.55857">
        <ele>984</ele>
        <time>2021-08-10T13:37:10.192Z</time>
      </trkpt>
      <trkpt lat="46.90136" lon="8.55854">
        <ele>984</ele>
        <time>2021-08-10T13:37:11.192Z</time>
      </trkpt>
      <trkpt lat="46.90136" lon="8.55851">
        <ele>985</ele>
        <time>2021-08-10T13:37:12.192Z</time>
      </trkpt>
      <trkpt lat="46.90135" lon="8.5585">
        <ele>985</ele>
        <time>2021-08-10T13:37:13.192Z</time>
      </trkpt>
      <trkpt lat="46.90134" lon="8.55848">
        <ele>985</ele>
        <time>2021-08-10T13:37:14.191Z</time>
      </trkpt>
      <trkpt lat="46.90133" lon="8.55848">
        <ele>985</ele>
        <time>2021-08-10T13:37:15.191Z</time>
      </trkpt>
      <trkpt lat="46.90133" lon="8.55848">
        <ele>986</ele>
        <time>2021-08-10T13:37:16.192Z</time>
      </trkpt>
      <trkpt lat="46.90132" lon="8.55848">
        <ele>986</ele>
        <time>2021-08-10T13:37:17.192Z</time>
      </trkpt>
      <trkpt lat="46.90131" lon="8.55848">
        <ele>986</ele>
        <time>2021-08-10T13:37:18.192Z</time>
      </trkpt>
      <trkpt lat="46.9013" lon="8.55847">
        <ele>986</ele>
        <time>2021-08-10T13:37:19.191Z</time>
      </trkpt>
      <trkpt lat="46.90128" lon="8.55846">
        <ele>986</ele>
        <time>2021-08-10T13:37:20.191Z</time>
      </trkpt>
      <trkpt lat="46.90127" lon="8.55845">
        <ele>987</ele>
        <time>2021-08-10T13:37:21.192Z</time>
      </trkpt>
      <trkpt lat="46.90126" lon="8.55843">
        <ele>987</ele>
        <time>2021-08-10T13:37:22.192Z</time>
      </trkpt>
      <trkpt lat="46.90127" lon="8.55841">
        <ele>987</ele>
        <time>2021-08-10T13:37:23.192Z</time>
      </trkpt>
      <trkpt lat="46.90126" lon="8.55841">
        <ele>988</ele>
        <time>2021-08-10T13:37:24.191Z</time>
      </trkpt>
      <trkpt lat="46.90126" lon="8.55841">
        <ele>988</ele>
        <time>2021-08-10T13:37:25.192Z</time>
      </trkpt>
      <trkpt lat="46.90125" lon="8.55841">
        <ele>988</ele>
        <time>2021-08-10T13:37:26.192Z</time>
      </trkpt>
      <trkpt lat="46.90124" lon="8.5584">
        <ele>988</ele>
        <time>2021-08-10T13:37:27.192Z</time>
      </trkpt>
      <trkpt lat="46.90123" lon="8.55839">
        <ele>988</ele>
        <time>2021-08-10T13:37:28.192Z</time>
      </trkpt>
      <trkpt lat="46.90124" lon="8.55836">
        <ele>988</ele>
        <time>2021-08-10T13:37:29.192Z</time>
      </trkpt>
      <trkpt lat="46.90125" lon="8.55833">
        <ele>988</ele>
        <time>2021-08-10T13:37:30.192Z</time>
      </trkpt>
      <trkpt lat="46.90125" lon="8.55832">
        <ele>989</ele>
        <time>2021-08-10T13:37:31.191Z</time>
      </trkpt>
      <trkpt lat="46.90125" lon="8.5583">
        <ele>989</ele>
        <time>2021-08-10T13:37:32.191Z</time>
      </trkpt>
      <trkpt lat="46.90124" lon="8.55829">
        <ele>989</ele>
        <time>2021-08-10T13:37:33.192Z</time>
      </trkpt>
      <trkpt lat="46.90122" lon="8.5583">
        <ele>989</ele>
        <time>2021-08-10T13:37:34.191Z</time>
      </trkpt>
      <trkpt lat="46.90122" lon="8.5583">
        <ele>990</ele>
        <time>2021-08-10T13:37:35.191Z</time>
      </trkpt>
      <trkpt lat="46.90121" lon="8.55829">
        <ele>990</ele>
        <time>2021-08-10T13:37:36.192Z</time>
      </trkpt>
      <trkpt lat="46.90121" lon="8.55829">
        <ele>990</ele>
        <time>2021-08-10T13:37:37.192Z</time>
      </trkpt>
      <trkpt lat="46.9012" lon="8.55829">
        <ele>990</ele>
        <time>2021-08-10T13:37:38.192Z</time>
      </trkpt>
      <trkpt lat="46.90119" lon="8.55828">
        <ele>989</ele>
        <time>2021-08-10T13:37:39.192Z</time>
      </trkpt>
      <trkpt lat="46.90118" lon="8.55827">
        <ele>989</ele>
        <time>2021-08-10T13:37:40.191Z</time>
      </trkpt>
      <trkpt lat="46.90117" lon="8.55827">
        <ele>989</ele>
        <time>2021-08-10T13:37:41.192Z</time>
      </trkpt>
      <trkpt lat="46.90117" lon="8.55826">
        <ele>989</ele>
        <time>2021-08-10T13:37:42.191Z</time>
      </trkpt>
      <trkpt lat="46.90117" lon="8.55825">
        <ele>989</ele>
        <time>2021-08-10T13:37:43.192Z</time>
      </trkpt>
      <trkpt lat="46.90117" lon="8.55824">
        <ele>989</ele>
        <time>2021-08-10T13:37:44.191Z</time>
      </trkpt>
      <trkpt lat="46.90116" lon="8.55822">
        <ele>989</ele>
        <time>2021-08-10T13:37:45.191Z</time>
      </trkpt>
      <trkpt lat="46.90116" lon="8.55821">
        <ele>988</ele>
        <time>2021-08-10T13:37:46.192Z</time>
      </trkpt>
      <trkpt lat="46.90115" lon="8.5582">
        <ele>988</ele>
        <time>2021-08-10T13:37:47.192Z</time>
      </trkpt>
      <trkpt lat="46.90115" lon="8.55819">
        <ele>988</ele>
        <time>2021-08-10T13:37:48.192Z</time>
      </trkpt>
      <trkpt lat="46.90114" lon="8.55817">
        <ele>988</ele>
        <time>2021-08-10T13:37:49.191Z</time>
      </trkpt>
      <trkpt lat="46.90114" lon="8.55816">
        <ele>988</ele>
        <time>2021-08-10T13:37:50.192Z</time>
      </trkpt>
      <trkpt lat="46.90114" lon="8.55814">
        <ele>987</ele>
        <time>2021-08-10T13:37:51.192Z</time>
      </trkpt>
      <trkpt lat="46.90113" lon="8.55814">
        <ele>987</ele>
        <time>2021-08-10T13:37:52.192Z</time>
      </trkpt>
      <trkpt lat="46.90112" lon="8.55814">
        <ele>987</ele>
        <time>2021-08-10T13:37:53.191Z</time>
      </trkpt>
      <trkpt lat="46.90111" lon="8.55813">
        <ele>987</ele>
        <time>2021-08-10T13:37:54.191Z</time>
      </trkpt>
      <trkpt lat="46.9011" lon="8.55812">
        <ele>986</ele>
        <time>2021-08-10T13:37:55.191Z</time>
      </trkpt>
      <trkpt lat="46.9011" lon="8.55811">
        <ele>986</ele>
        <time>2021-08-10T13:37:56.192Z</time>
      </trkpt>
      <trkpt lat="46.90109" lon="8.5581">
        <ele>985</ele>
        <time>2021-08-10T13:37:57.192Z</time>
      </trkpt>
      <trkpt lat="46.90109" lon="8.55809">
        <ele>985</ele>
        <time>2021-08-10T13:37:58.192Z</time>
      </trkpt>
      <trkpt lat="46.90108" lon="8.55808">
        <ele>984</ele>
        <time>2021-08-10T13:37:59.191Z</time>
      </trkpt>
      <trkpt lat="46.90108" lon="8.55807">
        <ele>984</ele>
        <time>2021-08-10T13:38:00.191Z</time>
      </trkpt>
      <trkpt lat="46.90108" lon="8.55806">
        <ele>984</ele>
        <time>2021-08-10T13:38:01.191Z</time>
      </trkpt>
      <trkpt lat="46.90107" lon="8.55805">
        <ele>984</ele>
        <time>2021-08-10T13:38:02.191Z</time>
      </trkpt>
      <trkpt lat="46.90106" lon="8.55804">
        <ele>984</ele>
        <time>2021-08-10T13:38:03.192Z</time>
      </trkpt>
      <trkpt lat="46.90105" lon="8.55804">
        <ele>985</ele>
        <time>2021-08-10T13:38:04.191Z</time>
      </trkpt>
      <trkpt lat="46.90104" lon="8.55803">
        <ele>986</ele>
        <time>2021-08-10T13:38:05.192Z</time>
      </trkpt>
      <trkpt lat="46.90103" lon="8.55803">
        <ele>987</ele>
        <time>2021-08-10T13:38:06.191Z</time>
      </trkpt>
      <trkpt lat="46.90102" lon="8.55802">
        <ele>988</ele>
        <time>2021-08-10T13:38:07.192Z</time>
      </trkpt>
      <trkpt lat="46.90101" lon="8.55802">
        <ele>988</ele>
        <time>2021-08-10T13:38:08.191Z</time>
      </trkpt>
      <trkpt lat="46.90099" lon="8.55801">
        <ele>989</ele>
        <time>2021-08-10T13:38:09.191Z</time>
      </trkpt>
      <trkpt lat="46.90099" lon="8.55801">
        <ele>990</ele>
        <time>2021-08-10T13:38:10.191Z</time>
      </trkpt>
      <trkpt lat="46.90097" lon="8.55801">
        <ele>991</ele>
        <time>2021-08-10T13:38:11.192Z</time>
      </trkpt>
      <trkpt lat="46.90096" lon="8.55801">
        <ele>992</ele>
        <time>2021-08-10T13:38:12.191Z</time>
      </trkpt>
      <trkpt lat="46.90095" lon="8.55801">
        <ele>993</ele>
        <time>2021-08-10T13:38:13.192Z</time>
      </trkpt>
      <trkpt lat="46.90094" lon="8.558">
        <ele>994</ele>
        <time>2021-08-10T13:38:14.191Z</time>
      </trkpt>
      <trkpt lat="46.90092" lon="8.55799">
        <ele>995</ele>
        <time>2021-08-10T13:38:15.191Z</time>
      </trkpt>
      <trkpt lat="46.90091" lon="8.55798">
        <ele>997</ele>
        <time>2021-08-10T13:38:16.192Z</time>
      </trkpt>
      <trkpt lat="46.90089" lon="8.55797">
        <ele>997</ele>
        <time>2021-08-10T13:38:17.192Z</time>
      </trkpt>
      <trkpt lat="46.90089" lon="8.55798">
        <ele>998</ele>
        <time>2021-08-10T13:38:18.192Z</time>
      </trkpt>
      <trkpt lat="46.90088" lon="8.55798">
        <ele>998</ele>
        <time>2021-08-10T13:38:19.192Z</time>
      </trkpt>
      <trkpt lat="46.90087" lon="8.55798">
        <ele>998</ele>
        <time>2021-08-10T13:38:20.191Z</time>
      </trkpt>
      <trkpt lat="46.90086" lon="8.55797">
        <ele>997</ele>
        <time>2021-08-10T13:38:21.191Z</time>
      </trkpt>
      <trkpt lat="46.90085" lon="8.55797">
        <ele>997</ele>
        <time>2021-08-10T13:38:22.192Z</time>
      </trkpt>
      <trkpt lat="46.90084" lon="8.55797">
        <ele>997</ele>
        <time>2021-08-10T13:38:23.192Z</time>
      </trkpt>
      <trkpt lat="46.90083" lon="8.55796">
        <ele>997</ele>
        <time>2021-08-10T13:38:24.191Z</time>
      </trkpt>
      <trkpt lat="46.90083" lon="8.55796">
        <ele>996</ele>
        <time>2021-08-10T13:38:25.191Z</time>
      </trkpt>
      <trkpt lat="46.90082" lon="8.55795">
        <ele>996</ele>
        <time>2021-08-10T13:38:26.192Z</time>
      </trkpt>
      <trkpt lat="46.90081" lon="8.55795">
        <ele>996</ele>
        <time>2021-08-10T13:38:27.192Z</time>
      </trkpt>
      <trkpt lat="46.90081" lon="8.55795">
        <ele>995</ele>
        <time>2021-08-10T13:38:28.192Z</time>
      </trkpt>
      <trkpt lat="46.9008" lon="8.55794">
        <ele>995</ele>
        <time>2021-08-10T13:38:29.192Z</time>
      </trkpt>
      <trkpt lat="46.90079" lon="8.55793">
        <ele>995</ele>
        <time>2021-08-10T13:38:30.192Z</time>
      </trkpt>
      <trkpt lat="46.90077" lon="8.55791">
        <ele>996</ele>
        <time>2021-08-10T13:38:31.192Z</time>
      </trkpt>
      <trkpt lat="46.90077" lon="8.5579">
        <ele>997</ele>
        <time>2021-08-10T13:38:32.192Z</time>
      </trkpt>
      <trkpt lat="46.90076" lon="8.55789">
        <ele>998</ele>
        <time>2021-08-10T13:38:33.191Z</time>
      </trkpt>
      <trkpt lat="46.90074" lon="8.55787">
        <ele>998</ele>
        <time>2021-08-10T13:38:34.191Z</time>
      </trkpt>
      <trkpt lat="46.90073" lon="8.55785">
        <ele>998</ele>
        <time>2021-08-10T13:38:35.191Z</time>
      </trkpt>
      <trkpt lat="46.90072" lon="8.55785">
        <ele>998</ele>
        <time>2021-08-10T13:38:36.192Z</time>
      </trkpt>
      <trkpt lat="46.90071" lon="8.55784">
        <ele>998</ele>
        <time>2021-08-10T13:38:37.192Z</time>
      </trkpt>
      <trkpt lat="46.90071" lon="8.55783">
        <ele>998</ele>
        <time>2021-08-10T13:38:38.191Z</time>
      </trkpt>
      <trkpt lat="46.9007" lon="8.55782">
        <ele>998</ele>
        <time>2021-08-10T13:38:39.192Z</time>
      </trkpt>
      <trkpt lat="46.9007" lon="8.55781">
        <ele>998</ele>
        <time>2021-08-10T13:38:40.192Z</time>
      </trkpt>
      <trkpt lat="46.90069" lon="8.5578">
        <ele>998</ele>
        <time>2021-08-10T13:38:43.072Z</time>
      </trkpt>
      <trkpt lat="46.90068" lon="8.55779">
        <ele>998</ele>
        <time>2021-08-10T13:38:44.072Z</time>
      </trkpt>
      <trkpt lat="46.90068" lon="8.55778">
        <ele>998</ele>
        <time>2021-08-10T13:38:45.072Z</time>
      </trkpt>
      <trkpt lat="46.90067" lon="8.55777">
        <ele>997</ele>
        <time>2021-08-10T13:38:46.072Z</time>
      </trkpt>
      <trkpt lat="46.90067" lon="8.55776">
        <ele>997</ele>
        <time>2021-08-10T13:38:47.072Z</time>
      </trkpt>
      <trkpt lat="46.90066" lon="8.55776">
        <ele>997</ele>
        <time>2021-08-10T13:38:48.071Z</time>
      </trkpt>
      <trkpt lat="46.90066" lon="8.55775">
        <ele>997</ele>
        <time>2021-08-10T13:38:49.071Z</time>
      </trkpt>
      <trkpt lat="46.90065" lon="8.55775">
        <ele>997</ele>
        <time>2021-08-10T13:38:50.072Z</time>
      </trkpt>
      <trkpt lat="46.90064" lon="8.55774">
        <ele>997</ele>
        <time>2021-08-10T13:38:51.072Z</time>
      </trkpt>
      <trkpt lat="46.90064" lon="8.55774">
        <ele>997</ele>
        <time>2021-08-10T13:38:52.072Z</time>
      </trkpt>
      <trkpt lat="46.90064" lon="8.55773">
        <ele>997</ele>
        <time>2021-08-10T13:38:53.072Z</time>
      </trkpt>
      <trkpt lat="46.90063" lon="8.55772">
        <ele>997</ele>
        <time>2021-08-10T13:38:54.072Z</time>
      </trkpt>
      <trkpt lat="46.90062" lon="8.55772">
        <ele>997</ele>
        <time>2021-08-10T13:38:55.072Z</time>
      </trkpt>
      <trkpt lat="46.90062" lon="8.55771">
        <ele>997</ele>
        <time>2021-08-10T13:38:56.072Z</time>
      </trkpt>
      <trkpt lat="46.90061" lon="8.5577">
        <ele>997</ele>
        <time>2021-08-10T13:38:57.072Z</time>
      </trkpt>
      <trkpt lat="46.90061" lon="8.55769">
        <ele>997</ele>
        <time>2021-08-10T13:38:58.072Z</time>
      </trkpt>
      <trkpt lat="46.9006" lon="8.55768">
        <ele>997</ele>
        <time>2021-08-10T13:38:59.072Z</time>
      </trkpt>
      <trkpt lat="46.9006" lon="8.55767">
        <ele>997</ele>
        <time>2021-08-10T13:39:00.072Z</time>
      </trkpt>
      <trkpt lat="46.90059" lon="8.55766">
        <ele>997</ele>
        <time>2021-08-10T13:39:01.072Z</time>
      </trkpt>
      <trkpt lat="46.90059" lon="8.55766">
        <ele>996</ele>
        <time>2021-08-10T13:39:02.071Z</time>
      </trkpt>
      <trkpt lat="46.90058" lon="8.55765">
        <ele>996</ele>
        <time>2021-08-10T13:39:03.072Z</time>
      </trkpt>
      <trkpt lat="46.90057" lon="8.55764">
        <ele>996</ele>
        <time>2021-08-10T13:39:04.072Z</time>
      </trkpt>
      <trkpt lat="46.90056" lon="8.55764">
        <ele>996</ele>
        <time>2021-08-10T13:39:05.071Z</time>
      </trkpt>
      <trkpt lat="46.90055" lon="8.55764">
        <ele>996</ele>
        <time>2021-08-10T13:39:06.071Z</time>
      </trkpt>
      <trkpt lat="46.90054" lon="8.55763">
        <ele>995</ele>
        <time>2021-08-10T13:39:07.072Z</time>
      </trkpt>
      <trkpt lat="46.90054" lon="8.55762">
        <ele>995</ele>
        <time>2021-08-10T13:39:08.071Z</time>
      </trkpt>
      <trkpt lat="46.90053" lon="8.55761">
        <ele>995</ele>
        <time>2021-08-10T13:39:09.072Z</time>
      </trkpt>
      <trkpt lat="46.90053" lon="8.5576">
        <ele>994</ele>
        <time>2021-08-10T13:39:10.071Z</time>
      </trkpt>
      <trkpt lat="46.90052" lon="8.55759">
        <ele>995</ele>
        <time>2021-08-10T13:39:11.072Z</time>
      </trkpt>
      <trkpt lat="46.90051" lon="8.55758">
        <ele>995</ele>
        <time>2021-08-10T13:39:12.071Z</time>
      </trkpt>
      <trkpt lat="46.90052" lon="8.55758">
        <ele>995</ele>
        <time>2021-08-10T13:39:13.072Z</time>
      </trkpt>
      <trkpt lat="46.90051" lon="8.55757">
        <ele>994</ele>
        <time>2021-08-10T13:39:14.072Z</time>
      </trkpt>
      <trkpt lat="46.9005" lon="8.55756">
        <ele>994</ele>
        <time>2021-08-10T13:39:15.071Z</time>
      </trkpt>
      <trkpt lat="46.90049" lon="8.55755">
        <ele>993</ele>
        <time>2021-08-10T13:39:16.072Z</time>
      </trkpt>
      <trkpt lat="46.90049" lon="8.55755">
        <ele>993</ele>
        <time>2021-08-10T13:39:17.072Z</time>
      </trkpt>
      <trkpt lat="46.90048" lon="8.55754">
        <ele>993</ele>
        <time>2021-08-10T13:39:18.072Z</time>
      </trkpt>
      <trkpt lat="46.90046" lon="8.55753">
        <ele>993</ele>
        <time>2021-08-10T13:39:19.071Z</time>
      </trkpt>
      <trkpt lat="46.90045" lon="8.55753">
        <ele>993</ele>
        <time>2021-08-10T13:39:20.072Z</time>
      </trkpt>
      <trkpt lat="46.90044" lon="8.55752">
        <ele>994</ele>
        <time>2021-08-10T13:39:21.072Z</time>
      </trkpt>
      <trkpt lat="46.90043" lon="8.55751">
        <ele>994</ele>
        <time>2021-08-10T13:39:22.072Z</time>
      </trkpt>
      <trkpt lat="46.90042" lon="8.55751">
        <ele>995</ele>
        <time>2021-08-10T13:39:23.072Z</time>
      </trkpt>
      <trkpt lat="46.90041" lon="8.5575">
        <ele>996</ele>
        <time>2021-08-10T13:39:24.071Z</time>
      </trkpt>
      <trkpt lat="46.9004" lon="8.5575">
        <ele>997</ele>
        <time>2021-08-10T13:39:25.072Z</time>
      </trkpt>
      <trkpt lat="46.90039" lon="8.5575">
        <ele>998</ele>
        <time>2021-08-10T13:39:26.072Z</time>
      </trkpt>
      <trkpt lat="46.90038" lon="8.5575">
        <ele>998</ele>
        <time>2021-08-10T13:39:27.072Z</time>
      </trkpt>
      <trkpt lat="46.90038" lon="8.55749">
        <ele>999</ele>
        <time>2021-08-10T13:39:28.071Z</time>
      </trkpt>
      <trkpt lat="46.90036" lon="8.55749">
        <ele>1000</ele>
        <time>2021-08-10T13:39:29.072Z</time>
      </trkpt>
      <trkpt lat="46.90035" lon="8.55749">
        <ele>1000</ele>
        <time>2021-08-10T13:39:30.072Z</time>
      </trkpt>
      <trkpt lat="46.90034" lon="8.55748">
        <ele>1000</ele>
        <time>2021-08-10T13:39:31.072Z</time>
      </trkpt>
      <trkpt lat="46.90034" lon="8.55748">
        <ele>1000</ele>
        <time>2021-08-10T13:39:32.072Z</time>
      </trkpt>
      <trkpt lat="46.90033" lon="8.55747">
        <ele>1000</ele>
        <time>2021-08-10T13:39:33.072Z</time>
      </trkpt>
      <trkpt lat="46.90032" lon="8.55747">
        <ele>1000</ele>
        <time>2021-08-10T13:39:34.071Z</time>
      </trkpt>
      <trkpt lat="46.90031" lon="8.55747">
        <ele>1000</ele>
        <time>2021-08-10T13:39:35.072Z</time>
      </trkpt>
      <trkpt lat="46.9003" lon="8.55747">
        <ele>1000</ele>
        <time>2021-08-10T13:39:36.072Z</time>
      </trkpt>
      <trkpt lat="46.90029" lon="8.55747">
        <ele>1000</ele>
        <time>2021-08-10T13:39:37.071Z</time>
      </trkpt>
      <trkpt lat="46.90028" lon="8.55746">
        <ele>1000</ele>
        <time>2021-08-10T13:39:38.072Z</time>
      </trkpt>
      <trkpt lat="46.90027" lon="8.55746">
        <ele>1000</ele>
        <time>2021-08-10T13:39:39.072Z</time>
      </trkpt>
      <trkpt lat="46.90027" lon="8.55745">
        <ele>1001</ele>
        <time>2021-08-10T13:39:40.071Z</time>
      </trkpt>
      <trkpt lat="46.90026" lon="8.55745">
        <ele>1001</ele>
        <time>2021-08-10T13:39:41.071Z</time>
      </trkpt>
      <trkpt lat="46.90025" lon="8.55744">
        <ele>1002</ele>
        <time>2021-08-10T13:39:42.071Z</time>
      </trkpt>
      <trkpt lat="46.90024" lon="8.55744">
        <ele>1002</ele>
        <time>2021-08-10T13:39:43.071Z</time>
      </trkpt>
      <trkpt lat="46.90022" lon="8.55745">
        <ele>1002</ele>
        <time>2021-08-10T13:39:44.072Z</time>
      </trkpt>
      <trkpt lat="46.90021" lon="8.55746">
        <ele>1003</ele>
        <time>2021-08-10T13:39:45.071Z</time>
      </trkpt>
      <trkpt lat="46.9002" lon="8.55746">
        <ele>1003</ele>
        <time>2021-08-10T13:39:46.072Z</time>
      </trkpt>
      <trkpt lat="46.90018" lon="8.55746">
        <ele>1004</ele>
        <time>2021-08-10T13:39:47.072Z</time>
      </trkpt>
      <trkpt lat="46.90017" lon="8.55745">
        <ele>1005</ele>
        <time>2021-08-10T13:39:48.072Z</time>
      </trkpt>
      <trkpt lat="46.90016" lon="8.55743">
        <ele>1005</ele>
        <time>2021-08-10T13:39:49.072Z</time>
      </trkpt>
      <trkpt lat="46.90016" lon="8.55742">
        <ele>1006</ele>
        <time>2021-08-10T13:39:50.072Z</time>
      </trkpt>
      <trkpt lat="46.90015" lon="8.55741">
        <ele>1007</ele>
        <time>2021-08-10T13:39:51.072Z</time>
      </trkpt>
      <trkpt lat="46.90015" lon="8.5574">
        <ele>1008</ele>
        <time>2021-08-10T13:39:52.071Z</time>
      </trkpt>
      <trkpt lat="46.90014" lon="8.55739">
        <ele>1009</ele>
        <time>2021-08-10T13:39:53.072Z</time>
      </trkpt>
      <trkpt lat="46.90014" lon="8.55738">
        <ele>1010</ele>
        <time>2021-08-10T13:39:54.071Z</time>
      </trkpt>
      <trkpt lat="46.90013" lon="8.55736">
        <ele>1010</ele>
        <time>2021-08-10T13:39:55.072Z</time>
      </trkpt>
      <trkpt lat="46.90013" lon="8.55736">
        <ele>1011</ele>
        <time>2021-08-10T13:39:56.072Z</time>
      </trkpt>
      <trkpt lat="46.90012" lon="8.55736">
        <ele>1011</ele>
        <time>2021-08-10T13:39:57.071Z</time>
      </trkpt>
      <trkpt lat="46.90011" lon="8.55736">
        <ele>1011</ele>
        <time>2021-08-10T13:39:58.072Z</time>
      </trkpt>
      <trkpt lat="46.9001" lon="8.55736">
        <ele>1011</ele>
        <time>2021-08-10T13:39:59.072Z</time>
      </trkpt>
      <trkpt lat="46.90009" lon="8.55737">
        <ele>1011</ele>
        <time>2021-08-10T13:40:00.071Z</time>
      </trkpt>
      <trkpt lat="46.90008" lon="8.55737">
        <ele>1011</ele>
        <time>2021-08-10T13:40:01.072Z</time>
      </trkpt>
      <trkpt lat="46.90008" lon="8.55737">
        <ele>1011</ele>
        <time>2021-08-10T13:40:02.072Z</time>
      </trkpt>
      <trkpt lat="46.90005" lon="8.55738">
        <ele>1011</ele>
        <time>2021-08-10T13:40:03.072Z</time>
      </trkpt>
      <trkpt lat="46.90004" lon="8.55738">
        <ele>1011</ele>
        <time>2021-08-10T13:40:04.072Z</time>
      </trkpt>
      <trkpt lat="46.90002" lon="8.55739">
        <ele>1012</ele>
        <time>2021-08-10T13:40:05.071Z</time>
      </trkpt>
      <trkpt lat="46.90001" lon="8.55739">
        <ele>1012</ele>
        <time>2021-08-10T13:40:06.071Z</time>
      </trkpt>
      <trkpt lat="46.9" lon="8.55739">
        <ele>1012</ele>
        <time>2021-08-10T13:40:07.072Z</time>
      </trkpt>
      <trkpt lat="46.89999" lon="8.55737">
        <ele>1013</ele>
        <time>2021-08-10T13:40:08.071Z</time>
      </trkpt>
      <trkpt lat="46.89998" lon="8.55737">
        <ele>1013</ele>
        <time>2021-08-10T13:40:09.072Z</time>
      </trkpt>
      <trkpt lat="46.89997" lon="8.55737">
        <ele>1013</ele>
        <time>2021-08-10T13:40:10.071Z</time>
      </trkpt>
      <trkpt lat="46.89996" lon="8.55737">
        <ele>1014</ele>
        <time>2021-08-10T13:40:11.071Z</time>
      </trkpt>
      <trkpt lat="46.89994" lon="8.55737">
        <ele>1014</ele>
        <time>2021-08-10T13:40:12.072Z</time>
      </trkpt>
      <trkpt lat="46.89992" lon="8.55737">
        <ele>1014</ele>
        <time>2021-08-10T13:40:13.072Z</time>
      </trkpt>
      <trkpt lat="46.89991" lon="8.55738">
        <ele>1014</ele>
        <time>2021-08-10T13:40:14.071Z</time>
      </trkpt>
      <trkpt lat="46.8999" lon="8.55737">
        <ele>1015</ele>
        <time>2021-08-10T13:40:15.072Z</time>
      </trkpt>
      <trkpt lat="46.89989" lon="8.55736">
        <ele>1015</ele>
        <time>2021-08-10T13:40:16.072Z</time>
      </trkpt>
      <trkpt lat="46.89988" lon="8.55735">
        <ele>1015</ele>
        <time>2021-08-10T13:40:17.071Z</time>
      </trkpt>
      <trkpt lat="46.89988" lon="8.55733">
        <ele>1015</ele>
        <time>2021-08-10T13:40:18.071Z</time>
      </trkpt>
      <trkpt lat="46.89987" lon="8.55732">
        <ele>1016</ele>
        <time>2021-08-10T13:40:19.071Z</time>
      </trkpt>
      <trkpt lat="46.89986" lon="8.55731">
        <ele>1016</ele>
        <time>2021-08-10T13:40:20.071Z</time>
      </trkpt>
      <trkpt lat="46.89986" lon="8.5573">
        <ele>1016</ele>
        <time>2021-08-10T13:40:21.072Z</time>
      </trkpt>
      <trkpt lat="46.89986" lon="8.55728">
        <ele>1017</ele>
        <time>2021-08-10T13:40:22.071Z</time>
      </trkpt>
      <trkpt lat="46.89985" lon="8.55727">
        <ele>1017</ele>
        <time>2021-08-10T13:40:23.071Z</time>
      </trkpt>
      <trkpt lat="46.89985" lon="8.55727">
        <ele>1017</ele>
        <time>2021-08-10T13:40:24.071Z</time>
      </trkpt>
      <trkpt lat="46.89985" lon="8.55727">
        <ele>1017</ele>
        <time>2021-08-10T13:40:25.071Z</time>
      </trkpt>
      <trkpt lat="46.89985" lon="8.55726">
        <ele>1017</ele>
        <time>2021-08-10T13:40:26.071Z</time>
      </trkpt>
      <trkpt lat="46.89986" lon="8.55726">
        <ele>1017</ele>
        <time>2021-08-10T13:40:27.072Z</time>
      </trkpt>
      <trkpt lat="46.89985" lon="8.55726">
        <ele>1017</ele>
        <time>2021-08-10T13:40:28.072Z</time>
      </trkpt>
      <trkpt lat="46.89985" lon="8.55725">
        <ele>1017</ele>
        <time>2021-08-10T13:40:29.071Z</time>
      </trkpt>
      <trkpt lat="46.89984" lon="8.55725">
        <ele>1017</ele>
        <time>2021-08-10T13:40:30.071Z</time>
      </trkpt>
      <trkpt lat="46.89983" lon="8.55726">
        <ele>1017</ele>
        <time>2021-08-10T13:40:31.072Z</time>
      </trkpt>
      <trkpt lat="46.89983" lon="8.55726">
        <ele>1017</ele>
        <time>2021-08-10T13:40:32.071Z</time>
      </trkpt>
      <trkpt lat="46.89981" lon="8.55726">
        <ele>1017</ele>
        <time>2021-08-10T13:40:33.072Z</time>
      </trkpt>
      <trkpt lat="46.8998" lon="8.55727">
        <ele>1017</ele>
        <time>2021-08-10T13:40:34.071Z</time>
      </trkpt>
      <trkpt lat="46.89979" lon="8.55727">
        <ele>1017</ele>
        <time>2021-08-10T13:40:35.072Z</time>
      </trkpt>
      <trkpt lat="46.89978" lon="8.55727">
        <ele>1017</ele>
        <time>2021-08-10T13:40:36.071Z</time>
      </trkpt>
      <trkpt lat="46.89977" lon="8.55727">
        <ele>1017</ele>
        <time>2021-08-10T13:40:37.071Z</time>
      </trkpt>
      <trkpt lat="46.89977" lon="8.55727">
        <ele>1017</ele>
        <time>2021-08-10T13:40:38.072Z</time>
      </trkpt>
      <trkpt lat="46.89976" lon="8.55727">
        <ele>1017</ele>
        <time>2021-08-10T13:40:39.071Z</time>
      </trkpt>
      <trkpt lat="46.89975" lon="8.55727">
        <ele>1017</ele>
        <time>2021-08-10T13:40:40.071Z</time>
      </trkpt>
      <trkpt lat="46.89974" lon="8.55728">
        <ele>1017</ele>
        <time>2021-08-10T13:40:41.072Z</time>
      </trkpt>
      <trkpt lat="46.89973" lon="8.55728">
        <ele>1017</ele>
        <time>2021-08-10T13:40:42.072Z</time>
      </trkpt>
      <trkpt lat="46.89973" lon="8.55726">
        <ele>1017</ele>
        <time>2021-08-10T13:40:43.072Z</time>
      </trkpt>
      <trkpt lat="46.89973" lon="8.55725">
        <ele>1017</ele>
        <time>2021-08-10T13:40:44.072Z</time>
      </trkpt>
      <trkpt lat="46.89972" lon="8.55724">
        <ele>1017</ele>
        <time>2021-08-10T13:40:45.072Z</time>
      </trkpt>
      <trkpt lat="46.89972" lon="8.55723">
        <ele>1017</ele>
        <time>2021-08-10T13:40:46.072Z</time>
      </trkpt>
      <trkpt lat="46.89972" lon="8.55722">
        <ele>1017</ele>
        <time>2021-08-10T13:40:47.072Z</time>
      </trkpt>
      <trkpt lat="46.89972" lon="8.55721">
        <ele>1017</ele>
        <time>2021-08-10T13:40:48.072Z</time>
      </trkpt>
      <trkpt lat="46.89972" lon="8.5572">
        <ele>1018</ele>
        <time>2021-08-10T13:40:49.072Z</time>
      </trkpt>
      <trkpt lat="46.89972" lon="8.55721">
        <ele>1018</ele>
        <time>2021-08-10T13:40:50.071Z</time>
      </trkpt>
      <trkpt lat="46.89971" lon="8.55722">
        <ele>1018</ele>
        <time>2021-08-10T13:40:51.071Z</time>
      </trkpt>
      <trkpt lat="46.8997" lon="8.55723">
        <ele>1018</ele>
        <time>2021-08-10T13:40:52.071Z</time>
      </trkpt>
      <trkpt lat="46.89969" lon="8.55724">
        <ele>1018</ele>
        <time>2021-08-10T13:40:53.071Z</time>
      </trkpt>
      <trkpt lat="46.89968" lon="8.55724">
        <ele>1018</ele>
        <time>2021-08-10T13:40:54.071Z</time>
      </trkpt>
      <trkpt lat="46.89967" lon="8.55725">
        <ele>1018</ele>
        <time>2021-08-10T13:40:55.071Z</time>
      </trkpt>
      <trkpt lat="46.89967" lon="8.55723">
        <ele>1018</ele>
        <time>2021-08-10T13:40:56.071Z</time>
      </trkpt>
      <trkpt lat="46.89967" lon="8.55722">
        <ele>1018</ele>
        <time>2021-08-10T13:40:57.071Z</time>
      </trkpt>
      <trkpt lat="46.89967" lon="8.55721">
        <ele>1018</ele>
        <time>2021-08-10T13:40:58.071Z</time>
      </trkpt>
      <trkpt lat="46.89966" lon="8.5572">
        <ele>1018</ele>
        <time>2021-08-10T13:40:59.071Z</time>
      </trkpt>
      <trkpt lat="46.89966" lon="8.55719">
        <ele>1018</ele>
        <time>2021-08-10T13:41:00.071Z</time>
      </trkpt>
      <trkpt lat="46.89966" lon="8.55719">
        <ele>1018</ele>
        <time>2021-08-10T13:41:01.071Z</time>
      </trkpt>
      <trkpt lat="46.89965" lon="8.55719">
        <ele>1018</ele>
        <time>2021-08-10T13:41:02.072Z</time>
      </trkpt>
      <trkpt lat="46.89966" lon="8.55717">
        <ele>1018</ele>
        <time>2021-08-10T13:41:03.071Z</time>
      </trkpt>
      <trkpt lat="46.89965" lon="8.55716">
        <ele>1017</ele>
        <time>2021-08-10T13:41:04.071Z</time>
      </trkpt>
      <trkpt lat="46.89964" lon="8.55716">
        <ele>1017</ele>
        <time>2021-08-10T13:41:05.071Z</time>
      </trkpt>
      <trkpt lat="46.89963" lon="8.55715">
        <ele>1017</ele>
        <time>2021-08-10T13:41:06.072Z</time>
      </trkpt>
      <trkpt lat="46.89962" lon="8.55715">
        <ele>1016</ele>
        <time>2021-08-10T13:41:07.071Z</time>
      </trkpt>
      <trkpt lat="46.8996" lon="8.55715">
        <ele>1016</ele>
        <time>2021-08-10T13:41:08.072Z</time>
      </trkpt>
      <trkpt lat="46.89959" lon="8.55717">
        <ele>1016</ele>
        <time>2021-08-10T13:41:09.071Z</time>
      </trkpt>
      <trkpt lat="46.89957" lon="8.55718">
        <ele>1016</ele>
        <time>2021-08-10T13:41:10.072Z</time>
      </trkpt>
      <trkpt lat="46.89956" lon="8.55718">
        <ele>1016</ele>
        <time>2021-08-10T13:41:11.071Z</time>
      </trkpt>
      <trkpt lat="46.89956" lon="8.55719">
        <ele>1016</ele>
        <time>2021-08-10T13:41:12.072Z</time>
      </trkpt>
      <trkpt lat="46.89955" lon="8.5572">
        <ele>1016</ele>
        <time>2021-08-10T13:41:13.072Z</time>
      </trkpt>
      <trkpt lat="46.89954" lon="8.5572">
        <ele>1017</ele>
        <time>2021-08-10T13:41:14.072Z</time>
      </trkpt>
      <trkpt lat="46.89953" lon="8.5572">
        <ele>1017</ele>
        <time>2021-08-10T13:41:15.072Z</time>
      </trkpt>
      <trkpt lat="46.89952" lon="8.5572">
        <ele>1016</ele>
        <time>2021-08-10T13:41:16.071Z</time>
      </trkpt>
      <trkpt lat="46.89951" lon="8.55719">
        <ele>1016</ele>
        <time>2021-08-10T13:41:17.072Z</time>
      </trkpt>
      <trkpt lat="46.8995" lon="8.55719">
        <ele>1016</ele>
        <time>2021-08-10T13:41:18.071Z</time>
      </trkpt>
      <trkpt lat="46.8995" lon="8.55718">
        <ele>1016</ele>
        <time>2021-08-10T13:41:19.072Z</time>
      </trkpt>
      <trkpt lat="46.89949" lon="8.55718">
        <ele>1016</ele>
        <time>2021-08-10T13:41:20.071Z</time>
      </trkpt>
      <trkpt lat="46.89948" lon="8.55718">
        <ele>1016</ele>
        <time>2021-08-10T13:41:21.072Z</time>
      </trkpt>
      <trkpt lat="46.89946" lon="8.55718">
        <ele>1017</ele>
        <time>2021-08-10T13:41:22.072Z</time>
      </trkpt>
      <trkpt lat="46.89945" lon="8.55718">
        <ele>1017</ele>
        <time>2021-08-10T13:41:23.071Z</time>
      </trkpt>
      <trkpt lat="46.89944" lon="8.55718">
        <ele>1017</ele>
        <time>2021-08-10T13:41:24.072Z</time>
      </trkpt>
      <trkpt lat="46.89943" lon="8.55718">
        <ele>1017</ele>
        <time>2021-08-10T13:41:25.071Z</time>
      </trkpt>
      <trkpt lat="46.89941" lon="8.55718">
        <ele>1017</ele>
        <time>2021-08-10T13:41:26.071Z</time>
      </trkpt>
      <trkpt lat="46.8994" lon="8.55718">
        <ele>1017</ele>
        <time>2021-08-10T13:41:27.071Z</time>
      </trkpt>
      <trkpt lat="46.89939" lon="8.55718">
        <ele>1017</ele>
        <time>2021-08-10T13:41:28.071Z</time>
      </trkpt>
      <trkpt lat="46.89938" lon="8.55717">
        <ele>1017</ele>
        <time>2021-08-10T13:41:29.072Z</time>
      </trkpt>
      <trkpt lat="46.89936" lon="8.55715">
        <ele>1017</ele>
        <time>2021-08-10T13:41:30.071Z</time>
      </trkpt>
      <trkpt lat="46.89934" lon="8.55714">
        <ele>1018</ele>
        <time>2021-08-10T13:41:31.071Z</time>
      </trkpt>
      <trkpt lat="46.89933" lon="8.55714">
        <ele>1018</ele>
        <time>2021-08-10T13:41:32.071Z</time>
      </trkpt>
      <trkpt lat="46.89932" lon="8.55714">
        <ele>1019</ele>
        <time>2021-08-10T13:41:33.071Z</time>
      </trkpt>
      <trkpt lat="46.89931" lon="8.55714">
        <ele>1019</ele>
        <time>2021-08-10T13:41:34.072Z</time>
      </trkpt>
      <trkpt lat="46.8993" lon="8.55715">
        <ele>1020</ele>
        <time>2021-08-10T13:41:35.072Z</time>
      </trkpt>
      <trkpt lat="46.89928" lon="8.55715">
        <ele>1019</ele>
        <time>2021-08-10T13:41:36.072Z</time>
      </trkpt>
      <trkpt lat="46.89928" lon="8.55715">
        <ele>1019</ele>
        <time>2021-08-10T13:41:37.072Z</time>
      </trkpt>
      <trkpt lat="46.89927" lon="8.55715">
        <ele>1019</ele>
        <time>2021-08-10T13:41:38.072Z</time>
      </trkpt>
      <trkpt lat="46.89926" lon="8.55714">
        <ele>1018</ele>
        <time>2021-08-10T13:41:39.071Z</time>
      </trkpt>
      <trkpt lat="46.89925" lon="8.55713">
        <ele>1019</ele>
        <time>2021-08-10T13:41:40.072Z</time>
      </trkpt>
      <trkpt lat="46.89924" lon="8.55713">
        <ele>1019</ele>
        <time>2021-08-10T13:41:41.072Z</time>
      </trkpt>
      <trkpt lat="46.89923" lon="8.55713">
        <ele>1019</ele>
        <time>2021-08-10T13:41:42.072Z</time>
      </trkpt>
      <trkpt lat="46.89922" lon="8.55712">
        <ele>1020</ele>
        <time>2021-08-10T13:41:43.072Z</time>
      </trkpt>
      <trkpt lat="46.89921" lon="8.55712">
        <ele>1020</ele>
        <time>2021-08-10T13:41:44.072Z</time>
      </trkpt>
      <trkpt lat="46.8992" lon="8.55712">
        <ele>1021</ele>
        <time>2021-08-10T13:41:45.072Z</time>
      </trkpt>
      <trkpt lat="46.89919" lon="8.55711">
        <ele>1021</ele>
        <time>2021-08-10T13:41:46.072Z</time>
      </trkpt>
      <trkpt lat="46.89919" lon="8.5571">
        <ele>1022</ele>
        <time>2021-08-10T13:41:47.072Z</time>
      </trkpt>
      <trkpt lat="46.89918" lon="8.55709">
        <ele>1022</ele>
        <time>2021-08-10T13:41:48.072Z</time>
      </trkpt>
      <trkpt lat="46.89917" lon="8.55709">
        <ele>1022</ele>
        <time>2021-08-10T13:41:49.072Z</time>
      </trkpt>
      <trkpt lat="46.89917" lon="8.55708">
        <ele>1022</ele>
        <time>2021-08-10T13:41:50.072Z</time>
      </trkpt>
      <trkpt lat="46.89916" lon="8.55708">
        <ele>1022</ele>
        <time>2021-08-10T13:41:51.071Z</time>
      </trkpt>
      <trkpt lat="46.89915" lon="8.55707">
        <ele>1023</ele>
        <time>2021-08-10T13:41:52.071Z</time>
      </trkpt>
      <trkpt lat="46.89914" lon="8.55707">
        <ele>1023</ele>
        <time>2021-08-10T13:41:53.072Z</time>
      </trkpt>
      <trkpt lat="46.89913" lon="8.55706">
        <ele>1022</ele>
        <time>2021-08-10T13:41:54.071Z</time>
      </trkpt>
      <trkpt lat="46.89912" lon="8.55705">
        <ele>1022</ele>
        <time>2021-08-10T13:41:55.072Z</time>
      </trkpt>
      <trkpt lat="46.89911" lon="8.55705">
        <ele>1022</ele>
        <time>2021-08-10T13:41:56.071Z</time>
      </trkpt>
      <trkpt lat="46.8991" lon="8.55705">
        <ele>1022</ele>
        <time>2021-08-10T13:41:57.072Z</time>
      </trkpt>
      <trkpt lat="46.8991" lon="8.55705">
        <ele>1021</ele>
        <time>2021-08-10T13:41:58.071Z</time>
      </trkpt>
      <trkpt lat="46.89909" lon="8.55704">
        <ele>1021</ele>
        <time>2021-08-10T13:41:59.071Z</time>
      </trkpt>
      <trkpt lat="46.89908" lon="8.55703">
        <ele>1021</ele>
        <time>2021-08-10T13:42:00.072Z</time>
      </trkpt>
      <trkpt lat="46.89907" lon="8.55703">
        <ele>1020</ele>
        <time>2021-08-10T13:42:01.071Z</time>
      </trkpt>
      <trkpt lat="46.89906" lon="8.55702">
        <ele>1020</ele>
        <time>2021-08-10T13:42:02.071Z</time>
      </trkpt>
      <trkpt lat="46.89905" lon="8.55701">
        <ele>1019</ele>
        <time>2021-08-10T13:42:03.072Z</time>
      </trkpt>
      <trkpt lat="46.89903" lon="8.55701">
        <ele>1019</ele>
        <time>2021-08-10T13:42:04.071Z</time>
      </trkpt>
      <trkpt lat="46.89902" lon="8.55701">
        <ele>1019</ele>
        <time>2021-08-10T13:42:05.071Z</time>
      </trkpt>
      <trkpt lat="46.89901" lon="8.557">
        <ele>1019</ele>
        <time>2021-08-10T13:42:06.071Z</time>
      </trkpt>
      <trkpt lat="46.899" lon="8.55699">
        <ele>1019</ele>
        <time>2021-08-10T13:42:07.071Z</time>
      </trkpt>
      <trkpt lat="46.89899" lon="8.55699">
        <ele>1020</ele>
        <time>2021-08-10T13:42:08.072Z</time>
      </trkpt>
      <trkpt lat="46.89899" lon="8.55698">
        <ele>1020</ele>
        <time>2021-08-10T13:42:09.072Z</time>
      </trkpt>
      <trkpt lat="46.89897" lon="8.55697">
        <ele>1021</ele>
        <time>2021-08-10T13:42:10.072Z</time>
      </trkpt>
      <trkpt lat="46.89896" lon="8.55697">
        <ele>1021</ele>
        <time>2021-08-10T13:42:11.071Z</time>
      </trkpt>
      <trkpt lat="46.89895" lon="8.55697">
        <ele>1021</ele>
        <time>2021-08-10T13:42:12.072Z</time>
      </trkpt>
      <trkpt lat="46.89894" lon="8.55698">
        <ele>1021</ele>
        <time>2021-08-10T13:42:13.072Z</time>
      </trkpt>
      <trkpt lat="46.89893" lon="8.55699">
        <ele>1021</ele>
        <time>2021-08-10T13:42:14.072Z</time>
      </trkpt>
      <trkpt lat="46.89893" lon="8.55699">
        <ele>1021</ele>
        <time>2021-08-10T13:42:15.071Z</time>
      </trkpt>
      <trkpt lat="46.89892" lon="8.55699">
        <ele>1022</ele>
        <time>2021-08-10T13:42:16.072Z</time>
      </trkpt>
      <trkpt lat="46.89892" lon="8.55698">
        <ele>1022</ele>
        <time>2021-08-10T13:42:17.072Z</time>
      </trkpt>
      <trkpt lat="46.89891" lon="8.55697">
        <ele>1022</ele>
        <time>2021-08-10T13:42:18.071Z</time>
      </trkpt>
      <trkpt lat="46.8989" lon="8.55696">
        <ele>1023</ele>
        <time>2021-08-10T13:42:19.071Z</time>
      </trkpt>
      <trkpt lat="46.8989" lon="8.55696">
        <ele>1023</ele>
        <time>2021-08-10T13:42:20.072Z</time>
      </trkpt>
      <trkpt lat="46.89888" lon="8.55696">
        <ele>1024</ele>
        <time>2021-08-10T13:42:21.072Z</time>
      </trkpt>
      <trkpt lat="46.89887" lon="8.55695">
        <ele>1024</ele>
        <time>2021-08-10T13:42:22.071Z</time>
      </trkpt>
      <trkpt lat="46.89887" lon="8.55694">
        <ele>1024</ele>
        <time>2021-08-10T13:42:23.072Z</time>
      </trkpt>
      <trkpt lat="46.89886" lon="8.55694">
        <ele>1024</ele>
        <time>2021-08-10T13:42:24.071Z</time>
      </trkpt>
      <trkpt lat="46.89885" lon="8.55694">
        <ele>1024</ele>
        <time>2021-08-10T13:42:25.072Z</time>
      </trkpt>
      <trkpt lat="46.89884" lon="8.55694">
        <ele>1024</ele>
        <time>2021-08-10T13:42:26.071Z</time>
      </trkpt>
      <trkpt lat="46.89884" lon="8.55693">
        <ele>1024</ele>
        <time>2021-08-10T13:42:27.072Z</time>
      </trkpt>
      <trkpt lat="46.89884" lon="8.55693">
        <ele>1024</ele>
        <time>2021-08-10T13:42:28.072Z</time>
      </trkpt>
      <trkpt lat="46.89883" lon="8.55693">
        <ele>1024</ele>
        <time>2021-08-10T13:42:29.072Z</time>
      </trkpt>
      <trkpt lat="46.89882" lon="8.55693">
        <ele>1023</ele>
        <time>2021-08-10T13:42:30.072Z</time>
      </trkpt>
      <trkpt lat="46.89882" lon="8.55693">
        <ele>1022</ele>
        <time>2021-08-10T13:42:31.071Z</time>
      </trkpt>
      <trkpt lat="46.89881" lon="8.55694">
        <ele>1022</ele>
        <time>2021-08-10T13:42:32.071Z</time>
      </trkpt>
      <trkpt lat="46.8988" lon="8.55694">
        <ele>1022</ele>
        <time>2021-08-10T13:42:33.072Z</time>
      </trkpt>
      <trkpt lat="46.89879" lon="8.55696">
        <ele>1021</ele>
        <time>2021-08-10T13:42:34.072Z</time>
      </trkpt>
      <trkpt lat="46.89878" lon="8.55697">
        <ele>1021</ele>
        <time>2021-08-10T13:42:35.071Z</time>
      </trkpt>
      <trkpt lat="46.89877" lon="8.55697">
        <ele>1021</ele>
        <time>2021-08-10T13:42:36.071Z</time>
      </trkpt>
      <trkpt lat="46.89875" lon="8.55697">
        <ele>1021</ele>
        <time>2021-08-10T13:42:37.072Z</time>
      </trkpt>
      <trkpt lat="46.89874" lon="8.55697">
        <ele>1021</ele>
        <time>2021-08-10T13:42:38.072Z</time>
      </trkpt>
      <trkpt lat="46.89873" lon="8.55696">
        <ele>1021</ele>
        <time>2021-08-10T13:42:39.072Z</time>
      </trkpt>
      <trkpt lat="46.89872" lon="8.55696">
        <ele>1022</ele>
        <time>2021-08-10T13:42:40.071Z</time>
      </trkpt>
      <trkpt lat="46.89871" lon="8.55696">
        <ele>1022</ele>
        <time>2021-08-10T13:42:41.072Z</time>
      </trkpt>
      <trkpt lat="46.89872" lon="8.55695">
        <ele>1022</ele>
        <time>2021-08-10T13:42:42.072Z</time>
      </trkpt>
      <trkpt lat="46.89872" lon="8.55695">
        <ele>1023</ele>
        <time>2021-08-10T13:42:43.072Z</time>
      </trkpt>
      <trkpt lat="46.89871" lon="8.55694">
        <ele>1023</ele>
        <time>2021-08-10T13:42:44.072Z</time>
      </trkpt>
      <trkpt lat="46.89868" lon="8.55696">
        <ele>1023</ele>
        <time>2021-08-10T13:42:45.071Z</time>
      </trkpt>
      <trkpt lat="46.89867" lon="8.55695">
        <ele>1024</ele>
        <time>2021-08-10T13:42:46.072Z</time>
      </trkpt>
      <trkpt lat="46.89866" lon="8.55695">
        <ele>1024</ele>
        <time>2021-08-10T13:42:47.072Z</time>
      </trkpt>
      <trkpt lat="46.89864" lon="8.55695">
        <ele>1024</ele>
        <time>2021-08-10T13:42:49.104Z</time>
      </trkpt>
      <trkpt lat="46.89863" lon="8.55695">
        <ele>1024</ele>
        <time>2021-08-10T13:42:50.943Z</time>
      </trkpt>
      <trkpt lat="46.89861" lon="8.55694">
        <ele>1024</ele>
        <time>2021-08-10T13:42:51.943Z</time>
      </trkpt>
      <trkpt lat="46.89861" lon="8.55693">
        <ele>1024</ele>
        <time>2021-08-10T13:42:53.856Z</time>
      </trkpt>
      <trkpt lat="46.89859" lon="8.55693">
        <ele>1025</ele>
        <time>2021-08-10T13:42:54.856Z</time>
      </trkpt>
      <trkpt lat="46.89858" lon="8.55693">
        <ele>1025</ele>
        <time>2021-08-10T13:42:55.855Z</time>
      </trkpt>
      <trkpt lat="46.89857" lon="8.55692">
        <ele>1025</ele>
        <time>2021-08-10T13:42:56.855Z</time>
      </trkpt>
      <trkpt lat="46.89857" lon="8.55691">
        <ele>1025</ele>
        <time>2021-08-10T13:42:57.855Z</time>
      </trkpt>
      <trkpt lat="46.89856" lon="8.55692">
        <ele>1026</ele>
        <time>2021-08-10T13:42:58.856Z</time>
      </trkpt>
      <trkpt lat="46.89855" lon="8.55692">
        <ele>1026</ele>
        <time>2021-08-10T13:42:59.855Z</time>
      </trkpt>
      <trkpt lat="46.89854" lon="8.55693">
        <ele>1026</ele>
        <time>2021-08-10T13:43:00.855Z</time>
      </trkpt>
      <trkpt lat="46.89852" lon="8.55693">
        <ele>1026</ele>
        <time>2021-08-10T13:43:01.856Z</time>
      </trkpt>
      <trkpt lat="46.89851" lon="8.55693">
        <ele>1026</ele>
        <time>2021-08-10T13:43:02.855Z</time>
      </trkpt>
      <trkpt lat="46.89851" lon="8.55693">
        <ele>1026</ele>
        <time>2021-08-10T13:43:03.856Z</time>
      </trkpt>
      <trkpt lat="46.8985" lon="8.55693">
        <ele>1027</ele>
        <time>2021-08-10T13:43:04.855Z</time>
      </trkpt>
      <trkpt lat="46.89849" lon="8.55692">
        <ele>1027</ele>
        <time>2021-08-10T13:43:05.856Z</time>
      </trkpt>
      <trkpt lat="46.8985" lon="8.55689">
        <ele>1027</ele>
        <time>2021-08-10T13:43:06.856Z</time>
      </trkpt>
      <trkpt lat="46.89851" lon="8.55686">
        <ele>1027</ele>
        <time>2021-08-10T13:43:07.856Z</time>
      </trkpt>
      <trkpt lat="46.89851" lon="8.55684">
        <ele>1028</ele>
        <time>2021-08-10T13:43:08.855Z</time>
      </trkpt>
      <trkpt lat="46.89852" lon="8.55682">
        <ele>1028</ele>
        <time>2021-08-10T13:43:09.856Z</time>
      </trkpt>
      <trkpt lat="46.89853" lon="8.55679">
        <ele>1028</ele>
        <time>2021-08-10T13:43:10.856Z</time>
      </trkpt>
      <trkpt lat="46.89855" lon="8.55677">
        <ele>1028</ele>
        <time>2021-08-10T13:43:11.856Z</time>
      </trkpt>
      <trkpt lat="46.89854" lon="8.55677">
        <ele>1028</ele>
        <time>2021-08-10T13:43:12.855Z</time>
      </trkpt>
      <trkpt lat="46.89852" lon="8.55678">
        <ele>1029</ele>
        <time>2021-08-10T13:43:13.856Z</time>
      </trkpt>
      <trkpt lat="46.89849" lon="8.55679">
        <ele>1029</ele>
        <time>2021-08-10T13:43:14.856Z</time>
      </trkpt>
      <trkpt lat="46.89849" lon="8.55679">
        <ele>1030</ele>
        <time>2021-08-10T13:43:15.856Z</time>
      </trkpt>
      <trkpt lat="46.89849" lon="8.55678">
        <ele>1030</ele>
        <time>2021-08-10T13:43:16.856Z</time>
      </trkpt>
      <trkpt lat="46.89849" lon="8.55677">
        <ele>1031</ele>
        <time>2021-08-10T13:43:17.855Z</time>
      </trkpt>
      <trkpt lat="46.89849" lon="8.55677">
        <ele>1031</ele>
        <time>2021-08-10T13:43:18.855Z</time>
      </trkpt>
      <trkpt lat="46.89848" lon="8.55677">
        <ele>1031</ele>
        <time>2021-08-10T13:43:19.855Z</time>
      </trkpt>
      <trkpt lat="46.89847" lon="8.55678">
        <ele>1032</ele>
        <time>2021-08-10T13:43:20.855Z</time>
      </trkpt>
      <trkpt lat="46.89846" lon="8.55678">
        <ele>1032</ele>
        <time>2021-08-10T13:43:21.855Z</time>
      </trkpt>
      <trkpt lat="46.89846" lon="8.55678">
        <ele>1033</ele>
        <time>2021-08-10T13:43:22.855Z</time>
      </trkpt>
      <trkpt lat="46.89846" lon="8.55678">
        <ele>1033</ele>
        <time>2021-08-10T13:43:23.856Z</time>
      </trkpt>
      <trkpt lat="46.89846" lon="8.55678">
        <ele>1033</ele>
        <time>2021-08-10T13:43:24.855Z</time>
      </trkpt>
      <trkpt lat="46.89846" lon="8.55678">
        <ele>1033</ele>
        <time>2021-08-10T13:43:25.856Z</time>
      </trkpt>
      <trkpt lat="46.89847" lon="8.55677">
        <ele>1034</ele>
        <time>2021-08-10T13:43:26.855Z</time>
      </trkpt>
      <trkpt lat="46.89847" lon="8.55675">
        <ele>1034</ele>
        <time>2021-08-10T13:43:27.855Z</time>
      </trkpt>
      <trkpt lat="46.89847" lon="8.55674">
        <ele>1034</ele>
        <time>2021-08-10T13:43:28.855Z</time>
      </trkpt>
      <trkpt lat="46.89846" lon="8.55674">
        <ele>1034</ele>
        <time>2021-08-10T13:43:29.855Z</time>
      </trkpt>
      <trkpt lat="46.89845" lon="8.55674">
        <ele>1034</ele>
        <time>2021-08-10T13:43:30.855Z</time>
      </trkpt>
      <trkpt lat="46.89843" lon="8.55675">
        <ele>1035</ele>
        <time>2021-08-10T13:43:31.856Z</time>
      </trkpt>
      <trkpt lat="46.89842" lon="8.55675">
        <ele>1035</ele>
        <time>2021-08-10T13:43:32.856Z</time>
      </trkpt>
      <trkpt lat="46.89841" lon="8.55676">
        <ele>1035</ele>
        <time>2021-08-10T13:43:33.855Z</time>
      </trkpt>
      <trkpt lat="46.89839" lon="8.55679">
        <ele>1035</ele>
        <time>2021-08-10T13:43:34.856Z</time>
      </trkpt>
      <trkpt lat="46.89837" lon="8.5568">
        <ele>1034</ele>
        <time>2021-08-10T13:43:35.856Z</time>
      </trkpt>
      <trkpt lat="46.89837" lon="8.55681">
        <ele>1034</ele>
        <time>2021-08-10T13:43:36.856Z</time>
      </trkpt>
      <trkpt lat="46.89836" lon="8.55681">
        <ele>1034</ele>
        <time>2021-08-10T13:43:37.855Z</time>
      </trkpt>
      <trkpt lat="46.89836" lon="8.55681">
        <ele>1034</ele>
        <time>2021-08-10T13:43:38.855Z</time>
      </trkpt>
      <trkpt lat="46.89835" lon="8.55681">
        <ele>1034</ele>
        <time>2021-08-10T13:43:39.856Z</time>
      </trkpt>
      <trkpt lat="46.89834" lon="8.55681">
        <ele>1034</ele>
        <time>2021-08-10T13:43:40.855Z</time>
      </trkpt>
      <trkpt lat="46.89833" lon="8.55681">
        <ele>1034</ele>
        <time>2021-08-10T13:43:41.856Z</time>
      </trkpt>
      <trkpt lat="46.89833" lon="8.5568">
        <ele>1034</ele>
        <time>2021-08-10T13:43:42.855Z</time>
      </trkpt>
      <trkpt lat="46.89832" lon="8.5568">
        <ele>1034</ele>
        <time>2021-08-10T13:43:43.855Z</time>
      </trkpt>
      <trkpt lat="46.89831" lon="8.55681">
        <ele>1033</ele>
        <time>2021-08-10T13:43:44.856Z</time>
      </trkpt>
      <trkpt lat="46.89828" lon="8.55683">
        <ele>1033</ele>
        <time>2021-08-10T13:43:45.856Z</time>
      </trkpt>
      <trkpt lat="46.89824" lon="8.55685">
        <ele>1033</ele>
        <time>2021-08-10T13:43:46.855Z</time>
      </trkpt>
      <trkpt lat="46.89821" lon="8.55686">
        <ele>1033</ele>
        <time>2021-08-10T13:43:47.856Z</time>
      </trkpt>
      <trkpt lat="46.89821" lon="8.55686">
        <ele>1033</ele>
        <time>2021-08-10T13:43:48.855Z</time>
      </trkpt>
      <trkpt lat="46.8982" lon="8.55686">
        <ele>1034</ele>
        <time>2021-08-10T13:43:49.855Z</time>
      </trkpt>
      <trkpt lat="46.89819" lon="8.55686">
        <ele>1034</ele>
        <time>2021-08-10T13:43:50.856Z</time>
      </trkpt>
      <trkpt lat="46.89818" lon="8.55687">
        <ele>1034</ele>
        <time>2021-08-10T13:43:51.855Z</time>
      </trkpt>
      <trkpt lat="46.89818" lon="8.55687">
        <ele>1034</ele>
        <time>2021-08-10T13:43:52.856Z</time>
      </trkpt>
      <trkpt lat="46.89818" lon="8.55687">
        <ele>1034</ele>
        <time>2021-08-10T13:43:53.856Z</time>
      </trkpt>
      <trkpt lat="46.89818" lon="8.55689">
        <ele>1034</ele>
        <time>2021-08-10T13:43:54.857Z</time>
      </trkpt>
      <trkpt lat="46.8982" lon="8.55688">
        <ele>1034</ele>
        <time>2021-08-10T13:43:55.856Z</time>
      </trkpt>
      <trkpt lat="46.89821" lon="8.55688">
        <ele>1034</ele>
        <time>2021-08-10T13:43:56.856Z</time>
      </trkpt>
      <trkpt lat="46.8982" lon="8.55689">
        <ele>1034</ele>
        <time>2021-08-10T13:43:57.856Z</time>
      </trkpt>
      <trkpt lat="46.89818" lon="8.5569">
        <ele>1034</ele>
        <time>2021-08-10T13:43:58.858Z</time>
      </trkpt>
      <trkpt lat="46.89817" lon="8.55691">
        <ele>1034</ele>
        <time>2021-08-10T13:43:59.857Z</time>
      </trkpt>
      <trkpt lat="46.89815" lon="8.55692">
        <ele>1034</ele>
        <time>2021-08-10T13:44:00.857Z</time>
      </trkpt>
      <trkpt lat="46.89814" lon="8.55693">
        <ele>1034</ele>
        <time>2021-08-10T13:44:01.858Z</time>
      </trkpt>
      <trkpt lat="46.89814" lon="8.55694">
        <ele>1034</ele>
        <time>2021-08-10T13:44:02.858Z</time>
      </trkpt>
      <trkpt lat="46.89813" lon="8.55694">
        <ele>1034</ele>
        <time>2021-08-10T13:44:03.857Z</time>
      </trkpt>
      <trkpt lat="46.89812" lon="8.55696">
        <ele>1034</ele>
        <time>2021-08-10T13:44:04.858Z</time>
      </trkpt>
      <trkpt lat="46.89811" lon="8.55697">
        <ele>1034</ele>
        <time>2021-08-10T13:44:05.858Z</time>
      </trkpt>
      <trkpt lat="46.8981" lon="8.55699">
        <ele>1034</ele>
        <time>2021-08-10T13:44:06.858Z</time>
      </trkpt>
      <trkpt lat="46.89808" lon="8.55702">
        <ele>1034</ele>
        <time>2021-08-10T13:44:07.858Z</time>
      </trkpt>
      <trkpt lat="46.89807" lon="8.55703">
        <ele>1034</ele>
        <time>2021-08-10T13:44:08.857Z</time>
      </trkpt>
      <trkpt lat="46.89805" lon="8.55704">
        <ele>1034</ele>
        <time>2021-08-10T13:44:09.858Z</time>
      </trkpt>
      <trkpt lat="46.89803" lon="8.55704">
        <ele>1034</ele>
        <time>2021-08-10T13:44:10.858Z</time>
      </trkpt>
      <trkpt lat="46.89801" lon="8.55705">
        <ele>1034</ele>
        <time>2021-08-10T13:44:11.858Z</time>
      </trkpt>
      <trkpt lat="46.898" lon="8.55706">
        <ele>1035</ele>
        <time>2021-08-10T13:44:12.858Z</time>
      </trkpt>
      <trkpt lat="46.898" lon="8.55707">
        <ele>1035</ele>
        <time>2021-08-10T13:44:13.858Z</time>
      </trkpt>
      <trkpt lat="46.898" lon="8.55705">
        <ele>1036</ele>
        <time>2021-08-10T13:44:14.857Z</time>
      </trkpt>
      <trkpt lat="46.89801" lon="8.55704">
        <ele>1036</ele>
        <time>2021-08-10T13:44:15.858Z</time>
      </trkpt>
      <trkpt lat="46.89801" lon="8.55704">
        <ele>1036</ele>
        <time>2021-08-10T13:44:16.857Z</time>
      </trkpt>
      <trkpt lat="46.89807" lon="8.55698">
        <ele>1034</ele>
        <time>2021-08-10T13:44:17.857Z</time>
      </trkpt>
      <trkpt lat="46.89808" lon="8.55698">
        <ele>1034</ele>
        <time>2021-08-10T13:44:18.858Z</time>
      </trkpt>
      <trkpt lat="46.89812" lon="8.55699">
        <ele>1034</ele>
        <time>2021-08-10T13:44:19.857Z</time>
      </trkpt>
      <trkpt lat="46.8982" lon="8.55693">
        <ele>1036</ele>
        <time>2021-08-10T13:44:20.858Z</time>
      </trkpt>
      <trkpt lat="46.89819" lon="8.55693">
        <ele>1036</ele>
        <time>2021-08-10T13:44:21.857Z</time>
      </trkpt>
      <trkpt lat="46.89817" lon="8.55694">
        <ele>1035</ele>
        <time>2021-08-10T13:44:22.858Z</time>
      </trkpt>
      <trkpt lat="46.89817" lon="8.55692">
        <ele>1035</ele>
        <time>2021-08-10T13:44:23.858Z</time>
      </trkpt>
      <trkpt lat="46.89816" lon="8.55692">
        <ele>1035</ele>
        <time>2021-08-10T13:44:24.857Z</time>
      </trkpt>
      <trkpt lat="46.89817" lon="8.5569">
        <ele>1035</ele>
        <time>2021-08-10T13:44:25.858Z</time>
      </trkpt>
      <trkpt lat="46.89817" lon="8.5569">
        <ele>1035</ele>
        <time>2021-08-10T13:44:26.858Z</time>
      </trkpt>
      <trkpt lat="46.89818" lon="8.55689">
        <ele>1036</ele>
        <time>2021-08-10T13:44:27.858Z</time>
      </trkpt>
      <trkpt lat="46.89817" lon="8.5569">
        <ele>1036</ele>
        <time>2021-08-10T13:44:28.858Z</time>
      </trkpt>
      <trkpt lat="46.89817" lon="8.5569">
        <ele>1036</ele>
        <time>2021-08-10T13:44:29.858Z</time>
      </trkpt>
      <trkpt lat="46.89817" lon="8.5569">
        <ele>1036</ele>
        <time>2021-08-10T13:44:30.858Z</time>
      </trkpt>
      <trkpt lat="46.89815" lon="8.55691">
        <ele>1036</ele>
        <time>2021-08-10T13:44:31.858Z</time>
      </trkpt>
      <trkpt lat="46.89815" lon="8.55691">
        <ele>1036</ele>
        <time>2021-08-10T13:44:32.858Z</time>
      </trkpt>
      <trkpt lat="46.89815" lon="8.55691">
        <ele>1035</ele>
        <time>2021-08-10T13:44:33.859Z</time>
      </trkpt>
      <trkpt lat="46.89815" lon="8.55692">
        <ele>1035</ele>
        <time>2021-08-10T13:44:34.858Z</time>
      </trkpt>
      <trkpt lat="46.89815" lon="8.55693">
        <ele>1035</ele>
        <time>2021-08-10T13:44:35.859Z</time>
      </trkpt>
      <trkpt lat="46.89814" lon="8.55694">
        <ele>1034</ele>
        <time>2021-08-10T13:44:36.859Z</time>
      </trkpt>
      <trkpt lat="46.89811" lon="8.55693">
        <ele>1033</ele>
        <time>2021-08-10T13:44:37.860Z</time>
      </trkpt>
      <trkpt lat="46.89811" lon="8.55692">
        <ele>1034</ele>
        <time>2021-08-10T13:44:38.859Z</time>
      </trkpt>
      <trkpt lat="46.89811" lon="8.5569">
        <ele>1034</ele>
        <time>2021-08-10T13:44:39.860Z</time>
      </trkpt>
      <trkpt lat="46.8981" lon="8.55689">
        <ele>1034</ele>
        <time>2021-08-10T13:44:40.860Z</time>
      </trkpt>
      <trkpt lat="46.89809" lon="8.55689">
        <ele>1034</ele>
        <time>2021-08-10T13:44:41.859Z</time>
      </trkpt>
      <trkpt lat="46.89807" lon="8.5569">
        <ele>1034</ele>
        <time>2021-08-10T13:44:42.860Z</time>
      </trkpt>
      <trkpt lat="46.89806" lon="8.55691">
        <ele>1034</ele>
        <time>2021-08-10T13:44:43.860Z</time>
      </trkpt>
      <trkpt lat="46.89805" lon="8.55693">
        <ele>1034</ele>
        <time>2021-08-10T13:44:44.860Z</time>
      </trkpt>
      <trkpt lat="46.89806" lon="8.55693">
        <ele>1034</ele>
        <time>2021-08-10T13:44:45.860Z</time>
      </trkpt>
      <trkpt lat="46.89806" lon="8.55694">
        <ele>1033</ele>
        <time>2021-08-10T13:44:46.860Z</time>
      </trkpt>
      <trkpt lat="46.89807" lon="8.55694">
        <ele>1033</ele>
        <time>2021-08-10T13:44:47.860Z</time>
      </trkpt>
      <trkpt lat="46.89808" lon="8.55694">
        <ele>1032</ele>
        <time>2021-08-10T13:44:48.860Z</time>
      </trkpt>
      <trkpt lat="46.89813" lon="8.55691">
        <ele>1027</ele>
        <time>2021-08-10T13:44:49.860Z</time>
      </trkpt>
      <trkpt lat="46.89813" lon="8.55691">
        <ele>1028</ele>
        <time>2021-08-10T13:44:50.859Z</time>
      </trkpt>
      <trkpt lat="46.89813" lon="8.55691">
        <ele>1028</ele>
        <time>2021-08-10T13:44:51.860Z</time>
      </trkpt>
      <trkpt lat="46.89814" lon="8.5569">
        <ele>1031</ele>
        <time>2021-08-10T13:44:52.861Z</time>
      </trkpt>
      <trkpt lat="46.89816" lon="8.55689">
        <ele>1032</ele>
        <time>2021-08-10T13:44:53.860Z</time>
      </trkpt>
      <trkpt lat="46.89816" lon="8.55689">
        <ele>1033</ele>
        <time>2021-08-10T13:44:54.860Z</time>
      </trkpt>
      <trkpt lat="46.89817" lon="8.55689">
        <ele>1033</ele>
        <time>2021-08-10T13:44:55.860Z</time>
      </trkpt>
      <trkpt lat="46.89817" lon="8.55689">
        <ele>1033</ele>
        <time>2021-08-10T13:44:56.860Z</time>
      </trkpt>
      <trkpt lat="46.89817" lon="8.55689">
        <ele>1034</ele>
        <time>2021-08-10T13:44:57.861Z</time>
      </trkpt>
      <trkpt lat="46.89816" lon="8.55689">
        <ele>1035</ele>
        <time>2021-08-10T13:44:58.861Z</time>
      </trkpt>
      <trkpt lat="46.89815" lon="8.55689">
        <ele>1035</ele>
        <time>2021-08-10T13:44:59.860Z</time>
      </trkpt>
      <trkpt lat="46.89815" lon="8.55689">
        <ele>1036</ele>
        <time>2021-08-10T13:45:00.861Z</time>
      </trkpt>
      <trkpt lat="46.89814" lon="8.55689">
        <ele>1036</ele>
        <time>2021-08-10T13:45:01.860Z</time>
      </trkpt>
      <trkpt lat="46.89813" lon="8.5569">
        <ele>1037</ele>
        <time>2021-08-10T13:45:02.860Z</time>
      </trkpt>
      <trkpt lat="46.89813" lon="8.5569">
        <ele>1037</ele>
        <time>2021-08-10T13:45:03.861Z</time>
      </trkpt>
      <trkpt lat="46.89813" lon="8.5569">
        <ele>1037</ele>
        <time>2021-08-10T13:45:04.860Z</time>
      </trkpt>
      <trkpt lat="46.89813" lon="8.5569">
        <ele>1037</ele>
        <time>2021-08-10T13:45:05.860Z</time>
      </trkpt>
      <trkpt lat="46.89813" lon="8.5569">
        <ele>1036</ele>
        <time>2021-08-10T13:45:06.860Z</time>
      </trkpt>
      <trkpt lat="46.89814" lon="8.5569">
        <ele>1036</ele>
        <time>2021-08-10T13:45:07.860Z</time>
      </trkpt>
      <trkpt lat="46.89811" lon="8.55689">
        <ele>1051</ele>
        <time>2021-08-10T13:45:08.863Z</time>
      </trkpt>
      <trkpt lat="46.89812" lon="8.55688">
        <ele>1051</ele>
        <time>2021-08-10T13:45:09.862Z</time>
      </trkpt>
      <trkpt lat="46.89812" lon="8.55684">
        <ele>1048</ele>
        <time>2021-08-10T13:45:10.862Z</time>
      </trkpt>
      <trkpt lat="46.89811" lon="8.55685">
        <ele>1047</ele>
        <time>2021-08-10T13:45:11.862Z</time>
      </trkpt>
      <trkpt lat="46.89811" lon="8.55684">
        <ele>1047</ele>
        <time>2021-08-10T13:45:12.862Z</time>
      </trkpt>
      <trkpt lat="46.89811" lon="8.55682">
        <ele>1047</ele>
        <time>2021-08-10T13:45:13.863Z</time>
      </trkpt>
      <trkpt lat="46.8981" lon="8.55681">
        <ele>1047</ele>
        <time>2021-08-10T13:45:14.862Z</time>
      </trkpt>
      <trkpt lat="46.8981" lon="8.5568">
        <ele>1046</ele>
        <time>2021-08-10T13:45:15.863Z</time>
      </trkpt>
      <trkpt lat="46.89809" lon="8.5568">
        <ele>1046</ele>
        <time>2021-08-10T13:45:16.863Z</time>
      </trkpt>
      <trkpt lat="46.89809" lon="8.5568">
        <ele>1046</ele>
        <time>2021-08-10T13:45:17.863Z</time>
      </trkpt>
      <trkpt lat="46.89809" lon="8.55679">
        <ele>1045</ele>
        <time>2021-08-10T13:45:18.863Z</time>
      </trkpt>
      <trkpt lat="46.89809" lon="8.55679">
        <ele>1043</ele>
        <time>2021-08-10T13:45:19.863Z</time>
      </trkpt>
      <trkpt lat="46.89809" lon="8.55678">
        <ele>1042</ele>
        <time>2021-08-10T13:45:20.863Z</time>
      </trkpt>
      <trkpt lat="46.89809" lon="8.55678">
        <ele>1042</ele>
        <time>2021-08-10T13:45:21.864Z</time>
      </trkpt>
      <trkpt lat="46.89809" lon="8.55677">
        <ele>1041</ele>
        <time>2021-08-10T13:45:22.864Z</time>
      </trkpt>
      <trkpt lat="46.89809" lon="8.55677">
        <ele>1040</ele>
        <time>2021-08-10T13:45:23.864Z</time>
      </trkpt>
      <trkpt lat="46.89809" lon="8.55676">
        <ele>1039</ele>
        <time>2021-08-10T13:45:24.865Z</time>
      </trkpt>
      <trkpt lat="46.89809" lon="8.55676">
        <ele>1038</ele>
        <time>2021-08-10T13:45:25.865Z</time>
      </trkpt>
      <trkpt lat="46.89808" lon="8.55676">
        <ele>1037</ele>
        <time>2021-08-10T13:45:26.865Z</time>
      </trkpt>
      <trkpt lat="46.89807" lon="8.55677">
        <ele>1037</ele>
        <time>2021-08-10T13:45:27.865Z</time>
      </trkpt>
      <trkpt lat="46.89806" lon="8.55678">
        <ele>1037</ele>
        <time>2021-08-10T13:45:28.865Z</time>
      </trkpt>
      <trkpt lat="46.89805" lon="8.55678">
        <ele>1037</ele>
        <time>2021-08-10T13:45:29.865Z</time>
      </trkpt>
      <trkpt lat="46.89804" lon="8.55678">
        <ele>1037</ele>
        <time>2021-08-10T13:45:30.865Z</time>
      </trkpt>
      <trkpt lat="46.89804" lon="8.55678">
        <ele>1037</ele>
        <time>2021-08-10T13:45:31.865Z</time>
      </trkpt>
      <trkpt lat="46.89803" lon="8.55678">
        <ele>1037</ele>
        <time>2021-08-10T13:45:32.865Z</time>
      </trkpt>
      <trkpt lat="46.89803" lon="8.55677">
        <ele>1037</ele>
        <time>2021-08-10T13:45:33.865Z</time>
      </trkpt>
      <trkpt lat="46.89803" lon="8.55677">
        <ele>1037</ele>
        <time>2021-08-10T13:45:34.866Z</time>
      </trkpt>
      <trkpt lat="46.89802" lon="8.55677">
        <ele>1037</ele>
        <time>2021-08-10T13:45:35.865Z</time>
      </trkpt>
      <trkpt lat="46.89802" lon="8.55677">
        <ele>1038</ele>
        <time>2021-08-10T13:45:36.866Z</time>
      </trkpt>
      <trkpt lat="46.89801" lon="8.55677">
        <ele>1038</ele>
        <time>2021-08-10T13:45:37.865Z</time>
      </trkpt>
      <trkpt lat="46.89801" lon="8.55677">
        <ele>1039</ele>
        <time>2021-08-10T13:45:38.866Z</time>
      </trkpt>
      <trkpt lat="46.89801" lon="8.55677">
        <ele>1040</ele>
        <time>2021-08-10T13:45:39.866Z</time>
      </trkpt>
      <trkpt lat="46.898" lon="8.55677">
        <ele>1040</ele>
        <time>2021-08-10T13:45:40.866Z</time>
      </trkpt>
      <trkpt lat="46.89799" lon="8.55677">
        <ele>1041</ele>
        <time>2021-08-10T13:45:41.865Z</time>
      </trkpt>
      <trkpt lat="46.89799" lon="8.55677">
        <ele>1041</ele>
        <time>2021-08-10T13:45:42.865Z</time>
      </trkpt>
      <trkpt lat="46.89798" lon="8.55676">
        <ele>1042</ele>
        <time>2021-08-10T13:45:43.865Z</time>
      </trkpt>
      <trkpt lat="46.89798" lon="8.55676">
        <ele>1042</ele>
        <time>2021-08-10T13:45:44.866Z</time>
      </trkpt>
      <trkpt lat="46.89793" lon="8.55677">
        <ele>1045</ele>
        <time>2021-08-10T13:45:45.866Z</time>
      </trkpt>
      <trkpt lat="46.89792" lon="8.55677">
        <ele>1045</ele>
        <time>2021-08-10T13:45:46.867Z</time>
      </trkpt>
      <trkpt lat="46.89791" lon="8.55677">
        <ele>1046</ele>
        <time>2021-08-10T13:45:47.867Z</time>
      </trkpt>
      <trkpt lat="46.89791" lon="8.55675">
        <ele>1047</ele>
        <time>2021-08-10T13:45:48.866Z</time>
      </trkpt>
      <trkpt lat="46.89791" lon="8.55674">
        <ele>1047</ele>
        <time>2021-08-10T13:45:49.866Z</time>
      </trkpt>
      <trkpt lat="46.8979" lon="8.55673">
        <ele>1048</ele>
        <time>2021-08-10T13:45:50.866Z</time>
      </trkpt>
      <trkpt lat="46.8979" lon="8.55672">
        <ele>1048</ele>
        <time>2021-08-10T13:45:53.002Z</time>
      </trkpt>
      <trkpt lat="46.8979" lon="8.55672">
        <ele>1049</ele>
        <time>2021-08-10T13:45:54.003Z</time>
      </trkpt>
      <trkpt lat="46.8979" lon="8.55671">
        <ele>1049</ele>
        <time>2021-08-10T13:45:55.002Z</time>
      </trkpt>
      <trkpt lat="46.8979" lon="8.5567">
        <ele>1050</ele>
        <time>2021-08-10T13:45:56.003Z</time>
      </trkpt>
      <trkpt lat="46.89789" lon="8.55669">
        <ele>1050</ele>
        <time>2021-08-10T13:45:57.002Z</time>
      </trkpt>
      <trkpt lat="46.89788" lon="8.55668">
        <ele>1051</ele>
        <time>2021-08-10T13:45:58.002Z</time>
      </trkpt>
      <trkpt lat="46.89788" lon="8.55668">
        <ele>1052</ele>
        <time>2021-08-10T13:45:59.002Z</time>
      </trkpt>
      <trkpt lat="46.89787" lon="8.55667">
        <ele>1052</ele>
        <time>2021-08-10T13:46:00.002Z</time>
      </trkpt>
      <trkpt lat="46.89787" lon="8.55667">
        <ele>1053</ele>
        <time>2021-08-10T13:46:01.003Z</time>
      </trkpt>
      <trkpt lat="46.89786" lon="8.55668">
        <ele>1053</ele>
        <time>2021-08-10T13:46:02.003Z</time>
      </trkpt>
      <trkpt lat="46.89784" lon="8.55669">
        <ele>1053</ele>
        <time>2021-08-10T13:46:03.002Z</time>
      </trkpt>
      <trkpt lat="46.89785" lon="8.55668">
        <ele>1053</ele>
        <time>2021-08-10T13:46:04.002Z</time>
      </trkpt>
      <trkpt lat="46.89785" lon="8.55666">
        <ele>1053</ele>
        <time>2021-08-10T13:46:05.002Z</time>
      </trkpt>
      <trkpt lat="46.89785" lon="8.55666">
        <ele>1053</ele>
        <time>2021-08-10T13:46:06.003Z</time>
      </trkpt>
      <trkpt lat="46.89784" lon="8.55666">
        <ele>1053</ele>
        <time>2021-08-10T13:46:07.003Z</time>
      </trkpt>
      <trkpt lat="46.89782" lon="8.55666">
        <ele>1052</ele>
        <time>2021-08-10T13:46:08.002Z</time>
      </trkpt>
      <trkpt lat="46.89781" lon="8.55667">
        <ele>1052</ele>
        <time>2021-08-10T13:46:09.003Z</time>
      </trkpt>
      <trkpt lat="46.8978" lon="8.55666">
        <ele>1052</ele>
        <time>2021-08-10T13:46:10.002Z</time>
      </trkpt>
      <trkpt lat="46.89779" lon="8.55666">
        <ele>1053</ele>
        <time>2021-08-10T13:46:11.003Z</time>
      </trkpt>
      <trkpt lat="46.89779" lon="8.55665">
        <ele>1053</ele>
        <time>2021-08-10T13:46:12.003Z</time>
      </trkpt>
      <trkpt lat="46.89779" lon="8.55665">
        <ele>1053</ele>
        <time>2021-08-10T13:46:13.003Z</time>
      </trkpt>
      <trkpt lat="46.89779" lon="8.55664">
        <ele>1053</ele>
        <time>2021-08-10T13:46:14.003Z</time>
      </trkpt>
      <trkpt lat="46.89779" lon="8.55664">
        <ele>1054</ele>
        <time>2021-08-10T13:46:15.002Z</time>
      </trkpt>
      <trkpt lat="46.89778" lon="8.55665">
        <ele>1054</ele>
        <time>2021-08-10T13:46:16.003Z</time>
      </trkpt>
      <trkpt lat="46.89777" lon="8.55666">
        <ele>1054</ele>
        <time>2021-08-10T13:46:17.003Z</time>
      </trkpt>
      <trkpt lat="46.89777" lon="8.55666">
        <ele>1054</ele>
        <time>2021-08-10T13:46:18.003Z</time>
      </trkpt>
      <trkpt lat="46.89777" lon="8.55667">
        <ele>1054</ele>
        <time>2021-08-10T13:46:19.002Z</time>
      </trkpt>
      <trkpt lat="46.89776" lon="8.55668">
        <ele>1054</ele>
        <time>2021-08-10T13:46:20.003Z</time>
      </trkpt>
      <trkpt lat="46.89775" lon="8.55668">
        <ele>1054</ele>
        <time>2021-08-10T13:46:21.003Z</time>
      </trkpt>
      <trkpt lat="46.89775" lon="8.55668">
        <ele>1054</ele>
        <time>2021-08-10T13:46:22.003Z</time>
      </trkpt>
      <trkpt lat="46.89774" lon="8.55668">
        <ele>1054</ele>
        <time>2021-08-10T13:46:23.003Z</time>
      </trkpt>
      <trkpt lat="46.89773" lon="8.55668">
        <ele>1054</ele>
        <time>2021-08-10T13:46:24.003Z</time>
      </trkpt>
      <trkpt lat="46.89772" lon="8.55668">
        <ele>1054</ele>
        <time>2021-08-10T13:46:25.003Z</time>
      </trkpt>
      <trkpt lat="46.89771" lon="8.55668">
        <ele>1055</ele>
        <time>2021-08-10T13:46:26.003Z</time>
      </trkpt>
      <trkpt lat="46.8977" lon="8.55668">
        <ele>1055</ele>
        <time>2021-08-10T13:46:27.002Z</time>
      </trkpt>
      <trkpt lat="46.89769" lon="8.55668">
        <ele>1055</ele>
        <time>2021-08-10T13:46:28.003Z</time>
      </trkpt>
      <trkpt lat="46.89769" lon="8.55668">
        <ele>1054</ele>
        <time>2021-08-10T13:46:29.003Z</time>
      </trkpt>
      <trkpt lat="46.89767" lon="8.55669">
        <ele>1053</ele>
        <time>2021-08-10T13:46:30.002Z</time>
      </trkpt>
      <trkpt lat="46.89765" lon="8.5567">
        <ele>1052</ele>
        <time>2021-08-10T13:46:31.003Z</time>
      </trkpt>
      <trkpt lat="46.89764" lon="8.55671">
        <ele>1052</ele>
        <time>2021-08-10T13:46:32.002Z</time>
      </trkpt>
      <trkpt lat="46.89762" lon="8.55672">
        <ele>1051</ele>
        <time>2021-08-10T13:46:33.003Z</time>
      </trkpt>
      <trkpt lat="46.8976" lon="8.55673">
        <ele>1051</ele>
        <time>2021-08-10T13:46:34.002Z</time>
      </trkpt>
      <trkpt lat="46.89759" lon="8.55674">
        <ele>1050</ele>
        <time>2021-08-10T13:46:35.003Z</time>
      </trkpt>
      <trkpt lat="46.89758" lon="8.55675">
        <ele>1050</ele>
        <time>2021-08-10T13:46:36.003Z</time>
      </trkpt>
      <trkpt lat="46.89756" lon="8.55676">
        <ele>1049</ele>
        <time>2021-08-10T13:46:37.003Z</time>
      </trkpt>
      <trkpt lat="46.89755" lon="8.55677">
        <ele>1049</ele>
        <time>2021-08-10T13:46:38.003Z</time>
      </trkpt>
      <trkpt lat="46.89754" lon="8.55677">
        <ele>1048</ele>
        <time>2021-08-10T13:46:39.003Z</time>
      </trkpt>
      <trkpt lat="46.89754" lon="8.55678">
        <ele>1048</ele>
        <time>2021-08-10T13:46:40.003Z</time>
      </trkpt>
      <trkpt lat="46.89753" lon="8.55678">
        <ele>1048</ele>
        <time>2021-08-10T13:46:42.073Z</time>
      </trkpt>
      <trkpt lat="46.89752" lon="8.55678">
        <ele>1048</ele>
        <time>2021-08-10T13:46:50.838Z</time>
      </trkpt>
      <trkpt lat="46.89751" lon="8.55678">
        <ele>1048</ele>
        <time>2021-08-10T13:46:51.838Z</time>
      </trkpt>
      <trkpt lat="46.8975" lon="8.55677">
        <ele>1048</ele>
        <time>2021-08-10T13:46:52.837Z</time>
      </trkpt>
      <trkpt lat="46.89749" lon="8.55677">
        <ele>1048</ele>
        <time>2021-08-10T13:46:59.880Z</time>
      </trkpt>
      <trkpt lat="46.89749" lon="8.55677">
        <ele>1048</ele>
        <time>2021-08-10T13:47:00.879Z</time>
      </trkpt>
      <trkpt lat="46.89748" lon="8.55677">
        <ele>1048</ele>
        <time>2021-08-10T13:47:01.880Z</time>
      </trkpt>
      <trkpt lat="46.89746" lon="8.55677">
        <ele>1048</ele>
        <time>2021-08-10T13:47:02.880Z</time>
      </trkpt>
      <trkpt lat="46.89745" lon="8.55678">
        <ele>1048</ele>
        <time>2021-08-10T13:47:03.879Z</time>
      </trkpt>
      <trkpt lat="46.89744" lon="8.55679">
        <ele>1048</ele>
        <time>2021-08-10T13:47:04.880Z</time>
      </trkpt>
      <trkpt lat="46.89744" lon="8.55679">
        <ele>1048</ele>
        <time>2021-08-10T13:47:05.880Z</time>
      </trkpt>
      <trkpt lat="46.89743" lon="8.55679">
        <ele>1049</ele>
        <time>2021-08-10T13:47:06.880Z</time>
      </trkpt>
      <trkpt lat="46.89743" lon="8.5568">
        <ele>1049</ele>
        <time>2021-08-10T13:47:07.879Z</time>
      </trkpt>
      <trkpt lat="46.89742" lon="8.5568">
        <ele>1049</ele>
        <time>2021-08-10T13:47:08.879Z</time>
      </trkpt>
      <trkpt lat="46.8974" lon="8.5568">
        <ele>1050</ele>
        <time>2021-08-10T13:47:09.880Z</time>
      </trkpt>
      <trkpt lat="46.89739" lon="8.5568">
        <ele>1050</ele>
        <time>2021-08-10T13:47:10.880Z</time>
      </trkpt>
      <trkpt lat="46.89738" lon="8.55679">
        <ele>1051</ele>
        <time>2021-08-10T13:47:11.880Z</time>
      </trkpt>
      <trkpt lat="46.89737" lon="8.5568">
        <ele>1051</ele>
        <time>2021-08-10T13:47:12.880Z</time>
      </trkpt>
      <trkpt lat="46.89735" lon="8.5568">
        <ele>1052</ele>
        <time>2021-08-10T13:47:13.880Z</time>
      </trkpt>
      <trkpt lat="46.89734" lon="8.5568">
        <ele>1052</ele>
        <time>2021-08-10T13:47:14.880Z</time>
      </trkpt>
      <trkpt lat="46.89733" lon="8.5568">
        <ele>1053</ele>
        <time>2021-08-10T13:47:15.880Z</time>
      </trkpt>
      <trkpt lat="46.89732" lon="8.5568">
        <ele>1054</ele>
        <time>2021-08-10T13:47:16.879Z</time>
      </trkpt>
      <trkpt lat="46.8973" lon="8.55679">
        <ele>1054</ele>
        <time>2021-08-10T13:47:17.880Z</time>
      </trkpt>
      <trkpt lat="46.89728" lon="8.5568">
        <ele>1054</ele>
        <time>2021-08-10T13:47:18.880Z</time>
      </trkpt>
      <trkpt lat="46.89727" lon="8.5568">
        <ele>1055</ele>
        <time>2021-08-10T13:47:19.880Z</time>
      </trkpt>
      <trkpt lat="46.89725" lon="8.55679">
        <ele>1055</ele>
        <time>2021-08-10T13:47:20.879Z</time>
      </trkpt>
      <trkpt lat="46.89725" lon="8.55679">
        <ele>1056</ele>
        <time>2021-08-10T13:47:22.968Z</time>
      </trkpt>
      <trkpt lat="46.89724" lon="8.55679">
        <ele>1056</ele>
        <time>2021-08-10T13:47:23.969Z</time>
      </trkpt>
      <trkpt lat="46.89723" lon="8.55678">
        <ele>1056</ele>
        <time>2021-08-10T13:47:24.968Z</time>
      </trkpt>
      <trkpt lat="46.89722" lon="8.55678">
        <ele>1057</ele>
        <time>2021-08-10T13:47:25.969Z</time>
      </trkpt>
      <trkpt lat="46.89721" lon="8.55679">
        <ele>1057</ele>
        <time>2021-08-10T13:47:26.969Z</time>
      </trkpt>
      <trkpt lat="46.8972" lon="8.55679">
        <ele>1057</ele>
        <time>2021-08-10T13:47:27.968Z</time>
      </trkpt>
      <trkpt lat="46.89719" lon="8.55679">
        <ele>1058</ele>
        <time>2021-08-10T13:47:28.968Z</time>
      </trkpt>
      <trkpt lat="46.89719" lon="8.5568">
        <ele>1058</ele>
        <time>2021-08-10T13:47:29.969Z</time>
      </trkpt>
      <trkpt lat="46.89718" lon="8.5568">
        <ele>1058</ele>
        <time>2021-08-10T13:47:30.969Z</time>
      </trkpt>
      <trkpt lat="46.89717" lon="8.55681">
        <ele>1059</ele>
        <time>2021-08-10T13:47:31.969Z</time>
      </trkpt>
      <trkpt lat="46.89717" lon="8.55682">
        <ele>1059</ele>
        <time>2021-08-10T13:47:32.969Z</time>
      </trkpt>
      <trkpt lat="46.89716" lon="8.55683">
        <ele>1059</ele>
        <time>2021-08-10T13:47:33.969Z</time>
      </trkpt>
      <trkpt lat="46.89715" lon="8.55683">
        <ele>1058</ele>
        <time>2021-08-10T13:47:34.968Z</time>
      </trkpt>
      <trkpt lat="46.89715" lon="8.55684">
        <ele>1058</ele>
        <time>2021-08-10T13:47:35.969Z</time>
      </trkpt>
      <trkpt lat="46.89713" lon="8.55684">
        <ele>1057</ele>
        <time>2021-08-10T13:47:36.969Z</time>
      </trkpt>
      <trkpt lat="46.89712" lon="8.55685">
        <ele>1057</ele>
        <time>2021-08-10T13:47:37.969Z</time>
      </trkpt>
      <trkpt lat="46.8971" lon="8.55686">
        <ele>1057</ele>
        <time>2021-08-10T13:47:38.969Z</time>
      </trkpt>
      <trkpt lat="46.8971" lon="8.55687">
        <ele>1057</ele>
        <time>2021-08-10T13:47:39.969Z</time>
      </trkpt>
      <trkpt lat="46.89709" lon="8.55688">
        <ele>1056</ele>
        <time>2021-08-10T13:47:40.969Z</time>
      </trkpt>
      <trkpt lat="46.89708" lon="8.55688">
        <ele>1056</ele>
        <time>2021-08-10T13:47:41.969Z</time>
      </trkpt>
      <trkpt lat="46.89707" lon="8.55688">
        <ele>1056</ele>
        <time>2021-08-10T13:47:42.968Z</time>
      </trkpt>
      <trkpt lat="46.89707" lon="8.55688">
        <ele>1056</ele>
        <time>2021-08-10T13:47:43.969Z</time>
      </trkpt>
      <trkpt lat="46.89707" lon="8.55688">
        <ele>1056</ele>
        <time>2021-08-10T13:47:44.969Z</time>
      </trkpt>
      <trkpt lat="46.89706" lon="8.55689">
        <ele>1056</ele>
        <time>2021-08-10T13:47:45.968Z</time>
      </trkpt>
      <trkpt lat="46.89706" lon="8.55689">
        <ele>1057</ele>
        <time>2021-08-10T13:47:46.969Z</time>
      </trkpt>
      <trkpt lat="46.89705" lon="8.55689">
        <ele>1057</ele>
        <time>2021-08-10T13:47:47.968Z</time>
      </trkpt>
      <trkpt lat="46.89704" lon="8.55689">
        <ele>1057</ele>
        <time>2021-08-10T13:47:48.969Z</time>
      </trkpt>
      <trkpt lat="46.89703" lon="8.5569">
        <ele>1058</ele>
        <time>2021-08-10T13:47:49.969Z</time>
      </trkpt>
      <trkpt lat="46.89702" lon="8.5569">
        <ele>1058</ele>
        <time>2021-08-10T13:47:50.968Z</time>
      </trkpt>
      <trkpt lat="46.89701" lon="8.5569">
        <ele>1058</ele>
        <time>2021-08-10T13:47:51.969Z</time>
      </trkpt>
      <trkpt lat="46.897" lon="8.5569">
        <ele>1058</ele>
        <time>2021-08-10T13:47:52.969Z</time>
      </trkpt>
      <trkpt lat="46.89699" lon="8.55691">
        <ele>1058</ele>
        <time>2021-08-10T13:47:53.969Z</time>
      </trkpt>
      <trkpt lat="46.89698" lon="8.55691">
        <ele>1059</ele>
        <time>2021-08-10T13:47:54.969Z</time>
      </trkpt>
      <trkpt lat="46.89697" lon="8.55691">
        <ele>1059</ele>
        <time>2021-08-10T13:47:55.969Z</time>
      </trkpt>
      <trkpt lat="46.89696" lon="8.55692">
        <ele>1058</ele>
        <time>2021-08-10T13:47:56.969Z</time>
      </trkpt>
      <trkpt lat="46.89695" lon="8.55692">
        <ele>1058</ele>
        <time>2021-08-10T13:47:57.969Z</time>
      </trkpt>
      <trkpt lat="46.89695" lon="8.55692">
        <ele>1058</ele>
        <time>2021-08-10T13:47:58.969Z</time>
      </trkpt>
      <trkpt lat="46.89694" lon="8.55693">
        <ele>1058</ele>
        <time>2021-08-10T13:47:59.969Z</time>
      </trkpt>
      <trkpt lat="46.89694" lon="8.55692">
        <ele>1058</ele>
        <time>2021-08-10T13:48:00.968Z</time>
      </trkpt>
      <trkpt lat="46.89693" lon="8.55692">
        <ele>1058</ele>
        <time>2021-08-10T13:48:01.968Z</time>
      </trkpt>
      <trkpt lat="46.89692" lon="8.55692">
        <ele>1058</ele>
        <time>2021-08-10T13:48:02.968Z</time>
      </trkpt>
      <trkpt lat="46.89691" lon="8.55692">
        <ele>1059</ele>
        <time>2021-08-10T13:48:03.969Z</time>
      </trkpt>
      <trkpt lat="46.89691" lon="8.55692">
        <ele>1060</ele>
        <time>2021-08-10T13:48:04.969Z</time>
      </trkpt>
      <trkpt lat="46.8969" lon="8.55691">
        <ele>1060</ele>
        <time>2021-08-10T13:48:05.969Z</time>
      </trkpt>
      <trkpt lat="46.89689" lon="8.55691">
        <ele>1061</ele>
        <time>2021-08-10T13:48:06.969Z</time>
      </trkpt>
      <trkpt lat="46.89689" lon="8.5569">
        <ele>1061</ele>
        <time>2021-08-10T13:48:07.968Z</time>
      </trkpt>
      <trkpt lat="46.89688" lon="8.5569">
        <ele>1061</ele>
        <time>2021-08-10T13:48:08.969Z</time>
      </trkpt>
      <trkpt lat="46.89687" lon="8.5569">
        <ele>1062</ele>
        <time>2021-08-10T13:48:09.969Z</time>
      </trkpt>
      <trkpt lat="46.89686" lon="8.55691">
        <ele>1062</ele>
        <time>2021-08-10T13:48:10.969Z</time>
      </trkpt>
      <trkpt lat="46.89685" lon="8.55692">
        <ele>1062</ele>
        <time>2021-08-10T13:48:11.969Z</time>
      </trkpt>
      <trkpt lat="46.89684" lon="8.55693">
        <ele>1062</ele>
        <time>2021-08-10T13:48:12.968Z</time>
      </trkpt>
      <trkpt lat="46.89683" lon="8.55693">
        <ele>1062</ele>
        <time>2021-08-10T13:48:13.968Z</time>
      </trkpt>
      <trkpt lat="46.89682" lon="8.55692">
        <ele>1062</ele>
        <time>2021-08-10T13:48:14.969Z</time>
      </trkpt>
      <trkpt lat="46.89681" lon="8.55693">
        <ele>1062</ele>
        <time>2021-08-10T13:48:15.968Z</time>
      </trkpt>
      <trkpt lat="46.8968" lon="8.55693">
        <ele>1062</ele>
        <time>2021-08-10T13:48:16.969Z</time>
      </trkpt>
      <trkpt lat="46.89678" lon="8.55694">
        <ele>1062</ele>
        <time>2021-08-10T13:48:17.969Z</time>
      </trkpt>
      <trkpt lat="46.89677" lon="8.55694">
        <ele>1063</ele>
        <time>2021-08-10T13:48:18.969Z</time>
      </trkpt>
      <trkpt lat="46.89676" lon="8.55694">
        <ele>1063</ele>
        <time>2021-08-10T13:48:19.969Z</time>
      </trkpt>
      <trkpt lat="46.89674" lon="8.55694">
        <ele>1064</ele>
        <time>2021-08-10T13:48:20.969Z</time>
      </trkpt>
      <trkpt lat="46.89673" lon="8.55694">
        <ele>1064</ele>
        <time>2021-08-10T13:48:21.968Z</time>
      </trkpt>
      <trkpt lat="46.89672" lon="8.55695">
        <ele>1065</ele>
        <time>2021-08-10T13:48:22.969Z</time>
      </trkpt>
      <trkpt lat="46.89671" lon="8.55695">
        <ele>1065</ele>
        <time>2021-08-10T13:48:23.969Z</time>
      </trkpt>
      <trkpt lat="46.8967" lon="8.55695">
        <ele>1065</ele>
        <time>2021-08-10T13:48:24.968Z</time>
      </trkpt>
      <trkpt lat="46.89669" lon="8.55695">
        <ele>1065</ele>
        <time>2021-08-10T13:48:25.969Z</time>
      </trkpt>
      <trkpt lat="46.89668" lon="8.55696">
        <ele>1065</ele>
        <time>2021-08-10T13:48:26.969Z</time>
      </trkpt>
      <trkpt lat="46.89666" lon="8.55696">
        <ele>1065</ele>
        <time>2021-08-10T13:48:27.969Z</time>
      </trkpt>
      <trkpt lat="46.89666" lon="8.55697">
        <ele>1065</ele>
        <time>2021-08-10T13:48:28.969Z</time>
      </trkpt>
      <trkpt lat="46.89665" lon="8.55697">
        <ele>1064</ele>
        <time>2021-08-10T13:48:29.969Z</time>
      </trkpt>
      <trkpt lat="46.89664" lon="8.55697">
        <ele>1064</ele>
        <time>2021-08-10T13:48:30.968Z</time>
      </trkpt>
      <trkpt lat="46.89662" lon="8.55698">
        <ele>1064</ele>
        <time>2021-08-10T13:48:31.969Z</time>
      </trkpt>
      <trkpt lat="46.89662" lon="8.55699">
        <ele>1064</ele>
        <time>2021-08-10T13:48:32.969Z</time>
      </trkpt>
      <trkpt lat="46.89661" lon="8.55699">
        <ele>1064</ele>
        <time>2021-08-10T13:48:33.969Z</time>
      </trkpt>
      <trkpt lat="46.89661" lon="8.557">
        <ele>1063</ele>
        <time>2021-08-10T13:48:34.969Z</time>
      </trkpt>
      <trkpt lat="46.8966" lon="8.557">
        <ele>1063</ele>
        <time>2021-08-10T13:48:35.969Z</time>
      </trkpt>
      <trkpt lat="46.89659" lon="8.55701">
        <ele>1063</ele>
        <time>2021-08-10T13:48:36.968Z</time>
      </trkpt>
      <trkpt lat="46.89659" lon="8.55701">
        <ele>1063</ele>
        <time>2021-08-10T13:48:37.969Z</time>
      </trkpt>
      <trkpt lat="46.89658" lon="8.55701">
        <ele>1063</ele>
        <time>2021-08-10T13:48:38.969Z</time>
      </trkpt>
      <trkpt lat="46.89657" lon="8.55701">
        <ele>1063</ele>
        <time>2021-08-10T13:48:39.969Z</time>
      </trkpt>
      <trkpt lat="46.89656" lon="8.55701">
        <ele>1063</ele>
        <time>2021-08-10T13:48:40.968Z</time>
      </trkpt>
      <trkpt lat="46.89655" lon="8.55701">
        <ele>1063</ele>
        <time>2021-08-10T13:48:41.969Z</time>
      </trkpt>
      <trkpt lat="46.89654" lon="8.55702">
        <ele>1063</ele>
        <time>2021-08-10T13:48:42.969Z</time>
      </trkpt>
      <trkpt lat="46.89654" lon="8.55702">
        <ele>1063</ele>
        <time>2021-08-10T13:48:43.968Z</time>
      </trkpt>
      <trkpt lat="46.89654" lon="8.55702">
        <ele>1063</ele>
        <time>2021-08-10T13:48:44.968Z</time>
      </trkpt>
      <trkpt lat="46.89653" lon="8.55703">
        <ele>1063</ele>
        <time>2021-08-10T13:48:45.969Z</time>
      </trkpt>
      <trkpt lat="46.89653" lon="8.55703">
        <ele>1063</ele>
        <time>2021-08-10T13:48:46.969Z</time>
      </trkpt>
      <trkpt lat="46.89653" lon="8.55703">
        <ele>1063</ele>
        <time>2021-08-10T13:48:47.968Z</time>
      </trkpt>
      <trkpt lat="46.89651" lon="8.55703">
        <ele>1063</ele>
        <time>2021-08-10T13:48:48.969Z</time>
      </trkpt>
      <trkpt lat="46.8965" lon="8.55703">
        <ele>1063</ele>
        <time>2021-08-10T13:48:49.969Z</time>
      </trkpt>
      <trkpt lat="46.89648" lon="8.55702">
        <ele>1063</ele>
        <time>2021-08-10T13:48:50.968Z</time>
      </trkpt>
      <trkpt lat="46.89647" lon="8.55702">
        <ele>1063</ele>
        <time>2021-08-10T13:48:51.969Z</time>
      </trkpt>
      <trkpt lat="46.89647" lon="8.55701">
        <ele>1063</ele>
        <time>2021-08-10T13:48:52.969Z</time>
      </trkpt>
      <trkpt lat="46.89647" lon="8.557">
        <ele>1063</ele>
        <time>2021-08-10T13:48:53.969Z</time>
      </trkpt>
      <trkpt lat="46.89646" lon="8.557">
        <ele>1063</ele>
        <time>2021-08-10T13:48:58.004Z</time>
      </trkpt>
      <trkpt lat="46.89646" lon="8.557">
        <ele>1063</ele>
        <time>2021-08-10T13:48:59.004Z</time>
      </trkpt>
      <trkpt lat="46.89645" lon="8.55699">
        <ele>1064</ele>
        <time>2021-08-10T13:49:00.004Z</time>
      </trkpt>
      <trkpt lat="46.89645" lon="8.55699">
        <ele>1065</ele>
        <time>2021-08-10T13:49:01.004Z</time>
      </trkpt>
      <trkpt lat="46.89644" lon="8.55699">
        <ele>1065</ele>
        <time>2021-08-10T13:49:02.004Z</time>
      </trkpt>
      <trkpt lat="46.89643" lon="8.55699">
        <ele>1065</ele>
        <time>2021-08-10T13:49:03.004Z</time>
      </trkpt>
      <trkpt lat="46.89642" lon="8.557">
        <ele>1065</ele>
        <time>2021-08-10T13:49:04.004Z</time>
      </trkpt>
      <trkpt lat="46.89641" lon="8.557">
        <ele>1065</ele>
        <time>2021-08-10T13:49:05.004Z</time>
      </trkpt>
      <trkpt lat="46.8964" lon="8.557">
        <ele>1065</ele>
        <time>2021-08-10T13:49:06.003Z</time>
      </trkpt>
      <trkpt lat="46.89639" lon="8.557">
        <ele>1065</ele>
        <time>2021-08-10T13:49:07.003Z</time>
      </trkpt>
      <trkpt lat="46.89638" lon="8.557">
        <ele>1066</ele>
        <time>2021-08-10T13:49:08.004Z</time>
      </trkpt>
      <trkpt lat="46.89637" lon="8.557">
        <ele>1066</ele>
        <time>2021-08-10T13:49:09.004Z</time>
      </trkpt>
      <trkpt lat="46.89636" lon="8.55699">
        <ele>1066</ele>
        <time>2021-08-10T13:49:10.003Z</time>
      </trkpt>
      <trkpt lat="46.89635" lon="8.557">
        <ele>1066</ele>
        <time>2021-08-10T13:49:11.004Z</time>
      </trkpt>
      <trkpt lat="46.89634" lon="8.55701">
        <ele>1067</ele>
        <time>2021-08-10T13:49:12.003Z</time>
      </trkpt>
      <trkpt lat="46.89634" lon="8.55701">
        <ele>1067</ele>
        <time>2021-08-10T13:49:13.003Z</time>
      </trkpt>
      <trkpt lat="46.89633" lon="8.55702">
        <ele>1067</ele>
        <time>2021-08-10T13:49:14.003Z</time>
      </trkpt>
      <trkpt lat="46.89633" lon="8.55702">
        <ele>1067</ele>
        <time>2021-08-10T13:49:15.003Z</time>
      </trkpt>
      <trkpt lat="46.89632" lon="8.55703">
        <ele>1068</ele>
        <time>2021-08-10T13:49:16.003Z</time>
      </trkpt>
      <trkpt lat="46.89632" lon="8.55703">
        <ele>1068</ele>
        <time>2021-08-10T13:49:17.003Z</time>
      </trkpt>
      <trkpt lat="46.89631" lon="8.55703">
        <ele>1068</ele>
        <time>2021-08-10T13:49:18.003Z</time>
      </trkpt>
      <trkpt lat="46.89631" lon="8.55703">
        <ele>1069</ele>
        <time>2021-08-10T13:49:19.004Z</time>
      </trkpt>
      <trkpt lat="46.8963" lon="8.55703">
        <ele>1069</ele>
        <time>2021-08-10T13:49:20.003Z</time>
      </trkpt>
      <trkpt lat="46.8963" lon="8.55704">
        <ele>1069</ele>
        <time>2021-08-10T13:49:21.003Z</time>
      </trkpt>
      <trkpt lat="46.89629" lon="8.55704">
        <ele>1069</ele>
        <time>2021-08-10T13:49:22.003Z</time>
      </trkpt>
      <trkpt lat="46.89628" lon="8.55704">
        <ele>1069</ele>
        <time>2021-08-10T13:49:23.003Z</time>
      </trkpt>
      <trkpt lat="46.89627" lon="8.55705">
        <ele>1069</ele>
        <time>2021-08-10T13:49:24.003Z</time>
      </trkpt>
      <trkpt lat="46.89627" lon="8.55706">
        <ele>1069</ele>
        <time>2021-08-10T13:49:25.003Z</time>
      </trkpt>
      <trkpt lat="46.89626" lon="8.55707">
        <ele>1069</ele>
        <time>2021-08-10T13:49:26.003Z</time>
      </trkpt>
      <trkpt lat="46.89626" lon="8.55708">
        <ele>1069</ele>
        <time>2021-08-10T13:49:27.003Z</time>
      </trkpt>
      <trkpt lat="46.89625" lon="8.5571">
        <ele>1069</ele>
        <time>2021-08-10T13:49:28.003Z</time>
      </trkpt>
      <trkpt lat="46.89623" lon="8.55711">
        <ele>1070</ele>
        <time>2021-08-10T13:49:29.003Z</time>
      </trkpt>
      <trkpt lat="46.89623" lon="8.55712">
        <ele>1070</ele>
        <time>2021-08-10T13:49:30.003Z</time>
      </trkpt>
      <trkpt lat="46.89623" lon="8.55713">
        <ele>1070</ele>
        <time>2021-08-10T13:49:31.003Z</time>
      </trkpt>
      <trkpt lat="46.89622" lon="8.55714">
        <ele>1070</ele>
        <time>2021-08-10T13:49:32.003Z</time>
      </trkpt>
      <trkpt lat="46.89622" lon="8.55715">
        <ele>1070</ele>
        <time>2021-08-10T13:49:33.003Z</time>
      </trkpt>
      <trkpt lat="46.89622" lon="8.55716">
        <ele>1069</ele>
        <time>2021-08-10T13:49:34.003Z</time>
      </trkpt>
      <trkpt lat="46.89621" lon="8.55717">
        <ele>1070</ele>
        <time>2021-08-10T13:49:35.003Z</time>
      </trkpt>
      <trkpt lat="46.89621" lon="8.55718">
        <ele>1070</ele>
        <time>2021-08-10T13:49:36.003Z</time>
      </trkpt>
      <trkpt lat="46.8962" lon="8.55718">
        <ele>1070</ele>
        <time>2021-08-10T13:49:37.003Z</time>
      </trkpt>
      <trkpt lat="46.89619" lon="8.55719">
        <ele>1069</ele>
        <time>2021-08-10T13:49:38.003Z</time>
      </trkpt>
      <trkpt lat="46.89618" lon="8.5572">
        <ele>1069</ele>
        <time>2021-08-10T13:49:39.003Z</time>
      </trkpt>
      <trkpt lat="46.89617" lon="8.5572">
        <ele>1069</ele>
        <time>2021-08-10T13:49:40.003Z</time>
      </trkpt>
      <trkpt lat="46.89616" lon="8.5572">
        <ele>1069</ele>
        <time>2021-08-10T13:49:41.004Z</time>
      </trkpt>
      <trkpt lat="46.89614" lon="8.5572">
        <ele>1069</ele>
        <time>2021-08-10T13:49:42.003Z</time>
      </trkpt>
      <trkpt lat="46.89612" lon="8.55721">
        <ele>1069</ele>
        <time>2021-08-10T13:49:43.003Z</time>
      </trkpt>
      <trkpt lat="46.89611" lon="8.55721">
        <ele>1069</ele>
        <time>2021-08-10T13:49:44.003Z</time>
      </trkpt>
      <trkpt lat="46.8961" lon="8.55722">
        <ele>1069</ele>
        <time>2021-08-10T13:49:45.003Z</time>
      </trkpt>
      <trkpt lat="46.89609" lon="8.55722">
        <ele>1068</ele>
        <time>2021-08-10T13:49:46.004Z</time>
      </trkpt>
      <trkpt lat="46.89609" lon="8.55722">
        <ele>1068</ele>
        <time>2021-08-10T13:49:47.003Z</time>
      </trkpt>
      <trkpt lat="46.89607" lon="8.55722">
        <ele>1068</ele>
        <time>2021-08-10T13:49:48.004Z</time>
      </trkpt>
      <trkpt lat="46.89604" lon="8.55722">
        <ele>1068</ele>
        <time>2021-08-10T13:49:49.004Z</time>
      </trkpt>
      <trkpt lat="46.89602" lon="8.55722">
        <ele>1068</ele>
        <time>2021-08-10T13:49:50.004Z</time>
      </trkpt>
      <trkpt lat="46.89602" lon="8.55723">
        <ele>1068</ele>
        <time>2021-08-10T13:49:51.003Z</time>
      </trkpt>
      <trkpt lat="46.89601" lon="8.55723">
        <ele>1068</ele>
        <time>2021-08-10T13:49:52.004Z</time>
      </trkpt>
      <trkpt lat="46.896" lon="8.55723">
        <ele>1068</ele>
        <time>2021-08-10T13:49:53.004Z</time>
      </trkpt>
      <trkpt lat="46.89598" lon="8.55724">
        <ele>1067</ele>
        <time>2021-08-10T13:49:54.004Z</time>
      </trkpt>
      <trkpt lat="46.89597" lon="8.55724">
        <ele>1067</ele>
        <time>2021-08-10T13:49:55.004Z</time>
      </trkpt>
      <trkpt lat="46.89596" lon="8.55724">
        <ele>1067</ele>
        <time>2021-08-10T13:49:56.004Z</time>
      </trkpt>
      <trkpt lat="46.89595" lon="8.55725">
        <ele>1067</ele>
        <time>2021-08-10T13:49:57.004Z</time>
      </trkpt>
      <trkpt lat="46.89595" lon="8.55725">
        <ele>1067</ele>
        <time>2021-08-10T13:49:59.082Z</time>
      </trkpt>
      <trkpt lat="46.89595" lon="8.55726">
        <ele>1067</ele>
        <time>2021-08-10T13:50:00.081Z</time>
      </trkpt>
      <trkpt lat="46.89594" lon="8.55726">
        <ele>1067</ele>
        <time>2021-08-10T13:50:01.082Z</time>
      </trkpt>
      <trkpt lat="46.89593" lon="8.55726">
        <ele>1067</ele>
        <time>2021-08-10T13:50:02.082Z</time>
      </trkpt>
      <trkpt lat="46.89592" lon="8.55727">
        <ele>1067</ele>
        <time>2021-08-10T13:50:03.082Z</time>
      </trkpt>
      <trkpt lat="46.89591" lon="8.55727">
        <ele>1067</ele>
        <time>2021-08-10T13:50:04.082Z</time>
      </trkpt>
      <trkpt lat="46.89589" lon="8.55727">
        <ele>1067</ele>
        <time>2021-08-10T13:50:05.082Z</time>
      </trkpt>
      <trkpt lat="46.89588" lon="8.55726">
        <ele>1067</ele>
        <time>2021-08-10T13:50:06.082Z</time>
      </trkpt>
      <trkpt lat="46.89587" lon="8.55726">
        <ele>1067</ele>
        <time>2021-08-10T13:50:07.082Z</time>
      </trkpt>
      <trkpt lat="46.89586" lon="8.55726">
        <ele>1066</ele>
        <time>2021-08-10T13:50:08.082Z</time>
      </trkpt>
      <trkpt lat="46.89585" lon="8.55726">
        <ele>1066</ele>
        <time>2021-08-10T13:50:09.082Z</time>
      </trkpt>
      <trkpt lat="46.89585" lon="8.55727">
        <ele>1066</ele>
        <time>2021-08-10T13:50:10.082Z</time>
      </trkpt>
      <trkpt lat="46.89584" lon="8.55728">
        <ele>1066</ele>
        <time>2021-08-10T13:50:11.081Z</time>
      </trkpt>
      <trkpt lat="46.89583" lon="8.55729">
        <ele>1066</ele>
        <time>2021-08-10T13:50:12.082Z</time>
      </trkpt>
      <trkpt lat="46.89582" lon="8.55729">
        <ele>1066</ele>
        <time>2021-08-10T13:50:13.082Z</time>
      </trkpt>
      <trkpt lat="46.89581" lon="8.5573">
        <ele>1066</ele>
        <time>2021-08-10T13:50:14.082Z</time>
      </trkpt>
      <trkpt lat="46.89581" lon="8.5573">
        <ele>1067</ele>
        <time>2021-08-10T13:50:15.082Z</time>
      </trkpt>
      <trkpt lat="46.89581" lon="8.5573">
        <ele>1067</ele>
        <time>2021-08-10T13:50:16.082Z</time>
      </trkpt>
      <trkpt lat="46.89575" lon="8.5573">
        <ele>1068</ele>
        <time>2021-08-10T13:50:17.081Z</time>
      </trkpt>
      <trkpt lat="46.89573" lon="8.55731">
        <ele>1068</ele>
        <time>2021-08-10T13:50:18.082Z</time>
      </trkpt>
      <trkpt lat="46.89571" lon="8.55732">
        <ele>1069</ele>
        <time>2021-08-10T13:50:19.081Z</time>
      </trkpt>
      <trkpt lat="46.8957" lon="8.55733">
        <ele>1069</ele>
        <time>2021-08-10T13:50:20.082Z</time>
      </trkpt>
      <trkpt lat="46.89569" lon="8.55733">
        <ele>1069</ele>
        <time>2021-08-10T13:50:21.081Z</time>
      </trkpt>
      <trkpt lat="46.89568" lon="8.55733">
        <ele>1069</ele>
        <time>2021-08-10T13:50:22.082Z</time>
      </trkpt>
      <trkpt lat="46.89567" lon="8.55734">
        <ele>1070</ele>
        <time>2021-08-10T13:50:23.082Z</time>
      </trkpt>
      <trkpt lat="46.89565" lon="8.55734">
        <ele>1070</ele>
        <time>2021-08-10T13:50:24.082Z</time>
      </trkpt>
      <trkpt lat="46.89561" lon="8.55733">
        <ele>1070</ele>
        <time>2021-08-10T13:50:25.081Z</time>
      </trkpt>
      <trkpt lat="46.89559" lon="8.55733">
        <ele>1070</ele>
        <time>2021-08-10T13:50:26.082Z</time>
      </trkpt>
      <trkpt lat="46.89559" lon="8.55733">
        <ele>1070</ele>
        <time>2021-08-10T13:50:27.081Z</time>
      </trkpt>
      <trkpt lat="46.89559" lon="8.55733">
        <ele>1070</ele>
        <time>2021-08-10T13:50:28.082Z</time>
      </trkpt>
      <trkpt lat="46.8956" lon="8.55734">
        <ele>1071</ele>
        <time>2021-08-10T13:50:29.082Z</time>
      </trkpt>
      <trkpt lat="46.8956" lon="8.55735">
        <ele>1071</ele>
        <time>2021-08-10T13:50:30.081Z</time>
      </trkpt>
      <trkpt lat="46.8956" lon="8.55735">
        <ele>1071</ele>
        <time>2021-08-10T13:50:31.082Z</time>
      </trkpt>
      <trkpt lat="46.89559" lon="8.55735">
        <ele>1071</ele>
        <time>2021-08-10T13:50:32.082Z</time>
      </trkpt>
      <trkpt lat="46.89558" lon="8.55736">
        <ele>1071</ele>
        <time>2021-08-10T13:50:33.082Z</time>
      </trkpt>
      <trkpt lat="46.89557" lon="8.55737">
        <ele>1071</ele>
        <time>2021-08-10T13:50:34.081Z</time>
      </trkpt>
      <trkpt lat="46.89557" lon="8.55739">
        <ele>1071</ele>
        <time>2021-08-10T13:50:35.081Z</time>
      </trkpt>
      <trkpt lat="46.89556" lon="8.5574">
        <ele>1071</ele>
        <time>2021-08-10T13:50:36.081Z</time>
      </trkpt>
      <trkpt lat="46.89555" lon="8.55741">
        <ele>1071</ele>
        <time>2021-08-10T13:50:37.082Z</time>
      </trkpt>
      <trkpt lat="46.89553" lon="8.55742">
        <ele>1071</ele>
        <time>2021-08-10T13:50:38.082Z</time>
      </trkpt>
      <trkpt lat="46.89551" lon="8.55744">
        <ele>1071</ele>
        <time>2021-08-10T13:50:39.082Z</time>
      </trkpt>
      <trkpt lat="46.8955" lon="8.55744">
        <ele>1071</ele>
        <time>2021-08-10T13:50:40.082Z</time>
      </trkpt>
      <trkpt lat="46.89549" lon="8.55745">
        <ele>1071</ele>
        <time>2021-08-10T13:50:41.081Z</time>
      </trkpt>
      <trkpt lat="46.89549" lon="8.55746">
        <ele>1071</ele>
        <time>2021-08-10T13:50:42.082Z</time>
      </trkpt>
      <trkpt lat="46.89549" lon="8.55747">
        <ele>1071</ele>
        <time>2021-08-10T13:50:43.081Z</time>
      </trkpt>
      <trkpt lat="46.89548" lon="8.55748">
        <ele>1072</ele>
        <time>2021-08-10T13:50:44.081Z</time>
      </trkpt>
      <trkpt lat="46.89547" lon="8.55748">
        <ele>1072</ele>
        <time>2021-08-10T13:50:45.082Z</time>
      </trkpt>
      <trkpt lat="46.89547" lon="8.55749">
        <ele>1072</ele>
        <time>2021-08-10T13:50:46.081Z</time>
      </trkpt>
      <trkpt lat="46.89546" lon="8.5575">
        <ele>1073</ele>
        <time>2021-08-10T13:50:47.081Z</time>
      </trkpt>
      <trkpt lat="46.89545" lon="8.55751">
        <ele>1073</ele>
        <time>2021-08-10T13:50:48.082Z</time>
      </trkpt>
      <trkpt lat="46.89545" lon="8.55752">
        <ele>1073</ele>
        <time>2021-08-10T13:50:49.081Z</time>
      </trkpt>
      <trkpt lat="46.89544" lon="8.55752">
        <ele>1074</ele>
        <time>2021-08-10T13:50:50.082Z</time>
      </trkpt>
      <trkpt lat="46.89543" lon="8.55752">
        <ele>1075</ele>
        <time>2021-08-10T13:50:51.081Z</time>
      </trkpt>
      <trkpt lat="46.89542" lon="8.55753">
        <ele>1075</ele>
        <time>2021-08-10T13:50:52.081Z</time>
      </trkpt>
      <trkpt lat="46.89542" lon="8.55755">
        <ele>1076</ele>
        <time>2021-08-10T13:50:53.082Z</time>
      </trkpt>
      <trkpt lat="46.89541" lon="8.55755">
        <ele>1077</ele>
        <time>2021-08-10T13:50:54.081Z</time>
      </trkpt>
      <trkpt lat="46.89541" lon="8.55756">
        <ele>1078</ele>
        <time>2021-08-10T13:50:55.082Z</time>
      </trkpt>
      <trkpt lat="46.8954" lon="8.55757">
        <ele>1078</ele>
        <time>2021-08-10T13:50:56.082Z</time>
      </trkpt>
      <trkpt lat="46.89539" lon="8.55757">
        <ele>1078</ele>
        <time>2021-08-10T13:50:57.081Z</time>
      </trkpt>
      <trkpt lat="46.89538" lon="8.55757">
        <ele>1079</ele>
        <time>2021-08-10T13:50:58.082Z</time>
      </trkpt>
      <trkpt lat="46.89536" lon="8.55758">
        <ele>1079</ele>
        <time>2021-08-10T13:50:59.082Z</time>
      </trkpt>
      <trkpt lat="46.89535" lon="8.55759">
        <ele>1080</ele>
        <time>2021-08-10T13:51:00.081Z</time>
      </trkpt>
      <trkpt lat="46.89534" lon="8.5576">
        <ele>1080</ele>
        <time>2021-08-10T13:51:01.082Z</time>
      </trkpt>
      <trkpt lat="46.89532" lon="8.55761">
        <ele>1080</ele>
        <time>2021-08-10T13:51:02.082Z</time>
      </trkpt>
      <trkpt lat="46.89531" lon="8.55761">
        <ele>1080</ele>
        <time>2021-08-10T13:51:03.081Z</time>
      </trkpt>
      <trkpt lat="46.8953" lon="8.55762">
        <ele>1080</ele>
        <time>2021-08-10T13:51:04.081Z</time>
      </trkpt>
      <trkpt lat="46.89529" lon="8.55762">
        <ele>1080</ele>
        <time>2021-08-10T13:51:05.082Z</time>
      </trkpt>
      <trkpt lat="46.89528" lon="8.55762">
        <ele>1080</ele>
        <time>2021-08-10T13:51:06.082Z</time>
      </trkpt>
      <trkpt lat="46.89527" lon="8.55762">
        <ele>1081</ele>
        <time>2021-08-10T13:51:07.082Z</time>
      </trkpt>
      <trkpt lat="46.89526" lon="8.55763">
        <ele>1081</ele>
        <time>2021-08-10T13:51:08.081Z</time>
      </trkpt>
      <trkpt lat="46.89526" lon="8.55764">
        <ele>1081</ele>
        <time>2021-08-10T13:51:09.082Z</time>
      </trkpt>
      <trkpt lat="46.89525" lon="8.55765">
        <ele>1082</ele>
        <time>2021-08-10T13:51:10.081Z</time>
      </trkpt>
      <trkpt lat="46.89523" lon="8.55767">
        <ele>1082</ele>
        <time>2021-08-10T13:51:11.082Z</time>
      </trkpt>
      <trkpt lat="46.89523" lon="8.55767">
        <ele>1083</ele>
        <time>2021-08-10T13:51:12.082Z</time>
      </trkpt>
      <trkpt lat="46.89522" lon="8.55767">
        <ele>1083</ele>
        <time>2021-08-10T13:51:13.082Z</time>
      </trkpt>
      <trkpt lat="46.8952" lon="8.55768">
        <ele>1083</ele>
        <time>2021-08-10T13:51:14.082Z</time>
      </trkpt>
      <trkpt lat="46.89518" lon="8.55769">
        <ele>1083</ele>
        <time>2021-08-10T13:51:15.082Z</time>
      </trkpt>
      <trkpt lat="46.89516" lon="8.5577">
        <ele>1083</ele>
        <time>2021-08-10T13:51:16.081Z</time>
      </trkpt>
      <trkpt lat="46.89515" lon="8.5577">
        <ele>1083</ele>
        <time>2021-08-10T13:51:17.082Z</time>
      </trkpt>
      <trkpt lat="46.89514" lon="8.55771">
        <ele>1083</ele>
        <time>2021-08-10T13:51:18.082Z</time>
      </trkpt>
      <trkpt lat="46.89512" lon="8.55771">
        <ele>1083</ele>
        <time>2021-08-10T13:51:19.082Z</time>
      </trkpt>
      <trkpt lat="46.8951" lon="8.55772">
        <ele>1083</ele>
        <time>2021-08-10T13:51:20.082Z</time>
      </trkpt>
      <trkpt lat="46.89508" lon="8.55773">
        <ele>1083</ele>
        <time>2021-08-10T13:51:21.082Z</time>
      </trkpt>
      <trkpt lat="46.89508" lon="8.55774">
        <ele>1084</ele>
        <time>2021-08-10T13:51:22.082Z</time>
      </trkpt>
      <trkpt lat="46.89508" lon="8.55774">
        <ele>1084</ele>
        <time>2021-08-10T13:51:23.082Z</time>
      </trkpt>
      <trkpt lat="46.89508" lon="8.55774">
        <ele>1084</ele>
        <time>2021-08-10T13:51:24.082Z</time>
      </trkpt>
      <trkpt lat="46.89507" lon="8.55774">
        <ele>1084</ele>
        <time>2021-08-10T13:51:25.082Z</time>
      </trkpt>
      <trkpt lat="46.89507" lon="8.55775">
        <ele>1084</ele>
        <time>2021-08-10T13:51:26.082Z</time>
      </trkpt>
      <trkpt lat="46.89506" lon="8.55775">
        <ele>1084</ele>
        <time>2021-08-10T13:51:27.082Z</time>
      </trkpt>
      <trkpt lat="46.89506" lon="8.55776">
        <ele>1083</ele>
        <time>2021-08-10T13:51:28.082Z</time>
      </trkpt>
      <trkpt lat="46.89505" lon="8.55776">
        <ele>1083</ele>
        <time>2021-08-10T13:51:29.082Z</time>
      </trkpt>
      <trkpt lat="46.89504" lon="8.55777">
        <ele>1083</ele>
        <time>2021-08-10T13:51:30.082Z</time>
      </trkpt>
      <trkpt lat="46.89504" lon="8.55777">
        <ele>1083</ele>
        <time>2021-08-10T13:51:31.082Z</time>
      </trkpt>
      <trkpt lat="46.89503" lon="8.55777">
        <ele>1084</ele>
        <time>2021-08-10T13:51:32.081Z</time>
      </trkpt>
      <trkpt lat="46.89502" lon="8.55776">
        <ele>1084</ele>
        <time>2021-08-10T13:51:33.081Z</time>
      </trkpt>
      <trkpt lat="46.89501" lon="8.55776">
        <ele>1085</ele>
        <time>2021-08-10T13:51:34.082Z</time>
      </trkpt>
      <trkpt lat="46.895" lon="8.55776">
        <ele>1085</ele>
        <time>2021-08-10T13:51:35.082Z</time>
      </trkpt>
      <trkpt lat="46.895" lon="8.55776">
        <ele>1086</ele>
        <time>2021-08-10T13:51:36.082Z</time>
      </trkpt>
      <trkpt lat="46.89499" lon="8.55776">
        <ele>1086</ele>
        <time>2021-08-10T13:51:37.082Z</time>
      </trkpt>
      <trkpt lat="46.89498" lon="8.55775">
        <ele>1086</ele>
        <time>2021-08-10T13:51:38.082Z</time>
      </trkpt>
      <trkpt lat="46.89497" lon="8.55775">
        <ele>1087</ele>
        <time>2021-08-10T13:51:39.082Z</time>
      </trkpt>
      <trkpt lat="46.89496" lon="8.55774">
        <ele>1088</ele>
        <time>2021-08-10T13:51:40.082Z</time>
      </trkpt>
      <trkpt lat="46.89496" lon="8.55774">
        <ele>1088</ele>
        <time>2021-08-10T13:51:41.081Z</time>
      </trkpt>
      <trkpt lat="46.89495" lon="8.55773">
        <ele>1089</ele>
        <time>2021-08-10T13:51:42.081Z</time>
      </trkpt>
      <trkpt lat="46.89494" lon="8.55772">
        <ele>1090</ele>
        <time>2021-08-10T13:51:43.082Z</time>
      </trkpt>
      <trkpt lat="46.89494" lon="8.55771">
        <ele>1090</ele>
        <time>2021-08-10T13:51:44.082Z</time>
      </trkpt>
      <trkpt lat="46.89492" lon="8.5577">
        <ele>1091</ele>
        <time>2021-08-10T13:51:45.082Z</time>
      </trkpt>
      <trkpt lat="46.89491" lon="8.5577">
        <ele>1091</ele>
        <time>2021-08-10T13:51:46.082Z</time>
      </trkpt>
      <trkpt lat="46.8949" lon="8.55769">
        <ele>1092</ele>
        <time>2021-08-10T13:51:47.081Z</time>
      </trkpt>
      <trkpt lat="46.89489" lon="8.55768">
        <ele>1093</ele>
        <time>2021-08-10T13:51:48.082Z</time>
      </trkpt>
      <trkpt lat="46.89488" lon="8.55767">
        <ele>1093</ele>
        <time>2021-08-10T13:51:49.082Z</time>
      </trkpt>
      <trkpt lat="46.89486" lon="8.55767">
        <ele>1094</ele>
        <time>2021-08-10T13:51:50.082Z</time>
      </trkpt>
      <trkpt lat="46.89485" lon="8.55767">
        <ele>1094</ele>
        <time>2021-08-10T13:51:51.082Z</time>
      </trkpt>
      <trkpt lat="46.89484" lon="8.55767">
        <ele>1095</ele>
        <time>2021-08-10T13:51:52.082Z</time>
      </trkpt>
      <trkpt lat="46.89483" lon="8.55767">
        <ele>1095</ele>
        <time>2021-08-10T13:51:53.082Z</time>
      </trkpt>
      <trkpt lat="46.89482" lon="8.55767">
        <ele>1096</ele>
        <time>2021-08-10T13:51:57.247Z</time>
      </trkpt>
      <trkpt lat="46.89481" lon="8.55766">
        <ele>1096</ele>
        <time>2021-08-10T13:51:58.247Z</time>
      </trkpt>
      <trkpt lat="46.8948" lon="8.55766">
        <ele>1096</ele>
        <time>2021-08-10T13:51:59.246Z</time>
      </trkpt>
      <trkpt lat="46.89479" lon="8.55766">
        <ele>1097</ele>
        <time>2021-08-10T13:52:00.247Z</time>
      </trkpt>
      <trkpt lat="46.89478" lon="8.55766">
        <ele>1097</ele>
        <time>2021-08-10T13:52:01.246Z</time>
      </trkpt>
      <trkpt lat="46.89477" lon="8.55766">
        <ele>1097</ele>
        <time>2021-08-10T13:52:02.246Z</time>
      </trkpt>
      <trkpt lat="46.89475" lon="8.55765">
        <ele>1098</ele>
        <time>2021-08-10T13:52:03.246Z</time>
      </trkpt>
      <trkpt lat="46.89474" lon="8.55765">
        <ele>1098</ele>
        <time>2021-08-10T13:52:04.246Z</time>
      </trkpt>
      <trkpt lat="46.89473" lon="8.55765">
        <ele>1098</ele>
        <time>2021-08-10T13:52:05.246Z</time>
      </trkpt>
      <trkpt lat="46.89472" lon="8.55765">
        <ele>1098</ele>
        <time>2021-08-10T13:52:06.247Z</time>
      </trkpt>
      <trkpt lat="46.89471" lon="8.55765">
        <ele>1098</ele>
        <time>2021-08-10T13:52:07.247Z</time>
      </trkpt>
      <trkpt lat="46.8947" lon="8.55765">
        <ele>1098</ele>
        <time>2021-08-10T13:52:08.246Z</time>
      </trkpt>
      <trkpt lat="46.89469" lon="8.55766">
        <ele>1097</ele>
        <time>2021-08-10T13:52:09.246Z</time>
      </trkpt>
      <trkpt lat="46.89468" lon="8.55766">
        <ele>1097</ele>
        <time>2021-08-10T13:52:10.247Z</time>
      </trkpt>
      <trkpt lat="46.89467" lon="8.55767">
        <ele>1097</ele>
        <time>2021-08-10T13:52:11.247Z</time>
      </trkpt>
      <trkpt lat="46.89466" lon="8.55767">
        <ele>1096</ele>
        <time>2021-08-10T13:52:12.247Z</time>
      </trkpt>
      <trkpt lat="46.89465" lon="8.55767">
        <ele>1096</ele>
        <time>2021-08-10T13:52:13.247Z</time>
      </trkpt>
      <trkpt lat="46.89464" lon="8.55768">
        <ele>1096</ele>
        <time>2021-08-10T13:52:14.247Z</time>
      </trkpt>
      <trkpt lat="46.89463" lon="8.55768">
        <ele>1096</ele>
        <time>2021-08-10T13:52:15.246Z</time>
      </trkpt>
      <trkpt lat="46.89461" lon="8.55767">
        <ele>1096</ele>
        <time>2021-08-10T13:52:16.246Z</time>
      </trkpt>
      <trkpt lat="46.8946" lon="8.55768">
        <ele>1096</ele>
        <time>2021-08-10T13:52:17.247Z</time>
      </trkpt>
      <trkpt lat="46.89459" lon="8.55768">
        <ele>1096</ele>
        <time>2021-08-10T13:52:18.247Z</time>
      </trkpt>
      <trkpt lat="46.89458" lon="8.55768">
        <ele>1096</ele>
        <time>2021-08-10T13:52:19.247Z</time>
      </trkpt>
      <trkpt lat="46.89457" lon="8.55768">
        <ele>1096</ele>
        <time>2021-08-10T13:52:20.247Z</time>
      </trkpt>
      <trkpt lat="46.89456" lon="8.55767">
        <ele>1096</ele>
        <time>2021-08-10T13:52:21.246Z</time>
      </trkpt>
      <trkpt lat="46.89455" lon="8.55767">
        <ele>1096</ele>
        <time>2021-08-10T13:52:22.246Z</time>
      </trkpt>
      <trkpt lat="46.89454" lon="8.55766">
        <ele>1096</ele>
        <time>2021-08-10T13:52:23.247Z</time>
      </trkpt>
      <trkpt lat="46.89452" lon="8.55766">
        <ele>1097</ele>
        <time>2021-08-10T13:52:24.247Z</time>
      </trkpt>
      <trkpt lat="46.89451" lon="8.55766">
        <ele>1097</ele>
        <time>2021-08-10T13:52:25.247Z</time>
      </trkpt>
      <trkpt lat="46.89449" lon="8.55766">
        <ele>1097</ele>
        <time>2021-08-10T13:52:26.246Z</time>
      </trkpt>
      <trkpt lat="46.89448" lon="8.55766">
        <ele>1097</ele>
        <time>2021-08-10T13:52:27.247Z</time>
      </trkpt>
      <trkpt lat="46.89448" lon="8.55766">
        <ele>1097</ele>
        <time>2021-08-10T13:52:28.246Z</time>
      </trkpt>
      <trkpt lat="46.89447" lon="8.55766">
        <ele>1097</ele>
        <time>2021-08-10T13:52:29.246Z</time>
      </trkpt>
      <trkpt lat="46.89446" lon="8.55766">
        <ele>1097</ele>
        <time>2021-08-10T13:52:30.246Z</time>
      </trkpt>
      <trkpt lat="46.89445" lon="8.55766">
        <ele>1097</ele>
        <time>2021-08-10T13:52:31.247Z</time>
      </trkpt>
      <trkpt lat="46.89444" lon="8.55766">
        <ele>1097</ele>
        <time>2021-08-10T13:52:32.247Z</time>
      </trkpt>
      <trkpt lat="46.89443" lon="8.55766">
        <ele>1096</ele>
        <time>2021-08-10T13:52:34.348Z</time>
      </trkpt>
      <trkpt lat="46.89442" lon="8.55765">
        <ele>1096</ele>
        <time>2021-08-10T13:52:35.348Z</time>
      </trkpt>
      <trkpt lat="46.8944" lon="8.55763">
        <ele>1097</ele>
        <time>2021-08-10T13:52:36.348Z</time>
      </trkpt>
      <trkpt lat="46.89438" lon="8.55762">
        <ele>1097</ele>
        <time>2021-08-10T13:52:37.347Z</time>
      </trkpt>
      <trkpt lat="46.89437" lon="8.55762">
        <ele>1097</ele>
        <time>2021-08-10T13:52:38.348Z</time>
      </trkpt>
      <trkpt lat="46.89436" lon="8.55761">
        <ele>1097</ele>
        <time>2021-08-10T13:52:39.348Z</time>
      </trkpt>
      <trkpt lat="46.89434" lon="8.55759">
        <ele>1097</ele>
        <time>2021-08-10T13:52:40.347Z</time>
      </trkpt>
      <trkpt lat="46.89433" lon="8.55758">
        <ele>1097</ele>
        <time>2021-08-10T13:52:41.348Z</time>
      </trkpt>
      <trkpt lat="46.89431" lon="8.55758">
        <ele>1096</ele>
        <time>2021-08-10T13:52:42.348Z</time>
      </trkpt>
      <trkpt lat="46.8943" lon="8.55757">
        <ele>1096</ele>
        <time>2021-08-10T13:52:43.348Z</time>
      </trkpt>
      <trkpt lat="46.89429" lon="8.55756">
        <ele>1095</ele>
        <time>2021-08-10T13:52:44.347Z</time>
      </trkpt>
      <trkpt lat="46.89428" lon="8.55755">
        <ele>1095</ele>
        <time>2021-08-10T13:52:45.348Z</time>
      </trkpt>
      <trkpt lat="46.89426" lon="8.55754">
        <ele>1095</ele>
        <time>2021-08-10T13:52:46.348Z</time>
      </trkpt>
      <trkpt lat="46.89425" lon="8.55753">
        <ele>1095</ele>
        <time>2021-08-10T13:52:47.347Z</time>
      </trkpt>
      <trkpt lat="46.89424" lon="8.55754">
        <ele>1095</ele>
        <time>2021-08-10T13:52:49.366Z</time>
      </trkpt>
      <trkpt lat="46.89423" lon="8.55753">
        <ele>1095</ele>
        <time>2021-08-10T13:52:50.365Z</time>
      </trkpt>
      <trkpt lat="46.89422" lon="8.55753">
        <ele>1095</ele>
        <time>2021-08-10T13:52:51.366Z</time>
      </trkpt>
      <trkpt lat="46.89421" lon="8.55753">
        <ele>1095</ele>
        <time>2021-08-10T13:52:52.365Z</time>
      </trkpt>
      <trkpt lat="46.8942" lon="8.55753">
        <ele>1095</ele>
        <time>2021-08-10T13:52:53.366Z</time>
      </trkpt>
      <trkpt lat="46.89418" lon="8.55752">
        <ele>1096</ele>
        <time>2021-08-10T13:52:54.366Z</time>
      </trkpt>
      <trkpt lat="46.89418" lon="8.55751">
        <ele>1096</ele>
        <time>2021-08-10T13:52:55.366Z</time>
      </trkpt>
      <trkpt lat="46.89416" lon="8.5575">
        <ele>1096</ele>
        <time>2021-08-10T13:52:59.479Z</time>
      </trkpt>
      <trkpt lat="46.89415" lon="8.55749">
        <ele>1097</ele>
        <time>2021-08-10T13:53:00.478Z</time>
      </trkpt>
      <trkpt lat="46.89413" lon="8.55749">
        <ele>1097</ele>
        <time>2021-08-10T13:53:01.479Z</time>
      </trkpt>
      <trkpt lat="46.89411" lon="8.55748">
        <ele>1097</ele>
        <time>2021-08-10T13:53:02.479Z</time>
      </trkpt>
      <trkpt lat="46.8941" lon="8.55746">
        <ele>1097</ele>
        <time>2021-08-10T13:53:03.479Z</time>
      </trkpt>
      <trkpt lat="46.89408" lon="8.55745">
        <ele>1097</ele>
        <time>2021-08-10T13:53:04.479Z</time>
      </trkpt>
      <trkpt lat="46.89407" lon="8.55744">
        <ele>1097</ele>
        <time>2021-08-10T13:53:05.479Z</time>
      </trkpt>
      <trkpt lat="46.89406" lon="8.55744">
        <ele>1097</ele>
        <time>2021-08-10T13:53:06.479Z</time>
      </trkpt>
      <trkpt lat="46.89404" lon="8.55742">
        <ele>1097</ele>
        <time>2021-08-10T13:53:07.479Z</time>
      </trkpt>
      <trkpt lat="46.89403" lon="8.55741">
        <ele>1097</ele>
        <time>2021-08-10T13:53:08.478Z</time>
      </trkpt>
      <trkpt lat="46.89401" lon="8.55742">
        <ele>1097</ele>
        <time>2021-08-10T13:53:09.479Z</time>
      </trkpt>
      <trkpt lat="46.89401" lon="8.55745">
        <ele>1097</ele>
        <time>2021-08-10T13:53:10.479Z</time>
      </trkpt>
      <trkpt lat="46.894" lon="8.55745">
        <ele>1097</ele>
        <time>2021-08-10T13:53:11.479Z</time>
      </trkpt>
      <trkpt lat="46.89399" lon="8.55747">
        <ele>1097</ele>
        <time>2021-08-10T13:53:12.478Z</time>
      </trkpt>
      <trkpt lat="46.89399" lon="8.55747">
        <ele>1096</ele>
        <time>2021-08-10T13:53:13.479Z</time>
      </trkpt>
      <trkpt lat="46.89398" lon="8.55748">
        <ele>1096</ele>
        <time>2021-08-10T13:53:14.479Z</time>
      </trkpt>
      <trkpt lat="46.89397" lon="8.55748">
        <ele>1095</ele>
        <time>2021-08-10T13:53:15.479Z</time>
      </trkpt>
      <trkpt lat="46.89396" lon="8.55748">
        <ele>1095</ele>
        <time>2021-08-10T13:53:16.479Z</time>
      </trkpt>
      <trkpt lat="46.89395" lon="8.55748">
        <ele>1095</ele>
        <time>2021-08-10T13:53:17.479Z</time>
      </trkpt>
      <trkpt lat="46.89394" lon="8.55748">
        <ele>1095</ele>
        <time>2021-08-10T13:53:18.479Z</time>
      </trkpt>
      <trkpt lat="46.89393" lon="8.55748">
        <ele>1095</ele>
        <time>2021-08-10T13:53:19.478Z</time>
      </trkpt>
      <trkpt lat="46.89392" lon="8.55749">
        <ele>1095</ele>
        <time>2021-08-10T13:53:20.479Z</time>
      </trkpt>
      <trkpt lat="46.89392" lon="8.5575">
        <ele>1094</ele>
        <time>2021-08-10T13:53:21.479Z</time>
      </trkpt>
      <trkpt lat="46.89391" lon="8.5575">
        <ele>1094</ele>
        <time>2021-08-10T13:53:22.478Z</time>
      </trkpt>
      <trkpt lat="46.89391" lon="8.5575">
        <ele>1093</ele>
        <time>2021-08-10T13:53:23.479Z</time>
      </trkpt>
      <trkpt lat="46.8939" lon="8.5575">
        <ele>1093</ele>
        <time>2021-08-10T13:53:28.466Z</time>
      </trkpt>
      <trkpt lat="46.8939" lon="8.5575">
        <ele>1092</ele>
        <time>2021-08-10T13:53:29.467Z</time>
      </trkpt>
      <trkpt lat="46.89389" lon="8.5575">
        <ele>1092</ele>
        <time>2021-08-10T13:53:30.467Z</time>
      </trkpt>
      <trkpt lat="46.89389" lon="8.55751">
        <ele>1091</ele>
        <time>2021-08-10T13:53:31.467Z</time>
      </trkpt>
      <trkpt lat="46.89389" lon="8.55752">
        <ele>1091</ele>
        <time>2021-08-10T13:53:32.467Z</time>
      </trkpt>
      <trkpt lat="46.89388" lon="8.55753">
        <ele>1090</ele>
        <time>2021-08-10T13:53:33.466Z</time>
      </trkpt>
      <trkpt lat="46.89387" lon="8.55753">
        <ele>1089</ele>
        <time>2021-08-10T13:53:34.467Z</time>
      </trkpt>
      <trkpt lat="46.89386" lon="8.55754">
        <ele>1089</ele>
        <time>2021-08-10T13:53:35.466Z</time>
      </trkpt>
      <trkpt lat="46.89385" lon="8.55753">
        <ele>1088</ele>
        <time>2021-08-10T13:53:36.467Z</time>
      </trkpt>
      <trkpt lat="46.89384" lon="8.55752">
        <ele>1087</ele>
        <time>2021-08-10T13:53:37.466Z</time>
      </trkpt>
      <trkpt lat="46.89383" lon="8.55752">
        <ele>1087</ele>
        <time>2021-08-10T13:53:38.467Z</time>
      </trkpt>
      <trkpt lat="46.89381" lon="8.55752">
        <ele>1087</ele>
        <time>2021-08-10T13:53:39.466Z</time>
      </trkpt>
      <trkpt lat="46.89379" lon="8.55751">
        <ele>1087</ele>
        <time>2021-08-10T13:53:40.467Z</time>
      </trkpt>
      <trkpt lat="46.89378" lon="8.5575">
        <ele>1087</ele>
        <time>2021-08-10T13:53:41.467Z</time>
      </trkpt>
      <trkpt lat="46.89377" lon="8.5575">
        <ele>1087</ele>
        <time>2021-08-10T13:53:42.467Z</time>
      </trkpt>
      <trkpt lat="46.89377" lon="8.55751">
        <ele>1086</ele>
        <time>2021-08-10T13:53:43.467Z</time>
      </trkpt>
      <trkpt lat="46.89376" lon="8.55751">
        <ele>1086</ele>
        <time>2021-08-10T13:53:44.466Z</time>
      </trkpt>
      <trkpt lat="46.89375" lon="8.55752">
        <ele>1085</ele>
        <time>2021-08-10T13:53:45.466Z</time>
      </trkpt>
      <trkpt lat="46.89374" lon="8.55752">
        <ele>1086</ele>
        <time>2021-08-10T13:53:46.466Z</time>
      </trkpt>
      <trkpt lat="46.89373" lon="8.55752">
        <ele>1086</ele>
        <time>2021-08-10T13:53:47.467Z</time>
      </trkpt>
      <trkpt lat="46.89372" lon="8.55753">
        <ele>1086</ele>
        <time>2021-08-10T13:53:48.467Z</time>
      </trkpt>
      <trkpt lat="46.89371" lon="8.55753">
        <ele>1087</ele>
        <time>2021-08-10T13:53:49.467Z</time>
      </trkpt>
      <trkpt lat="46.89371" lon="8.55753">
        <ele>1087</ele>
        <time>2021-08-10T13:53:50.467Z</time>
      </trkpt>
      <trkpt lat="46.8937" lon="8.55753">
        <ele>1088</ele>
        <time>2021-08-10T13:53:51.466Z</time>
      </trkpt>
      <trkpt lat="46.89369" lon="8.55753">
        <ele>1088</ele>
        <time>2021-08-10T13:53:52.466Z</time>
      </trkpt>
      <trkpt lat="46.89368" lon="8.55752">
        <ele>1088</ele>
        <time>2021-08-10T13:53:53.467Z</time>
      </trkpt>
      <trkpt lat="46.89367" lon="8.55751">
        <ele>1089</ele>
        <time>2021-08-10T13:53:54.467Z</time>
      </trkpt>
      <trkpt lat="46.89365" lon="8.55751">
        <ele>1089</ele>
        <time>2021-08-10T13:53:55.467Z</time>
      </trkpt>
      <trkpt lat="46.89364" lon="8.55751">
        <ele>1089</ele>
        <time>2021-08-10T13:53:56.467Z</time>
      </trkpt>
      <trkpt lat="46.89364" lon="8.55751">
        <ele>1089</ele>
        <time>2021-08-10T13:53:57.467Z</time>
      </trkpt>
      <trkpt lat="46.89363" lon="8.55751">
        <ele>1089</ele>
        <time>2021-08-10T13:53:58.467Z</time>
      </trkpt>
      <trkpt lat="46.89362" lon="8.5575">
        <ele>1089</ele>
        <time>2021-08-10T13:53:59.467Z</time>
      </trkpt>
      <trkpt lat="46.89361" lon="8.5575">
        <ele>1089</ele>
        <time>2021-08-10T13:54:00.467Z</time>
      </trkpt>
      <trkpt lat="46.8936" lon="8.5575">
        <ele>1090</ele>
        <time>2021-08-10T13:54:01.467Z</time>
      </trkpt>
      <trkpt lat="46.89358" lon="8.55749">
        <ele>1090</ele>
        <time>2021-08-10T13:54:02.467Z</time>
      </trkpt>
      <trkpt lat="46.89357" lon="8.55749">
        <ele>1091</ele>
        <time>2021-08-10T13:54:03.467Z</time>
      </trkpt>
      <trkpt lat="46.89357" lon="8.55748">
        <ele>1092</ele>
        <time>2021-08-10T13:54:04.467Z</time>
      </trkpt>
      <trkpt lat="46.89356" lon="8.55748">
        <ele>1092</ele>
        <time>2021-08-10T13:54:05.466Z</time>
      </trkpt>
      <trkpt lat="46.89355" lon="8.55747">
        <ele>1093</ele>
        <time>2021-08-10T13:54:06.466Z</time>
      </trkpt>
      <trkpt lat="46.89354" lon="8.55746">
        <ele>1093</ele>
        <time>2021-08-10T13:54:07.467Z</time>
      </trkpt>
      <trkpt lat="46.89353" lon="8.55746">
        <ele>1093</ele>
        <time>2021-08-10T13:54:08.467Z</time>
      </trkpt>
      <trkpt lat="46.89352" lon="8.55745">
        <ele>1094</ele>
        <time>2021-08-10T13:54:09.466Z</time>
      </trkpt>
      <trkpt lat="46.89351" lon="8.55745">
        <ele>1094</ele>
        <time>2021-08-10T13:54:10.466Z</time>
      </trkpt>
      <trkpt lat="46.89351" lon="8.55745">
        <ele>1094</ele>
        <time>2021-08-10T13:54:11.466Z</time>
      </trkpt>
      <trkpt lat="46.8935" lon="8.55745">
        <ele>1094</ele>
        <time>2021-08-10T13:54:12.466Z</time>
      </trkpt>
      <trkpt lat="46.89349" lon="8.55744">
        <ele>1094</ele>
        <time>2021-08-10T13:54:13.467Z</time>
      </trkpt>
      <trkpt lat="46.89347" lon="8.55744">
        <ele>1094</ele>
        <time>2021-08-10T13:54:14.466Z</time>
      </trkpt>
      <trkpt lat="46.89346" lon="8.55743">
        <ele>1094</ele>
        <time>2021-08-10T13:54:15.466Z</time>
      </trkpt>
      <trkpt lat="46.89346" lon="8.55743">
        <ele>1094</ele>
        <time>2021-08-10T13:54:16.466Z</time>
      </trkpt>
      <trkpt lat="46.89345" lon="8.55743">
        <ele>1094</ele>
        <time>2021-08-10T13:54:17.466Z</time>
      </trkpt>
      <trkpt lat="46.89344" lon="8.55742">
        <ele>1093</ele>
        <time>2021-08-10T13:54:18.466Z</time>
      </trkpt>
      <trkpt lat="46.89343" lon="8.55742">
        <ele>1093</ele>
        <time>2021-08-10T13:54:19.467Z</time>
      </trkpt>
      <trkpt lat="46.89342" lon="8.55741">
        <ele>1093</ele>
        <time>2021-08-10T13:54:20.467Z</time>
      </trkpt>
      <trkpt lat="46.89341" lon="8.55741">
        <ele>1092</ele>
        <time>2021-08-10T13:54:21.466Z</time>
      </trkpt>
      <trkpt lat="46.8934" lon="8.55741">
        <ele>1092</ele>
        <time>2021-08-10T13:54:22.467Z</time>
      </trkpt>
      <trkpt lat="46.89339" lon="8.5574">
        <ele>1091</ele>
        <time>2021-08-10T13:54:23.466Z</time>
      </trkpt>
      <trkpt lat="46.89338" lon="8.5574">
        <ele>1091</ele>
        <time>2021-08-10T13:54:24.467Z</time>
      </trkpt>
      <trkpt lat="46.89337" lon="8.5574">
        <ele>1091</ele>
        <time>2021-08-10T13:54:25.466Z</time>
      </trkpt>
      <trkpt lat="46.89336" lon="8.55739">
        <ele>1091</ele>
        <time>2021-08-10T13:54:26.466Z</time>
      </trkpt>
      <trkpt lat="46.89335" lon="8.55739">
        <ele>1091</ele>
        <time>2021-08-10T13:54:27.466Z</time>
      </trkpt>
      <trkpt lat="46.89334" lon="8.55738">
        <ele>1091</ele>
        <time>2021-08-10T13:54:28.466Z</time>
      </trkpt>
      <trkpt lat="46.89333" lon="8.55737">
        <ele>1091</ele>
        <time>2021-08-10T13:54:29.466Z</time>
      </trkpt>
      <trkpt lat="46.89331" lon="8.55736">
        <ele>1091</ele>
        <time>2021-08-10T13:54:30.466Z</time>
      </trkpt>
      <trkpt lat="46.8933" lon="8.55736">
        <ele>1091</ele>
        <time>2021-08-10T13:54:31.466Z</time>
      </trkpt>
      <trkpt lat="46.89329" lon="8.55735">
        <ele>1092</ele>
        <time>2021-08-10T13:54:32.466Z</time>
      </trkpt>
      <trkpt lat="46.89329" lon="8.55735">
        <ele>1092</ele>
        <time>2021-08-10T13:54:33.466Z</time>
      </trkpt>
      <trkpt lat="46.89327" lon="8.55735">
        <ele>1093</ele>
        <time>2021-08-10T13:54:34.467Z</time>
      </trkpt>
      <trkpt lat="46.89326" lon="8.55734">
        <ele>1093</ele>
        <time>2021-08-10T13:54:35.466Z</time>
      </trkpt>
      <trkpt lat="46.89325" lon="8.55733">
        <ele>1094</ele>
        <time>2021-08-10T13:54:36.467Z</time>
      </trkpt>
      <trkpt lat="46.89324" lon="8.55733">
        <ele>1094</ele>
        <time>2021-08-10T13:54:37.467Z</time>
      </trkpt>
      <trkpt lat="46.89323" lon="8.55733">
        <ele>1095</ele>
        <time>2021-08-10T13:54:38.466Z</time>
      </trkpt>
      <trkpt lat="46.89323" lon="8.55733">
        <ele>1095</ele>
        <time>2021-08-10T13:54:39.467Z</time>
      </trkpt>
      <trkpt lat="46.89322" lon="8.55733">
        <ele>1095</ele>
        <time>2021-08-10T13:54:40.467Z</time>
      </trkpt>
      <trkpt lat="46.89321" lon="8.55734">
        <ele>1095</ele>
        <time>2021-08-10T13:54:41.467Z</time>
      </trkpt>
      <trkpt lat="46.8932" lon="8.55734">
        <ele>1095</ele>
        <time>2021-08-10T13:54:42.467Z</time>
      </trkpt>
      <trkpt lat="46.89318" lon="8.55734">
        <ele>1094</ele>
        <time>2021-08-10T13:54:43.467Z</time>
      </trkpt>
      <trkpt lat="46.89317" lon="8.55732">
        <ele>1094</ele>
        <time>2021-08-10T13:54:44.466Z</time>
      </trkpt>
      <trkpt lat="46.89315" lon="8.55731">
        <ele>1094</ele>
        <time>2021-08-10T13:54:45.467Z</time>
      </trkpt>
      <trkpt lat="46.89315" lon="8.55731">
        <ele>1094</ele>
        <time>2021-08-10T13:54:46.467Z</time>
      </trkpt>
      <trkpt lat="46.89314" lon="8.55731">
        <ele>1094</ele>
        <time>2021-08-10T13:54:47.467Z</time>
      </trkpt>
      <trkpt lat="46.89314" lon="8.55731">
        <ele>1094</ele>
        <time>2021-08-10T13:54:48.466Z</time>
      </trkpt>
      <trkpt lat="46.89313" lon="8.55731">
        <ele>1095</ele>
        <time>2021-08-10T13:54:49.467Z</time>
      </trkpt>
      <trkpt lat="46.89311" lon="8.5573">
        <ele>1095</ele>
        <time>2021-08-10T13:54:50.467Z</time>
      </trkpt>
      <trkpt lat="46.8931" lon="8.55729">
        <ele>1095</ele>
        <time>2021-08-10T13:54:51.466Z</time>
      </trkpt>
      <trkpt lat="46.89309" lon="8.55729">
        <ele>1096</ele>
        <time>2021-08-10T13:54:52.467Z</time>
      </trkpt>
      <trkpt lat="46.89309" lon="8.55729">
        <ele>1097</ele>
        <time>2021-08-10T13:54:53.467Z</time>
      </trkpt>
      <trkpt lat="46.89307" lon="8.55728">
        <ele>1097</ele>
        <time>2021-08-10T13:54:54.466Z</time>
      </trkpt>
      <trkpt lat="46.89306" lon="8.55728">
        <ele>1098</ele>
        <time>2021-08-10T13:54:55.467Z</time>
      </trkpt>
      <trkpt lat="46.89305" lon="8.55728">
        <ele>1099</ele>
        <time>2021-08-10T13:54:56.467Z</time>
      </trkpt>
      <trkpt lat="46.89304" lon="8.55727">
        <ele>1100</ele>
        <time>2021-08-10T13:54:57.467Z</time>
      </trkpt>
      <trkpt lat="46.89303" lon="8.55726">
        <ele>1101</ele>
        <time>2021-08-10T13:54:58.467Z</time>
      </trkpt>
      <trkpt lat="46.89302" lon="8.55725">
        <ele>1101</ele>
        <time>2021-08-10T13:54:59.466Z</time>
      </trkpt>
      <trkpt lat="46.89301" lon="8.55725">
        <ele>1102</ele>
        <time>2021-08-10T13:55:00.467Z</time>
      </trkpt>
      <trkpt lat="46.893" lon="8.55725">
        <ele>1103</ele>
        <time>2021-08-10T13:55:01.467Z</time>
      </trkpt>
      <trkpt lat="46.89299" lon="8.55724">
        <ele>1103</ele>
        <time>2021-08-10T13:55:02.467Z</time>
      </trkpt>
      <trkpt lat="46.89298" lon="8.55723">
        <ele>1103</ele>
        <time>2021-08-10T13:55:03.466Z</time>
      </trkpt>
      <trkpt lat="46.89297" lon="8.55723">
        <ele>1103</ele>
        <time>2021-08-10T13:55:04.466Z</time>
      </trkpt>
      <trkpt lat="46.89296" lon="8.55723">
        <ele>1103</ele>
        <time>2021-08-10T13:55:05.467Z</time>
      </trkpt>
      <trkpt lat="46.89296" lon="8.55722">
        <ele>1103</ele>
        <time>2021-08-10T13:55:06.467Z</time>
      </trkpt>
      <trkpt lat="46.89295" lon="8.55721">
        <ele>1103</ele>
        <time>2021-08-10T13:55:07.467Z</time>
      </trkpt>
      <trkpt lat="46.89294" lon="8.55721">
        <ele>1102</ele>
        <time>2021-08-10T13:55:08.466Z</time>
      </trkpt>
      <trkpt lat="46.89294" lon="8.5572">
        <ele>1102</ele>
        <time>2021-08-10T13:55:09.467Z</time>
      </trkpt>
      <trkpt lat="46.89293" lon="8.55719">
        <ele>1101</ele>
        <time>2021-08-10T13:55:10.467Z</time>
      </trkpt>
      <trkpt lat="46.89292" lon="8.55719">
        <ele>1101</ele>
        <time>2021-08-10T13:55:11.466Z</time>
      </trkpt>
      <trkpt lat="46.89291" lon="8.55719">
        <ele>1101</ele>
        <time>2021-08-10T13:55:12.467Z</time>
      </trkpt>
      <trkpt lat="46.8929" lon="8.5572">
        <ele>1101</ele>
        <time>2021-08-10T13:55:13.467Z</time>
      </trkpt>
      <trkpt lat="46.8929" lon="8.55719">
        <ele>1101</ele>
        <time>2021-08-10T13:55:14.467Z</time>
      </trkpt>
      <trkpt lat="46.89289" lon="8.5572">
        <ele>1101</ele>
        <time>2021-08-10T13:55:15.467Z</time>
      </trkpt>
      <trkpt lat="46.89289" lon="8.5572">
        <ele>1100</ele>
        <time>2021-08-10T13:55:19.489Z</time>
      </trkpt>
      <trkpt lat="46.89288" lon="8.5572">
        <ele>1100</ele>
        <time>2021-08-10T13:55:20.489Z</time>
      </trkpt>
      <trkpt lat="46.89288" lon="8.55721">
        <ele>1099</ele>
        <time>2021-08-10T13:55:21.488Z</time>
      </trkpt>
      <trkpt lat="46.89287" lon="8.55721">
        <ele>1099</ele>
        <time>2021-08-10T13:55:22.489Z</time>
      </trkpt>
      <trkpt lat="46.89287" lon="8.55721">
        <ele>1098</ele>
        <time>2021-08-10T13:55:23.489Z</time>
      </trkpt>
      <trkpt lat="46.89286" lon="8.5572">
        <ele>1098</ele>
        <time>2021-08-10T13:55:28.426Z</time>
      </trkpt>
      <trkpt lat="46.89286" lon="8.55719">
        <ele>1098</ele>
        <time>2021-08-10T13:55:29.425Z</time>
      </trkpt>
      <trkpt lat="46.89285" lon="8.55719">
        <ele>1099</ele>
        <time>2021-08-10T13:55:30.426Z</time>
      </trkpt>
      <trkpt lat="46.89284" lon="8.55718">
        <ele>1099</ele>
        <time>2021-08-10T13:55:31.425Z</time>
      </trkpt>
      <trkpt lat="46.89283" lon="8.55717">
        <ele>1099</ele>
        <time>2021-08-10T13:55:32.426Z</time>
      </trkpt>
      <trkpt lat="46.89282" lon="8.55717">
        <ele>1099</ele>
        <time>2021-08-10T13:55:33.426Z</time>
      </trkpt>
      <trkpt lat="46.89281" lon="8.55717">
        <ele>1099</ele>
        <time>2021-08-10T13:55:34.425Z</time>
      </trkpt>
      <trkpt lat="46.8928" lon="8.55717">
        <ele>1100</ele>
        <time>2021-08-10T13:55:35.425Z</time>
      </trkpt>
      <trkpt lat="46.89279" lon="8.55716">
        <ele>1100</ele>
        <time>2021-08-10T13:55:36.425Z</time>
      </trkpt>
      <trkpt lat="46.89278" lon="8.55716">
        <ele>1100</ele>
        <time>2021-08-10T13:55:37.426Z</time>
      </trkpt>
      <trkpt lat="46.89277" lon="8.55715">
        <ele>1100</ele>
        <time>2021-08-10T13:55:38.426Z</time>
      </trkpt>
      <trkpt lat="46.89275" lon="8.55713">
        <ele>1100</ele>
        <time>2021-08-10T13:55:39.425Z</time>
      </trkpt>
      <trkpt lat="46.89274" lon="8.55713">
        <ele>1100</ele>
        <time>2021-08-10T13:55:40.426Z</time>
      </trkpt>
      <trkpt lat="46.89273" lon="8.55712">
        <ele>1100</ele>
        <time>2021-08-10T13:55:41.425Z</time>
      </trkpt>
      <trkpt lat="46.89272" lon="8.55711">
        <ele>1100</ele>
        <time>2021-08-10T13:55:42.426Z</time>
      </trkpt>
      <trkpt lat="46.89272" lon="8.55711">
        <ele>1100</ele>
        <time>2021-08-10T13:55:43.426Z</time>
      </trkpt>
      <trkpt lat="46.89271" lon="8.5571">
        <ele>1099</ele>
        <time>2021-08-10T13:55:44.426Z</time>
      </trkpt>
      <trkpt lat="46.8927" lon="8.55709">
        <ele>1099</ele>
        <time>2021-08-10T13:55:45.426Z</time>
      </trkpt>
      <trkpt lat="46.89269" lon="8.55709">
        <ele>1099</ele>
        <time>2021-08-10T13:55:46.425Z</time>
      </trkpt>
      <trkpt lat="46.89268" lon="8.55708">
        <ele>1098</ele>
        <time>2021-08-10T13:55:47.426Z</time>
      </trkpt>
      <trkpt lat="46.89267" lon="8.55707">
        <ele>1098</ele>
        <time>2021-08-10T13:55:48.426Z</time>
      </trkpt>
      <trkpt lat="46.89266" lon="8.55707">
        <ele>1098</ele>
        <time>2021-08-10T13:55:49.426Z</time>
      </trkpt>
      <trkpt lat="46.89265" lon="8.55706">
        <ele>1098</ele>
        <time>2021-08-10T13:55:50.426Z</time>
      </trkpt>
      <trkpt lat="46.89264" lon="8.55705">
        <ele>1099</ele>
        <time>2021-08-10T13:55:51.426Z</time>
      </trkpt>
      <trkpt lat="46.89264" lon="8.55705">
        <ele>1099</ele>
        <time>2021-08-10T13:55:52.426Z</time>
      </trkpt>
      <trkpt lat="46.89263" lon="8.55705">
        <ele>1099</ele>
        <time>2021-08-10T13:55:53.426Z</time>
      </trkpt>
      <trkpt lat="46.89262" lon="8.55705">
        <ele>1099</ele>
        <time>2021-08-10T13:55:54.426Z</time>
      </trkpt>
      <trkpt lat="46.89261" lon="8.55704">
        <ele>1099</ele>
        <time>2021-08-10T13:55:55.426Z</time>
      </trkpt>
      <trkpt lat="46.8926" lon="8.55703">
        <ele>1099</ele>
        <time>2021-08-10T13:55:56.425Z</time>
      </trkpt>
      <trkpt lat="46.89259" lon="8.55703">
        <ele>1099</ele>
        <time>2021-08-10T13:55:57.426Z</time>
      </trkpt>
      <trkpt lat="46.89258" lon="8.55703">
        <ele>1099</ele>
        <time>2021-08-10T13:55:58.426Z</time>
      </trkpt>
      <trkpt lat="46.89257" lon="8.55702">
        <ele>1098</ele>
        <time>2021-08-10T13:55:59.426Z</time>
      </trkpt>
      <trkpt lat="46.89256" lon="8.55701">
        <ele>1097</ele>
        <time>2021-08-10T13:56:00.426Z</time>
      </trkpt>
      <trkpt lat="46.89256" lon="8.55701">
        <ele>1096</ele>
        <time>2021-08-10T13:56:01.426Z</time>
      </trkpt>
      <trkpt lat="46.89255" lon="8.55701">
        <ele>1096</ele>
        <time>2021-08-10T13:56:02.426Z</time>
      </trkpt>
      <trkpt lat="46.89255" lon="8.557">
        <ele>1095</ele>
        <time>2021-08-10T13:56:03.426Z</time>
      </trkpt>
      <trkpt lat="46.89254" lon="8.557">
        <ele>1095</ele>
        <time>2021-08-10T13:56:04.425Z</time>
      </trkpt>
      <trkpt lat="46.89254" lon="8.557">
        <ele>1096</ele>
        <time>2021-08-10T13:56:05.426Z</time>
      </trkpt>
      <trkpt lat="46.89253" lon="8.557">
        <ele>1096</ele>
        <time>2021-08-10T13:56:06.426Z</time>
      </trkpt>
      <trkpt lat="46.89253" lon="8.55699">
        <ele>1096</ele>
        <time>2021-08-10T13:56:07.425Z</time>
      </trkpt>
      <trkpt lat="46.89252" lon="8.55699">
        <ele>1097</ele>
        <time>2021-08-10T13:56:08.426Z</time>
      </trkpt>
      <trkpt lat="46.8925" lon="8.55698">
        <ele>1098</ele>
        <time>2021-08-10T13:56:09.426Z</time>
      </trkpt>
      <trkpt lat="46.89249" lon="8.55698">
        <ele>1098</ele>
        <time>2021-08-10T13:56:10.425Z</time>
      </trkpt>
      <trkpt lat="46.89249" lon="8.55697">
        <ele>1099</ele>
        <time>2021-08-10T13:56:11.425Z</time>
      </trkpt>
      <trkpt lat="46.89248" lon="8.55696">
        <ele>1100</ele>
        <time>2021-08-10T13:56:12.425Z</time>
      </trkpt>
      <trkpt lat="46.89248" lon="8.55695">
        <ele>1100</ele>
        <time>2021-08-10T13:56:13.425Z</time>
      </trkpt>
      <trkpt lat="46.89247" lon="8.55695">
        <ele>1100</ele>
        <time>2021-08-10T13:56:14.425Z</time>
      </trkpt>
      <trkpt lat="46.89246" lon="8.55694">
        <ele>1100</ele>
        <time>2021-08-10T13:56:15.425Z</time>
      </trkpt>
      <trkpt lat="46.89245" lon="8.55693">
        <ele>1100</ele>
        <time>2021-08-10T13:56:16.426Z</time>
      </trkpt>
      <trkpt lat="46.89244" lon="8.55692">
        <ele>1101</ele>
        <time>2021-08-10T13:56:17.425Z</time>
      </trkpt>
      <trkpt lat="46.89242" lon="8.55691">
        <ele>1101</ele>
        <time>2021-08-10T13:56:18.425Z</time>
      </trkpt>
      <trkpt lat="46.89242" lon="8.5569">
        <ele>1102</ele>
        <time>2021-08-10T13:56:19.425Z</time>
      </trkpt>
      <trkpt lat="46.89241" lon="8.55689">
        <ele>1103</ele>
        <time>2021-08-10T13:56:20.425Z</time>
      </trkpt>
      <trkpt lat="46.8924" lon="8.55688">
        <ele>1103</ele>
        <time>2021-08-10T13:56:21.426Z</time>
      </trkpt>
      <trkpt lat="46.89239" lon="8.55687">
        <ele>1104</ele>
        <time>2021-08-10T13:56:22.425Z</time>
      </trkpt>
      <trkpt lat="46.89238" lon="8.55686">
        <ele>1104</ele>
        <time>2021-08-10T13:56:23.425Z</time>
      </trkpt>
      <trkpt lat="46.89237" lon="8.55686">
        <ele>1104</ele>
        <time>2021-08-10T13:56:24.425Z</time>
      </trkpt>
      <trkpt lat="46.89237" lon="8.55684">
        <ele>1104</ele>
        <time>2021-08-10T13:56:25.426Z</time>
      </trkpt>
      <trkpt lat="46.89236" lon="8.55683">
        <ele>1105</ele>
        <time>2021-08-10T13:56:26.425Z</time>
      </trkpt>
      <trkpt lat="46.89235" lon="8.55683">
        <ele>1105</ele>
        <time>2021-08-10T13:56:27.426Z</time>
      </trkpt>
      <trkpt lat="46.89234" lon="8.55682">
        <ele>1106</ele>
        <time>2021-08-10T13:56:28.426Z</time>
      </trkpt>
      <trkpt lat="46.89233" lon="8.55681">
        <ele>1107</ele>
        <time>2021-08-10T13:56:29.426Z</time>
      </trkpt>
      <trkpt lat="46.89232" lon="8.5568">
        <ele>1107</ele>
        <time>2021-08-10T13:56:30.425Z</time>
      </trkpt>
      <trkpt lat="46.89231" lon="8.55679">
        <ele>1107</ele>
        <time>2021-08-10T13:56:31.426Z</time>
      </trkpt>
      <trkpt lat="46.89231" lon="8.55678">
        <ele>1108</ele>
        <time>2021-08-10T13:56:32.425Z</time>
      </trkpt>
      <trkpt lat="46.8923" lon="8.55678">
        <ele>1108</ele>
        <time>2021-08-10T13:56:33.425Z</time>
      </trkpt>
      <trkpt lat="46.89229" lon="8.55677">
        <ele>1108</ele>
        <time>2021-08-10T13:56:34.425Z</time>
      </trkpt>
      <trkpt lat="46.89228" lon="8.55676">
        <ele>1109</ele>
        <time>2021-08-10T13:56:35.426Z</time>
      </trkpt>
      <trkpt lat="46.89226" lon="8.55675">
        <ele>1109</ele>
        <time>2021-08-10T13:56:36.426Z</time>
      </trkpt>
      <trkpt lat="46.89225" lon="8.55673">
        <ele>1110</ele>
        <time>2021-08-10T13:56:40.521Z</time>
      </trkpt>
      <trkpt lat="46.89224" lon="8.55673">
        <ele>1111</ele>
        <time>2021-08-10T13:56:41.520Z</time>
      </trkpt>
      <trkpt lat="46.89223" lon="8.55671">
        <ele>1111</ele>
        <time>2021-08-10T13:56:42.521Z</time>
      </trkpt>
      <trkpt lat="46.89222" lon="8.55671">
        <ele>1112</ele>
        <time>2021-08-10T13:56:43.521Z</time>
      </trkpt>
      <trkpt lat="46.89221" lon="8.55671">
        <ele>1113</ele>
        <time>2021-08-10T13:56:44.520Z</time>
      </trkpt>
      <trkpt lat="46.89221" lon="8.5567">
        <ele>1113</ele>
        <time>2021-08-10T13:56:45.521Z</time>
      </trkpt>
      <trkpt lat="46.8922" lon="8.55669">
        <ele>1113</ele>
        <time>2021-08-10T13:56:46.521Z</time>
      </trkpt>
      <trkpt lat="46.89219" lon="8.55668">
        <ele>1113</ele>
        <time>2021-08-10T13:56:49.611Z</time>
      </trkpt>
      <trkpt lat="46.89218" lon="8.55666">
        <ele>1113</ele>
        <time>2021-08-10T13:56:50.610Z</time>
      </trkpt>
      <trkpt lat="46.89218" lon="8.55666">
        <ele>1113</ele>
        <time>2021-08-10T13:56:51.611Z</time>
      </trkpt>
      <trkpt lat="46.89217" lon="8.55665">
        <ele>1113</ele>
        <time>2021-08-10T13:56:52.611Z</time>
      </trkpt>
      <trkpt lat="46.89216" lon="8.55664">
        <ele>1113</ele>
        <time>2021-08-10T13:56:53.611Z</time>
      </trkpt>
      <trkpt lat="46.89215" lon="8.55663">
        <ele>1112</ele>
        <time>2021-08-10T13:56:56.634Z</time>
      </trkpt>
      <trkpt lat="46.89214" lon="8.55663">
        <ele>1112</ele>
        <time>2021-08-10T13:56:57.635Z</time>
      </trkpt>
      <trkpt lat="46.89213" lon="8.55662">
        <ele>1112</ele>
        <time>2021-08-10T13:56:58.634Z</time>
      </trkpt>
      <trkpt lat="46.89213" lon="8.55662">
        <ele>1112</ele>
        <time>2021-08-10T13:56:59.635Z</time>
      </trkpt>
      <trkpt lat="46.89212" lon="8.5566">
        <ele>1112</ele>
        <time>2021-08-10T13:57:00.635Z</time>
      </trkpt>
      <trkpt lat="46.8921" lon="8.5566">
        <ele>1112</ele>
        <time>2021-08-10T13:57:01.635Z</time>
      </trkpt>
      <trkpt lat="46.8921" lon="8.55659">
        <ele>1112</ele>
        <time>2021-08-10T13:57:02.635Z</time>
      </trkpt>
      <trkpt lat="46.89209" lon="8.55659">
        <ele>1111</ele>
        <time>2021-08-10T13:57:03.635Z</time>
      </trkpt>
      <trkpt lat="46.89208" lon="8.55658">
        <ele>1111</ele>
        <time>2021-08-10T13:57:04.634Z</time>
      </trkpt>
      <trkpt lat="46.89207" lon="8.55657">
        <ele>1111</ele>
        <time>2021-08-10T13:57:05.635Z</time>
      </trkpt>
      <trkpt lat="46.89206" lon="8.55656">
        <ele>1111</ele>
        <time>2021-08-10T13:57:06.635Z</time>
      </trkpt>
      <trkpt lat="46.89206" lon="8.55655">
        <ele>1112</ele>
        <time>2021-08-10T13:57:07.634Z</time>
      </trkpt>
      <trkpt lat="46.89204" lon="8.55655">
        <ele>1112</ele>
        <time>2021-08-10T13:57:08.635Z</time>
      </trkpt>
      <trkpt lat="46.89203" lon="8.55654">
        <ele>1111</ele>
        <time>2021-08-10T13:57:09.635Z</time>
      </trkpt>
      <trkpt lat="46.89202" lon="8.55652">
        <ele>1111</ele>
        <time>2021-08-10T13:57:10.634Z</time>
      </trkpt>
      <trkpt lat="46.89201" lon="8.5565">
        <ele>1111</ele>
        <time>2021-08-10T13:57:11.635Z</time>
      </trkpt>
      <trkpt lat="46.892" lon="8.5565">
        <ele>1111</ele>
        <time>2021-08-10T13:57:12.635Z</time>
      </trkpt>
      <trkpt lat="46.89199" lon="8.55649">
        <ele>1111</ele>
        <time>2021-08-10T13:57:13.635Z</time>
      </trkpt>
      <trkpt lat="46.89199" lon="8.55649">
        <ele>1111</ele>
        <time>2021-08-10T13:57:14.634Z</time>
      </trkpt>
      <trkpt lat="46.89198" lon="8.55648">
        <ele>1111</ele>
        <time>2021-08-10T13:57:15.635Z</time>
      </trkpt>
      <trkpt lat="46.89197" lon="8.55647">
        <ele>1111</ele>
        <time>2021-08-10T13:57:16.635Z</time>
      </trkpt>
      <trkpt lat="46.89196" lon="8.55647">
        <ele>1111</ele>
        <time>2021-08-10T13:57:17.635Z</time>
      </trkpt>
      <trkpt lat="46.89196" lon="8.55647">
        <ele>1112</ele>
        <time>2021-08-10T13:57:18.634Z</time>
      </trkpt>
      <trkpt lat="46.89194" lon="8.55647">
        <ele>1112</ele>
        <time>2021-08-10T13:57:19.635Z</time>
      </trkpt>
      <trkpt lat="46.89193" lon="8.55645">
        <ele>1112</ele>
        <time>2021-08-10T13:57:20.635Z</time>
      </trkpt>
      <trkpt lat="46.89192" lon="8.55644">
        <ele>1113</ele>
        <time>2021-08-10T13:57:21.634Z</time>
      </trkpt>
      <trkpt lat="46.89191" lon="8.55643">
        <ele>1113</ele>
        <time>2021-08-10T13:57:22.635Z</time>
      </trkpt>
      <trkpt lat="46.8919" lon="8.55643">
        <ele>1114</ele>
        <time>2021-08-10T13:57:23.635Z</time>
      </trkpt>
      <trkpt lat="46.89189" lon="8.55643">
        <ele>1114</ele>
        <time>2021-08-10T13:57:24.634Z</time>
      </trkpt>
      <trkpt lat="46.89188" lon="8.55642">
        <ele>1114</ele>
        <time>2021-08-10T13:57:25.635Z</time>
      </trkpt>
      <trkpt lat="46.89186" lon="8.55642">
        <ele>1114</ele>
        <time>2021-08-10T13:57:26.634Z</time>
      </trkpt>
      <trkpt lat="46.89185" lon="8.55641">
        <ele>1113</ele>
        <time>2021-08-10T13:57:27.635Z</time>
      </trkpt>
      <trkpt lat="46.89184" lon="8.55641">
        <ele>1113</ele>
        <time>2021-08-10T13:57:28.635Z</time>
      </trkpt>
      <trkpt lat="46.89184" lon="8.5564">
        <ele>1113</ele>
        <time>2021-08-10T13:57:29.634Z</time>
      </trkpt>
      <trkpt lat="46.89183" lon="8.5564">
        <ele>1113</ele>
        <time>2021-08-10T13:57:30.634Z</time>
      </trkpt>
      <trkpt lat="46.89182" lon="8.55639">
        <ele>1113</ele>
        <time>2021-08-10T13:57:31.634Z</time>
      </trkpt>
      <trkpt lat="46.89182" lon="8.55638">
        <ele>1113</ele>
        <time>2021-08-10T13:57:32.634Z</time>
      </trkpt>
      <trkpt lat="46.89181" lon="8.55638">
        <ele>1114</ele>
        <time>2021-08-10T13:57:33.634Z</time>
      </trkpt>
      <trkpt lat="46.8918" lon="8.55637">
        <ele>1114</ele>
        <time>2021-08-10T13:57:34.634Z</time>
      </trkpt>
      <trkpt lat="46.89178" lon="8.55636">
        <ele>1114</ele>
        <time>2021-08-10T13:57:35.635Z</time>
      </trkpt>
      <trkpt lat="46.89177" lon="8.55635">
        <ele>1114</ele>
        <time>2021-08-10T13:57:36.634Z</time>
      </trkpt>
      <trkpt lat="46.89177" lon="8.55634">
        <ele>1114</ele>
        <time>2021-08-10T13:57:37.635Z</time>
      </trkpt>
      <trkpt lat="46.89176" lon="8.55634">
        <ele>1114</ele>
        <time>2021-08-10T13:57:38.635Z</time>
      </trkpt>
      <trkpt lat="46.89175" lon="8.55634">
        <ele>1114</ele>
        <time>2021-08-10T13:57:39.635Z</time>
      </trkpt>
      <trkpt lat="46.89174" lon="8.55633">
        <ele>1114</ele>
        <time>2021-08-10T13:57:40.635Z</time>
      </trkpt>
      <trkpt lat="46.89173" lon="8.55633">
        <ele>1114</ele>
        <time>2021-08-10T13:57:41.634Z</time>
      </trkpt>
      <trkpt lat="46.89172" lon="8.55633">
        <ele>1114</ele>
        <time>2021-08-10T13:57:43.727Z</time>
      </trkpt>
      <trkpt lat="46.8917" lon="8.55631">
        <ele>1115</ele>
        <time>2021-08-10T13:57:44.728Z</time>
      </trkpt>
      <trkpt lat="46.8917" lon="8.5563">
        <ele>1115</ele>
        <time>2021-08-10T13:57:45.728Z</time>
      </trkpt>
      <trkpt lat="46.89168" lon="8.55629">
        <ele>1116</ele>
        <time>2021-08-10T13:57:46.728Z</time>
      </trkpt>
      <trkpt lat="46.89167" lon="8.55629">
        <ele>1116</ele>
        <time>2021-08-10T13:57:47.728Z</time>
      </trkpt>
      <trkpt lat="46.89166" lon="8.55628">
        <ele>1117</ele>
        <time>2021-08-10T13:57:48.728Z</time>
      </trkpt>
      <trkpt lat="46.89165" lon="8.55627">
        <ele>1117</ele>
        <time>2021-08-10T13:57:49.727Z</time>
      </trkpt>
      <trkpt lat="46.89164" lon="8.55628">
        <ele>1118</ele>
        <time>2021-08-10T13:57:50.728Z</time>
      </trkpt>
      <trkpt lat="46.89163" lon="8.55627">
        <ele>1119</ele>
        <time>2021-08-10T13:57:52.728Z</time>
      </trkpt>
      <trkpt lat="46.89162" lon="8.55627">
        <ele>1119</ele>
        <time>2021-08-10T13:57:53.729Z</time>
      </trkpt>
      <trkpt lat="46.89162" lon="8.55627">
        <ele>1120</ele>
        <time>2021-08-10T13:57:54.729Z</time>
      </trkpt>
      <trkpt lat="46.89161" lon="8.55626">
        <ele>1120</ele>
        <time>2021-08-10T13:57:55.729Z</time>
      </trkpt>
      <trkpt lat="46.8916" lon="8.55626">
        <ele>1120</ele>
        <time>2021-08-10T13:57:56.729Z</time>
      </trkpt>
      <trkpt lat="46.8916" lon="8.55626">
        <ele>1120</ele>
        <time>2021-08-10T13:57:57.728Z</time>
      </trkpt>
      <trkpt lat="46.89159" lon="8.55626">
        <ele>1119</ele>
        <time>2021-08-10T13:57:58.728Z</time>
      </trkpt>
      <trkpt lat="46.89158" lon="8.55626">
        <ele>1119</ele>
        <time>2021-08-10T13:57:59.729Z</time>
      </trkpt>
      <trkpt lat="46.89157" lon="8.55626">
        <ele>1119</ele>
        <time>2021-08-10T13:58:00.729Z</time>
      </trkpt>
      <trkpt lat="46.89157" lon="8.55625">
        <ele>1119</ele>
        <time>2021-08-10T13:58:01.728Z</time>
      </trkpt>
      <trkpt lat="46.89156" lon="8.55625">
        <ele>1118</ele>
        <time>2021-08-10T13:58:02.729Z</time>
      </trkpt>
      <trkpt lat="46.89155" lon="8.55625">
        <ele>1117</ele>
        <time>2021-08-10T13:58:03.728Z</time>
      </trkpt>
      <trkpt lat="46.89155" lon="8.55625">
        <ele>1117</ele>
        <time>2021-08-10T13:58:04.729Z</time>
      </trkpt>
      <trkpt lat="46.89157" lon="8.55626">
        <ele>1113</ele>
        <time>2021-08-10T13:58:05.730Z</time>
      </trkpt>
      <trkpt lat="46.89157" lon="8.55624">
        <ele>1113</ele>
        <time>2021-08-10T13:58:06.729Z</time>
      </trkpt>
      <trkpt lat="46.89155" lon="8.55624">
        <ele>1112</ele>
        <time>2021-08-10T13:58:07.729Z</time>
      </trkpt>
      <trkpt lat="46.89155" lon="8.55622">
        <ele>1112</ele>
        <time>2021-08-10T13:58:08.729Z</time>
      </trkpt>
      <trkpt lat="46.89153" lon="8.55621">
        <ele>1112</ele>
        <time>2021-08-10T13:58:09.730Z</time>
      </trkpt>
      <trkpt lat="46.89152" lon="8.55621">
        <ele>1112</ele>
        <time>2021-08-10T13:58:10.730Z</time>
      </trkpt>
      <trkpt lat="46.89151" lon="8.5562">
        <ele>1112</ele>
        <time>2021-08-10T13:58:11.729Z</time>
      </trkpt>
      <trkpt lat="46.8915" lon="8.5562">
        <ele>1112</ele>
        <time>2021-08-10T13:58:12.730Z</time>
      </trkpt>
      <trkpt lat="46.8915" lon="8.55619">
        <ele>1112</ele>
        <time>2021-08-10T13:58:13.729Z</time>
      </trkpt>
      <trkpt lat="46.89149" lon="8.55618">
        <ele>1112</ele>
        <time>2021-08-10T13:58:14.729Z</time>
      </trkpt>
      <trkpt lat="46.89148" lon="8.55617">
        <ele>1112</ele>
        <time>2021-08-10T13:58:15.730Z</time>
      </trkpt>
      <trkpt lat="46.89147" lon="8.55617">
        <ele>1112</ele>
        <time>2021-08-10T13:58:16.730Z</time>
      </trkpt>
      <trkpt lat="46.89147" lon="8.55617">
        <ele>1112</ele>
        <time>2021-08-10T13:58:17.730Z</time>
      </trkpt>
      <trkpt lat="46.89145" lon="8.55616">
        <ele>1112</ele>
        <time>2021-08-10T13:58:18.730Z</time>
      </trkpt>
      <trkpt lat="46.89144" lon="8.55615">
        <ele>1113</ele>
        <time>2021-08-10T13:58:19.730Z</time>
      </trkpt>
      <trkpt lat="46.89144" lon="8.55615">
        <ele>1113</ele>
        <time>2021-08-10T13:58:22.818Z</time>
      </trkpt>
      <trkpt lat="46.89143" lon="8.55615">
        <ele>1114</ele>
        <time>2021-08-10T13:58:23.817Z</time>
      </trkpt>
      <trkpt lat="46.89142" lon="8.55615">
        <ele>1114</ele>
        <time>2021-08-10T13:58:39.634Z</time>
      </trkpt>
      <trkpt lat="46.89141" lon="8.55613">
        <ele>1115</ele>
        <time>2021-08-10T13:58:40.633Z</time>
      </trkpt>
      <trkpt lat="46.8914" lon="8.55612">
        <ele>1114</ele>
        <time>2021-08-10T13:58:41.633Z</time>
      </trkpt>
      <trkpt lat="46.8914" lon="8.55611">
        <ele>1114</ele>
        <time>2021-08-10T13:58:42.634Z</time>
      </trkpt>
      <trkpt lat="46.89138" lon="8.5561">
        <ele>1114</ele>
        <time>2021-08-10T13:58:43.634Z</time>
      </trkpt>
      <trkpt lat="46.89138" lon="8.55609">
        <ele>1114</ele>
        <time>2021-08-10T13:58:46.728Z</time>
      </trkpt>
      <trkpt lat="46.89137" lon="8.55609">
        <ele>1115</ele>
        <time>2021-08-10T13:58:47.728Z</time>
      </trkpt>
      <trkpt lat="46.89135" lon="8.55608">
        <ele>1115</ele>
        <time>2021-08-10T13:59:29.584Z</time>
      </trkpt>
      <trkpt lat="46.89134" lon="8.55607">
        <ele>1116</ele>
        <time>2021-08-10T13:59:30.585Z</time>
      </trkpt>
      <trkpt lat="46.89133" lon="8.55606">
        <ele>1116</ele>
        <time>2021-08-10T13:59:31.585Z</time>
      </trkpt>
      <trkpt lat="46.89132" lon="8.55605">
        <ele>1117</ele>
        <time>2021-08-10T13:59:32.585Z</time>
      </trkpt>
      <trkpt lat="46.89131" lon="8.55604">
        <ele>1117</ele>
        <time>2021-08-10T13:59:33.584Z</time>
      </trkpt>
      <trkpt lat="46.8913" lon="8.55603">
        <ele>1118</ele>
        <time>2021-08-10T13:59:34.584Z</time>
      </trkpt>
      <trkpt lat="46.89129" lon="8.55602">
        <ele>1118</ele>
        <time>2021-08-10T13:59:35.585Z</time>
      </trkpt>
      <trkpt lat="46.89128" lon="8.55602">
        <ele>1119</ele>
        <time>2021-08-10T13:59:36.585Z</time>
      </trkpt>
      <trkpt lat="46.89127" lon="8.55601">
        <ele>1120</ele>
        <time>2021-08-10T13:59:37.585Z</time>
      </trkpt>
      <trkpt lat="46.89126" lon="8.55601">
        <ele>1120</ele>
        <time>2021-08-10T13:59:45.620Z</time>
      </trkpt>
      <trkpt lat="46.89125" lon="8.556">
        <ele>1121</ele>
        <time>2021-08-10T13:59:46.619Z</time>
      </trkpt>
      <trkpt lat="46.89124" lon="8.556">
        <ele>1120</ele>
        <time>2021-08-10T13:59:47.620Z</time>
      </trkpt>
      <trkpt lat="46.89122" lon="8.55599">
        <ele>1120</ele>
        <time>2021-08-10T13:59:48.620Z</time>
      </trkpt>
      <trkpt lat="46.89122" lon="8.55599">
        <ele>1120</ele>
        <time>2021-08-10T13:59:52.585Z</time>
      </trkpt>
      <trkpt lat="46.89121" lon="8.55598">
        <ele>1119</ele>
        <time>2021-08-10T13:59:53.586Z</time>
      </trkpt>
      <trkpt lat="46.8912" lon="8.55598">
        <ele>1119</ele>
        <time>2021-08-10T14:00:01.376Z</time>
      </trkpt>
      <trkpt lat="46.89119" lon="8.55597">
        <ele>1118</ele>
        <time>2021-08-10T14:00:02.376Z</time>
      </trkpt>
      <trkpt lat="46.89118" lon="8.55596">
        <ele>1117</ele>
        <time>2021-08-10T14:00:03.376Z</time>
      </trkpt>
      <trkpt lat="46.89117" lon="8.55595">
        <ele>1116</ele>
        <time>2021-08-10T14:00:05.354Z</time>
      </trkpt>
      <trkpt lat="46.89116" lon="8.55595">
        <ele>1116</ele>
        <time>2021-08-10T14:00:06.354Z</time>
      </trkpt>
      <trkpt lat="46.89115" lon="8.55595">
        <ele>1116</ele>
        <time>2021-08-10T14:00:07.353Z</time>
      </trkpt>
      <trkpt lat="46.89114" lon="8.55595">
        <ele>1116</ele>
        <time>2021-08-10T14:00:08.353Z</time>
      </trkpt>
      <trkpt lat="46.89113" lon="8.55595">
        <ele>1116</ele>
        <time>2021-08-10T14:00:09.353Z</time>
      </trkpt>
      <trkpt lat="46.89112" lon="8.55594">
        <ele>1117</ele>
        <time>2021-08-10T14:00:10.354Z</time>
      </trkpt>
      <trkpt lat="46.89111" lon="8.55593">
        <ele>1117</ele>
        <time>2021-08-10T14:00:11.354Z</time>
      </trkpt>
      <trkpt lat="46.8911" lon="8.55593">
        <ele>1117</ele>
        <time>2021-08-10T14:00:12.354Z</time>
      </trkpt>
      <trkpt lat="46.8911" lon="8.55592">
        <ele>1117</ele>
        <time>2021-08-10T14:00:13.353Z</time>
      </trkpt>
      <trkpt lat="46.89109" lon="8.55592">
        <ele>1117</ele>
        <time>2021-08-10T14:00:14.353Z</time>
      </trkpt>
      <trkpt lat="46.89108" lon="8.55591">
        <ele>1117</ele>
        <time>2021-08-10T14:00:15.353Z</time>
      </trkpt>
      <trkpt lat="46.89108" lon="8.55591">
        <ele>1117</ele>
        <time>2021-08-10T14:00:16.354Z</time>
      </trkpt>
      <trkpt lat="46.89107" lon="8.55591">
        <ele>1118</ele>
        <time>2021-08-10T14:00:17.354Z</time>
      </trkpt>
      <trkpt lat="46.89106" lon="8.5559">
        <ele>1118</ele>
        <time>2021-08-10T14:00:18.354Z</time>
      </trkpt>
      <trkpt lat="46.89105" lon="8.5559">
        <ele>1118</ele>
        <time>2021-08-10T14:00:19.354Z</time>
      </trkpt>
      <trkpt lat="46.89105" lon="8.55589">
        <ele>1118</ele>
        <time>2021-08-10T14:00:20.354Z</time>
      </trkpt>
      <trkpt lat="46.89104" lon="8.55589">
        <ele>1118</ele>
        <time>2021-08-10T14:00:21.353Z</time>
      </trkpt>
      <trkpt lat="46.89104" lon="8.55588">
        <ele>1118</ele>
        <time>2021-08-10T14:00:22.354Z</time>
      </trkpt>
      <trkpt lat="46.89104" lon="8.55588">
        <ele>1117</ele>
        <time>2021-08-10T14:00:23.354Z</time>
      </trkpt>
      <trkpt lat="46.89102" lon="8.55587">
        <ele>1117</ele>
        <time>2021-08-10T14:00:24.353Z</time>
      </trkpt>
      <trkpt lat="46.89101" lon="8.55587">
        <ele>1116</ele>
        <time>2021-08-10T14:00:25.353Z</time>
      </trkpt>
      <trkpt lat="46.891" lon="8.55586">
        <ele>1116</ele>
        <time>2021-08-10T14:00:26.354Z</time>
      </trkpt>
      <trkpt lat="46.891" lon="8.55586">
        <ele>1116</ele>
        <time>2021-08-10T14:00:27.353Z</time>
      </trkpt>
      <trkpt lat="46.89099" lon="8.55585">
        <ele>1116</ele>
        <time>2021-08-10T14:00:28.354Z</time>
      </trkpt>
      <trkpt lat="46.89098" lon="8.55585">
        <ele>1117</ele>
        <time>2021-08-10T14:00:29.353Z</time>
      </trkpt>
      <trkpt lat="46.89096" lon="8.55584">
        <ele>1117</ele>
        <time>2021-08-10T14:00:30.354Z</time>
      </trkpt>
      <trkpt lat="46.89096" lon="8.55584">
        <ele>1117</ele>
        <time>2021-08-10T14:00:31.353Z</time>
      </trkpt>
      <trkpt lat="46.89095" lon="8.55583">
        <ele>1117</ele>
        <time>2021-08-10T14:00:32.354Z</time>
      </trkpt>
      <trkpt lat="46.89094" lon="8.55583">
        <ele>1117</ele>
        <time>2021-08-10T14:00:33.354Z</time>
      </trkpt>
      <trkpt lat="46.89093" lon="8.55583">
        <ele>1117</ele>
        <time>2021-08-10T14:00:34.354Z</time>
      </trkpt>
      <trkpt lat="46.89093" lon="8.55583">
        <ele>1117</ele>
        <time>2021-08-10T14:00:35.353Z</time>
      </trkpt>
      <trkpt lat="46.89092" lon="8.55583">
        <ele>1118</ele>
        <time>2021-08-10T14:00:36.354Z</time>
      </trkpt>
      <trkpt lat="46.89091" lon="8.55583">
        <ele>1118</ele>
        <time>2021-08-10T14:00:37.353Z</time>
      </trkpt>
      <trkpt lat="46.89091" lon="8.55584">
        <ele>1119</ele>
        <time>2021-08-10T14:00:41.474Z</time>
      </trkpt>
      <trkpt lat="46.89089" lon="8.55585">
        <ele>1120</ele>
        <time>2021-08-10T14:00:42.474Z</time>
      </trkpt>
      <trkpt lat="46.89089" lon="8.55586">
        <ele>1120</ele>
        <time>2021-08-10T14:00:43.475Z</time>
      </trkpt>
      <trkpt lat="46.89088" lon="8.55585">
        <ele>1121</ele>
        <time>2021-08-10T14:00:44.475Z</time>
      </trkpt>
      <trkpt lat="46.89088" lon="8.55585">
        <ele>1121</ele>
        <time>2021-08-10T14:00:45.475Z</time>
      </trkpt>
      <trkpt lat="46.89087" lon="8.55584">
        <ele>1122</ele>
        <time>2021-08-10T14:00:46.475Z</time>
      </trkpt>
      <trkpt lat="46.89085" lon="8.55583">
        <ele>1122</ele>
        <time>2021-08-10T14:00:47.475Z</time>
      </trkpt>
      <trkpt lat="46.89084" lon="8.55582">
        <ele>1122</ele>
        <time>2021-08-10T14:00:48.474Z</time>
      </trkpt>
      <trkpt lat="46.89084" lon="8.55581">
        <ele>1122</ele>
        <time>2021-08-10T14:00:49.475Z</time>
      </trkpt>
      <trkpt lat="46.89083" lon="8.55581">
        <ele>1122</ele>
        <time>2021-08-10T14:00:50.475Z</time>
      </trkpt>
      <trkpt lat="46.89083" lon="8.55581">
        <ele>1122</ele>
        <time>2021-08-10T14:00:51.475Z</time>
      </trkpt>
      <trkpt lat="46.89082" lon="8.5558">
        <ele>1121</ele>
        <time>2021-08-10T14:00:52.475Z</time>
      </trkpt>
      <trkpt lat="46.89082" lon="8.5558">
        <ele>1121</ele>
        <time>2021-08-10T14:00:53.475Z</time>
      </trkpt>
      <trkpt lat="46.89081" lon="8.5558">
        <ele>1120</ele>
        <time>2021-08-10T14:00:54.474Z</time>
      </trkpt>
      <trkpt lat="46.8908" lon="8.55579">
        <ele>1120</ele>
        <time>2021-08-10T14:00:55.475Z</time>
      </trkpt>
      <trkpt lat="46.89079" lon="8.55579">
        <ele>1119</ele>
        <time>2021-08-10T14:00:56.475Z</time>
      </trkpt>
      <trkpt lat="46.89078" lon="8.55579">
        <ele>1119</ele>
        <time>2021-08-10T14:00:57.474Z</time>
      </trkpt>
      <trkpt lat="46.89077" lon="8.55578">
        <ele>1120</ele>
        <time>2021-08-10T14:00:58.474Z</time>
      </trkpt>
      <trkpt lat="46.89076" lon="8.55577">
        <ele>1120</ele>
        <time>2021-08-10T14:00:59.474Z</time>
      </trkpt>
      <trkpt lat="46.89075" lon="8.55577">
        <ele>1120</ele>
        <time>2021-08-10T14:01:00.474Z</time>
      </trkpt>
      <trkpt lat="46.89074" lon="8.55577">
        <ele>1120</ele>
        <time>2021-08-10T14:01:01.475Z</time>
      </trkpt>
      <trkpt lat="46.89074" lon="8.55577">
        <ele>1121</ele>
        <time>2021-08-10T14:01:02.475Z</time>
      </trkpt>
      <trkpt lat="46.89074" lon="8.55577">
        <ele>1121</ele>
        <time>2021-08-10T14:01:03.474Z</time>
      </trkpt>
      <trkpt lat="46.89073" lon="8.55577">
        <ele>1121</ele>
        <time>2021-08-10T14:01:04.475Z</time>
      </trkpt>
      <trkpt lat="46.89072" lon="8.55576">
        <ele>1121</ele>
        <time>2021-08-10T14:01:05.475Z</time>
      </trkpt>
      <trkpt lat="46.89071" lon="8.55576">
        <ele>1122</ele>
        <time>2021-08-10T14:01:06.475Z</time>
      </trkpt>
      <trkpt lat="46.8907" lon="8.55576">
        <ele>1122</ele>
        <time>2021-08-10T14:01:07.475Z</time>
      </trkpt>
      <trkpt lat="46.89069" lon="8.55577">
        <ele>1123</ele>
        <time>2021-08-10T14:01:08.475Z</time>
      </trkpt>
      <trkpt lat="46.89068" lon="8.55576">
        <ele>1124</ele>
        <time>2021-08-10T14:01:09.474Z</time>
      </trkpt>
      <trkpt lat="46.89068" lon="8.55576">
        <ele>1124</ele>
        <time>2021-08-10T14:01:10.475Z</time>
      </trkpt>
      <trkpt lat="46.89067" lon="8.55575">
        <ele>1125</ele>
        <time>2021-08-10T14:01:11.475Z</time>
      </trkpt>
      <trkpt lat="46.89066" lon="8.55574">
        <ele>1125</ele>
        <time>2021-08-10T14:01:12.475Z</time>
      </trkpt>
      <trkpt lat="46.89065" lon="8.55574">
        <ele>1125</ele>
        <time>2021-08-10T14:01:13.475Z</time>
      </trkpt>
      <trkpt lat="46.89063" lon="8.55573">
        <ele>1126</ele>
        <time>2021-08-10T14:01:14.475Z</time>
      </trkpt>
      <trkpt lat="46.89062" lon="8.55572">
        <ele>1126</ele>
        <time>2021-08-10T14:01:15.475Z</time>
      </trkpt>
      <trkpt lat="46.89061" lon="8.5557">
        <ele>1126</ele>
        <time>2021-08-10T14:01:16.475Z</time>
      </trkpt>
      <trkpt lat="46.89061" lon="8.55569">
        <ele>1126</ele>
        <time>2021-08-10T14:01:17.475Z</time>
      </trkpt>
      <trkpt lat="46.8906" lon="8.55568">
        <ele>1126</ele>
        <time>2021-08-10T14:01:18.475Z</time>
      </trkpt>
      <trkpt lat="46.89059" lon="8.55568">
        <ele>1126</ele>
        <time>2021-08-10T14:01:19.474Z</time>
      </trkpt>
      <trkpt lat="46.89058" lon="8.55568">
        <ele>1127</ele>
        <time>2021-08-10T14:01:20.474Z</time>
      </trkpt>
      <trkpt lat="46.89058" lon="8.55568">
        <ele>1127</ele>
        <time>2021-08-10T14:01:21.475Z</time>
      </trkpt>
      <trkpt lat="46.89057" lon="8.55567">
        <ele>1128</ele>
        <time>2021-08-10T14:01:22.475Z</time>
      </trkpt>
      <trkpt lat="46.89056" lon="8.55567">
        <ele>1128</ele>
        <time>2021-08-10T14:01:23.474Z</time>
      </trkpt>
      <trkpt lat="46.89055" lon="8.55565">
        <ele>1128</ele>
        <time>2021-08-10T14:01:24.475Z</time>
      </trkpt>
      <trkpt lat="46.89054" lon="8.55565">
        <ele>1128</ele>
        <time>2021-08-10T14:01:25.475Z</time>
      </trkpt>
      <trkpt lat="46.89054" lon="8.55565">
        <ele>1128</ele>
        <time>2021-08-10T14:01:26.475Z</time>
      </trkpt>
      <trkpt lat="46.89053" lon="8.55565">
        <ele>1128</ele>
        <time>2021-08-10T14:01:27.475Z</time>
      </trkpt>
      <trkpt lat="46.89052" lon="8.55565">
        <ele>1129</ele>
        <time>2021-08-10T14:01:28.475Z</time>
      </trkpt>
      <trkpt lat="46.89051" lon="8.55564">
        <ele>1129</ele>
        <time>2021-08-10T14:01:29.475Z</time>
      </trkpt>
      <trkpt lat="46.8905" lon="8.55564">
        <ele>1129</ele>
        <time>2021-08-10T14:01:30.475Z</time>
      </trkpt>
      <trkpt lat="46.89049" lon="8.55564">
        <ele>1129</ele>
        <time>2021-08-10T14:01:31.474Z</time>
      </trkpt>
      <trkpt lat="46.89049" lon="8.55563">
        <ele>1129</ele>
        <time>2021-08-10T14:01:32.474Z</time>
      </trkpt>
      <trkpt lat="46.89048" lon="8.55562">
        <ele>1130</ele>
        <time>2021-08-10T14:01:33.475Z</time>
      </trkpt>
      <trkpt lat="46.89047" lon="8.55561">
        <ele>1130</ele>
        <time>2021-08-10T14:01:34.475Z</time>
      </trkpt>
      <trkpt lat="46.89046" lon="8.55561">
        <ele>1130</ele>
        <time>2021-08-10T14:01:35.474Z</time>
      </trkpt>
      <trkpt lat="46.89046" lon="8.5556">
        <ele>1131</ele>
        <time>2021-08-10T14:01:36.475Z</time>
      </trkpt>
      <trkpt lat="46.89045" lon="8.5556">
        <ele>1131</ele>
        <time>2021-08-10T14:01:37.474Z</time>
      </trkpt>
      <trkpt lat="46.89044" lon="8.5556">
        <ele>1131</ele>
        <time>2021-08-10T14:01:38.475Z</time>
      </trkpt>
      <trkpt lat="46.89043" lon="8.5556">
        <ele>1131</ele>
        <time>2021-08-10T14:01:39.474Z</time>
      </trkpt>
      <trkpt lat="46.89042" lon="8.5556">
        <ele>1131</ele>
        <time>2021-08-10T14:01:40.474Z</time>
      </trkpt>
      <trkpt lat="46.89041" lon="8.5556">
        <ele>1132</ele>
        <time>2021-08-10T14:01:41.475Z</time>
      </trkpt>
      <trkpt lat="46.89041" lon="8.5556">
        <ele>1132</ele>
        <time>2021-08-10T14:01:42.475Z</time>
      </trkpt>
      <trkpt lat="46.8904" lon="8.5556">
        <ele>1133</ele>
        <time>2021-08-10T14:01:43.475Z</time>
      </trkpt>
      <trkpt lat="46.89039" lon="8.55561">
        <ele>1133</ele>
        <time>2021-08-10T14:01:44.474Z</time>
      </trkpt>
      <trkpt lat="46.89039" lon="8.55563">
        <ele>1134</ele>
        <time>2021-08-10T14:01:45.475Z</time>
      </trkpt>
      <trkpt lat="46.89039" lon="8.55564">
        <ele>1134</ele>
        <time>2021-08-10T14:01:46.475Z</time>
      </trkpt>
      <trkpt lat="46.89039" lon="8.55565">
        <ele>1134</ele>
        <time>2021-08-10T14:01:47.474Z</time>
      </trkpt>
      <trkpt lat="46.89039" lon="8.55566">
        <ele>1135</ele>
        <time>2021-08-10T14:01:48.475Z</time>
      </trkpt>
      <trkpt lat="46.89038" lon="8.55565">
        <ele>1135</ele>
        <time>2021-08-10T14:01:49.474Z</time>
      </trkpt>
      <trkpt lat="46.89038" lon="8.55565">
        <ele>1135</ele>
        <time>2021-08-10T14:01:50.475Z</time>
      </trkpt>
      <trkpt lat="46.89042" lon="8.55573">
        <ele>1131</ele>
        <time>2021-08-10T14:01:51.476Z</time>
      </trkpt>
      <trkpt lat="46.89042" lon="8.55573">
        <ele>1131</ele>
        <time>2021-08-10T14:01:52.476Z</time>
      </trkpt>
      <trkpt lat="46.89042" lon="8.55573">
        <ele>1132</ele>
        <time>2021-08-10T14:01:53.475Z</time>
      </trkpt>
      <trkpt lat="46.89042" lon="8.55573">
        <ele>1132</ele>
        <time>2021-08-10T14:01:54.475Z</time>
      </trkpt>
      <trkpt lat="46.89041" lon="8.55571">
        <ele>1131</ele>
        <time>2021-08-10T14:01:55.477Z</time>
      </trkpt>
      <trkpt lat="46.89041" lon="8.5557">
        <ele>1131</ele>
        <time>2021-08-10T14:01:56.476Z</time>
      </trkpt>
      <trkpt lat="46.89041" lon="8.55569">
        <ele>1131</ele>
        <time>2021-08-10T14:01:57.477Z</time>
      </trkpt>
      <trkpt lat="46.89041" lon="8.55568">
        <ele>1131</ele>
        <time>2021-08-10T14:01:58.477Z</time>
      </trkpt>
      <trkpt lat="46.89041" lon="8.55566">
        <ele>1131</ele>
        <time>2021-08-10T14:01:59.476Z</time>
      </trkpt>
      <trkpt lat="46.89041" lon="8.55565">
        <ele>1130</ele>
        <time>2021-08-10T14:02:05.583Z</time>
      </trkpt>
      <trkpt lat="46.89041" lon="8.55565">
        <ele>1130</ele>
        <time>2021-08-10T14:02:06.584Z</time>
      </trkpt>
      <trkpt lat="46.8904" lon="8.55564">
        <ele>1140</ele>
        <time>2021-08-10T14:02:07.584Z</time>
      </trkpt>
      <trkpt lat="46.8904" lon="8.55563">
        <ele>1141</ele>
        <time>2021-08-10T14:02:08.584Z</time>
      </trkpt>
      <trkpt lat="46.89039" lon="8.55562">
        <ele>1142</ele>
        <time>2021-08-10T14:02:09.584Z</time>
      </trkpt>
      <trkpt lat="46.89038" lon="8.55561">
        <ele>1143</ele>
        <time>2021-08-10T14:02:10.583Z</time>
      </trkpt>
      <trkpt lat="46.89036" lon="8.5556">
        <ele>1143</ele>
        <time>2021-08-10T14:02:11.584Z</time>
      </trkpt>
      <trkpt lat="46.89035" lon="8.55559">
        <ele>1143</ele>
        <time>2021-08-10T14:02:12.584Z</time>
      </trkpt>
      <trkpt lat="46.89034" lon="8.55559">
        <ele>1142</ele>
        <time>2021-08-10T14:02:13.583Z</time>
      </trkpt>
      <trkpt lat="46.89034" lon="8.55558">
        <ele>1142</ele>
        <time>2021-08-10T14:02:14.584Z</time>
      </trkpt>
      <trkpt lat="46.89033" lon="8.55558">
        <ele>1142</ele>
        <time>2021-08-10T14:02:15.584Z</time>
      </trkpt>
      <trkpt lat="46.89032" lon="8.55557">
        <ele>1142</ele>
        <time>2021-08-10T14:02:16.583Z</time>
      </trkpt>
      <trkpt lat="46.89031" lon="8.55556">
        <ele>1142</ele>
        <time>2021-08-10T14:02:17.584Z</time>
      </trkpt>
      <trkpt lat="46.89031" lon="8.55554">
        <ele>1142</ele>
        <time>2021-08-10T14:02:18.584Z</time>
      </trkpt>
      <trkpt lat="46.8903" lon="8.55552">
        <ele>1142</ele>
        <time>2021-08-10T14:02:19.584Z</time>
      </trkpt>
      <trkpt lat="46.89029" lon="8.55552">
        <ele>1142</ele>
        <time>2021-08-10T14:02:20.584Z</time>
      </trkpt>
      <trkpt lat="46.89028" lon="8.55551">
        <ele>1141</ele>
        <time>2021-08-10T14:02:21.584Z</time>
      </trkpt>
      <trkpt lat="46.89027" lon="8.55551">
        <ele>1141</ele>
        <time>2021-08-10T14:02:22.583Z</time>
      </trkpt>
      <trkpt lat="46.89026" lon="8.55551">
        <ele>1141</ele>
        <time>2021-08-10T14:02:23.584Z</time>
      </trkpt>
      <trkpt lat="46.89025" lon="8.5555">
        <ele>1140</ele>
        <time>2021-08-10T14:02:24.584Z</time>
      </trkpt>
      <trkpt lat="46.89025" lon="8.5555">
        <ele>1140</ele>
        <time>2021-08-10T14:02:25.584Z</time>
      </trkpt>
      <trkpt lat="46.89024" lon="8.55549">
        <ele>1139</ele>
        <time>2021-08-10T14:02:26.584Z</time>
      </trkpt>
      <trkpt lat="46.89023" lon="8.55548">
        <ele>1139</ele>
        <time>2021-08-10T14:02:27.584Z</time>
      </trkpt>
      <trkpt lat="46.89022" lon="8.55548">
        <ele>1138</ele>
        <time>2021-08-10T14:02:28.584Z</time>
      </trkpt>
      <trkpt lat="46.8902" lon="8.55547">
        <ele>1137</ele>
        <time>2021-08-10T14:02:29.584Z</time>
      </trkpt>
      <trkpt lat="46.89019" lon="8.55547">
        <ele>1136</ele>
        <time>2021-08-10T14:02:30.584Z</time>
      </trkpt>
      <trkpt lat="46.89018" lon="8.55546">
        <ele>1136</ele>
        <time>2021-08-10T14:02:31.583Z</time>
      </trkpt>
      <trkpt lat="46.89018" lon="8.55546">
        <ele>1135</ele>
        <time>2021-08-10T14:02:32.583Z</time>
      </trkpt>
      <trkpt lat="46.89017" lon="8.55545">
        <ele>1135</ele>
        <time>2021-08-10T14:02:33.584Z</time>
      </trkpt>
      <trkpt lat="46.89016" lon="8.55545">
        <ele>1135</ele>
        <time>2021-08-10T14:02:34.584Z</time>
      </trkpt>
      <trkpt lat="46.89015" lon="8.55545">
        <ele>1135</ele>
        <time>2021-08-10T14:02:35.584Z</time>
      </trkpt>
      <trkpt lat="46.89014" lon="8.55545">
        <ele>1135</ele>
        <time>2021-08-10T14:02:36.584Z</time>
      </trkpt>
      <trkpt lat="46.89014" lon="8.55544">
        <ele>1135</ele>
        <time>2021-08-10T14:02:37.584Z</time>
      </trkpt>
      <trkpt lat="46.89013" lon="8.55544">
        <ele>1134</ele>
        <time>2021-08-10T14:02:38.584Z</time>
      </trkpt>
      <trkpt lat="46.89012" lon="8.55543">
        <ele>1134</ele>
        <time>2021-08-10T14:02:39.583Z</time>
      </trkpt>
      <trkpt lat="46.89011" lon="8.55542">
        <ele>1134</ele>
        <time>2021-08-10T14:02:40.584Z</time>
      </trkpt>
      <trkpt lat="46.8901" lon="8.55542">
        <ele>1134</ele>
        <time>2021-08-10T14:02:41.584Z</time>
      </trkpt>
      <trkpt lat="46.89009" lon="8.55542">
        <ele>1134</ele>
        <time>2021-08-10T14:02:42.584Z</time>
      </trkpt>
      <trkpt lat="46.89008" lon="8.55542">
        <ele>1134</ele>
        <time>2021-08-10T14:02:43.584Z</time>
      </trkpt>
      <trkpt lat="46.89007" lon="8.55542">
        <ele>1134</ele>
        <time>2021-08-10T14:02:44.584Z</time>
      </trkpt>
      <trkpt lat="46.89006" lon="8.55541">
        <ele>1134</ele>
        <time>2021-08-10T14:02:45.583Z</time>
      </trkpt>
      <trkpt lat="46.89005" lon="8.55541">
        <ele>1134</ele>
        <time>2021-08-10T14:02:46.583Z</time>
      </trkpt>
      <trkpt lat="46.89005" lon="8.55541">
        <ele>1133</ele>
        <time>2021-08-10T14:02:47.584Z</time>
      </trkpt>
      <trkpt lat="46.89004" lon="8.5554">
        <ele>1133</ele>
        <time>2021-08-10T14:02:48.584Z</time>
      </trkpt>
      <trkpt lat="46.89003" lon="8.5554">
        <ele>1133</ele>
        <time>2021-08-10T14:02:49.584Z</time>
      </trkpt>
      <trkpt lat="46.89" lon="8.55537">
        <ele>1134</ele>
        <time>2021-08-10T14:02:50.583Z</time>
      </trkpt>
      <trkpt lat="46.88999" lon="8.55537">
        <ele>1134</ele>
        <time>2021-08-10T14:02:51.584Z</time>
      </trkpt>
      <trkpt lat="46.88999" lon="8.55537">
        <ele>1134</ele>
        <time>2021-08-10T14:02:52.583Z</time>
      </trkpt>
      <trkpt lat="46.88999" lon="8.55537">
        <ele>1134</ele>
        <time>2021-08-10T14:02:53.584Z</time>
      </trkpt>
      <trkpt lat="46.88998" lon="8.55537">
        <ele>1134</ele>
        <time>2021-08-10T14:02:56.701Z</time>
      </trkpt>
      <trkpt lat="46.88998" lon="8.55538">
        <ele>1134</ele>
        <time>2021-08-10T14:02:57.701Z</time>
      </trkpt>
      <trkpt lat="46.88998" lon="8.5554">
        <ele>1135</ele>
        <time>2021-08-10T14:02:58.704Z</time>
      </trkpt>
      <trkpt lat="46.88998" lon="8.55541">
        <ele>1136</ele>
        <time>2021-08-10T14:02:59.704Z</time>
      </trkpt>
      <trkpt lat="46.88999" lon="8.55541">
        <ele>1136</ele>
        <time>2021-08-10T14:03:00.704Z</time>
      </trkpt>
      <trkpt lat="46.88999" lon="8.55534">
        <ele>1136</ele>
        <time>2021-08-10T14:03:02.711Z</time>
      </trkpt>
      <trkpt lat="46.88998" lon="8.55534">
        <ele>1136</ele>
        <time>2021-08-10T14:03:03.711Z</time>
      </trkpt>
      <trkpt lat="46.88997" lon="8.55533">
        <ele>1135</ele>
        <time>2021-08-10T14:03:04.710Z</time>
      </trkpt>
      <trkpt lat="46.88996" lon="8.55533">
        <ele>1134</ele>
        <time>2021-08-10T14:03:05.710Z</time>
      </trkpt>
      <trkpt lat="46.88995" lon="8.55533">
        <ele>1134</ele>
        <time>2021-08-10T14:03:06.711Z</time>
      </trkpt>
      <trkpt lat="46.88994" lon="8.55533">
        <ele>1133</ele>
        <time>2021-08-10T14:03:07.711Z</time>
      </trkpt>
      <trkpt lat="46.88993" lon="8.55532">
        <ele>1133</ele>
        <time>2021-08-10T14:03:08.710Z</time>
      </trkpt>
      <trkpt lat="46.88992" lon="8.55532">
        <ele>1132</ele>
        <time>2021-08-10T14:03:09.711Z</time>
      </trkpt>
      <trkpt lat="46.88992" lon="8.55532">
        <ele>1133</ele>
        <time>2021-08-10T14:03:12.735Z</time>
      </trkpt>
      <trkpt lat="46.88992" lon="8.55532">
        <ele>1133</ele>
        <time>2021-08-10T14:03:13.736Z</time>
      </trkpt>
      <trkpt lat="46.88991" lon="8.55532">
        <ele>1133</ele>
        <time>2021-08-10T14:03:26.627Z</time>
      </trkpt>
      <trkpt lat="46.8899" lon="8.55532">
        <ele>1134</ele>
        <time>2021-08-10T14:03:27.627Z</time>
      </trkpt>
      <trkpt lat="46.88989" lon="8.55531">
        <ele>1135</ele>
        <time>2021-08-10T14:03:28.628Z</time>
      </trkpt>
      <trkpt lat="46.88988" lon="8.5553">
        <ele>1136</ele>
        <time>2021-08-10T14:03:29.627Z</time>
      </trkpt>
      <trkpt lat="46.88988" lon="8.5553">
        <ele>1137</ele>
        <time>2021-08-10T14:03:30.628Z</time>
      </trkpt>
      <trkpt lat="46.88988" lon="8.55529">
        <ele>1138</ele>
        <time>2021-08-10T14:03:31.628Z</time>
      </trkpt>
      <trkpt lat="46.88987" lon="8.55529">
        <ele>1139</ele>
        <time>2021-08-10T14:03:32.627Z</time>
      </trkpt>
      <trkpt lat="46.88987" lon="8.5553">
        <ele>1139</ele>
        <time>2021-08-10T14:03:33.627Z</time>
      </trkpt>
      <trkpt lat="46.88986" lon="8.55531">
        <ele>1139</ele>
        <time>2021-08-10T14:03:34.627Z</time>
      </trkpt>
      <trkpt lat="46.88985" lon="8.55531">
        <ele>1140</ele>
        <time>2021-08-10T14:03:35.627Z</time>
      </trkpt>
      <trkpt lat="46.88985" lon="8.55531">
        <ele>1140</ele>
        <time>2021-08-10T14:03:36.628Z</time>
      </trkpt>
      <trkpt lat="46.88984" lon="8.55531">
        <ele>1140</ele>
        <time>2021-08-10T14:03:37.628Z</time>
      </trkpt>
      <trkpt lat="46.88983" lon="8.5553">
        <ele>1140</ele>
        <time>2021-08-10T14:03:38.628Z</time>
      </trkpt>
      <trkpt lat="46.88982" lon="8.55529">
        <ele>1140</ele>
        <time>2021-08-10T14:03:39.627Z</time>
      </trkpt>
      <trkpt lat="46.88981" lon="8.55528">
        <ele>1140</ele>
        <time>2021-08-10T14:03:40.627Z</time>
      </trkpt>
      <trkpt lat="46.88981" lon="8.55527">
        <ele>1141</ele>
        <time>2021-08-10T14:03:41.628Z</time>
      </trkpt>
      <trkpt lat="46.8898" lon="8.55526">
        <ele>1141</ele>
        <time>2021-08-10T14:03:42.628Z</time>
      </trkpt>
      <trkpt lat="46.8898" lon="8.55526">
        <ele>1141</ele>
        <time>2021-08-10T14:03:43.628Z</time>
      </trkpt>
      <trkpt lat="46.88979" lon="8.55526">
        <ele>1141</ele>
        <time>2021-08-10T14:03:44.627Z</time>
      </trkpt>
      <trkpt lat="46.88978" lon="8.55526">
        <ele>1142</ele>
        <time>2021-08-10T14:03:45.627Z</time>
      </trkpt>
      <trkpt lat="46.88977" lon="8.55526">
        <ele>1142</ele>
        <time>2021-08-10T14:03:46.627Z</time>
      </trkpt>
      <trkpt lat="46.88976" lon="8.55526">
        <ele>1143</ele>
        <time>2021-08-10T14:03:47.628Z</time>
      </trkpt>
      <trkpt lat="46.88975" lon="8.55526">
        <ele>1143</ele>
        <time>2021-08-10T14:03:48.627Z</time>
      </trkpt>
      <trkpt lat="46.88974" lon="8.55525">
        <ele>1144</ele>
        <time>2021-08-10T14:03:49.628Z</time>
      </trkpt>
      <trkpt lat="46.88974" lon="8.55524">
        <ele>1144</ele>
        <time>2021-08-10T14:03:50.627Z</time>
      </trkpt>
      <trkpt lat="46.88974" lon="8.55523">
        <ele>1144</ele>
        <time>2021-08-10T14:03:51.628Z</time>
      </trkpt>
      <trkpt lat="46.88973" lon="8.55523">
        <ele>1145</ele>
        <time>2021-08-10T14:03:52.627Z</time>
      </trkpt>
      <trkpt lat="46.88974" lon="8.55523">
        <ele>1145</ele>
        <time>2021-08-10T14:03:53.627Z</time>
      </trkpt>
      <trkpt lat="46.88972" lon="8.55529">
        <ele>1147</ele>
        <time>2021-08-10T14:03:54.627Z</time>
      </trkpt>
      <trkpt lat="46.88972" lon="8.5553">
        <ele>1148</ele>
        <time>2021-08-10T14:03:55.627Z</time>
      </trkpt>
      <trkpt lat="46.88973" lon="8.55529">
        <ele>1149</ele>
        <time>2021-08-10T14:03:56.629Z</time>
      </trkpt>
      <trkpt lat="46.88973" lon="8.55529">
        <ele>1149</ele>
        <time>2021-08-10T14:03:57.628Z</time>
      </trkpt>
      <trkpt lat="46.88974" lon="8.55529">
        <ele>1149</ele>
        <time>2021-08-10T14:03:58.628Z</time>
      </trkpt>
      <trkpt lat="46.88977" lon="8.55528">
        <ele>1148</ele>
        <time>2021-08-10T14:04:02.631Z</time>
      </trkpt>
      <trkpt lat="46.88978" lon="8.55528">
        <ele>1148</ele>
        <time>2021-08-10T14:04:03.630Z</time>
      </trkpt>
      <trkpt lat="46.8898" lon="8.55536">
        <ele>1167</ele>
        <time>2021-08-10T14:04:04.630Z</time>
      </trkpt>
      <trkpt lat="46.88978" lon="8.55536">
        <ele>1167</ele>
        <time>2021-08-10T14:04:05.631Z</time>
      </trkpt>
      <trkpt lat="46.88977" lon="8.55534">
        <ele>1167</ele>
        <time>2021-08-10T14:04:06.631Z</time>
      </trkpt>
      <trkpt lat="46.88976" lon="8.55531">
        <ele>1167</ele>
        <time>2021-08-10T14:04:07.630Z</time>
      </trkpt>
      <trkpt lat="46.88975" lon="8.55529">
        <ele>1167</ele>
        <time>2021-08-10T14:04:08.630Z</time>
      </trkpt>
      <trkpt lat="46.88974" lon="8.55528">
        <ele>1166</ele>
        <time>2021-08-10T14:04:09.631Z</time>
      </trkpt>
      <trkpt lat="46.88973" lon="8.55527">
        <ele>1165</ele>
        <time>2021-08-10T14:04:10.630Z</time>
      </trkpt>
      <trkpt lat="46.88972" lon="8.55527">
        <ele>1164</ele>
        <time>2021-08-10T14:04:11.630Z</time>
      </trkpt>
      <trkpt lat="46.88971" lon="8.55526">
        <ele>1163</ele>
        <time>2021-08-10T14:04:12.631Z</time>
      </trkpt>
      <trkpt lat="46.8897" lon="8.55525">
        <ele>1163</ele>
        <time>2021-08-10T14:04:13.630Z</time>
      </trkpt>
      <trkpt lat="46.88969" lon="8.55525">
        <ele>1163</ele>
        <time>2021-08-10T14:04:14.630Z</time>
      </trkpt>
      <trkpt lat="46.88967" lon="8.55524">
        <ele>1162</ele>
        <time>2021-08-10T14:04:15.630Z</time>
      </trkpt>
      <trkpt lat="46.88967" lon="8.55523">
        <ele>1162</ele>
        <time>2021-08-10T14:04:16.631Z</time>
      </trkpt>
      <trkpt lat="46.88966" lon="8.55523">
        <ele>1162</ele>
        <time>2021-08-10T14:04:17.630Z</time>
      </trkpt>
      <trkpt lat="46.88965" lon="8.55522">
        <ele>1161</ele>
        <time>2021-08-10T14:04:18.630Z</time>
      </trkpt>
      <trkpt lat="46.88964" lon="8.55521">
        <ele>1161</ele>
        <time>2021-08-10T14:04:19.630Z</time>
      </trkpt>
      <trkpt lat="46.88963" lon="8.5552">
        <ele>1160</ele>
        <time>2021-08-10T14:04:20.631Z</time>
      </trkpt>
      <trkpt lat="46.88962" lon="8.55519">
        <ele>1160</ele>
        <time>2021-08-10T14:04:21.631Z</time>
      </trkpt>
      <trkpt lat="46.88961" lon="8.55518">
        <ele>1159</ele>
        <time>2021-08-10T14:04:22.631Z</time>
      </trkpt>
      <trkpt lat="46.8896" lon="8.55517">
        <ele>1159</ele>
        <time>2021-08-10T14:04:23.630Z</time>
      </trkpt>
      <trkpt lat="46.88959" lon="8.55516">
        <ele>1159</ele>
        <time>2021-08-10T14:04:24.630Z</time>
      </trkpt>
      <trkpt lat="46.88959" lon="8.55516">
        <ele>1158</ele>
        <time>2021-08-10T14:04:25.630Z</time>
      </trkpt>
      <trkpt lat="46.88959" lon="8.55515">
        <ele>1157</ele>
        <time>2021-08-10T14:04:26.630Z</time>
      </trkpt>
      <trkpt lat="46.88959" lon="8.55514">
        <ele>1157</ele>
        <time>2021-08-10T14:04:27.630Z</time>
      </trkpt>
      <trkpt lat="46.88959" lon="8.55512">
        <ele>1156</ele>
        <time>2021-08-10T14:04:28.630Z</time>
      </trkpt>
      <trkpt lat="46.8896" lon="8.55511">
        <ele>1156</ele>
        <time>2021-08-10T14:04:29.630Z</time>
      </trkpt>
      <trkpt lat="46.8896" lon="8.5551">
        <ele>1155</ele>
        <time>2021-08-10T14:04:30.631Z</time>
      </trkpt>
      <trkpt lat="46.88959" lon="8.5551">
        <ele>1154</ele>
        <time>2021-08-10T14:04:31.630Z</time>
      </trkpt>
      <trkpt lat="46.88959" lon="8.55511">
        <ele>1154</ele>
        <time>2021-08-10T14:04:32.630Z</time>
      </trkpt>
      <trkpt lat="46.88958" lon="8.55513">
        <ele>1152</ele>
        <time>2021-08-10T14:04:33.630Z</time>
      </trkpt>
      <trkpt lat="46.88958" lon="8.55514">
        <ele>1152</ele>
        <time>2021-08-10T14:04:34.630Z</time>
      </trkpt>
      <trkpt lat="46.88958" lon="8.55514">
        <ele>1152</ele>
        <time>2021-08-10T14:04:35.631Z</time>
      </trkpt>
      <trkpt lat="46.88958" lon="8.55514">
        <ele>1151</ele>
        <time>2021-08-10T14:04:36.631Z</time>
      </trkpt>
      <trkpt lat="46.88956" lon="8.55514">
        <ele>1150</ele>
        <time>2021-08-10T14:04:37.632Z</time>
      </trkpt>
      <trkpt lat="46.88956" lon="8.55514">
        <ele>1150</ele>
        <time>2021-08-10T14:04:38.631Z</time>
      </trkpt>
      <trkpt lat="46.88956" lon="8.55517">
        <ele>1148</ele>
        <time>2021-08-10T14:04:39.632Z</time>
      </trkpt>
      <trkpt lat="46.88957" lon="8.55517">
        <ele>1149</ele>
        <time>2021-08-10T14:04:40.631Z</time>
      </trkpt>
      <trkpt lat="46.88959" lon="8.55518">
        <ele>1153</ele>
        <time>2021-08-10T14:04:41.632Z</time>
      </trkpt>
      <trkpt lat="46.88959" lon="8.55519">
        <ele>1155</ele>
        <time>2021-08-10T14:04:42.633Z</time>
      </trkpt>
      <trkpt lat="46.88959" lon="8.55518">
        <ele>1155</ele>
        <time>2021-08-10T14:04:43.632Z</time>
      </trkpt>
      <trkpt lat="46.8896" lon="8.5552">
        <ele>1160</ele>
        <time>2021-08-10T14:04:44.633Z</time>
      </trkpt>
      <trkpt lat="46.8896" lon="8.55519">
        <ele>1160</ele>
        <time>2021-08-10T14:04:45.633Z</time>
      </trkpt>
      <trkpt lat="46.8896" lon="8.55518">
        <ele>1160</ele>
        <time>2021-08-10T14:04:46.632Z</time>
      </trkpt>
      <trkpt lat="46.8896" lon="8.55517">
        <ele>1160</ele>
        <time>2021-08-10T14:04:47.632Z</time>
      </trkpt>
      <trkpt lat="46.8896" lon="8.55517">
        <ele>1160</ele>
        <time>2021-08-10T14:04:48.633Z</time>
      </trkpt>
      <trkpt lat="46.88959" lon="8.55517">
        <ele>1159</ele>
        <time>2021-08-10T14:04:49.632Z</time>
      </trkpt>
      <trkpt lat="46.88958" lon="8.55517">
        <ele>1159</ele>
        <time>2021-08-10T14:04:50.632Z</time>
      </trkpt>
      <trkpt lat="46.88956" lon="8.55518">
        <ele>1158</ele>
        <time>2021-08-10T14:04:51.632Z</time>
      </trkpt>
      <trkpt lat="46.88954" lon="8.55518">
        <ele>1158</ele>
        <time>2021-08-10T14:04:52.632Z</time>
      </trkpt>
      <trkpt lat="46.88953" lon="8.55518">
        <ele>1157</ele>
        <time>2021-08-10T14:04:53.632Z</time>
      </trkpt>
      <trkpt lat="46.88953" lon="8.55517">
        <ele>1157</ele>
        <time>2021-08-10T14:04:54.632Z</time>
      </trkpt>
      <trkpt lat="46.88952" lon="8.55517">
        <ele>1158</ele>
        <time>2021-08-10T14:04:55.632Z</time>
      </trkpt>
      <trkpt lat="46.88952" lon="8.55517">
        <ele>1158</ele>
        <time>2021-08-10T14:04:56.633Z</time>
      </trkpt>
      <trkpt lat="46.88951" lon="8.55517">
        <ele>1158</ele>
        <time>2021-08-10T14:04:57.632Z</time>
      </trkpt>
      <trkpt lat="46.8895" lon="8.55516">
        <ele>1158</ele>
        <time>2021-08-10T14:04:58.633Z</time>
      </trkpt>
      <trkpt lat="46.88949" lon="8.55516">
        <ele>1158</ele>
        <time>2021-08-10T14:04:59.632Z</time>
      </trkpt>
      <trkpt lat="46.88948" lon="8.55516">
        <ele>1158</ele>
        <time>2021-08-10T14:05:00.633Z</time>
      </trkpt>
      <trkpt lat="46.88947" lon="8.55516">
        <ele>1158</ele>
        <time>2021-08-10T14:05:01.632Z</time>
      </trkpt>
      <trkpt lat="46.88947" lon="8.55516">
        <ele>1158</ele>
        <time>2021-08-10T14:05:02.633Z</time>
      </trkpt>
      <trkpt lat="46.88947" lon="8.55516">
        <ele>1159</ele>
        <time>2021-08-10T14:05:03.633Z</time>
      </trkpt>
      <trkpt lat="46.88945" lon="8.55517">
        <ele>1158</ele>
        <time>2021-08-10T14:05:04.632Z</time>
      </trkpt>
      <trkpt lat="46.88946" lon="8.55517">
        <ele>1158</ele>
        <time>2021-08-10T14:05:05.632Z</time>
      </trkpt>
      <trkpt lat="46.88946" lon="8.55517">
        <ele>1159</ele>
        <time>2021-08-10T14:05:07.732Z</time>
      </trkpt>
      <trkpt lat="46.88944" lon="8.55516">
        <ele>1159</ele>
        <time>2021-08-10T14:05:08.733Z</time>
      </trkpt>
      <trkpt lat="46.88944" lon="8.55516">
        <ele>1159</ele>
        <time>2021-08-10T14:05:09.733Z</time>
      </trkpt>
      <trkpt lat="46.88944" lon="8.55515">
        <ele>1159</ele>
        <time>2021-08-10T14:05:10.733Z</time>
      </trkpt>
      <trkpt lat="46.88943" lon="8.55515">
        <ele>1159</ele>
        <time>2021-08-10T14:05:11.733Z</time>
      </trkpt>
      <trkpt lat="46.88941" lon="8.55515">
        <ele>1160</ele>
        <time>2021-08-10T14:05:12.733Z</time>
      </trkpt>
      <trkpt lat="46.88941" lon="8.55515">
        <ele>1160</ele>
        <time>2021-08-10T14:05:13.733Z</time>
      </trkpt>
      <trkpt lat="46.8894" lon="8.55515">
        <ele>1161</ele>
        <time>2021-08-10T14:05:14.733Z</time>
      </trkpt>
      <trkpt lat="46.8894" lon="8.55516">
        <ele>1161</ele>
        <time>2021-08-10T14:05:15.733Z</time>
      </trkpt>
      <trkpt lat="46.8894" lon="8.55517">
        <ele>1162</ele>
        <time>2021-08-10T14:05:16.733Z</time>
      </trkpt>
      <trkpt lat="46.88939" lon="8.55517">
        <ele>1163</ele>
        <time>2021-08-10T14:05:17.734Z</time>
      </trkpt>
      <trkpt lat="46.88939" lon="8.55517">
        <ele>1164</ele>
        <time>2021-08-10T14:05:18.733Z</time>
      </trkpt>
      <trkpt lat="46.88937" lon="8.55518">
        <ele>1164</ele>
        <time>2021-08-10T14:05:19.733Z</time>
      </trkpt>
      <trkpt lat="46.88937" lon="8.55518">
        <ele>1165</ele>
        <time>2021-08-10T14:05:20.734Z</time>
      </trkpt>
      <trkpt lat="46.88936" lon="8.55519">
        <ele>1165</ele>
        <time>2021-08-10T14:05:21.734Z</time>
      </trkpt>
      <trkpt lat="46.88936" lon="8.5552">
        <ele>1165</ele>
        <time>2021-08-10T14:05:22.734Z</time>
      </trkpt>
      <trkpt lat="46.88935" lon="8.55521">
        <ele>1165</ele>
        <time>2021-08-10T14:05:23.734Z</time>
      </trkpt>
      <trkpt lat="46.88934" lon="8.55521">
        <ele>1165</ele>
        <time>2021-08-10T14:05:24.733Z</time>
      </trkpt>
      <trkpt lat="46.88933" lon="8.55522">
        <ele>1165</ele>
        <time>2021-08-10T14:05:25.734Z</time>
      </trkpt>
      <trkpt lat="46.88932" lon="8.55522">
        <ele>1165</ele>
        <time>2021-08-10T14:05:29.841Z</time>
      </trkpt>
      <trkpt lat="46.88931" lon="8.55522">
        <ele>1165</ele>
        <time>2021-08-10T14:05:30.841Z</time>
      </trkpt>
      <trkpt lat="46.8893" lon="8.55523">
        <ele>1165</ele>
        <time>2021-08-10T14:05:31.841Z</time>
      </trkpt>
      <trkpt lat="46.88928" lon="8.55523">
        <ele>1165</ele>
        <time>2021-08-10T14:05:38.646Z</time>
      </trkpt>
      <trkpt lat="46.88927" lon="8.55523">
        <ele>1165</ele>
        <time>2021-08-10T14:05:39.647Z</time>
      </trkpt>
      <trkpt lat="46.88926" lon="8.55523">
        <ele>1166</ele>
        <time>2021-08-10T14:05:40.647Z</time>
      </trkpt>
      <trkpt lat="46.88925" lon="8.55522">
        <ele>1166</ele>
        <time>2021-08-10T14:05:41.647Z</time>
      </trkpt>
      <trkpt lat="46.88924" lon="8.55522">
        <ele>1166</ele>
        <time>2021-08-10T14:05:42.646Z</time>
      </trkpt>
      <trkpt lat="46.88923" lon="8.55521">
        <ele>1166</ele>
        <time>2021-08-10T14:05:43.647Z</time>
      </trkpt>
      <trkpt lat="46.88922" lon="8.55521">
        <ele>1166</ele>
        <time>2021-08-10T14:05:44.647Z</time>
      </trkpt>
      <trkpt lat="46.8892" lon="8.55522">
        <ele>1166</ele>
        <time>2021-08-10T14:05:45.646Z</time>
      </trkpt>
      <trkpt lat="46.88918" lon="8.55522">
        <ele>1166</ele>
        <time>2021-08-10T14:05:46.646Z</time>
      </trkpt>
      <trkpt lat="46.88917" lon="8.55523">
        <ele>1165</ele>
        <time>2021-08-10T14:05:47.647Z</time>
      </trkpt>
      <trkpt lat="46.88916" lon="8.55522">
        <ele>1165</ele>
        <time>2021-08-10T14:05:48.647Z</time>
      </trkpt>
      <trkpt lat="46.88915" lon="8.55522">
        <ele>1165</ele>
        <time>2021-08-10T14:05:49.646Z</time>
      </trkpt>
      <trkpt lat="46.88914" lon="8.55522">
        <ele>1165</ele>
        <time>2021-08-10T14:05:50.647Z</time>
      </trkpt>
      <trkpt lat="46.88913" lon="8.55522">
        <ele>1166</ele>
        <time>2021-08-10T14:05:51.647Z</time>
      </trkpt>
      <trkpt lat="46.88911" lon="8.55522">
        <ele>1166</ele>
        <time>2021-08-10T14:05:52.647Z</time>
      </trkpt>
      <trkpt lat="46.88911" lon="8.55522">
        <ele>1167</ele>
        <time>2021-08-10T14:05:53.646Z</time>
      </trkpt>
      <trkpt lat="46.8891" lon="8.55522">
        <ele>1167</ele>
        <time>2021-08-10T14:05:54.646Z</time>
      </trkpt>
      <trkpt lat="46.8891" lon="8.55521">
        <ele>1167</ele>
        <time>2021-08-10T14:05:55.647Z</time>
      </trkpt>
      <trkpt lat="46.88909" lon="8.55521">
        <ele>1167</ele>
        <time>2021-08-10T14:05:56.646Z</time>
      </trkpt>
      <trkpt lat="46.88908" lon="8.55522">
        <ele>1167</ele>
        <time>2021-08-10T14:05:57.647Z</time>
      </trkpt>
      <trkpt lat="46.88907" lon="8.55522">
        <ele>1167</ele>
        <time>2021-08-10T14:05:58.646Z</time>
      </trkpt>
      <trkpt lat="46.88905" lon="8.55522">
        <ele>1167</ele>
        <time>2021-08-10T14:05:59.646Z</time>
      </trkpt>
      <trkpt lat="46.88904" lon="8.55522">
        <ele>1167</ele>
        <time>2021-08-10T14:06:00.646Z</time>
      </trkpt>
      <trkpt lat="46.88903" lon="8.55522">
        <ele>1167</ele>
        <time>2021-08-10T14:06:01.646Z</time>
      </trkpt>
      <trkpt lat="46.88902" lon="8.55521">
        <ele>1167</ele>
        <time>2021-08-10T14:06:02.646Z</time>
      </trkpt>
      <trkpt lat="46.88901" lon="8.55521">
        <ele>1167</ele>
        <time>2021-08-10T14:06:03.647Z</time>
      </trkpt>
      <trkpt lat="46.889" lon="8.5552">
        <ele>1167</ele>
        <time>2021-08-10T14:06:04.646Z</time>
      </trkpt>
      <trkpt lat="46.88899" lon="8.5552">
        <ele>1167</ele>
        <time>2021-08-10T14:06:05.646Z</time>
      </trkpt>
      <trkpt lat="46.88898" lon="8.55519">
        <ele>1168</ele>
        <time>2021-08-10T14:06:06.646Z</time>
      </trkpt>
      <trkpt lat="46.88896" lon="8.55518">
        <ele>1168</ele>
        <time>2021-08-10T14:06:07.646Z</time>
      </trkpt>
      <trkpt lat="46.88895" lon="8.55518">
        <ele>1168</ele>
        <time>2021-08-10T14:06:08.646Z</time>
      </trkpt>
      <trkpt lat="46.88895" lon="8.55517">
        <ele>1168</ele>
        <time>2021-08-10T14:06:09.646Z</time>
      </trkpt>
      <trkpt lat="46.88894" lon="8.55517">
        <ele>1168</ele>
        <time>2021-08-10T14:06:10.646Z</time>
      </trkpt>
      <trkpt lat="46.88894" lon="8.55517">
        <ele>1168</ele>
        <time>2021-08-10T14:06:11.646Z</time>
      </trkpt>
      <trkpt lat="46.88892" lon="8.55517">
        <ele>1168</ele>
        <time>2021-08-10T14:06:12.646Z</time>
      </trkpt>
      <trkpt lat="46.8889" lon="8.55516">
        <ele>1169</ele>
        <time>2021-08-10T14:06:13.646Z</time>
      </trkpt>
      <trkpt lat="46.88889" lon="8.55516">
        <ele>1169</ele>
        <time>2021-08-10T14:06:14.646Z</time>
      </trkpt>
      <trkpt lat="46.88888" lon="8.55516">
        <ele>1169</ele>
        <time>2021-08-10T14:06:15.646Z</time>
      </trkpt>
      <trkpt lat="46.88887" lon="8.55515">
        <ele>1169</ele>
        <time>2021-08-10T14:06:16.646Z</time>
      </trkpt>
      <trkpt lat="46.88885" lon="8.55516">
        <ele>1169</ele>
        <time>2021-08-10T14:06:17.647Z</time>
      </trkpt>
      <trkpt lat="46.88885" lon="8.55516">
        <ele>1170</ele>
        <time>2021-08-10T14:06:18.647Z</time>
      </trkpt>
      <trkpt lat="46.88884" lon="8.55516">
        <ele>1171</ele>
        <time>2021-08-10T14:06:19.647Z</time>
      </trkpt>
      <trkpt lat="46.88883" lon="8.55516">
        <ele>1171</ele>
        <time>2021-08-10T14:06:20.647Z</time>
      </trkpt>
      <trkpt lat="46.88881" lon="8.55516">
        <ele>1172</ele>
        <time>2021-08-10T14:06:21.647Z</time>
      </trkpt>
      <trkpt lat="46.88879" lon="8.55516">
        <ele>1173</ele>
        <time>2021-08-10T14:06:22.647Z</time>
      </trkpt>
      <trkpt lat="46.88878" lon="8.55516">
        <ele>1174</ele>
        <time>2021-08-10T14:06:23.647Z</time>
      </trkpt>
      <trkpt lat="46.88877" lon="8.55516">
        <ele>1174</ele>
        <time>2021-08-10T14:06:24.647Z</time>
      </trkpt>
      <trkpt lat="46.88877" lon="8.55516">
        <ele>1175</ele>
        <time>2021-08-10T14:06:25.646Z</time>
      </trkpt>
      <trkpt lat="46.88876" lon="8.55516">
        <ele>1175</ele>
        <time>2021-08-10T14:06:26.647Z</time>
      </trkpt>
      <trkpt lat="46.88875" lon="8.55516">
        <ele>1175</ele>
        <time>2021-08-10T14:06:27.647Z</time>
      </trkpt>
      <trkpt lat="46.88874" lon="8.55516">
        <ele>1176</ele>
        <time>2021-08-10T14:06:28.647Z</time>
      </trkpt>
      <trkpt lat="46.88873" lon="8.55516">
        <ele>1176</ele>
        <time>2021-08-10T14:06:29.647Z</time>
      </trkpt>
      <trkpt lat="46.88873" lon="8.55516">
        <ele>1177</ele>
        <time>2021-08-10T14:06:30.647Z</time>
      </trkpt>
      <trkpt lat="46.88872" lon="8.55515">
        <ele>1177</ele>
        <time>2021-08-10T14:06:31.647Z</time>
      </trkpt>
      <trkpt lat="46.88871" lon="8.55515">
        <ele>1177</ele>
        <time>2021-08-10T14:06:32.646Z</time>
      </trkpt>
      <trkpt lat="46.8887" lon="8.55514">
        <ele>1177</ele>
        <time>2021-08-10T14:06:33.647Z</time>
      </trkpt>
      <trkpt lat="46.88869" lon="8.55514">
        <ele>1177</ele>
        <time>2021-08-10T14:06:34.647Z</time>
      </trkpt>
      <trkpt lat="46.88869" lon="8.55515">
        <ele>1177</ele>
        <time>2021-08-10T14:06:35.647Z</time>
      </trkpt>
      <trkpt lat="46.88869" lon="8.55515">
        <ele>1178</ele>
        <time>2021-08-10T14:06:36.647Z</time>
      </trkpt>
      <trkpt lat="46.88868" lon="8.55514">
        <ele>1178</ele>
        <time>2021-08-10T14:06:38.714Z</time>
      </trkpt>
      <trkpt lat="46.88867" lon="8.55514">
        <ele>1179</ele>
        <time>2021-08-10T14:06:39.713Z</time>
      </trkpt>
      <trkpt lat="46.88867" lon="8.55514">
        <ele>1179</ele>
        <time>2021-08-10T14:06:40.714Z</time>
      </trkpt>
      <trkpt lat="46.88867" lon="8.55513">
        <ele>1179</ele>
        <time>2021-08-10T14:06:41.714Z</time>
      </trkpt>
      <trkpt lat="46.88866" lon="8.55512">
        <ele>1180</ele>
        <time>2021-08-10T14:06:42.713Z</time>
      </trkpt>
      <trkpt lat="46.88865" lon="8.55512">
        <ele>1181</ele>
        <time>2021-08-10T14:06:43.713Z</time>
      </trkpt>
      <trkpt lat="46.88864" lon="8.55512">
        <ele>1181</ele>
        <time>2021-08-10T14:06:44.714Z</time>
      </trkpt>
      <trkpt lat="46.88863" lon="8.55512">
        <ele>1181</ele>
        <time>2021-08-10T14:06:45.714Z</time>
      </trkpt>
      <trkpt lat="46.88862" lon="8.55512">
        <ele>1181</ele>
        <time>2021-08-10T14:06:46.714Z</time>
      </trkpt>
      <trkpt lat="46.88861" lon="8.55512">
        <ele>1180</ele>
        <time>2021-08-10T14:06:47.714Z</time>
      </trkpt>
      <trkpt lat="46.8886" lon="8.55513">
        <ele>1179</ele>
        <time>2021-08-10T14:06:48.714Z</time>
      </trkpt>
      <trkpt lat="46.88859" lon="8.55513">
        <ele>1178</ele>
        <time>2021-08-10T14:06:49.713Z</time>
      </trkpt>
      <trkpt lat="46.88857" lon="8.55513">
        <ele>1178</ele>
        <time>2021-08-10T14:06:50.713Z</time>
      </trkpt>
      <trkpt lat="46.88856" lon="8.55512">
        <ele>1177</ele>
        <time>2021-08-10T14:06:51.714Z</time>
      </trkpt>
      <trkpt lat="46.88855" lon="8.55512">
        <ele>1176</ele>
        <time>2021-08-10T14:06:52.714Z</time>
      </trkpt>
      <trkpt lat="46.88853" lon="8.55511">
        <ele>1175</ele>
        <time>2021-08-10T14:06:53.714Z</time>
      </trkpt>
      <trkpt lat="46.88852" lon="8.5551">
        <ele>1175</ele>
        <time>2021-08-10T14:06:54.714Z</time>
      </trkpt>
      <trkpt lat="46.88852" lon="8.5551">
        <ele>1174</ele>
        <time>2021-08-10T14:06:55.713Z</time>
      </trkpt>
      <trkpt lat="46.88851" lon="8.55509">
        <ele>1173</ele>
        <time>2021-08-10T14:06:56.714Z</time>
      </trkpt>
      <trkpt lat="46.8885" lon="8.55509">
        <ele>1173</ele>
        <time>2021-08-10T14:06:57.714Z</time>
      </trkpt>
      <trkpt lat="46.8885" lon="8.55509">
        <ele>1173</ele>
        <time>2021-08-10T14:06:58.714Z</time>
      </trkpt>
      <trkpt lat="46.88849" lon="8.5551">
        <ele>1173</ele>
        <time>2021-08-10T14:06:59.714Z</time>
      </trkpt>
      <trkpt lat="46.88848" lon="8.5551">
        <ele>1172</ele>
        <time>2021-08-10T14:07:00.713Z</time>
      </trkpt>
      <trkpt lat="46.88846" lon="8.55511">
        <ele>1172</ele>
        <time>2021-08-10T14:07:01.713Z</time>
      </trkpt>
      <trkpt lat="46.88844" lon="8.55511">
        <ele>1172</ele>
        <time>2021-08-10T14:07:02.713Z</time>
      </trkpt>
      <trkpt lat="46.88843" lon="8.55512">
        <ele>1172</ele>
        <time>2021-08-10T14:07:03.713Z</time>
      </trkpt>
      <trkpt lat="46.88843" lon="8.55512">
        <ele>1173</ele>
        <time>2021-08-10T14:07:04.714Z</time>
      </trkpt>
      <trkpt lat="46.88842" lon="8.55512">
        <ele>1173</ele>
        <time>2021-08-10T14:07:08.855Z</time>
      </trkpt>
      <trkpt lat="46.88841" lon="8.55512">
        <ele>1173</ele>
        <time>2021-08-10T14:07:09.856Z</time>
      </trkpt>
      <trkpt lat="46.8884" lon="8.55513">
        <ele>1172</ele>
        <time>2021-08-10T14:07:10.855Z</time>
      </trkpt>
      <trkpt lat="46.88839" lon="8.55513">
        <ele>1172</ele>
        <time>2021-08-10T14:07:11.856Z</time>
      </trkpt>
      <trkpt lat="46.88838" lon="8.55513">
        <ele>1172</ele>
        <time>2021-08-10T14:07:27.002Z</time>
      </trkpt>
      <trkpt lat="46.88837" lon="8.55513">
        <ele>1173</ele>
        <time>2021-08-10T14:07:28.002Z</time>
      </trkpt>
      <trkpt lat="46.88836" lon="8.55513">
        <ele>1173</ele>
        <time>2021-08-10T14:07:32.866Z</time>
      </trkpt>
      <trkpt lat="46.88835" lon="8.55513">
        <ele>1174</ele>
        <time>2021-08-10T14:07:33.866Z</time>
      </trkpt>
      <trkpt lat="46.88833" lon="8.55513">
        <ele>1174</ele>
        <time>2021-08-10T14:07:34.866Z</time>
      </trkpt>
      <trkpt lat="46.88831" lon="8.55514">
        <ele>1175</ele>
        <time>2021-08-10T14:07:35.866Z</time>
      </trkpt>
      <trkpt lat="46.8883" lon="8.55514">
        <ele>1175</ele>
        <time>2021-08-10T14:07:36.866Z</time>
      </trkpt>
      <trkpt lat="46.8883" lon="8.55514">
        <ele>1175</ele>
        <time>2021-08-10T14:07:37.866Z</time>
      </trkpt>
      <trkpt lat="46.88829" lon="8.55515">
        <ele>1176</ele>
        <time>2021-08-10T14:07:38.866Z</time>
      </trkpt>
      <trkpt lat="46.88828" lon="8.55515">
        <ele>1176</ele>
        <time>2021-08-10T14:07:39.866Z</time>
      </trkpt>
      <trkpt lat="46.88827" lon="8.55515">
        <ele>1175</ele>
        <time>2021-08-10T14:07:40.866Z</time>
      </trkpt>
      <trkpt lat="46.88826" lon="8.55516">
        <ele>1175</ele>
        <time>2021-08-10T14:07:41.866Z</time>
      </trkpt>
      <trkpt lat="46.88826" lon="8.55517">
        <ele>1175</ele>
        <time>2021-08-10T14:07:42.866Z</time>
      </trkpt>
      <trkpt lat="46.88825" lon="8.55518">
        <ele>1174</ele>
        <time>2021-08-10T14:07:43.866Z</time>
      </trkpt>
      <trkpt lat="46.88825" lon="8.55518">
        <ele>1174</ele>
        <time>2021-08-10T14:07:44.866Z</time>
      </trkpt>
      <trkpt lat="46.88824" lon="8.55519">
        <ele>1174</ele>
        <time>2021-08-10T14:07:45.866Z</time>
      </trkpt>
      <trkpt lat="46.88823" lon="8.55519">
        <ele>1173</ele>
        <time>2021-08-10T14:07:46.867Z</time>
      </trkpt>
      <trkpt lat="46.88823" lon="8.55519">
        <ele>1173</ele>
        <time>2021-08-10T14:07:47.866Z</time>
      </trkpt>
      <trkpt lat="46.88822" lon="8.55518">
        <ele>1172</ele>
        <time>2021-08-10T14:07:48.866Z</time>
      </trkpt>
      <trkpt lat="46.88822" lon="8.55519">
        <ele>1171</ele>
        <time>2021-08-10T14:07:52.969Z</time>
      </trkpt>
      <trkpt lat="46.88821" lon="8.55519">
        <ele>1171</ele>
        <time>2021-08-10T14:07:53.968Z</time>
      </trkpt>
      <trkpt lat="46.8882" lon="8.5552">
        <ele>1170</ele>
        <time>2021-08-10T14:07:54.969Z</time>
      </trkpt>
      <trkpt lat="46.8882" lon="8.55521">
        <ele>1170</ele>
        <time>2021-08-10T14:07:55.969Z</time>
      </trkpt>
      <trkpt lat="46.8882" lon="8.55522">
        <ele>1169</ele>
        <time>2021-08-10T14:07:56.969Z</time>
      </trkpt>
      <trkpt lat="46.88819" lon="8.55523">
        <ele>1169</ele>
        <time>2021-08-10T14:07:57.969Z</time>
      </trkpt>
      <trkpt lat="46.88818" lon="8.55524">
        <ele>1169</ele>
        <time>2021-08-10T14:07:58.969Z</time>
      </trkpt>
      <trkpt lat="46.88816" lon="8.55525">
        <ele>1169</ele>
        <time>2021-08-10T14:07:59.969Z</time>
      </trkpt>
      <trkpt lat="46.88815" lon="8.55526">
        <ele>1169</ele>
        <time>2021-08-10T14:08:00.969Z</time>
      </trkpt>
      <trkpt lat="46.88813" lon="8.55526">
        <ele>1169</ele>
        <time>2021-08-10T14:08:01.969Z</time>
      </trkpt>
      <trkpt lat="46.88812" lon="8.55526">
        <ele>1169</ele>
        <time>2021-08-10T14:08:02.969Z</time>
      </trkpt>
      <trkpt lat="46.8881" lon="8.55526">
        <ele>1169</ele>
        <time>2021-08-10T14:08:03.968Z</time>
      </trkpt>
      <trkpt lat="46.88809" lon="8.55527">
        <ele>1169</ele>
        <time>2021-08-10T14:08:04.968Z</time>
      </trkpt>
      <trkpt lat="46.88809" lon="8.55528">
        <ele>1169</ele>
        <time>2021-08-10T14:08:05.969Z</time>
      </trkpt>
      <trkpt lat="46.88808" lon="8.55528">
        <ele>1169</ele>
        <time>2021-08-10T14:08:06.969Z</time>
      </trkpt>
      <trkpt lat="46.88807" lon="8.55529">
        <ele>1170</ele>
        <time>2021-08-10T14:08:07.969Z</time>
      </trkpt>
      <trkpt lat="46.88806" lon="8.55529">
        <ele>1170</ele>
        <time>2021-08-10T14:08:08.968Z</time>
      </trkpt>
      <trkpt lat="46.88804" lon="8.5553">
        <ele>1171</ele>
        <time>2021-08-10T14:08:09.969Z</time>
      </trkpt>
      <trkpt lat="46.88803" lon="8.5553">
        <ele>1171</ele>
        <time>2021-08-10T14:08:10.968Z</time>
      </trkpt>
      <trkpt lat="46.88802" lon="8.55531">
        <ele>1171</ele>
        <time>2021-08-10T14:08:11.968Z</time>
      </trkpt>
      <trkpt lat="46.88801" lon="8.55532">
        <ele>1171</ele>
        <time>2021-08-10T14:08:12.968Z</time>
      </trkpt>
      <trkpt lat="46.888" lon="8.55532">
        <ele>1172</ele>
        <time>2021-08-10T14:08:13.969Z</time>
      </trkpt>
      <trkpt lat="46.88799" lon="8.55532">
        <ele>1172</ele>
        <time>2021-08-10T14:08:14.969Z</time>
      </trkpt>
      <trkpt lat="46.88798" lon="8.55532">
        <ele>1172</ele>
        <time>2021-08-10T14:08:15.969Z</time>
      </trkpt>
      <trkpt lat="46.88797" lon="8.55532">
        <ele>1172</ele>
        <time>2021-08-10T14:08:16.969Z</time>
      </trkpt>
      <trkpt lat="46.88796" lon="8.55532">
        <ele>1172</ele>
        <time>2021-08-10T14:08:17.969Z</time>
      </trkpt>
      <trkpt lat="46.88795" lon="8.55532">
        <ele>1172</ele>
        <time>2021-08-10T14:08:18.969Z</time>
      </trkpt>
      <trkpt lat="46.88794" lon="8.55533">
        <ele>1173</ele>
        <time>2021-08-10T14:08:19.968Z</time>
      </trkpt>
      <trkpt lat="46.88794" lon="8.55533">
        <ele>1174</ele>
        <time>2021-08-10T14:08:20.969Z</time>
      </trkpt>
      <trkpt lat="46.88794" lon="8.55534">
        <ele>1174</ele>
        <time>2021-08-10T14:08:21.969Z</time>
      </trkpt>
      <trkpt lat="46.88793" lon="8.55534">
        <ele>1175</ele>
        <time>2021-08-10T14:08:22.969Z</time>
      </trkpt>
      <trkpt lat="46.88792" lon="8.55534">
        <ele>1175</ele>
        <time>2021-08-10T14:08:23.969Z</time>
      </trkpt>
      <trkpt lat="46.88791" lon="8.55534">
        <ele>1176</ele>
        <time>2021-08-10T14:08:24.968Z</time>
      </trkpt>
      <trkpt lat="46.8879" lon="8.55535">
        <ele>1176</ele>
        <time>2021-08-10T14:08:25.969Z</time>
      </trkpt>
      <trkpt lat="46.8879" lon="8.55535">
        <ele>1177</ele>
        <time>2021-08-10T14:08:26.969Z</time>
      </trkpt>
      <trkpt lat="46.88789" lon="8.55535">
        <ele>1178</ele>
        <time>2021-08-10T14:08:29.001Z</time>
      </trkpt>
      <trkpt lat="46.88789" lon="8.55536">
        <ele>1178</ele>
        <time>2021-08-10T14:08:30.002Z</time>
      </trkpt>
      <trkpt lat="46.88788" lon="8.55535">
        <ele>1179</ele>
        <time>2021-08-10T14:08:31.001Z</time>
      </trkpt>
      <trkpt lat="46.88788" lon="8.55536">
        <ele>1180</ele>
        <time>2021-08-10T14:08:32.001Z</time>
      </trkpt>
      <trkpt lat="46.88787" lon="8.55538">
        <ele>1181</ele>
        <time>2021-08-10T14:08:33.002Z</time>
      </trkpt>
      <trkpt lat="46.88787" lon="8.55539">
        <ele>1181</ele>
        <time>2021-08-10T14:08:34.002Z</time>
      </trkpt>
      <trkpt lat="46.88787" lon="8.55539">
        <ele>1182</ele>
        <time>2021-08-10T14:08:35.002Z</time>
      </trkpt>
      <trkpt lat="46.88786" lon="8.5554">
        <ele>1183</ele>
        <time>2021-08-10T14:08:36.002Z</time>
      </trkpt>
      <trkpt lat="46.88785" lon="8.5554">
        <ele>1184</ele>
        <time>2021-08-10T14:08:37.001Z</time>
      </trkpt>
      <trkpt lat="46.88784" lon="8.55541">
        <ele>1185</ele>
        <time>2021-08-10T14:08:38.002Z</time>
      </trkpt>
      <trkpt lat="46.88782" lon="8.55543">
        <ele>1186</ele>
        <time>2021-08-10T14:08:39.002Z</time>
      </trkpt>
      <trkpt lat="46.88781" lon="8.55544">
        <ele>1186</ele>
        <time>2021-08-10T14:08:41.107Z</time>
      </trkpt>
      <trkpt lat="46.88781" lon="8.55544">
        <ele>1187</ele>
        <time>2021-08-10T14:08:42.107Z</time>
      </trkpt>
      <trkpt lat="46.88779" lon="8.55545">
        <ele>1187</ele>
        <time>2021-08-10T14:08:43.107Z</time>
      </trkpt>
      <trkpt lat="46.88778" lon="8.55545">
        <ele>1187</ele>
        <time>2021-08-10T14:08:44.106Z</time>
      </trkpt>
      <trkpt lat="46.88777" lon="8.55545">
        <ele>1187</ele>
        <time>2021-08-10T14:08:45.106Z</time>
      </trkpt>
      <trkpt lat="46.88777" lon="8.55545">
        <ele>1187</ele>
        <time>2021-08-10T14:08:46.106Z</time>
      </trkpt>
      <trkpt lat="46.88777" lon="8.55544">
        <ele>1187</ele>
        <time>2021-08-10T14:08:47.107Z</time>
      </trkpt>
      <trkpt lat="46.88776" lon="8.55544">
        <ele>1187</ele>
        <time>2021-08-10T14:08:48.107Z</time>
      </trkpt>
      <trkpt lat="46.88775" lon="8.55544">
        <ele>1187</ele>
        <time>2021-08-10T14:08:49.107Z</time>
      </trkpt>
      <trkpt lat="46.88774" lon="8.55545">
        <ele>1187</ele>
        <time>2021-08-10T14:08:50.107Z</time>
      </trkpt>
      <trkpt lat="46.88774" lon="8.55545">
        <ele>1187</ele>
        <time>2021-08-10T14:08:51.107Z</time>
      </trkpt>
      <trkpt lat="46.88773" lon="8.55545">
        <ele>1186</ele>
        <time>2021-08-10T14:08:52.106Z</time>
      </trkpt>
      <trkpt lat="46.88772" lon="8.55545">
        <ele>1186</ele>
        <time>2021-08-10T14:08:53.107Z</time>
      </trkpt>
      <trkpt lat="46.88771" lon="8.55546">
        <ele>1185</ele>
        <time>2021-08-10T14:08:54.106Z</time>
      </trkpt>
      <trkpt lat="46.8877" lon="8.55546">
        <ele>1184</ele>
        <time>2021-08-10T14:08:55.107Z</time>
      </trkpt>
      <trkpt lat="46.88769" lon="8.55546">
        <ele>1184</ele>
        <time>2021-08-10T14:08:56.107Z</time>
      </trkpt>
      <trkpt lat="46.88768" lon="8.55546">
        <ele>1183</ele>
        <time>2021-08-10T14:08:57.107Z</time>
      </trkpt>
      <trkpt lat="46.88767" lon="8.55545">
        <ele>1183</ele>
        <time>2021-08-10T14:08:58.106Z</time>
      </trkpt>
      <trkpt lat="46.88766" lon="8.55544">
        <ele>1183</ele>
        <time>2021-08-10T14:08:59.106Z</time>
      </trkpt>
      <trkpt lat="46.88764" lon="8.55544">
        <ele>1183</ele>
        <time>2021-08-10T14:09:00.107Z</time>
      </trkpt>
      <trkpt lat="46.88763" lon="8.55543">
        <ele>1183</ele>
        <time>2021-08-10T14:09:01.107Z</time>
      </trkpt>
      <trkpt lat="46.88762" lon="8.55543">
        <ele>1182</ele>
        <time>2021-08-10T14:09:02.107Z</time>
      </trkpt>
      <trkpt lat="46.88762" lon="8.55543">
        <ele>1182</ele>
        <time>2021-08-10T14:09:03.106Z</time>
      </trkpt>
      <trkpt lat="46.88761" lon="8.55543">
        <ele>1182</ele>
        <time>2021-08-10T14:09:04.107Z</time>
      </trkpt>
      <trkpt lat="46.8876" lon="8.55543">
        <ele>1182</ele>
        <time>2021-08-10T14:09:05.107Z</time>
      </trkpt>
      <trkpt lat="46.8876" lon="8.55542">
        <ele>1183</ele>
        <time>2021-08-10T14:09:06.106Z</time>
      </trkpt>
      <trkpt lat="46.88759" lon="8.55542">
        <ele>1183</ele>
        <time>2021-08-10T14:09:07.107Z</time>
      </trkpt>
      <trkpt lat="46.88758" lon="8.55542">
        <ele>1183</ele>
        <time>2021-08-10T14:09:08.107Z</time>
      </trkpt>
      <trkpt lat="46.88758" lon="8.55542">
        <ele>1184</ele>
        <time>2021-08-10T14:09:09.106Z</time>
      </trkpt>
      <trkpt lat="46.88757" lon="8.55541">
        <ele>1184</ele>
        <time>2021-08-10T14:09:10.107Z</time>
      </trkpt>
      <trkpt lat="46.88757" lon="8.55541">
        <ele>1184</ele>
        <time>2021-08-10T14:09:11.106Z</time>
      </trkpt>
      <trkpt lat="46.88756" lon="8.5554">
        <ele>1185</ele>
        <time>2021-08-10T14:09:12.106Z</time>
      </trkpt>
      <trkpt lat="46.88756" lon="8.55539">
        <ele>1185</ele>
        <time>2021-08-10T14:09:13.107Z</time>
      </trkpt>
      <trkpt lat="46.88755" lon="8.55538">
        <ele>1185</ele>
        <time>2021-08-10T14:09:14.107Z</time>
      </trkpt>
      <trkpt lat="46.88755" lon="8.55537">
        <ele>1186</ele>
        <time>2021-08-10T14:09:15.106Z</time>
      </trkpt>
      <trkpt lat="46.88752" lon="8.55535">
        <ele>1186</ele>
        <time>2021-08-10T14:09:16.107Z</time>
      </trkpt>
      <trkpt lat="46.8875" lon="8.55535">
        <ele>1186</ele>
        <time>2021-08-10T14:09:17.106Z</time>
      </trkpt>
      <trkpt lat="46.88749" lon="8.55534">
        <ele>1186</ele>
        <time>2021-08-10T14:09:18.106Z</time>
      </trkpt>
      <trkpt lat="46.88747" lon="8.55534">
        <ele>1187</ele>
        <time>2021-08-10T14:09:19.106Z</time>
      </trkpt>
      <trkpt lat="46.88746" lon="8.55534">
        <ele>1187</ele>
        <time>2021-08-10T14:09:20.106Z</time>
      </trkpt>
      <trkpt lat="46.88745" lon="8.55533">
        <ele>1187</ele>
        <time>2021-08-10T14:09:21.107Z</time>
      </trkpt>
      <trkpt lat="46.88744" lon="8.55532">
        <ele>1187</ele>
        <time>2021-08-10T14:09:22.107Z</time>
      </trkpt>
      <trkpt lat="46.88742" lon="8.55532">
        <ele>1188</ele>
        <time>2021-08-10T14:09:23.107Z</time>
      </trkpt>
      <trkpt lat="46.88741" lon="8.55533">
        <ele>1188</ele>
        <time>2021-08-10T14:09:24.107Z</time>
      </trkpt>
      <trkpt lat="46.88739" lon="8.55534">
        <ele>1188</ele>
        <time>2021-08-10T14:09:25.107Z</time>
      </trkpt>
      <trkpt lat="46.88738" lon="8.55534">
        <ele>1188</ele>
        <time>2021-08-10T14:09:26.107Z</time>
      </trkpt>
      <trkpt lat="46.88737" lon="8.55534">
        <ele>1188</ele>
        <time>2021-08-10T14:09:32.211Z</time>
      </trkpt>
      <trkpt lat="46.88735" lon="8.55533">
        <ele>1189</ele>
        <time>2021-08-10T14:09:33.211Z</time>
      </trkpt>
      <trkpt lat="46.88734" lon="8.55532">
        <ele>1188</ele>
        <time>2021-08-10T14:09:34.212Z</time>
      </trkpt>
      <trkpt lat="46.88732" lon="8.55532">
        <ele>1189</ele>
        <time>2021-08-10T14:09:35.212Z</time>
      </trkpt>
      <trkpt lat="46.8873" lon="8.55532">
        <ele>1189</ele>
        <time>2021-08-10T14:09:36.212Z</time>
      </trkpt>
      <trkpt lat="46.88728" lon="8.55531">
        <ele>1189</ele>
        <time>2021-08-10T14:09:37.212Z</time>
      </trkpt>
      <trkpt lat="46.88727" lon="8.55531">
        <ele>1189</ele>
        <time>2021-08-10T14:09:38.212Z</time>
      </trkpt>
      <trkpt lat="46.88726" lon="8.5553">
        <ele>1189</ele>
        <time>2021-08-10T14:09:39.211Z</time>
      </trkpt>
      <trkpt lat="46.88725" lon="8.55528">
        <ele>1190</ele>
        <time>2021-08-10T14:09:40.212Z</time>
      </trkpt>
      <trkpt lat="46.88724" lon="8.55527">
        <ele>1190</ele>
        <time>2021-08-10T14:09:41.212Z</time>
      </trkpt>
      <trkpt lat="46.88724" lon="8.55526">
        <ele>1191</ele>
        <time>2021-08-10T14:09:42.212Z</time>
      </trkpt>
      <trkpt lat="46.88724" lon="8.55525">
        <ele>1191</ele>
        <time>2021-08-10T14:09:43.211Z</time>
      </trkpt>
      <trkpt lat="46.88723" lon="8.55524">
        <ele>1192</ele>
        <time>2021-08-10T14:09:44.212Z</time>
      </trkpt>
      <trkpt lat="46.88722" lon="8.55524">
        <ele>1192</ele>
        <time>2021-08-10T14:09:45.212Z</time>
      </trkpt>
      <trkpt lat="46.88722" lon="8.55524">
        <ele>1192</ele>
        <time>2021-08-10T14:09:46.211Z</time>
      </trkpt>
      <trkpt lat="46.88721" lon="8.55523">
        <ele>1192</ele>
        <time>2021-08-10T14:09:47.212Z</time>
      </trkpt>
      <trkpt lat="46.88721" lon="8.55523">
        <ele>1193</ele>
        <time>2021-08-10T14:09:48.212Z</time>
      </trkpt>
      <trkpt lat="46.8872" lon="8.55523">
        <ele>1193</ele>
        <time>2021-08-10T14:09:49.212Z</time>
      </trkpt>
      <trkpt lat="46.88719" lon="8.55522">
        <ele>1193</ele>
        <time>2021-08-10T14:09:50.212Z</time>
      </trkpt>
      <trkpt lat="46.88718" lon="8.55522">
        <ele>1193</ele>
        <time>2021-08-10T14:09:51.212Z</time>
      </trkpt>
      <trkpt lat="46.88718" lon="8.55522">
        <ele>1193</ele>
        <time>2021-08-10T14:09:52.212Z</time>
      </trkpt>
      <trkpt lat="46.88717" lon="8.55521">
        <ele>1193</ele>
        <time>2021-08-10T14:09:53.212Z</time>
      </trkpt>
      <trkpt lat="46.88718" lon="8.55521">
        <ele>1192</ele>
        <time>2021-08-10T14:09:54.211Z</time>
      </trkpt>
      <trkpt lat="46.88719" lon="8.55521">
        <ele>1191</ele>
        <time>2021-08-10T14:09:55.211Z</time>
      </trkpt>
      <trkpt lat="46.88719" lon="8.55521">
        <ele>1191</ele>
        <time>2021-08-10T14:09:56.211Z</time>
      </trkpt>
      <trkpt lat="46.8872" lon="8.55521">
        <ele>1189</ele>
        <time>2021-08-10T14:09:57.213Z</time>
      </trkpt>
      <trkpt lat="46.88721" lon="8.55521">
        <ele>1189</ele>
        <time>2021-08-10T14:09:58.213Z</time>
      </trkpt>
      <trkpt lat="46.88726" lon="8.55522">
        <ele>1185</ele>
        <time>2021-08-10T14:09:59.213Z</time>
      </trkpt>
      <trkpt lat="46.88728" lon="8.55523">
        <ele>1185</ele>
        <time>2021-08-10T14:10:00.212Z</time>
      </trkpt>
      <trkpt lat="46.88729" lon="8.55523">
        <ele>1185</ele>
        <time>2021-08-10T14:10:01.212Z</time>
      </trkpt>
      <trkpt lat="46.88731" lon="8.55523">
        <ele>1184</ele>
        <time>2021-08-10T14:10:07.230Z</time>
      </trkpt>
      <trkpt lat="46.88731" lon="8.55522">
        <ele>1184</ele>
        <time>2021-08-10T14:10:08.230Z</time>
      </trkpt>
      <trkpt lat="46.8873" lon="8.55522">
        <ele>1184</ele>
        <time>2021-08-10T14:10:09.230Z</time>
      </trkpt>
      <trkpt lat="46.8873" lon="8.55521">
        <ele>1184</ele>
        <time>2021-08-10T14:10:10.230Z</time>
      </trkpt>
      <trkpt lat="46.88729" lon="8.5552">
        <ele>1184</ele>
        <time>2021-08-10T14:10:11.230Z</time>
      </trkpt>
      <trkpt lat="46.88728" lon="8.55519">
        <ele>1184</ele>
        <time>2021-08-10T14:10:12.230Z</time>
      </trkpt>
      <trkpt lat="46.88728" lon="8.55519">
        <ele>1184</ele>
        <time>2021-08-10T14:10:13.231Z</time>
      </trkpt>
      <trkpt lat="46.88727" lon="8.55519">
        <ele>1184</ele>
        <time>2021-08-10T14:10:14.230Z</time>
      </trkpt>
      <trkpt lat="46.88727" lon="8.55519">
        <ele>1184</ele>
        <time>2021-08-10T14:10:15.231Z</time>
      </trkpt>
      <trkpt lat="46.88726" lon="8.55519">
        <ele>1184</ele>
        <time>2021-08-10T14:10:16.231Z</time>
      </trkpt>
      <trkpt lat="46.88725" lon="8.55519">
        <ele>1184</ele>
        <time>2021-08-10T14:10:17.231Z</time>
      </trkpt>
      <trkpt lat="46.88724" lon="8.55518">
        <ele>1184</ele>
        <time>2021-08-10T14:10:18.230Z</time>
      </trkpt>
      <trkpt lat="46.88724" lon="8.55518">
        <ele>1184</ele>
        <time>2021-08-10T14:10:19.231Z</time>
      </trkpt>
      <trkpt lat="46.88724" lon="8.55518">
        <ele>1184</ele>
        <time>2021-08-10T14:10:20.230Z</time>
      </trkpt>
      <trkpt lat="46.88724" lon="8.55517">
        <ele>1184</ele>
        <time>2021-08-10T14:10:21.231Z</time>
      </trkpt>
      <trkpt lat="46.88723" lon="8.55517">
        <ele>1185</ele>
        <time>2021-08-10T14:10:22.230Z</time>
      </trkpt>
      <trkpt lat="46.88723" lon="8.55516">
        <ele>1185</ele>
        <time>2021-08-10T14:10:23.231Z</time>
      </trkpt>
      <trkpt lat="46.88721" lon="8.55514">
        <ele>1185</ele>
        <time>2021-08-10T14:10:29.374Z</time>
      </trkpt>
      <trkpt lat="46.88721" lon="8.55513">
        <ele>1186</ele>
        <time>2021-08-10T14:10:38.268Z</time>
      </trkpt>
      <trkpt lat="46.8872" lon="8.55512">
        <ele>1186</ele>
        <time>2021-08-10T14:10:39.268Z</time>
      </trkpt>
      <trkpt lat="46.8872" lon="8.55511">
        <ele>1187</ele>
        <time>2021-08-10T14:10:40.267Z</time>
      </trkpt>
      <trkpt lat="46.8872" lon="8.55509">
        <ele>1187</ele>
        <time>2021-08-10T14:10:41.268Z</time>
      </trkpt>
      <trkpt lat="46.88719" lon="8.55508">
        <ele>1188</ele>
        <time>2021-08-10T14:10:42.268Z</time>
      </trkpt>
      <trkpt lat="46.88718" lon="8.55508">
        <ele>1188</ele>
        <time>2021-08-10T14:10:43.268Z</time>
      </trkpt>
      <trkpt lat="46.88718" lon="8.55508">
        <ele>1189</ele>
        <time>2021-08-10T14:10:44.268Z</time>
      </trkpt>
      <trkpt lat="46.88717" lon="8.55507">
        <ele>1189</ele>
        <time>2021-08-10T14:10:45.268Z</time>
      </trkpt>
      <trkpt lat="46.88716" lon="8.55506">
        <ele>1190</ele>
        <time>2021-08-10T14:10:46.268Z</time>
      </trkpt>
      <trkpt lat="46.88716" lon="8.55505">
        <ele>1190</ele>
        <time>2021-08-10T14:10:47.268Z</time>
      </trkpt>
      <trkpt lat="46.88714" lon="8.55503">
        <ele>1191</ele>
        <time>2021-08-10T14:10:48.268Z</time>
      </trkpt>
      <trkpt lat="46.88713" lon="8.55502">
        <ele>1191</ele>
        <time>2021-08-10T14:10:49.267Z</time>
      </trkpt>
      <trkpt lat="46.88711" lon="8.55501">
        <ele>1192</ele>
        <time>2021-08-10T14:10:50.268Z</time>
      </trkpt>
      <trkpt lat="46.88711" lon="8.555">
        <ele>1192</ele>
        <time>2021-08-10T14:10:51.267Z</time>
      </trkpt>
      <trkpt lat="46.8871" lon="8.55499">
        <ele>1192</ele>
        <time>2021-08-10T14:10:52.267Z</time>
      </trkpt>
      <trkpt lat="46.8871" lon="8.55498">
        <ele>1192</ele>
        <time>2021-08-10T14:10:53.268Z</time>
      </trkpt>
      <trkpt lat="46.88709" lon="8.55497">
        <ele>1192</ele>
        <time>2021-08-10T14:10:54.267Z</time>
      </trkpt>
      <trkpt lat="46.88709" lon="8.55496">
        <ele>1191</ele>
        <time>2021-08-10T14:10:55.268Z</time>
      </trkpt>
      <trkpt lat="46.88707" lon="8.55496">
        <ele>1191</ele>
        <time>2021-08-10T14:10:56.268Z</time>
      </trkpt>
      <trkpt lat="46.88707" lon="8.55495">
        <ele>1191</ele>
        <time>2021-08-10T14:10:57.267Z</time>
      </trkpt>
      <trkpt lat="46.88706" lon="8.55494">
        <ele>1191</ele>
        <time>2021-08-10T14:10:58.267Z</time>
      </trkpt>
      <trkpt lat="46.88706" lon="8.55493">
        <ele>1190</ele>
        <time>2021-08-10T14:10:59.268Z</time>
      </trkpt>
      <trkpt lat="46.88706" lon="8.55493">
        <ele>1190</ele>
        <time>2021-08-10T14:11:00.268Z</time>
      </trkpt>
      <trkpt lat="46.88705" lon="8.55492">
        <ele>1190</ele>
        <time>2021-08-10T14:11:01.267Z</time>
      </trkpt>
      <trkpt lat="46.88704" lon="8.55491">
        <ele>1190</ele>
        <time>2021-08-10T14:11:02.267Z</time>
      </trkpt>
      <trkpt lat="46.88704" lon="8.55491">
        <ele>1190</ele>
        <time>2021-08-10T14:11:03.268Z</time>
      </trkpt>
      <trkpt lat="46.88703" lon="8.5549">
        <ele>1190</ele>
        <time>2021-08-10T14:11:04.267Z</time>
      </trkpt>
      <trkpt lat="46.88702" lon="8.5549">
        <ele>1190</ele>
        <time>2021-08-10T14:11:05.268Z</time>
      </trkpt>
      <trkpt lat="46.88701" lon="8.5549">
        <ele>1190</ele>
        <time>2021-08-10T14:11:06.268Z</time>
      </trkpt>
      <trkpt lat="46.88701" lon="8.5549">
        <ele>1191</ele>
        <time>2021-08-10T14:11:07.267Z</time>
      </trkpt>
      <trkpt lat="46.887" lon="8.5549">
        <ele>1191</ele>
        <time>2021-08-10T14:11:08.268Z</time>
      </trkpt>
      <trkpt lat="46.88699" lon="8.5549">
        <ele>1192</ele>
        <time>2021-08-10T14:11:09.268Z</time>
      </trkpt>
      <trkpt lat="46.88699" lon="8.55489">
        <ele>1193</ele>
        <time>2021-08-10T14:11:10.267Z</time>
      </trkpt>
      <trkpt lat="46.88698" lon="8.55489">
        <ele>1193</ele>
        <time>2021-08-10T14:11:11.267Z</time>
      </trkpt>
      <trkpt lat="46.88698" lon="8.55488">
        <ele>1194</ele>
        <time>2021-08-10T14:11:12.267Z</time>
      </trkpt>
      <trkpt lat="46.88697" lon="8.55486">
        <ele>1194</ele>
        <time>2021-08-10T14:11:13.267Z</time>
      </trkpt>
      <trkpt lat="46.88697" lon="8.55485">
        <ele>1194</ele>
        <time>2021-08-10T14:11:14.267Z</time>
      </trkpt>
      <trkpt lat="46.88696" lon="8.55484">
        <ele>1194</ele>
        <time>2021-08-10T14:11:15.267Z</time>
      </trkpt>
      <trkpt lat="46.88695" lon="8.55484">
        <ele>1195</ele>
        <time>2021-08-10T14:11:16.267Z</time>
      </trkpt>
      <trkpt lat="46.88695" lon="8.55483">
        <ele>1196</ele>
        <time>2021-08-10T14:11:17.268Z</time>
      </trkpt>
      <trkpt lat="46.88695" lon="8.55482">
        <ele>1196</ele>
        <time>2021-08-10T14:11:18.267Z</time>
      </trkpt>
      <trkpt lat="46.88695" lon="8.55481">
        <ele>1197</ele>
        <time>2021-08-10T14:11:19.267Z</time>
      </trkpt>
      <trkpt lat="46.88694" lon="8.5548">
        <ele>1197</ele>
        <time>2021-08-10T14:11:20.268Z</time>
      </trkpt>
      <trkpt lat="46.88694" lon="8.5548">
        <ele>1198</ele>
        <time>2021-08-10T14:11:21.267Z</time>
      </trkpt>
      <trkpt lat="46.88694" lon="8.55478">
        <ele>1198</ele>
        <time>2021-08-10T14:11:22.267Z</time>
      </trkpt>
      <trkpt lat="46.88694" lon="8.55477">
        <ele>1199</ele>
        <time>2021-08-10T14:11:23.267Z</time>
      </trkpt>
      <trkpt lat="46.88693" lon="8.55477">
        <ele>1199</ele>
        <time>2021-08-10T14:11:24.267Z</time>
      </trkpt>
      <trkpt lat="46.88692" lon="8.55476">
        <ele>1200</ele>
        <time>2021-08-10T14:11:25.267Z</time>
      </trkpt>
      <trkpt lat="46.88693" lon="8.55474">
        <ele>1200</ele>
        <time>2021-08-10T14:11:26.267Z</time>
      </trkpt>
      <trkpt lat="46.88692" lon="8.55473">
        <ele>1201</ele>
        <time>2021-08-10T14:11:27.267Z</time>
      </trkpt>
      <trkpt lat="46.88691" lon="8.55473">
        <ele>1201</ele>
        <time>2021-08-10T14:11:28.267Z</time>
      </trkpt>
      <trkpt lat="46.88691" lon="8.55473">
        <ele>1202</ele>
        <time>2021-08-10T14:11:29.267Z</time>
      </trkpt>
      <trkpt lat="46.8869" lon="8.55473">
        <ele>1202</ele>
        <time>2021-08-10T14:11:30.267Z</time>
      </trkpt>
      <trkpt lat="46.88689" lon="8.55472">
        <ele>1203</ele>
        <time>2021-08-10T14:11:31.267Z</time>
      </trkpt>
      <trkpt lat="46.88688" lon="8.55472">
        <ele>1203</ele>
        <time>2021-08-10T14:11:32.267Z</time>
      </trkpt>
      <trkpt lat="46.88688" lon="8.55472">
        <ele>1204</ele>
        <time>2021-08-10T14:11:33.267Z</time>
      </trkpt>
      <trkpt lat="46.88687" lon="8.55471">
        <ele>1204</ele>
        <time>2021-08-10T14:11:34.267Z</time>
      </trkpt>
      <trkpt lat="46.88686" lon="8.55471">
        <ele>1205</ele>
        <time>2021-08-10T14:11:35.267Z</time>
      </trkpt>
      <trkpt lat="46.88685" lon="8.55471">
        <ele>1205</ele>
        <time>2021-08-10T14:11:36.267Z</time>
      </trkpt>
      <trkpt lat="46.88684" lon="8.5547">
        <ele>1206</ele>
        <time>2021-08-10T14:11:40.352Z</time>
      </trkpt>
      <trkpt lat="46.88683" lon="8.55469">
        <ele>1207</ele>
        <time>2021-08-10T14:11:41.352Z</time>
      </trkpt>
      <trkpt lat="46.88682" lon="8.55468">
        <ele>1207</ele>
        <time>2021-08-10T14:11:42.352Z</time>
      </trkpt>
      <trkpt lat="46.88682" lon="8.55467">
        <ele>1208</ele>
        <time>2021-08-10T14:11:43.352Z</time>
      </trkpt>
      <trkpt lat="46.88683" lon="8.55465">
        <ele>1208</ele>
        <time>2021-08-10T14:11:44.351Z</time>
      </trkpt>
      <trkpt lat="46.88683" lon="8.55464">
        <ele>1209</ele>
        <time>2021-08-10T14:11:45.352Z</time>
      </trkpt>
      <trkpt lat="46.88682" lon="8.55464">
        <ele>1209</ele>
        <time>2021-08-10T14:11:46.352Z</time>
      </trkpt>
      <trkpt lat="46.88681" lon="8.55463">
        <ele>1209</ele>
        <time>2021-08-10T14:11:47.352Z</time>
      </trkpt>
      <trkpt lat="46.88681" lon="8.55462">
        <ele>1210</ele>
        <time>2021-08-10T14:11:48.352Z</time>
      </trkpt>
      <trkpt lat="46.8868" lon="8.55462">
        <ele>1210</ele>
        <time>2021-08-10T14:11:49.351Z</time>
      </trkpt>
      <trkpt lat="46.8868" lon="8.5546">
        <ele>1209</ele>
        <time>2021-08-10T14:11:50.351Z</time>
      </trkpt>
      <trkpt lat="46.8868" lon="8.55459">
        <ele>1209</ele>
        <time>2021-08-10T14:11:51.352Z</time>
      </trkpt>
      <trkpt lat="46.8868" lon="8.55457">
        <ele>1209</ele>
        <time>2021-08-10T14:11:52.352Z</time>
      </trkpt>
      <trkpt lat="46.8868" lon="8.55456">
        <ele>1209</ele>
        <time>2021-08-10T14:11:53.351Z</time>
      </trkpt>
      <trkpt lat="46.88679" lon="8.55455">
        <ele>1209</ele>
        <time>2021-08-10T14:11:54.351Z</time>
      </trkpt>
      <trkpt lat="46.88679" lon="8.55454">
        <ele>1208</ele>
        <time>2021-08-10T14:11:55.352Z</time>
      </trkpt>
      <trkpt lat="46.88677" lon="8.55454">
        <ele>1208</ele>
        <time>2021-08-10T14:11:56.352Z</time>
      </trkpt>
      <trkpt lat="46.88677" lon="8.55453">
        <ele>1207</ele>
        <time>2021-08-10T14:11:57.352Z</time>
      </trkpt>
      <trkpt lat="46.88676" lon="8.55452">
        <ele>1206</ele>
        <time>2021-08-10T14:11:58.352Z</time>
      </trkpt>
      <trkpt lat="46.88676" lon="8.55451">
        <ele>1206</ele>
        <time>2021-08-10T14:11:59.352Z</time>
      </trkpt>
      <trkpt lat="46.88675" lon="8.55451">
        <ele>1205</ele>
        <time>2021-08-10T14:12:03.474Z</time>
      </trkpt>
      <trkpt lat="46.88675" lon="8.5545">
        <ele>1204</ele>
        <time>2021-08-10T14:12:04.474Z</time>
      </trkpt>
      <trkpt lat="46.88674" lon="8.55448">
        <ele>1204</ele>
        <time>2021-08-10T14:12:06.355Z</time>
      </trkpt>
      <trkpt lat="46.88673" lon="8.55447">
        <ele>1203</ele>
        <time>2021-08-10T14:12:08.065Z</time>
      </trkpt>
      <trkpt lat="46.88673" lon="8.55446">
        <ele>1202</ele>
        <time>2021-08-10T14:12:09.065Z</time>
      </trkpt>
      <trkpt lat="46.88672" lon="8.55445">
        <ele>1202</ele>
        <time>2021-08-10T14:12:10.066Z</time>
      </trkpt>
      <trkpt lat="46.88671" lon="8.55444">
        <ele>1201</ele>
        <time>2021-08-10T14:12:11.066Z</time>
      </trkpt>
      <trkpt lat="46.88671" lon="8.55443">
        <ele>1201</ele>
        <time>2021-08-10T14:12:12.066Z</time>
      </trkpt>
      <trkpt lat="46.88671" lon="8.55443">
        <ele>1200</ele>
        <time>2021-08-10T14:12:13.066Z</time>
      </trkpt>
      <trkpt lat="46.8867" lon="8.55442">
        <ele>1200</ele>
        <time>2021-08-10T14:12:14.066Z</time>
      </trkpt>
      <trkpt lat="46.8867" lon="8.55441">
        <ele>1200</ele>
        <time>2021-08-10T14:12:15.066Z</time>
      </trkpt>
      <trkpt lat="46.8867" lon="8.5544">
        <ele>1199</ele>
        <time>2021-08-10T14:12:16.065Z</time>
      </trkpt>
      <trkpt lat="46.88669" lon="8.55438">
        <ele>1199</ele>
        <time>2021-08-10T14:12:21.082Z</time>
      </trkpt>
      <trkpt lat="46.88669" lon="8.55437">
        <ele>1200</ele>
        <time>2021-08-10T14:12:35.853Z</time>
      </trkpt>
      <trkpt lat="46.88668" lon="8.55436">
        <ele>1200</ele>
        <time>2021-08-10T14:12:36.852Z</time>
      </trkpt>
      <trkpt lat="46.88668" lon="8.55435">
        <ele>1200</ele>
        <time>2021-08-10T14:12:37.853Z</time>
      </trkpt>
      <trkpt lat="46.88668" lon="8.55434">
        <ele>1200</ele>
        <time>2021-08-10T14:12:38.853Z</time>
      </trkpt>
      <trkpt lat="46.88668" lon="8.55433">
        <ele>1199</ele>
        <time>2021-08-10T14:12:39.853Z</time>
      </trkpt>
      <trkpt lat="46.88667" lon="8.55432">
        <ele>1199</ele>
        <time>2021-08-10T14:12:40.853Z</time>
      </trkpt>
      <trkpt lat="46.88666" lon="8.55431">
        <ele>1199</ele>
        <time>2021-08-10T14:12:41.852Z</time>
      </trkpt>
      <trkpt lat="46.88666" lon="8.5543">
        <ele>1199</ele>
        <time>2021-08-10T14:12:42.853Z</time>
      </trkpt>
      <trkpt lat="46.88666" lon="8.55429">
        <ele>1199</ele>
        <time>2021-08-10T14:12:49.000Z</time>
      </trkpt>
      <trkpt lat="46.88666" lon="8.55429">
        <ele>1199</ele>
        <time>2021-08-10T14:12:50.000Z</time>
      </trkpt>
      <trkpt lat="46.88666" lon="8.55428">
        <ele>1200</ele>
        <time>2021-08-10T14:12:51.000Z</time>
      </trkpt>
      <trkpt lat="46.88666" lon="8.55427">
        <ele>1200</ele>
        <time>2021-08-10T14:12:51.999Z</time>
      </trkpt>
      <trkpt lat="46.88667" lon="8.55426">
        <ele>1201</ele>
        <time>2021-08-10T14:12:52.999Z</time>
      </trkpt>
      <trkpt lat="46.88667" lon="8.55424">
        <ele>1201</ele>
        <time>2021-08-10T14:12:54.000Z</time>
      </trkpt>
      <trkpt lat="46.88667" lon="8.55423">
        <ele>1202</ele>
        <time>2021-08-10T14:12:54.999Z</time>
      </trkpt>
      <trkpt lat="46.88668" lon="8.55422">
        <ele>1202</ele>
        <time>2021-08-10T14:12:56.000Z</time>
      </trkpt>
      <trkpt lat="46.88667" lon="8.55422">
        <ele>1203</ele>
        <time>2021-08-10T14:12:57.000Z</time>
      </trkpt>
      <trkpt lat="46.88667" lon="8.55421">
        <ele>1203</ele>
        <time>2021-08-10T14:12:58.000Z</time>
      </trkpt>
      <trkpt lat="46.88666" lon="8.55421">
        <ele>1203</ele>
        <time>2021-08-10T14:12:59.000Z</time>
      </trkpt>
      <trkpt lat="46.88665" lon="8.5542">
        <ele>1203</ele>
        <time>2021-08-10T14:12:59.999Z</time>
      </trkpt>
      <trkpt lat="46.88664" lon="8.55419">
        <ele>1203</ele>
        <time>2021-08-10T14:13:01.000Z</time>
      </trkpt>
      <trkpt lat="46.88663" lon="8.55419">
        <ele>1203</ele>
        <time>2021-08-10T14:13:02.000Z</time>
      </trkpt>
      <trkpt lat="46.88662" lon="8.55418">
        <ele>1202</ele>
        <time>2021-08-10T14:13:03.000Z</time>
      </trkpt>
      <trkpt lat="46.88661" lon="8.55417">
        <ele>1202</ele>
        <time>2021-08-10T14:13:04.000Z</time>
      </trkpt>
      <trkpt lat="46.88661" lon="8.55416">
        <ele>1202</ele>
        <time>2021-08-10T14:13:05.000Z</time>
      </trkpt>
      <trkpt lat="46.8866" lon="8.55415">
        <ele>1202</ele>
        <time>2021-08-10T14:13:06.000Z</time>
      </trkpt>
      <trkpt lat="46.88659" lon="8.55414">
        <ele>1202</ele>
        <time>2021-08-10T14:13:07.000Z</time>
      </trkpt>
      <trkpt lat="46.88659" lon="8.55413">
        <ele>1202</ele>
        <time>2021-08-10T14:13:08.000Z</time>
      </trkpt>
      <trkpt lat="46.88658" lon="8.55412">
        <ele>1201</ele>
        <time>2021-08-10T14:13:09.000Z</time>
      </trkpt>
      <trkpt lat="46.88658" lon="8.55412">
        <ele>1201</ele>
        <time>2021-08-10T14:13:09.999Z</time>
      </trkpt>
      <trkpt lat="46.88657" lon="8.55411">
        <ele>1201</ele>
        <time>2021-08-10T14:13:10.999Z</time>
      </trkpt>
      <trkpt lat="46.88656" lon="8.55411">
        <ele>1201</ele>
        <time>2021-08-10T14:13:11.999Z</time>
      </trkpt>
      <trkpt lat="46.88656" lon="8.5541">
        <ele>1201</ele>
        <time>2021-08-10T14:13:12.999Z</time>
      </trkpt>
      <trkpt lat="46.88655" lon="8.55409">
        <ele>1200</ele>
        <time>2021-08-10T14:13:14.000Z</time>
      </trkpt>
      <trkpt lat="46.88654" lon="8.55408">
        <ele>1200</ele>
        <time>2021-08-10T14:13:15.000Z</time>
      </trkpt>
      <trkpt lat="46.88654" lon="8.55406">
        <ele>1200</ele>
        <time>2021-08-10T14:13:16.000Z</time>
      </trkpt>
      <trkpt lat="46.88653" lon="8.55405">
        <ele>1200</ele>
        <time>2021-08-10T14:13:17.000Z</time>
      </trkpt>
      <trkpt lat="46.88653" lon="8.55404">
        <ele>1201</ele>
        <time>2021-08-10T14:13:18.000Z</time>
      </trkpt>
      <trkpt lat="46.88652" lon="8.55403">
        <ele>1201</ele>
        <time>2021-08-10T14:13:18.999Z</time>
      </trkpt>
      <trkpt lat="46.88652" lon="8.55402">
        <ele>1202</ele>
        <time>2021-08-10T14:13:19.999Z</time>
      </trkpt>
      <trkpt lat="46.88651" lon="8.55401">
        <ele>1203</ele>
        <time>2021-08-10T14:13:21.000Z</time>
      </trkpt>
      <trkpt lat="46.8865" lon="8.55401">
        <ele>1203</ele>
        <time>2021-08-10T14:13:22.000Z</time>
      </trkpt>
      <trkpt lat="46.8865" lon="8.554">
        <ele>1204</ele>
        <time>2021-08-10T14:13:23.000Z</time>
      </trkpt>
      <trkpt lat="46.88649" lon="8.55399">
        <ele>1205</ele>
        <time>2021-08-10T14:13:24.000Z</time>
      </trkpt>
      <trkpt lat="46.88648" lon="8.55399">
        <ele>1206</ele>
        <time>2021-08-10T14:13:25.000Z</time>
      </trkpt>
      <trkpt lat="46.88648" lon="8.55398">
        <ele>1207</ele>
        <time>2021-08-10T14:13:25.999Z</time>
      </trkpt>
      <trkpt lat="46.88648" lon="8.55398">
        <ele>1208</ele>
        <time>2021-08-10T14:13:27.000Z</time>
      </trkpt>
      <trkpt lat="46.88648" lon="8.55397">
        <ele>1208</ele>
        <time>2021-08-10T14:13:27.999Z</time>
      </trkpt>
      <trkpt lat="46.88647" lon="8.55396">
        <ele>1209</ele>
        <time>2021-08-10T14:13:29.000Z</time>
      </trkpt>
      <trkpt lat="46.88646" lon="8.55396">
        <ele>1209</ele>
        <time>2021-08-10T14:13:30.000Z</time>
      </trkpt>
      <trkpt lat="46.88645" lon="8.55396">
        <ele>1210</ele>
        <time>2021-08-10T14:13:30.999Z</time>
      </trkpt>
      <trkpt lat="46.88644" lon="8.55396">
        <ele>1210</ele>
        <time>2021-08-10T14:13:32.000Z</time>
      </trkpt>
      <trkpt lat="46.88644" lon="8.55394">
        <ele>1211</ele>
        <time>2021-08-10T14:13:33.000Z</time>
      </trkpt>
      <trkpt lat="46.88643" lon="8.55393">
        <ele>1211</ele>
        <time>2021-08-10T14:13:34.000Z</time>
      </trkpt>
      <trkpt lat="46.88643" lon="8.55393">
        <ele>1211</ele>
        <time>2021-08-10T14:13:35.000Z</time>
      </trkpt>
      <trkpt lat="46.88642" lon="8.55392">
        <ele>1212</ele>
        <time>2021-08-10T14:13:36.000Z</time>
      </trkpt>
      <trkpt lat="46.88641" lon="8.55392">
        <ele>1212</ele>
        <time>2021-08-10T14:13:36.999Z</time>
      </trkpt>
      <trkpt lat="46.88641" lon="8.55391">
        <ele>1212</ele>
        <time>2021-08-10T14:13:38.000Z</time>
      </trkpt>
      <trkpt lat="46.88641" lon="8.5539">
        <ele>1212</ele>
        <time>2021-08-10T14:13:39.000Z</time>
      </trkpt>
      <trkpt lat="46.8864" lon="8.55389">
        <ele>1212</ele>
        <time>2021-08-10T14:13:39.999Z</time>
      </trkpt>
      <trkpt lat="46.8864" lon="8.55388">
        <ele>1212</ele>
        <time>2021-08-10T14:13:41.000Z</time>
      </trkpt>
      <trkpt lat="46.8864" lon="8.55387">
        <ele>1211</ele>
        <time>2021-08-10T14:13:42.000Z</time>
      </trkpt>
      <trkpt lat="46.88639" lon="8.55386">
        <ele>1211</ele>
        <time>2021-08-10T14:13:43.000Z</time>
      </trkpt>
      <trkpt lat="46.88638" lon="8.55385">
        <ele>1211</ele>
        <time>2021-08-10T14:13:44.000Z</time>
      </trkpt>
      <trkpt lat="46.88638" lon="8.55384">
        <ele>1210</ele>
        <time>2021-08-10T14:13:44.999Z</time>
      </trkpt>
      <trkpt lat="46.88638" lon="8.55382">
        <ele>1210</ele>
        <time>2021-08-10T14:13:46.000Z</time>
      </trkpt>
      <trkpt lat="46.88637" lon="8.55381">
        <ele>1209</ele>
        <time>2021-08-10T14:13:46.999Z</time>
      </trkpt>
      <trkpt lat="46.88637" lon="8.55379">
        <ele>1209</ele>
        <time>2021-08-10T14:13:47.999Z</time>
      </trkpt>
      <trkpt lat="46.88636" lon="8.55379">
        <ele>1209</ele>
        <time>2021-08-10T14:13:49.000Z</time>
      </trkpt>
      <trkpt lat="46.88636" lon="8.55378">
        <ele>1208</ele>
        <time>2021-08-10T14:13:49.999Z</time>
      </trkpt>
      <trkpt lat="46.88635" lon="8.55377">
        <ele>1208</ele>
        <time>2021-08-10T14:13:51.000Z</time>
      </trkpt>
      <trkpt lat="46.88635" lon="8.55376">
        <ele>1208</ele>
        <time>2021-08-10T14:13:52.000Z</time>
      </trkpt>
      <trkpt lat="46.88634" lon="8.55374">
        <ele>1208</ele>
        <time>2021-08-10T14:13:52.999Z</time>
      </trkpt>
      <trkpt lat="46.88633" lon="8.55373">
        <ele>1208</ele>
        <time>2021-08-10T14:13:53.999Z</time>
      </trkpt>
      <trkpt lat="46.88632" lon="8.55373">
        <ele>1207</ele>
        <time>2021-08-10T14:13:54.999Z</time>
      </trkpt>
      <trkpt lat="46.88631" lon="8.55372">
        <ele>1207</ele>
        <time>2021-08-10T14:13:56.000Z</time>
      </trkpt>
      <trkpt lat="46.88631" lon="8.55372">
        <ele>1207</ele>
        <time>2021-08-10T14:13:57.000Z</time>
      </trkpt>
      <trkpt lat="46.88631" lon="8.55371">
        <ele>1207</ele>
        <time>2021-08-10T14:14:01.151Z</time>
      </trkpt>
      <trkpt lat="46.88631" lon="8.55371">
        <ele>1207</ele>
        <time>2021-08-10T14:14:02.152Z</time>
      </trkpt>
      <trkpt lat="46.8863" lon="8.55371">
        <ele>1208</ele>
        <time>2021-08-10T14:14:03.152Z</time>
      </trkpt>
      <trkpt lat="46.88629" lon="8.5537">
        <ele>1208</ele>
        <time>2021-08-10T14:14:04.152Z</time>
      </trkpt>
      <trkpt lat="46.88629" lon="8.5537">
        <ele>1208</ele>
        <time>2021-08-10T14:14:05.152Z</time>
      </trkpt>
      <trkpt lat="46.88629" lon="8.55368">
        <ele>1207</ele>
        <time>2021-08-10T14:14:09.233Z</time>
      </trkpt>
      <trkpt lat="46.88629" lon="8.55367">
        <ele>1207</ele>
        <time>2021-08-10T14:14:10.233Z</time>
      </trkpt>
      <trkpt lat="46.88629" lon="8.55366">
        <ele>1207</ele>
        <time>2021-08-10T14:14:14.000Z</time>
      </trkpt>
      <trkpt lat="46.88628" lon="8.55365">
        <ele>1208</ele>
        <time>2021-08-10T14:14:14.999Z</time>
      </trkpt>
      <trkpt lat="46.88628" lon="8.55363">
        <ele>1208</ele>
        <time>2021-08-10T14:14:16.000Z</time>
      </trkpt>
      <trkpt lat="46.88628" lon="8.55363">
        <ele>1208</ele>
        <time>2021-08-10T14:14:16.999Z</time>
      </trkpt>
      <trkpt lat="46.88627" lon="8.55362">
        <ele>1209</ele>
        <time>2021-08-10T14:14:18.000Z</time>
      </trkpt>
      <trkpt lat="46.88626" lon="8.55361">
        <ele>1209</ele>
        <time>2021-08-10T14:14:18.999Z</time>
      </trkpt>
      <trkpt lat="46.88626" lon="8.55361">
        <ele>1210</ele>
        <time>2021-08-10T14:14:19.999Z</time>
      </trkpt>
      <trkpt lat="46.88626" lon="8.5536">
        <ele>1210</ele>
        <time>2021-08-10T14:14:20.999Z</time>
      </trkpt>
      <trkpt lat="46.88625" lon="8.55359">
        <ele>1210</ele>
        <time>2021-08-10T14:14:22.000Z</time>
      </trkpt>
      <trkpt lat="46.88625" lon="8.55359">
        <ele>1210</ele>
        <time>2021-08-10T14:14:23.000Z</time>
      </trkpt>
      <trkpt lat="46.88624" lon="8.55358">
        <ele>1210</ele>
        <time>2021-08-10T14:14:23.999Z</time>
      </trkpt>
      <trkpt lat="46.88623" lon="8.55358">
        <ele>1210</ele>
        <time>2021-08-10T14:14:25.000Z</time>
      </trkpt>
      <trkpt lat="46.88623" lon="8.55358">
        <ele>1211</ele>
        <time>2021-08-10T14:14:26.000Z</time>
      </trkpt>
      <trkpt lat="46.88622" lon="8.55357">
        <ele>1211</ele>
        <time>2021-08-10T14:14:27.000Z</time>
      </trkpt>
      <trkpt lat="46.88621" lon="8.55357">
        <ele>1211</ele>
        <time>2021-08-10T14:14:27.999Z</time>
      </trkpt>
      <trkpt lat="46.88621" lon="8.55356">
        <ele>1211</ele>
        <time>2021-08-10T14:14:29.000Z</time>
      </trkpt>
      <trkpt lat="46.8862" lon="8.55356">
        <ele>1212</ele>
        <time>2021-08-10T14:14:30.000Z</time>
      </trkpt>
      <trkpt lat="46.8862" lon="8.55355">
        <ele>1212</ele>
        <time>2021-08-10T14:14:30.999Z</time>
      </trkpt>
      <trkpt lat="46.8862" lon="8.55354">
        <ele>1212</ele>
        <time>2021-08-10T14:14:32.000Z</time>
      </trkpt>
      <trkpt lat="46.8862" lon="8.55352">
        <ele>1212</ele>
        <time>2021-08-10T14:14:32.999Z</time>
      </trkpt>
      <trkpt lat="46.88619" lon="8.55351">
        <ele>1213</ele>
        <time>2021-08-10T14:14:34.000Z</time>
      </trkpt>
      <trkpt lat="46.88619" lon="8.5535">
        <ele>1213</ele>
        <time>2021-08-10T14:14:46.107Z</time>
      </trkpt>
      <trkpt lat="46.88619" lon="8.55349">
        <ele>1214</ele>
        <time>2021-08-10T14:14:47.107Z</time>
      </trkpt>
      <trkpt lat="46.88618" lon="8.55348">
        <ele>1215</ele>
        <time>2021-08-10T14:14:48.107Z</time>
      </trkpt>
      <trkpt lat="46.88618" lon="8.55347">
        <ele>1216</ele>
        <time>2021-08-10T14:14:50.214Z</time>
      </trkpt>
      <trkpt lat="46.88618" lon="8.55346">
        <ele>1217</ele>
        <time>2021-08-10T14:14:51.213Z</time>
      </trkpt>
      <trkpt lat="46.88617" lon="8.55345">
        <ele>1217</ele>
        <time>2021-08-10T14:14:52.214Z</time>
      </trkpt>
      <trkpt lat="46.88617" lon="8.55344">
        <ele>1218</ele>
        <time>2021-08-10T14:14:53.213Z</time>
      </trkpt>
      <trkpt lat="46.88617" lon="8.55343">
        <ele>1218</ele>
        <time>2021-08-10T14:14:54.213Z</time>
      </trkpt>
      <trkpt lat="46.88617" lon="8.55342">
        <ele>1219</ele>
        <time>2021-08-10T14:14:58.224Z</time>
      </trkpt>
      <trkpt lat="46.88617" lon="8.55342">
        <ele>1219</ele>
        <time>2021-08-10T14:14:59.223Z</time>
      </trkpt>
      <trkpt lat="46.88617" lon="8.55341">
        <ele>1220</ele>
        <time>2021-08-10T14:15:00.224Z</time>
      </trkpt>
      <trkpt lat="46.88616" lon="8.55341">
        <ele>1220</ele>
        <time>2021-08-10T14:15:03.326Z</time>
      </trkpt>
      <trkpt lat="46.88615" lon="8.55341">
        <ele>1220</ele>
        <time>2021-08-10T14:15:04.326Z</time>
      </trkpt>
      <trkpt lat="46.88614" lon="8.5534">
        <ele>1220</ele>
        <time>2021-08-10T14:15:05.325Z</time>
      </trkpt>
      <trkpt lat="46.88614" lon="8.55339">
        <ele>1220</ele>
        <time>2021-08-10T14:15:06.326Z</time>
      </trkpt>
      <trkpt lat="46.88614" lon="8.55338">
        <ele>1220</ele>
        <time>2021-08-10T14:15:07.325Z</time>
      </trkpt>
      <trkpt lat="46.88613" lon="8.55336">
        <ele>1220</ele>
        <time>2021-08-10T14:15:08.325Z</time>
      </trkpt>
      <trkpt lat="46.88613" lon="8.55335">
        <ele>1220</ele>
        <time>2021-08-10T14:15:09.326Z</time>
      </trkpt>
      <trkpt lat="46.88612" lon="8.55334">
        <ele>1220</ele>
        <time>2021-08-10T14:15:10.326Z</time>
      </trkpt>
      <trkpt lat="46.88612" lon="8.55333">
        <ele>1221</ele>
        <time>2021-08-10T14:15:11.326Z</time>
      </trkpt>
      <trkpt lat="46.88611" lon="8.55331">
        <ele>1221</ele>
        <time>2021-08-10T14:15:12.326Z</time>
      </trkpt>
      <trkpt lat="46.8861" lon="8.5533">
        <ele>1221</ele>
        <time>2021-08-10T14:15:13.326Z</time>
      </trkpt>
      <trkpt lat="46.88609" lon="8.5533">
        <ele>1221</ele>
        <time>2021-08-10T14:15:14.325Z</time>
      </trkpt>
      <trkpt lat="46.88608" lon="8.55329">
        <ele>1222</ele>
        <time>2021-08-10T14:15:15.326Z</time>
      </trkpt>
      <trkpt lat="46.88607" lon="8.5533">
        <ele>1223</ele>
        <time>2021-08-10T14:15:16.325Z</time>
      </trkpt>
      <trkpt lat="46.88607" lon="8.5533">
        <ele>1223</ele>
        <time>2021-08-10T14:15:17.326Z</time>
      </trkpt>
      <trkpt lat="46.88606" lon="8.5533">
        <ele>1223</ele>
        <time>2021-08-10T14:15:18.326Z</time>
      </trkpt>
      <trkpt lat="46.88607" lon="8.55331">
        <ele>1224</ele>
        <time>2021-08-10T14:15:19.325Z</time>
      </trkpt>
      <trkpt lat="46.88605" lon="8.55332">
        <ele>1220</ele>
        <time>2021-08-10T14:15:20.325Z</time>
      </trkpt>
      <trkpt lat="46.88606" lon="8.55329">
        <ele>1217</ele>
        <time>2021-08-10T14:15:21.326Z</time>
      </trkpt>
      <trkpt lat="46.88601" lon="8.5533">
        <ele>1223</ele>
        <time>2021-08-10T14:15:22.326Z</time>
      </trkpt>
      <trkpt lat="46.886" lon="8.55335">
        <ele>1220</ele>
        <time>2021-08-10T14:15:23.327Z</time>
      </trkpt>
      <trkpt lat="46.886" lon="8.55334">
        <ele>1220</ele>
        <time>2021-08-10T14:15:24.327Z</time>
      </trkpt>
      <trkpt lat="46.886" lon="8.55329">
        <ele>1220</ele>
        <time>2021-08-10T14:15:25.327Z</time>
      </trkpt>
      <trkpt lat="46.886" lon="8.55328">
        <ele>1220</ele>
        <time>2021-08-10T14:15:26.327Z</time>
      </trkpt>
      <trkpt lat="46.88599" lon="8.55328">
        <ele>1220</ele>
        <time>2021-08-10T14:15:27.328Z</time>
      </trkpt>
      <trkpt lat="46.88596" lon="8.55333">
        <ele>1211</ele>
        <time>2021-08-10T14:15:28.329Z</time>
      </trkpt>
      <trkpt lat="46.88599" lon="8.55335">
        <ele>1213</ele>
        <time>2021-08-10T14:15:29.329Z</time>
      </trkpt>
      <trkpt lat="46.88599" lon="8.55334">
        <ele>1213</ele>
        <time>2021-08-10T14:15:30.328Z</time>
      </trkpt>
      <trkpt lat="46.88596" lon="8.5534">
        <ele>1218</ele>
        <time>2021-08-10T14:15:31.330Z</time>
      </trkpt>
      <trkpt lat="46.88596" lon="8.5534">
        <ele>1218</ele>
        <time>2021-08-10T14:15:32.329Z</time>
      </trkpt>
      <trkpt lat="46.88596" lon="8.55338">
        <ele>1215</ele>
        <time>2021-08-10T14:15:33.329Z</time>
      </trkpt>
      <trkpt lat="46.88596" lon="8.55338">
        <ele>1215</ele>
        <time>2021-08-10T14:15:34.329Z</time>
      </trkpt>
      <trkpt lat="46.88595" lon="8.55339">
        <ele>1214</ele>
        <time>2021-08-10T14:15:35.329Z</time>
      </trkpt>
      <trkpt lat="46.88595" lon="8.55339">
        <ele>1214</ele>
        <time>2021-08-10T14:15:36.329Z</time>
      </trkpt>
      <trkpt lat="46.88597" lon="8.55332">
        <ele>1220</ele>
        <time>2021-08-10T14:15:37.329Z</time>
      </trkpt>
      <trkpt lat="46.88597" lon="8.55331">
        <ele>1221</ele>
        <time>2021-08-10T14:15:38.330Z</time>
      </trkpt>
      <trkpt lat="46.88597" lon="8.55331">
        <ele>1221</ele>
        <time>2021-08-10T14:15:39.330Z</time>
      </trkpt>
      <trkpt lat="46.88597" lon="8.55331">
        <ele>1221</ele>
        <time>2021-08-10T14:15:40.330Z</time>
      </trkpt>
      <trkpt lat="46.88597" lon="8.5533">
        <ele>1221</ele>
        <time>2021-08-10T14:15:41.329Z</time>
      </trkpt>
      <trkpt lat="46.88597" lon="8.55329">
        <ele>1221</ele>
        <time>2021-08-10T14:15:42.329Z</time>
      </trkpt>
      <trkpt lat="46.88597" lon="8.55327">
        <ele>1221</ele>
        <time>2021-08-10T14:15:43.329Z</time>
      </trkpt>
      <trkpt lat="46.88597" lon="8.55326">
        <ele>1221</ele>
        <time>2021-08-10T14:15:44.329Z</time>
      </trkpt>
      <trkpt lat="46.88597" lon="8.55325">
        <ele>1222</ele>
        <time>2021-08-10T14:15:45.330Z</time>
      </trkpt>
      <trkpt lat="46.88598" lon="8.55325">
        <ele>1222</ele>
        <time>2021-08-10T14:15:46.329Z</time>
      </trkpt>
      <trkpt lat="46.88597" lon="8.55324">
        <ele>1223</ele>
        <time>2021-08-10T14:15:47.329Z</time>
      </trkpt>
      <trkpt lat="46.88597" lon="8.55322">
        <ele>1223</ele>
        <time>2021-08-10T14:15:48.329Z</time>
      </trkpt>
      <trkpt lat="46.88596" lon="8.55321">
        <ele>1224</ele>
        <time>2021-08-10T14:15:49.329Z</time>
      </trkpt>
      <trkpt lat="46.88596" lon="8.5532">
        <ele>1224</ele>
        <time>2021-08-10T14:15:50.329Z</time>
      </trkpt>
      <trkpt lat="46.88596" lon="8.55319">
        <ele>1225</ele>
        <time>2021-08-10T14:15:51.329Z</time>
      </trkpt>
      <trkpt lat="46.88596" lon="8.55319">
        <ele>1225</ele>
        <time>2021-08-10T14:15:52.329Z</time>
      </trkpt>
      <trkpt lat="46.88596" lon="8.55319">
        <ele>1226</ele>
        <time>2021-08-10T14:15:53.329Z</time>
      </trkpt>
      <trkpt lat="46.88595" lon="8.55319">
        <ele>1226</ele>
        <time>2021-08-10T14:15:54.329Z</time>
      </trkpt>
      <trkpt lat="46.88595" lon="8.5532">
        <ele>1226</ele>
        <time>2021-08-10T14:15:55.329Z</time>
      </trkpt>
      <trkpt lat="46.88594" lon="8.55321">
        <ele>1226</ele>
        <time>2021-08-10T14:15:56.330Z</time>
      </trkpt>
      <trkpt lat="46.88594" lon="8.55321">
        <ele>1226</ele>
        <time>2021-08-10T14:15:57.329Z</time>
      </trkpt>
      <trkpt lat="46.88594" lon="8.55321">
        <ele>1226</ele>
        <time>2021-08-10T14:15:58.330Z</time>
      </trkpt>
      <trkpt lat="46.88594" lon="8.55321">
        <ele>1227</ele>
        <time>2021-08-10T14:15:59.329Z</time>
      </trkpt>
      <trkpt lat="46.8859" lon="8.55324">
        <ele>1227</ele>
        <time>2021-08-10T14:16:00.330Z</time>
      </trkpt>
      <trkpt lat="46.88589" lon="8.55324">
        <ele>1227</ele>
        <time>2021-08-10T14:16:01.329Z</time>
      </trkpt>
      <trkpt lat="46.88589" lon="8.55324">
        <ele>1228</ele>
        <time>2021-08-10T14:16:02.330Z</time>
      </trkpt>
      <trkpt lat="46.88588" lon="8.55324">
        <ele>1228</ele>
        <time>2021-08-10T14:16:03.330Z</time>
      </trkpt>
      <trkpt lat="46.88588" lon="8.55324">
        <ele>1228</ele>
        <time>2021-08-10T14:16:04.330Z</time>
      </trkpt>
      <trkpt lat="46.88588" lon="8.55324">
        <ele>1228</ele>
        <time>2021-08-10T14:16:05.330Z</time>
      </trkpt>
      <trkpt lat="46.88587" lon="8.55323">
        <ele>1228</ele>
        <time>2021-08-10T14:16:06.330Z</time>
      </trkpt>
      <trkpt lat="46.88587" lon="8.55323">
        <ele>1229</ele>
        <time>2021-08-10T14:16:07.329Z</time>
      </trkpt>
      <trkpt lat="46.88587" lon="8.55323">
        <ele>1229</ele>
        <time>2021-08-10T14:16:08.329Z</time>
      </trkpt>
      <trkpt lat="46.88586" lon="8.55323">
        <ele>1231</ele>
        <time>2021-08-10T14:16:09.332Z</time>
      </trkpt>
      <trkpt lat="46.88585" lon="8.55324">
        <ele>1231</ele>
        <time>2021-08-10T14:16:10.332Z</time>
      </trkpt>
      <trkpt lat="46.88585" lon="8.55324">
        <ele>1231</ele>
        <time>2021-08-10T14:16:11.331Z</time>
      </trkpt>
      <trkpt lat="46.88584" lon="8.55324">
        <ele>1231</ele>
        <time>2021-08-10T14:16:12.332Z</time>
      </trkpt>
      <trkpt lat="46.88583" lon="8.55325">
        <ele>1230</ele>
        <time>2021-08-10T14:16:13.332Z</time>
      </trkpt>
      <trkpt lat="46.88583" lon="8.55325">
        <ele>1230</ele>
        <time>2021-08-10T14:16:14.331Z</time>
      </trkpt>
      <trkpt lat="46.88583" lon="8.55324">
        <ele>1230</ele>
        <time>2021-08-10T14:16:15.332Z</time>
      </trkpt>
      <trkpt lat="46.88582" lon="8.55321">
        <ele>1224</ele>
        <time>2021-08-10T14:16:16.332Z</time>
      </trkpt>
      <trkpt lat="46.88582" lon="8.55321">
        <ele>1224</ele>
        <time>2021-08-10T14:16:17.332Z</time>
      </trkpt>
      <trkpt lat="46.88582" lon="8.5532">
        <ele>1224</ele>
        <time>2021-08-10T14:16:18.332Z</time>
      </trkpt>
      <trkpt lat="46.88586" lon="8.55323">
        <ele>1227</ele>
        <time>2021-08-10T14:16:19.334Z</time>
      </trkpt>
      <trkpt lat="46.88586" lon="8.55323">
        <ele>1227</ele>
        <time>2021-08-10T14:16:20.334Z</time>
      </trkpt>
      <trkpt lat="46.88585" lon="8.55323">
        <ele>1228</ele>
        <time>2021-08-10T14:16:21.333Z</time>
      </trkpt>
      <trkpt lat="46.88584" lon="8.55323">
        <ele>1228</ele>
        <time>2021-08-10T14:16:22.334Z</time>
      </trkpt>
      <trkpt lat="46.88584" lon="8.55322">
        <ele>1229</ele>
        <time>2021-08-10T14:16:23.333Z</time>
      </trkpt>
      <trkpt lat="46.88583" lon="8.55323">
        <ele>1229</ele>
        <time>2021-08-10T14:16:24.334Z</time>
      </trkpt>
      <trkpt lat="46.88582" lon="8.55323">
        <ele>1229</ele>
        <time>2021-08-10T14:16:25.334Z</time>
      </trkpt>
      <trkpt lat="46.88581" lon="8.55324">
        <ele>1229</ele>
        <time>2021-08-10T14:16:26.334Z</time>
      </trkpt>
      <trkpt lat="46.88581" lon="8.55324">
        <ele>1229</ele>
        <time>2021-08-10T14:16:27.334Z</time>
      </trkpt>
      <trkpt lat="46.88581" lon="8.55323">
        <ele>1230</ele>
        <time>2021-08-10T14:16:28.334Z</time>
      </trkpt>
      <trkpt lat="46.88581" lon="8.55322">
        <ele>1230</ele>
        <time>2021-08-10T14:16:29.333Z</time>
      </trkpt>
      <trkpt lat="46.8858" lon="8.55321">
        <ele>1230</ele>
        <time>2021-08-10T14:16:30.334Z</time>
      </trkpt>
      <trkpt lat="46.88579" lon="8.55321">
        <ele>1230</ele>
        <time>2021-08-10T14:16:31.334Z</time>
      </trkpt>
      <trkpt lat="46.88578" lon="8.55321">
        <ele>1230</ele>
        <time>2021-08-10T14:16:32.334Z</time>
      </trkpt>
      <trkpt lat="46.88577" lon="8.55322">
        <ele>1230</ele>
        <time>2021-08-10T14:16:33.334Z</time>
      </trkpt>
      <trkpt lat="46.88577" lon="8.55322">
        <ele>1230</ele>
        <time>2021-08-10T14:16:34.334Z</time>
      </trkpt>
      <trkpt lat="46.88576" lon="8.55322">
        <ele>1230</ele>
        <time>2021-08-10T14:16:35.334Z</time>
      </trkpt>
      <trkpt lat="46.88576" lon="8.55321">
        <ele>1230</ele>
        <time>2021-08-10T14:16:36.333Z</time>
      </trkpt>
      <trkpt lat="46.88576" lon="8.55321">
        <ele>1230</ele>
        <time>2021-08-10T14:16:37.334Z</time>
      </trkpt>
      <trkpt lat="46.88576" lon="8.5532">
        <ele>1230</ele>
        <time>2021-08-10T14:16:38.333Z</time>
      </trkpt>
      <trkpt lat="46.88575" lon="8.5532">
        <ele>1231</ele>
        <time>2021-08-10T14:16:39.334Z</time>
      </trkpt>
      <trkpt lat="46.88574" lon="8.5532">
        <ele>1231</ele>
        <time>2021-08-10T14:16:40.333Z</time>
      </trkpt>
      <trkpt lat="46.88574" lon="8.5532">
        <ele>1232</ele>
        <time>2021-08-10T14:16:41.334Z</time>
      </trkpt>
      <trkpt lat="46.88573" lon="8.55319">
        <ele>1232</ele>
        <time>2021-08-10T14:16:42.334Z</time>
      </trkpt>
      <trkpt lat="46.88573" lon="8.55319">
        <ele>1232</ele>
        <time>2021-08-10T14:16:43.333Z</time>
      </trkpt>
      <trkpt lat="46.88572" lon="8.55319">
        <ele>1232</ele>
        <time>2021-08-10T14:16:44.333Z</time>
      </trkpt>
      <trkpt lat="46.88572" lon="8.55318">
        <ele>1232</ele>
        <time>2021-08-10T14:16:45.333Z</time>
      </trkpt>
      <trkpt lat="46.88572" lon="8.55318">
        <ele>1233</ele>
        <time>2021-08-10T14:16:46.333Z</time>
      </trkpt>
      <trkpt lat="46.88571" lon="8.55318">
        <ele>1233</ele>
        <time>2021-08-10T14:16:47.334Z</time>
      </trkpt>
      <trkpt lat="46.88571" lon="8.55318">
        <ele>1234</ele>
        <time>2021-08-10T14:16:48.334Z</time>
      </trkpt>
      <trkpt lat="46.8857" lon="8.55318">
        <ele>1234</ele>
        <time>2021-08-10T14:16:49.333Z</time>
      </trkpt>
      <trkpt lat="46.88569" lon="8.55318">
        <ele>1234</ele>
        <time>2021-08-10T14:16:50.333Z</time>
      </trkpt>
      <trkpt lat="46.88569" lon="8.55317">
        <ele>1234</ele>
        <time>2021-08-10T14:16:51.333Z</time>
      </trkpt>
      <trkpt lat="46.88571" lon="8.55316">
        <ele>1235</ele>
        <time>2021-08-10T14:16:52.334Z</time>
      </trkpt>
      <trkpt lat="46.88571" lon="8.55317">
        <ele>1235</ele>
        <time>2021-08-10T14:16:53.334Z</time>
      </trkpt>
      <trkpt lat="46.88571" lon="8.55317">
        <ele>1235</ele>
        <time>2021-08-10T14:16:54.334Z</time>
      </trkpt>
      <trkpt lat="46.88571" lon="8.55316">
        <ele>1235</ele>
        <time>2021-08-10T14:16:55.334Z</time>
      </trkpt>
      <trkpt lat="46.88572" lon="8.55316">
        <ele>1235</ele>
        <time>2021-08-10T14:16:56.334Z</time>
      </trkpt>
      <trkpt lat="46.88572" lon="8.55316">
        <ele>1235</ele>
        <time>2021-08-10T14:16:57.334Z</time>
      </trkpt>
      <trkpt lat="46.88573" lon="8.55316">
        <ele>1235</ele>
        <time>2021-08-10T14:16:58.334Z</time>
      </trkpt>
      <trkpt lat="46.88573" lon="8.55316">
        <ele>1236</ele>
        <time>2021-08-10T14:16:59.334Z</time>
      </trkpt>
      <trkpt lat="46.88573" lon="8.55315">
        <ele>1236</ele>
        <time>2021-08-10T14:17:00.334Z</time>
      </trkpt>
      <trkpt lat="46.88572" lon="8.55315">
        <ele>1237</ele>
        <time>2021-08-10T14:17:01.334Z</time>
      </trkpt>
      <trkpt lat="46.88574" lon="8.55315">
        <ele>1238</ele>
        <time>2021-08-10T14:17:02.334Z</time>
      </trkpt>
      <trkpt lat="46.88578" lon="8.55316">
        <ele>1237</ele>
        <time>2021-08-10T14:17:03.335Z</time>
      </trkpt>
      <trkpt lat="46.88577" lon="8.55316">
        <ele>1237</ele>
        <time>2021-08-10T14:17:06.339Z</time>
      </trkpt>
      <trkpt lat="46.88577" lon="8.55316">
        <ele>1237</ele>
        <time>2021-08-10T14:17:07.338Z</time>
      </trkpt>
      <trkpt lat="46.88578" lon="8.55316">
        <ele>1236</ele>
        <time>2021-08-10T14:17:08.339Z</time>
      </trkpt>
      <trkpt lat="46.88578" lon="8.55315">
        <ele>1236</ele>
        <time>2021-08-10T14:17:09.338Z</time>
      </trkpt>
      <trkpt lat="46.88578" lon="8.55314">
        <ele>1236</ele>
        <time>2021-08-10T14:17:10.339Z</time>
      </trkpt>
      <trkpt lat="46.88577" lon="8.55313">
        <ele>1236</ele>
        <time>2021-08-10T14:17:11.339Z</time>
      </trkpt>
      <trkpt lat="46.88577" lon="8.55312">
        <ele>1236</ele>
        <time>2021-08-10T14:17:12.339Z</time>
      </trkpt>
      <trkpt lat="46.88577" lon="8.55312">
        <ele>1236</ele>
        <time>2021-08-10T14:17:13.339Z</time>
      </trkpt>
      <trkpt lat="46.88577" lon="8.55311">
        <ele>1236</ele>
        <time>2021-08-10T14:17:14.339Z</time>
      </trkpt>
      <trkpt lat="46.88578" lon="8.5531">
        <ele>1236</ele>
        <time>2021-08-10T14:17:15.339Z</time>
      </trkpt>
      <trkpt lat="46.88578" lon="8.55309">
        <ele>1236</ele>
        <time>2021-08-10T14:17:16.339Z</time>
      </trkpt>
      <trkpt lat="46.88577" lon="8.55309">
        <ele>1236</ele>
        <time>2021-08-10T14:17:17.339Z</time>
      </trkpt>
      <trkpt lat="46.88577" lon="8.55308">
        <ele>1235</ele>
        <time>2021-08-10T14:17:18.339Z</time>
      </trkpt>
      <trkpt lat="46.88576" lon="8.55308">
        <ele>1235</ele>
        <time>2021-08-10T14:17:19.339Z</time>
      </trkpt>
      <trkpt lat="46.88576" lon="8.55307">
        <ele>1235</ele>
        <time>2021-08-10T14:17:20.339Z</time>
      </trkpt>
      <trkpt lat="46.88574" lon="8.55306">
        <ele>1235</ele>
        <time>2021-08-10T14:17:21.339Z</time>
      </trkpt>
      <trkpt lat="46.88573" lon="8.55306">
        <ele>1234</ele>
        <time>2021-08-10T14:17:22.339Z</time>
      </trkpt>
      <trkpt lat="46.88572" lon="8.55306">
        <ele>1234</ele>
        <time>2021-08-10T14:17:23.338Z</time>
      </trkpt>
      <trkpt lat="46.88571" lon="8.55306">
        <ele>1234</ele>
        <time>2021-08-10T14:17:24.338Z</time>
      </trkpt>
      <trkpt lat="46.8857" lon="8.55306">
        <ele>1234</ele>
        <time>2021-08-10T14:17:25.339Z</time>
      </trkpt>
      <trkpt lat="46.8857" lon="8.55305">
        <ele>1234</ele>
        <time>2021-08-10T14:17:26.339Z</time>
      </trkpt>
      <trkpt lat="46.88569" lon="8.55305">
        <ele>1233</ele>
        <time>2021-08-10T14:17:27.339Z</time>
      </trkpt>
      <trkpt lat="46.8857" lon="8.55304">
        <ele>1233</ele>
        <time>2021-08-10T14:17:28.339Z</time>
      </trkpt>
      <trkpt lat="46.88569" lon="8.55303">
        <ele>1233</ele>
        <time>2021-08-10T14:17:29.339Z</time>
      </trkpt>
      <trkpt lat="46.88568" lon="8.55302">
        <ele>1233</ele>
        <time>2021-08-10T14:17:30.338Z</time>
      </trkpt>
      <trkpt lat="46.88568" lon="8.55301">
        <ele>1233</ele>
        <time>2021-08-10T14:17:31.339Z</time>
      </trkpt>
      <trkpt lat="46.88567" lon="8.55301">
        <ele>1234</ele>
        <time>2021-08-10T14:17:32.339Z</time>
      </trkpt>
      <trkpt lat="46.88567" lon="8.55301">
        <ele>1234</ele>
        <time>2021-08-10T14:17:33.338Z</time>
      </trkpt>
      <trkpt lat="46.88566" lon="8.55301">
        <ele>1234</ele>
        <time>2021-08-10T14:17:34.339Z</time>
      </trkpt>
      <trkpt lat="46.88566" lon="8.553">
        <ele>1235</ele>
        <time>2021-08-10T14:17:35.338Z</time>
      </trkpt>
      <trkpt lat="46.88567" lon="8.55299">
        <ele>1235</ele>
        <time>2021-08-10T14:17:36.338Z</time>
      </trkpt>
      <trkpt lat="46.88568" lon="8.55298">
        <ele>1235</ele>
        <time>2021-08-10T14:17:37.339Z</time>
      </trkpt>
      <trkpt lat="46.88567" lon="8.55298">
        <ele>1236</ele>
        <time>2021-08-10T14:17:38.339Z</time>
      </trkpt>
      <trkpt lat="46.88566" lon="8.55298">
        <ele>1236</ele>
        <time>2021-08-10T14:17:39.338Z</time>
      </trkpt>
      <trkpt lat="46.88565" lon="8.55298">
        <ele>1237</ele>
        <time>2021-08-10T14:17:40.339Z</time>
      </trkpt>
      <trkpt lat="46.88564" lon="8.55298">
        <ele>1237</ele>
        <time>2021-08-10T14:17:41.339Z</time>
      </trkpt>
      <trkpt lat="46.88564" lon="8.55298">
        <ele>1237</ele>
        <time>2021-08-10T14:17:42.339Z</time>
      </trkpt>
      <trkpt lat="46.88564" lon="8.55298">
        <ele>1238</ele>
        <time>2021-08-10T14:17:43.339Z</time>
      </trkpt>
      <trkpt lat="46.88563" lon="8.55298">
        <ele>1238</ele>
        <time>2021-08-10T14:17:44.339Z</time>
      </trkpt>
      <trkpt lat="46.88563" lon="8.55298">
        <ele>1238</ele>
        <time>2021-08-10T14:17:45.338Z</time>
      </trkpt>
      <trkpt lat="46.88563" lon="8.55297">
        <ele>1238</ele>
        <time>2021-08-10T14:17:46.339Z</time>
      </trkpt>
      <trkpt lat="46.88563" lon="8.55296">
        <ele>1239</ele>
        <time>2021-08-10T14:17:47.339Z</time>
      </trkpt>
      <trkpt lat="46.88563" lon="8.55295">
        <ele>1239</ele>
        <time>2021-08-10T14:17:48.338Z</time>
      </trkpt>
      <trkpt lat="46.88563" lon="8.55296">
        <ele>1239</ele>
        <time>2021-08-10T14:17:49.339Z</time>
      </trkpt>
      <trkpt lat="46.88564" lon="8.55296">
        <ele>1239</ele>
        <time>2021-08-10T14:17:50.339Z</time>
      </trkpt>
      <trkpt lat="46.88565" lon="8.55296">
        <ele>1239</ele>
        <time>2021-08-10T14:17:51.338Z</time>
      </trkpt>
      <trkpt lat="46.88566" lon="8.55296">
        <ele>1240</ele>
        <time>2021-08-10T14:17:52.339Z</time>
      </trkpt>
      <trkpt lat="46.88566" lon="8.55296">
        <ele>1240</ele>
        <time>2021-08-10T14:17:53.338Z</time>
      </trkpt>
      <trkpt lat="46.88567" lon="8.55296">
        <ele>1241</ele>
        <time>2021-08-10T14:17:54.339Z</time>
      </trkpt>
      <trkpt lat="46.88568" lon="8.55296">
        <ele>1241</ele>
        <time>2021-08-10T14:17:55.339Z</time>
      </trkpt>
      <trkpt lat="46.88568" lon="8.55296">
        <ele>1242</ele>
        <time>2021-08-10T14:17:56.339Z</time>
      </trkpt>
      <trkpt lat="46.88569" lon="8.55295">
        <ele>1242</ele>
        <time>2021-08-10T14:17:57.338Z</time>
      </trkpt>
      <trkpt lat="46.88569" lon="8.55293">
        <ele>1243</ele>
        <time>2021-08-10T14:17:58.339Z</time>
      </trkpt>
      <trkpt lat="46.8857" lon="8.55292">
        <ele>1243</ele>
        <time>2021-08-10T14:17:59.339Z</time>
      </trkpt>
      <trkpt lat="46.88571" lon="8.55291">
        <ele>1244</ele>
        <time>2021-08-10T14:18:00.338Z</time>
      </trkpt>
      <trkpt lat="46.88572" lon="8.55291">
        <ele>1244</ele>
        <time>2021-08-10T14:18:01.338Z</time>
      </trkpt>
      <trkpt lat="46.88573" lon="8.5529">
        <ele>1245</ele>
        <time>2021-08-10T14:18:02.338Z</time>
      </trkpt>
      <trkpt lat="46.88574" lon="8.55289">
        <ele>1245</ele>
        <time>2021-08-10T14:18:05.447Z</time>
      </trkpt>
      <trkpt lat="46.88575" lon="8.55287">
        <ele>1246</ele>
        <time>2021-08-10T14:18:06.447Z</time>
      </trkpt>
      <trkpt lat="46.88576" lon="8.55286">
        <ele>1246</ele>
        <time>2021-08-10T14:18:07.448Z</time>
      </trkpt>
      <trkpt lat="46.88576" lon="8.55286">
        <ele>1246</ele>
        <time>2021-08-10T14:18:09.575Z</time>
      </trkpt>
      <trkpt lat="46.88576" lon="8.55285">
        <ele>1247</ele>
        <time>2021-08-10T14:18:10.575Z</time>
      </trkpt>
      <trkpt lat="46.88577" lon="8.55285">
        <ele>1247</ele>
        <time>2021-08-10T14:18:11.575Z</time>
      </trkpt>
      <trkpt lat="46.88577" lon="8.55284">
        <ele>1248</ele>
        <time>2021-08-10T14:18:12.576Z</time>
      </trkpt>
      <trkpt lat="46.88576" lon="8.55283">
        <ele>1248</ele>
        <time>2021-08-10T14:18:13.576Z</time>
      </trkpt>
      <trkpt lat="46.88575" lon="8.55283">
        <ele>1248</ele>
        <time>2021-08-10T14:18:14.575Z</time>
      </trkpt>
      <trkpt lat="46.88574" lon="8.55283">
        <ele>1248</ele>
        <time>2021-08-10T14:18:15.575Z</time>
      </trkpt>
      <trkpt lat="46.88574" lon="8.55285">
        <ele>1248</ele>
        <time>2021-08-10T14:18:16.576Z</time>
      </trkpt>
      <trkpt lat="46.88573" lon="8.55285">
        <ele>1248</ele>
        <time>2021-08-10T14:18:17.576Z</time>
      </trkpt>
      <trkpt lat="46.88572" lon="8.55284">
        <ele>1248</ele>
        <time>2021-08-10T14:18:18.576Z</time>
      </trkpt>
      <trkpt lat="46.88571" lon="8.55284">
        <ele>1248</ele>
        <time>2021-08-10T14:18:19.576Z</time>
      </trkpt>
      <trkpt lat="46.88571" lon="8.55284">
        <ele>1249</ele>
        <time>2021-08-10T14:18:20.576Z</time>
      </trkpt>
      <trkpt lat="46.8857" lon="8.55283">
        <ele>1249</ele>
        <time>2021-08-10T14:18:23.732Z</time>
      </trkpt>
      <trkpt lat="46.8857" lon="8.55283">
        <ele>1250</ele>
        <time>2021-08-10T14:18:24.732Z</time>
      </trkpt>
      <trkpt lat="46.8857" lon="8.55284">
        <ele>1251</ele>
        <time>2021-08-10T14:18:25.731Z</time>
      </trkpt>
      <trkpt lat="46.88569" lon="8.55284">
        <ele>1251</ele>
        <time>2021-08-10T14:18:52.775Z</time>
      </trkpt>
      <trkpt lat="46.88569" lon="8.55283">
        <ele>1252</ele>
        <time>2021-08-10T14:18:58.628Z</time>
      </trkpt>
      <trkpt lat="46.88568" lon="8.55284">
        <ele>1252</ele>
        <time>2021-08-10T14:18:59.628Z</time>
      </trkpt>
      <trkpt lat="46.88568" lon="8.55283">
        <ele>1253</ele>
        <time>2021-08-10T14:19:00.628Z</time>
      </trkpt>
      <trkpt lat="46.88567" lon="8.55283">
        <ele>1253</ele>
        <time>2021-08-10T14:19:01.628Z</time>
      </trkpt>
      <trkpt lat="46.88567" lon="8.55283">
        <ele>1253</ele>
        <time>2021-08-10T14:19:02.628Z</time>
      </trkpt>
      <trkpt lat="46.88566" lon="8.55283">
        <ele>1254</ele>
        <time>2021-08-10T14:19:03.628Z</time>
      </trkpt>
      <trkpt lat="46.88566" lon="8.55283">
        <ele>1254</ele>
        <time>2021-08-10T14:19:04.628Z</time>
      </trkpt>
      <trkpt lat="46.88565" lon="8.55283">
        <ele>1254</ele>
        <time>2021-08-10T14:19:05.629Z</time>
      </trkpt>
      <trkpt lat="46.88564" lon="8.55282">
        <ele>1255</ele>
        <time>2021-08-10T14:19:08.695Z</time>
      </trkpt>
      <trkpt lat="46.88562" lon="8.55281">
        <ele>1255</ele>
        <time>2021-08-10T14:19:09.694Z</time>
      </trkpt>
      <trkpt lat="46.88561" lon="8.55281">
        <ele>1255</ele>
        <time>2021-08-10T14:19:10.695Z</time>
      </trkpt>
      <trkpt lat="46.8856" lon="8.5528">
        <ele>1255</ele>
        <time>2021-08-10T14:19:11.694Z</time>
      </trkpt>
      <trkpt lat="46.8856" lon="8.55279">
        <ele>1255</ele>
        <time>2021-08-10T14:19:12.694Z</time>
      </trkpt>
      <trkpt lat="46.8856" lon="8.55275">
        <ele>1255</ele>
        <time>2021-08-10T14:19:16.696Z</time>
      </trkpt>
      <trkpt lat="46.88559" lon="8.55274">
        <ele>1254</ele>
        <time>2021-08-10T14:19:17.695Z</time>
      </trkpt>
      <trkpt lat="46.88559" lon="8.55274">
        <ele>1254</ele>
        <time>2021-08-10T14:19:18.695Z</time>
      </trkpt>
      <trkpt lat="46.88558" lon="8.55274">
        <ele>1255</ele>
        <time>2021-08-10T14:19:19.695Z</time>
      </trkpt>
      <trkpt lat="46.88557" lon="8.55275">
        <ele>1255</ele>
        <time>2021-08-10T14:19:20.695Z</time>
      </trkpt>
      <trkpt lat="46.88557" lon="8.55275">
        <ele>1255</ele>
        <time>2021-08-10T14:19:21.695Z</time>
      </trkpt>
      <trkpt lat="46.88557" lon="8.55275">
        <ele>1255</ele>
        <time>2021-08-10T14:19:22.695Z</time>
      </trkpt>
      <trkpt lat="46.88557" lon="8.55276">
        <ele>1256</ele>
        <time>2021-08-10T14:19:23.695Z</time>
      </trkpt>
      <trkpt lat="46.88556" lon="8.55276">
        <ele>1256</ele>
        <time>2021-08-10T14:19:24.695Z</time>
      </trkpt>
      <trkpt lat="46.88557" lon="8.55275">
        <ele>1257</ele>
        <time>2021-08-10T14:19:25.697Z</time>
      </trkpt>
      <trkpt lat="46.88557" lon="8.55274">
        <ele>1257</ele>
        <time>2021-08-10T14:19:26.697Z</time>
      </trkpt>
      <trkpt lat="46.88556" lon="8.55273">
        <ele>1257</ele>
        <time>2021-08-10T14:19:44.715Z</time>
      </trkpt>
      <trkpt lat="46.88555" lon="8.55271">
        <ele>1257</ele>
        <time>2021-08-10T14:19:45.716Z</time>
      </trkpt>
      <trkpt lat="46.88555" lon="8.5527">
        <ele>1256</ele>
        <time>2021-08-10T14:20:01.630Z</time>
      </trkpt>
      <trkpt lat="46.88555" lon="8.55269">
        <ele>1256</ele>
        <time>2021-08-10T14:20:07.483Z</time>
      </trkpt>
      <trkpt lat="46.88554" lon="8.55267">
        <ele>1256</ele>
        <time>2021-08-10T14:20:08.483Z</time>
      </trkpt>
      <trkpt lat="46.88553" lon="8.55266">
        <ele>1256</ele>
        <time>2021-08-10T14:20:09.483Z</time>
      </trkpt>
      <trkpt lat="46.88552" lon="8.55266">
        <ele>1257</ele>
        <time>2021-08-10T14:20:10.483Z</time>
      </trkpt>
      <trkpt lat="46.88551" lon="8.55265">
        <ele>1257</ele>
        <time>2021-08-10T14:20:11.482Z</time>
      </trkpt>
      <trkpt lat="46.88551" lon="8.55264">
        <ele>1257</ele>
        <time>2021-08-10T14:20:12.483Z</time>
      </trkpt>
      <trkpt lat="46.88551" lon="8.55263">
        <ele>1258</ele>
        <time>2021-08-10T14:20:19.632Z</time>
      </trkpt>
      <trkpt lat="46.88551" lon="8.55264">
        <ele>1259</ele>
        <time>2021-08-10T14:20:20.632Z</time>
      </trkpt>
      <trkpt lat="46.88551" lon="8.55264">
        <ele>1259</ele>
        <time>2021-08-10T14:20:21.633Z</time>
      </trkpt>
      <trkpt lat="46.88551" lon="8.55265">
        <ele>1260</ele>
        <time>2021-08-10T14:20:35.638Z</time>
      </trkpt>
      <trkpt lat="46.8855" lon="8.55265">
        <ele>1260</ele>
        <time>2021-08-10T14:20:51.522Z</time>
      </trkpt>
      <trkpt lat="46.88549" lon="8.55266">
        <ele>1261</ele>
        <time>2021-08-10T14:20:52.521Z</time>
      </trkpt>
      <trkpt lat="46.88549" lon="8.55266">
        <ele>1261</ele>
        <time>2021-08-10T14:20:53.522Z</time>
      </trkpt>
      <trkpt lat="46.88549" lon="8.55266">
        <ele>1262</ele>
        <time>2021-08-10T14:20:54.522Z</time>
      </trkpt>
      <trkpt lat="46.88548" lon="8.55266">
        <ele>1262</ele>
        <time>2021-08-10T14:20:55.521Z</time>
      </trkpt>
      <trkpt lat="46.88548" lon="8.55266">
        <ele>1262</ele>
        <time>2021-08-10T14:21:07.609Z</time>
      </trkpt>
      <trkpt lat="46.88548" lon="8.55265">
        <ele>1262</ele>
        <time>2021-08-10T14:21:11.482Z</time>
      </trkpt>
      <trkpt lat="46.88549" lon="8.55265">
        <ele>1262</ele>
        <time>2021-08-10T14:21:12.482Z</time>
      </trkpt>
      <trkpt lat="46.88549" lon="8.55263">
        <ele>1263</ele>
        <time>2021-08-10T14:21:13.481Z</time>
      </trkpt>
      <trkpt lat="46.88551" lon="8.55262">
        <ele>1263</ele>
        <time>2021-08-10T14:21:14.482Z</time>
      </trkpt>
      <trkpt lat="46.88552" lon="8.5526">
        <ele>1263</ele>
        <time>2021-08-10T14:21:15.481Z</time>
      </trkpt>
      <trkpt lat="46.88553" lon="8.5526">
        <ele>1263</ele>
        <time>2021-08-10T14:21:16.482Z</time>
      </trkpt>
      <trkpt lat="46.88554" lon="8.5526">
        <ele>1263</ele>
        <time>2021-08-10T14:21:33.582Z</time>
      </trkpt>
      <trkpt lat="46.88555" lon="8.55261">
        <ele>1262</ele>
        <time>2021-08-10T14:21:34.583Z</time>
      </trkpt>
      <trkpt lat="46.88555" lon="8.5526">
        <ele>1262</ele>
        <time>2021-08-10T14:21:35.582Z</time>
      </trkpt>
      <trkpt lat="46.88555" lon="8.5526">
        <ele>1262</ele>
        <time>2021-08-10T14:21:36.582Z</time>
      </trkpt>
      <trkpt lat="46.88555" lon="8.55259">
        <ele>1262</ele>
        <time>2021-08-10T14:21:37.583Z</time>
      </trkpt>
      <trkpt lat="46.88555" lon="8.55258">
        <ele>1262</ele>
        <time>2021-08-10T14:21:47.610Z</time>
      </trkpt>
      <trkpt lat="46.88555" lon="8.55258">
        <ele>1262</ele>
        <time>2021-08-10T14:21:48.610Z</time>
      </trkpt>
      <trkpt lat="46.88554" lon="8.55257">
        <ele>1262</ele>
        <time>2021-08-10T14:21:49.610Z</time>
      </trkpt>
      <trkpt lat="46.88554" lon="8.55256">
        <ele>1262</ele>
        <time>2021-08-10T14:21:50.610Z</time>
      </trkpt>
      <trkpt lat="46.88554" lon="8.55255">
        <ele>1262</ele>
        <time>2021-08-10T14:21:53.737Z</time>
      </trkpt>
      <trkpt lat="46.88554" lon="8.55255">
        <ele>1262</ele>
        <time>2021-08-10T14:21:54.737Z</time>
      </trkpt>
      <trkpt lat="46.88554" lon="8.55255">
        <ele>1262</ele>
        <time>2021-08-10T14:21:55.737Z</time>
      </trkpt>
      <trkpt lat="46.88554" lon="8.55254">
        <ele>1262</ele>
        <time>2021-08-10T14:21:56.737Z</time>
      </trkpt>
      <trkpt lat="46.88554" lon="8.55254">
        <ele>1262</ele>
        <time>2021-08-10T14:22:11.748Z</time>
      </trkpt>
      <trkpt lat="46.88554" lon="8.55253">
        <ele>1262</ele>
        <time>2021-08-10T14:22:21.604Z</time>
      </trkpt>
      <trkpt lat="46.88554" lon="8.55252">
        <ele>1262</ele>
        <time>2021-08-10T14:22:23.447Z</time>
      </trkpt>
      <trkpt lat="46.88555" lon="8.55251">
        <ele>1262</ele>
        <time>2021-08-10T14:22:24.446Z</time>
      </trkpt>
      <trkpt lat="46.88555" lon="8.5525">
        <ele>1262</ele>
        <time>2021-08-10T14:22:25.446Z</time>
      </trkpt>
      <trkpt lat="46.88555" lon="8.5525">
        <ele>1262</ele>
        <time>2021-08-10T14:22:26.447Z</time>
      </trkpt>
      <trkpt lat="46.88555" lon="8.5525">
        <ele>1262</ele>
        <time>2021-08-10T14:22:36.482Z</time>
      </trkpt>
      <trkpt lat="46.88554" lon="8.5525">
        <ele>1262</ele>
        <time>2021-08-10T14:22:37.483Z</time>
      </trkpt>
      <trkpt lat="46.88554" lon="8.55249">
        <ele>1262</ele>
        <time>2021-08-10T14:22:38.482Z</time>
      </trkpt>
      <trkpt lat="46.88552" lon="8.55249">
        <ele>1261</ele>
        <time>2021-08-10T14:22:39.483Z</time>
      </trkpt>
      <trkpt lat="46.88551" lon="8.55249">
        <ele>1261</ele>
        <time>2021-08-10T14:22:45.481Z</time>
      </trkpt>
      <trkpt lat="46.8855" lon="8.55249">
        <ele>1261</ele>
        <time>2021-08-10T14:22:47.347Z</time>
      </trkpt>
      <trkpt lat="46.88549" lon="8.55249">
        <ele>1261</ele>
        <time>2021-08-10T14:22:48.348Z</time>
      </trkpt>
      <trkpt lat="46.88548" lon="8.5525">
        <ele>1261</ele>
        <time>2021-08-10T14:22:49.348Z</time>
      </trkpt>
      <trkpt lat="46.88547" lon="8.5525">
        <ele>1261</ele>
        <time>2021-08-10T14:22:50.347Z</time>
      </trkpt>
      <trkpt lat="46.88547" lon="8.5525">
        <ele>1261</ele>
        <time>2021-08-10T14:22:51.347Z</time>
      </trkpt>
      <trkpt lat="46.88546" lon="8.5525">
        <ele>1261</ele>
        <time>2021-08-10T14:23:57.397Z</time>
      </trkpt>
      <trkpt lat="46.88546" lon="8.55251">
        <ele>1261</ele>
        <time>2021-08-10T14:23:58.397Z</time>
      </trkpt>
      <trkpt lat="46.88545" lon="8.55252">
        <ele>1260</ele>
        <time>2021-08-10T14:23:59.397Z</time>
      </trkpt>
      <trkpt lat="46.88544" lon="8.55253">
        <ele>1260</ele>
        <time>2021-08-10T14:24:19.514Z</time>
      </trkpt>
      <trkpt lat="46.88543" lon="8.55253">
        <ele>1259</ele>
        <time>2021-08-10T14:24:20.513Z</time>
      </trkpt>
      <trkpt lat="46.88543" lon="8.55254">
        <ele>1259</ele>
        <time>2021-08-10T14:24:21.514Z</time>
      </trkpt>
      <trkpt lat="46.88542" lon="8.55254">
        <ele>1259</ele>
        <time>2021-08-10T14:24:22.514Z</time>
      </trkpt>
      <trkpt lat="46.88541" lon="8.55253">
        <ele>1258</ele>
        <time>2021-08-10T14:24:29.618Z</time>
      </trkpt>
      <trkpt lat="46.8854" lon="8.55252">
        <ele>1258</ele>
        <time>2021-08-10T14:25:16.536Z</time>
      </trkpt>
      <trkpt lat="46.88539" lon="8.55251">
        <ele>1258</ele>
        <time>2021-08-10T14:25:17.536Z</time>
      </trkpt>
      <trkpt lat="46.88539" lon="8.55251">
        <ele>1257</ele>
        <time>2021-08-10T14:25:18.536Z</time>
      </trkpt>
      <trkpt lat="46.88538" lon="8.5525">
        <ele>1257</ele>
        <time>2021-08-10T14:25:54.616Z</time>
      </trkpt>
      <trkpt lat="46.88538" lon="8.55248">
        <ele>1257</ele>
        <time>2021-08-10T14:25:57.454Z</time>
      </trkpt>
      <trkpt lat="46.88537" lon="8.55247">
        <ele>1257</ele>
        <time>2021-08-10T14:26:15.217Z</time>
      </trkpt>
      <trkpt lat="46.88537" lon="8.55246">
        <ele>1257</ele>
        <time>2021-08-10T14:26:16.217Z</time>
      </trkpt>
      <trkpt lat="46.88536" lon="8.55247">
        <ele>1256</ele>
        <time>2021-08-10T14:26:33.004Z</time>
      </trkpt>
      <trkpt lat="46.88535" lon="8.55247">
        <ele>1256</ele>
        <time>2021-08-10T14:26:34.005Z</time>
      </trkpt>
      <trkpt lat="46.88534" lon="8.55247">
        <ele>1256</ele>
        <time>2021-08-10T14:26:35.005Z</time>
      </trkpt>
      <trkpt lat="46.88533" lon="8.55247">
        <ele>1256</ele>
        <time>2021-08-10T14:28:11.113Z</time>
      </trkpt>
      <trkpt lat="46.88533" lon="8.55247">
        <ele>1257</ele>
        <time>2021-08-10T14:28:12.113Z</time>
      </trkpt>
      <trkpt lat="46.88531" lon="8.55246">
        <ele>1257</ele>
        <time>2021-08-10T14:28:13.113Z</time>
      </trkpt>
      <trkpt lat="46.88531" lon="8.55244">
        <ele>1257</ele>
        <time>2021-08-10T14:29:16.237Z</time>
      </trkpt>
      <trkpt lat="46.8853" lon="8.55242">
        <ele>1257</ele>
        <time>2021-08-10T14:29:17.237Z</time>
      </trkpt>
      <trkpt lat="46.8853" lon="8.55241">
        <ele>1258</ele>
        <time>2021-08-10T14:29:18.237Z</time>
      </trkpt>
      <trkpt lat="46.88529" lon="8.5524">
        <ele>1258</ele>
        <time>2021-08-10T14:29:19.237Z</time>
      </trkpt>
      <trkpt lat="46.88529" lon="8.55238">
        <ele>1258</ele>
        <time>2021-08-10T14:29:20.236Z</time>
      </trkpt>
      <trkpt lat="46.88529" lon="8.5524">
        <ele>1258</ele>
        <time>2021-08-10T14:30:43.368Z</time>
      </trkpt>
      <trkpt lat="46.88529" lon="8.55243">
        <ele>1259</ele>
        <time>2021-08-10T14:30:44.368Z</time>
      </trkpt>
      <trkpt lat="46.88529" lon="8.55244">
        <ele>1259</ele>
        <time>2021-08-10T14:30:45.368Z</time>
      </trkpt>
      <trkpt lat="46.88529" lon="8.55244">
        <ele>1259</ele>
        <time>2021-08-10T14:30:46.368Z</time>
      </trkpt>
      <trkpt lat="46.88529" lon="8.55244">
        <ele>1260</ele>
        <time>2021-08-10T14:30:47.367Z</time>
      </trkpt>
      <trkpt lat="46.88528" lon="8.55243">
        <ele>1260</ele>
        <time>2021-08-10T14:30:48.368Z</time>
      </trkpt>
      <trkpt lat="46.88528" lon="8.55243">
        <ele>1261</ele>
        <time>2021-08-10T14:30:49.367Z</time>
      </trkpt>
      <trkpt lat="46.88527" lon="8.55243">
        <ele>1262</ele>
        <time>2021-08-10T14:30:50.367Z</time>
      </trkpt>
      <trkpt lat="46.88527" lon="8.55243">
        <ele>1263</ele>
        <time>2021-08-10T14:30:51.367Z</time>
      </trkpt>
      <trkpt lat="46.88526" lon="8.55241">
        <ele>1264</ele>
        <time>2021-08-10T14:30:52.368Z</time>
      </trkpt>
      <trkpt lat="46.88526" lon="8.5524">
        <ele>1265</ele>
        <time>2021-08-10T14:30:53.367Z</time>
      </trkpt>
      <trkpt lat="46.88526" lon="8.55238">
        <ele>1265</ele>
        <time>2021-08-10T14:30:54.367Z</time>
      </trkpt>
      <trkpt lat="46.88527" lon="8.55237">
        <ele>1266</ele>
        <time>2021-08-10T14:30:55.367Z</time>
      </trkpt>
      <trkpt lat="46.88527" lon="8.55235">
        <ele>1267</ele>
        <time>2021-08-10T14:30:57.487Z</time>
      </trkpt>
      <trkpt lat="46.88527" lon="8.55234">
        <ele>1267</ele>
        <time>2021-08-10T14:30:58.487Z</time>
      </trkpt>
      <trkpt lat="46.88527" lon="8.55233">
        <ele>1268</ele>
        <time>2021-08-10T14:30:59.486Z</time>
      </trkpt>
      <trkpt lat="46.88527" lon="8.55232">
        <ele>1269</ele>
        <time>2021-08-10T14:31:00.487Z</time>
      </trkpt>
      <trkpt lat="46.88528" lon="8.55232">
        <ele>1269</ele>
        <time>2021-08-10T14:31:01.486Z</time>
      </trkpt>
      <trkpt lat="46.88529" lon="8.55231">
        <ele>1269</ele>
        <time>2021-08-10T14:31:03.614Z</time>
      </trkpt>
      <trkpt lat="46.88528" lon="8.5523">
        <ele>1270</ele>
        <time>2021-08-10T14:31:04.614Z</time>
      </trkpt>
      <trkpt lat="46.88528" lon="8.55229">
        <ele>1270</ele>
        <time>2021-08-10T14:31:05.614Z</time>
      </trkpt>
      <trkpt lat="46.88528" lon="8.55227">
        <ele>1270</ele>
        <time>2021-08-10T14:31:06.614Z</time>
      </trkpt>
      <trkpt lat="46.88528" lon="8.55226">
        <ele>1270</ele>
        <time>2021-08-10T14:31:07.613Z</time>
      </trkpt>
      <trkpt lat="46.88527" lon="8.55224">
        <ele>1271</ele>
        <time>2021-08-10T14:31:08.613Z</time>
      </trkpt>
      <trkpt lat="46.88527" lon="8.55223">
        <ele>1271</ele>
        <time>2021-08-10T14:31:09.613Z</time>
      </trkpt>
      <trkpt lat="46.88526" lon="8.55222">
        <ele>1271</ele>
        <time>2021-08-10T14:31:54.716Z</time>
      </trkpt>
      <trkpt lat="46.88526" lon="8.55222">
        <ele>1271</ele>
        <time>2021-08-10T14:32:14.620Z</time>
      </trkpt>
      <trkpt lat="46.88526" lon="8.5522">
        <ele>1272</ele>
        <time>2021-08-10T14:32:15.620Z</time>
      </trkpt>
      <trkpt lat="46.88526" lon="8.55219">
        <ele>1272</ele>
        <time>2021-08-10T14:32:21.468Z</time>
      </trkpt>
      <trkpt lat="46.88526" lon="8.55218">
        <ele>1272</ele>
        <time>2021-08-10T14:32:22.468Z</time>
      </trkpt>
      <trkpt lat="46.88525" lon="8.55217">
        <ele>1272</ele>
        <time>2021-08-10T14:32:23.468Z</time>
      </trkpt>
      <trkpt lat="46.88524" lon="8.55217">
        <ele>1272</ele>
        <time>2021-08-10T14:32:24.467Z</time>
      </trkpt>
      <trkpt lat="46.88524" lon="8.55218">
        <ele>1273</ele>
        <time>2021-08-10T14:32:25.468Z</time>
      </trkpt>
      <trkpt lat="46.88522" lon="8.55218">
        <ele>1273</ele>
        <time>2021-08-10T14:32:26.467Z</time>
      </trkpt>
      <trkpt lat="46.8852" lon="8.55219">
        <ele>1273</ele>
        <time>2021-08-10T14:32:27.468Z</time>
      </trkpt>
      <trkpt lat="46.88519" lon="8.55219">
        <ele>1274</ele>
        <time>2021-08-10T14:32:28.468Z</time>
      </trkpt>
      <trkpt lat="46.88518" lon="8.55218">
        <ele>1274</ele>
        <time>2021-08-10T14:33:02.586Z</time>
      </trkpt>
      <trkpt lat="46.88517" lon="8.55217">
        <ele>1274</ele>
        <time>2021-08-10T14:33:03.586Z</time>
      </trkpt>
      <trkpt lat="46.88516" lon="8.55218">
        <ele>1275</ele>
        <time>2021-08-10T14:34:03.475Z</time>
      </trkpt>
      <trkpt lat="46.88516" lon="8.55218">
        <ele>1275</ele>
        <time>2021-08-10T14:34:04.476Z</time>
      </trkpt>
      <trkpt lat="46.88516" lon="8.55217">
        <ele>1275</ele>
        <time>2021-08-10T14:34:05.476Z</time>
      </trkpt>
      <trkpt lat="46.88515" lon="8.55216">
        <ele>1275</ele>
        <time>2021-08-10T14:34:06.475Z</time>
      </trkpt>
      <trkpt lat="46.88515" lon="8.55216">
        <ele>1275</ele>
        <time>2021-08-10T14:34:07.476Z</time>
      </trkpt>
      <trkpt lat="46.88515" lon="8.55215">
        <ele>1276</ele>
        <time>2021-08-10T14:34:08.476Z</time>
      </trkpt>
      <trkpt lat="46.88515" lon="8.55214">
        <ele>1276</ele>
        <time>2021-08-10T14:34:09.476Z</time>
      </trkpt>
      <trkpt lat="46.88515" lon="8.55213">
        <ele>1276</ele>
        <time>2021-08-10T14:34:10.475Z</time>
      </trkpt>
      <trkpt lat="46.88514" lon="8.55213">
        <ele>1276</ele>
        <time>2021-08-10T14:34:19.614Z</time>
      </trkpt>
      <trkpt lat="46.88513" lon="8.55212">
        <ele>1277</ele>
        <time>2021-08-10T14:34:20.614Z</time>
      </trkpt>
      <trkpt lat="46.88511" lon="8.55212">
        <ele>1277</ele>
        <time>2021-08-10T14:34:21.615Z</time>
      </trkpt>
      <trkpt lat="46.8851" lon="8.55211">
        <ele>1277</ele>
        <time>2021-08-10T14:34:35.751Z</time>
      </trkpt>
      <trkpt lat="46.8851" lon="8.5521">
        <ele>1276</ele>
        <time>2021-08-10T14:34:36.751Z</time>
      </trkpt>
      <trkpt lat="46.8851" lon="8.55209">
        <ele>1276</ele>
        <time>2021-08-10T14:34:37.750Z</time>
      </trkpt>
      <trkpt lat="46.88509" lon="8.55209">
        <ele>1276</ele>
        <time>2021-08-10T14:34:38.750Z</time>
      </trkpt>
      <trkpt lat="46.88509" lon="8.55209">
        <ele>1276</ele>
        <time>2021-08-10T14:36:13.839Z</time>
      </trkpt>
      <trkpt lat="46.88508" lon="8.55209">
        <ele>1277</ele>
        <time>2021-08-10T14:36:14.838Z</time>
      </trkpt>
      <trkpt lat="46.88508" lon="8.55209">
        <ele>1277</ele>
        <time>2021-08-10T14:36:15.839Z</time>
      </trkpt>
      <trkpt lat="46.88508" lon="8.55209">
        <ele>1277</ele>
        <time>2021-08-10T14:36:16.839Z</time>
      </trkpt>
      <trkpt lat="46.88508" lon="8.55209">
        <ele>1277</ele>
        <time>2021-08-10T14:36:23.985Z</time>
      </trkpt>
      <trkpt lat="46.88508" lon="8.5521">
        <ele>1277</ele>
        <time>2021-08-10T14:36:24.984Z</time>
      </trkpt>
      <trkpt lat="46.88509" lon="8.5521">
        <ele>1277</ele>
        <time>2021-08-10T14:36:36.849Z</time>
      </trkpt>
      <trkpt lat="46.88509" lon="8.55211">
        <ele>1278</ele>
        <time>2021-08-10T14:36:37.850Z</time>
      </trkpt>
      <trkpt lat="46.88509" lon="8.55211">
        <ele>1278</ele>
        <time>2021-08-10T14:36:38.850Z</time>
      </trkpt>
      <trkpt lat="46.88509" lon="8.55212">
        <ele>1278</ele>
        <time>2021-08-10T14:36:39.850Z</time>
      </trkpt>
      <trkpt lat="46.8851" lon="8.55212">
        <ele>1278</ele>
        <time>2021-08-10T14:36:42.968Z</time>
      </trkpt>
      <trkpt lat="46.8851" lon="8.55211">
        <ele>1278</ele>
        <time>2021-08-10T14:36:55.871Z</time>
      </trkpt>
      <trkpt lat="46.88511" lon="8.55209">
        <ele>1279</ele>
        <time>2021-08-10T14:36:56.871Z</time>
      </trkpt>
      <trkpt lat="46.88511" lon="8.55209">
        <ele>1280</ele>
        <time>2021-08-10T14:36:57.870Z</time>
      </trkpt>
      <trkpt lat="46.88512" lon="8.55208">
        <ele>1280</ele>
        <time>2021-08-10T14:37:03.976Z</time>
      </trkpt>
      <trkpt lat="46.88512" lon="8.55206">
        <ele>1280</ele>
        <time>2021-08-10T14:37:04.976Z</time>
      </trkpt>
      <trkpt lat="46.88513" lon="8.55204">
        <ele>1280</ele>
        <time>2021-08-10T14:37:05.975Z</time>
      </trkpt>
      <trkpt lat="46.88512" lon="8.55204">
        <ele>1280</ele>
        <time>2021-08-10T14:37:20.729Z</time>
      </trkpt>
      <trkpt lat="46.88511" lon="8.55203">
        <ele>1280</ele>
        <time>2021-08-10T14:37:21.729Z</time>
      </trkpt>
      <trkpt lat="46.8851" lon="8.55203">
        <ele>1281</ele>
        <time>2021-08-10T14:37:22.729Z</time>
      </trkpt>
      <trkpt lat="46.88509" lon="8.55201">
        <ele>1281</ele>
        <time>2021-08-10T14:37:23.729Z</time>
      </trkpt>
      <trkpt lat="46.88509" lon="8.55201">
        <ele>1281</ele>
        <time>2021-08-10T14:37:31.848Z</time>
      </trkpt>
      <trkpt lat="46.88509" lon="8.552">
        <ele>1281</ele>
        <time>2021-08-10T14:37:32.848Z</time>
      </trkpt>
      <trkpt lat="46.88508" lon="8.55199">
        <ele>1281</ele>
        <time>2021-08-10T14:37:33.849Z</time>
      </trkpt>
      <trkpt lat="46.88507" lon="8.55199">
        <ele>1281</ele>
        <time>2021-08-10T14:37:34.848Z</time>
      </trkpt>
      <trkpt lat="46.88507" lon="8.55199">
        <ele>1281</ele>
        <time>2021-08-10T14:37:35.848Z</time>
      </trkpt>
      <trkpt lat="46.88507" lon="8.55199">
        <ele>1281</ele>
        <time>2021-08-10T14:37:36.849Z</time>
      </trkpt>
      <trkpt lat="46.88502" lon="8.55197">
        <ele>1281</ele>
        <time>2021-08-10T14:37:37.850Z</time>
      </trkpt>
      <trkpt lat="46.88502" lon="8.55197">
        <ele>1281</ele>
        <time>2021-08-10T14:37:38.850Z</time>
      </trkpt>
      <trkpt lat="46.885" lon="8.55197">
        <ele>1281</ele>
        <time>2021-08-10T14:37:45.839Z</time>
      </trkpt>
      <trkpt lat="46.885" lon="8.55196">
        <ele>1281</ele>
        <time>2021-08-10T14:37:46.838Z</time>
      </trkpt>
      <trkpt lat="46.88499" lon="8.55195">
        <ele>1282</ele>
        <time>2021-08-10T14:38:15.588Z</time>
      </trkpt>
      <trkpt lat="46.88499" lon="8.55193">
        <ele>1282</ele>
        <time>2021-08-10T14:38:16.587Z</time>
      </trkpt>
      <trkpt lat="46.885" lon="8.55192">
        <ele>1282</ele>
        <time>2021-08-10T14:38:17.587Z</time>
      </trkpt>
      <trkpt lat="46.885" lon="8.5519">
        <ele>1282</ele>
        <time>2021-08-10T14:38:21.739Z</time>
      </trkpt>
      <trkpt lat="46.885" lon="8.55189">
        <ele>1282</ele>
        <time>2021-08-10T14:38:22.739Z</time>
      </trkpt>
      <trkpt lat="46.88499" lon="8.55188">
        <ele>1282</ele>
        <time>2021-08-10T14:38:23.738Z</time>
      </trkpt>
      <trkpt lat="46.88499" lon="8.55187">
        <ele>1282</ele>
        <time>2021-08-10T14:38:49.838Z</time>
      </trkpt>
      <trkpt lat="46.88498" lon="8.55187">
        <ele>1283</ele>
        <time>2021-08-10T14:38:50.838Z</time>
      </trkpt>
      <trkpt lat="46.88499" lon="8.55187">
        <ele>1283</ele>
        <time>2021-08-10T14:38:51.838Z</time>
      </trkpt>
      <trkpt lat="46.885" lon="8.55186">
        <ele>1283</ele>
        <time>2021-08-10T14:40:05.720Z</time>
      </trkpt>
      <trkpt lat="46.885" lon="8.55186">
        <ele>1284</ele>
        <time>2021-08-10T14:40:06.720Z</time>
      </trkpt>
      <trkpt lat="46.885" lon="8.55187">
        <ele>1284</ele>
        <time>2021-08-10T14:40:07.719Z</time>
      </trkpt>
      <trkpt lat="46.885" lon="8.55187">
        <ele>1284</ele>
        <time>2021-08-10T14:40:08.720Z</time>
      </trkpt>
      <trkpt lat="46.88501" lon="8.55188">
        <ele>1284</ele>
        <time>2021-08-10T14:40:09.719Z</time>
      </trkpt>
      <trkpt lat="46.88501" lon="8.55187">
        <ele>1284</ele>
        <time>2021-08-10T14:40:11.857Z</time>
      </trkpt>
      <trkpt lat="46.88502" lon="8.55187">
        <ele>1284</ele>
        <time>2021-08-10T14:40:12.858Z</time>
      </trkpt>
      <trkpt lat="46.88501" lon="8.55188">
        <ele>1284</ele>
        <time>2021-08-10T14:40:21.750Z</time>
      </trkpt>
      <trkpt lat="46.88499" lon="8.5519">
        <ele>1280</ele>
        <time>2021-08-10T14:40:22.752Z</time>
      </trkpt>
      <trkpt lat="46.88499" lon="8.5519">
        <ele>1280</ele>
        <time>2021-08-10T14:40:23.751Z</time>
      </trkpt>
      <trkpt lat="46.88499" lon="8.5519">
        <ele>1280</ele>
        <time>2021-08-10T14:40:24.751Z</time>
      </trkpt>
      <trkpt lat="46.88495" lon="8.55198">
        <ele>1278</ele>
        <time>2021-08-10T14:40:25.751Z</time>
      </trkpt>
      <trkpt lat="46.88495" lon="8.55198">
        <ele>1278</ele>
        <time>2021-08-10T14:40:26.751Z</time>
      </trkpt>
      <trkpt lat="46.88495" lon="8.55198">
        <ele>1278</ele>
        <time>2021-08-10T14:40:27.752Z</time>
      </trkpt>
      <trkpt lat="46.88493" lon="8.55199">
        <ele>1278</ele>
        <time>2021-08-10T14:40:28.752Z</time>
      </trkpt>
      <trkpt lat="46.88493" lon="8.55199">
        <ele>1278</ele>
        <time>2021-08-10T14:40:29.751Z</time>
      </trkpt>
      <trkpt lat="46.88493" lon="8.55199">
        <ele>1278</ele>
        <time>2021-08-10T14:40:30.752Z</time>
      </trkpt>
      <trkpt lat="46.88494" lon="8.55199">
        <ele>1278</ele>
        <time>2021-08-10T14:41:20.827Z</time>
      </trkpt>
      <trkpt lat="46.88493" lon="8.55199">
        <ele>1278</ele>
        <time>2021-08-10T14:41:21.827Z</time>
      </trkpt>
      <trkpt lat="46.88492" lon="8.55199">
        <ele>1278</ele>
        <time>2021-08-10T14:41:22.828Z</time>
      </trkpt>
      <trkpt lat="46.88491" lon="8.55199">
        <ele>1278</ele>
        <time>2021-08-10T14:41:25.708Z</time>
      </trkpt>
      <trkpt lat="46.8849" lon="8.55199">
        <ele>1278</ele>
        <time>2021-08-10T14:41:26.709Z</time>
      </trkpt>
      <trkpt lat="46.8849" lon="8.55198">
        <ele>1277</ele>
        <time>2021-08-10T14:41:27.708Z</time>
      </trkpt>
      <trkpt lat="46.8849" lon="8.55198">
        <ele>1277</ele>
        <time>2021-08-10T14:41:31.720Z</time>
      </trkpt>
      <trkpt lat="46.88489" lon="8.55198">
        <ele>1277</ele>
        <time>2021-08-10T14:41:32.720Z</time>
      </trkpt>
      <trkpt lat="46.88488" lon="8.55198">
        <ele>1277</ele>
        <time>2021-08-10T14:41:33.721Z</time>
      </trkpt>
      <trkpt lat="46.88488" lon="8.55199">
        <ele>1276</ele>
        <time>2021-08-10T14:41:59.863Z</time>
      </trkpt>
      <trkpt lat="46.88488" lon="8.55199">
        <ele>1276</ele>
        <time>2021-08-10T14:42:00.863Z</time>
      </trkpt>
      <trkpt lat="46.88489" lon="8.55198">
        <ele>1276</ele>
        <time>2021-08-10T14:42:01.863Z</time>
      </trkpt>
      <trkpt lat="46.8849" lon="8.55197">
        <ele>1276</ele>
        <time>2021-08-10T14:42:02.863Z</time>
      </trkpt>
      <trkpt lat="46.88492" lon="8.55194">
        <ele>1276</ele>
        <time>2021-08-10T14:42:03.864Z</time>
      </trkpt>
      <trkpt lat="46.88492" lon="8.55194">
        <ele>1276</ele>
        <time>2021-08-10T14:42:04.864Z</time>
      </trkpt>
      <trkpt lat="46.88493" lon="8.55194">
        <ele>1276</ele>
        <time>2021-08-10T14:42:15.989Z</time>
      </trkpt>
      <trkpt lat="46.88493" lon="8.55194">
        <ele>1276</ele>
        <time>2021-08-10T14:42:16.989Z</time>
      </trkpt>
      <trkpt lat="46.88493" lon="8.55193">
        <ele>1277</ele>
        <time>2021-08-10T14:42:17.989Z</time>
      </trkpt>
      <trkpt lat="46.88493" lon="8.55193">
        <ele>1277</ele>
        <time>2021-08-10T14:43:09.102Z</time>
      </trkpt>
      <trkpt lat="46.88492" lon="8.55193">
        <ele>1278</ele>
        <time>2021-08-10T14:43:10.103Z</time>
      </trkpt>
      <trkpt lat="46.88491" lon="8.55192">
        <ele>1278</ele>
        <time>2021-08-10T14:43:39.959Z</time>
      </trkpt>
      <trkpt lat="46.88491" lon="8.55192">
        <ele>1279</ele>
        <time>2021-08-10T14:43:40.960Z</time>
      </trkpt>
      <trkpt lat="46.8849" lon="8.55191">
        <ele>1280</ele>
        <time>2021-08-10T14:43:41.959Z</time>
      </trkpt>
      <trkpt lat="46.8849" lon="8.55191">
        <ele>1280</ele>
        <time>2021-08-10T14:43:42.959Z</time>
      </trkpt>
      <trkpt lat="46.8849" lon="8.5519">
        <ele>1281</ele>
        <time>2021-08-10T14:43:43.959Z</time>
      </trkpt>
      <trkpt lat="46.88489" lon="8.5519">
        <ele>1281</ele>
        <time>2021-08-10T14:43:44.960Z</time>
      </trkpt>
      <trkpt lat="46.88489" lon="8.5519">
        <ele>1282</ele>
        <time>2021-08-10T14:43:45.960Z</time>
      </trkpt>
      <trkpt lat="46.88489" lon="8.55189">
        <ele>1282</ele>
        <time>2021-08-10T14:43:46.960Z</time>
      </trkpt>
      <trkpt lat="46.88488" lon="8.55189">
        <ele>1283</ele>
        <time>2021-08-10T14:43:47.960Z</time>
      </trkpt>
      <trkpt lat="46.88488" lon="8.55188">
        <ele>1283</ele>
        <time>2021-08-10T14:43:56.081Z</time>
      </trkpt>
      <trkpt lat="46.88488" lon="8.55187">
        <ele>1284</ele>
        <time>2021-08-10T14:43:57.081Z</time>
      </trkpt>
      <trkpt lat="46.88488" lon="8.55187">
        <ele>1284</ele>
        <time>2021-08-10T14:44:05.837Z</time>
      </trkpt>
      <trkpt lat="46.88489" lon="8.55186">
        <ele>1284</ele>
        <time>2021-08-10T14:44:06.837Z</time>
      </trkpt>
      <trkpt lat="46.88489" lon="8.55186">
        <ele>1285</ele>
        <time>2021-08-10T14:44:07.836Z</time>
      </trkpt>
      <trkpt lat="46.8849" lon="8.55186">
        <ele>1285</ele>
        <time>2021-08-10T14:44:13.706Z</time>
      </trkpt>
      <trkpt lat="46.8849" lon="8.55185">
        <ele>1285</ele>
        <time>2021-08-10T14:44:14.706Z</time>
      </trkpt>
      <trkpt lat="46.8849" lon="8.55184">
        <ele>1286</ele>
        <time>2021-08-10T14:44:15.706Z</time>
      </trkpt>
      <trkpt lat="46.88489" lon="8.55183">
        <ele>1286</ele>
        <time>2021-08-10T14:44:26.866Z</time>
      </trkpt>
      <trkpt lat="46.88488" lon="8.55182">
        <ele>1286</ele>
        <time>2021-08-10T14:44:27.867Z</time>
      </trkpt>
      <trkpt lat="46.88488" lon="8.55181">
        <ele>1286</ele>
        <time>2021-08-10T14:44:28.867Z</time>
      </trkpt>
      <trkpt lat="46.88487" lon="8.55181">
        <ele>1286</ele>
        <time>2021-08-10T14:44:29.867Z</time>
      </trkpt>
      <trkpt lat="46.88486" lon="8.55181">
        <ele>1286</ele>
        <time>2021-08-10T14:44:34.990Z</time>
      </trkpt>
      <trkpt lat="46.88486" lon="8.55181">
        <ele>1286</ele>
        <time>2021-08-10T14:44:35.989Z</time>
      </trkpt>
      <trkpt lat="46.88485" lon="8.55181">
        <ele>1286</ele>
        <time>2021-08-10T14:44:36.989Z</time>
      </trkpt>
      <trkpt lat="46.88485" lon="8.55181">
        <ele>1287</ele>
        <time>2021-08-10T14:44:47.080Z</time>
      </trkpt>
      <trkpt lat="46.88483" lon="8.55181">
        <ele>1287</ele>
        <time>2021-08-10T14:44:48.080Z</time>
      </trkpt>
      <trkpt lat="46.88482" lon="8.55182">
        <ele>1287</ele>
        <time>2021-08-10T14:44:49.080Z</time>
      </trkpt>
      <trkpt lat="46.88481" lon="8.55182">
        <ele>1287</ele>
        <time>2021-08-10T14:44:50.080Z</time>
      </trkpt>
      <trkpt lat="46.88481" lon="8.55181">
        <ele>1287</ele>
        <time>2021-08-10T14:45:22.111Z</time>
      </trkpt>
      <trkpt lat="46.8848" lon="8.5518">
        <ele>1287</ele>
        <time>2021-08-10T14:45:23.110Z</time>
      </trkpt>
      <trkpt lat="46.8848" lon="8.55178">
        <ele>1287</ele>
        <time>2021-08-10T14:45:24.110Z</time>
      </trkpt>
      <trkpt lat="46.8848" lon="8.55176">
        <ele>1287</ele>
        <time>2021-08-10T14:45:33.210Z</time>
      </trkpt>
      <trkpt lat="46.8848" lon="8.55175">
        <ele>1288</ele>
        <time>2021-08-10T14:45:34.210Z</time>
      </trkpt>
      <trkpt lat="46.8848" lon="8.55174">
        <ele>1288</ele>
        <time>2021-08-10T14:45:35.210Z</time>
      </trkpt>
      <trkpt lat="46.88479" lon="8.55174">
        <ele>1288</ele>
        <time>2021-08-10T14:45:36.209Z</time>
      </trkpt>
      <trkpt lat="46.88478" lon="8.55173">
        <ele>1288</ele>
        <time>2021-08-10T14:45:37.209Z</time>
      </trkpt>
      <trkpt lat="46.88477" lon="8.55173">
        <ele>1288</ele>
        <time>2021-08-10T14:45:38.210Z</time>
      </trkpt>
      <trkpt lat="46.88476" lon="8.55173">
        <ele>1288</ele>
        <time>2021-08-10T14:45:39.209Z</time>
      </trkpt>
      <trkpt lat="46.88476" lon="8.55172">
        <ele>1288</ele>
        <time>2021-08-10T14:45:53.382Z</time>
      </trkpt>
      <trkpt lat="46.88475" lon="8.55172">
        <ele>1288</ele>
        <time>2021-08-10T14:45:54.381Z</time>
      </trkpt>
      <trkpt lat="46.88474" lon="8.55172">
        <ele>1288</ele>
        <time>2021-08-10T14:45:55.381Z</time>
      </trkpt>
      <trkpt lat="46.88473" lon="8.55171">
        <ele>1288</ele>
        <time>2021-08-10T14:45:56.381Z</time>
      </trkpt>
      <trkpt lat="46.88472" lon="8.55171">
        <ele>1288</ele>
        <time>2021-08-10T14:45:57.382Z</time>
      </trkpt>
      <trkpt lat="46.88472" lon="8.55171">
        <ele>1288</ele>
        <time>2021-08-10T14:45:58.381Z</time>
      </trkpt>
      <trkpt lat="46.88472" lon="8.5517">
        <ele>1288</ele>
        <time>2021-08-10T14:46:34.459Z</time>
      </trkpt>
      <trkpt lat="46.88471" lon="8.55169">
        <ele>1288</ele>
        <time>2021-08-10T14:46:35.459Z</time>
      </trkpt>
      <trkpt lat="46.88471" lon="8.55167">
        <ele>1288</ele>
        <time>2021-08-10T14:46:36.460Z</time>
      </trkpt>
      <trkpt lat="46.8847" lon="8.55168">
        <ele>1288</ele>
        <time>2021-08-10T14:46:55.637Z</time>
      </trkpt>
      <trkpt lat="46.88469" lon="8.55168">
        <ele>1288</ele>
        <time>2021-08-10T14:46:56.638Z</time>
      </trkpt>
      <trkpt lat="46.88469" lon="8.55169">
        <ele>1287</ele>
        <time>2021-08-10T14:46:57.637Z</time>
      </trkpt>
      <trkpt lat="46.88469" lon="8.55169">
        <ele>1287</ele>
        <time>2021-08-10T14:46:58.637Z</time>
      </trkpt>
      <trkpt lat="46.88468" lon="8.5517">
        <ele>1287</ele>
        <time>2021-08-10T14:46:59.638Z</time>
      </trkpt>
      <trkpt lat="46.88468" lon="8.5517">
        <ele>1287</ele>
        <time>2021-08-10T14:47:07.721Z</time>
      </trkpt>
      <trkpt lat="46.88468" lon="8.55171">
        <ele>1287</ele>
        <time>2021-08-10T14:47:24.616Z</time>
      </trkpt>
      <trkpt lat="46.88468" lon="8.55171">
        <ele>1287</ele>
        <time>2021-08-10T14:48:17.466Z</time>
      </trkpt>
      <trkpt lat="46.88467" lon="8.55171">
        <ele>1287</ele>
        <time>2021-08-10T14:48:18.466Z</time>
      </trkpt>
      <trkpt lat="46.88467" lon="8.5517">
        <ele>1287</ele>
        <time>2021-08-10T14:48:43.344Z</time>
      </trkpt>
      <trkpt lat="46.88467" lon="8.5517">
        <ele>1287</ele>
        <time>2021-08-10T14:48:44.344Z</time>
      </trkpt>
      <trkpt lat="46.88466" lon="8.55169">
        <ele>1287</ele>
        <time>2021-08-10T14:48:45.344Z</time>
      </trkpt>
      <trkpt lat="46.88466" lon="8.55168">
        <ele>1287</ele>
        <time>2021-08-10T14:48:46.343Z</time>
      </trkpt>
      <trkpt lat="46.88465" lon="8.55168">
        <ele>1287</ele>
        <time>2021-08-10T14:48:54.447Z</time>
      </trkpt>
      <trkpt lat="46.88465" lon="8.55168">
        <ele>1287</ele>
        <time>2021-08-10T14:48:55.448Z</time>
      </trkpt>
      <trkpt lat="46.88465" lon="8.55168">
        <ele>1288</ele>
        <time>2021-08-10T14:48:56.447Z</time>
      </trkpt>
      <trkpt lat="46.88464" lon="8.55168">
        <ele>1288</ele>
        <time>2021-08-10T14:48:57.447Z</time>
      </trkpt>
      <trkpt lat="46.88464" lon="8.55168">
        <ele>1288</ele>
        <time>2021-08-10T14:48:58.447Z</time>
      </trkpt>
      <trkpt lat="46.88463" lon="8.55169">
        <ele>1288</ele>
        <time>2021-08-10T14:48:59.447Z</time>
      </trkpt>
      <trkpt lat="46.88462" lon="8.5517">
        <ele>1289</ele>
        <time>2021-08-10T14:49:00.447Z</time>
      </trkpt>
      <trkpt lat="46.88462" lon="8.55171">
        <ele>1289</ele>
        <time>2021-08-10T14:49:01.448Z</time>
      </trkpt>
      <trkpt lat="46.88461" lon="8.55172">
        <ele>1289</ele>
        <time>2021-08-10T14:49:02.448Z</time>
      </trkpt>
      <trkpt lat="46.88461" lon="8.55173">
        <ele>1289</ele>
        <time>2021-08-10T14:49:28.493Z</time>
      </trkpt>
      <trkpt lat="46.88461" lon="8.55174">
        <ele>1289</ele>
        <time>2021-08-10T14:49:35.361Z</time>
      </trkpt>
      <trkpt lat="46.8846" lon="8.55175">
        <ele>1289</ele>
        <time>2021-08-10T14:49:36.361Z</time>
      </trkpt>
      <trkpt lat="46.8846" lon="8.55176">
        <ele>1289</ele>
        <time>2021-08-10T14:49:37.362Z</time>
      </trkpt>
      <trkpt lat="46.8846" lon="8.55176">
        <ele>1288</ele>
        <time>2021-08-10T14:49:40.349Z</time>
      </trkpt>
      <trkpt lat="46.8846" lon="8.55177">
        <ele>1288</ele>
        <time>2021-08-10T14:49:41.350Z</time>
      </trkpt>
      <trkpt lat="46.88459" lon="8.55177">
        <ele>1288</ele>
        <time>2021-08-10T14:49:42.349Z</time>
      </trkpt>
      <trkpt lat="46.88459" lon="8.55178">
        <ele>1288</ele>
        <time>2021-08-10T14:49:43.350Z</time>
      </trkpt>
      <trkpt lat="46.88458" lon="8.55178">
        <ele>1288</ele>
        <time>2021-08-10T14:49:44.349Z</time>
      </trkpt>
      <trkpt lat="46.88457" lon="8.55178">
        <ele>1288</ele>
        <time>2021-08-10T14:49:45.349Z</time>
      </trkpt>
      <trkpt lat="46.88456" lon="8.55178">
        <ele>1288</ele>
        <time>2021-08-10T14:50:07.504Z</time>
      </trkpt>
      <trkpt lat="46.88455" lon="8.55179">
        <ele>1288</ele>
        <time>2021-08-10T14:50:08.504Z</time>
      </trkpt>
      <trkpt lat="46.88455" lon="8.5518">
        <ele>1288</ele>
        <time>2021-08-10T14:50:22.344Z</time>
      </trkpt>
      <trkpt lat="46.88454" lon="8.55181">
        <ele>1288</ele>
        <time>2021-08-10T14:50:38.134Z</time>
      </trkpt>
      <trkpt lat="46.88453" lon="8.55181">
        <ele>1289</ele>
        <time>2021-08-10T14:50:39.134Z</time>
      </trkpt>
      <trkpt lat="46.88453" lon="8.55181">
        <ele>1289</ele>
        <time>2021-08-10T14:50:40.134Z</time>
      </trkpt>
      <trkpt lat="46.88453" lon="8.5518">
        <ele>1289</ele>
        <time>2021-08-10T14:50:53.192Z</time>
      </trkpt>
      <trkpt lat="46.88452" lon="8.5518">
        <ele>1289</ele>
        <time>2021-08-10T14:50:54.191Z</time>
      </trkpt>
      <trkpt lat="46.88452" lon="8.5518">
        <ele>1290</ele>
        <time>2021-08-10T14:51:01.943Z</time>
      </trkpt>
      <trkpt lat="46.88451" lon="8.5518">
        <ele>1290</ele>
        <time>2021-08-10T14:51:02.943Z</time>
      </trkpt>
      <trkpt lat="46.88451" lon="8.55181">
        <ele>1291</ele>
        <time>2021-08-10T14:51:03.943Z</time>
      </trkpt>
      <trkpt lat="46.88451" lon="8.55181">
        <ele>1291</ele>
        <time>2021-08-10T14:51:04.943Z</time>
      </trkpt>
      <trkpt lat="46.88451" lon="8.55182">
        <ele>1292</ele>
        <time>2021-08-10T14:51:05.943Z</time>
      </trkpt>
      <trkpt lat="46.88451" lon="8.55182">
        <ele>1293</ele>
        <time>2021-08-10T14:51:41.080Z</time>
      </trkpt>
      <trkpt lat="46.8845" lon="8.55182">
        <ele>1293</ele>
        <time>2021-08-10T14:51:42.080Z</time>
      </trkpt>
      <trkpt lat="46.8845" lon="8.55181">
        <ele>1294</ele>
        <time>2021-08-10T14:51:56.841Z</time>
      </trkpt>
      <trkpt lat="46.8845" lon="8.55181">
        <ele>1295</ele>
        <time>2021-08-10T14:51:57.840Z</time>
      </trkpt>
      <trkpt lat="46.88449" lon="8.55181">
        <ele>1296</ele>
        <time>2021-08-10T14:52:05.944Z</time>
      </trkpt>
      <trkpt lat="46.88448" lon="8.55181">
        <ele>1296</ele>
        <time>2021-08-10T14:52:06.944Z</time>
      </trkpt>
      <trkpt lat="46.88447" lon="8.5518">
        <ele>1296</ele>
        <time>2021-08-10T14:52:07.944Z</time>
      </trkpt>
      <trkpt lat="46.88448" lon="8.55179">
        <ele>1297</ele>
        <time>2021-08-10T14:52:17.728Z</time>
      </trkpt>
      <trkpt lat="46.88448" lon="8.55178">
        <ele>1297</ele>
        <time>2021-08-10T14:52:58.571Z</time>
      </trkpt>
      <trkpt lat="46.88447" lon="8.55176">
        <ele>1297</ele>
        <time>2021-08-10T14:53:07.382Z</time>
      </trkpt>
      <trkpt lat="46.88446" lon="8.55177">
        <ele>1297</ele>
        <time>2021-08-10T14:53:08.382Z</time>
      </trkpt>
      <trkpt lat="46.88445" lon="8.55177">
        <ele>1297</ele>
        <time>2021-08-10T14:53:09.382Z</time>
      </trkpt>
      <trkpt lat="46.88444" lon="8.55177">
        <ele>1298</ele>
        <time>2021-08-10T14:53:30.449Z</time>
      </trkpt>
      <trkpt lat="46.88444" lon="8.55177">
        <ele>1298</ele>
        <time>2021-08-10T14:53:31.450Z</time>
      </trkpt>
      <trkpt lat="46.88444" lon="8.55177">
        <ele>1298</ele>
        <time>2021-08-10T14:53:32.450Z</time>
      </trkpt>
      <trkpt lat="46.88445" lon="8.55177">
        <ele>1299</ele>
        <time>2021-08-10T14:53:53.571Z</time>
      </trkpt>
      <trkpt lat="46.88445" lon="8.55177">
        <ele>1299</ele>
        <time>2021-08-10T14:53:54.571Z</time>
      </trkpt>
      <trkpt lat="46.88445" lon="8.55177">
        <ele>1300</ele>
        <time>2021-08-10T14:54:06.352Z</time>
      </trkpt>
      <trkpt lat="46.88446" lon="8.55177">
        <ele>1300</ele>
        <time>2021-08-10T14:54:15.079Z</time>
      </trkpt>
      <trkpt lat="46.88446" lon="8.55176">
        <ele>1300</ele>
        <time>2021-08-10T14:54:16.079Z</time>
      </trkpt>
      <trkpt lat="46.88447" lon="8.55176">
        <ele>1301</ele>
        <time>2021-08-10T14:54:17.080Z</time>
      </trkpt>
      <trkpt lat="46.88448" lon="8.55175">
        <ele>1301</ele>
        <time>2021-08-10T14:54:18.080Z</time>
      </trkpt>
      <trkpt lat="46.88448" lon="8.55174">
        <ele>1301</ele>
        <time>2021-08-10T14:54:19.080Z</time>
      </trkpt>
      <trkpt lat="46.88448" lon="8.55173">
        <ele>1301</ele>
        <time>2021-08-10T14:54:26.207Z</time>
      </trkpt>
      <trkpt lat="46.88448" lon="8.55172">
        <ele>1301</ele>
        <time>2021-08-10T14:54:27.208Z</time>
      </trkpt>
      <trkpt lat="46.88448" lon="8.55172">
        <ele>1301</ele>
        <time>2021-08-10T14:54:28.208Z</time>
      </trkpt>
      <trkpt lat="46.88447" lon="8.55173">
        <ele>1301</ele>
        <time>2021-08-10T14:54:30.336Z</time>
      </trkpt>
      <trkpt lat="46.88446" lon="8.55173">
        <ele>1302</ele>
        <time>2021-08-10T14:54:31.336Z</time>
      </trkpt>
      <trkpt lat="46.88446" lon="8.55173">
        <ele>1302</ele>
        <time>2021-08-10T14:54:32.335Z</time>
      </trkpt>
      <trkpt lat="46.88445" lon="8.55173">
        <ele>1302</ele>
        <time>2021-08-10T14:54:33.335Z</time>
      </trkpt>
      <trkpt lat="46.88445" lon="8.55172">
        <ele>1302</ele>
        <time>2021-08-10T14:54:38.479Z</time>
      </trkpt>
      <trkpt lat="46.88444" lon="8.55172">
        <ele>1302</ele>
        <time>2021-08-10T14:54:39.479Z</time>
      </trkpt>
      <trkpt lat="46.88444" lon="8.55172">
        <ele>1302</ele>
        <time>2021-08-10T14:54:40.479Z</time>
      </trkpt>
      <trkpt lat="46.88443" lon="8.55172">
        <ele>1302</ele>
        <time>2021-08-10T14:54:41.479Z</time>
      </trkpt>
      <trkpt lat="46.88443" lon="8.55172">
        <ele>1302</ele>
        <time>2021-08-10T14:54:42.479Z</time>
      </trkpt>
      <trkpt lat="46.88442" lon="8.55171">
        <ele>1303</ele>
        <time>2021-08-10T14:54:50.584Z</time>
      </trkpt>
      <trkpt lat="46.88441" lon="8.5517">
        <ele>1303</ele>
        <time>2021-08-10T14:54:51.583Z</time>
      </trkpt>
      <trkpt lat="46.88439" lon="8.55169">
        <ele>1303</ele>
        <time>2021-08-10T14:55:02.369Z</time>
      </trkpt>
      <trkpt lat="46.88438" lon="8.55168">
        <ele>1303</ele>
        <time>2021-08-10T14:55:03.369Z</time>
      </trkpt>
      <trkpt lat="46.88436" lon="8.55168">
        <ele>1304</ele>
        <time>2021-08-10T14:55:05.192Z</time>
      </trkpt>
      <trkpt lat="46.88435" lon="8.55168">
        <ele>1304</ele>
        <time>2021-08-10T14:55:13.938Z</time>
      </trkpt>
      <trkpt lat="46.88435" lon="8.55169">
        <ele>1305</ele>
        <time>2021-08-10T14:55:14.938Z</time>
      </trkpt>
      <trkpt lat="46.88434" lon="8.55169">
        <ele>1305</ele>
        <time>2021-08-10T14:55:17.793Z</time>
      </trkpt>
      <trkpt lat="46.88432" lon="8.55169">
        <ele>1306</ele>
        <time>2021-08-10T14:55:34.561Z</time>
      </trkpt>
      <trkpt lat="46.88431" lon="8.5517">
        <ele>1306</ele>
        <time>2021-08-10T14:55:35.561Z</time>
      </trkpt>
      <trkpt lat="46.88429" lon="8.5517">
        <ele>1307</ele>
        <time>2021-08-10T14:55:39.331Z</time>
      </trkpt>
      <trkpt lat="46.88428" lon="8.5517">
        <ele>1307</ele>
        <time>2021-08-10T14:55:40.332Z</time>
      </trkpt>
      <trkpt lat="46.88428" lon="8.5517">
        <ele>1307</ele>
        <time>2021-08-10T14:55:41.331Z</time>
      </trkpt>
      <trkpt lat="46.88428" lon="8.5517">
        <ele>1308</ele>
        <time>2021-08-10T14:55:42.331Z</time>
      </trkpt>
      <trkpt lat="46.88427" lon="8.5517">
        <ele>1309</ele>
        <time>2021-08-10T14:55:43.332Z</time>
      </trkpt>
      <trkpt lat="46.88426" lon="8.5517">
        <ele>1310</ele>
        <time>2021-08-10T14:55:58.475Z</time>
      </trkpt>
      <trkpt lat="46.88424" lon="8.55169">
        <ele>1310</ele>
        <time>2021-08-10T14:55:59.474Z</time>
      </trkpt>
      <trkpt lat="46.88424" lon="8.55168">
        <ele>1311</ele>
        <time>2021-08-10T14:56:00.474Z</time>
      </trkpt>
      <trkpt lat="46.88423" lon="8.55166">
        <ele>1311</ele>
        <time>2021-08-10T14:56:01.475Z</time>
      </trkpt>
      <trkpt lat="46.88423" lon="8.55165">
        <ele>1311</ele>
        <time>2021-08-10T14:56:02.474Z</time>
      </trkpt>
      <trkpt lat="46.88423" lon="8.55164">
        <ele>1312</ele>
        <time>2021-08-10T14:56:03.474Z</time>
      </trkpt>
      <trkpt lat="46.88423" lon="8.55164">
        <ele>1312</ele>
        <time>2021-08-10T14:56:04.475Z</time>
      </trkpt>
      <trkpt lat="46.88422" lon="8.55164">
        <ele>1312</ele>
        <time>2021-08-10T14:56:05.475Z</time>
      </trkpt>
      <trkpt lat="46.88422" lon="8.55163">
        <ele>1313</ele>
        <time>2021-08-10T14:56:06.475Z</time>
      </trkpt>
      <trkpt lat="46.88421" lon="8.55163">
        <ele>1313</ele>
        <time>2021-08-10T14:56:07.475Z</time>
      </trkpt>
      <trkpt lat="46.8842" lon="8.55163">
        <ele>1314</ele>
        <time>2021-08-10T14:56:08.475Z</time>
      </trkpt>
      <trkpt lat="46.8842" lon="8.55162">
        <ele>1314</ele>
        <time>2021-08-10T14:56:09.475Z</time>
      </trkpt>
      <trkpt lat="46.8842" lon="8.55161">
        <ele>1315</ele>
        <time>2021-08-10T14:56:10.475Z</time>
      </trkpt>
      <trkpt lat="46.8842" lon="8.55159">
        <ele>1315</ele>
        <time>2021-08-10T14:56:11.474Z</time>
      </trkpt>
      <trkpt lat="46.8842" lon="8.55157">
        <ele>1316</ele>
        <time>2021-08-10T14:56:12.474Z</time>
      </trkpt>
      <trkpt lat="46.8842" lon="8.55156">
        <ele>1316</ele>
        <time>2021-08-10T14:56:13.475Z</time>
      </trkpt>
      <trkpt lat="46.8842" lon="8.55155">
        <ele>1316</ele>
        <time>2021-08-10T14:56:14.474Z</time>
      </trkpt>
      <trkpt lat="46.8842" lon="8.55154">
        <ele>1316</ele>
        <time>2021-08-10T14:56:15.475Z</time>
      </trkpt>
      <trkpt lat="46.88421" lon="8.55154">
        <ele>1317</ele>
        <time>2021-08-10T14:56:16.474Z</time>
      </trkpt>
      <trkpt lat="46.88423" lon="8.55153">
        <ele>1317</ele>
        <time>2021-08-10T14:56:17.474Z</time>
      </trkpt>
      <trkpt lat="46.88424" lon="8.55153">
        <ele>1317</ele>
        <time>2021-08-10T14:56:18.475Z</time>
      </trkpt>
      <trkpt lat="46.88424" lon="8.55151">
        <ele>1318</ele>
        <time>2021-08-10T14:56:27.557Z</time>
      </trkpt>
      <trkpt lat="46.88425" lon="8.5515">
        <ele>1318</ele>
        <time>2021-08-10T14:56:28.558Z</time>
      </trkpt>
      <trkpt lat="46.88426" lon="8.5515">
        <ele>1319</ele>
        <time>2021-08-10T14:56:34.317Z</time>
      </trkpt>
      <trkpt lat="46.88426" lon="8.55149">
        <ele>1320</ele>
        <time>2021-08-10T14:56:35.317Z</time>
      </trkpt>
      <trkpt lat="46.88427" lon="8.55149">
        <ele>1320</ele>
        <time>2021-08-10T14:56:36.316Z</time>
      </trkpt>
      <trkpt lat="46.88429" lon="8.55148">
        <ele>1321</ele>
        <time>2021-08-10T14:56:37.316Z</time>
      </trkpt>
      <trkpt lat="46.8843" lon="8.55146">
        <ele>1322</ele>
        <time>2021-08-10T14:56:38.317Z</time>
      </trkpt>
      <trkpt lat="46.88429" lon="8.55145">
        <ele>1322</ele>
        <time>2021-08-10T14:56:47.309Z</time>
      </trkpt>
      <trkpt lat="46.88429" lon="8.55144">
        <ele>1322</ele>
        <time>2021-08-10T14:56:48.309Z</time>
      </trkpt>
      <trkpt lat="46.88428" lon="8.55143">
        <ele>1322</ele>
        <time>2021-08-10T14:56:49.310Z</time>
      </trkpt>
      <trkpt lat="46.88429" lon="8.55142">
        <ele>1322</ele>
        <time>2021-08-10T14:56:50.310Z</time>
      </trkpt>
      <trkpt lat="46.88429" lon="8.55142">
        <ele>1322</ele>
        <time>2021-08-10T14:56:51.310Z</time>
      </trkpt>
      <trkpt lat="46.88429" lon="8.55142">
        <ele>1322</ele>
        <time>2021-08-10T14:56:52.310Z</time>
      </trkpt>
      <trkpt lat="46.8843" lon="8.55142">
        <ele>1321</ele>
        <time>2021-08-10T14:56:53.310Z</time>
      </trkpt>
      <trkpt lat="46.8843" lon="8.55141">
        <ele>1320</ele>
        <time>2021-08-10T14:56:54.311Z</time>
      </trkpt>
      <trkpt lat="46.8843" lon="8.55141">
        <ele>1320</ele>
        <time>2021-08-10T14:56:55.310Z</time>
      </trkpt>
      <trkpt lat="46.88431" lon="8.55141">
        <ele>1320</ele>
        <time>2021-08-10T14:56:56.310Z</time>
      </trkpt>
      <trkpt lat="46.88432" lon="8.5514">
        <ele>1319</ele>
        <time>2021-08-10T14:56:57.311Z</time>
      </trkpt>
      <trkpt lat="46.88432" lon="8.5514">
        <ele>1319</ele>
        <time>2021-08-10T14:56:58.310Z</time>
      </trkpt>
      <trkpt lat="46.88432" lon="8.55139">
        <ele>1319</ele>
        <time>2021-08-10T14:56:59.310Z</time>
      </trkpt>
      <trkpt lat="46.88433" lon="8.55139">
        <ele>1319</ele>
        <time>2021-08-10T14:57:00.310Z</time>
      </trkpt>
      <trkpt lat="46.88433" lon="8.55138">
        <ele>1318</ele>
        <time>2021-08-10T14:57:01.311Z</time>
      </trkpt>
      <trkpt lat="46.88434" lon="8.55137">
        <ele>1318</ele>
        <time>2021-08-10T14:57:02.310Z</time>
      </trkpt>
      <trkpt lat="46.88434" lon="8.55137">
        <ele>1317</ele>
        <time>2021-08-10T14:57:03.310Z</time>
      </trkpt>
      <trkpt lat="46.88435" lon="8.55136">
        <ele>1317</ele>
        <time>2021-08-10T14:57:04.310Z</time>
      </trkpt>
      <trkpt lat="46.88435" lon="8.55135">
        <ele>1316</ele>
        <time>2021-08-10T14:57:05.310Z</time>
      </trkpt>
      <trkpt lat="46.88435" lon="8.55134">
        <ele>1316</ele>
        <time>2021-08-10T14:57:06.310Z</time>
      </trkpt>
      <trkpt lat="46.88435" lon="8.55134">
        <ele>1315</ele>
        <time>2021-08-10T14:57:07.310Z</time>
      </trkpt>
      <trkpt lat="46.88434" lon="8.55133">
        <ele>1315</ele>
        <time>2021-08-10T14:57:08.311Z</time>
      </trkpt>
      <trkpt lat="46.88433" lon="8.55133">
        <ele>1315</ele>
        <time>2021-08-10T14:57:09.311Z</time>
      </trkpt>
      <trkpt lat="46.88432" lon="8.55133">
        <ele>1315</ele>
        <time>2021-08-10T14:57:15.456Z</time>
      </trkpt>
      <trkpt lat="46.8843" lon="8.55134">
        <ele>1315</ele>
        <time>2021-08-10T14:57:16.455Z</time>
      </trkpt>
      <trkpt lat="46.8843" lon="8.55134">
        <ele>1315</ele>
        <time>2021-08-10T14:57:17.456Z</time>
      </trkpt>
      <trkpt lat="46.88428" lon="8.55135">
        <ele>1315</ele>
        <time>2021-08-10T14:57:18.455Z</time>
      </trkpt>
      <trkpt lat="46.88427" lon="8.55135">
        <ele>1315</ele>
        <time>2021-08-10T14:57:19.456Z</time>
      </trkpt>
      <trkpt lat="46.88426" lon="8.55136">
        <ele>1315</ele>
        <time>2021-08-10T14:57:20.455Z</time>
      </trkpt>
      <trkpt lat="46.88425" lon="8.55137">
        <ele>1314</ele>
        <time>2021-08-10T14:57:21.456Z</time>
      </trkpt>
      <trkpt lat="46.88424" lon="8.55137">
        <ele>1314</ele>
        <time>2021-08-10T14:57:22.456Z</time>
      </trkpt>
      <trkpt lat="46.88423" lon="8.55138">
        <ele>1314</ele>
        <time>2021-08-10T14:57:23.456Z</time>
      </trkpt>
      <trkpt lat="46.88423" lon="8.55139">
        <ele>1313</ele>
        <time>2021-08-10T14:57:24.456Z</time>
      </trkpt>
      <trkpt lat="46.88422" lon="8.5514">
        <ele>1313</ele>
        <time>2021-08-10T14:57:25.456Z</time>
      </trkpt>
      <trkpt lat="46.8842" lon="8.5514">
        <ele>1313</ele>
        <time>2021-08-10T14:57:26.456Z</time>
      </trkpt>
      <trkpt lat="46.88418" lon="8.55139">
        <ele>1313</ele>
        <time>2021-08-10T14:57:27.455Z</time>
      </trkpt>
      <trkpt lat="46.88417" lon="8.55139">
        <ele>1312</ele>
        <time>2021-08-10T14:57:28.456Z</time>
      </trkpt>
      <trkpt lat="46.88416" lon="8.5514">
        <ele>1312</ele>
        <time>2021-08-10T14:57:29.456Z</time>
      </trkpt>
      <trkpt lat="46.88415" lon="8.5514">
        <ele>1312</ele>
        <time>2021-08-10T14:57:30.455Z</time>
      </trkpt>
      <trkpt lat="46.88414" lon="8.5514">
        <ele>1312</ele>
        <time>2021-08-10T14:57:31.456Z</time>
      </trkpt>
      <trkpt lat="46.88413" lon="8.55142">
        <ele>1312</ele>
        <time>2021-08-10T14:57:32.456Z</time>
      </trkpt>
      <trkpt lat="46.88412" lon="8.55143">
        <ele>1311</ele>
        <time>2021-08-10T14:57:33.455Z</time>
      </trkpt>
      <trkpt lat="46.88412" lon="8.55143">
        <ele>1311</ele>
        <time>2021-08-10T14:57:34.456Z</time>
      </trkpt>
      <trkpt lat="46.88412" lon="8.55143">
        <ele>1311</ele>
        <time>2021-08-10T14:57:39.598Z</time>
      </trkpt>
      <trkpt lat="46.88412" lon="8.55144">
        <ele>1311</ele>
        <time>2021-08-10T14:57:40.598Z</time>
      </trkpt>
      <trkpt lat="46.88412" lon="8.55144">
        <ele>1311</ele>
        <time>2021-08-10T14:57:41.598Z</time>
      </trkpt>
      <trkpt lat="46.88411" lon="8.55144">
        <ele>1311</ele>
        <time>2021-08-10T14:57:42.598Z</time>
      </trkpt>
      <trkpt lat="46.88411" lon="8.55145">
        <ele>1311</ele>
        <time>2021-08-10T14:57:43.598Z</time>
      </trkpt>
      <trkpt lat="46.88411" lon="8.55146">
        <ele>1311</ele>
        <time>2021-08-10T14:57:44.597Z</time>
      </trkpt>
      <trkpt lat="46.8841" lon="8.55146">
        <ele>1311</ele>
        <time>2021-08-10T14:57:45.597Z</time>
      </trkpt>
      <trkpt lat="46.8841" lon="8.55147">
        <ele>1312</ele>
        <time>2021-08-10T14:57:46.598Z</time>
      </trkpt>
      <trkpt lat="46.8841" lon="8.55147">
        <ele>1313</ele>
        <time>2021-08-10T14:57:47.598Z</time>
      </trkpt>
      <trkpt lat="46.88409" lon="8.55147">
        <ele>1314</ele>
        <time>2021-08-10T14:57:48.597Z</time>
      </trkpt>
      <trkpt lat="46.88408" lon="8.55146">
        <ele>1314</ele>
        <time>2021-08-10T14:57:49.597Z</time>
      </trkpt>
      <trkpt lat="46.88407" lon="8.55145">
        <ele>1315</ele>
        <time>2021-08-10T14:57:51.702Z</time>
      </trkpt>
      <trkpt lat="46.88407" lon="8.55144">
        <ele>1315</ele>
        <time>2021-08-10T14:57:52.702Z</time>
      </trkpt>
      <trkpt lat="46.88407" lon="8.55143">
        <ele>1316</ele>
        <time>2021-08-10T14:57:53.702Z</time>
      </trkpt>
      <trkpt lat="46.88406" lon="8.55142">
        <ele>1316</ele>
        <time>2021-08-10T14:57:54.702Z</time>
      </trkpt>
      <trkpt lat="46.88407" lon="8.55141">
        <ele>1317</ele>
        <time>2021-08-10T14:57:55.702Z</time>
      </trkpt>
      <trkpt lat="46.88407" lon="8.5514">
        <ele>1317</ele>
        <time>2021-08-10T14:57:56.702Z</time>
      </trkpt>
      <trkpt lat="46.88408" lon="8.55139">
        <ele>1317</ele>
        <time>2021-08-10T14:57:57.701Z</time>
      </trkpt>
      <trkpt lat="46.88408" lon="8.55138">
        <ele>1317</ele>
        <time>2021-08-10T14:57:58.702Z</time>
      </trkpt>
      <trkpt lat="46.88409" lon="8.55138">
        <ele>1317</ele>
        <time>2021-08-10T14:57:59.701Z</time>
      </trkpt>
      <trkpt lat="46.8841" lon="8.55137">
        <ele>1317</ele>
        <time>2021-08-10T14:58:10.806Z</time>
      </trkpt>
      <trkpt lat="46.88411" lon="8.55136">
        <ele>1317</ele>
        <time>2021-08-10T14:58:11.806Z</time>
      </trkpt>
      <trkpt lat="46.88412" lon="8.55135">
        <ele>1317</ele>
        <time>2021-08-10T14:58:12.806Z</time>
      </trkpt>
      <trkpt lat="46.88413" lon="8.55134">
        <ele>1317</ele>
        <time>2021-08-10T14:58:13.806Z</time>
      </trkpt>
      <trkpt lat="46.88414" lon="8.55133">
        <ele>1316</ele>
        <time>2021-08-10T14:58:14.806Z</time>
      </trkpt>
      <trkpt lat="46.88414" lon="8.55132">
        <ele>1316</ele>
        <time>2021-08-10T14:58:15.805Z</time>
      </trkpt>
      <trkpt lat="46.88415" lon="8.55131">
        <ele>1316</ele>
        <time>2021-08-10T14:58:16.806Z</time>
      </trkpt>
      <trkpt lat="46.88415" lon="8.55131">
        <ele>1316</ele>
        <time>2021-08-10T14:58:17.806Z</time>
      </trkpt>
      <trkpt lat="46.88415" lon="8.5513">
        <ele>1316</ele>
        <time>2021-08-10T14:58:18.805Z</time>
      </trkpt>
      <trkpt lat="46.88414" lon="8.55129">
        <ele>1316</ele>
        <time>2021-08-10T14:58:19.805Z</time>
      </trkpt>
      <trkpt lat="46.88414" lon="8.55128">
        <ele>1316</ele>
        <time>2021-08-10T14:58:20.806Z</time>
      </trkpt>
      <trkpt lat="46.88414" lon="8.55127">
        <ele>1317</ele>
        <time>2021-08-10T14:58:21.806Z</time>
      </trkpt>
      <trkpt lat="46.88414" lon="8.55125">
        <ele>1317</ele>
        <time>2021-08-10T14:58:22.806Z</time>
      </trkpt>
      <trkpt lat="46.88415" lon="8.55124">
        <ele>1317</ele>
        <time>2021-08-10T14:58:23.805Z</time>
      </trkpt>
      <trkpt lat="46.88416" lon="8.55122">
        <ele>1318</ele>
        <time>2021-08-10T14:58:24.806Z</time>
      </trkpt>
      <trkpt lat="46.88416" lon="8.55121">
        <ele>1318</ele>
        <time>2021-08-10T14:58:30.841Z</time>
      </trkpt>
      <trkpt lat="46.88416" lon="8.5512">
        <ele>1318</ele>
        <time>2021-08-10T14:58:31.841Z</time>
      </trkpt>
      <trkpt lat="46.88416" lon="8.55118">
        <ele>1319</ele>
        <time>2021-08-10T14:58:32.841Z</time>
      </trkpt>
      <trkpt lat="46.88415" lon="8.55117">
        <ele>1319</ele>
        <time>2021-08-10T14:58:33.840Z</time>
      </trkpt>
      <trkpt lat="46.88415" lon="8.55117">
        <ele>1319</ele>
        <time>2021-08-10T14:58:34.840Z</time>
      </trkpt>
      <trkpt lat="46.88415" lon="8.55116">
        <ele>1319</ele>
        <time>2021-08-10T14:58:35.840Z</time>
      </trkpt>
      <trkpt lat="46.88415" lon="8.55115">
        <ele>1320</ele>
        <time>2021-08-10T14:58:36.841Z</time>
      </trkpt>
      <trkpt lat="46.88415" lon="8.55114">
        <ele>1320</ele>
        <time>2021-08-10T14:58:37.841Z</time>
      </trkpt>
      <trkpt lat="46.88414" lon="8.55113">
        <ele>1320</ele>
        <time>2021-08-10T14:58:38.840Z</time>
      </trkpt>
      <trkpt lat="46.88413" lon="8.55112">
        <ele>1321</ele>
        <time>2021-08-10T14:58:39.841Z</time>
      </trkpt>
      <trkpt lat="46.88412" lon="8.55111">
        <ele>1321</ele>
        <time>2021-08-10T14:58:40.840Z</time>
      </trkpt>
      <trkpt lat="46.88412" lon="8.5511">
        <ele>1321</ele>
        <time>2021-08-10T14:58:41.840Z</time>
      </trkpt>
      <trkpt lat="46.88412" lon="8.55108">
        <ele>1321</ele>
        <time>2021-08-10T14:58:42.840Z</time>
      </trkpt>
      <trkpt lat="46.88412" lon="8.55108">
        <ele>1321</ele>
        <time>2021-08-10T14:58:43.841Z</time>
      </trkpt>
      <trkpt lat="46.88411" lon="8.55107">
        <ele>1321</ele>
        <time>2021-08-10T14:58:44.841Z</time>
      </trkpt>
      <trkpt lat="46.88411" lon="8.55108">
        <ele>1320</ele>
        <time>2021-08-10T14:58:45.841Z</time>
      </trkpt>
      <trkpt lat="46.8841" lon="8.55109">
        <ele>1320</ele>
        <time>2021-08-10T14:58:46.841Z</time>
      </trkpt>
      <trkpt lat="46.8841" lon="8.5511">
        <ele>1320</ele>
        <time>2021-08-10T14:58:47.841Z</time>
      </trkpt>
      <trkpt lat="46.88409" lon="8.55111">
        <ele>1320</ele>
        <time>2021-08-10T14:58:48.841Z</time>
      </trkpt>
      <trkpt lat="46.88409" lon="8.55111">
        <ele>1320</ele>
        <time>2021-08-10T14:58:49.840Z</time>
      </trkpt>
      <trkpt lat="46.88409" lon="8.55112">
        <ele>1320</ele>
        <time>2021-08-10T14:58:50.841Z</time>
      </trkpt>
      <trkpt lat="46.88408" lon="8.55113">
        <ele>1321</ele>
        <time>2021-08-10T14:58:51.841Z</time>
      </trkpt>
      <trkpt lat="46.88407" lon="8.55112">
        <ele>1321</ele>
        <time>2021-08-10T14:58:56.693Z</time>
      </trkpt>
      <trkpt lat="46.88406" lon="8.55112">
        <ele>1321</ele>
        <time>2021-08-10T14:58:57.692Z</time>
      </trkpt>
      <trkpt lat="46.88406" lon="8.55113">
        <ele>1321</ele>
        <time>2021-08-10T14:58:58.693Z</time>
      </trkpt>
      <trkpt lat="46.88406" lon="8.55113">
        <ele>1321</ele>
        <time>2021-08-10T14:58:59.693Z</time>
      </trkpt>
      <trkpt lat="46.88406" lon="8.55113">
        <ele>1322</ele>
        <time>2021-08-10T14:59:00.693Z</time>
      </trkpt>
      <trkpt lat="46.88405" lon="8.55114">
        <ele>1322</ele>
        <time>2021-08-10T14:59:01.692Z</time>
      </trkpt>
      <trkpt lat="46.88405" lon="8.55115">
        <ele>1322</ele>
        <time>2021-08-10T14:59:02.693Z</time>
      </trkpt>
      <trkpt lat="46.88405" lon="8.55115">
        <ele>1322</ele>
        <time>2021-08-10T14:59:03.692Z</time>
      </trkpt>
      <trkpt lat="46.88405" lon="8.55115">
        <ele>1322</ele>
        <time>2021-08-10T14:59:04.693Z</time>
      </trkpt>
      <trkpt lat="46.88405" lon="8.55114">
        <ele>1323</ele>
        <time>2021-08-10T14:59:05.693Z</time>
      </trkpt>
      <trkpt lat="46.88404" lon="8.55114">
        <ele>1323</ele>
        <time>2021-08-10T14:59:06.693Z</time>
      </trkpt>
      <trkpt lat="46.88404" lon="8.55113">
        <ele>1323</ele>
        <time>2021-08-10T14:59:07.693Z</time>
      </trkpt>
      <trkpt lat="46.88403" lon="8.55113">
        <ele>1323</ele>
        <time>2021-08-10T14:59:08.693Z</time>
      </trkpt>
      <trkpt lat="46.88401" lon="8.55114">
        <ele>1323</ele>
        <time>2021-08-10T14:59:09.693Z</time>
      </trkpt>
      <trkpt lat="46.884" lon="8.55114">
        <ele>1323</ele>
        <time>2021-08-10T14:59:10.693Z</time>
      </trkpt>
      <trkpt lat="46.884" lon="8.55115">
        <ele>1323</ele>
        <time>2021-08-10T14:59:11.693Z</time>
      </trkpt>
      <trkpt lat="46.88399" lon="8.55115">
        <ele>1323</ele>
        <time>2021-08-10T14:59:14.821Z</time>
      </trkpt>
      <trkpt lat="46.88397" lon="8.55116">
        <ele>1323</ele>
        <time>2021-08-10T14:59:15.821Z</time>
      </trkpt>
      <trkpt lat="46.88396" lon="8.55126">
        <ele>1324</ele>
        <time>2021-08-10T14:59:23.965Z</time>
      </trkpt>
      <trkpt lat="46.88395" lon="8.55126">
        <ele>1324</ele>
        <time>2021-08-10T14:59:24.966Z</time>
      </trkpt>
      <trkpt lat="46.88394" lon="8.55127">
        <ele>1324</ele>
        <time>2021-08-10T14:59:25.965Z</time>
      </trkpt>
      <trkpt lat="46.88393" lon="8.55127">
        <ele>1325</ele>
        <time>2021-08-10T14:59:31.089Z</time>
      </trkpt>
      <trkpt lat="46.88392" lon="8.55126">
        <ele>1325</ele>
        <time>2021-08-10T14:59:32.089Z</time>
      </trkpt>
      <trkpt lat="46.88393" lon="8.55126">
        <ele>1326</ele>
        <time>2021-08-10T14:59:33.089Z</time>
      </trkpt>
      <trkpt lat="46.88393" lon="8.55125">
        <ele>1326</ele>
        <time>2021-08-10T14:59:34.088Z</time>
      </trkpt>
      <trkpt lat="46.88393" lon="8.55125">
        <ele>1326</ele>
        <time>2021-08-10T14:59:35.089Z</time>
      </trkpt>
      <trkpt lat="46.88392" lon="8.55124">
        <ele>1327</ele>
        <time>2021-08-10T14:59:47.195Z</time>
      </trkpt>
      <trkpt lat="46.88392" lon="8.55123">
        <ele>1327</ele>
        <time>2021-08-10T14:59:48.195Z</time>
      </trkpt>
      <trkpt lat="46.88392" lon="8.55123">
        <ele>1327</ele>
        <time>2021-08-10T14:59:50.914Z</time>
      </trkpt>
      <trkpt lat="46.88391" lon="8.55123">
        <ele>1327</ele>
        <time>2021-08-10T14:59:51.914Z</time>
      </trkpt>
      <trkpt lat="46.88393" lon="8.55124">
        <ele>1327</ele>
        <time>2021-08-10T14:59:53.696Z</time>
      </trkpt>
      <trkpt lat="46.88395" lon="8.55129">
        <ele>1327</ele>
        <time>2021-08-10T14:59:55.532Z</time>
      </trkpt>
      <trkpt lat="46.88395" lon="8.55129">
        <ele>1327</ele>
        <time>2021-08-10T14:59:56.533Z</time>
      </trkpt>
      <trkpt lat="46.88395" lon="8.55129">
        <ele>1328</ele>
        <time>2021-08-10T15:00:03.300Z</time>
      </trkpt>
      <trkpt lat="46.88394" lon="8.55129">
        <ele>1328</ele>
        <time>2021-08-10T15:00:04.301Z</time>
      </trkpt>
      <trkpt lat="46.88394" lon="8.55129">
        <ele>1329</ele>
        <time>2021-08-10T15:00:06.057Z</time>
      </trkpt>
      <trkpt lat="46.88394" lon="8.5513">
        <ele>1329</ele>
        <time>2021-08-10T15:00:07.056Z</time>
      </trkpt>
      <trkpt lat="46.88394" lon="8.55131">
        <ele>1330</ele>
        <time>2021-08-10T15:00:08.056Z</time>
      </trkpt>
      <trkpt lat="46.88394" lon="8.55131">
        <ele>1330</ele>
        <time>2021-08-10T15:00:20.051Z</time>
      </trkpt>
      <trkpt lat="46.88394" lon="8.55131">
        <ele>1331</ele>
        <time>2021-08-10T15:00:28.966Z</time>
      </trkpt>
      <trkpt lat="46.88393" lon="8.55131">
        <ele>1331</ele>
        <time>2021-08-10T15:00:29.966Z</time>
      </trkpt>
      <trkpt lat="46.88391" lon="8.55134">
        <ele>1335</ele>
        <time>2021-08-10T15:00:37.804Z</time>
      </trkpt>
      <trkpt lat="46.88391" lon="8.55133">
        <ele>1335</ele>
        <time>2021-08-10T15:00:38.803Z</time>
      </trkpt>
      <trkpt lat="46.8839" lon="8.55134">
        <ele>1335</ele>
        <time>2021-08-10T15:00:39.804Z</time>
      </trkpt>
      <trkpt lat="46.8839" lon="8.55134">
        <ele>1335</ele>
        <time>2021-08-10T15:00:50.924Z</time>
      </trkpt>
      <trkpt lat="46.8839" lon="8.55134">
        <ele>1336</ele>
        <time>2021-08-10T15:00:51.925Z</time>
      </trkpt>
      <trkpt lat="46.88387" lon="8.55136">
        <ele>1336</ele>
        <time>2021-08-10T15:00:52.924Z</time>
      </trkpt>
      <trkpt lat="46.88386" lon="8.55137">
        <ele>1336</ele>
        <time>2021-08-10T15:00:53.925Z</time>
      </trkpt>
      <trkpt lat="46.88386" lon="8.55138">
        <ele>1336</ele>
        <time>2021-08-10T15:00:54.924Z</time>
      </trkpt>
      <trkpt lat="46.88385" lon="8.55138">
        <ele>1336</ele>
        <time>2021-08-10T15:01:02.926Z</time>
      </trkpt>
      <trkpt lat="46.88385" lon="8.55139">
        <ele>1336</ele>
        <time>2021-08-10T15:01:03.925Z</time>
      </trkpt>
      <trkpt lat="46.88384" lon="8.55139">
        <ele>1336</ele>
        <time>2021-08-10T15:01:04.926Z</time>
      </trkpt>
      <trkpt lat="46.88384" lon="8.55139">
        <ele>1336</ele>
        <time>2021-08-10T15:01:08.691Z</time>
      </trkpt>
      <trkpt lat="46.88383" lon="8.5514">
        <ele>1336</ele>
        <time>2021-08-10T15:01:09.691Z</time>
      </trkpt>
      <trkpt lat="46.88383" lon="8.5514">
        <ele>1336</ele>
        <time>2021-08-10T15:01:18.554Z</time>
      </trkpt>
      <trkpt lat="46.88377" lon="8.55145">
        <ele>1328</ele>
        <time>2021-08-10T15:01:38.302Z</time>
      </trkpt>
      <trkpt lat="46.88377" lon="8.55145">
        <ele>1328</ele>
        <time>2021-08-10T15:01:43.088Z</time>
      </trkpt>
      <trkpt lat="46.88377" lon="8.55145">
        <ele>1327</ele>
        <time>2021-08-10T15:01:44.087Z</time>
      </trkpt>
      <trkpt lat="46.88376" lon="8.55146">
        <ele>1327</ele>
        <time>2021-08-10T15:01:45.087Z</time>
      </trkpt>
      <trkpt lat="46.88376" lon="8.55146">
        <ele>1328</ele>
        <time>2021-08-10T15:01:46.087Z</time>
      </trkpt>
      <trkpt lat="46.88377" lon="8.55145">
        <ele>1328</ele>
        <time>2021-08-10T15:01:47.088Z</time>
      </trkpt>
      <trkpt lat="46.88384" lon="8.55137">
        <ele>1324</ele>
        <time>2021-08-10T15:01:48.087Z</time>
      </trkpt>
      <trkpt lat="46.88384" lon="8.55138">
        <ele>1323</ele>
        <time>2021-08-10T15:01:49.087Z</time>
      </trkpt>
      <trkpt lat="46.88384" lon="8.55138">
        <ele>1323</ele>
        <time>2021-08-10T15:01:50.087Z</time>
      </trkpt>
      <trkpt lat="46.88384" lon="8.55138">
        <ele>1323</ele>
        <time>2021-08-10T15:01:51.089Z</time>
      </trkpt>
      <trkpt lat="46.88384" lon="8.55138">
        <ele>1324</ele>
        <time>2021-08-10T15:01:52.088Z</time>
      </trkpt>
      <trkpt lat="46.88379" lon="8.55143">
        <ele>1345</ele>
        <time>2021-08-10T15:01:53.088Z</time>
      </trkpt>
      <trkpt lat="46.88377" lon="8.55144">
        <ele>1346</ele>
        <time>2021-08-10T15:01:54.088Z</time>
      </trkpt>
      <trkpt lat="46.88374" lon="8.55145">
        <ele>1341</ele>
        <time>2021-08-10T15:01:55.089Z</time>
      </trkpt>
      <trkpt lat="46.88375" lon="8.55144">
        <ele>1340</ele>
        <time>2021-08-10T15:01:56.089Z</time>
      </trkpt>
      <trkpt lat="46.88375" lon="8.55143">
        <ele>1340</ele>
        <time>2021-08-10T15:01:57.088Z</time>
      </trkpt>
      <trkpt lat="46.88375" lon="8.55143">
        <ele>1340</ele>
        <time>2021-08-10T15:01:58.088Z</time>
      </trkpt>
      <trkpt lat="46.88375" lon="8.55142">
        <ele>1340</ele>
        <time>2021-08-10T15:01:59.088Z</time>
      </trkpt>
      <trkpt lat="46.88373" lon="8.55141">
        <ele>1340</ele>
        <time>2021-08-10T15:02:06.179Z</time>
      </trkpt>
      <trkpt lat="46.88372" lon="8.55141">
        <ele>1339</ele>
        <time>2021-08-10T15:02:07.179Z</time>
      </trkpt>
      <trkpt lat="46.88372" lon="8.55141">
        <ele>1339</ele>
        <time>2021-08-10T15:02:08.178Z</time>
      </trkpt>
      <trkpt lat="46.88372" lon="8.55141">
        <ele>1339</ele>
        <time>2021-08-10T15:02:09.179Z</time>
      </trkpt>
      <trkpt lat="46.88371" lon="8.55141">
        <ele>1339</ele>
        <time>2021-08-10T15:02:10.179Z</time>
      </trkpt>
      <trkpt lat="46.88371" lon="8.55141">
        <ele>1339</ele>
        <time>2021-08-10T15:02:11.179Z</time>
      </trkpt>
      <trkpt lat="46.88371" lon="8.5514">
        <ele>1333</ele>
        <time>2021-08-10T15:02:12.180Z</time>
      </trkpt>
      <trkpt lat="46.88371" lon="8.55139">
        <ele>1332</ele>
        <time>2021-08-10T15:02:13.179Z</time>
      </trkpt>
      <trkpt lat="46.8837" lon="8.55139">
        <ele>1332</ele>
        <time>2021-08-10T15:02:14.179Z</time>
      </trkpt>
      <trkpt lat="46.8837" lon="8.55138">
        <ele>1331</ele>
        <time>2021-08-10T15:02:15.180Z</time>
      </trkpt>
      <trkpt lat="46.88369" lon="8.55138">
        <ele>1331</ele>
        <time>2021-08-10T15:02:16.179Z</time>
      </trkpt>
      <trkpt lat="46.88369" lon="8.55138">
        <ele>1330</ele>
        <time>2021-08-10T15:02:17.180Z</time>
      </trkpt>
      <trkpt lat="46.88368" lon="8.55137">
        <ele>1329</ele>
        <time>2021-08-10T15:02:18.180Z</time>
      </trkpt>
      <trkpt lat="46.88368" lon="8.55136">
        <ele>1328</ele>
        <time>2021-08-10T15:02:29.342Z</time>
      </trkpt>
      <trkpt lat="46.88369" lon="8.55136">
        <ele>1328</ele>
        <time>2021-08-10T15:02:30.341Z</time>
      </trkpt>
      <trkpt lat="46.88369" lon="8.55136">
        <ele>1328</ele>
        <time>2021-08-10T15:02:31.342Z</time>
      </trkpt>
      <trkpt lat="46.88369" lon="8.55135">
        <ele>1328</ele>
        <time>2021-08-10T15:02:32.341Z</time>
      </trkpt>
      <trkpt lat="46.88369" lon="8.55134">
        <ele>1328</ele>
        <time>2021-08-10T15:02:33.341Z</time>
      </trkpt>
      <trkpt lat="46.8837" lon="8.55132">
        <ele>1329</ele>
        <time>2021-08-10T15:02:34.342Z</time>
      </trkpt>
      <trkpt lat="46.8837" lon="8.5513">
        <ele>1329</ele>
        <time>2021-08-10T15:02:35.341Z</time>
      </trkpt>
      <trkpt lat="46.8837" lon="8.55128">
        <ele>1329</ele>
        <time>2021-08-10T15:02:36.341Z</time>
      </trkpt>
      <trkpt lat="46.88371" lon="8.55127">
        <ele>1329</ele>
        <time>2021-08-10T15:02:37.342Z</time>
      </trkpt>
      <trkpt lat="46.88373" lon="8.55126">
        <ele>1329</ele>
        <time>2021-08-10T15:02:38.342Z</time>
      </trkpt>
      <trkpt lat="46.88373" lon="8.55125">
        <ele>1329</ele>
        <time>2021-08-10T15:02:39.341Z</time>
      </trkpt>
      <trkpt lat="46.88373" lon="8.55124">
        <ele>1329</ele>
        <time>2021-08-10T15:02:40.342Z</time>
      </trkpt>
      <trkpt lat="46.88373" lon="8.55123">
        <ele>1329</ele>
        <time>2021-08-10T15:02:41.341Z</time>
      </trkpt>
      <trkpt lat="46.88374" lon="8.55123">
        <ele>1330</ele>
        <time>2021-08-10T15:02:42.341Z</time>
      </trkpt>
      <trkpt lat="46.88374" lon="8.55122">
        <ele>1330</ele>
        <time>2021-08-10T15:02:43.342Z</time>
      </trkpt>
      <trkpt lat="46.88374" lon="8.55121">
        <ele>1330</ele>
        <time>2021-08-10T15:02:44.341Z</time>
      </trkpt>
      <trkpt lat="46.88374" lon="8.5512">
        <ele>1330</ele>
        <time>2021-08-10T15:02:45.341Z</time>
      </trkpt>
      <trkpt lat="46.88374" lon="8.55119">
        <ele>1329</ele>
        <time>2021-08-10T15:02:46.341Z</time>
      </trkpt>
      <trkpt lat="46.88374" lon="8.55118">
        <ele>1329</ele>
        <time>2021-08-10T15:02:47.341Z</time>
      </trkpt>
      <trkpt lat="46.88374" lon="8.55118">
        <ele>1329</ele>
        <time>2021-08-10T15:02:48.341Z</time>
      </trkpt>
      <trkpt lat="46.88375" lon="8.55117">
        <ele>1328</ele>
        <time>2021-08-10T15:02:49.341Z</time>
      </trkpt>
      <trkpt lat="46.88375" lon="8.55116">
        <ele>1328</ele>
        <time>2021-08-10T15:02:50.341Z</time>
      </trkpt>
      <trkpt lat="46.88376" lon="8.55114">
        <ele>1328</ele>
        <time>2021-08-10T15:02:51.341Z</time>
      </trkpt>
      <trkpt lat="46.88376" lon="8.55113">
        <ele>1328</ele>
        <time>2021-08-10T15:02:52.342Z</time>
      </trkpt>
      <trkpt lat="46.88376" lon="8.55113">
        <ele>1328</ele>
        <time>2021-08-10T15:02:53.341Z</time>
      </trkpt>
      <trkpt lat="46.88375" lon="8.55112">
        <ele>1328</ele>
        <time>2021-08-10T15:02:54.341Z</time>
      </trkpt>
      <trkpt lat="46.88374" lon="8.55112">
        <ele>1328</ele>
        <time>2021-08-10T15:02:55.341Z</time>
      </trkpt>
      <trkpt lat="46.88374" lon="8.55111">
        <ele>1328</ele>
        <time>2021-08-10T15:02:56.341Z</time>
      </trkpt>
      <trkpt lat="46.88374" lon="8.5511">
        <ele>1328</ele>
        <time>2021-08-10T15:02:57.342Z</time>
      </trkpt>
      <trkpt lat="46.88375" lon="8.55109">
        <ele>1328</ele>
        <time>2021-08-10T15:02:58.342Z</time>
      </trkpt>
      <trkpt lat="46.88375" lon="8.55108">
        <ele>1329</ele>
        <time>2021-08-10T15:02:59.342Z</time>
      </trkpt>
      <trkpt lat="46.88375" lon="8.55107">
        <ele>1330</ele>
        <time>2021-08-10T15:03:00.342Z</time>
      </trkpt>
      <trkpt lat="46.88375" lon="8.55107">
        <ele>1331</ele>
        <time>2021-08-10T15:03:01.341Z</time>
      </trkpt>
      <trkpt lat="46.88375" lon="8.55107">
        <ele>1332</ele>
        <time>2021-08-10T15:03:02.341Z</time>
      </trkpt>
      <trkpt lat="46.88374" lon="8.55107">
        <ele>1333</ele>
        <time>2021-08-10T15:03:03.341Z</time>
      </trkpt>
      <trkpt lat="46.88373" lon="8.55107">
        <ele>1333</ele>
        <time>2021-08-10T15:03:04.342Z</time>
      </trkpt>
      <trkpt lat="46.88373" lon="8.55106">
        <ele>1334</ele>
        <time>2021-08-10T15:03:05.341Z</time>
      </trkpt>
      <trkpt lat="46.88372" lon="8.55107">
        <ele>1334</ele>
        <time>2021-08-10T15:03:06.342Z</time>
      </trkpt>
      <trkpt lat="46.88372" lon="8.55106">
        <ele>1335</ele>
        <time>2021-08-10T15:03:07.341Z</time>
      </trkpt>
      <trkpt lat="46.88371" lon="8.55106">
        <ele>1335</ele>
        <time>2021-08-10T15:03:08.341Z</time>
      </trkpt>
      <trkpt lat="46.88371" lon="8.55106">
        <ele>1336</ele>
        <time>2021-08-10T15:03:09.342Z</time>
      </trkpt>
      <trkpt lat="46.8837" lon="8.55106">
        <ele>1336</ele>
        <time>2021-08-10T15:03:10.342Z</time>
      </trkpt>
      <trkpt lat="46.88369" lon="8.55106">
        <ele>1336</ele>
        <time>2021-08-10T15:03:11.341Z</time>
      </trkpt>
      <trkpt lat="46.88368" lon="8.55106">
        <ele>1336</ele>
        <time>2021-08-10T15:03:12.342Z</time>
      </trkpt>
      <trkpt lat="46.88367" lon="8.55106">
        <ele>1336</ele>
        <time>2021-08-10T15:03:13.341Z</time>
      </trkpt>
      <trkpt lat="46.88367" lon="8.55105">
        <ele>1337</ele>
        <time>2021-08-10T15:03:14.341Z</time>
      </trkpt>
      <trkpt lat="46.88367" lon="8.55104">
        <ele>1337</ele>
        <time>2021-08-10T15:03:15.342Z</time>
      </trkpt>
      <trkpt lat="46.88367" lon="8.55104">
        <ele>1337</ele>
        <time>2021-08-10T15:03:16.342Z</time>
      </trkpt>
      <trkpt lat="46.88367" lon="8.55104">
        <ele>1338</ele>
        <time>2021-08-10T15:03:17.341Z</time>
      </trkpt>
      <trkpt lat="46.88366" lon="8.55104">
        <ele>1338</ele>
        <time>2021-08-10T15:03:18.342Z</time>
      </trkpt>
      <trkpt lat="46.88366" lon="8.55103">
        <ele>1339</ele>
        <time>2021-08-10T15:03:19.342Z</time>
      </trkpt>
      <trkpt lat="46.88365" lon="8.55103">
        <ele>1339</ele>
        <time>2021-08-10T15:03:20.341Z</time>
      </trkpt>
      <trkpt lat="46.88365" lon="8.55102">
        <ele>1339</ele>
        <time>2021-08-10T15:03:21.341Z</time>
      </trkpt>
      <trkpt lat="46.88364" lon="8.55102">
        <ele>1340</ele>
        <time>2021-08-10T15:03:22.342Z</time>
      </trkpt>
      <trkpt lat="46.88364" lon="8.55102">
        <ele>1340</ele>
        <time>2021-08-10T15:03:23.341Z</time>
      </trkpt>
      <trkpt lat="46.88365" lon="8.55101">
        <ele>1340</ele>
        <time>2021-08-10T15:03:24.342Z</time>
      </trkpt>
      <trkpt lat="46.88366" lon="8.551">
        <ele>1341</ele>
        <time>2021-08-10T15:03:25.342Z</time>
      </trkpt>
      <trkpt lat="46.88367" lon="8.55099">
        <ele>1341</ele>
        <time>2021-08-10T15:03:26.341Z</time>
      </trkpt>
      <trkpt lat="46.88367" lon="8.55099">
        <ele>1341</ele>
        <time>2021-08-10T15:03:27.342Z</time>
      </trkpt>
      <trkpt lat="46.88367" lon="8.55099">
        <ele>1340</ele>
        <time>2021-08-10T15:03:28.342Z</time>
      </trkpt>
      <trkpt lat="46.88367" lon="8.55098">
        <ele>1340</ele>
        <time>2021-08-10T15:03:29.341Z</time>
      </trkpt>
      <trkpt lat="46.88367" lon="8.55098">
        <ele>1339</ele>
        <time>2021-08-10T15:03:30.341Z</time>
      </trkpt>
      <trkpt lat="46.88367" lon="8.55098">
        <ele>1339</ele>
        <time>2021-08-10T15:03:31.341Z</time>
      </trkpt>
      <trkpt lat="46.88368" lon="8.55098">
        <ele>1339</ele>
        <time>2021-08-10T15:03:32.341Z</time>
      </trkpt>
      <trkpt lat="46.88369" lon="8.55098">
        <ele>1339</ele>
        <time>2021-08-10T15:03:33.341Z</time>
      </trkpt>
      <trkpt lat="46.8837" lon="8.55099">
        <ele>1339</ele>
        <time>2021-08-10T15:03:40.430Z</time>
      </trkpt>
      <trkpt lat="46.88371" lon="8.55099">
        <ele>1340</ele>
        <time>2021-08-10T15:03:41.430Z</time>
      </trkpt>
      <trkpt lat="46.88371" lon="8.55099">
        <ele>1340</ele>
        <time>2021-08-10T15:03:47.305Z</time>
      </trkpt>
      <trkpt lat="46.88372" lon="8.55099">
        <ele>1341</ele>
        <time>2021-08-10T15:03:48.306Z</time>
      </trkpt>
      <trkpt lat="46.88372" lon="8.55098">
        <ele>1341</ele>
        <time>2021-08-10T15:03:51.200Z</time>
      </trkpt>
      <trkpt lat="46.88372" lon="8.55097">
        <ele>1341</ele>
        <time>2021-08-10T15:03:52.199Z</time>
      </trkpt>
      <trkpt lat="46.88373" lon="8.55096">
        <ele>1342</ele>
        <time>2021-08-10T15:03:53.199Z</time>
      </trkpt>
      <trkpt lat="46.88373" lon="8.55095">
        <ele>1342</ele>
        <time>2021-08-10T15:03:54.200Z</time>
      </trkpt>
      <trkpt lat="46.88373" lon="8.55095">
        <ele>1342</ele>
        <time>2021-08-10T15:03:58.304Z</time>
      </trkpt>
      <trkpt lat="46.88373" lon="8.55094">
        <ele>1342</ele>
        <time>2021-08-10T15:03:59.305Z</time>
      </trkpt>
      <trkpt lat="46.88373" lon="8.55093">
        <ele>1343</ele>
        <time>2021-08-10T15:04:01.182Z</time>
      </trkpt>
      <trkpt lat="46.88374" lon="8.55093">
        <ele>1343</ele>
        <time>2021-08-10T15:04:02.181Z</time>
      </trkpt>
      <trkpt lat="46.88374" lon="8.55093">
        <ele>1343</ele>
        <time>2021-08-10T15:04:03.181Z</time>
      </trkpt>
      <trkpt lat="46.88375" lon="8.55092">
        <ele>1343</ele>
        <time>2021-08-10T15:04:04.181Z</time>
      </trkpt>
      <trkpt lat="46.88375" lon="8.55092">
        <ele>1343</ele>
        <time>2021-08-10T15:04:05.182Z</time>
      </trkpt>
      <trkpt lat="46.88377" lon="8.5509">
        <ele>1344</ele>
        <time>2021-08-10T15:04:06.182Z</time>
      </trkpt>
      <trkpt lat="46.88377" lon="8.5509">
        <ele>1344</ele>
        <time>2021-08-10T15:04:07.182Z</time>
      </trkpt>
      <trkpt lat="46.88378" lon="8.55089">
        <ele>1344</ele>
        <time>2021-08-10T15:04:08.182Z</time>
      </trkpt>
      <trkpt lat="46.88378" lon="8.55089">
        <ele>1344</ele>
        <time>2021-08-10T15:04:09.182Z</time>
      </trkpt>
      <trkpt lat="46.88379" lon="8.55088">
        <ele>1344</ele>
        <time>2021-08-10T15:04:10.182Z</time>
      </trkpt>
      <trkpt lat="46.88379" lon="8.55087">
        <ele>1343</ele>
        <time>2021-08-10T15:04:11.182Z</time>
      </trkpt>
      <trkpt lat="46.88379" lon="8.55087">
        <ele>1342</ele>
        <time>2021-08-10T15:04:12.181Z</time>
      </trkpt>
      <trkpt lat="46.88379" lon="8.55086">
        <ele>1342</ele>
        <time>2021-08-10T15:04:13.181Z</time>
      </trkpt>
      <trkpt lat="46.88378" lon="8.55085">
        <ele>1341</ele>
        <time>2021-08-10T15:04:14.181Z</time>
      </trkpt>
      <trkpt lat="46.88377" lon="8.55084">
        <ele>1341</ele>
        <time>2021-08-10T15:04:15.181Z</time>
      </trkpt>
      <trkpt lat="46.88375" lon="8.55084">
        <ele>1340</ele>
        <time>2021-08-10T15:04:16.181Z</time>
      </trkpt>
      <trkpt lat="46.88374" lon="8.55083">
        <ele>1340</ele>
        <time>2021-08-10T15:04:17.181Z</time>
      </trkpt>
      <trkpt lat="46.88373" lon="8.55082">
        <ele>1340</ele>
        <time>2021-08-10T15:04:18.182Z</time>
      </trkpt>
      <trkpt lat="46.88373" lon="8.55082">
        <ele>1340</ele>
        <time>2021-08-10T15:04:19.182Z</time>
      </trkpt>
      <trkpt lat="46.88372" lon="8.55082">
        <ele>1340</ele>
        <time>2021-08-10T15:04:20.182Z</time>
      </trkpt>
      <trkpt lat="46.88371" lon="8.55081">
        <ele>1340</ele>
        <time>2021-08-10T15:04:21.182Z</time>
      </trkpt>
      <trkpt lat="46.88371" lon="8.55081">
        <ele>1341</ele>
        <time>2021-08-10T15:04:22.181Z</time>
      </trkpt>
      <trkpt lat="46.88371" lon="8.55081">
        <ele>1341</ele>
        <time>2021-08-10T15:04:23.181Z</time>
      </trkpt>
      <trkpt lat="46.8837" lon="8.5508">
        <ele>1341</ele>
        <time>2021-08-10T15:04:24.181Z</time>
      </trkpt>
      <trkpt lat="46.8837" lon="8.55079">
        <ele>1342</ele>
        <time>2021-08-10T15:04:25.181Z</time>
      </trkpt>
      <trkpt lat="46.88369" lon="8.55078">
        <ele>1342</ele>
        <time>2021-08-10T15:04:26.182Z</time>
      </trkpt>
      <trkpt lat="46.8837" lon="8.55078">
        <ele>1342</ele>
        <time>2021-08-10T15:04:27.181Z</time>
      </trkpt>
      <trkpt lat="46.8837" lon="8.55078">
        <ele>1342</ele>
        <time>2021-08-10T15:04:28.181Z</time>
      </trkpt>
      <trkpt lat="46.88371" lon="8.55079">
        <ele>1342</ele>
        <time>2021-08-10T15:04:29.181Z</time>
      </trkpt>
      <trkpt lat="46.88372" lon="8.55079">
        <ele>1342</ele>
        <time>2021-08-10T15:04:30.181Z</time>
      </trkpt>
      <trkpt lat="46.88373" lon="8.55079">
        <ele>1342</ele>
        <time>2021-08-10T15:04:31.181Z</time>
      </trkpt>
      <trkpt lat="46.88373" lon="8.5508">
        <ele>1342</ele>
        <time>2021-08-10T15:04:32.181Z</time>
      </trkpt>
      <trkpt lat="46.88374" lon="8.5508">
        <ele>1342</ele>
        <time>2021-08-10T15:04:33.181Z</time>
      </trkpt>
      <trkpt lat="46.88375" lon="8.55079">
        <ele>1342</ele>
        <time>2021-08-10T15:04:34.181Z</time>
      </trkpt>
      <trkpt lat="46.88376" lon="8.55079">
        <ele>1342</ele>
        <time>2021-08-10T15:04:35.181Z</time>
      </trkpt>
      <trkpt lat="46.88376" lon="8.55078">
        <ele>1341</ele>
        <time>2021-08-10T15:04:36.181Z</time>
      </trkpt>
      <trkpt lat="46.88375" lon="8.55076">
        <ele>1341</ele>
        <time>2021-08-10T15:04:37.181Z</time>
      </trkpt>
      <trkpt lat="46.88375" lon="8.55075">
        <ele>1341</ele>
        <time>2021-08-10T15:04:38.181Z</time>
      </trkpt>
      <trkpt lat="46.88374" lon="8.55073">
        <ele>1342</ele>
        <time>2021-08-10T15:04:39.181Z</time>
      </trkpt>
      <trkpt lat="46.88374" lon="8.55072">
        <ele>1342</ele>
        <time>2021-08-10T15:04:40.181Z</time>
      </trkpt>
      <trkpt lat="46.88373" lon="8.55072">
        <ele>1342</ele>
        <time>2021-08-10T15:04:41.181Z</time>
      </trkpt>
      <trkpt lat="46.88372" lon="8.55072">
        <ele>1342</ele>
        <time>2021-08-10T15:04:42.182Z</time>
      </trkpt>
      <trkpt lat="46.88371" lon="8.55071">
        <ele>1343</ele>
        <time>2021-08-10T15:04:45.201Z</time>
      </trkpt>
      <trkpt lat="46.8837" lon="8.55071">
        <ele>1343</ele>
        <time>2021-08-10T15:04:46.200Z</time>
      </trkpt>
      <trkpt lat="46.88369" lon="8.5507">
        <ele>1343</ele>
        <time>2021-08-10T15:04:47.200Z</time>
      </trkpt>
      <trkpt lat="46.88368" lon="8.55069">
        <ele>1344</ele>
        <time>2021-08-10T15:04:48.200Z</time>
      </trkpt>
      <trkpt lat="46.88367" lon="8.55068">
        <ele>1345</ele>
        <time>2021-08-10T15:04:49.200Z</time>
      </trkpt>
      <trkpt lat="46.88367" lon="8.55067">
        <ele>1346</ele>
        <time>2021-08-10T15:04:50.200Z</time>
      </trkpt>
      <trkpt lat="46.88367" lon="8.55067">
        <ele>1348</ele>
        <time>2021-08-10T15:04:51.200Z</time>
      </trkpt>
      <trkpt lat="46.88367" lon="8.55067">
        <ele>1348</ele>
        <time>2021-08-10T15:04:52.201Z</time>
      </trkpt>
      <trkpt lat="46.88367" lon="8.55067">
        <ele>1349</ele>
        <time>2021-08-10T15:04:54.314Z</time>
      </trkpt>
      <trkpt lat="46.88368" lon="8.55067">
        <ele>1350</ele>
        <time>2021-08-10T15:04:55.314Z</time>
      </trkpt>
      <trkpt lat="46.88368" lon="8.55068">
        <ele>1350</ele>
        <time>2021-08-10T15:04:56.315Z</time>
      </trkpt>
      <trkpt lat="46.88368" lon="8.55067">
        <ele>1350</ele>
        <time>2021-08-10T15:04:58.409Z</time>
      </trkpt>
      <trkpt lat="46.88368" lon="8.55067">
        <ele>1350</ele>
        <time>2021-08-10T15:04:59.408Z</time>
      </trkpt>
      <trkpt lat="46.88368" lon="8.55066">
        <ele>1349</ele>
        <time>2021-08-10T15:05:00.409Z</time>
      </trkpt>
      <trkpt lat="46.88368" lon="8.55064">
        <ele>1349</ele>
        <time>2021-08-10T15:05:01.409Z</time>
      </trkpt>
      <trkpt lat="46.88367" lon="8.55063">
        <ele>1349</ele>
        <time>2021-08-10T15:05:02.409Z</time>
      </trkpt>
      <trkpt lat="46.88367" lon="8.55062">
        <ele>1350</ele>
        <time>2021-08-10T15:05:03.409Z</time>
      </trkpt>
      <trkpt lat="46.88367" lon="8.55061">
        <ele>1350</ele>
        <time>2021-08-10T15:05:04.409Z</time>
      </trkpt>
      <trkpt lat="46.88366" lon="8.55061">
        <ele>1351</ele>
        <time>2021-08-10T15:05:05.409Z</time>
      </trkpt>
      <trkpt lat="46.88366" lon="8.55061">
        <ele>1351</ele>
        <time>2021-08-10T15:05:06.409Z</time>
      </trkpt>
      <trkpt lat="46.88365" lon="8.55061">
        <ele>1351</ele>
        <time>2021-08-10T15:05:07.408Z</time>
      </trkpt>
      <trkpt lat="46.88364" lon="8.55061">
        <ele>1351</ele>
        <time>2021-08-10T15:05:08.409Z</time>
      </trkpt>
      <trkpt lat="46.88364" lon="8.5506">
        <ele>1351</ele>
        <time>2021-08-10T15:05:09.408Z</time>
      </trkpt>
      <trkpt lat="46.88363" lon="8.55058">
        <ele>1352</ele>
        <time>2021-08-10T15:05:10.409Z</time>
      </trkpt>
      <trkpt lat="46.88363" lon="8.55056">
        <ele>1352</ele>
        <time>2021-08-10T15:05:11.408Z</time>
      </trkpt>
      <trkpt lat="46.88363" lon="8.55055">
        <ele>1353</ele>
        <time>2021-08-10T15:05:12.409Z</time>
      </trkpt>
      <trkpt lat="46.88363" lon="8.55054">
        <ele>1353</ele>
        <time>2021-08-10T15:05:13.408Z</time>
      </trkpt>
      <trkpt lat="46.88363" lon="8.55053">
        <ele>1354</ele>
        <time>2021-08-10T15:05:14.408Z</time>
      </trkpt>
      <trkpt lat="46.88362" lon="8.55052">
        <ele>1354</ele>
        <time>2021-08-10T15:05:15.409Z</time>
      </trkpt>
      <trkpt lat="46.88363" lon="8.55052">
        <ele>1354</ele>
        <time>2021-08-10T15:05:16.409Z</time>
      </trkpt>
      <trkpt lat="46.88362" lon="8.55051">
        <ele>1354</ele>
        <time>2021-08-10T15:05:17.409Z</time>
      </trkpt>
      <trkpt lat="46.88362" lon="8.55051">
        <ele>1354</ele>
        <time>2021-08-10T15:05:18.408Z</time>
      </trkpt>
      <trkpt lat="46.88363" lon="8.55051">
        <ele>1354</ele>
        <time>2021-08-10T15:05:19.408Z</time>
      </trkpt>
      <trkpt lat="46.88363" lon="8.55051">
        <ele>1354</ele>
        <time>2021-08-10T15:05:20.408Z</time>
      </trkpt>
      <trkpt lat="46.88362" lon="8.5505">
        <ele>1354</ele>
        <time>2021-08-10T15:05:21.409Z</time>
      </trkpt>
      <trkpt lat="46.88362" lon="8.55049">
        <ele>1354</ele>
        <time>2021-08-10T15:05:22.409Z</time>
      </trkpt>
      <trkpt lat="46.88362" lon="8.55048">
        <ele>1354</ele>
        <time>2021-08-10T15:05:23.409Z</time>
      </trkpt>
      <trkpt lat="46.88361" lon="8.55049">
        <ele>1354</ele>
        <time>2021-08-10T15:05:24.408Z</time>
      </trkpt>
      <trkpt lat="46.88361" lon="8.5505">
        <ele>1353</ele>
        <time>2021-08-10T15:05:25.409Z</time>
      </trkpt>
      <trkpt lat="46.8836" lon="8.5505">
        <ele>1353</ele>
        <time>2021-08-10T15:05:26.408Z</time>
      </trkpt>
      <trkpt lat="46.88361" lon="8.55051">
        <ele>1352</ele>
        <time>2021-08-10T15:05:27.408Z</time>
      </trkpt>
      <trkpt lat="46.88361" lon="8.55052">
        <ele>1352</ele>
        <time>2021-08-10T15:05:28.408Z</time>
      </trkpt>
      <trkpt lat="46.88361" lon="8.55049">
        <ele>1353</ele>
        <time>2021-08-10T15:05:29.409Z</time>
      </trkpt>
      <trkpt lat="46.88361" lon="8.5505">
        <ele>1353</ele>
        <time>2021-08-10T15:05:30.409Z</time>
      </trkpt>
      <trkpt lat="46.88361" lon="8.55046">
        <ele>1356</ele>
        <time>2021-08-10T15:05:31.409Z</time>
      </trkpt>
      <trkpt lat="46.88362" lon="8.55046">
        <ele>1356</ele>
        <time>2021-08-10T15:05:32.409Z</time>
      </trkpt>
      <trkpt lat="46.88362" lon="8.55046">
        <ele>1356</ele>
        <time>2021-08-10T15:05:33.408Z</time>
      </trkpt>
      <trkpt lat="46.88362" lon="8.55046">
        <ele>1356</ele>
        <time>2021-08-10T15:05:34.408Z</time>
      </trkpt>
      <trkpt lat="46.88362" lon="8.5505">
        <ele>1349</ele>
        <time>2021-08-10T15:05:35.408Z</time>
      </trkpt>
      <trkpt lat="46.88362" lon="8.5505">
        <ele>1349</ele>
        <time>2021-08-10T15:05:36.408Z</time>
      </trkpt>
      <trkpt lat="46.88362" lon="8.55046">
        <ele>1347</ele>
        <time>2021-08-10T15:05:37.409Z</time>
      </trkpt>
      <trkpt lat="46.88362" lon="8.55045">
        <ele>1347</ele>
        <time>2021-08-10T15:05:38.409Z</time>
      </trkpt>
      <trkpt lat="46.88362" lon="8.55044">
        <ele>1346</ele>
        <time>2021-08-10T15:05:39.408Z</time>
      </trkpt>
      <trkpt lat="46.88362" lon="8.55043">
        <ele>1346</ele>
        <time>2021-08-10T15:05:40.409Z</time>
      </trkpt>
      <trkpt lat="46.88362" lon="8.55042">
        <ele>1346</ele>
        <time>2021-08-10T15:05:41.409Z</time>
      </trkpt>
      <trkpt lat="46.88361" lon="8.55041">
        <ele>1346</ele>
        <time>2021-08-10T15:05:42.409Z</time>
      </trkpt>
      <trkpt lat="46.88361" lon="8.55039">
        <ele>1347</ele>
        <time>2021-08-10T15:05:43.408Z</time>
      </trkpt>
      <trkpt lat="46.88361" lon="8.55038">
        <ele>1347</ele>
        <time>2021-08-10T15:05:44.409Z</time>
      </trkpt>
      <trkpt lat="46.88361" lon="8.55038">
        <ele>1348</ele>
        <time>2021-08-10T15:05:45.409Z</time>
      </trkpt>
      <trkpt lat="46.88362" lon="8.55037">
        <ele>1349</ele>
        <time>2021-08-10T15:05:46.409Z</time>
      </trkpt>
      <trkpt lat="46.88362" lon="8.55036">
        <ele>1349</ele>
        <time>2021-08-10T15:05:47.408Z</time>
      </trkpt>
      <trkpt lat="46.88362" lon="8.55035">
        <ele>1350</ele>
        <time>2021-08-10T15:05:48.409Z</time>
      </trkpt>
      <trkpt lat="46.88361" lon="8.55034">
        <ele>1350</ele>
        <time>2021-08-10T15:05:49.409Z</time>
      </trkpt>
      <trkpt lat="46.88362" lon="8.55033">
        <ele>1350</ele>
        <time>2021-08-10T15:05:50.409Z</time>
      </trkpt>
      <trkpt lat="46.88362" lon="8.55032">
        <ele>1350</ele>
        <time>2021-08-10T15:05:51.408Z</time>
      </trkpt>
      <trkpt lat="46.88362" lon="8.55031">
        <ele>1350</ele>
        <time>2021-08-10T15:05:55.461Z</time>
      </trkpt>
      <trkpt lat="46.88362" lon="8.55031">
        <ele>1350</ele>
        <time>2021-08-10T15:05:56.460Z</time>
      </trkpt>
      <trkpt lat="46.88362" lon="8.5503">
        <ele>1350</ele>
        <time>2021-08-10T15:05:57.461Z</time>
      </trkpt>
      <trkpt lat="46.88362" lon="8.55029">
        <ele>1350</ele>
        <time>2021-08-10T15:05:58.461Z</time>
      </trkpt>
      <trkpt lat="46.88362" lon="8.55028">
        <ele>1350</ele>
        <time>2021-08-10T15:05:59.460Z</time>
      </trkpt>
      <trkpt lat="46.88362" lon="8.55027">
        <ele>1350</ele>
        <time>2021-08-10T15:06:00.461Z</time>
      </trkpt>
      <trkpt lat="46.88362" lon="8.55027">
        <ele>1350</ele>
        <time>2021-08-10T15:06:01.461Z</time>
      </trkpt>
      <trkpt lat="46.88362" lon="8.55026">
        <ele>1350</ele>
        <time>2021-08-10T15:06:03.565Z</time>
      </trkpt>
      <trkpt lat="46.88363" lon="8.55024">
        <ele>1350</ele>
        <time>2021-08-10T15:06:04.564Z</time>
      </trkpt>
      <trkpt lat="46.88363" lon="8.55023">
        <ele>1349</ele>
        <time>2021-08-10T15:06:05.565Z</time>
      </trkpt>
      <trkpt lat="46.88363" lon="8.55023">
        <ele>1349</ele>
        <time>2021-08-10T15:06:06.565Z</time>
      </trkpt>
      <trkpt lat="46.88363" lon="8.55022">
        <ele>1349</ele>
        <time>2021-08-10T15:06:07.564Z</time>
      </trkpt>
      <trkpt lat="46.88363" lon="8.55021">
        <ele>1349</ele>
        <time>2021-08-10T15:06:08.564Z</time>
      </trkpt>
      <trkpt lat="46.88363" lon="8.55021">
        <ele>1348</ele>
        <time>2021-08-10T15:06:09.565Z</time>
      </trkpt>
      <trkpt lat="46.88363" lon="8.5502">
        <ele>1348</ele>
        <time>2021-08-10T15:06:10.565Z</time>
      </trkpt>
      <trkpt lat="46.88363" lon="8.55018">
        <ele>1348</ele>
        <time>2021-08-10T15:06:11.565Z</time>
      </trkpt>
      <trkpt lat="46.88362" lon="8.55017">
        <ele>1348</ele>
        <time>2021-08-10T15:06:12.564Z</time>
      </trkpt>
      <trkpt lat="46.88362" lon="8.55016">
        <ele>1349</ele>
        <time>2021-08-10T15:06:13.565Z</time>
      </trkpt>
      <trkpt lat="46.88362" lon="8.55015">
        <ele>1349</ele>
        <time>2021-08-10T15:06:14.565Z</time>
      </trkpt>
      <trkpt lat="46.88362" lon="8.55014">
        <ele>1350</ele>
        <time>2021-08-10T15:06:15.565Z</time>
      </trkpt>
      <trkpt lat="46.88362" lon="8.55013">
        <ele>1350</ele>
        <time>2021-08-10T15:06:16.565Z</time>
      </trkpt>
      <trkpt lat="46.88362" lon="8.55011">
        <ele>1351</ele>
        <time>2021-08-10T15:06:17.565Z</time>
      </trkpt>
      <trkpt lat="46.88361" lon="8.5501">
        <ele>1352</ele>
        <time>2021-08-10T15:06:18.565Z</time>
      </trkpt>
      <trkpt lat="46.88361" lon="8.55009">
        <ele>1352</ele>
        <time>2021-08-10T15:06:19.564Z</time>
      </trkpt>
      <trkpt lat="46.88361" lon="8.55008">
        <ele>1353</ele>
        <time>2021-08-10T15:06:20.565Z</time>
      </trkpt>
      <trkpt lat="46.88361" lon="8.55006">
        <ele>1353</ele>
        <time>2021-08-10T15:06:21.565Z</time>
      </trkpt>
      <trkpt lat="46.88361" lon="8.55006">
        <ele>1354</ele>
        <time>2021-08-10T15:06:22.564Z</time>
      </trkpt>
      <trkpt lat="46.88361" lon="8.55005">
        <ele>1354</ele>
        <time>2021-08-10T15:06:23.564Z</time>
      </trkpt>
      <trkpt lat="46.88361" lon="8.55004">
        <ele>1354</ele>
        <time>2021-08-10T15:06:24.565Z</time>
      </trkpt>
      <trkpt lat="46.88361" lon="8.55003">
        <ele>1355</ele>
        <time>2021-08-10T15:06:25.564Z</time>
      </trkpt>
      <trkpt lat="46.88361" lon="8.55002">
        <ele>1355</ele>
        <time>2021-08-10T15:06:26.564Z</time>
      </trkpt>
      <trkpt lat="46.8836" lon="8.55001">
        <ele>1355</ele>
        <time>2021-08-10T15:06:27.564Z</time>
      </trkpt>
      <trkpt lat="46.8836" lon="8.55">
        <ele>1355</ele>
        <time>2021-08-10T15:06:28.565Z</time>
      </trkpt>
      <trkpt lat="46.8836" lon="8.54999">
        <ele>1356</ele>
        <time>2021-08-10T15:06:29.565Z</time>
      </trkpt>
      <trkpt lat="46.8836" lon="8.54998">
        <ele>1356</ele>
        <time>2021-08-10T15:06:30.565Z</time>
      </trkpt>
      <trkpt lat="46.88361" lon="8.54998">
        <ele>1356</ele>
        <time>2021-08-10T15:06:31.565Z</time>
      </trkpt>
      <trkpt lat="46.88361" lon="8.54997">
        <ele>1356</ele>
        <time>2021-08-10T15:06:32.565Z</time>
      </trkpt>
      <trkpt lat="46.88362" lon="8.54996">
        <ele>1356</ele>
        <time>2021-08-10T15:06:33.565Z</time>
      </trkpt>
      <trkpt lat="46.88362" lon="8.54996">
        <ele>1356</ele>
        <time>2021-08-10T15:06:34.565Z</time>
      </trkpt>
      <trkpt lat="46.88363" lon="8.54995">
        <ele>1356</ele>
        <time>2021-08-10T15:06:35.565Z</time>
      </trkpt>
      <trkpt lat="46.88363" lon="8.54993">
        <ele>1356</ele>
        <time>2021-08-10T15:06:36.565Z</time>
      </trkpt>
      <trkpt lat="46.88363" lon="8.54992">
        <ele>1357</ele>
        <time>2021-08-10T15:06:37.565Z</time>
      </trkpt>
      <trkpt lat="46.88362" lon="8.5499">
        <ele>1357</ele>
        <time>2021-08-10T15:06:38.565Z</time>
      </trkpt>
      <trkpt lat="46.88362" lon="8.54989">
        <ele>1358</ele>
        <time>2021-08-10T15:06:39.564Z</time>
      </trkpt>
      <trkpt lat="46.88361" lon="8.54988">
        <ele>1359</ele>
        <time>2021-08-10T15:06:40.565Z</time>
      </trkpt>
      <trkpt lat="46.88361" lon="8.54988">
        <ele>1359</ele>
        <time>2021-08-10T15:06:41.565Z</time>
      </trkpt>
      <trkpt lat="46.8836" lon="8.54988">
        <ele>1360</ele>
        <time>2021-08-10T15:06:42.564Z</time>
      </trkpt>
      <trkpt lat="46.8836" lon="8.54988">
        <ele>1361</ele>
        <time>2021-08-10T15:06:43.565Z</time>
      </trkpt>
      <trkpt lat="46.88359" lon="8.54988">
        <ele>1361</ele>
        <time>2021-08-10T15:06:44.564Z</time>
      </trkpt>
      <trkpt lat="46.88358" lon="8.54987">
        <ele>1362</ele>
        <time>2021-08-10T15:06:45.565Z</time>
      </trkpt>
      <trkpt lat="46.88358" lon="8.54987">
        <ele>1361</ele>
        <time>2021-08-10T15:06:46.564Z</time>
      </trkpt>
      <trkpt lat="46.88357" lon="8.54987">
        <ele>1361</ele>
        <time>2021-08-10T15:06:47.565Z</time>
      </trkpt>
      <trkpt lat="46.88356" lon="8.54987">
        <ele>1361</ele>
        <time>2021-08-10T15:06:48.565Z</time>
      </trkpt>
      <trkpt lat="46.88356" lon="8.54987">
        <ele>1361</ele>
        <time>2021-08-10T15:06:49.564Z</time>
      </trkpt>
      <trkpt lat="46.88355" lon="8.54987">
        <ele>1362</ele>
        <time>2021-08-10T15:06:50.565Z</time>
      </trkpt>
      <trkpt lat="46.88355" lon="8.54986">
        <ele>1363</ele>
        <time>2021-08-10T15:06:51.565Z</time>
      </trkpt>
      <trkpt lat="46.88354" lon="8.54986">
        <ele>1363</ele>
        <time>2021-08-10T15:06:52.565Z</time>
      </trkpt>
      <trkpt lat="46.88354" lon="8.54986">
        <ele>1364</ele>
        <time>2021-08-10T15:06:53.565Z</time>
      </trkpt>
      <trkpt lat="46.88353" lon="8.54985">
        <ele>1365</ele>
        <time>2021-08-10T15:06:54.564Z</time>
      </trkpt>
      <trkpt lat="46.88353" lon="8.54985">
        <ele>1366</ele>
        <time>2021-08-10T15:06:55.564Z</time>
      </trkpt>
      <trkpt lat="46.88352" lon="8.54984">
        <ele>1367</ele>
        <time>2021-08-10T15:06:56.564Z</time>
      </trkpt>
      <trkpt lat="46.88352" lon="8.54984">
        <ele>1367</ele>
        <time>2021-08-10T15:06:57.564Z</time>
      </trkpt>
      <trkpt lat="46.88352" lon="8.54983">
        <ele>1367</ele>
        <time>2021-08-10T15:06:58.565Z</time>
      </trkpt>
      <trkpt lat="46.88351" lon="8.54983">
        <ele>1367</ele>
        <time>2021-08-10T15:06:59.565Z</time>
      </trkpt>
      <trkpt lat="46.88351" lon="8.54982">
        <ele>1366</ele>
        <time>2021-08-10T15:07:00.565Z</time>
      </trkpt>
      <trkpt lat="46.8835" lon="8.54982">
        <ele>1366</ele>
        <time>2021-08-10T15:07:01.564Z</time>
      </trkpt>
      <trkpt lat="46.8835" lon="8.54981">
        <ele>1367</ele>
        <time>2021-08-10T15:07:02.564Z</time>
      </trkpt>
      <trkpt lat="46.88349" lon="8.54981">
        <ele>1367</ele>
        <time>2021-08-10T15:07:03.565Z</time>
      </trkpt>
      <trkpt lat="46.88348" lon="8.54981">
        <ele>1367</ele>
        <time>2021-08-10T15:07:04.564Z</time>
      </trkpt>
      <trkpt lat="46.88348" lon="8.54981">
        <ele>1367</ele>
        <time>2021-08-10T15:07:05.565Z</time>
      </trkpt>
      <trkpt lat="46.88347" lon="8.5498">
        <ele>1368</ele>
        <time>2021-08-10T15:07:06.565Z</time>
      </trkpt>
      <trkpt lat="46.88346" lon="8.5498">
        <ele>1368</ele>
        <time>2021-08-10T15:07:07.565Z</time>
      </trkpt>
      <trkpt lat="46.88345" lon="8.5498">
        <ele>1368</ele>
        <time>2021-08-10T15:07:08.565Z</time>
      </trkpt>
      <trkpt lat="46.88344" lon="8.5498">
        <ele>1368</ele>
        <time>2021-08-10T15:07:09.565Z</time>
      </trkpt>
      <trkpt lat="46.88344" lon="8.5498">
        <ele>1369</ele>
        <time>2021-08-10T15:07:10.564Z</time>
      </trkpt>
      <trkpt lat="46.88344" lon="8.5498">
        <ele>1369</ele>
        <time>2021-08-10T15:07:11.564Z</time>
      </trkpt>
      <trkpt lat="46.88344" lon="8.54979">
        <ele>1369</ele>
        <time>2021-08-10T15:07:12.565Z</time>
      </trkpt>
      <trkpt lat="46.88344" lon="8.54978">
        <ele>1369</ele>
        <time>2021-08-10T15:07:13.565Z</time>
      </trkpt>
      <trkpt lat="46.88344" lon="8.54977">
        <ele>1369</ele>
        <time>2021-08-10T15:07:14.564Z</time>
      </trkpt>
      <trkpt lat="46.88345" lon="8.54976">
        <ele>1369</ele>
        <time>2021-08-10T15:07:15.565Z</time>
      </trkpt>
      <trkpt lat="46.88345" lon="8.54976">
        <ele>1368</ele>
        <time>2021-08-10T15:07:16.565Z</time>
      </trkpt>
      <trkpt lat="46.88346" lon="8.54976">
        <ele>1368</ele>
        <time>2021-08-10T15:07:17.564Z</time>
      </trkpt>
      <trkpt lat="46.88347" lon="8.54975">
        <ele>1368</ele>
        <time>2021-08-10T15:07:18.565Z</time>
      </trkpt>
      <trkpt lat="46.88348" lon="8.54976">
        <ele>1368</ele>
        <time>2021-08-10T15:07:19.565Z</time>
      </trkpt>
      <trkpt lat="46.88349" lon="8.54976">
        <ele>1368</ele>
        <time>2021-08-10T15:07:20.565Z</time>
      </trkpt>
      <trkpt lat="46.88349" lon="8.54975">
        <ele>1368</ele>
        <time>2021-08-10T15:07:21.565Z</time>
      </trkpt>
      <trkpt lat="46.8835" lon="8.54975">
        <ele>1367</ele>
        <time>2021-08-10T15:07:22.564Z</time>
      </trkpt>
      <trkpt lat="46.8835" lon="8.54974">
        <ele>1367</ele>
        <time>2021-08-10T15:07:23.565Z</time>
      </trkpt>
      <trkpt lat="46.8835" lon="8.54973">
        <ele>1367</ele>
        <time>2021-08-10T15:07:24.565Z</time>
      </trkpt>
      <trkpt lat="46.8835" lon="8.54973">
        <ele>1367</ele>
        <time>2021-08-10T15:07:25.564Z</time>
      </trkpt>
      <trkpt lat="46.88349" lon="8.54972">
        <ele>1366</ele>
        <time>2021-08-10T15:07:26.564Z</time>
      </trkpt>
      <trkpt lat="46.88348" lon="8.5497">
        <ele>1366</ele>
        <time>2021-08-10T15:07:27.564Z</time>
      </trkpt>
      <trkpt lat="46.88348" lon="8.54969">
        <ele>1366</ele>
        <time>2021-08-10T15:07:28.565Z</time>
      </trkpt>
      <trkpt lat="46.88348" lon="8.54968">
        <ele>1366</ele>
        <time>2021-08-10T15:07:29.564Z</time>
      </trkpt>
      <trkpt lat="46.88347" lon="8.54968">
        <ele>1366</ele>
        <time>2021-08-10T15:07:30.565Z</time>
      </trkpt>
      <trkpt lat="46.88346" lon="8.54968">
        <ele>1366</ele>
        <time>2021-08-10T15:07:31.565Z</time>
      </trkpt>
      <trkpt lat="46.88346" lon="8.54969">
        <ele>1365</ele>
        <time>2021-08-10T15:07:32.565Z</time>
      </trkpt>
      <trkpt lat="46.88345" lon="8.54971">
        <ele>1365</ele>
        <time>2021-08-10T15:07:33.564Z</time>
      </trkpt>
      <trkpt lat="46.88344" lon="8.54971">
        <ele>1365</ele>
        <time>2021-08-10T15:07:34.564Z</time>
      </trkpt>
      <trkpt lat="46.88342" lon="8.54972">
        <ele>1364</ele>
        <time>2021-08-10T15:07:35.564Z</time>
      </trkpt>
      <trkpt lat="46.88341" lon="8.54972">
        <ele>1364</ele>
        <time>2021-08-10T15:07:36.564Z</time>
      </trkpt>
      <trkpt lat="46.88341" lon="8.54972">
        <ele>1363</ele>
        <time>2021-08-10T15:07:37.564Z</time>
      </trkpt>
      <trkpt lat="46.8834" lon="8.54971">
        <ele>1362</ele>
        <time>2021-08-10T15:07:38.564Z</time>
      </trkpt>
      <trkpt lat="46.88338" lon="8.54971">
        <ele>1362</ele>
        <time>2021-08-10T15:07:39.564Z</time>
      </trkpt>
      <trkpt lat="46.88338" lon="8.5497">
        <ele>1361</ele>
        <time>2021-08-10T15:07:40.565Z</time>
      </trkpt>
      <trkpt lat="46.88337" lon="8.54969">
        <ele>1361</ele>
        <time>2021-08-10T15:07:41.564Z</time>
      </trkpt>
      <trkpt lat="46.88337" lon="8.54968">
        <ele>1361</ele>
        <time>2021-08-10T15:07:42.565Z</time>
      </trkpt>
      <trkpt lat="46.88336" lon="8.54967">
        <ele>1360</ele>
        <time>2021-08-10T15:07:43.565Z</time>
      </trkpt>
      <trkpt lat="46.88336" lon="8.54966">
        <ele>1360</ele>
        <time>2021-08-10T15:07:44.565Z</time>
      </trkpt>
      <trkpt lat="46.88337" lon="8.54964">
        <ele>1359</ele>
        <time>2021-08-10T15:07:45.564Z</time>
      </trkpt>
      <trkpt lat="46.88338" lon="8.54963">
        <ele>1359</ele>
        <time>2021-08-10T15:07:46.564Z</time>
      </trkpt>
      <trkpt lat="46.88338" lon="8.54961">
        <ele>1358</ele>
        <time>2021-08-10T15:07:47.564Z</time>
      </trkpt>
      <trkpt lat="46.88338" lon="8.5496">
        <ele>1358</ele>
        <time>2021-08-10T15:07:48.564Z</time>
      </trkpt>
      <trkpt lat="46.88339" lon="8.54959">
        <ele>1357</ele>
        <time>2021-08-10T15:07:49.564Z</time>
      </trkpt>
      <trkpt lat="46.88339" lon="8.54958">
        <ele>1357</ele>
        <time>2021-08-10T15:07:50.564Z</time>
      </trkpt>
      <trkpt lat="46.8834" lon="8.54958">
        <ele>1357</ele>
        <time>2021-08-10T15:07:51.565Z</time>
      </trkpt>
      <trkpt lat="46.88341" lon="8.54957">
        <ele>1357</ele>
        <time>2021-08-10T15:07:52.565Z</time>
      </trkpt>
      <trkpt lat="46.88341" lon="8.54957">
        <ele>1357</ele>
        <time>2021-08-10T15:07:53.564Z</time>
      </trkpt>
      <trkpt lat="46.88341" lon="8.54956">
        <ele>1357</ele>
        <time>2021-08-10T15:07:54.564Z</time>
      </trkpt>
      <trkpt lat="46.88341" lon="8.54956">
        <ele>1357</ele>
        <time>2021-08-10T15:07:55.564Z</time>
      </trkpt>
      <trkpt lat="46.8834" lon="8.54955">
        <ele>1357</ele>
        <time>2021-08-10T15:07:56.564Z</time>
      </trkpt>
      <trkpt lat="46.88339" lon="8.54954">
        <ele>1357</ele>
        <time>2021-08-10T15:07:57.564Z</time>
      </trkpt>
      <trkpt lat="46.88338" lon="8.54952">
        <ele>1358</ele>
        <time>2021-08-10T15:07:58.565Z</time>
      </trkpt>
      <trkpt lat="46.88337" lon="8.54951">
        <ele>1358</ele>
        <time>2021-08-10T15:07:59.565Z</time>
      </trkpt>
      <trkpt lat="46.88337" lon="8.54951">
        <ele>1358</ele>
        <time>2021-08-10T15:08:00.565Z</time>
      </trkpt>
      <trkpt lat="46.88337" lon="8.54951">
        <ele>1359</ele>
        <time>2021-08-10T15:08:01.564Z</time>
      </trkpt>
      <trkpt lat="46.88337" lon="8.54951">
        <ele>1359</ele>
        <time>2021-08-10T15:08:02.564Z</time>
      </trkpt>
      <trkpt lat="46.88337" lon="8.54951">
        <ele>1364</ele>
        <time>2021-08-10T15:08:03.566Z</time>
      </trkpt>
      <trkpt lat="46.88337" lon="8.54949">
        <ele>1366</ele>
        <time>2021-08-10T15:08:04.565Z</time>
      </trkpt>
      <trkpt lat="46.88337" lon="8.54949">
        <ele>1366</ele>
        <time>2021-08-10T15:08:05.566Z</time>
      </trkpt>
      <trkpt lat="46.88338" lon="8.54949">
        <ele>1366</ele>
        <time>2021-08-10T15:08:06.565Z</time>
      </trkpt>
      <trkpt lat="46.88338" lon="8.54948">
        <ele>1367</ele>
        <time>2021-08-10T15:08:07.566Z</time>
      </trkpt>
      <trkpt lat="46.88338" lon="8.54948">
        <ele>1367</ele>
        <time>2021-08-10T15:08:08.566Z</time>
      </trkpt>
      <trkpt lat="46.88338" lon="8.54947">
        <ele>1368</ele>
        <time>2021-08-10T15:08:09.566Z</time>
      </trkpt>
      <trkpt lat="46.88338" lon="8.54946">
        <ele>1368</ele>
        <time>2021-08-10T15:08:10.566Z</time>
      </trkpt>
      <trkpt lat="46.88337" lon="8.54945">
        <ele>1369</ele>
        <time>2021-08-10T15:08:11.566Z</time>
      </trkpt>
      <trkpt lat="46.88337" lon="8.54945">
        <ele>1369</ele>
        <time>2021-08-10T15:08:12.566Z</time>
      </trkpt>
      <trkpt lat="46.88336" lon="8.54944">
        <ele>1370</ele>
        <time>2021-08-10T15:08:13.565Z</time>
      </trkpt>
      <trkpt lat="46.88336" lon="8.54944">
        <ele>1370</ele>
        <time>2021-08-10T15:08:14.566Z</time>
      </trkpt>
      <trkpt lat="46.88335" lon="8.54943">
        <ele>1371</ele>
        <time>2021-08-10T15:08:19.713Z</time>
      </trkpt>
      <trkpt lat="46.88335" lon="8.54943">
        <ele>1371</ele>
        <time>2021-08-10T15:08:20.713Z</time>
      </trkpt>
      <trkpt lat="46.88335" lon="8.54942">
        <ele>1371</ele>
        <time>2021-08-10T15:08:21.713Z</time>
      </trkpt>
      <trkpt lat="46.88335" lon="8.54941">
        <ele>1371</ele>
        <time>2021-08-10T15:08:22.713Z</time>
      </trkpt>
      <trkpt lat="46.88335" lon="8.54941">
        <ele>1371</ele>
        <time>2021-08-10T15:08:23.713Z</time>
      </trkpt>
      <trkpt lat="46.88335" lon="8.5494">
        <ele>1372</ele>
        <time>2021-08-10T15:08:24.713Z</time>
      </trkpt>
      <trkpt lat="46.88335" lon="8.54939">
        <ele>1373</ele>
        <time>2021-08-10T15:08:34.841Z</time>
      </trkpt>
      <trkpt lat="46.88335" lon="8.54939">
        <ele>1374</ele>
        <time>2021-08-10T15:08:35.840Z</time>
      </trkpt>
      <trkpt lat="46.88334" lon="8.54938">
        <ele>1375</ele>
        <time>2021-08-10T15:08:36.841Z</time>
      </trkpt>
      <trkpt lat="46.88334" lon="8.54938">
        <ele>1376</ele>
        <time>2021-08-10T15:08:37.841Z</time>
      </trkpt>
      <trkpt lat="46.88334" lon="8.54937">
        <ele>1376</ele>
        <time>2021-08-10T15:08:52.938Z</time>
      </trkpt>
      <trkpt lat="46.88334" lon="8.54936">
        <ele>1376</ele>
        <time>2021-08-10T15:08:53.938Z</time>
      </trkpt>
      <trkpt lat="46.88334" lon="8.54935">
        <ele>1377</ele>
        <time>2021-08-10T15:08:54.938Z</time>
      </trkpt>
      <trkpt lat="46.88334" lon="8.54935">
        <ele>1377</ele>
        <time>2021-08-10T15:08:55.938Z</time>
      </trkpt>
      <trkpt lat="46.88334" lon="8.54934">
        <ele>1377</ele>
        <time>2021-08-10T15:08:56.937Z</time>
      </trkpt>
      <trkpt lat="46.88333" lon="8.54933">
        <ele>1377</ele>
        <time>2021-08-10T15:08:57.937Z</time>
      </trkpt>
      <trkpt lat="46.88333" lon="8.54931">
        <ele>1377</ele>
        <time>2021-08-10T15:08:58.938Z</time>
      </trkpt>
      <trkpt lat="46.88333" lon="8.5493">
        <ele>1378</ele>
        <time>2021-08-10T15:08:59.938Z</time>
      </trkpt>
      <trkpt lat="46.88332" lon="8.5493">
        <ele>1378</ele>
        <time>2021-08-10T15:09:00.937Z</time>
      </trkpt>
      <trkpt lat="46.88332" lon="8.54929">
        <ele>1378</ele>
        <time>2021-08-10T15:09:01.938Z</time>
      </trkpt>
      <trkpt lat="46.88331" lon="8.54929">
        <ele>1378</ele>
        <time>2021-08-10T15:09:02.938Z</time>
      </trkpt>
      <trkpt lat="46.88332" lon="8.54929">
        <ele>1378</ele>
        <time>2021-08-10T15:09:03.938Z</time>
      </trkpt>
      <trkpt lat="46.88332" lon="8.54929">
        <ele>1378</ele>
        <time>2021-08-10T15:09:04.938Z</time>
      </trkpt>
      <trkpt lat="46.88332" lon="8.54927">
        <ele>1378</ele>
        <time>2021-08-10T15:09:05.937Z</time>
      </trkpt>
      <trkpt lat="46.8833" lon="8.54926">
        <ele>1378</ele>
        <time>2021-08-10T15:09:06.937Z</time>
      </trkpt>
      <trkpt lat="46.88329" lon="8.54924">
        <ele>1378</ele>
        <time>2021-08-10T15:09:07.938Z</time>
      </trkpt>
      <trkpt lat="46.88327" lon="8.54923">
        <ele>1379</ele>
        <time>2021-08-10T15:09:08.938Z</time>
      </trkpt>
      <trkpt lat="46.88326" lon="8.54922">
        <ele>1379</ele>
        <time>2021-08-10T15:09:09.937Z</time>
      </trkpt>
      <trkpt lat="46.88326" lon="8.54923">
        <ele>1380</ele>
        <time>2021-08-10T15:09:10.938Z</time>
      </trkpt>
      <trkpt lat="46.88326" lon="8.54923">
        <ele>1380</ele>
        <time>2021-08-10T15:09:11.937Z</time>
      </trkpt>
      <trkpt lat="46.88326" lon="8.54923">
        <ele>1381</ele>
        <time>2021-08-10T15:09:12.938Z</time>
      </trkpt>
      <trkpt lat="46.88325" lon="8.54923">
        <ele>1381</ele>
        <time>2021-08-10T15:09:13.937Z</time>
      </trkpt>
      <trkpt lat="46.88325" lon="8.54922">
        <ele>1381</ele>
        <time>2021-08-10T15:09:14.938Z</time>
      </trkpt>
      <trkpt lat="46.88325" lon="8.54922">
        <ele>1381</ele>
        <time>2021-08-10T15:09:15.938Z</time>
      </trkpt>
      <trkpt lat="46.88325" lon="8.54922">
        <ele>1381</ele>
        <time>2021-08-10T15:09:16.938Z</time>
      </trkpt>
      <trkpt lat="46.88324" lon="8.5492">
        <ele>1382</ele>
        <time>2021-08-10T15:09:17.938Z</time>
      </trkpt>
      <trkpt lat="46.88323" lon="8.5492">
        <ele>1382</ele>
        <time>2021-08-10T15:09:18.937Z</time>
      </trkpt>
      <trkpt lat="46.88323" lon="8.5492">
        <ele>1383</ele>
        <time>2021-08-10T15:09:19.938Z</time>
      </trkpt>
      <trkpt lat="46.88323" lon="8.5492">
        <ele>1383</ele>
        <time>2021-08-10T15:09:20.938Z</time>
      </trkpt>
      <trkpt lat="46.88322" lon="8.54919">
        <ele>1385</ele>
        <time>2021-08-10T15:09:21.937Z</time>
      </trkpt>
      <trkpt lat="46.88322" lon="8.54918">
        <ele>1386</ele>
        <time>2021-08-10T15:09:22.938Z</time>
      </trkpt>
      <trkpt lat="46.88321" lon="8.54917">
        <ele>1387</ele>
        <time>2021-08-10T15:09:23.938Z</time>
      </trkpt>
      <trkpt lat="46.8832" lon="8.54917">
        <ele>1387</ele>
        <time>2021-08-10T15:09:24.938Z</time>
      </trkpt>
      <trkpt lat="46.8832" lon="8.54916">
        <ele>1388</ele>
        <time>2021-08-10T15:09:25.938Z</time>
      </trkpt>
      <trkpt lat="46.8832" lon="8.54916">
        <ele>1389</ele>
        <time>2021-08-10T15:09:26.938Z</time>
      </trkpt>
      <trkpt lat="46.88319" lon="8.54915">
        <ele>1389</ele>
        <time>2021-08-10T15:09:27.937Z</time>
      </trkpt>
      <trkpt lat="46.8832" lon="8.54914">
        <ele>1389</ele>
        <time>2021-08-10T15:09:28.938Z</time>
      </trkpt>
      <trkpt lat="46.8832" lon="8.54914">
        <ele>1390</ele>
        <time>2021-08-10T15:09:29.937Z</time>
      </trkpt>
      <trkpt lat="46.88321" lon="8.54914">
        <ele>1390</ele>
        <time>2021-08-10T15:09:30.938Z</time>
      </trkpt>
      <trkpt lat="46.88321" lon="8.54913">
        <ele>1391</ele>
        <time>2021-08-10T15:09:31.938Z</time>
      </trkpt>
      <trkpt lat="46.88321" lon="8.54913">
        <ele>1391</ele>
        <time>2021-08-10T15:09:32.938Z</time>
      </trkpt>
      <trkpt lat="46.88321" lon="8.54912">
        <ele>1392</ele>
        <time>2021-08-10T15:09:33.938Z</time>
      </trkpt>
      <trkpt lat="46.88321" lon="8.54911">
        <ele>1392</ele>
        <time>2021-08-10T15:09:34.937Z</time>
      </trkpt>
      <trkpt lat="46.88321" lon="8.54909">
        <ele>1392</ele>
        <time>2021-08-10T15:09:35.938Z</time>
      </trkpt>
      <trkpt lat="46.8832" lon="8.54908">
        <ele>1393</ele>
        <time>2021-08-10T15:09:36.938Z</time>
      </trkpt>
      <trkpt lat="46.8832" lon="8.54906">
        <ele>1393</ele>
        <time>2021-08-10T15:09:37.937Z</time>
      </trkpt>
      <trkpt lat="46.8832" lon="8.54905">
        <ele>1393</ele>
        <time>2021-08-10T15:09:38.937Z</time>
      </trkpt>
      <trkpt lat="46.88319" lon="8.54903">
        <ele>1393</ele>
        <time>2021-08-10T15:09:39.938Z</time>
      </trkpt>
      <trkpt lat="46.88319" lon="8.54902">
        <ele>1394</ele>
        <time>2021-08-10T15:09:40.937Z</time>
      </trkpt>
      <trkpt lat="46.88318" lon="8.54901">
        <ele>1394</ele>
        <time>2021-08-10T15:09:41.938Z</time>
      </trkpt>
      <trkpt lat="46.88318" lon="8.549">
        <ele>1395</ele>
        <time>2021-08-10T15:09:42.938Z</time>
      </trkpt>
      <trkpt lat="46.88317" lon="8.54899">
        <ele>1395</ele>
        <time>2021-08-10T15:09:43.938Z</time>
      </trkpt>
      <trkpt lat="46.88316" lon="8.54899">
        <ele>1395</ele>
        <time>2021-08-10T15:09:44.938Z</time>
      </trkpt>
      <trkpt lat="46.88315" lon="8.54898">
        <ele>1395</ele>
        <time>2021-08-10T15:09:45.938Z</time>
      </trkpt>
      <trkpt lat="46.88314" lon="8.54897">
        <ele>1395</ele>
        <time>2021-08-10T15:09:46.938Z</time>
      </trkpt>
      <trkpt lat="46.88314" lon="8.54896">
        <ele>1395</ele>
        <time>2021-08-10T15:09:47.937Z</time>
      </trkpt>
      <trkpt lat="46.88314" lon="8.54896">
        <ele>1395</ele>
        <time>2021-08-10T15:09:48.938Z</time>
      </trkpt>
      <trkpt lat="46.88314" lon="8.54895">
        <ele>1395</ele>
        <time>2021-08-10T15:09:49.938Z</time>
      </trkpt>
      <trkpt lat="46.88313" lon="8.54894">
        <ele>1396</ele>
        <time>2021-08-10T15:09:50.938Z</time>
      </trkpt>
      <trkpt lat="46.88313" lon="8.54893">
        <ele>1396</ele>
        <time>2021-08-10T15:09:51.938Z</time>
      </trkpt>
      <trkpt lat="46.88313" lon="8.54893">
        <ele>1396</ele>
        <time>2021-08-10T15:09:52.938Z</time>
      </trkpt>
      <trkpt lat="46.88313" lon="8.54892">
        <ele>1395</ele>
        <time>2021-08-10T15:09:53.938Z</time>
      </trkpt>
      <trkpt lat="46.88313" lon="8.54891">
        <ele>1395</ele>
        <time>2021-08-10T15:09:54.938Z</time>
      </trkpt>
      <trkpt lat="46.88313" lon="8.5489">
        <ele>1394</ele>
        <time>2021-08-10T15:09:55.938Z</time>
      </trkpt>
      <trkpt lat="46.88313" lon="8.54889">
        <ele>1393</ele>
        <time>2021-08-10T15:09:56.937Z</time>
      </trkpt>
      <trkpt lat="46.88313" lon="8.54889">
        <ele>1392</ele>
        <time>2021-08-10T15:09:57.937Z</time>
      </trkpt>
      <trkpt lat="46.88313" lon="8.54887">
        <ele>1392</ele>
        <time>2021-08-10T15:09:58.938Z</time>
      </trkpt>
      <trkpt lat="46.88313" lon="8.54887">
        <ele>1392</ele>
        <time>2021-08-10T15:09:59.937Z</time>
      </trkpt>
      <trkpt lat="46.88314" lon="8.54886">
        <ele>1391</ele>
        <time>2021-08-10T15:10:00.938Z</time>
      </trkpt>
      <trkpt lat="46.88314" lon="8.54885">
        <ele>1391</ele>
        <time>2021-08-10T15:10:01.938Z</time>
      </trkpt>
      <trkpt lat="46.88315" lon="8.54885">
        <ele>1390</ele>
        <time>2021-08-10T15:10:02.937Z</time>
      </trkpt>
      <trkpt lat="46.88316" lon="8.54884">
        <ele>1390</ele>
        <time>2021-08-10T15:10:03.937Z</time>
      </trkpt>
      <trkpt lat="46.88316" lon="8.54883">
        <ele>1389</ele>
        <time>2021-08-10T15:10:04.937Z</time>
      </trkpt>
      <trkpt lat="46.88316" lon="8.54883">
        <ele>1389</ele>
        <time>2021-08-10T15:10:05.938Z</time>
      </trkpt>
      <trkpt lat="46.88318" lon="8.54882">
        <ele>1388</ele>
        <time>2021-08-10T15:10:06.937Z</time>
      </trkpt>
      <trkpt lat="46.88318" lon="8.54882">
        <ele>1388</ele>
        <time>2021-08-10T15:10:07.938Z</time>
      </trkpt>
      <trkpt lat="46.88319" lon="8.54881">
        <ele>1387</ele>
        <time>2021-08-10T15:10:08.938Z</time>
      </trkpt>
      <trkpt lat="46.8832" lon="8.5488">
        <ele>1387</ele>
        <time>2021-08-10T15:10:09.938Z</time>
      </trkpt>
      <trkpt lat="46.88321" lon="8.54879">
        <ele>1386</ele>
        <time>2021-08-10T15:10:10.938Z</time>
      </trkpt>
      <trkpt lat="46.88322" lon="8.54878">
        <ele>1386</ele>
        <time>2021-08-10T15:10:11.938Z</time>
      </trkpt>
      <trkpt lat="46.88322" lon="8.54877">
        <ele>1386</ele>
        <time>2021-08-10T15:10:12.937Z</time>
      </trkpt>
      <trkpt lat="46.88322" lon="8.54876">
        <ele>1386</ele>
        <time>2021-08-10T15:10:13.937Z</time>
      </trkpt>
      <trkpt lat="46.88323" lon="8.54875">
        <ele>1385</ele>
        <time>2021-08-10T15:10:14.938Z</time>
      </trkpt>
      <trkpt lat="46.88323" lon="8.54874">
        <ele>1385</ele>
        <time>2021-08-10T15:10:15.937Z</time>
      </trkpt>
      <trkpt lat="46.88323" lon="8.54873">
        <ele>1385</ele>
        <time>2021-08-10T15:10:16.938Z</time>
      </trkpt>
      <trkpt lat="46.88322" lon="8.54872">
        <ele>1385</ele>
        <time>2021-08-10T15:10:17.937Z</time>
      </trkpt>
      <trkpt lat="46.88321" lon="8.5487">
        <ele>1385</ele>
        <time>2021-08-10T15:10:18.937Z</time>
      </trkpt>
      <trkpt lat="46.88321" lon="8.54869">
        <ele>1385</ele>
        <time>2021-08-10T15:10:19.937Z</time>
      </trkpt>
      <trkpt lat="46.8832" lon="8.54866">
        <ele>1384</ele>
        <time>2021-08-10T15:10:20.937Z</time>
      </trkpt>
      <trkpt lat="46.88319" lon="8.54864">
        <ele>1384</ele>
        <time>2021-08-10T15:10:21.938Z</time>
      </trkpt>
      <trkpt lat="46.88318" lon="8.54863">
        <ele>1384</ele>
        <time>2021-08-10T15:10:22.937Z</time>
      </trkpt>
      <trkpt lat="46.88317" lon="8.54862">
        <ele>1384</ele>
        <time>2021-08-10T15:10:23.937Z</time>
      </trkpt>
      <trkpt lat="46.88317" lon="8.54862">
        <ele>1385</ele>
        <time>2021-08-10T15:10:24.937Z</time>
      </trkpt>
      <trkpt lat="46.88316" lon="8.54861">
        <ele>1385</ele>
        <time>2021-08-10T15:10:25.938Z</time>
      </trkpt>
      <trkpt lat="46.88316" lon="8.54861">
        <ele>1386</ele>
        <time>2021-08-10T15:10:26.937Z</time>
      </trkpt>
      <trkpt lat="46.88315" lon="8.54861">
        <ele>1387</ele>
        <time>2021-08-10T15:10:27.937Z</time>
      </trkpt>
      <trkpt lat="46.88314" lon="8.54861">
        <ele>1388</ele>
        <time>2021-08-10T15:10:28.938Z</time>
      </trkpt>
      <trkpt lat="46.88314" lon="8.5486">
        <ele>1388</ele>
        <time>2021-08-10T15:10:29.938Z</time>
      </trkpt>
      <trkpt lat="46.88313" lon="8.5486">
        <ele>1389</ele>
        <time>2021-08-10T15:10:30.937Z</time>
      </trkpt>
      <trkpt lat="46.88313" lon="8.5486">
        <ele>1389</ele>
        <time>2021-08-10T15:10:31.938Z</time>
      </trkpt>
      <trkpt lat="46.88312" lon="8.5486">
        <ele>1389</ele>
        <time>2021-08-10T15:10:32.937Z</time>
      </trkpt>
      <trkpt lat="46.88311" lon="8.54859">
        <ele>1389</ele>
        <time>2021-08-10T15:10:33.938Z</time>
      </trkpt>
      <trkpt lat="46.8831" lon="8.54858">
        <ele>1389</ele>
        <time>2021-08-10T15:10:34.937Z</time>
      </trkpt>
      <trkpt lat="46.8831" lon="8.54859">
        <ele>1390</ele>
        <time>2021-08-10T15:10:35.938Z</time>
      </trkpt>
      <trkpt lat="46.8831" lon="8.54859">
        <ele>1391</ele>
        <time>2021-08-10T15:10:36.938Z</time>
      </trkpt>
      <trkpt lat="46.88309" lon="8.5486">
        <ele>1392</ele>
        <time>2021-08-10T15:10:37.937Z</time>
      </trkpt>
      <trkpt lat="46.88308" lon="8.5486">
        <ele>1393</ele>
        <time>2021-08-10T15:10:38.938Z</time>
      </trkpt>
      <trkpt lat="46.88308" lon="8.5486">
        <ele>1393</ele>
        <time>2021-08-10T15:10:39.938Z</time>
      </trkpt>
      <trkpt lat="46.88307" lon="8.5486">
        <ele>1394</ele>
        <time>2021-08-10T15:10:40.938Z</time>
      </trkpt>
      <trkpt lat="46.88306" lon="8.5486">
        <ele>1394</ele>
        <time>2021-08-10T15:10:41.938Z</time>
      </trkpt>
      <trkpt lat="46.88305" lon="8.5486">
        <ele>1395</ele>
        <time>2021-08-10T15:10:42.938Z</time>
      </trkpt>
      <trkpt lat="46.88305" lon="8.54859">
        <ele>1395</ele>
        <time>2021-08-10T15:10:43.938Z</time>
      </trkpt>
      <trkpt lat="46.88304" lon="8.54859">
        <ele>1395</ele>
        <time>2021-08-10T15:10:44.938Z</time>
      </trkpt>
      <trkpt lat="46.88304" lon="8.54858">
        <ele>1395</ele>
        <time>2021-08-10T15:10:45.938Z</time>
      </trkpt>
      <trkpt lat="46.88303" lon="8.54858">
        <ele>1395</ele>
        <time>2021-08-10T15:10:46.938Z</time>
      </trkpt>
      <trkpt lat="46.88303" lon="8.54857">
        <ele>1394</ele>
        <time>2021-08-10T15:10:47.937Z</time>
      </trkpt>
      <trkpt lat="46.88302" lon="8.54857">
        <ele>1394</ele>
        <time>2021-08-10T15:10:48.937Z</time>
      </trkpt>
      <trkpt lat="46.88302" lon="8.54856">
        <ele>1394</ele>
        <time>2021-08-10T15:10:49.938Z</time>
      </trkpt>
      <trkpt lat="46.88301" lon="8.54855">
        <ele>1394</ele>
        <time>2021-08-10T15:10:50.938Z</time>
      </trkpt>
      <trkpt lat="46.88301" lon="8.54855">
        <ele>1394</ele>
        <time>2021-08-10T15:10:51.938Z</time>
      </trkpt>
      <trkpt lat="46.88301" lon="8.54854">
        <ele>1394</ele>
        <time>2021-08-10T15:10:52.937Z</time>
      </trkpt>
      <trkpt lat="46.88302" lon="8.54855">
        <ele>1395</ele>
        <time>2021-08-10T15:10:53.938Z</time>
      </trkpt>
      <trkpt lat="46.88301" lon="8.54855">
        <ele>1395</ele>
        <time>2021-08-10T15:10:54.938Z</time>
      </trkpt>
      <trkpt lat="46.88301" lon="8.54856">
        <ele>1396</ele>
        <time>2021-08-10T15:10:55.938Z</time>
      </trkpt>
      <trkpt lat="46.88301" lon="8.54856">
        <ele>1397</ele>
        <time>2021-08-10T15:10:56.938Z</time>
      </trkpt>
      <trkpt lat="46.883" lon="8.54856">
        <ele>1397</ele>
        <time>2021-08-10T15:10:57.937Z</time>
      </trkpt>
      <trkpt lat="46.883" lon="8.54856">
        <ele>1398</ele>
        <time>2021-08-10T15:10:58.938Z</time>
      </trkpt>
      <trkpt lat="46.883" lon="8.54855">
        <ele>1399</ele>
        <time>2021-08-10T15:10:59.938Z</time>
      </trkpt>
      <trkpt lat="46.883" lon="8.54854">
        <ele>1399</ele>
        <time>2021-08-10T15:11:00.938Z</time>
      </trkpt>
      <trkpt lat="46.88299" lon="8.54854">
        <ele>1400</ele>
        <time>2021-08-10T15:11:01.938Z</time>
      </trkpt>
      <trkpt lat="46.88298" lon="8.54853">
        <ele>1400</ele>
        <time>2021-08-10T15:11:02.937Z</time>
      </trkpt>
      <trkpt lat="46.88297" lon="8.54853">
        <ele>1400</ele>
        <time>2021-08-10T15:11:03.938Z</time>
      </trkpt>
      <trkpt lat="46.88297" lon="8.54853">
        <ele>1401</ele>
        <time>2021-08-10T15:11:04.937Z</time>
      </trkpt>
      <trkpt lat="46.88297" lon="8.54852">
        <ele>1401</ele>
        <time>2021-08-10T15:11:05.937Z</time>
      </trkpt>
      <trkpt lat="46.88296" lon="8.54852">
        <ele>1401</ele>
        <time>2021-08-10T15:11:06.938Z</time>
      </trkpt>
      <trkpt lat="46.88296" lon="8.54851">
        <ele>1400</ele>
        <time>2021-08-10T15:11:07.938Z</time>
      </trkpt>
      <trkpt lat="46.88296" lon="8.5485">
        <ele>1400</ele>
        <time>2021-08-10T15:11:08.938Z</time>
      </trkpt>
      <trkpt lat="46.88295" lon="8.5485">
        <ele>1399</ele>
        <time>2021-08-10T15:11:09.938Z</time>
      </trkpt>
      <trkpt lat="46.88295" lon="8.5485">
        <ele>1399</ele>
        <time>2021-08-10T15:11:10.938Z</time>
      </trkpt>
      <trkpt lat="46.88294" lon="8.5485">
        <ele>1399</ele>
        <time>2021-08-10T15:11:11.937Z</time>
      </trkpt>
      <trkpt lat="46.88294" lon="8.54849">
        <ele>1399</ele>
        <time>2021-08-10T15:11:12.938Z</time>
      </trkpt>
      <trkpt lat="46.88294" lon="8.54849">
        <ele>1399</ele>
        <time>2021-08-10T15:11:13.938Z</time>
      </trkpt>
      <trkpt lat="46.88295" lon="8.5485">
        <ele>1399</ele>
        <time>2021-08-10T15:11:14.940Z</time>
      </trkpt>
      <trkpt lat="46.88295" lon="8.5485">
        <ele>1399</ele>
        <time>2021-08-10T15:11:15.940Z</time>
      </trkpt>
      <trkpt lat="46.88295" lon="8.5485">
        <ele>1399</ele>
        <time>2021-08-10T15:11:16.940Z</time>
      </trkpt>
      <trkpt lat="46.88295" lon="8.54849">
        <ele>1398</ele>
        <time>2021-08-10T15:11:17.940Z</time>
      </trkpt>
      <trkpt lat="46.88294" lon="8.54849">
        <ele>1398</ele>
        <time>2021-08-10T15:11:18.940Z</time>
      </trkpt>
      <trkpt lat="46.88293" lon="8.54848">
        <ele>1398</ele>
        <time>2021-08-10T15:11:19.939Z</time>
      </trkpt>
      <trkpt lat="46.88293" lon="8.54848">
        <ele>1398</ele>
        <time>2021-08-10T15:11:20.939Z</time>
      </trkpt>
      <trkpt lat="46.88292" lon="8.54848">
        <ele>1398</ele>
        <time>2021-08-10T15:11:21.940Z</time>
      </trkpt>
      <trkpt lat="46.88291" lon="8.54847">
        <ele>1398</ele>
        <time>2021-08-10T15:11:22.939Z</time>
      </trkpt>
      <trkpt lat="46.88291" lon="8.54846">
        <ele>1399</ele>
        <time>2021-08-10T15:11:23.940Z</time>
      </trkpt>
      <trkpt lat="46.88291" lon="8.54846">
        <ele>1399</ele>
        <time>2021-08-10T15:11:24.939Z</time>
      </trkpt>
      <trkpt lat="46.88291" lon="8.54845">
        <ele>1399</ele>
        <time>2021-08-10T15:11:25.939Z</time>
      </trkpt>
      <trkpt lat="46.8829" lon="8.54844">
        <ele>1400</ele>
        <time>2021-08-10T15:11:26.940Z</time>
      </trkpt>
      <trkpt lat="46.8829" lon="8.54843">
        <ele>1400</ele>
        <time>2021-08-10T15:11:27.940Z</time>
      </trkpt>
      <trkpt lat="46.88289" lon="8.54842">
        <ele>1400</ele>
        <time>2021-08-10T15:11:28.940Z</time>
      </trkpt>
      <trkpt lat="46.88289" lon="8.54841">
        <ele>1400</ele>
        <time>2021-08-10T15:11:29.939Z</time>
      </trkpt>
      <trkpt lat="46.88289" lon="8.5484">
        <ele>1401</ele>
        <time>2021-08-10T15:11:30.939Z</time>
      </trkpt>
      <trkpt lat="46.88289" lon="8.5484">
        <ele>1401</ele>
        <time>2021-08-10T15:11:31.939Z</time>
      </trkpt>
      <trkpt lat="46.8829" lon="8.54841">
        <ele>1401</ele>
        <time>2021-08-10T15:11:32.940Z</time>
      </trkpt>
      <trkpt lat="46.88289" lon="8.54841">
        <ele>1402</ele>
        <time>2021-08-10T15:11:33.940Z</time>
      </trkpt>
      <trkpt lat="46.88289" lon="8.54841">
        <ele>1402</ele>
        <time>2021-08-10T15:11:34.939Z</time>
      </trkpt>
      <trkpt lat="46.88288" lon="8.54842">
        <ele>1403</ele>
        <time>2021-08-10T15:11:35.940Z</time>
      </trkpt>
      <trkpt lat="46.88288" lon="8.54841">
        <ele>1403</ele>
        <time>2021-08-10T15:11:36.940Z</time>
      </trkpt>
      <trkpt lat="46.88288" lon="8.54842">
        <ele>1403</ele>
        <time>2021-08-10T15:11:37.940Z</time>
      </trkpt>
      <trkpt lat="46.88288" lon="8.54842">
        <ele>1403</ele>
        <time>2021-08-10T15:11:38.939Z</time>
      </trkpt>
      <trkpt lat="46.88287" lon="8.54842">
        <ele>1404</ele>
        <time>2021-08-10T15:11:39.940Z</time>
      </trkpt>
      <trkpt lat="46.88287" lon="8.54842">
        <ele>1404</ele>
        <time>2021-08-10T15:11:40.940Z</time>
      </trkpt>
      <trkpt lat="46.88286" lon="8.54841">
        <ele>1404</ele>
        <time>2021-08-10T15:11:41.939Z</time>
      </trkpt>
      <trkpt lat="46.88286" lon="8.54841">
        <ele>1404</ele>
        <time>2021-08-10T15:11:42.940Z</time>
      </trkpt>
      <trkpt lat="46.88286" lon="8.54841">
        <ele>1404</ele>
        <time>2021-08-10T15:11:43.939Z</time>
      </trkpt>
      <trkpt lat="46.88286" lon="8.5484">
        <ele>1404</ele>
        <time>2021-08-10T15:11:44.939Z</time>
      </trkpt>
      <trkpt lat="46.88285" lon="8.54838">
        <ele>1404</ele>
        <time>2021-08-10T15:11:45.939Z</time>
      </trkpt>
      <trkpt lat="46.88285" lon="8.54838">
        <ele>1404</ele>
        <time>2021-08-10T15:11:46.939Z</time>
      </trkpt>
      <trkpt lat="46.88285" lon="8.54837">
        <ele>1404</ele>
        <time>2021-08-10T15:11:47.939Z</time>
      </trkpt>
      <trkpt lat="46.88285" lon="8.54836">
        <ele>1404</ele>
        <time>2021-08-10T15:11:48.940Z</time>
      </trkpt>
      <trkpt lat="46.88284" lon="8.54835">
        <ele>1404</ele>
        <time>2021-08-10T15:11:49.939Z</time>
      </trkpt>
      <trkpt lat="46.88284" lon="8.54833">
        <ele>1405</ele>
        <time>2021-08-10T15:11:50.939Z</time>
      </trkpt>
      <trkpt lat="46.88282" lon="8.54832">
        <ele>1405</ele>
        <time>2021-08-10T15:11:51.940Z</time>
      </trkpt>
      <trkpt lat="46.88281" lon="8.54831">
        <ele>1405</ele>
        <time>2021-08-10T15:11:52.940Z</time>
      </trkpt>
      <trkpt lat="46.8828" lon="8.54831">
        <ele>1405</ele>
        <time>2021-08-10T15:11:53.940Z</time>
      </trkpt>
      <trkpt lat="46.88279" lon="8.54829">
        <ele>1405</ele>
        <time>2021-08-10T15:11:54.940Z</time>
      </trkpt>
      <trkpt lat="46.88279" lon="8.54829">
        <ele>1405</ele>
        <time>2021-08-10T15:11:55.940Z</time>
      </trkpt>
      <trkpt lat="46.88278" lon="8.54828">
        <ele>1404</ele>
        <time>2021-08-10T15:11:56.939Z</time>
      </trkpt>
      <trkpt lat="46.88279" lon="8.54827">
        <ele>1404</ele>
        <time>2021-08-10T15:11:57.939Z</time>
      </trkpt>
      <trkpt lat="46.88278" lon="8.54826">
        <ele>1404</ele>
        <time>2021-08-10T15:11:58.939Z</time>
      </trkpt>
      <trkpt lat="46.88277" lon="8.54826">
        <ele>1404</ele>
        <time>2021-08-10T15:11:59.940Z</time>
      </trkpt>
      <trkpt lat="46.88276" lon="8.54825">
        <ele>1404</ele>
        <time>2021-08-10T15:12:00.940Z</time>
      </trkpt>
      <trkpt lat="46.88276" lon="8.54825">
        <ele>1404</ele>
        <time>2021-08-10T15:12:01.940Z</time>
      </trkpt>
      <trkpt lat="46.88276" lon="8.54824">
        <ele>1404</ele>
        <time>2021-08-10T15:12:02.939Z</time>
      </trkpt>
      <trkpt lat="46.88277" lon="8.54824">
        <ele>1404</ele>
        <time>2021-08-10T15:12:03.939Z</time>
      </trkpt>
      <trkpt lat="46.88277" lon="8.54825">
        <ele>1404</ele>
        <time>2021-08-10T15:12:04.939Z</time>
      </trkpt>
      <trkpt lat="46.88276" lon="8.54824">
        <ele>1404</ele>
        <time>2021-08-10T15:12:05.940Z</time>
      </trkpt>
      <trkpt lat="46.88275" lon="8.54823">
        <ele>1404</ele>
        <time>2021-08-10T15:12:06.940Z</time>
      </trkpt>
      <trkpt lat="46.88275" lon="8.54822">
        <ele>1405</ele>
        <time>2021-08-10T15:12:07.939Z</time>
      </trkpt>
      <trkpt lat="46.88274" lon="8.54821">
        <ele>1405</ele>
        <time>2021-08-10T15:12:08.939Z</time>
      </trkpt>
      <trkpt lat="46.88274" lon="8.5482">
        <ele>1405</ele>
        <time>2021-08-10T15:12:09.939Z</time>
      </trkpt>
      <trkpt lat="46.88274" lon="8.54819">
        <ele>1406</ele>
        <time>2021-08-10T15:12:10.939Z</time>
      </trkpt>
      <trkpt lat="46.88274" lon="8.54818">
        <ele>1406</ele>
        <time>2021-08-10T15:12:11.940Z</time>
      </trkpt>
      <trkpt lat="46.88274" lon="8.54817">
        <ele>1406</ele>
        <time>2021-08-10T15:12:12.939Z</time>
      </trkpt>
      <trkpt lat="46.88274" lon="8.54817">
        <ele>1406</ele>
        <time>2021-08-10T15:12:13.939Z</time>
      </trkpt>
      <trkpt lat="46.88274" lon="8.54816">
        <ele>1406</ele>
        <time>2021-08-10T15:12:14.940Z</time>
      </trkpt>
      <trkpt lat="46.88274" lon="8.54815">
        <ele>1406</ele>
        <time>2021-08-10T15:12:15.939Z</time>
      </trkpt>
      <trkpt lat="46.88274" lon="8.54814">
        <ele>1405</ele>
        <time>2021-08-10T15:12:16.940Z</time>
      </trkpt>
      <trkpt lat="46.88273" lon="8.54813">
        <ele>1405</ele>
        <time>2021-08-10T15:12:17.940Z</time>
      </trkpt>
      <trkpt lat="46.88273" lon="8.54812">
        <ele>1405</ele>
        <time>2021-08-10T15:12:18.940Z</time>
      </trkpt>
      <trkpt lat="46.88272" lon="8.54811">
        <ele>1405</ele>
        <time>2021-08-10T15:12:19.940Z</time>
      </trkpt>
      <trkpt lat="46.88271" lon="8.5481">
        <ele>1405</ele>
        <time>2021-08-10T15:12:20.940Z</time>
      </trkpt>
      <trkpt lat="46.88271" lon="8.54809">
        <ele>1405</ele>
        <time>2021-08-10T15:12:21.940Z</time>
      </trkpt>
      <trkpt lat="46.88271" lon="8.5481">
        <ele>1405</ele>
        <time>2021-08-10T15:12:22.939Z</time>
      </trkpt>
      <trkpt lat="46.88271" lon="8.5481">
        <ele>1405</ele>
        <time>2021-08-10T15:12:23.940Z</time>
      </trkpt>
      <trkpt lat="46.88271" lon="8.54811">
        <ele>1405</ele>
        <time>2021-08-10T15:12:24.940Z</time>
      </trkpt>
      <trkpt lat="46.88271" lon="8.54812">
        <ele>1405</ele>
        <time>2021-08-10T15:12:25.939Z</time>
      </trkpt>
      <trkpt lat="46.88271" lon="8.54812">
        <ele>1405</ele>
        <time>2021-08-10T15:12:26.939Z</time>
      </trkpt>
      <trkpt lat="46.88271" lon="8.54813">
        <ele>1405</ele>
        <time>2021-08-10T15:12:27.939Z</time>
      </trkpt>
      <trkpt lat="46.88271" lon="8.54812">
        <ele>1406</ele>
        <time>2021-08-10T15:12:28.940Z</time>
      </trkpt>
      <trkpt lat="46.8827" lon="8.54812">
        <ele>1406</ele>
        <time>2021-08-10T15:12:29.941Z</time>
      </trkpt>
      <trkpt lat="46.8827" lon="8.54812">
        <ele>1406</ele>
        <time>2021-08-10T15:12:30.940Z</time>
      </trkpt>
      <trkpt lat="46.88271" lon="8.54813">
        <ele>1406</ele>
        <time>2021-08-10T15:12:31.941Z</time>
      </trkpt>
      <trkpt lat="46.88271" lon="8.54813">
        <ele>1406</ele>
        <time>2021-08-10T15:12:32.942Z</time>
      </trkpt>
      <trkpt lat="46.8827" lon="8.54815">
        <ele>1406</ele>
        <time>2021-08-10T15:12:33.942Z</time>
      </trkpt>
      <trkpt lat="46.8827" lon="8.54816">
        <ele>1406</ele>
        <time>2021-08-10T15:12:34.942Z</time>
      </trkpt>
      <trkpt lat="46.8827" lon="8.54816">
        <ele>1406</ele>
        <time>2021-08-10T15:12:35.941Z</time>
      </trkpt>
      <trkpt lat="46.8827" lon="8.54815">
        <ele>1406</ele>
        <time>2021-08-10T15:12:36.942Z</time>
      </trkpt>
      <trkpt lat="46.88269" lon="8.54816">
        <ele>1406</ele>
        <time>2021-08-10T15:12:37.941Z</time>
      </trkpt>
      <trkpt lat="46.88269" lon="8.54816">
        <ele>1406</ele>
        <time>2021-08-10T15:12:38.942Z</time>
      </trkpt>
      <trkpt lat="46.88268" lon="8.54816">
        <ele>1406</ele>
        <time>2021-08-10T15:12:39.942Z</time>
      </trkpt>
      <trkpt lat="46.88268" lon="8.54815">
        <ele>1406</ele>
        <time>2021-08-10T15:12:40.941Z</time>
      </trkpt>
      <trkpt lat="46.88269" lon="8.54816">
        <ele>1407</ele>
        <time>2021-08-10T15:12:41.942Z</time>
      </trkpt>
      <trkpt lat="46.88268" lon="8.54816">
        <ele>1407</ele>
        <time>2021-08-10T15:12:42.941Z</time>
      </trkpt>
      <trkpt lat="46.88268" lon="8.54817">
        <ele>1410</ele>
        <time>2021-08-10T15:12:43.941Z</time>
      </trkpt>
      <trkpt lat="46.88269" lon="8.54818">
        <ele>1410</ele>
        <time>2021-08-10T15:12:44.942Z</time>
      </trkpt>
      <trkpt lat="46.88269" lon="8.54818">
        <ele>1410</ele>
        <time>2021-08-10T15:12:45.942Z</time>
      </trkpt>
      <trkpt lat="46.8827" lon="8.5482">
        <ele>1410</ele>
        <time>2021-08-10T15:12:46.942Z</time>
      </trkpt>
      <trkpt lat="46.88272" lon="8.54822">
        <ele>1410</ele>
        <time>2021-08-10T15:12:47.943Z</time>
      </trkpt>
      <trkpt lat="46.88272" lon="8.54822">
        <ele>1410</ele>
        <time>2021-08-10T15:12:48.943Z</time>
      </trkpt>
      <trkpt lat="46.88273" lon="8.54821">
        <ele>1412</ele>
        <time>2021-08-10T15:12:49.943Z</time>
      </trkpt>
      <trkpt lat="46.88273" lon="8.5482">
        <ele>1412</ele>
        <time>2021-08-10T15:12:50.944Z</time>
      </trkpt>
      <trkpt lat="46.88273" lon="8.54819">
        <ele>1413</ele>
        <time>2021-08-10T15:12:51.943Z</time>
      </trkpt>
      <trkpt lat="46.88274" lon="8.5482">
        <ele>1414</ele>
        <time>2021-08-10T15:12:52.943Z</time>
      </trkpt>
      <trkpt lat="46.88274" lon="8.5482">
        <ele>1414</ele>
        <time>2021-08-10T15:12:53.943Z</time>
      </trkpt>
      <trkpt lat="46.88274" lon="8.54819">
        <ele>1417</ele>
        <time>2021-08-10T15:12:54.945Z</time>
      </trkpt>
      <trkpt lat="46.88274" lon="8.54818">
        <ele>1417</ele>
        <time>2021-08-10T15:12:55.944Z</time>
      </trkpt>
      <trkpt lat="46.88274" lon="8.54819">
        <ele>1418</ele>
        <time>2021-08-10T15:12:56.944Z</time>
      </trkpt>
      <trkpt lat="46.88274" lon="8.54818">
        <ele>1418</ele>
        <time>2021-08-10T15:12:57.945Z</time>
      </trkpt>
      <trkpt lat="46.88274" lon="8.54817">
        <ele>1418</ele>
        <time>2021-08-10T15:12:58.946Z</time>
      </trkpt>
      <trkpt lat="46.88274" lon="8.54818">
        <ele>1419</ele>
        <time>2021-08-10T15:12:59.945Z</time>
      </trkpt>
      <trkpt lat="46.88275" lon="8.54818">
        <ele>1419</ele>
        <time>2021-08-10T15:13:00.945Z</time>
      </trkpt>
      <trkpt lat="46.88271" lon="8.5482">
        <ele>1419</ele>
        <time>2021-08-10T15:13:01.946Z</time>
      </trkpt>
      <trkpt lat="46.88269" lon="8.5482">
        <ele>1419</ele>
        <time>2021-08-10T15:13:02.947Z</time>
      </trkpt>
      <trkpt lat="46.88269" lon="8.5482">
        <ele>1419</ele>
        <time>2021-08-10T15:13:03.946Z</time>
      </trkpt>
      <trkpt lat="46.88268" lon="8.5482">
        <ele>1419</ele>
        <time>2021-08-10T15:13:04.947Z</time>
      </trkpt>
      <trkpt lat="46.88268" lon="8.5482">
        <ele>1418</ele>
        <time>2021-08-10T15:13:05.946Z</time>
      </trkpt>
      <trkpt lat="46.88267" lon="8.54818">
        <ele>1416</ele>
        <time>2021-08-10T15:13:06.947Z</time>
      </trkpt>
      <trkpt lat="46.88267" lon="8.54818">
        <ele>1416</ele>
        <time>2021-08-10T15:13:07.947Z</time>
      </trkpt>
      <trkpt lat="46.88267" lon="8.54817">
        <ele>1415</ele>
        <time>2021-08-10T15:13:08.947Z</time>
      </trkpt>
      <trkpt lat="46.8827" lon="8.5482">
        <ele>1405</ele>
        <time>2021-08-10T15:13:09.947Z</time>
      </trkpt>
      <trkpt lat="46.8827" lon="8.5482">
        <ele>1406</ele>
        <time>2021-08-10T15:13:10.946Z</time>
      </trkpt>
      <trkpt lat="46.8827" lon="8.54819">
        <ele>1406</ele>
        <time>2021-08-10T15:13:11.947Z</time>
      </trkpt>
      <trkpt lat="46.8827" lon="8.54819">
        <ele>1406</ele>
        <time>2021-08-10T15:13:12.947Z</time>
      </trkpt>
      <trkpt lat="46.88271" lon="8.54819">
        <ele>1407</ele>
        <time>2021-08-10T15:13:13.946Z</time>
      </trkpt>
      <trkpt lat="46.88271" lon="8.54819">
        <ele>1407</ele>
        <time>2021-08-10T15:13:14.946Z</time>
      </trkpt>
      <trkpt lat="46.88271" lon="8.54819">
        <ele>1407</ele>
        <time>2021-08-10T15:13:15.946Z</time>
      </trkpt>
      <trkpt lat="46.88271" lon="8.54819">
        <ele>1407</ele>
        <time>2021-08-10T15:13:16.946Z</time>
      </trkpt>
      <trkpt lat="46.88271" lon="8.54819">
        <ele>1407</ele>
        <time>2021-08-10T15:13:17.946Z</time>
      </trkpt>
      <trkpt lat="46.88271" lon="8.54819">
        <ele>1407</ele>
        <time>2021-08-10T15:13:18.947Z</time>
      </trkpt>
      <trkpt lat="46.88271" lon="8.54819">
        <ele>1406</ele>
        <time>2021-08-10T15:13:19.946Z</time>
      </trkpt>
      <trkpt lat="46.8827" lon="8.54819">
        <ele>1405</ele>
        <time>2021-08-10T15:13:20.947Z</time>
      </trkpt>
      <trkpt lat="46.8827" lon="8.54819">
        <ele>1405</ele>
        <time>2021-08-10T15:13:21.946Z</time>
      </trkpt>
      <trkpt lat="46.8827" lon="8.54818">
        <ele>1404</ele>
        <time>2021-08-10T15:13:22.946Z</time>
      </trkpt>
      <trkpt lat="46.88271" lon="8.54818">
        <ele>1403</ele>
        <time>2021-08-10T15:13:23.947Z</time>
      </trkpt>
      <trkpt lat="46.88271" lon="8.54818">
        <ele>1403</ele>
        <time>2021-08-10T15:13:24.947Z</time>
      </trkpt>
      <trkpt lat="46.88271" lon="8.5482">
        <ele>1406</ele>
        <time>2021-08-10T15:13:25.947Z</time>
      </trkpt>
      <trkpt lat="46.88269" lon="8.54819">
        <ele>1406</ele>
        <time>2021-08-10T15:13:26.946Z</time>
      </trkpt>
      <trkpt lat="46.88268" lon="8.54817">
        <ele>1411</ele>
        <time>2021-08-10T15:13:27.947Z</time>
      </trkpt>
      <trkpt lat="46.88275" lon="8.54822">
        <ele>1414</ele>
        <time>2021-08-10T15:13:28.947Z</time>
      </trkpt>
      <trkpt lat="46.88275" lon="8.54822">
        <ele>1414</ele>
        <time>2021-08-10T15:13:29.947Z</time>
      </trkpt>
      <trkpt lat="46.88275" lon="8.54822">
        <ele>1414</ele>
        <time>2021-08-10T15:13:30.946Z</time>
      </trkpt>
      <trkpt lat="46.88271" lon="8.5482">
        <ele>1415</ele>
        <time>2021-08-10T15:13:31.947Z</time>
      </trkpt>
      <trkpt lat="46.88271" lon="8.5482">
        <ele>1415</ele>
        <time>2021-08-10T15:13:32.947Z</time>
      </trkpt>
      <trkpt lat="46.88271" lon="8.54819">
        <ele>1415</ele>
        <time>2021-08-10T15:13:33.946Z</time>
      </trkpt>
      <trkpt lat="46.88268" lon="8.54818">
        <ele>1411</ele>
        <time>2021-08-10T15:13:34.946Z</time>
      </trkpt>
      <trkpt lat="46.88268" lon="8.54818">
        <ele>1411</ele>
        <time>2021-08-10T15:13:35.946Z</time>
      </trkpt>
      <trkpt lat="46.88267" lon="8.54818">
        <ele>1411</ele>
        <time>2021-08-10T15:13:36.946Z</time>
      </trkpt>
      <trkpt lat="46.88266" lon="8.54817">
        <ele>1411</ele>
        <time>2021-08-10T15:13:37.946Z</time>
      </trkpt>
      <trkpt lat="46.88265" lon="8.54818">
        <ele>1411</ele>
        <time>2021-08-10T15:13:38.946Z</time>
      </trkpt>
      <trkpt lat="46.88265" lon="8.54818">
        <ele>1411</ele>
        <time>2021-08-10T15:13:39.947Z</time>
      </trkpt>
      <trkpt lat="46.88264" lon="8.54818">
        <ele>1411</ele>
        <time>2021-08-10T15:13:40.946Z</time>
      </trkpt>
      <trkpt lat="46.88264" lon="8.54818">
        <ele>1411</ele>
        <time>2021-08-10T15:13:41.947Z</time>
      </trkpt>
      <trkpt lat="46.88264" lon="8.54818">
        <ele>1411</ele>
        <time>2021-08-10T15:13:42.947Z</time>
      </trkpt>
      <trkpt lat="46.88263" lon="8.54818">
        <ele>1411</ele>
        <time>2021-08-10T15:13:43.947Z</time>
      </trkpt>
      <trkpt lat="46.88262" lon="8.54817">
        <ele>1411</ele>
        <time>2021-08-10T15:13:44.947Z</time>
      </trkpt>
      <trkpt lat="46.88261" lon="8.54817">
        <ele>1411</ele>
        <time>2021-08-10T15:13:45.946Z</time>
      </trkpt>
      <trkpt lat="46.88261" lon="8.54817">
        <ele>1411</ele>
        <time>2021-08-10T15:13:46.946Z</time>
      </trkpt>
      <trkpt lat="46.8826" lon="8.54816">
        <ele>1410</ele>
        <time>2021-08-10T15:13:47.947Z</time>
      </trkpt>
      <trkpt lat="46.8826" lon="8.54816">
        <ele>1410</ele>
        <time>2021-08-10T15:13:48.947Z</time>
      </trkpt>
      <trkpt lat="46.8826" lon="8.54816">
        <ele>1411</ele>
        <time>2021-08-10T15:13:49.946Z</time>
      </trkpt>
      <trkpt lat="46.88259" lon="8.54815">
        <ele>1414</ele>
        <time>2021-08-10T15:13:50.946Z</time>
      </trkpt>
      <trkpt lat="46.88259" lon="8.54815">
        <ele>1415</ele>
        <time>2021-08-10T15:13:51.947Z</time>
      </trkpt>
      <trkpt lat="46.88258" lon="8.54815">
        <ele>1415</ele>
        <time>2021-08-10T15:13:52.946Z</time>
      </trkpt>
      <trkpt lat="46.88258" lon="8.54814">
        <ele>1416</ele>
        <time>2021-08-10T15:13:53.947Z</time>
      </trkpt>
      <trkpt lat="46.88258" lon="8.54813">
        <ele>1415</ele>
        <time>2021-08-10T15:13:54.947Z</time>
      </trkpt>
      <trkpt lat="46.88258" lon="8.54814">
        <ele>1416</ele>
        <time>2021-08-10T15:13:55.947Z</time>
      </trkpt>
      <trkpt lat="46.88257" lon="8.54813">
        <ele>1416</ele>
        <time>2021-08-10T15:13:56.947Z</time>
      </trkpt>
      <trkpt lat="46.88257" lon="8.54813">
        <ele>1417</ele>
        <time>2021-08-10T15:13:57.947Z</time>
      </trkpt>
      <trkpt lat="46.88256" lon="8.54813">
        <ele>1417</ele>
        <time>2021-08-10T15:13:58.946Z</time>
      </trkpt>
      <trkpt lat="46.88256" lon="8.54813">
        <ele>1417</ele>
        <time>2021-08-10T15:13:59.946Z</time>
      </trkpt>
      <trkpt lat="46.88255" lon="8.54812">
        <ele>1417</ele>
        <time>2021-08-10T15:14:00.946Z</time>
      </trkpt>
      <trkpt lat="46.88255" lon="8.54812">
        <ele>1417</ele>
        <time>2021-08-10T15:14:01.946Z</time>
      </trkpt>
      <trkpt lat="46.88254" lon="8.54812">
        <ele>1417</ele>
        <time>2021-08-10T15:14:02.946Z</time>
      </trkpt>
      <trkpt lat="46.88254" lon="8.54812">
        <ele>1416</ele>
        <time>2021-08-10T15:14:03.947Z</time>
      </trkpt>
      <trkpt lat="46.88254" lon="8.54811">
        <ele>1416</ele>
        <time>2021-08-10T15:14:04.947Z</time>
      </trkpt>
      <trkpt lat="46.88254" lon="8.54811">
        <ele>1416</ele>
        <time>2021-08-10T15:14:05.946Z</time>
      </trkpt>
      <trkpt lat="46.88253" lon="8.5481">
        <ele>1416</ele>
        <time>2021-08-10T15:14:06.946Z</time>
      </trkpt>
      <trkpt lat="46.88253" lon="8.5481">
        <ele>1416</ele>
        <time>2021-08-10T15:14:07.946Z</time>
      </trkpt>
      <trkpt lat="46.88253" lon="8.5481">
        <ele>1416</ele>
        <time>2021-08-10T15:14:08.946Z</time>
      </trkpt>
      <trkpt lat="46.88253" lon="8.54809">
        <ele>1416</ele>
        <time>2021-08-10T15:14:09.946Z</time>
      </trkpt>
      <trkpt lat="46.88252" lon="8.54809">
        <ele>1416</ele>
        <time>2021-08-10T15:14:10.946Z</time>
      </trkpt>
      <trkpt lat="46.88252" lon="8.54808">
        <ele>1416</ele>
        <time>2021-08-10T15:14:25.065Z</time>
      </trkpt>
      <trkpt lat="46.88252" lon="8.54808">
        <ele>1417</ele>
        <time>2021-08-10T15:14:26.064Z</time>
      </trkpt>
      <trkpt lat="46.88252" lon="8.54807">
        <ele>1417</ele>
        <time>2021-08-10T15:14:51.972Z</time>
      </trkpt>
      <trkpt lat="46.88251" lon="8.54807">
        <ele>1417</ele>
        <time>2021-08-10T15:14:52.971Z</time>
      </trkpt>
      <trkpt lat="46.88251" lon="8.54807">
        <ele>1417</ele>
        <time>2021-08-10T15:14:53.971Z</time>
      </trkpt>
      <trkpt lat="46.8825" lon="8.54806">
        <ele>1417</ele>
        <time>2021-08-10T15:15:13.859Z</time>
      </trkpt>
      <trkpt lat="46.88249" lon="8.54806">
        <ele>1417</ele>
        <time>2021-08-10T15:15:14.858Z</time>
      </trkpt>
      <trkpt lat="46.88249" lon="8.54805">
        <ele>1417</ele>
        <time>2021-08-10T15:15:15.858Z</time>
      </trkpt>
      <trkpt lat="46.88249" lon="8.54805">
        <ele>1417</ele>
        <time>2021-08-10T15:15:16.858Z</time>
      </trkpt>
      <trkpt lat="46.88248" lon="8.54805">
        <ele>1417</ele>
        <time>2021-08-10T15:15:17.858Z</time>
      </trkpt>
      <trkpt lat="46.88248" lon="8.54804">
        <ele>1417</ele>
        <time>2021-08-10T15:15:18.859Z</time>
      </trkpt>
      <trkpt lat="46.88248" lon="8.54804">
        <ele>1417</ele>
        <time>2021-08-10T15:15:19.858Z</time>
      </trkpt>
      <trkpt lat="46.88248" lon="8.54803">
        <ele>1418</ele>
        <time>2021-08-10T15:15:20.858Z</time>
      </trkpt>
      <trkpt lat="46.88248" lon="8.54803">
        <ele>1418</ele>
        <time>2021-08-10T15:15:21.858Z</time>
      </trkpt>
      <trkpt lat="46.88248" lon="8.54802">
        <ele>1417</ele>
        <time>2021-08-10T15:15:22.859Z</time>
      </trkpt>
      <trkpt lat="46.88247" lon="8.54801">
        <ele>1417</ele>
        <time>2021-08-10T15:15:23.858Z</time>
      </trkpt>
      <trkpt lat="46.88247" lon="8.54801">
        <ele>1416</ele>
        <time>2021-08-10T15:15:24.858Z</time>
      </trkpt>
      <trkpt lat="46.88246" lon="8.54801">
        <ele>1416</ele>
        <time>2021-08-10T15:15:25.858Z</time>
      </trkpt>
      <trkpt lat="46.88246" lon="8.54801">
        <ele>1416</ele>
        <time>2021-08-10T15:15:26.858Z</time>
      </trkpt>
      <trkpt lat="46.88245" lon="8.54801">
        <ele>1415</ele>
        <time>2021-08-10T15:15:27.858Z</time>
      </trkpt>
      <trkpt lat="46.88244" lon="8.54802">
        <ele>1415</ele>
        <time>2021-08-10T15:15:28.859Z</time>
      </trkpt>
      <trkpt lat="46.88244" lon="8.54802">
        <ele>1415</ele>
        <time>2021-08-10T15:15:29.858Z</time>
      </trkpt>
      <trkpt lat="46.88244" lon="8.54802">
        <ele>1414</ele>
        <time>2021-08-10T15:15:30.858Z</time>
      </trkpt>
      <trkpt lat="46.88243" lon="8.54802">
        <ele>1414</ele>
        <time>2021-08-10T15:15:31.858Z</time>
      </trkpt>
      <trkpt lat="46.88243" lon="8.54801">
        <ele>1414</ele>
        <time>2021-08-10T15:15:32.858Z</time>
      </trkpt>
      <trkpt lat="46.88243" lon="8.54801">
        <ele>1413</ele>
        <time>2021-08-10T15:15:33.859Z</time>
      </trkpt>
      <trkpt lat="46.88242" lon="8.548">
        <ele>1413</ele>
        <time>2021-08-10T15:15:43.865Z</time>
      </trkpt>
      <trkpt lat="46.88242" lon="8.548">
        <ele>1413</ele>
        <time>2021-08-10T15:15:44.865Z</time>
      </trkpt>
      <trkpt lat="46.88242" lon="8.54799">
        <ele>1413</ele>
        <time>2021-08-10T15:15:45.865Z</time>
      </trkpt>
      <trkpt lat="46.88239" lon="8.54796">
        <ele>1414</ele>
        <time>2021-08-10T15:15:46.868Z</time>
      </trkpt>
      <trkpt lat="46.88239" lon="8.54796">
        <ele>1413</ele>
        <time>2021-08-10T15:15:47.868Z</time>
      </trkpt>
      <trkpt lat="46.88239" lon="8.54795">
        <ele>1413</ele>
        <time>2021-08-10T15:15:48.868Z</time>
      </trkpt>
      <trkpt lat="46.88238" lon="8.54795">
        <ele>1413</ele>
        <time>2021-08-10T15:15:49.868Z</time>
      </trkpt>
      <trkpt lat="46.88238" lon="8.54794">
        <ele>1413</ele>
        <time>2021-08-10T15:15:50.867Z</time>
      </trkpt>
      <trkpt lat="46.88238" lon="8.54794">
        <ele>1413</ele>
        <time>2021-08-10T15:15:51.867Z</time>
      </trkpt>
      <trkpt lat="46.88238" lon="8.54794">
        <ele>1413</ele>
        <time>2021-08-10T15:15:52.868Z</time>
      </trkpt>
      <trkpt lat="46.88237" lon="8.54794">
        <ele>1413</ele>
        <time>2021-08-10T15:15:53.867Z</time>
      </trkpt>
      <trkpt lat="46.88236" lon="8.54793">
        <ele>1413</ele>
        <time>2021-08-10T15:15:54.867Z</time>
      </trkpt>
      <trkpt lat="46.88236" lon="8.54793">
        <ele>1413</ele>
        <time>2021-08-10T15:15:55.867Z</time>
      </trkpt>
      <trkpt lat="46.88236" lon="8.54792">
        <ele>1414</ele>
        <time>2021-08-10T15:15:56.868Z</time>
      </trkpt>
      <trkpt lat="46.88236" lon="8.54792">
        <ele>1414</ele>
        <time>2021-08-10T15:15:57.867Z</time>
      </trkpt>
      <trkpt lat="46.88235" lon="8.54792">
        <ele>1415</ele>
        <time>2021-08-10T15:15:58.867Z</time>
      </trkpt>
      <trkpt lat="46.88235" lon="8.54791">
        <ele>1415</ele>
        <time>2021-08-10T15:15:59.868Z</time>
      </trkpt>
      <trkpt lat="46.88235" lon="8.5479">
        <ele>1415</ele>
        <time>2021-08-10T15:16:00.867Z</time>
      </trkpt>
      <trkpt lat="46.88234" lon="8.5479">
        <ele>1415</ele>
        <time>2021-08-10T15:16:01.868Z</time>
      </trkpt>
      <trkpt lat="46.88233" lon="8.5479">
        <ele>1415</ele>
        <time>2021-08-10T15:16:02.867Z</time>
      </trkpt>
      <trkpt lat="46.88233" lon="8.5479">
        <ele>1416</ele>
        <time>2021-08-10T15:16:03.867Z</time>
      </trkpt>
      <trkpt lat="46.88232" lon="8.54791">
        <ele>1416</ele>
        <time>2021-08-10T15:16:04.867Z</time>
      </trkpt>
      <trkpt lat="46.88231" lon="8.54791">
        <ele>1417</ele>
        <time>2021-08-10T15:16:05.868Z</time>
      </trkpt>
      <trkpt lat="46.8823" lon="8.54791">
        <ele>1417</ele>
        <time>2021-08-10T15:16:06.867Z</time>
      </trkpt>
      <trkpt lat="46.8823" lon="8.54792">
        <ele>1418</ele>
        <time>2021-08-10T15:16:07.868Z</time>
      </trkpt>
      <trkpt lat="46.8823" lon="8.54792">
        <ele>1419</ele>
        <time>2021-08-10T15:16:08.868Z</time>
      </trkpt>
      <trkpt lat="46.88229" lon="8.54792">
        <ele>1419</ele>
        <time>2021-08-10T15:16:09.868Z</time>
      </trkpt>
      <trkpt lat="46.88229" lon="8.54792">
        <ele>1420</ele>
        <time>2021-08-10T15:16:10.867Z</time>
      </trkpt>
      <trkpt lat="46.88228" lon="8.54792">
        <ele>1420</ele>
        <time>2021-08-10T15:16:11.868Z</time>
      </trkpt>
      <trkpt lat="46.88228" lon="8.54792">
        <ele>1421</ele>
        <time>2021-08-10T15:16:12.867Z</time>
      </trkpt>
      <trkpt lat="46.88227" lon="8.54792">
        <ele>1422</ele>
        <time>2021-08-10T15:16:13.868Z</time>
      </trkpt>
      <trkpt lat="46.88227" lon="8.54792">
        <ele>1422</ele>
        <time>2021-08-10T15:16:14.868Z</time>
      </trkpt>
      <trkpt lat="46.88226" lon="8.54791">
        <ele>1423</ele>
        <time>2021-08-10T15:16:15.868Z</time>
      </trkpt>
      <trkpt lat="46.88226" lon="8.54791">
        <ele>1423</ele>
        <time>2021-08-10T15:16:16.867Z</time>
      </trkpt>
      <trkpt lat="46.88225" lon="8.54791">
        <ele>1423</ele>
        <time>2021-08-10T15:16:17.868Z</time>
      </trkpt>
      <trkpt lat="46.88225" lon="8.54791">
        <ele>1423</ele>
        <time>2021-08-10T15:16:18.868Z</time>
      </trkpt>
      <trkpt lat="46.88224" lon="8.5479">
        <ele>1423</ele>
        <time>2021-08-10T15:16:19.867Z</time>
      </trkpt>
      <trkpt lat="46.88224" lon="8.5479">
        <ele>1423</ele>
        <time>2021-08-10T15:16:20.868Z</time>
      </trkpt>
      <trkpt lat="46.88223" lon="8.5479">
        <ele>1422</ele>
        <time>2021-08-10T15:16:21.868Z</time>
      </trkpt>
      <trkpt lat="46.88223" lon="8.54789">
        <ele>1422</ele>
        <time>2021-08-10T15:16:22.868Z</time>
      </trkpt>
      <trkpt lat="46.88223" lon="8.54789">
        <ele>1422</ele>
        <time>2021-08-10T15:16:23.867Z</time>
      </trkpt>
      <trkpt lat="46.88222" lon="8.54789">
        <ele>1421</ele>
        <time>2021-08-10T15:16:24.868Z</time>
      </trkpt>
      <trkpt lat="46.88222" lon="8.54789">
        <ele>1421</ele>
        <time>2021-08-10T15:16:25.868Z</time>
      </trkpt>
      <trkpt lat="46.88221" lon="8.54788">
        <ele>1422</ele>
        <time>2021-08-10T15:16:26.868Z</time>
      </trkpt>
      <trkpt lat="46.8822" lon="8.54788">
        <ele>1422</ele>
        <time>2021-08-10T15:16:27.868Z</time>
      </trkpt>
      <trkpt lat="46.8822" lon="8.54788">
        <ele>1422</ele>
        <time>2021-08-10T15:16:28.867Z</time>
      </trkpt>
      <trkpt lat="46.88219" lon="8.54788">
        <ele>1423</ele>
        <time>2021-08-10T15:16:29.868Z</time>
      </trkpt>
      <trkpt lat="46.88219" lon="8.54787">
        <ele>1423</ele>
        <time>2021-08-10T15:16:30.868Z</time>
      </trkpt>
      <trkpt lat="46.88218" lon="8.54787">
        <ele>1423</ele>
        <time>2021-08-10T15:16:31.868Z</time>
      </trkpt>
      <trkpt lat="46.88218" lon="8.54787">
        <ele>1424</ele>
        <time>2021-08-10T15:16:32.867Z</time>
      </trkpt>
      <trkpt lat="46.88217" lon="8.54787">
        <ele>1424</ele>
        <time>2021-08-10T15:16:33.868Z</time>
      </trkpt>
      <trkpt lat="46.88216" lon="8.54787">
        <ele>1425</ele>
        <time>2021-08-10T15:16:34.868Z</time>
      </trkpt>
      <trkpt lat="46.88216" lon="8.54787">
        <ele>1426</ele>
        <time>2021-08-10T15:16:35.868Z</time>
      </trkpt>
      <trkpt lat="46.88215" lon="8.54786">
        <ele>1426</ele>
        <time>2021-08-10T15:16:36.867Z</time>
      </trkpt>
      <trkpt lat="46.88215" lon="8.54786">
        <ele>1426</ele>
        <time>2021-08-10T15:16:37.868Z</time>
      </trkpt>
      <trkpt lat="46.88215" lon="8.54786">
        <ele>1426</ele>
        <time>2021-08-10T15:16:38.868Z</time>
      </trkpt>
      <trkpt lat="46.88214" lon="8.54786">
        <ele>1427</ele>
        <time>2021-08-10T15:16:39.868Z</time>
      </trkpt>
      <trkpt lat="46.88214" lon="8.54785">
        <ele>1427</ele>
        <time>2021-08-10T15:16:40.868Z</time>
      </trkpt>
      <trkpt lat="46.88213" lon="8.54785">
        <ele>1426</ele>
        <time>2021-08-10T15:16:41.867Z</time>
      </trkpt>
      <trkpt lat="46.88213" lon="8.54785">
        <ele>1426</ele>
        <time>2021-08-10T15:16:42.868Z</time>
      </trkpt>
      <trkpt lat="46.88213" lon="8.54785">
        <ele>1426</ele>
        <time>2021-08-10T15:16:43.867Z</time>
      </trkpt>
      <trkpt lat="46.88212" lon="8.54784">
        <ele>1425</ele>
        <time>2021-08-10T15:16:44.867Z</time>
      </trkpt>
      <trkpt lat="46.88212" lon="8.54784">
        <ele>1425</ele>
        <time>2021-08-10T15:16:45.867Z</time>
      </trkpt>
      <trkpt lat="46.88212" lon="8.54784">
        <ele>1425</ele>
        <time>2021-08-10T15:16:46.867Z</time>
      </trkpt>
      <trkpt lat="46.88211" lon="8.54783">
        <ele>1425</ele>
        <time>2021-08-10T15:16:47.867Z</time>
      </trkpt>
      <trkpt lat="46.88211" lon="8.54783">
        <ele>1425</ele>
        <time>2021-08-10T15:16:48.867Z</time>
      </trkpt>
      <trkpt lat="46.88211" lon="8.54782">
        <ele>1425</ele>
        <time>2021-08-10T15:16:49.867Z</time>
      </trkpt>
      <trkpt lat="46.8821" lon="8.54782">
        <ele>1425</ele>
        <time>2021-08-10T15:16:50.868Z</time>
      </trkpt>
      <trkpt lat="46.88209" lon="8.54781">
        <ele>1425</ele>
        <time>2021-08-10T15:16:51.867Z</time>
      </trkpt>
      <trkpt lat="46.88209" lon="8.54781">
        <ele>1425</ele>
        <time>2021-08-10T15:16:52.867Z</time>
      </trkpt>
      <trkpt lat="46.88209" lon="8.54781">
        <ele>1425</ele>
        <time>2021-08-10T15:16:53.867Z</time>
      </trkpt>
      <trkpt lat="46.88208" lon="8.5478">
        <ele>1425</ele>
        <time>2021-08-10T15:16:54.867Z</time>
      </trkpt>
      <trkpt lat="46.88207" lon="8.54779">
        <ele>1425</ele>
        <time>2021-08-10T15:16:55.867Z</time>
      </trkpt>
      <trkpt lat="46.88207" lon="8.54778">
        <ele>1425</ele>
        <time>2021-08-10T15:16:56.867Z</time>
      </trkpt>
      <trkpt lat="46.88206" lon="8.54777">
        <ele>1425</ele>
        <time>2021-08-10T15:16:57.867Z</time>
      </trkpt>
      <trkpt lat="46.88206" lon="8.54777">
        <ele>1425</ele>
        <time>2021-08-10T15:16:58.867Z</time>
      </trkpt>
      <trkpt lat="46.88206" lon="8.54776">
        <ele>1426</ele>
        <time>2021-08-10T15:16:59.867Z</time>
      </trkpt>
      <trkpt lat="46.88206" lon="8.54775">
        <ele>1426</ele>
        <time>2021-08-10T15:17:00.867Z</time>
      </trkpt>
      <trkpt lat="46.88206" lon="8.54774">
        <ele>1426</ele>
        <time>2021-08-10T15:17:01.867Z</time>
      </trkpt>
      <trkpt lat="46.88206" lon="8.54774">
        <ele>1427</ele>
        <time>2021-08-10T15:17:02.867Z</time>
      </trkpt>
      <trkpt lat="46.88206" lon="8.54774">
        <ele>1427</ele>
        <time>2021-08-10T15:17:03.867Z</time>
      </trkpt>
      <trkpt lat="46.88206" lon="8.54773">
        <ele>1427</ele>
        <time>2021-08-10T15:17:04.867Z</time>
      </trkpt>
      <trkpt lat="46.88206" lon="8.54773">
        <ele>1427</ele>
        <time>2021-08-10T15:17:05.867Z</time>
      </trkpt>
      <trkpt lat="46.88207" lon="8.54772">
        <ele>1427</ele>
        <time>2021-08-10T15:17:06.867Z</time>
      </trkpt>
      <trkpt lat="46.88207" lon="8.54771">
        <ele>1427</ele>
        <time>2021-08-10T15:17:07.867Z</time>
      </trkpt>
      <trkpt lat="46.88207" lon="8.54771">
        <ele>1428</ele>
        <time>2021-08-10T15:17:08.867Z</time>
      </trkpt>
      <trkpt lat="46.88207" lon="8.5477">
        <ele>1428</ele>
        <time>2021-08-10T15:17:09.867Z</time>
      </trkpt>
      <trkpt lat="46.88207" lon="8.5477">
        <ele>1429</ele>
        <time>2021-08-10T15:17:10.867Z</time>
      </trkpt>
      <trkpt lat="46.88206" lon="8.54769">
        <ele>1429</ele>
        <time>2021-08-10T15:17:11.867Z</time>
      </trkpt>
      <trkpt lat="46.88206" lon="8.54769">
        <ele>1430</ele>
        <time>2021-08-10T15:17:12.867Z</time>
      </trkpt>
      <trkpt lat="46.88206" lon="8.54768">
        <ele>1430</ele>
        <time>2021-08-10T15:17:13.867Z</time>
      </trkpt>
      <trkpt lat="46.88207" lon="8.54767">
        <ele>1431</ele>
        <time>2021-08-10T15:17:14.867Z</time>
      </trkpt>
      <trkpt lat="46.88207" lon="8.54767">
        <ele>1431</ele>
        <time>2021-08-10T15:17:15.867Z</time>
      </trkpt>
      <trkpt lat="46.88206" lon="8.54766">
        <ele>1431</ele>
        <time>2021-08-10T15:17:16.867Z</time>
      </trkpt>
      <trkpt lat="46.88206" lon="8.54765">
        <ele>1430</ele>
        <time>2021-08-10T15:17:17.868Z</time>
      </trkpt>
      <trkpt lat="46.88206" lon="8.54764">
        <ele>1430</ele>
        <time>2021-08-10T15:17:18.868Z</time>
      </trkpt>
      <trkpt lat="46.88206" lon="8.54763">
        <ele>1429</ele>
        <time>2021-08-10T15:17:19.867Z</time>
      </trkpt>
      <trkpt lat="46.88206" lon="8.54763">
        <ele>1429</ele>
        <time>2021-08-10T15:17:20.867Z</time>
      </trkpt>
      <trkpt lat="46.88206" lon="8.54762">
        <ele>1430</ele>
        <time>2021-08-10T15:17:21.867Z</time>
      </trkpt>
      <trkpt lat="46.88206" lon="8.54761">
        <ele>1430</ele>
        <time>2021-08-10T15:17:22.868Z</time>
      </trkpt>
      <trkpt lat="46.88206" lon="8.54761">
        <ele>1430</ele>
        <time>2021-08-10T15:17:23.868Z</time>
      </trkpt>
      <trkpt lat="46.88206" lon="8.5476">
        <ele>1430</ele>
        <time>2021-08-10T15:17:24.868Z</time>
      </trkpt>
      <trkpt lat="46.88206" lon="8.54759">
        <ele>1429</ele>
        <time>2021-08-10T15:17:25.868Z</time>
      </trkpt>
      <trkpt lat="46.88206" lon="8.54758">
        <ele>1429</ele>
        <time>2021-08-10T15:17:26.868Z</time>
      </trkpt>
      <trkpt lat="46.88205" lon="8.54758">
        <ele>1430</ele>
        <time>2021-08-10T15:17:27.868Z</time>
      </trkpt>
      <trkpt lat="46.88206" lon="8.54757">
        <ele>1430</ele>
        <time>2021-08-10T15:17:28.868Z</time>
      </trkpt>
      <trkpt lat="46.88206" lon="8.54756">
        <ele>1430</ele>
        <time>2021-08-10T15:17:29.867Z</time>
      </trkpt>
      <trkpt lat="46.88206" lon="8.54756">
        <ele>1431</ele>
        <time>2021-08-10T15:17:30.868Z</time>
      </trkpt>
      <trkpt lat="46.88206" lon="8.54756">
        <ele>1431</ele>
        <time>2021-08-10T15:17:31.868Z</time>
      </trkpt>
      <trkpt lat="46.88206" lon="8.54756">
        <ele>1432</ele>
        <time>2021-08-10T15:17:32.868Z</time>
      </trkpt>
      <trkpt lat="46.88207" lon="8.54757">
        <ele>1432</ele>
        <time>2021-08-10T15:17:33.867Z</time>
      </trkpt>
      <trkpt lat="46.88208" lon="8.54757">
        <ele>1432</ele>
        <time>2021-08-10T15:17:34.868Z</time>
      </trkpt>
      <trkpt lat="46.88208" lon="8.54757">
        <ele>1432</ele>
        <time>2021-08-10T15:17:35.868Z</time>
      </trkpt>
      <trkpt lat="46.88208" lon="8.54758">
        <ele>1433</ele>
        <time>2021-08-10T15:17:36.868Z</time>
      </trkpt>
      <trkpt lat="46.88209" lon="8.5476">
        <ele>1433</ele>
        <time>2021-08-10T15:17:37.867Z</time>
      </trkpt>
      <trkpt lat="46.8821" lon="8.54761">
        <ele>1434</ele>
        <time>2021-08-10T15:17:38.868Z</time>
      </trkpt>
      <trkpt lat="46.88211" lon="8.54761">
        <ele>1434</ele>
        <time>2021-08-10T15:17:39.868Z</time>
      </trkpt>
      <trkpt lat="46.88212" lon="8.54762">
        <ele>1434</ele>
        <time>2021-08-10T15:17:40.868Z</time>
      </trkpt>
      <trkpt lat="46.88212" lon="8.54761">
        <ele>1435</ele>
        <time>2021-08-10T15:17:43.980Z</time>
      </trkpt>
      <trkpt lat="46.88213" lon="8.54762">
        <ele>1435</ele>
        <time>2021-08-10T15:17:44.979Z</time>
      </trkpt>
      <trkpt lat="46.88214" lon="8.54762">
        <ele>1435</ele>
        <time>2021-08-10T15:17:45.980Z</time>
      </trkpt>
      <trkpt lat="46.88215" lon="8.54763">
        <ele>1435</ele>
        <time>2021-08-10T15:17:46.980Z</time>
      </trkpt>
      <trkpt lat="46.88216" lon="8.54764">
        <ele>1435</ele>
        <time>2021-08-10T15:17:47.979Z</time>
      </trkpt>
      <trkpt lat="46.88217" lon="8.54764">
        <ele>1435</ele>
        <time>2021-08-10T15:17:48.979Z</time>
      </trkpt>
      <trkpt lat="46.88218" lon="8.54764">
        <ele>1436</ele>
        <time>2021-08-10T15:17:49.980Z</time>
      </trkpt>
      <trkpt lat="46.88218" lon="8.54764">
        <ele>1436</ele>
        <time>2021-08-10T15:17:50.980Z</time>
      </trkpt>
      <trkpt lat="46.88219" lon="8.54764">
        <ele>1436</ele>
        <time>2021-08-10T15:17:51.980Z</time>
      </trkpt>
      <trkpt lat="46.88219" lon="8.54763">
        <ele>1437</ele>
        <time>2021-08-10T15:17:52.980Z</time>
      </trkpt>
      <trkpt lat="46.8822" lon="8.54763">
        <ele>1437</ele>
        <time>2021-08-10T15:17:53.980Z</time>
      </trkpt>
      <trkpt lat="46.88221" lon="8.54763">
        <ele>1438</ele>
        <time>2021-08-10T15:17:54.980Z</time>
      </trkpt>
      <trkpt lat="46.88222" lon="8.54763">
        <ele>1438</ele>
        <time>2021-08-10T15:17:55.980Z</time>
      </trkpt>
      <trkpt lat="46.88223" lon="8.54763">
        <ele>1439</ele>
        <time>2021-08-10T15:17:56.980Z</time>
      </trkpt>
      <trkpt lat="46.88224" lon="8.54763">
        <ele>1439</ele>
        <time>2021-08-10T15:17:57.980Z</time>
      </trkpt>
      <trkpt lat="46.88224" lon="8.54763">
        <ele>1440</ele>
        <time>2021-08-10T15:17:58.980Z</time>
      </trkpt>
      <trkpt lat="46.88225" lon="8.54762">
        <ele>1441</ele>
        <time>2021-08-10T15:17:59.980Z</time>
      </trkpt>
      <trkpt lat="46.88226" lon="8.54762">
        <ele>1441</ele>
        <time>2021-08-10T15:18:00.979Z</time>
      </trkpt>
      <trkpt lat="46.88227" lon="8.54761">
        <ele>1442</ele>
        <time>2021-08-10T15:18:01.980Z</time>
      </trkpt>
      <trkpt lat="46.88227" lon="8.5476">
        <ele>1442</ele>
        <time>2021-08-10T15:18:02.980Z</time>
      </trkpt>
      <trkpt lat="46.88228" lon="8.54759">
        <ele>1442</ele>
        <time>2021-08-10T15:18:03.980Z</time>
      </trkpt>
      <trkpt lat="46.88229" lon="8.54758">
        <ele>1442</ele>
        <time>2021-08-10T15:18:04.980Z</time>
      </trkpt>
      <trkpt lat="46.88228" lon="8.54759">
        <ele>1442</ele>
        <time>2021-08-10T15:18:05.980Z</time>
      </trkpt>
      <trkpt lat="46.88228" lon="8.54759">
        <ele>1441</ele>
        <time>2021-08-10T15:18:06.979Z</time>
      </trkpt>
      <trkpt lat="46.88229" lon="8.54759">
        <ele>1441</ele>
        <time>2021-08-10T15:18:07.979Z</time>
      </trkpt>
      <trkpt lat="46.88229" lon="8.54758">
        <ele>1441</ele>
        <time>2021-08-10T15:18:08.979Z</time>
      </trkpt>
      <trkpt lat="46.8823" lon="8.54757">
        <ele>1440</ele>
        <time>2021-08-10T15:18:09.979Z</time>
      </trkpt>
      <trkpt lat="46.8823" lon="8.54756">
        <ele>1440</ele>
        <time>2021-08-10T15:18:10.979Z</time>
      </trkpt>
      <trkpt lat="46.88231" lon="8.54756">
        <ele>1440</ele>
        <time>2021-08-10T15:18:11.979Z</time>
      </trkpt>
      <trkpt lat="46.88231" lon="8.54755">
        <ele>1440</ele>
        <time>2021-08-10T15:18:12.980Z</time>
      </trkpt>
      <trkpt lat="46.88231" lon="8.54754">
        <ele>1440</ele>
        <time>2021-08-10T15:18:13.980Z</time>
      </trkpt>
      <trkpt lat="46.88232" lon="8.54754">
        <ele>1440</ele>
        <time>2021-08-10T15:18:16.060Z</time>
      </trkpt>
      <trkpt lat="46.88233" lon="8.54753">
        <ele>1440</ele>
        <time>2021-08-10T15:18:17.060Z</time>
      </trkpt>
      <trkpt lat="46.88234" lon="8.54752">
        <ele>1440</ele>
        <time>2021-08-10T15:18:18.060Z</time>
      </trkpt>
      <trkpt lat="46.88234" lon="8.54751">
        <ele>1440</ele>
        <time>2021-08-10T15:18:19.060Z</time>
      </trkpt>
      <trkpt lat="46.88234" lon="8.5475">
        <ele>1440</ele>
        <time>2021-08-10T15:18:20.060Z</time>
      </trkpt>
      <trkpt lat="46.88234" lon="8.54749">
        <ele>1441</ele>
        <time>2021-08-10T15:18:21.060Z</time>
      </trkpt>
      <trkpt lat="46.88235" lon="8.54747">
        <ele>1440</ele>
        <time>2021-08-10T15:18:22.060Z</time>
      </trkpt>
      <trkpt lat="46.88235" lon="8.54746">
        <ele>1440</ele>
        <time>2021-08-10T15:18:23.059Z</time>
      </trkpt>
      <trkpt lat="46.88236" lon="8.54745">
        <ele>1440</ele>
        <time>2021-08-10T15:18:26.077Z</time>
      </trkpt>
      <trkpt lat="46.88236" lon="8.54744">
        <ele>1440</ele>
        <time>2021-08-10T15:18:27.077Z</time>
      </trkpt>
      <trkpt lat="46.88237" lon="8.54744">
        <ele>1440</ele>
        <time>2021-08-10T15:18:28.077Z</time>
      </trkpt>
      <trkpt lat="46.88237" lon="8.54743">
        <ele>1440</ele>
        <time>2021-08-10T15:18:29.077Z</time>
      </trkpt>
      <trkpt lat="46.88237" lon="8.54742">
        <ele>1440</ele>
        <time>2021-08-10T15:18:34.249Z</time>
      </trkpt>
      <trkpt lat="46.88238" lon="8.54741">
        <ele>1440</ele>
        <time>2021-08-10T15:18:35.249Z</time>
      </trkpt>
      <trkpt lat="46.88238" lon="8.5474">
        <ele>1441</ele>
        <time>2021-08-10T15:18:36.250Z</time>
      </trkpt>
      <trkpt lat="46.88239" lon="8.54739">
        <ele>1441</ele>
        <time>2021-08-10T15:18:37.250Z</time>
      </trkpt>
      <trkpt lat="46.88239" lon="8.54739">
        <ele>1441</ele>
        <time>2021-08-10T15:18:38.250Z</time>
      </trkpt>
      <trkpt lat="46.8824" lon="8.54738">
        <ele>1441</ele>
        <time>2021-08-10T15:18:39.250Z</time>
      </trkpt>
      <trkpt lat="46.8824" lon="8.54737">
        <ele>1442</ele>
        <time>2021-08-10T15:18:40.249Z</time>
      </trkpt>
      <trkpt lat="46.8824" lon="8.54736">
        <ele>1442</ele>
        <time>2021-08-10T15:18:41.249Z</time>
      </trkpt>
      <trkpt lat="46.8824" lon="8.54735">
        <ele>1443</ele>
        <time>2021-08-10T15:18:42.250Z</time>
      </trkpt>
      <trkpt lat="46.88241" lon="8.54735">
        <ele>1443</ele>
        <time>2021-08-10T15:18:43.249Z</time>
      </trkpt>
      <trkpt lat="46.88241" lon="8.54735">
        <ele>1443</ele>
        <time>2021-08-10T15:18:44.249Z</time>
      </trkpt>
      <trkpt lat="46.88242" lon="8.54735">
        <ele>1443</ele>
        <time>2021-08-10T15:18:45.250Z</time>
      </trkpt>
      <trkpt lat="46.88243" lon="8.54735">
        <ele>1444</ele>
        <time>2021-08-10T15:18:46.250Z</time>
      </trkpt>
      <trkpt lat="46.88244" lon="8.54734">
        <ele>1444</ele>
        <time>2021-08-10T15:18:47.250Z</time>
      </trkpt>
      <trkpt lat="46.88245" lon="8.54734">
        <ele>1444</ele>
        <time>2021-08-10T15:18:48.250Z</time>
      </trkpt>
      <trkpt lat="46.88246" lon="8.54734">
        <ele>1445</ele>
        <time>2021-08-10T15:18:49.250Z</time>
      </trkpt>
      <trkpt lat="46.88247" lon="8.54733">
        <ele>1446</ele>
        <time>2021-08-10T15:18:50.250Z</time>
      </trkpt>
      <trkpt lat="46.88247" lon="8.54732">
        <ele>1446</ele>
        <time>2021-08-10T15:18:51.250Z</time>
      </trkpt>
      <trkpt lat="46.88247" lon="8.54731">
        <ele>1447</ele>
        <time>2021-08-10T15:18:52.250Z</time>
      </trkpt>
      <trkpt lat="46.88248" lon="8.5473">
        <ele>1447</ele>
        <time>2021-08-10T15:18:53.249Z</time>
      </trkpt>
      <trkpt lat="46.88248" lon="8.5473">
        <ele>1447</ele>
        <time>2021-08-10T15:18:54.250Z</time>
      </trkpt>
      <trkpt lat="46.88249" lon="8.5473">
        <ele>1447</ele>
        <time>2021-08-10T15:18:55.250Z</time>
      </trkpt>
      <trkpt lat="46.8825" lon="8.5473">
        <ele>1448</ele>
        <time>2021-08-10T15:18:56.250Z</time>
      </trkpt>
      <trkpt lat="46.88251" lon="8.5473">
        <ele>1448</ele>
        <time>2021-08-10T15:18:57.249Z</time>
      </trkpt>
      <trkpt lat="46.88252" lon="8.5473">
        <ele>1448</ele>
        <time>2021-08-10T15:18:58.249Z</time>
      </trkpt>
      <trkpt lat="46.88252" lon="8.54729">
        <ele>1448</ele>
        <time>2021-08-10T15:18:59.250Z</time>
      </trkpt>
      <trkpt lat="46.88253" lon="8.54727">
        <ele>1448</ele>
        <time>2021-08-10T15:19:00.250Z</time>
      </trkpt>
      <trkpt lat="46.88252" lon="8.54726">
        <ele>1447</ele>
        <time>2021-08-10T15:19:01.250Z</time>
      </trkpt>
      <trkpt lat="46.88251" lon="8.54725">
        <ele>1447</ele>
        <time>2021-08-10T15:19:02.250Z</time>
      </trkpt>
      <trkpt lat="46.88251" lon="8.54725">
        <ele>1447</ele>
        <time>2021-08-10T15:19:03.250Z</time>
      </trkpt>
      <trkpt lat="46.8825" lon="8.54724">
        <ele>1447</ele>
        <time>2021-08-10T15:19:04.249Z</time>
      </trkpt>
      <trkpt lat="46.8825" lon="8.54724">
        <ele>1446</ele>
        <time>2021-08-10T15:19:05.249Z</time>
      </trkpt>
      <trkpt lat="46.8825" lon="8.54723">
        <ele>1446</ele>
        <time>2021-08-10T15:19:06.249Z</time>
      </trkpt>
      <trkpt lat="46.8825" lon="8.54723">
        <ele>1446</ele>
        <time>2021-08-10T15:19:07.250Z</time>
      </trkpt>
      <trkpt lat="46.88249" lon="8.54722">
        <ele>1447</ele>
        <time>2021-08-10T15:19:08.250Z</time>
      </trkpt>
      <trkpt lat="46.88248" lon="8.54722">
        <ele>1447</ele>
        <time>2021-08-10T15:19:09.250Z</time>
      </trkpt>
      <trkpt lat="46.88247" lon="8.54721">
        <ele>1448</ele>
        <time>2021-08-10T15:19:10.250Z</time>
      </trkpt>
      <trkpt lat="46.88246" lon="8.54721">
        <ele>1448</ele>
        <time>2021-08-10T15:19:11.250Z</time>
      </trkpt>
      <trkpt lat="46.88246" lon="8.54721">
        <ele>1448</ele>
        <time>2021-08-10T15:19:12.250Z</time>
      </trkpt>
      <trkpt lat="46.88245" lon="8.5472">
        <ele>1448</ele>
        <time>2021-08-10T15:19:13.250Z</time>
      </trkpt>
      <trkpt lat="46.88243" lon="8.54719">
        <ele>1449</ele>
        <time>2021-08-10T15:19:14.250Z</time>
      </trkpt>
      <trkpt lat="46.88242" lon="8.54719">
        <ele>1449</ele>
        <time>2021-08-10T15:19:15.249Z</time>
      </trkpt>
      <trkpt lat="46.88241" lon="8.54719">
        <ele>1450</ele>
        <time>2021-08-10T15:19:16.250Z</time>
      </trkpt>
      <trkpt lat="46.8824" lon="8.54719">
        <ele>1450</ele>
        <time>2021-08-10T15:19:17.250Z</time>
      </trkpt>
      <trkpt lat="46.88239" lon="8.54719">
        <ele>1450</ele>
        <time>2021-08-10T15:19:18.250Z</time>
      </trkpt>
      <trkpt lat="46.88238" lon="8.54719">
        <ele>1450</ele>
        <time>2021-08-10T15:19:19.250Z</time>
      </trkpt>
      <trkpt lat="46.88237" lon="8.54719">
        <ele>1450</ele>
        <time>2021-08-10T15:19:20.250Z</time>
      </trkpt>
      <trkpt lat="46.88236" lon="8.5472">
        <ele>1449</ele>
        <time>2021-08-10T15:19:21.250Z</time>
      </trkpt>
      <trkpt lat="46.88235" lon="8.5472">
        <ele>1449</ele>
        <time>2021-08-10T15:19:22.249Z</time>
      </trkpt>
      <trkpt lat="46.88235" lon="8.54721">
        <ele>1449</ele>
        <time>2021-08-10T15:19:23.250Z</time>
      </trkpt>
      <trkpt lat="46.88234" lon="8.54722">
        <ele>1449</ele>
        <time>2021-08-10T15:19:24.250Z</time>
      </trkpt>
      <trkpt lat="46.88233" lon="8.54723">
        <ele>1449</ele>
        <time>2021-08-10T15:19:25.250Z</time>
      </trkpt>
      <trkpt lat="46.88232" lon="8.54723">
        <ele>1449</ele>
        <time>2021-08-10T15:19:26.250Z</time>
      </trkpt>
      <trkpt lat="46.88232" lon="8.54724">
        <ele>1449</ele>
        <time>2021-08-10T15:19:27.250Z</time>
      </trkpt>
      <trkpt lat="46.88231" lon="8.54723">
        <ele>1449</ele>
        <time>2021-08-10T15:19:28.249Z</time>
      </trkpt>
      <trkpt lat="46.8823" lon="8.54724">
        <ele>1448</ele>
        <time>2021-08-10T15:19:29.250Z</time>
      </trkpt>
      <trkpt lat="46.8823" lon="8.54724">
        <ele>1448</ele>
        <time>2021-08-10T15:19:30.250Z</time>
      </trkpt>
      <trkpt lat="46.88229" lon="8.54724">
        <ele>1448</ele>
        <time>2021-08-10T15:19:31.250Z</time>
      </trkpt>
      <trkpt lat="46.88228" lon="8.54724">
        <ele>1449</ele>
        <time>2021-08-10T15:19:32.250Z</time>
      </trkpt>
      <trkpt lat="46.88227" lon="8.54724">
        <ele>1449</ele>
        <time>2021-08-10T15:19:33.250Z</time>
      </trkpt>
      <trkpt lat="46.88226" lon="8.54724">
        <ele>1449</ele>
        <time>2021-08-10T15:19:34.249Z</time>
      </trkpt>
      <trkpt lat="46.88225" lon="8.54723">
        <ele>1449</ele>
        <time>2021-08-10T15:19:35.249Z</time>
      </trkpt>
      <trkpt lat="46.88224" lon="8.54722">
        <ele>1449</ele>
        <time>2021-08-10T15:19:36.250Z</time>
      </trkpt>
      <trkpt lat="46.88224" lon="8.54721">
        <ele>1449</ele>
        <time>2021-08-10T15:19:37.249Z</time>
      </trkpt>
      <trkpt lat="46.88224" lon="8.5472">
        <ele>1449</ele>
        <time>2021-08-10T15:19:38.250Z</time>
      </trkpt>
      <trkpt lat="46.88223" lon="8.54719">
        <ele>1450</ele>
        <time>2021-08-10T15:19:39.250Z</time>
      </trkpt>
      <trkpt lat="46.88223" lon="8.54717">
        <ele>1450</ele>
        <time>2021-08-10T15:19:40.249Z</time>
      </trkpt>
      <trkpt lat="46.88222" lon="8.54717">
        <ele>1450</ele>
        <time>2021-08-10T15:19:43.331Z</time>
      </trkpt>
      <trkpt lat="46.88221" lon="8.54715">
        <ele>1450</ele>
        <time>2021-08-10T15:19:44.330Z</time>
      </trkpt>
      <trkpt lat="46.8822" lon="8.54714">
        <ele>1451</ele>
        <time>2021-08-10T15:19:45.330Z</time>
      </trkpt>
      <trkpt lat="46.88219" lon="8.54712">
        <ele>1451</ele>
        <time>2021-08-10T15:19:46.330Z</time>
      </trkpt>
      <trkpt lat="46.8822" lon="8.54713">
        <ele>1451</ele>
        <time>2021-08-10T15:19:47.330Z</time>
      </trkpt>
      <trkpt lat="46.88221" lon="8.54713">
        <ele>1451</ele>
        <time>2021-08-10T15:19:48.330Z</time>
      </trkpt>
      <trkpt lat="46.88222" lon="8.54713">
        <ele>1451</ele>
        <time>2021-08-10T15:19:49.330Z</time>
      </trkpt>
      <trkpt lat="46.88223" lon="8.54712">
        <ele>1452</ele>
        <time>2021-08-10T15:19:50.330Z</time>
      </trkpt>
      <trkpt lat="46.88224" lon="8.54711">
        <ele>1452</ele>
        <time>2021-08-10T15:19:51.331Z</time>
      </trkpt>
      <trkpt lat="46.88224" lon="8.5471">
        <ele>1452</ele>
        <time>2021-08-10T15:19:52.330Z</time>
      </trkpt>
      <trkpt lat="46.88225" lon="8.54709">
        <ele>1452</ele>
        <time>2021-08-10T15:19:53.331Z</time>
      </trkpt>
      <trkpt lat="46.88225" lon="8.54707">
        <ele>1453</ele>
        <time>2021-08-10T15:19:54.330Z</time>
      </trkpt>
      <trkpt lat="46.88224" lon="8.54706">
        <ele>1453</ele>
        <time>2021-08-10T15:19:55.331Z</time>
      </trkpt>
      <trkpt lat="46.88224" lon="8.54704">
        <ele>1453</ele>
        <time>2021-08-10T15:19:56.331Z</time>
      </trkpt>
      <trkpt lat="46.88223" lon="8.54703">
        <ele>1453</ele>
        <time>2021-08-10T15:19:57.331Z</time>
      </trkpt>
      <trkpt lat="46.88223" lon="8.54703">
        <ele>1454</ele>
        <time>2021-08-10T15:19:58.331Z</time>
      </trkpt>
      <trkpt lat="46.88223" lon="8.54702">
        <ele>1454</ele>
        <time>2021-08-10T15:19:59.331Z</time>
      </trkpt>
      <trkpt lat="46.88222" lon="8.54701">
        <ele>1454</ele>
        <time>2021-08-10T15:20:00.331Z</time>
      </trkpt>
      <trkpt lat="46.88222" lon="8.547">
        <ele>1455</ele>
        <time>2021-08-10T15:20:01.331Z</time>
      </trkpt>
      <trkpt lat="46.88221" lon="8.54699">
        <ele>1455</ele>
        <time>2021-08-10T15:20:02.331Z</time>
      </trkpt>
      <trkpt lat="46.8822" lon="8.54698">
        <ele>1455</ele>
        <time>2021-08-10T15:20:03.331Z</time>
      </trkpt>
      <trkpt lat="46.8822" lon="8.54697">
        <ele>1456</ele>
        <time>2021-08-10T15:20:04.330Z</time>
      </trkpt>
      <trkpt lat="46.8822" lon="8.54696">
        <ele>1456</ele>
        <time>2021-08-10T15:20:05.330Z</time>
      </trkpt>
      <trkpt lat="46.88219" lon="8.54695">
        <ele>1457</ele>
        <time>2021-08-10T15:20:06.331Z</time>
      </trkpt>
      <trkpt lat="46.88219" lon="8.54695">
        <ele>1457</ele>
        <time>2021-08-10T15:20:07.330Z</time>
      </trkpt>
      <trkpt lat="46.88218" lon="8.54695">
        <ele>1457</ele>
        <time>2021-08-10T15:20:08.331Z</time>
      </trkpt>
      <trkpt lat="46.88218" lon="8.54694">
        <ele>1458</ele>
        <time>2021-08-10T15:20:09.330Z</time>
      </trkpt>
      <trkpt lat="46.88217" lon="8.54693">
        <ele>1458</ele>
        <time>2021-08-10T15:20:10.330Z</time>
      </trkpt>
      <trkpt lat="46.88216" lon="8.54692">
        <ele>1459</ele>
        <time>2021-08-10T15:20:11.331Z</time>
      </trkpt>
      <trkpt lat="46.88216" lon="8.54691">
        <ele>1459</ele>
        <time>2021-08-10T15:20:12.331Z</time>
      </trkpt>
      <trkpt lat="46.88216" lon="8.5469">
        <ele>1459</ele>
        <time>2021-08-10T15:20:13.331Z</time>
      </trkpt>
      <trkpt lat="46.88215" lon="8.54689">
        <ele>1459</ele>
        <time>2021-08-10T15:20:14.330Z</time>
      </trkpt>
      <trkpt lat="46.88215" lon="8.54689">
        <ele>1459</ele>
        <time>2021-08-10T15:20:15.330Z</time>
      </trkpt>
      <trkpt lat="46.88215" lon="8.54689">
        <ele>1460</ele>
        <time>2021-08-10T15:20:16.330Z</time>
      </trkpt>
      <trkpt lat="46.88214" lon="8.54688">
        <ele>1460</ele>
        <time>2021-08-10T15:20:17.331Z</time>
      </trkpt>
      <trkpt lat="46.88213" lon="8.54688">
        <ele>1460</ele>
        <time>2021-08-10T15:20:18.330Z</time>
      </trkpt>
      <trkpt lat="46.88213" lon="8.54688">
        <ele>1460</ele>
        <time>2021-08-10T15:20:19.331Z</time>
      </trkpt>
      <trkpt lat="46.88213" lon="8.54687">
        <ele>1460</ele>
        <time>2021-08-10T15:20:20.330Z</time>
      </trkpt>
      <trkpt lat="46.88212" lon="8.54686">
        <ele>1461</ele>
        <time>2021-08-10T15:20:21.331Z</time>
      </trkpt>
      <trkpt lat="46.88212" lon="8.54686">
        <ele>1461</ele>
        <time>2021-08-10T15:20:22.331Z</time>
      </trkpt>
      <trkpt lat="46.88211" lon="8.54685">
        <ele>1461</ele>
        <time>2021-08-10T15:20:23.331Z</time>
      </trkpt>
      <trkpt lat="46.8821" lon="8.54685">
        <ele>1462</ele>
        <time>2021-08-10T15:20:24.330Z</time>
      </trkpt>
      <trkpt lat="46.88209" lon="8.54684">
        <ele>1462</ele>
        <time>2021-08-10T15:20:25.330Z</time>
      </trkpt>
      <trkpt lat="46.88208" lon="8.54683">
        <ele>1462</ele>
        <time>2021-08-10T15:20:26.331Z</time>
      </trkpt>
      <trkpt lat="46.88207" lon="8.54682">
        <ele>1462</ele>
        <time>2021-08-10T15:20:27.331Z</time>
      </trkpt>
      <trkpt lat="46.88206" lon="8.54681">
        <ele>1462</ele>
        <time>2021-08-10T15:20:28.330Z</time>
      </trkpt>
      <trkpt lat="46.88206" lon="8.54681">
        <ele>1463</ele>
        <time>2021-08-10T15:20:29.330Z</time>
      </trkpt>
      <trkpt lat="46.88205" lon="8.54681">
        <ele>1463</ele>
        <time>2021-08-10T15:20:30.330Z</time>
      </trkpt>
      <trkpt lat="46.88204" lon="8.5468">
        <ele>1462</ele>
        <time>2021-08-10T15:20:31.331Z</time>
      </trkpt>
      <trkpt lat="46.88204" lon="8.5468">
        <ele>1462</ele>
        <time>2021-08-10T15:20:32.330Z</time>
      </trkpt>
      <trkpt lat="46.88203" lon="8.5468">
        <ele>1462</ele>
        <time>2021-08-10T15:20:33.330Z</time>
      </trkpt>
      <trkpt lat="46.88202" lon="8.54679">
        <ele>1462</ele>
        <time>2021-08-10T15:20:34.330Z</time>
      </trkpt>
      <trkpt lat="46.88202" lon="8.54678">
        <ele>1462</ele>
        <time>2021-08-10T15:20:35.331Z</time>
      </trkpt>
      <trkpt lat="46.88201" lon="8.54678">
        <ele>1462</ele>
        <time>2021-08-10T15:20:36.330Z</time>
      </trkpt>
      <trkpt lat="46.88201" lon="8.54677">
        <ele>1461</ele>
        <time>2021-08-10T15:20:37.330Z</time>
      </trkpt>
      <trkpt lat="46.88201" lon="8.54677">
        <ele>1461</ele>
        <time>2021-08-10T15:20:38.330Z</time>
      </trkpt>
      <trkpt lat="46.88201" lon="8.54676">
        <ele>1461</ele>
        <time>2021-08-10T15:20:39.330Z</time>
      </trkpt>
      <trkpt lat="46.882" lon="8.54676">
        <ele>1461</ele>
        <time>2021-08-10T15:20:40.330Z</time>
      </trkpt>
      <trkpt lat="46.88199" lon="8.54675">
        <ele>1461</ele>
        <time>2021-08-10T15:20:41.330Z</time>
      </trkpt>
      <trkpt lat="46.88199" lon="8.54674">
        <ele>1461</ele>
        <time>2021-08-10T15:20:42.330Z</time>
      </trkpt>
      <trkpt lat="46.88198" lon="8.54674">
        <ele>1460</ele>
        <time>2021-08-10T15:20:43.331Z</time>
      </trkpt>
      <trkpt lat="46.88197" lon="8.54673">
        <ele>1461</ele>
        <time>2021-08-10T15:20:44.330Z</time>
      </trkpt>
      <trkpt lat="46.88197" lon="8.54672">
        <ele>1461</ele>
        <time>2021-08-10T15:20:45.331Z</time>
      </trkpt>
      <trkpt lat="46.88197" lon="8.54671">
        <ele>1462</ele>
        <time>2021-08-10T15:20:46.331Z</time>
      </trkpt>
      <trkpt lat="46.88197" lon="8.5467">
        <ele>1462</ele>
        <time>2021-08-10T15:20:47.331Z</time>
      </trkpt>
      <trkpt lat="46.88196" lon="8.54669">
        <ele>1463</ele>
        <time>2021-08-10T15:20:48.331Z</time>
      </trkpt>
      <trkpt lat="46.88195" lon="8.54669">
        <ele>1463</ele>
        <time>2021-08-10T15:20:49.330Z</time>
      </trkpt>
      <trkpt lat="46.88195" lon="8.54669">
        <ele>1464</ele>
        <time>2021-08-10T15:20:50.331Z</time>
      </trkpt>
      <trkpt lat="46.88194" lon="8.54668">
        <ele>1465</ele>
        <time>2021-08-10T15:20:51.331Z</time>
      </trkpt>
      <trkpt lat="46.88193" lon="8.54668">
        <ele>1465</ele>
        <time>2021-08-10T15:20:52.331Z</time>
      </trkpt>
      <trkpt lat="46.88193" lon="8.54668">
        <ele>1465</ele>
        <time>2021-08-10T15:20:53.331Z</time>
      </trkpt>
      <trkpt lat="46.88193" lon="8.54668">
        <ele>1466</ele>
        <time>2021-08-10T15:20:54.331Z</time>
      </trkpt>
      <trkpt lat="46.88192" lon="8.54668">
        <ele>1466</ele>
        <time>2021-08-10T15:20:55.330Z</time>
      </trkpt>
      <trkpt lat="46.88191" lon="8.54667">
        <ele>1466</ele>
        <time>2021-08-10T15:20:56.330Z</time>
      </trkpt>
      <trkpt lat="46.88191" lon="8.54668">
        <ele>1466</ele>
        <time>2021-08-10T15:20:57.330Z</time>
      </trkpt>
      <trkpt lat="46.8819" lon="8.54668">
        <ele>1466</ele>
        <time>2021-08-10T15:20:58.331Z</time>
      </trkpt>
      <trkpt lat="46.88189" lon="8.54669">
        <ele>1467</ele>
        <time>2021-08-10T15:21:00.432Z</time>
      </trkpt>
      <trkpt lat="46.88188" lon="8.5467">
        <ele>1467</ele>
        <time>2021-08-10T15:21:01.433Z</time>
      </trkpt>
      <trkpt lat="46.88187" lon="8.54671">
        <ele>1467</ele>
        <time>2021-08-10T15:21:02.433Z</time>
      </trkpt>
      <trkpt lat="46.88186" lon="8.54671">
        <ele>1467</ele>
        <time>2021-08-10T15:21:03.432Z</time>
      </trkpt>
      <trkpt lat="46.88185" lon="8.54671">
        <ele>1467</ele>
        <time>2021-08-10T15:21:04.432Z</time>
      </trkpt>
      <trkpt lat="46.88184" lon="8.54671">
        <ele>1468</ele>
        <time>2021-08-10T15:21:05.433Z</time>
      </trkpt>
      <trkpt lat="46.88183" lon="8.54671">
        <ele>1468</ele>
        <time>2021-08-10T15:21:06.433Z</time>
      </trkpt>
      <trkpt lat="46.88183" lon="8.54671">
        <ele>1469</ele>
        <time>2021-08-10T15:21:07.433Z</time>
      </trkpt>
      <trkpt lat="46.88182" lon="8.54671">
        <ele>1469</ele>
        <time>2021-08-10T15:21:08.433Z</time>
      </trkpt>
      <trkpt lat="46.88182" lon="8.5467">
        <ele>1470</ele>
        <time>2021-08-10T15:21:09.433Z</time>
      </trkpt>
      <trkpt lat="46.88181" lon="8.5467">
        <ele>1470</ele>
        <time>2021-08-10T15:21:10.432Z</time>
      </trkpt>
      <trkpt lat="46.8818" lon="8.5467">
        <ele>1471</ele>
        <time>2021-08-10T15:21:11.433Z</time>
      </trkpt>
      <trkpt lat="46.8818" lon="8.5467">
        <ele>1471</ele>
        <time>2021-08-10T15:21:12.433Z</time>
      </trkpt>
      <trkpt lat="46.88178" lon="8.5467">
        <ele>1471</ele>
        <time>2021-08-10T15:21:13.433Z</time>
      </trkpt>
      <trkpt lat="46.88177" lon="8.5467">
        <ele>1471</ele>
        <time>2021-08-10T15:21:14.433Z</time>
      </trkpt>
      <trkpt lat="46.88176" lon="8.54669">
        <ele>1470</ele>
        <time>2021-08-10T15:21:15.432Z</time>
      </trkpt>
      <trkpt lat="46.88175" lon="8.54669">
        <ele>1470</ele>
        <time>2021-08-10T15:21:16.433Z</time>
      </trkpt>
      <trkpt lat="46.88174" lon="8.54668">
        <ele>1470</ele>
        <time>2021-08-10T15:21:17.432Z</time>
      </trkpt>
      <trkpt lat="46.88174" lon="8.54668">
        <ele>1470</ele>
        <time>2021-08-10T15:21:18.432Z</time>
      </trkpt>
      <trkpt lat="46.88172" lon="8.54668">
        <ele>1471</ele>
        <time>2021-08-10T15:21:19.432Z</time>
      </trkpt>
      <trkpt lat="46.88172" lon="8.54668">
        <ele>1471</ele>
        <time>2021-08-10T15:21:20.432Z</time>
      </trkpt>
      <trkpt lat="46.88171" lon="8.54668">
        <ele>1471</ele>
        <time>2021-08-10T15:21:21.433Z</time>
      </trkpt>
      <trkpt lat="46.88171" lon="8.54667">
        <ele>1471</ele>
        <time>2021-08-10T15:21:22.433Z</time>
      </trkpt>
      <trkpt lat="46.8817" lon="8.54667">
        <ele>1471</ele>
        <time>2021-08-10T15:21:23.433Z</time>
      </trkpt>
      <trkpt lat="46.88169" lon="8.54666">
        <ele>1470</ele>
        <time>2021-08-10T15:21:24.432Z</time>
      </trkpt>
      <trkpt lat="46.88168" lon="8.54666">
        <ele>1470</ele>
        <time>2021-08-10T15:21:25.433Z</time>
      </trkpt>
      <trkpt lat="46.88167" lon="8.54666">
        <ele>1470</ele>
        <time>2021-08-10T15:21:26.433Z</time>
      </trkpt>
      <trkpt lat="46.88167" lon="8.54667">
        <ele>1470</ele>
        <time>2021-08-10T15:21:27.433Z</time>
      </trkpt>
      <trkpt lat="46.88166" lon="8.54667">
        <ele>1471</ele>
        <time>2021-08-10T15:21:28.432Z</time>
      </trkpt>
      <trkpt lat="46.88166" lon="8.54666">
        <ele>1471</ele>
        <time>2021-08-10T15:21:29.433Z</time>
      </trkpt>
      <trkpt lat="46.88165" lon="8.54666">
        <ele>1471</ele>
        <time>2021-08-10T15:21:30.432Z</time>
      </trkpt>
      <trkpt lat="46.88164" lon="8.54666">
        <ele>1472</ele>
        <time>2021-08-10T15:21:31.432Z</time>
      </trkpt>
      <trkpt lat="46.88163" lon="8.54667">
        <ele>1472</ele>
        <time>2021-08-10T15:21:32.432Z</time>
      </trkpt>
      <trkpt lat="46.88162" lon="8.54666">
        <ele>1473</ele>
        <time>2021-08-10T15:21:33.432Z</time>
      </trkpt>
      <trkpt lat="46.88161" lon="8.54666">
        <ele>1473</ele>
        <time>2021-08-10T15:21:34.432Z</time>
      </trkpt>
      <trkpt lat="46.8816" lon="8.54666">
        <ele>1473</ele>
        <time>2021-08-10T15:21:35.432Z</time>
      </trkpt>
      <trkpt lat="46.88159" lon="8.54665">
        <ele>1473</ele>
        <time>2021-08-10T15:21:36.432Z</time>
      </trkpt>
      <trkpt lat="46.88159" lon="8.54665">
        <ele>1473</ele>
        <time>2021-08-10T15:21:37.432Z</time>
      </trkpt>
      <trkpt lat="46.88158" lon="8.54665">
        <ele>1473</ele>
        <time>2021-08-10T15:21:46.613Z</time>
      </trkpt>
      <trkpt lat="46.88158" lon="8.54665">
        <ele>1473</ele>
        <time>2021-08-10T15:21:47.614Z</time>
      </trkpt>
      <trkpt lat="46.88157" lon="8.54664">
        <ele>1473</ele>
        <time>2021-08-10T15:21:48.614Z</time>
      </trkpt>
      <trkpt lat="46.88157" lon="8.54664">
        <ele>1473</ele>
        <time>2021-08-10T15:21:49.613Z</time>
      </trkpt>
      <trkpt lat="46.88156" lon="8.54663">
        <ele>1473</ele>
        <time>2021-08-10T15:21:50.614Z</time>
      </trkpt>
      <trkpt lat="46.88155" lon="8.54663">
        <ele>1473</ele>
        <time>2021-08-10T15:21:51.614Z</time>
      </trkpt>
      <trkpt lat="46.88155" lon="8.54663">
        <ele>1473</ele>
        <time>2021-08-10T15:21:52.614Z</time>
      </trkpt>
      <trkpt lat="46.88154" lon="8.54662">
        <ele>1473</ele>
        <time>2021-08-10T15:21:53.614Z</time>
      </trkpt>
      <trkpt lat="46.88153" lon="8.54661">
        <ele>1473</ele>
        <time>2021-08-10T15:21:54.613Z</time>
      </trkpt>
      <trkpt lat="46.88153" lon="8.54661">
        <ele>1473</ele>
        <time>2021-08-10T15:21:55.613Z</time>
      </trkpt>
      <trkpt lat="46.88153" lon="8.5466">
        <ele>1474</ele>
        <time>2021-08-10T15:21:56.614Z</time>
      </trkpt>
      <trkpt lat="46.88154" lon="8.54659">
        <ele>1475</ele>
        <time>2021-08-10T15:21:57.613Z</time>
      </trkpt>
      <trkpt lat="46.88153" lon="8.54658">
        <ele>1475</ele>
        <time>2021-08-10T15:21:58.613Z</time>
      </trkpt>
      <trkpt lat="46.88154" lon="8.54657">
        <ele>1476</ele>
        <time>2021-08-10T15:21:59.614Z</time>
      </trkpt>
      <trkpt lat="46.88154" lon="8.54656">
        <ele>1476</ele>
        <time>2021-08-10T15:22:00.613Z</time>
      </trkpt>
      <trkpt lat="46.88154" lon="8.54655">
        <ele>1477</ele>
        <time>2021-08-10T15:22:01.614Z</time>
      </trkpt>
      <trkpt lat="46.88154" lon="8.54654">
        <ele>1477</ele>
        <time>2021-08-10T15:22:02.614Z</time>
      </trkpt>
      <trkpt lat="46.88154" lon="8.54653">
        <ele>1478</ele>
        <time>2021-08-10T15:22:03.614Z</time>
      </trkpt>
      <trkpt lat="46.88155" lon="8.54652">
        <ele>1478</ele>
        <time>2021-08-10T15:22:04.613Z</time>
      </trkpt>
      <trkpt lat="46.88155" lon="8.54652">
        <ele>1478</ele>
        <time>2021-08-10T15:22:05.614Z</time>
      </trkpt>
      <trkpt lat="46.88155" lon="8.54651">
        <ele>1478</ele>
        <time>2021-08-10T15:22:06.614Z</time>
      </trkpt>
      <trkpt lat="46.88156" lon="8.54651">
        <ele>1478</ele>
        <time>2021-08-10T15:22:07.613Z</time>
      </trkpt>
      <trkpt lat="46.88156" lon="8.54651">
        <ele>1478</ele>
        <time>2021-08-10T15:22:08.613Z</time>
      </trkpt>
      <trkpt lat="46.88156" lon="8.54651">
        <ele>1477</ele>
        <time>2021-08-10T15:22:12.702Z</time>
      </trkpt>
      <trkpt lat="46.88156" lon="8.54651">
        <ele>1477</ele>
        <time>2021-08-10T15:22:13.702Z</time>
      </trkpt>
      <trkpt lat="46.88157" lon="8.54651">
        <ele>1477</ele>
        <time>2021-08-10T15:22:14.703Z</time>
      </trkpt>
      <trkpt lat="46.88158" lon="8.5465">
        <ele>1476</ele>
        <time>2021-08-10T15:22:15.702Z</time>
      </trkpt>
      <trkpt lat="46.88158" lon="8.5465">
        <ele>1476</ele>
        <time>2021-08-10T15:22:25.872Z</time>
      </trkpt>
      <trkpt lat="46.88159" lon="8.5465">
        <ele>1476</ele>
        <time>2021-08-10T15:22:26.872Z</time>
      </trkpt>
      <trkpt lat="46.8816" lon="8.5465">
        <ele>1476</ele>
        <time>2021-08-10T15:22:27.873Z</time>
      </trkpt>
      <trkpt lat="46.88161" lon="8.5465">
        <ele>1477</ele>
        <time>2021-08-10T15:22:28.873Z</time>
      </trkpt>
      <trkpt lat="46.88162" lon="8.5465">
        <ele>1477</ele>
        <time>2021-08-10T15:22:29.872Z</time>
      </trkpt>
      <trkpt lat="46.88162" lon="8.54649">
        <ele>1478</ele>
        <time>2021-08-10T15:22:30.872Z</time>
      </trkpt>
      <trkpt lat="46.88163" lon="8.54647">
        <ele>1479</ele>
        <time>2021-08-10T15:22:31.872Z</time>
      </trkpt>
      <trkpt lat="46.88164" lon="8.54646">
        <ele>1480</ele>
        <time>2021-08-10T15:22:32.872Z</time>
      </trkpt>
      <trkpt lat="46.88164" lon="8.54645">
        <ele>1481</ele>
        <time>2021-08-10T15:22:33.873Z</time>
      </trkpt>
      <trkpt lat="46.88165" lon="8.54644">
        <ele>1482</ele>
        <time>2021-08-10T15:22:34.873Z</time>
      </trkpt>
      <trkpt lat="46.88166" lon="8.54643">
        <ele>1483</ele>
        <time>2021-08-10T15:22:35.872Z</time>
      </trkpt>
      <trkpt lat="46.88166" lon="8.54643">
        <ele>1483</ele>
        <time>2021-08-10T15:22:36.872Z</time>
      </trkpt>
      <trkpt lat="46.88167" lon="8.54642">
        <ele>1484</ele>
        <time>2021-08-10T15:22:37.872Z</time>
      </trkpt>
      <trkpt lat="46.88168" lon="8.5464">
        <ele>1485</ele>
        <time>2021-08-10T15:22:38.873Z</time>
      </trkpt>
      <trkpt lat="46.88168" lon="8.54639">
        <ele>1486</ele>
        <time>2021-08-10T15:22:39.872Z</time>
      </trkpt>
      <trkpt lat="46.88168" lon="8.54638">
        <ele>1487</ele>
        <time>2021-08-10T15:22:40.873Z</time>
      </trkpt>
      <trkpt lat="46.88169" lon="8.54637">
        <ele>1487</ele>
        <time>2021-08-10T15:22:45.949Z</time>
      </trkpt>
      <trkpt lat="46.8817" lon="8.54636">
        <ele>1487</ele>
        <time>2021-08-10T15:22:46.949Z</time>
      </trkpt>
      <trkpt lat="46.8817" lon="8.54634">
        <ele>1488</ele>
        <time>2021-08-10T15:22:47.949Z</time>
      </trkpt>
      <trkpt lat="46.88171" lon="8.54633">
        <ele>1488</ele>
        <time>2021-08-10T15:22:48.949Z</time>
      </trkpt>
      <trkpt lat="46.88171" lon="8.54632">
        <ele>1487</ele>
        <time>2021-08-10T15:22:49.949Z</time>
      </trkpt>
      <trkpt lat="46.88171" lon="8.5463">
        <ele>1488</ele>
        <time>2021-08-10T15:22:50.949Z</time>
      </trkpt>
      <trkpt lat="46.88171" lon="8.54629">
        <ele>1488</ele>
        <time>2021-08-10T15:22:51.949Z</time>
      </trkpt>
      <trkpt lat="46.88172" lon="8.54628">
        <ele>1488</ele>
        <time>2021-08-10T15:22:52.949Z</time>
      </trkpt>
      <trkpt lat="46.88172" lon="8.54626">
        <ele>1487</ele>
        <time>2021-08-10T15:22:53.949Z</time>
      </trkpt>
      <trkpt lat="46.88173" lon="8.54625">
        <ele>1487</ele>
        <time>2021-08-10T15:22:54.949Z</time>
      </trkpt>
      <trkpt lat="46.88173" lon="8.54624">
        <ele>1486</ele>
        <time>2021-08-10T15:22:55.949Z</time>
      </trkpt>
      <trkpt lat="46.88173" lon="8.54623">
        <ele>1486</ele>
        <time>2021-08-10T15:22:56.949Z</time>
      </trkpt>
      <trkpt lat="46.88174" lon="8.54622">
        <ele>1485</ele>
        <time>2021-08-10T15:22:57.949Z</time>
      </trkpt>
      <trkpt lat="46.88174" lon="8.54621">
        <ele>1485</ele>
        <time>2021-08-10T15:22:58.949Z</time>
      </trkpt>
      <trkpt lat="46.88175" lon="8.54621">
        <ele>1485</ele>
        <time>2021-08-10T15:22:59.949Z</time>
      </trkpt>
      <trkpt lat="46.88176" lon="8.5462">
        <ele>1485</ele>
        <time>2021-08-10T15:23:00.950Z</time>
      </trkpt>
      <trkpt lat="46.88177" lon="8.5462">
        <ele>1485</ele>
        <time>2021-08-10T15:23:01.950Z</time>
      </trkpt>
      <trkpt lat="46.88177" lon="8.5462">
        <ele>1485</ele>
        <time>2021-08-10T15:23:02.950Z</time>
      </trkpt>
      <trkpt lat="46.88176" lon="8.5462">
        <ele>1485</ele>
        <time>2021-08-10T15:23:03.949Z</time>
      </trkpt>
      <trkpt lat="46.88176" lon="8.5462">
        <ele>1484</ele>
        <time>2021-08-10T15:23:04.950Z</time>
      </trkpt>
      <trkpt lat="46.88175" lon="8.5462">
        <ele>1484</ele>
        <time>2021-08-10T15:23:08.076Z</time>
      </trkpt>
      <trkpt lat="46.88175" lon="8.5462">
        <ele>1484</ele>
        <time>2021-08-10T15:23:09.076Z</time>
      </trkpt>
      <trkpt lat="46.88175" lon="8.5462">
        <ele>1483</ele>
        <time>2021-08-10T15:23:10.076Z</time>
      </trkpt>
      <trkpt lat="46.88176" lon="8.5462">
        <ele>1482</ele>
        <time>2021-08-10T15:23:11.078Z</time>
      </trkpt>
      <trkpt lat="46.88176" lon="8.5462">
        <ele>1482</ele>
        <time>2021-08-10T15:23:12.078Z</time>
      </trkpt>
      <trkpt lat="46.88176" lon="8.5462">
        <ele>1481</ele>
        <time>2021-08-10T15:23:15.207Z</time>
      </trkpt>
      <trkpt lat="46.88177" lon="8.54617">
        <ele>1479</ele>
        <time>2021-08-10T15:23:16.209Z</time>
      </trkpt>
      <trkpt lat="46.88177" lon="8.54616">
        <ele>1479</ele>
        <time>2021-08-10T15:23:17.209Z</time>
      </trkpt>
      <trkpt lat="46.88177" lon="8.54615">
        <ele>1479</ele>
        <time>2021-08-10T15:23:18.209Z</time>
      </trkpt>
      <trkpt lat="46.88177" lon="8.54614">
        <ele>1479</ele>
        <time>2021-08-10T15:23:19.209Z</time>
      </trkpt>
      <trkpt lat="46.88177" lon="8.54614">
        <ele>1479</ele>
        <time>2021-08-10T15:23:20.209Z</time>
      </trkpt>
      <trkpt lat="46.88177" lon="8.54613">
        <ele>1478</ele>
        <time>2021-08-10T15:23:21.209Z</time>
      </trkpt>
      <trkpt lat="46.88175" lon="8.54615">
        <ele>1477</ele>
        <time>2021-08-10T15:23:22.208Z</time>
      </trkpt>
      <trkpt lat="46.88175" lon="8.54615">
        <ele>1477</ele>
        <time>2021-08-10T15:23:23.208Z</time>
      </trkpt>
      <trkpt lat="46.88174" lon="8.54616">
        <ele>1476</ele>
        <time>2021-08-10T15:23:24.209Z</time>
      </trkpt>
    </trkseg>
  </trk>
</gpx>